<?xml version="1.0" encoding="UTF-8" standalone="no" ?>
<gpx xmlns="http://www.topografix.com/GPX/1/1" xmlns:xsi="http://www.w3.org/2001/XMLSchema-instance" xsi:schemaLocation="http://www.topografix.com/GPX/1/1 http://www.topografix.com/GPX/1/1/gpx.xsd" version="1.1" creator="VisuGPX - https://www.visugpx.com">
  <metadata>
    <name>Arbizon</name>
  </metadata>
  <trk>
    <name><![CDATA[Arbizon]]></name>
    <trkseg>
      <trkpt lat="42.84839" lon="0.28853">
        <ele>1278.6</ele>
        <time>2022-02-12T07:35:51Z</time>
      </trkpt>
      <trkpt lat="42.84839" lon="0.28852">
        <ele>1278.6</ele>
        <time>2022-02-12T07:35:52Z</time>
      </trkpt>
      <trkpt lat="42.84843" lon="0.28846">
        <ele>1278.6</ele>
        <time>2022-02-12T07:35:56Z</time>
      </trkpt>
      <trkpt lat="42.84845" lon="0.28839">
        <ele>1279.2</ele>
        <time>2022-02-12T07:35:59Z</time>
      </trkpt>
      <trkpt lat="42.84846" lon="0.28837">
        <ele>1279.8</ele>
        <time>2022-02-12T07:36:00Z</time>
      </trkpt>
      <trkpt lat="42.84846" lon="0.28835">
        <ele>1280</ele>
        <time>2022-02-12T07:36:01Z</time>
      </trkpt>
      <trkpt lat="42.84845" lon="0.28825">
        <ele>1280.4</ele>
        <time>2022-02-12T07:36:05Z</time>
      </trkpt>
      <trkpt lat="42.84845" lon="0.28823">
        <ele>1280.4</ele>
        <time>2022-02-12T07:36:06Z</time>
      </trkpt>
      <trkpt lat="42.84845" lon="0.28816">
        <ele>1280.6</ele>
        <time>2022-02-12T07:36:09Z</time>
      </trkpt>
      <trkpt lat="42.84845" lon="0.28812">
        <ele>1280.8</ele>
        <time>2022-02-12T07:36:12Z</time>
      </trkpt>
      <trkpt lat="42.84844" lon="0.28809">
        <ele>1280.8</ele>
        <time>2022-02-12T07:36:14Z</time>
      </trkpt>
      <trkpt lat="42.84842" lon="0.28803">
        <ele>1281.4</ele>
        <time>2022-02-12T07:36:20Z</time>
      </trkpt>
      <trkpt lat="42.8484" lon="0.28801">
        <ele>1281.4</ele>
        <time>2022-02-12T07:36:22Z</time>
      </trkpt>
      <trkpt lat="42.84836" lon="0.28794">
        <ele>1281.6</ele>
        <time>2022-02-12T07:36:29Z</time>
      </trkpt>
      <trkpt lat="42.84836" lon="0.28789">
        <ele>1281.6</ele>
        <time>2022-02-12T07:36:32Z</time>
      </trkpt>
      <trkpt lat="42.84837" lon="0.28786">
        <ele>1281.6</ele>
        <time>2022-02-12T07:36:34Z</time>
      </trkpt>
      <trkpt lat="42.84836" lon="0.28785">
        <ele>1281.6</ele>
        <time>2022-02-12T07:36:35Z</time>
      </trkpt>
      <trkpt lat="42.84836" lon="0.28783">
        <ele>1281.6</ele>
        <time>2022-02-12T07:36:37Z</time>
      </trkpt>
      <trkpt lat="42.84836" lon="0.28779">
        <ele>1281.6</ele>
        <time>2022-02-12T07:36:40Z</time>
      </trkpt>
      <trkpt lat="42.84836" lon="0.28778">
        <ele>1281.6</ele>
        <time>2022-02-12T07:36:41Z</time>
      </trkpt>
      <trkpt lat="42.84836" lon="0.28775">
        <ele>1281.6</ele>
        <time>2022-02-12T07:36:44Z</time>
      </trkpt>
      <trkpt lat="42.84837" lon="0.28773">
        <ele>1281.8</ele>
        <time>2022-02-12T07:36:46Z</time>
      </trkpt>
      <trkpt lat="42.84837" lon="0.28771">
        <ele>1282</ele>
        <time>2022-02-12T07:36:47Z</time>
      </trkpt>
      <trkpt lat="42.84839" lon="0.2876">
        <ele>1282.4</ele>
        <time>2022-02-12T07:36:52Z</time>
      </trkpt>
      <trkpt lat="42.84839" lon="0.28753">
        <ele>1282.6</ele>
        <time>2022-02-12T07:36:56Z</time>
      </trkpt>
      <trkpt lat="42.84839" lon="0.28751">
        <ele>1282.8</ele>
        <time>2022-02-12T07:36:57Z</time>
      </trkpt>
      <trkpt lat="42.84838" lon="0.2875">
        <ele>1282.8</ele>
        <time>2022-02-12T07:36:58Z</time>
      </trkpt>
      <trkpt lat="42.84837" lon="0.28746">
        <ele>1283</ele>
        <time>2022-02-12T07:37:00Z</time>
      </trkpt>
      <trkpt lat="42.84837" lon="0.28745">
        <ele>1283</ele>
        <time>2022-02-12T07:37:01Z</time>
      </trkpt>
      <trkpt lat="42.84836" lon="0.28734">
        <ele>1283.2</ele>
        <time>2022-02-12T07:37:06Z</time>
      </trkpt>
      <trkpt lat="42.84836" lon="0.2872">
        <ele>1283.2</ele>
        <time>2022-02-12T07:37:13Z</time>
      </trkpt>
      <trkpt lat="42.84834" lon="0.28708">
        <ele>1283.4</ele>
        <time>2022-02-12T07:37:19Z</time>
      </trkpt>
      <trkpt lat="42.84832" lon="0.28698">
        <ele>1283.4</ele>
        <time>2022-02-12T07:37:26Z</time>
      </trkpt>
      <trkpt lat="42.84835" lon="0.28693">
        <ele>1283.4</ele>
        <time>2022-02-12T07:37:30Z</time>
      </trkpt>
      <trkpt lat="42.84835" lon="0.2869">
        <ele>1283.4</ele>
        <time>2022-02-12T07:37:33Z</time>
      </trkpt>
      <trkpt lat="42.84836" lon="0.28689">
        <ele>1283.4</ele>
        <time>2022-02-12T07:37:34Z</time>
      </trkpt>
      <trkpt lat="42.84837" lon="0.28685">
        <ele>1283.2</ele>
        <time>2022-02-12T07:37:37Z</time>
      </trkpt>
      <trkpt lat="42.84837" lon="0.28681">
        <ele>1283.4</ele>
        <time>2022-02-12T07:37:39Z</time>
      </trkpt>
      <trkpt lat="42.84837" lon="0.28677">
        <ele>1283.4</ele>
        <time>2022-02-12T07:37:42Z</time>
      </trkpt>
      <trkpt lat="42.84837" lon="0.28676">
        <ele>1283.4</ele>
        <time>2022-02-12T07:37:43Z</time>
      </trkpt>
      <trkpt lat="42.84837" lon="0.28669">
        <ele>1283.4</ele>
        <time>2022-02-12T07:37:45Z</time>
      </trkpt>
      <trkpt lat="42.84837" lon="0.28661">
        <ele>1283.2</ele>
        <time>2022-02-12T07:37:48Z</time>
      </trkpt>
      <trkpt lat="42.84836" lon="0.28656">
        <ele>1283.2</ele>
        <time>2022-02-12T07:37:51Z</time>
      </trkpt>
      <trkpt lat="42.84836" lon="0.28655">
        <ele>1283</ele>
        <time>2022-02-12T07:37:52Z</time>
      </trkpt>
      <trkpt lat="42.84835" lon="0.28651">
        <ele>1283</ele>
        <time>2022-02-12T07:37:55Z</time>
      </trkpt>
      <trkpt lat="42.84835" lon="0.28644">
        <ele>1283</ele>
        <time>2022-02-12T07:37:58Z</time>
      </trkpt>
      <trkpt lat="42.84835" lon="0.28639">
        <ele>1282.8</ele>
        <time>2022-02-12T07:38:01Z</time>
      </trkpt>
      <trkpt lat="42.84835" lon="0.28637">
        <ele>1282.8</ele>
        <time>2022-02-12T07:38:03Z</time>
      </trkpt>
      <trkpt lat="42.84834" lon="0.28635">
        <ele>1283</ele>
        <time>2022-02-12T07:38:04Z</time>
      </trkpt>
      <trkpt lat="42.8483" lon="0.28627">
        <ele>1282.8</ele>
        <time>2022-02-12T07:38:10Z</time>
      </trkpt>
      <trkpt lat="42.84829" lon="0.28623">
        <ele>1282.8</ele>
        <time>2022-02-12T07:38:13Z</time>
      </trkpt>
      <trkpt lat="42.84824" lon="0.28614">
        <ele>1282.4</ele>
        <time>2022-02-12T07:38:20Z</time>
      </trkpt>
      <trkpt lat="42.84824" lon="0.28613">
        <ele>1282.2</ele>
        <time>2022-02-12T07:38:21Z</time>
      </trkpt>
      <trkpt lat="42.84823" lon="0.28612">
        <ele>1282</ele>
        <time>2022-02-12T07:38:23Z</time>
      </trkpt>
      <trkpt lat="42.84822" lon="0.2861">
        <ele>1282.2</ele>
        <time>2022-02-12T07:38:25Z</time>
      </trkpt>
      <trkpt lat="42.84819" lon="0.28607">
        <ele>1282.4</ele>
        <time>2022-02-12T07:38:28Z</time>
      </trkpt>
      <trkpt lat="42.84819" lon="0.28605">
        <ele>1282.4</ele>
        <time>2022-02-12T07:38:29Z</time>
      </trkpt>
      <trkpt lat="42.84816" lon="0.28601">
        <ele>1281.8</ele>
        <time>2022-02-12T07:38:32Z</time>
      </trkpt>
      <trkpt lat="42.8481" lon="0.28595">
        <ele>1281.4</ele>
        <time>2022-02-12T07:38:37Z</time>
      </trkpt>
      <trkpt lat="42.84809" lon="0.28592">
        <ele>1281.4</ele>
        <time>2022-02-12T07:38:39Z</time>
      </trkpt>
      <trkpt lat="42.84806" lon="0.28587">
        <ele>1281</ele>
        <time>2022-02-12T07:38:42Z</time>
      </trkpt>
      <trkpt lat="42.84805" lon="0.28586">
        <ele>1280.8</ele>
        <time>2022-02-12T07:38:43Z</time>
      </trkpt>
      <trkpt lat="42.84804" lon="0.28584">
        <ele>1280.8</ele>
        <time>2022-02-12T07:38:44Z</time>
      </trkpt>
      <trkpt lat="42.84798" lon="0.28576">
        <ele>1280.6</ele>
        <time>2022-02-12T07:38:50Z</time>
      </trkpt>
      <trkpt lat="42.84792" lon="0.28568">
        <ele>1280</ele>
        <time>2022-02-12T07:38:56Z</time>
      </trkpt>
      <trkpt lat="42.84786" lon="0.28556">
        <ele>1279.8</ele>
        <time>2022-02-12T07:39:02Z</time>
      </trkpt>
      <trkpt lat="42.84783" lon="0.28552">
        <ele>1280</ele>
        <time>2022-02-12T07:39:05Z</time>
      </trkpt>
      <trkpt lat="42.84782" lon="0.28548">
        <ele>1280</ele>
        <time>2022-02-12T07:39:08Z</time>
      </trkpt>
      <trkpt lat="42.84779" lon="0.2854">
        <ele>1279.6</ele>
        <time>2022-02-12T07:39:13Z</time>
      </trkpt>
      <trkpt lat="42.84779" lon="0.28538">
        <ele>1279.8</ele>
        <time>2022-02-12T07:39:14Z</time>
      </trkpt>
      <trkpt lat="42.84777" lon="0.28527">
        <ele>1279.8</ele>
        <time>2022-02-12T07:39:21Z</time>
      </trkpt>
      <trkpt lat="42.84777" lon="0.28525">
        <ele>1279.8</ele>
        <time>2022-02-12T07:39:22Z</time>
      </trkpt>
      <trkpt lat="42.84775" lon="0.28522">
        <ele>1279.6</ele>
        <time>2022-02-12T07:39:24Z</time>
      </trkpt>
      <trkpt lat="42.84773" lon="0.28516">
        <ele>1279.6</ele>
        <time>2022-02-12T07:39:28Z</time>
      </trkpt>
      <trkpt lat="42.84771" lon="0.28514">
        <ele>1279.6</ele>
        <time>2022-02-12T07:39:30Z</time>
      </trkpt>
      <trkpt lat="42.8477" lon="0.28511">
        <ele>1279.4</ele>
        <time>2022-02-12T07:39:32Z</time>
      </trkpt>
      <trkpt lat="42.84769" lon="0.28506">
        <ele>1279.4</ele>
        <time>2022-02-12T07:39:35Z</time>
      </trkpt>
      <trkpt lat="42.84768" lon="0.28504">
        <ele>1279.4</ele>
        <time>2022-02-12T07:39:36Z</time>
      </trkpt>
      <trkpt lat="42.84766" lon="0.28495">
        <ele>1279.4</ele>
        <time>2022-02-12T07:39:41Z</time>
      </trkpt>
      <trkpt lat="42.84766" lon="0.28486">
        <ele>1279.4</ele>
        <time>2022-02-12T07:39:47Z</time>
      </trkpt>
      <trkpt lat="42.84766" lon="0.28484">
        <ele>1279.4</ele>
        <time>2022-02-12T07:39:48Z</time>
      </trkpt>
      <trkpt lat="42.84766" lon="0.28478">
        <ele>1279.4</ele>
        <time>2022-02-12T07:39:52Z</time>
      </trkpt>
      <trkpt lat="42.84765" lon="0.28474">
        <ele>1279.4</ele>
        <time>2022-02-12T07:39:54Z</time>
      </trkpt>
      <trkpt lat="42.84763" lon="0.28461">
        <ele>1279.2</ele>
        <time>2022-02-12T07:40:03Z</time>
      </trkpt>
      <trkpt lat="42.84761" lon="0.28457">
        <ele>1278.6</ele>
        <time>2022-02-12T07:40:07Z</time>
      </trkpt>
      <trkpt lat="42.84759" lon="0.28451">
        <ele>1278.2</ele>
        <time>2022-02-12T07:40:11Z</time>
      </trkpt>
      <trkpt lat="42.84758" lon="0.28449">
        <ele>1278.2</ele>
        <time>2022-02-12T07:40:12Z</time>
      </trkpt>
      <trkpt lat="42.84756" lon="0.28436">
        <ele>1278</ele>
        <time>2022-02-12T07:40:19Z</time>
      </trkpt>
      <trkpt lat="42.84756" lon="0.28424">
        <ele>1278.6</ele>
        <time>2022-02-12T07:40:26Z</time>
      </trkpt>
      <trkpt lat="42.84759" lon="0.28411">
        <ele>1278.4</ele>
        <time>2022-02-12T07:40:33Z</time>
      </trkpt>
      <trkpt lat="42.8476" lon="0.2841">
        <ele>1278.4</ele>
        <time>2022-02-12T07:40:34Z</time>
      </trkpt>
      <trkpt lat="42.84762" lon="0.28407">
        <ele>1278.4</ele>
        <time>2022-02-12T07:40:36Z</time>
      </trkpt>
      <trkpt lat="42.84763" lon="0.28405">
        <ele>1278.2</ele>
        <time>2022-02-12T07:40:37Z</time>
      </trkpt>
      <trkpt lat="42.84764" lon="0.28404">
        <ele>1278.2</ele>
        <time>2022-02-12T07:40:38Z</time>
      </trkpt>
      <trkpt lat="42.84766" lon="0.28402">
        <ele>1278</ele>
        <time>2022-02-12T07:40:40Z</time>
      </trkpt>
      <trkpt lat="42.84773" lon="0.28399">
        <ele>1278.2</ele>
        <time>2022-02-12T07:40:45Z</time>
      </trkpt>
      <trkpt lat="42.84779" lon="0.28401">
        <ele>1278.4</ele>
        <time>2022-02-12T07:40:51Z</time>
      </trkpt>
      <trkpt lat="42.84785" lon="0.28403">
        <ele>1278.8</ele>
        <time>2022-02-12T07:40:57Z</time>
      </trkpt>
      <trkpt lat="42.84791" lon="0.28407">
        <ele>1279.6</ele>
        <time>2022-02-12T07:41:03Z</time>
      </trkpt>
      <trkpt lat="42.84792" lon="0.28407">
        <ele>1279.6</ele>
        <time>2022-02-12T07:41:04Z</time>
      </trkpt>
      <trkpt lat="42.848" lon="0.28413">
        <ele>1280.6</ele>
        <time>2022-02-12T07:41:13Z</time>
      </trkpt>
      <trkpt lat="42.84801" lon="0.28414">
        <ele>1280.8</ele>
        <time>2022-02-12T07:41:14Z</time>
      </trkpt>
      <trkpt lat="42.84801" lon="0.28414">
        <ele>1281</ele>
        <time>2022-02-12T07:41:15Z</time>
      </trkpt>
      <trkpt lat="42.84804" lon="0.28416">
        <ele>1281.4</ele>
        <time>2022-02-12T07:41:18Z</time>
      </trkpt>
      <trkpt lat="42.84807" lon="0.28418">
        <ele>1282</ele>
        <time>2022-02-12T07:41:21Z</time>
      </trkpt>
      <trkpt lat="42.8481" lon="0.2842">
        <ele>1282.4</ele>
        <time>2022-02-12T07:41:25Z</time>
      </trkpt>
      <trkpt lat="42.84811" lon="0.2842">
        <ele>1282.6</ele>
        <time>2022-02-12T07:41:26Z</time>
      </trkpt>
      <trkpt lat="42.84812" lon="0.2842">
        <ele>1282.6</ele>
        <time>2022-02-12T07:41:27Z</time>
      </trkpt>
      <trkpt lat="42.84813" lon="0.2842">
        <ele>1282.6</ele>
        <time>2022-02-12T07:41:28Z</time>
      </trkpt>
      <trkpt lat="42.84817" lon="0.28421">
        <ele>1283</ele>
        <time>2022-02-12T07:41:32Z</time>
      </trkpt>
      <trkpt lat="42.8482" lon="0.28421">
        <ele>1283.2</ele>
        <time>2022-02-12T07:41:35Z</time>
      </trkpt>
      <trkpt lat="42.84822" lon="0.28422">
        <ele>1283.6</ele>
        <time>2022-02-12T07:41:37Z</time>
      </trkpt>
      <trkpt lat="42.84825" lon="0.28421">
        <ele>1284</ele>
        <time>2022-02-12T07:41:41Z</time>
      </trkpt>
      <trkpt lat="42.84826" lon="0.2842">
        <ele>1284.4</ele>
        <time>2022-02-12T07:41:43Z</time>
      </trkpt>
      <trkpt lat="42.84828" lon="0.28417">
        <ele>1284.6</ele>
        <time>2022-02-12T07:41:47Z</time>
      </trkpt>
      <trkpt lat="42.84826" lon="0.28416">
        <ele>1284.8</ele>
        <time>2022-02-12T07:41:49Z</time>
      </trkpt>
      <trkpt lat="42.84817" lon="0.28412">
        <ele>1285.2</ele>
        <time>2022-02-12T07:41:56Z</time>
      </trkpt>
      <trkpt lat="42.84816" lon="0.28411">
        <ele>1285.2</ele>
        <time>2022-02-12T07:41:57Z</time>
      </trkpt>
      <trkpt lat="42.84805" lon="0.28405">
        <ele>1286.2</ele>
        <time>2022-02-12T07:42:07Z</time>
      </trkpt>
      <trkpt lat="42.84799" lon="0.28396">
        <ele>1287</ele>
        <time>2022-02-12T07:42:15Z</time>
      </trkpt>
      <trkpt lat="42.84798" lon="0.28395">
        <ele>1287.2</ele>
        <time>2022-02-12T07:42:17Z</time>
      </trkpt>
      <trkpt lat="42.84797" lon="0.28391">
        <ele>1287.8</ele>
        <time>2022-02-12T07:42:22Z</time>
      </trkpt>
      <trkpt lat="42.84797" lon="0.2839">
        <ele>1288</ele>
        <time>2022-02-12T07:42:23Z</time>
      </trkpt>
      <trkpt lat="42.84796" lon="0.28387">
        <ele>1288.2</ele>
        <time>2022-02-12T07:42:26Z</time>
      </trkpt>
      <trkpt lat="42.84795" lon="0.28384">
        <ele>1288.2</ele>
        <time>2022-02-12T07:42:28Z</time>
      </trkpt>
      <trkpt lat="42.84794" lon="0.28379">
        <ele>1288.6</ele>
        <time>2022-02-12T07:42:31Z</time>
      </trkpt>
      <trkpt lat="42.84793" lon="0.28374">
        <ele>1289.2</ele>
        <time>2022-02-12T07:42:36Z</time>
      </trkpt>
      <trkpt lat="42.84792" lon="0.28372">
        <ele>1289.4</ele>
        <time>2022-02-12T07:42:37Z</time>
      </trkpt>
      <trkpt lat="42.84791" lon="0.2837">
        <ele>1289.8</ele>
        <time>2022-02-12T07:42:39Z</time>
      </trkpt>
      <trkpt lat="42.8479" lon="0.28366">
        <ele>1290.4</ele>
        <time>2022-02-12T07:42:42Z</time>
      </trkpt>
      <trkpt lat="42.8479" lon="0.28358">
        <ele>1291.2</ele>
        <time>2022-02-12T07:42:47Z</time>
      </trkpt>
      <trkpt lat="42.8479" lon="0.28356">
        <ele>1291.6</ele>
        <time>2022-02-12T07:42:49Z</time>
      </trkpt>
      <trkpt lat="42.84789" lon="0.28351">
        <ele>1292.6</ele>
        <time>2022-02-12T07:42:53Z</time>
      </trkpt>
      <trkpt lat="42.84789" lon="0.28349">
        <ele>1292.8</ele>
        <time>2022-02-12T07:42:54Z</time>
      </trkpt>
      <trkpt lat="42.84789" lon="0.28348">
        <ele>1293</ele>
        <time>2022-02-12T07:42:55Z</time>
      </trkpt>
      <trkpt lat="42.84788" lon="0.28346">
        <ele>1293</ele>
        <time>2022-02-12T07:42:57Z</time>
      </trkpt>
      <trkpt lat="42.84788" lon="0.28343">
        <ele>1293.6</ele>
        <time>2022-02-12T07:43:00Z</time>
      </trkpt>
      <trkpt lat="42.84789" lon="0.28339">
        <ele>1294</ele>
        <time>2022-02-12T07:43:03Z</time>
      </trkpt>
      <trkpt lat="42.84789" lon="0.28334">
        <ele>1294.8</ele>
        <time>2022-02-12T07:43:07Z</time>
      </trkpt>
      <trkpt lat="42.84788" lon="0.28328">
        <ele>1295.4</ele>
        <time>2022-02-12T07:43:12Z</time>
      </trkpt>
      <trkpt lat="42.84787" lon="0.28324">
        <ele>1295.8</ele>
        <time>2022-02-12T07:43:15Z</time>
      </trkpt>
      <trkpt lat="42.84787" lon="0.28315">
        <ele>1296.6</ele>
        <time>2022-02-12T07:43:22Z</time>
      </trkpt>
      <trkpt lat="42.84787" lon="0.28311">
        <ele>1296.8</ele>
        <time>2022-02-12T07:43:24Z</time>
      </trkpt>
      <trkpt lat="42.84786" lon="0.28303">
        <ele>1297.8</ele>
        <time>2022-02-12T07:43:30Z</time>
      </trkpt>
      <trkpt lat="42.84786" lon="0.28302">
        <ele>1298</ele>
        <time>2022-02-12T07:43:31Z</time>
      </trkpt>
      <trkpt lat="42.84787" lon="0.28296">
        <ele>1298.6</ele>
        <time>2022-02-12T07:43:35Z</time>
      </trkpt>
      <trkpt lat="42.84789" lon="0.28292">
        <ele>1299</ele>
        <time>2022-02-12T07:43:38Z</time>
      </trkpt>
      <trkpt lat="42.8479" lon="0.28288">
        <ele>1299.4</ele>
        <time>2022-02-12T07:43:41Z</time>
      </trkpt>
      <trkpt lat="42.8479" lon="0.28287">
        <ele>1299.6</ele>
        <time>2022-02-12T07:43:42Z</time>
      </trkpt>
      <trkpt lat="42.8479" lon="0.28285">
        <ele>1299.6</ele>
        <time>2022-02-12T07:43:43Z</time>
      </trkpt>
      <trkpt lat="42.8479" lon="0.28279">
        <ele>1300.2</ele>
        <time>2022-02-12T07:43:47Z</time>
      </trkpt>
      <trkpt lat="42.8479" lon="0.28273">
        <ele>1300.6</ele>
        <time>2022-02-12T07:43:51Z</time>
      </trkpt>
      <trkpt lat="42.8479" lon="0.28272">
        <ele>1300.8</ele>
        <time>2022-02-12T07:43:52Z</time>
      </trkpt>
      <trkpt lat="42.8479" lon="0.28267">
        <ele>1301.2</ele>
        <time>2022-02-12T07:43:55Z</time>
      </trkpt>
      <trkpt lat="42.84791" lon="0.28263">
        <ele>1301.8</ele>
        <time>2022-02-12T07:43:59Z</time>
      </trkpt>
      <trkpt lat="42.84791" lon="0.2826">
        <ele>1302.4</ele>
        <time>2022-02-12T07:44:03Z</time>
      </trkpt>
      <trkpt lat="42.84791" lon="0.28257">
        <ele>1303</ele>
        <time>2022-02-12T07:44:06Z</time>
      </trkpt>
      <trkpt lat="42.8479" lon="0.28255">
        <ele>1303.2</ele>
        <time>2022-02-12T07:44:08Z</time>
      </trkpt>
      <trkpt lat="42.8479" lon="0.28252">
        <ele>1303.4</ele>
        <time>2022-02-12T07:44:10Z</time>
      </trkpt>
      <trkpt lat="42.84791" lon="0.28244">
        <ele>1304</ele>
        <time>2022-02-12T07:44:16Z</time>
      </trkpt>
      <trkpt lat="42.84792" lon="0.28239">
        <ele>1304.4</ele>
        <time>2022-02-12T07:44:19Z</time>
      </trkpt>
      <trkpt lat="42.84792" lon="0.28236">
        <ele>1305.2</ele>
        <time>2022-02-12T07:44:21Z</time>
      </trkpt>
      <trkpt lat="42.84792" lon="0.28233">
        <ele>1305.4</ele>
        <time>2022-02-12T07:44:23Z</time>
      </trkpt>
      <trkpt lat="42.84792" lon="0.2823">
        <ele>1305.6</ele>
        <time>2022-02-12T07:44:25Z</time>
      </trkpt>
      <trkpt lat="42.84794" lon="0.28223">
        <ele>1306.6</ele>
        <time>2022-02-12T07:44:30Z</time>
      </trkpt>
      <trkpt lat="42.84797" lon="0.28213">
        <ele>1307.6</ele>
        <time>2022-02-12T07:44:36Z</time>
      </trkpt>
      <trkpt lat="42.84797" lon="0.28212">
        <ele>1307.6</ele>
        <time>2022-02-12T07:44:37Z</time>
      </trkpt>
      <trkpt lat="42.848" lon="0.28202">
        <ele>1308.6</ele>
        <time>2022-02-12T07:44:45Z</time>
      </trkpt>
      <trkpt lat="42.848" lon="0.282">
        <ele>1308.8</ele>
        <time>2022-02-12T07:44:46Z</time>
      </trkpt>
      <trkpt lat="42.84803" lon="0.28191">
        <ele>1309.8</ele>
        <time>2022-02-12T07:44:52Z</time>
      </trkpt>
      <trkpt lat="42.84805" lon="0.28186">
        <ele>1310.4</ele>
        <time>2022-02-12T07:44:56Z</time>
      </trkpt>
      <trkpt lat="42.84806" lon="0.2818">
        <ele>1311</ele>
        <time>2022-02-12T07:45:01Z</time>
      </trkpt>
      <trkpt lat="42.84806" lon="0.28178">
        <ele>1311.4</ele>
        <time>2022-02-12T07:45:03Z</time>
      </trkpt>
      <trkpt lat="42.84806" lon="0.28176">
        <ele>1311.6</ele>
        <time>2022-02-12T07:45:05Z</time>
      </trkpt>
      <trkpt lat="42.84807" lon="0.28173">
        <ele>1311.6</ele>
        <time>2022-02-12T07:45:07Z</time>
      </trkpt>
      <trkpt lat="42.84808" lon="0.2817">
        <ele>1312.2</ele>
        <time>2022-02-12T07:45:09Z</time>
      </trkpt>
      <trkpt lat="42.84809" lon="0.28167">
        <ele>1312.4</ele>
        <time>2022-02-12T07:45:11Z</time>
      </trkpt>
      <trkpt lat="42.84808" lon="0.28164">
        <ele>1312.6</ele>
        <time>2022-02-12T07:45:13Z</time>
      </trkpt>
      <trkpt lat="42.84808" lon="0.28161">
        <ele>1313</ele>
        <time>2022-02-12T07:45:16Z</time>
      </trkpt>
      <trkpt lat="42.84808" lon="0.28158">
        <ele>1313.2</ele>
        <time>2022-02-12T07:45:18Z</time>
      </trkpt>
      <trkpt lat="42.84808" lon="0.28155">
        <ele>1313.4</ele>
        <time>2022-02-12T07:45:20Z</time>
      </trkpt>
      <trkpt lat="42.84812" lon="0.28145">
        <ele>1314.2</ele>
        <time>2022-02-12T07:45:27Z</time>
      </trkpt>
      <trkpt lat="42.84812" lon="0.28143">
        <ele>1314.4</ele>
        <time>2022-02-12T07:45:28Z</time>
      </trkpt>
      <trkpt lat="42.84815" lon="0.28132">
        <ele>1315.4</ele>
        <time>2022-02-12T07:45:35Z</time>
      </trkpt>
      <trkpt lat="42.84816" lon="0.28123">
        <ele>1316.4</ele>
        <time>2022-02-12T07:45:43Z</time>
      </trkpt>
      <trkpt lat="42.84817" lon="0.28116">
        <ele>1317</ele>
        <time>2022-02-12T07:45:47Z</time>
      </trkpt>
      <trkpt lat="42.84818" lon="0.28111">
        <ele>1317.4</ele>
        <time>2022-02-12T07:45:50Z</time>
      </trkpt>
      <trkpt lat="42.84821" lon="0.28102">
        <ele>1318</ele>
        <time>2022-02-12T07:45:56Z</time>
      </trkpt>
      <trkpt lat="42.84823" lon="0.28097">
        <ele>1318.4</ele>
        <time>2022-02-12T07:46:00Z</time>
      </trkpt>
      <trkpt lat="42.84824" lon="0.28091">
        <ele>1319.2</ele>
        <time>2022-02-12T07:46:04Z</time>
      </trkpt>
      <trkpt lat="42.84824" lon="0.28088">
        <ele>1319.6</ele>
        <time>2022-02-12T07:46:06Z</time>
      </trkpt>
      <trkpt lat="42.84824" lon="0.28081">
        <ele>1320.2</ele>
        <time>2022-02-12T07:46:11Z</time>
      </trkpt>
      <trkpt lat="42.84824" lon="0.28076">
        <ele>1320.4</ele>
        <time>2022-02-12T07:46:14Z</time>
      </trkpt>
      <trkpt lat="42.84825" lon="0.28072">
        <ele>1320.4</ele>
        <time>2022-02-12T07:46:17Z</time>
      </trkpt>
      <trkpt lat="42.84825" lon="0.2807">
        <ele>1320.6</ele>
        <time>2022-02-12T07:46:18Z</time>
      </trkpt>
      <trkpt lat="42.84828" lon="0.28058">
        <ele>1321.4</ele>
        <time>2022-02-12T07:46:27Z</time>
      </trkpt>
      <trkpt lat="42.84828" lon="0.28056">
        <ele>1321.8</ele>
        <time>2022-02-12T07:46:28Z</time>
      </trkpt>
      <trkpt lat="42.8483" lon="0.28048">
        <ele>1322.4</ele>
        <time>2022-02-12T07:46:32Z</time>
      </trkpt>
      <trkpt lat="42.84832" lon="0.28043">
        <ele>1322.8</ele>
        <time>2022-02-12T07:46:36Z</time>
      </trkpt>
      <trkpt lat="42.84833" lon="0.28039">
        <ele>1323</ele>
        <time>2022-02-12T07:46:39Z</time>
      </trkpt>
      <trkpt lat="42.84837" lon="0.28031">
        <ele>1324</ele>
        <time>2022-02-12T07:46:45Z</time>
      </trkpt>
      <trkpt lat="42.8484" lon="0.28027">
        <ele>1324.6</ele>
        <time>2022-02-12T07:46:49Z</time>
      </trkpt>
      <trkpt lat="42.84842" lon="0.28021">
        <ele>1324.8</ele>
        <time>2022-02-12T07:46:53Z</time>
      </trkpt>
      <trkpt lat="42.84843" lon="0.28019">
        <ele>1325.4</ele>
        <time>2022-02-12T07:46:55Z</time>
      </trkpt>
      <trkpt lat="42.84846" lon="0.28012">
        <ele>1325.6</ele>
        <time>2022-02-12T07:47:00Z</time>
      </trkpt>
      <trkpt lat="42.84849" lon="0.28008">
        <ele>1326.4</ele>
        <time>2022-02-12T07:47:04Z</time>
      </trkpt>
      <trkpt lat="42.84851" lon="0.28004">
        <ele>1326.6</ele>
        <time>2022-02-12T07:47:07Z</time>
      </trkpt>
      <trkpt lat="42.84857" lon="0.27999">
        <ele>1327.4</ele>
        <time>2022-02-12T07:47:13Z</time>
      </trkpt>
      <trkpt lat="42.84861" lon="0.27996">
        <ele>1327.4</ele>
        <time>2022-02-12T07:47:16Z</time>
      </trkpt>
      <trkpt lat="42.84865" lon="0.27989">
        <ele>1328.2</ele>
        <time>2022-02-12T07:47:21Z</time>
      </trkpt>
      <trkpt lat="42.84867" lon="0.27982">
        <ele>1328.6</ele>
        <time>2022-02-12T07:47:25Z</time>
      </trkpt>
      <trkpt lat="42.8487" lon="0.27979">
        <ele>1328.8</ele>
        <time>2022-02-12T07:47:28Z</time>
      </trkpt>
      <trkpt lat="42.84872" lon="0.27977">
        <ele>1329</ele>
        <time>2022-02-12T07:47:30Z</time>
      </trkpt>
      <trkpt lat="42.84875" lon="0.27974">
        <ele>1329.6</ele>
        <time>2022-02-12T07:47:33Z</time>
      </trkpt>
      <trkpt lat="42.84876" lon="0.27973">
        <ele>1329.8</ele>
        <time>2022-02-12T07:47:34Z</time>
      </trkpt>
      <trkpt lat="42.84881" lon="0.27966">
        <ele>1330.6</ele>
        <time>2022-02-12T07:47:40Z</time>
      </trkpt>
      <trkpt lat="42.84881" lon="0.27965">
        <ele>1330.6</ele>
        <time>2022-02-12T07:47:41Z</time>
      </trkpt>
      <trkpt lat="42.8488" lon="0.27962">
        <ele>1330.8</ele>
        <time>2022-02-12T07:47:43Z</time>
      </trkpt>
      <trkpt lat="42.84881" lon="0.27956">
        <ele>1330.8</ele>
        <time>2022-02-12T07:47:47Z</time>
      </trkpt>
      <trkpt lat="42.84881" lon="0.27954">
        <ele>1330.8</ele>
        <time>2022-02-12T07:47:49Z</time>
      </trkpt>
      <trkpt lat="42.84881" lon="0.27943">
        <ele>1331</ele>
        <time>2022-02-12T07:47:55Z</time>
      </trkpt>
      <trkpt lat="42.8488" lon="0.27932">
        <ele>1332</ele>
        <time>2022-02-12T07:48:03Z</time>
      </trkpt>
      <trkpt lat="42.84881" lon="0.2793">
        <ele>1332</ele>
        <time>2022-02-12T07:48:04Z</time>
      </trkpt>
      <trkpt lat="42.84883" lon="0.27919">
        <ele>1332.6</ele>
        <time>2022-02-12T07:48:11Z</time>
      </trkpt>
      <trkpt lat="42.84884" lon="0.27914">
        <ele>1333</ele>
        <time>2022-02-12T07:48:14Z</time>
      </trkpt>
      <trkpt lat="42.84887" lon="0.27906">
        <ele>1333.4</ele>
        <time>2022-02-12T07:48:20Z</time>
      </trkpt>
      <trkpt lat="42.8489" lon="0.27894">
        <ele>1333.8</ele>
        <time>2022-02-12T07:48:28Z</time>
      </trkpt>
      <trkpt lat="42.84891" lon="0.27892">
        <ele>1334</ele>
        <time>2022-02-12T07:48:29Z</time>
      </trkpt>
      <trkpt lat="42.84893" lon="0.27878">
        <ele>1335</ele>
        <time>2022-02-12T07:48:37Z</time>
      </trkpt>
      <trkpt lat="42.84894" lon="0.27877">
        <ele>1335.2</ele>
        <time>2022-02-12T07:48:38Z</time>
      </trkpt>
      <trkpt lat="42.84894" lon="0.27876">
        <ele>1335.2</ele>
        <time>2022-02-12T07:48:39Z</time>
      </trkpt>
      <trkpt lat="42.84897" lon="0.27863">
        <ele>1336.2</ele>
        <time>2022-02-12T07:48:47Z</time>
      </trkpt>
      <trkpt lat="42.84896" lon="0.2786">
        <ele>1336.8</ele>
        <time>2022-02-12T07:48:49Z</time>
      </trkpt>
      <trkpt lat="42.84898" lon="0.27851">
        <ele>1337.4</ele>
        <time>2022-02-12T07:48:56Z</time>
      </trkpt>
      <trkpt lat="42.84898" lon="0.2785">
        <ele>1337.4</ele>
        <time>2022-02-12T07:48:57Z</time>
      </trkpt>
      <trkpt lat="42.849" lon="0.27841">
        <ele>1338.2</ele>
        <time>2022-02-12T07:49:04Z</time>
      </trkpt>
      <trkpt lat="42.849" lon="0.2784">
        <ele>1338.4</ele>
        <time>2022-02-12T07:49:05Z</time>
      </trkpt>
      <trkpt lat="42.84902" lon="0.27833">
        <ele>1339.6</ele>
        <time>2022-02-12T07:49:09Z</time>
      </trkpt>
      <trkpt lat="42.84905" lon="0.27824">
        <ele>1340.4</ele>
        <time>2022-02-12T07:49:14Z</time>
      </trkpt>
      <trkpt lat="42.84906" lon="0.27821">
        <ele>1340.6</ele>
        <time>2022-02-12T07:49:16Z</time>
      </trkpt>
      <trkpt lat="42.84907" lon="0.27814">
        <ele>1341.4</ele>
        <time>2022-02-12T07:49:21Z</time>
      </trkpt>
      <trkpt lat="42.84907" lon="0.27813">
        <ele>1341.6</ele>
        <time>2022-02-12T07:49:22Z</time>
      </trkpt>
      <trkpt lat="42.84909" lon="0.27803">
        <ele>1342.6</ele>
        <time>2022-02-12T07:49:29Z</time>
      </trkpt>
      <trkpt lat="42.84912" lon="0.27795">
        <ele>1343.8</ele>
        <time>2022-02-12T07:49:35Z</time>
      </trkpt>
      <trkpt lat="42.84914" lon="0.27793">
        <ele>1344.2</ele>
        <time>2022-02-12T07:49:37Z</time>
      </trkpt>
      <trkpt lat="42.84917" lon="0.27783">
        <ele>1344.8</ele>
        <time>2022-02-12T07:49:44Z</time>
      </trkpt>
      <trkpt lat="42.84917" lon="0.27782">
        <ele>1345</ele>
        <time>2022-02-12T07:49:45Z</time>
      </trkpt>
      <trkpt lat="42.84921" lon="0.27775">
        <ele>1346</ele>
        <time>2022-02-12T07:49:50Z</time>
      </trkpt>
      <trkpt lat="42.84923" lon="0.27772">
        <ele>1346.4</ele>
        <time>2022-02-12T07:49:52Z</time>
      </trkpt>
      <trkpt lat="42.84925" lon="0.27766">
        <ele>1347.2</ele>
        <time>2022-02-12T07:49:56Z</time>
      </trkpt>
      <trkpt lat="42.84926" lon="0.27759">
        <ele>1348.2</ele>
        <time>2022-02-12T07:50:01Z</time>
      </trkpt>
      <trkpt lat="42.84926" lon="0.27758">
        <ele>1348.4</ele>
        <time>2022-02-12T07:50:02Z</time>
      </trkpt>
      <trkpt lat="42.84929" lon="0.27749">
        <ele>1349.2</ele>
        <time>2022-02-12T07:50:09Z</time>
      </trkpt>
      <trkpt lat="42.84929" lon="0.27746">
        <ele>1349.4</ele>
        <time>2022-02-12T07:50:11Z</time>
      </trkpt>
      <trkpt lat="42.84933" lon="0.27738">
        <ele>1350.4</ele>
        <time>2022-02-12T07:50:16Z</time>
      </trkpt>
      <trkpt lat="42.84936" lon="0.27732">
        <ele>1350.6</ele>
        <time>2022-02-12T07:50:20Z</time>
      </trkpt>
      <trkpt lat="42.84941" lon="0.27724">
        <ele>1351.4</ele>
        <time>2022-02-12T07:50:27Z</time>
      </trkpt>
      <trkpt lat="42.84943" lon="0.27722">
        <ele>1351.6</ele>
        <time>2022-02-12T07:50:29Z</time>
      </trkpt>
      <trkpt lat="42.84947" lon="0.27713">
        <ele>1352.4</ele>
        <time>2022-02-12T07:50:36Z</time>
      </trkpt>
      <trkpt lat="42.84949" lon="0.27709">
        <ele>1352.6</ele>
        <time>2022-02-12T07:50:38Z</time>
      </trkpt>
      <trkpt lat="42.84951" lon="0.27705">
        <ele>1353.2</ele>
        <time>2022-02-12T07:50:41Z</time>
      </trkpt>
      <trkpt lat="42.84952" lon="0.27702">
        <ele>1353.4</ele>
        <time>2022-02-12T07:50:44Z</time>
      </trkpt>
      <trkpt lat="42.84955" lon="0.27694">
        <ele>1353.8</ele>
        <time>2022-02-12T07:50:50Z</time>
      </trkpt>
      <trkpt lat="42.84955" lon="0.27692">
        <ele>1354</ele>
        <time>2022-02-12T07:50:51Z</time>
      </trkpt>
      <trkpt lat="42.84957" lon="0.27677">
        <ele>1354.6</ele>
        <time>2022-02-12T07:51:00Z</time>
      </trkpt>
      <trkpt lat="42.84958" lon="0.27673">
        <ele>1354.8</ele>
        <time>2022-02-12T07:51:02Z</time>
      </trkpt>
      <trkpt lat="42.84959" lon="0.27666">
        <ele>1355.2</ele>
        <time>2022-02-12T07:51:06Z</time>
      </trkpt>
      <trkpt lat="42.84961" lon="0.27662">
        <ele>1355.4</ele>
        <time>2022-02-12T07:51:08Z</time>
      </trkpt>
      <trkpt lat="42.84964" lon="0.27653">
        <ele>1355.8</ele>
        <time>2022-02-12T07:51:14Z</time>
      </trkpt>
      <trkpt lat="42.84967" lon="0.27647">
        <ele>1356</ele>
        <time>2022-02-12T07:51:18Z</time>
      </trkpt>
      <trkpt lat="42.84969" lon="0.27642">
        <ele>1356.4</ele>
        <time>2022-02-12T07:51:21Z</time>
      </trkpt>
      <trkpt lat="42.84971" lon="0.27639">
        <ele>1356.6</ele>
        <time>2022-02-12T07:51:24Z</time>
      </trkpt>
      <trkpt lat="42.84974" lon="0.27631">
        <ele>1357</ele>
        <time>2022-02-12T07:51:30Z</time>
      </trkpt>
      <trkpt lat="42.84977" lon="0.27627">
        <ele>1357.4</ele>
        <time>2022-02-12T07:51:33Z</time>
      </trkpt>
      <trkpt lat="42.84981" lon="0.27613">
        <ele>1357.8</ele>
        <time>2022-02-12T07:51:41Z</time>
      </trkpt>
      <trkpt lat="42.84981" lon="0.2761">
        <ele>1358</ele>
        <time>2022-02-12T07:51:43Z</time>
      </trkpt>
      <trkpt lat="42.84982" lon="0.27606">
        <ele>1358</ele>
        <time>2022-02-12T07:51:46Z</time>
      </trkpt>
      <trkpt lat="42.84983" lon="0.27603">
        <ele>1358</ele>
        <time>2022-02-12T07:51:48Z</time>
      </trkpt>
      <trkpt lat="42.84987" lon="0.27592">
        <ele>1358.2</ele>
        <time>2022-02-12T07:51:55Z</time>
      </trkpt>
      <trkpt lat="42.84988" lon="0.2759">
        <ele>1358.2</ele>
        <time>2022-02-12T07:51:56Z</time>
      </trkpt>
      <trkpt lat="42.84989" lon="0.27584">
        <ele>1358.4</ele>
        <time>2022-02-12T07:52:00Z</time>
      </trkpt>
      <trkpt lat="42.8499" lon="0.2758">
        <ele>1358.4</ele>
        <time>2022-02-12T07:52:03Z</time>
      </trkpt>
      <trkpt lat="42.84992" lon="0.27565">
        <ele>1358.6</ele>
        <time>2022-02-12T07:52:11Z</time>
      </trkpt>
      <trkpt lat="42.84993" lon="0.27554">
        <ele>1358.8</ele>
        <time>2022-02-12T07:52:18Z</time>
      </trkpt>
      <trkpt lat="42.84994" lon="0.27544">
        <ele>1359</ele>
        <time>2022-02-12T07:52:23Z</time>
      </trkpt>
      <trkpt lat="42.84995" lon="0.27537">
        <ele>1359</ele>
        <time>2022-02-12T07:52:27Z</time>
      </trkpt>
      <trkpt lat="42.84998" lon="0.27525">
        <ele>1359.4</ele>
        <time>2022-02-12T07:52:36Z</time>
      </trkpt>
      <trkpt lat="42.84998" lon="0.27518">
        <ele>1360</ele>
        <time>2022-02-12T07:52:41Z</time>
      </trkpt>
      <trkpt lat="42.84999" lon="0.27514">
        <ele>1360.4</ele>
        <time>2022-02-12T07:52:43Z</time>
      </trkpt>
      <trkpt lat="42.85001" lon="0.27503">
        <ele>1360.8</ele>
        <time>2022-02-12T07:52:50Z</time>
      </trkpt>
      <trkpt lat="42.85003" lon="0.27497">
        <ele>1361</ele>
        <time>2022-02-12T07:52:54Z</time>
      </trkpt>
      <trkpt lat="42.85004" lon="0.27495">
        <ele>1361.2</ele>
        <time>2022-02-12T07:52:55Z</time>
      </trkpt>
      <trkpt lat="42.85006" lon="0.27492">
        <ele>1361.4</ele>
        <time>2022-02-12T07:52:58Z</time>
      </trkpt>
      <trkpt lat="42.85009" lon="0.27481">
        <ele>1362.2</ele>
        <time>2022-02-12T07:53:06Z</time>
      </trkpt>
      <trkpt lat="42.85009" lon="0.2748">
        <ele>1362.2</ele>
        <time>2022-02-12T07:53:07Z</time>
      </trkpt>
      <trkpt lat="42.85014" lon="0.27471">
        <ele>1362.4</ele>
        <time>2022-02-12T07:53:14Z</time>
      </trkpt>
      <trkpt lat="42.85019" lon="0.27465">
        <ele>1362.8</ele>
        <time>2022-02-12T07:53:19Z</time>
      </trkpt>
      <trkpt lat="42.85021" lon="0.27463">
        <ele>1363.2</ele>
        <time>2022-02-12T07:53:22Z</time>
      </trkpt>
      <trkpt lat="42.85023" lon="0.27462">
        <ele>1363.4</ele>
        <time>2022-02-12T07:53:24Z</time>
      </trkpt>
      <trkpt lat="42.8503" lon="0.27458">
        <ele>1363.8</ele>
        <time>2022-02-12T07:53:31Z</time>
      </trkpt>
      <trkpt lat="42.85032" lon="0.27456">
        <ele>1364.2</ele>
        <time>2022-02-12T07:53:33Z</time>
      </trkpt>
      <trkpt lat="42.85034" lon="0.27454">
        <ele>1364.4</ele>
        <time>2022-02-12T07:53:35Z</time>
      </trkpt>
      <trkpt lat="42.85037" lon="0.27452">
        <ele>1364.6</ele>
        <time>2022-02-12T07:53:37Z</time>
      </trkpt>
      <trkpt lat="42.85038" lon="0.27451">
        <ele>1364.8</ele>
        <time>2022-02-12T07:53:38Z</time>
      </trkpt>
      <trkpt lat="42.85038" lon="0.2745">
        <ele>1365.2</ele>
        <time>2022-02-12T07:53:39Z</time>
      </trkpt>
      <trkpt lat="42.8504" lon="0.27449">
        <ele>1365.4</ele>
        <time>2022-02-12T07:53:41Z</time>
      </trkpt>
      <trkpt lat="42.85044" lon="0.27446">
        <ele>1366.2</ele>
        <time>2022-02-12T07:53:46Z</time>
      </trkpt>
      <trkpt lat="42.85046" lon="0.27445">
        <ele>1366.6</ele>
        <time>2022-02-12T07:53:49Z</time>
      </trkpt>
      <trkpt lat="42.85048" lon="0.27442">
        <ele>1367</ele>
        <time>2022-02-12T07:53:52Z</time>
      </trkpt>
      <trkpt lat="42.85054" lon="0.27437">
        <ele>1368</ele>
        <time>2022-02-12T07:53:58Z</time>
      </trkpt>
      <trkpt lat="42.85061" lon="0.27429">
        <ele>1368.8</ele>
        <time>2022-02-12T07:54:06Z</time>
      </trkpt>
      <trkpt lat="42.85062" lon="0.27428">
        <ele>1368.8</ele>
        <time>2022-02-12T07:54:07Z</time>
      </trkpt>
      <trkpt lat="42.85063" lon="0.27426">
        <ele>1369</ele>
        <time>2022-02-12T07:54:08Z</time>
      </trkpt>
      <trkpt lat="42.85067" lon="0.27421">
        <ele>1369.4</ele>
        <time>2022-02-12T07:54:12Z</time>
      </trkpt>
      <trkpt lat="42.85071" lon="0.27417">
        <ele>1369.6</ele>
        <time>2022-02-12T07:54:17Z</time>
      </trkpt>
      <trkpt lat="42.85072" lon="0.27416">
        <ele>1370</ele>
        <time>2022-02-12T07:54:19Z</time>
      </trkpt>
      <trkpt lat="42.85073" lon="0.27416">
        <ele>1370.4</ele>
        <time>2022-02-12T07:54:20Z</time>
      </trkpt>
      <trkpt lat="42.85078" lon="0.27412">
        <ele>1370.8</ele>
        <time>2022-02-12T07:54:25Z</time>
      </trkpt>
      <trkpt lat="42.8508" lon="0.27411">
        <ele>1371.2</ele>
        <time>2022-02-12T07:54:27Z</time>
      </trkpt>
      <trkpt lat="42.85082" lon="0.27409">
        <ele>1371.6</ele>
        <time>2022-02-12T07:54:30Z</time>
      </trkpt>
      <trkpt lat="42.85084" lon="0.27405">
        <ele>1372.2</ele>
        <time>2022-02-12T07:54:34Z</time>
      </trkpt>
      <trkpt lat="42.85085" lon="0.27403">
        <ele>1372.4</ele>
        <time>2022-02-12T07:54:36Z</time>
      </trkpt>
      <trkpt lat="42.85086" lon="0.27402">
        <ele>1372.4</ele>
        <time>2022-02-12T07:54:37Z</time>
      </trkpt>
      <trkpt lat="42.85087" lon="0.27401">
        <ele>1372.4</ele>
        <time>2022-02-12T07:54:38Z</time>
      </trkpt>
      <trkpt lat="42.8509" lon="0.27398">
        <ele>1372.4</ele>
        <time>2022-02-12T07:54:40Z</time>
      </trkpt>
      <trkpt lat="42.85095" lon="0.27392">
        <ele>1373</ele>
        <time>2022-02-12T07:54:46Z</time>
      </trkpt>
      <trkpt lat="42.85096" lon="0.27391">
        <ele>1373.2</ele>
        <time>2022-02-12T07:54:48Z</time>
      </trkpt>
      <trkpt lat="42.85102" lon="0.27381">
        <ele>1374</ele>
        <time>2022-02-12T07:54:55Z</time>
      </trkpt>
      <trkpt lat="42.85103" lon="0.27379">
        <ele>1374.4</ele>
        <time>2022-02-12T07:54:57Z</time>
      </trkpt>
      <trkpt lat="42.85108" lon="0.27369">
        <ele>1375.2</ele>
        <time>2022-02-12T07:55:05Z</time>
      </trkpt>
      <trkpt lat="42.85109" lon="0.27367">
        <ele>1375.2</ele>
        <time>2022-02-12T07:55:07Z</time>
      </trkpt>
      <trkpt lat="42.8511" lon="0.27366">
        <ele>1375.8</ele>
        <time>2022-02-12T07:55:09Z</time>
      </trkpt>
      <trkpt lat="42.85113" lon="0.27361">
        <ele>1376.4</ele>
        <time>2022-02-12T07:55:12Z</time>
      </trkpt>
      <trkpt lat="42.85115" lon="0.27356">
        <ele>1376.4</ele>
        <time>2022-02-12T07:55:17Z</time>
      </trkpt>
      <trkpt lat="42.85115" lon="0.27356">
        <ele>1376.4</ele>
        <time>2022-02-12T07:55:18Z</time>
      </trkpt>
      <trkpt lat="42.85119" lon="0.27351">
        <ele>1376.8</ele>
        <time>2022-02-12T07:55:23Z</time>
      </trkpt>
      <trkpt lat="42.85121" lon="0.27348">
        <ele>1377</ele>
        <time>2022-02-12T07:55:26Z</time>
      </trkpt>
      <trkpt lat="42.85126" lon="0.27343">
        <ele>1377.8</ele>
        <time>2022-02-12T07:55:32Z</time>
      </trkpt>
      <trkpt lat="42.85127" lon="0.27342">
        <ele>1378</ele>
        <time>2022-02-12T07:55:33Z</time>
      </trkpt>
      <trkpt lat="42.85128" lon="0.27341">
        <ele>1378.4</ele>
        <time>2022-02-12T07:55:34Z</time>
      </trkpt>
      <trkpt lat="42.85131" lon="0.27336">
        <ele>1379</ele>
        <time>2022-02-12T07:55:38Z</time>
      </trkpt>
      <trkpt lat="42.85133" lon="0.27335">
        <ele>1379.2</ele>
        <time>2022-02-12T07:55:40Z</time>
      </trkpt>
      <trkpt lat="42.85135" lon="0.27334">
        <ele>1379.8</ele>
        <time>2022-02-12T07:55:42Z</time>
      </trkpt>
      <trkpt lat="42.85136" lon="0.27332">
        <ele>1379.8</ele>
        <time>2022-02-12T07:55:44Z</time>
      </trkpt>
      <trkpt lat="42.85139" lon="0.27329">
        <ele>1380</ele>
        <time>2022-02-12T07:55:48Z</time>
      </trkpt>
      <trkpt lat="42.8514" lon="0.27328">
        <ele>1380.2</ele>
        <time>2022-02-12T07:55:49Z</time>
      </trkpt>
      <trkpt lat="42.85142" lon="0.27324">
        <ele>1381.2</ele>
        <time>2022-02-12T07:55:53Z</time>
      </trkpt>
      <trkpt lat="42.85146" lon="0.27321">
        <ele>1381.6</ele>
        <time>2022-02-12T07:55:57Z</time>
      </trkpt>
      <trkpt lat="42.85147" lon="0.2732">
        <ele>1381.8</ele>
        <time>2022-02-12T07:55:58Z</time>
      </trkpt>
      <trkpt lat="42.85149" lon="0.27318">
        <ele>1382.2</ele>
        <time>2022-02-12T07:56:00Z</time>
      </trkpt>
      <trkpt lat="42.85153" lon="0.27315">
        <ele>1383</ele>
        <time>2022-02-12T07:56:05Z</time>
      </trkpt>
      <trkpt lat="42.85156" lon="0.27309">
        <ele>1383.4</ele>
        <time>2022-02-12T07:56:10Z</time>
      </trkpt>
      <trkpt lat="42.85158" lon="0.27307">
        <ele>1384.4</ele>
        <time>2022-02-12T07:56:14Z</time>
      </trkpt>
      <trkpt lat="42.85159" lon="0.27306">
        <ele>1384.8</ele>
        <time>2022-02-12T07:56:15Z</time>
      </trkpt>
      <trkpt lat="42.85165" lon="0.273">
        <ele>1385.6</ele>
        <time>2022-02-12T07:56:22Z</time>
      </trkpt>
      <trkpt lat="42.8517" lon="0.27299">
        <ele>1386.8</ele>
        <time>2022-02-12T07:56:28Z</time>
      </trkpt>
      <trkpt lat="42.85172" lon="0.27299">
        <ele>1387</ele>
        <time>2022-02-12T07:56:30Z</time>
      </trkpt>
      <trkpt lat="42.85174" lon="0.27296">
        <ele>1387.8</ele>
        <time>2022-02-12T07:56:35Z</time>
      </trkpt>
      <trkpt lat="42.85175" lon="0.27295">
        <ele>1387.8</ele>
        <time>2022-02-12T07:56:36Z</time>
      </trkpt>
      <trkpt lat="42.85175" lon="0.27293">
        <ele>1388</ele>
        <time>2022-02-12T07:56:37Z</time>
      </trkpt>
      <trkpt lat="42.8518" lon="0.27291">
        <ele>1388.2</ele>
        <time>2022-02-12T07:56:44Z</time>
      </trkpt>
      <trkpt lat="42.85184" lon="0.27291">
        <ele>1389</ele>
        <time>2022-02-12T07:56:50Z</time>
      </trkpt>
      <trkpt lat="42.85189" lon="0.27289">
        <ele>1389.8</ele>
        <time>2022-02-12T07:56:56Z</time>
      </trkpt>
      <trkpt lat="42.85189" lon="0.27288">
        <ele>1389.8</ele>
        <time>2022-02-12T07:56:57Z</time>
      </trkpt>
      <trkpt lat="42.8519" lon="0.27288">
        <ele>1390</ele>
        <time>2022-02-12T07:56:58Z</time>
      </trkpt>
      <trkpt lat="42.85192" lon="0.27286">
        <ele>1390.4</ele>
        <time>2022-02-12T07:57:01Z</time>
      </trkpt>
      <trkpt lat="42.85193" lon="0.27285">
        <ele>1390.6</ele>
        <time>2022-02-12T07:57:03Z</time>
      </trkpt>
      <trkpt lat="42.85194" lon="0.27284">
        <ele>1390.6</ele>
        <time>2022-02-12T07:57:04Z</time>
      </trkpt>
      <trkpt lat="42.85199" lon="0.27281">
        <ele>1391</ele>
        <time>2022-02-12T07:57:11Z</time>
      </trkpt>
      <trkpt lat="42.85199" lon="0.27279">
        <ele>1391.4</ele>
        <time>2022-02-12T07:57:13Z</time>
      </trkpt>
      <trkpt lat="42.852" lon="0.27275">
        <ele>1392</ele>
        <time>2022-02-12T07:57:16Z</time>
      </trkpt>
      <trkpt lat="42.85201" lon="0.27274">
        <ele>1392.2</ele>
        <time>2022-02-12T07:57:18Z</time>
      </trkpt>
      <trkpt lat="42.85205" lon="0.27276">
        <ele>1392.4</ele>
        <time>2022-02-12T07:57:24Z</time>
      </trkpt>
      <trkpt lat="42.85207" lon="0.27275">
        <ele>1393.2</ele>
        <time>2022-02-12T07:57:30Z</time>
      </trkpt>
      <trkpt lat="42.85207" lon="0.27275">
        <ele>1393.4</ele>
        <time>2022-02-12T07:57:31Z</time>
      </trkpt>
      <trkpt lat="42.85212" lon="0.2727">
        <ele>1394.4</ele>
        <time>2022-02-12T07:57:37Z</time>
      </trkpt>
      <trkpt lat="42.85217" lon="0.27266">
        <ele>1395.2</ele>
        <time>2022-02-12T07:57:43Z</time>
      </trkpt>
      <trkpt lat="42.85217" lon="0.27265">
        <ele>1395.4</ele>
        <time>2022-02-12T07:57:44Z</time>
      </trkpt>
      <trkpt lat="42.85219" lon="0.27265">
        <ele>1396</ele>
        <time>2022-02-12T07:57:49Z</time>
      </trkpt>
      <trkpt lat="42.85222" lon="0.27263">
        <ele>1396.4</ele>
        <time>2022-02-12T07:57:56Z</time>
      </trkpt>
      <trkpt lat="42.85222" lon="0.27263">
        <ele>1396.6</ele>
        <time>2022-02-12T07:57:57Z</time>
      </trkpt>
      <trkpt lat="42.85223" lon="0.27265">
        <ele>1396.8</ele>
        <time>2022-02-12T07:58:01Z</time>
      </trkpt>
      <trkpt lat="42.85223" lon="0.27265">
        <ele>1396.8</ele>
        <time>2022-02-12T07:58:03Z</time>
      </trkpt>
      <trkpt lat="42.85223" lon="0.27263">
        <ele>1397</ele>
        <time>2022-02-12T07:58:09Z</time>
      </trkpt>
      <trkpt lat="42.85223" lon="0.27264">
        <ele>1397.2</ele>
        <time>2022-02-12T07:58:14Z</time>
      </trkpt>
      <trkpt lat="42.85224" lon="0.27264">
        <ele>1397.2</ele>
        <time>2022-02-12T07:58:15Z</time>
      </trkpt>
      <trkpt lat="42.85228" lon="0.2726">
        <ele>1397.2</ele>
        <time>2022-02-12T07:58:21Z</time>
      </trkpt>
      <trkpt lat="42.8523" lon="0.27256">
        <ele>1397.6</ele>
        <time>2022-02-12T07:58:25Z</time>
      </trkpt>
      <trkpt lat="42.8523" lon="0.2725">
        <ele>1397.8</ele>
        <time>2022-02-12T07:58:29Z</time>
      </trkpt>
      <trkpt lat="42.85231" lon="0.27246">
        <ele>1398.4</ele>
        <time>2022-02-12T07:58:34Z</time>
      </trkpt>
      <trkpt lat="42.85231" lon="0.27245">
        <ele>1398.8</ele>
        <time>2022-02-12T07:58:35Z</time>
      </trkpt>
      <trkpt lat="42.85232" lon="0.27243">
        <ele>1399</ele>
        <time>2022-02-12T07:58:37Z</time>
      </trkpt>
      <trkpt lat="42.85233" lon="0.27241">
        <ele>1399</ele>
        <time>2022-02-12T07:58:40Z</time>
      </trkpt>
      <trkpt lat="42.85235" lon="0.27238">
        <ele>1399.8</ele>
        <time>2022-02-12T07:58:43Z</time>
      </trkpt>
      <trkpt lat="42.85237" lon="0.27237">
        <ele>1400.4</ele>
        <time>2022-02-12T07:58:46Z</time>
      </trkpt>
      <trkpt lat="42.85238" lon="0.27235">
        <ele>1401</ele>
        <time>2022-02-12T07:58:48Z</time>
      </trkpt>
      <trkpt lat="42.8524" lon="0.27231">
        <ele>1401.8</ele>
        <time>2022-02-12T07:58:53Z</time>
      </trkpt>
      <trkpt lat="42.8524" lon="0.2723">
        <ele>1402</ele>
        <time>2022-02-12T07:58:54Z</time>
      </trkpt>
      <trkpt lat="42.85241" lon="0.27229">
        <ele>1402.6</ele>
        <time>2022-02-12T07:58:57Z</time>
      </trkpt>
      <trkpt lat="42.85241" lon="0.27228">
        <ele>1403</ele>
        <time>2022-02-12T07:58:59Z</time>
      </trkpt>
      <trkpt lat="42.85242" lon="0.27227">
        <ele>1403.4</ele>
        <time>2022-02-12T07:59:01Z</time>
      </trkpt>
      <trkpt lat="42.85244" lon="0.27227">
        <ele>1404.2</ele>
        <time>2022-02-12T07:59:06Z</time>
      </trkpt>
      <trkpt lat="42.85244" lon="0.27227">
        <ele>1404.2</ele>
        <time>2022-02-12T07:59:07Z</time>
      </trkpt>
      <trkpt lat="42.85247" lon="0.27222">
        <ele>1404.8</ele>
        <time>2022-02-12T07:59:13Z</time>
      </trkpt>
      <trkpt lat="42.85247" lon="0.27221">
        <ele>1405.6</ele>
        <time>2022-02-12T07:59:14Z</time>
      </trkpt>
      <trkpt lat="42.85251" lon="0.27215">
        <ele>1406.4</ele>
        <time>2022-02-12T07:59:20Z</time>
      </trkpt>
      <trkpt lat="42.85251" lon="0.27214">
        <ele>1406.8</ele>
        <time>2022-02-12T07:59:21Z</time>
      </trkpt>
      <trkpt lat="42.85254" lon="0.27211">
        <ele>1407.4</ele>
        <time>2022-02-12T07:59:26Z</time>
      </trkpt>
      <trkpt lat="42.85254" lon="0.2721">
        <ele>1407.8</ele>
        <time>2022-02-12T07:59:28Z</time>
      </trkpt>
      <trkpt lat="42.85253" lon="0.27209">
        <ele>1408</ele>
        <time>2022-02-12T07:59:29Z</time>
      </trkpt>
      <trkpt lat="42.85254" lon="0.27208">
        <ele>1408.2</ele>
        <time>2022-02-12T07:59:31Z</time>
      </trkpt>
      <trkpt lat="42.85255" lon="0.27207">
        <ele>1408.8</ele>
        <time>2022-02-12T07:59:33Z</time>
      </trkpt>
      <trkpt lat="42.85255" lon="0.27207">
        <ele>1409</ele>
        <time>2022-02-12T07:59:34Z</time>
      </trkpt>
      <trkpt lat="42.85257" lon="0.27203">
        <ele>1409.4</ele>
        <time>2022-02-12T07:59:38Z</time>
      </trkpt>
      <trkpt lat="42.85258" lon="0.27201">
        <ele>1409.8</ele>
        <time>2022-02-12T07:59:42Z</time>
      </trkpt>
      <trkpt lat="42.85256" lon="0.272">
        <ele>1409.8</ele>
        <time>2022-02-12T07:59:44Z</time>
      </trkpt>
      <trkpt lat="42.85257" lon="0.272">
        <ele>1410</ele>
        <time>2022-02-12T07:59:50Z</time>
      </trkpt>
      <trkpt lat="42.85258" lon="0.27199">
        <ele>1410.2</ele>
        <time>2022-02-12T07:59:51Z</time>
      </trkpt>
      <trkpt lat="42.85261" lon="0.27196">
        <ele>1410.4</ele>
        <time>2022-02-12T07:59:54Z</time>
      </trkpt>
      <trkpt lat="42.85265" lon="0.2719">
        <ele>1411</ele>
        <time>2022-02-12T08:00:02Z</time>
      </trkpt>
      <trkpt lat="42.85265" lon="0.27189">
        <ele>1411.4</ele>
        <time>2022-02-12T08:00:04Z</time>
      </trkpt>
      <trkpt lat="42.85267" lon="0.27186">
        <ele>1412.2</ele>
        <time>2022-02-12T08:00:09Z</time>
      </trkpt>
      <trkpt lat="42.85267" lon="0.27185">
        <ele>1412.4</ele>
        <time>2022-02-12T08:00:10Z</time>
      </trkpt>
      <trkpt lat="42.85267" lon="0.27183">
        <ele>1412.4</ele>
        <time>2022-02-12T08:00:11Z</time>
      </trkpt>
      <trkpt lat="42.85268" lon="0.27178">
        <ele>1413.2</ele>
        <time>2022-02-12T08:00:15Z</time>
      </trkpt>
      <trkpt lat="42.85269" lon="0.27175">
        <ele>1413.6</ele>
        <time>2022-02-12T08:00:18Z</time>
      </trkpt>
      <trkpt lat="42.8527" lon="0.27173">
        <ele>1413.8</ele>
        <time>2022-02-12T08:00:20Z</time>
      </trkpt>
      <trkpt lat="42.85272" lon="0.27166">
        <ele>1414.2</ele>
        <time>2022-02-12T08:00:26Z</time>
      </trkpt>
      <trkpt lat="42.85274" lon="0.27162">
        <ele>1414.2</ele>
        <time>2022-02-12T08:00:30Z</time>
      </trkpt>
      <trkpt lat="42.85275" lon="0.2716">
        <ele>1414.8</ele>
        <time>2022-02-12T08:00:32Z</time>
      </trkpt>
      <trkpt lat="42.85276" lon="0.27159">
        <ele>1415</ele>
        <time>2022-02-12T08:00:33Z</time>
      </trkpt>
      <trkpt lat="42.85281" lon="0.27157">
        <ele>1415.8</ele>
        <time>2022-02-12T08:00:40Z</time>
      </trkpt>
      <trkpt lat="42.85282" lon="0.27156">
        <ele>1416.4</ele>
        <time>2022-02-12T08:00:41Z</time>
      </trkpt>
      <trkpt lat="42.85284" lon="0.27154">
        <ele>1417</ele>
        <time>2022-02-12T08:00:44Z</time>
      </trkpt>
      <trkpt lat="42.85287" lon="0.27148">
        <ele>1417.6</ele>
        <time>2022-02-12T08:00:48Z</time>
      </trkpt>
      <trkpt lat="42.85288" lon="0.27146">
        <ele>1418</ele>
        <time>2022-02-12T08:00:50Z</time>
      </trkpt>
      <trkpt lat="42.8529" lon="0.27142">
        <ele>1418.8</ele>
        <time>2022-02-12T08:00:55Z</time>
      </trkpt>
      <trkpt lat="42.8529" lon="0.27141">
        <ele>1419.2</ele>
        <time>2022-02-12T08:00:56Z</time>
      </trkpt>
      <trkpt lat="42.85293" lon="0.27136">
        <ele>1419.6</ele>
        <time>2022-02-12T08:01:02Z</time>
      </trkpt>
      <trkpt lat="42.85295" lon="0.27131">
        <ele>1420.2</ele>
        <time>2022-02-12T08:01:06Z</time>
      </trkpt>
      <trkpt lat="42.85296" lon="0.2713">
        <ele>1420.4</ele>
        <time>2022-02-12T08:01:07Z</time>
      </trkpt>
      <trkpt lat="42.85296" lon="0.2713">
        <ele>1420.4</ele>
        <time>2022-02-12T08:01:08Z</time>
      </trkpt>
      <trkpt lat="42.85299" lon="0.27125">
        <ele>1421.4</ele>
        <time>2022-02-12T08:01:13Z</time>
      </trkpt>
      <trkpt lat="42.853" lon="0.27123">
        <ele>1421.6</ele>
        <time>2022-02-12T08:01:15Z</time>
      </trkpt>
      <trkpt lat="42.85302" lon="0.27116">
        <ele>1422.4</ele>
        <time>2022-02-12T08:01:19Z</time>
      </trkpt>
      <trkpt lat="42.85303" lon="0.27115">
        <ele>1422.8</ele>
        <time>2022-02-12T08:01:21Z</time>
      </trkpt>
      <trkpt lat="42.85304" lon="0.27112">
        <ele>1423.2</ele>
        <time>2022-02-12T08:01:24Z</time>
      </trkpt>
      <trkpt lat="42.85305" lon="0.2711">
        <ele>1423.4</ele>
        <time>2022-02-12T08:01:27Z</time>
      </trkpt>
      <trkpt lat="42.85306" lon="0.27108">
        <ele>1423.4</ele>
        <time>2022-02-12T08:01:30Z</time>
      </trkpt>
      <trkpt lat="42.85307" lon="0.27105">
        <ele>1423.6</ele>
        <time>2022-02-12T08:01:32Z</time>
      </trkpt>
      <trkpt lat="42.85308" lon="0.27103">
        <ele>1423.8</ele>
        <time>2022-02-12T08:01:34Z</time>
      </trkpt>
      <trkpt lat="42.85311" lon="0.27096">
        <ele>1424.8</ele>
        <time>2022-02-12T08:01:40Z</time>
      </trkpt>
      <trkpt lat="42.85311" lon="0.27095">
        <ele>1424.8</ele>
        <time>2022-02-12T08:01:41Z</time>
      </trkpt>
      <trkpt lat="42.85313" lon="0.27091">
        <ele>1425.2</ele>
        <time>2022-02-12T08:01:46Z</time>
      </trkpt>
      <trkpt lat="42.85313" lon="0.2709">
        <ele>1425.2</ele>
        <time>2022-02-12T08:01:47Z</time>
      </trkpt>
      <trkpt lat="42.85315" lon="0.27084">
        <ele>1425.6</ele>
        <time>2022-02-12T08:01:52Z</time>
      </trkpt>
      <trkpt lat="42.85316" lon="0.27082">
        <ele>1425.8</ele>
        <time>2022-02-12T08:01:54Z</time>
      </trkpt>
      <trkpt lat="42.85318" lon="0.27076">
        <ele>1427.2</ele>
        <time>2022-02-12T08:01:59Z</time>
      </trkpt>
      <trkpt lat="42.85318" lon="0.27075">
        <ele>1427.2</ele>
        <time>2022-02-12T08:02:00Z</time>
      </trkpt>
      <trkpt lat="42.8532" lon="0.27073">
        <ele>1427.8</ele>
        <time>2022-02-12T08:02:04Z</time>
      </trkpt>
      <trkpt lat="42.85322" lon="0.27072">
        <ele>1427.8</ele>
        <time>2022-02-12T08:02:06Z</time>
      </trkpt>
      <trkpt lat="42.85325" lon="0.27068">
        <ele>1428.4</ele>
        <time>2022-02-12T08:02:10Z</time>
      </trkpt>
      <trkpt lat="42.85326" lon="0.27067">
        <ele>1428.6</ele>
        <time>2022-02-12T08:02:12Z</time>
      </trkpt>
      <trkpt lat="42.85328" lon="0.27064">
        <ele>1429.2</ele>
        <time>2022-02-12T08:02:17Z</time>
      </trkpt>
      <trkpt lat="42.85329" lon="0.27062">
        <ele>1429.6</ele>
        <time>2022-02-12T08:02:19Z</time>
      </trkpt>
      <trkpt lat="42.85331" lon="0.27057">
        <ele>1429.8</ele>
        <time>2022-02-12T08:02:22Z</time>
      </trkpt>
      <trkpt lat="42.85334" lon="0.2705">
        <ele>1430.4</ele>
        <time>2022-02-12T08:02:28Z</time>
      </trkpt>
      <trkpt lat="42.85334" lon="0.27047">
        <ele>1430.6</ele>
        <time>2022-02-12T08:02:30Z</time>
      </trkpt>
      <trkpt lat="42.85336" lon="0.27043">
        <ele>1431.4</ele>
        <time>2022-02-12T08:02:34Z</time>
      </trkpt>
      <trkpt lat="42.85336" lon="0.27041">
        <ele>1431.4</ele>
        <time>2022-02-12T08:02:35Z</time>
      </trkpt>
      <trkpt lat="42.85337" lon="0.2704">
        <ele>1431.4</ele>
        <time>2022-02-12T08:02:36Z</time>
      </trkpt>
      <trkpt lat="42.85338" lon="0.27039">
        <ele>1431.4</ele>
        <time>2022-02-12T08:02:38Z</time>
      </trkpt>
      <trkpt lat="42.85341" lon="0.27036">
        <ele>1431.6</ele>
        <time>2022-02-12T08:02:42Z</time>
      </trkpt>
      <trkpt lat="42.85342" lon="0.27031">
        <ele>1432.6</ele>
        <time>2022-02-12T08:02:46Z</time>
      </trkpt>
      <trkpt lat="42.85343" lon="0.2703">
        <ele>1432.8</ele>
        <time>2022-02-12T08:02:47Z</time>
      </trkpt>
      <trkpt lat="42.85343" lon="0.27027">
        <ele>1433</ele>
        <time>2022-02-12T08:02:49Z</time>
      </trkpt>
      <trkpt lat="42.85343" lon="0.27024">
        <ele>1433</ele>
        <time>2022-02-12T08:02:51Z</time>
      </trkpt>
      <trkpt lat="42.85346" lon="0.27015">
        <ele>1433</ele>
        <time>2022-02-12T08:02:57Z</time>
      </trkpt>
      <trkpt lat="42.85348" lon="0.27009">
        <ele>1433.6</ele>
        <time>2022-02-12T08:03:02Z</time>
      </trkpt>
      <trkpt lat="42.85348" lon="0.27007">
        <ele>1433.6</ele>
        <time>2022-02-12T08:03:03Z</time>
      </trkpt>
      <trkpt lat="42.85349" lon="0.27007">
        <ele>1433.8</ele>
        <time>2022-02-12T08:03:04Z</time>
      </trkpt>
      <trkpt lat="42.85351" lon="0.27005">
        <ele>1433.8</ele>
        <time>2022-02-12T08:03:06Z</time>
      </trkpt>
      <trkpt lat="42.85353" lon="0.27004">
        <ele>1434</ele>
        <time>2022-02-12T08:03:08Z</time>
      </trkpt>
      <trkpt lat="42.85355" lon="0.27002">
        <ele>1434.2</ele>
        <time>2022-02-12T08:03:10Z</time>
      </trkpt>
      <trkpt lat="42.85357" lon="0.27">
        <ele>1434.8</ele>
        <time>2022-02-12T08:03:14Z</time>
      </trkpt>
      <trkpt lat="42.85358" lon="0.27">
        <ele>1435</ele>
        <time>2022-02-12T08:03:15Z</time>
      </trkpt>
      <trkpt lat="42.85359" lon="0.26999">
        <ele>1435.2</ele>
        <time>2022-02-12T08:03:16Z</time>
      </trkpt>
      <trkpt lat="42.85361" lon="0.26996">
        <ele>1435.6</ele>
        <time>2022-02-12T08:03:20Z</time>
      </trkpt>
      <trkpt lat="42.85363" lon="0.26995">
        <ele>1436.4</ele>
        <time>2022-02-12T08:03:22Z</time>
      </trkpt>
      <trkpt lat="42.85364" lon="0.26994">
        <ele>1437</ele>
        <time>2022-02-12T08:03:26Z</time>
      </trkpt>
      <trkpt lat="42.85365" lon="0.26994">
        <ele>1437</ele>
        <time>2022-02-12T08:03:27Z</time>
      </trkpt>
      <trkpt lat="42.85367" lon="0.26994">
        <ele>1437.4</ele>
        <time>2022-02-12T08:03:31Z</time>
      </trkpt>
      <trkpt lat="42.8537" lon="0.26991">
        <ele>1438.6</ele>
        <time>2022-02-12T08:03:34Z</time>
      </trkpt>
      <trkpt lat="42.85376" lon="0.2699">
        <ele>1439.8</ele>
        <time>2022-02-12T08:03:41Z</time>
      </trkpt>
      <trkpt lat="42.85377" lon="0.2699">
        <ele>1440</ele>
        <time>2022-02-12T08:03:42Z</time>
      </trkpt>
      <trkpt lat="42.85383" lon="0.26989">
        <ele>1440.8</ele>
        <time>2022-02-12T08:03:48Z</time>
      </trkpt>
      <trkpt lat="42.85384" lon="0.26989">
        <ele>1441</ele>
        <time>2022-02-12T08:03:49Z</time>
      </trkpt>
      <trkpt lat="42.85389" lon="0.2699">
        <ele>1441.6</ele>
        <time>2022-02-12T08:03:55Z</time>
      </trkpt>
      <trkpt lat="42.85391" lon="0.26989">
        <ele>1442.2</ele>
        <time>2022-02-12T08:03:58Z</time>
      </trkpt>
      <trkpt lat="42.85393" lon="0.26987">
        <ele>1442.8</ele>
        <time>2022-02-12T08:04:02Z</time>
      </trkpt>
      <trkpt lat="42.85394" lon="0.26987">
        <ele>1443</ele>
        <time>2022-02-12T08:04:03Z</time>
      </trkpt>
      <trkpt lat="42.85396" lon="0.26987">
        <ele>1443.2</ele>
        <time>2022-02-12T08:04:07Z</time>
      </trkpt>
      <trkpt lat="42.85397" lon="0.26986">
        <ele>1443.2</ele>
        <time>2022-02-12T08:04:08Z</time>
      </trkpt>
      <trkpt lat="42.85399" lon="0.26989">
        <ele>1444.4</ele>
        <time>2022-02-12T08:04:13Z</time>
      </trkpt>
      <trkpt lat="42.85399" lon="0.2699">
        <ele>1444.4</ele>
        <time>2022-02-12T08:04:14Z</time>
      </trkpt>
      <trkpt lat="42.854" lon="0.26992">
        <ele>1444.6</ele>
        <time>2022-02-12T08:04:16Z</time>
      </trkpt>
      <trkpt lat="42.85403" lon="0.26995">
        <ele>1444.6</ele>
        <time>2022-02-12T08:04:20Z</time>
      </trkpt>
      <trkpt lat="42.85406" lon="0.26995">
        <ele>1445.2</ele>
        <time>2022-02-12T08:04:26Z</time>
      </trkpt>
      <trkpt lat="42.85407" lon="0.26995">
        <ele>1445.4</ele>
        <time>2022-02-12T08:04:27Z</time>
      </trkpt>
      <trkpt lat="42.85411" lon="0.26993">
        <ele>1446.4</ele>
        <time>2022-02-12T08:04:33Z</time>
      </trkpt>
      <trkpt lat="42.85411" lon="0.26992">
        <ele>1446.6</ele>
        <time>2022-02-12T08:04:34Z</time>
      </trkpt>
      <trkpt lat="42.85414" lon="0.26992">
        <ele>1447.8</ele>
        <time>2022-02-12T08:04:40Z</time>
      </trkpt>
      <trkpt lat="42.85415" lon="0.26991">
        <ele>1448</ele>
        <time>2022-02-12T08:04:42Z</time>
      </trkpt>
      <trkpt lat="42.85418" lon="0.26986">
        <ele>1448.8</ele>
        <time>2022-02-12T08:04:48Z</time>
      </trkpt>
      <trkpt lat="42.85419" lon="0.26986">
        <ele>1449</ele>
        <time>2022-02-12T08:04:49Z</time>
      </trkpt>
      <trkpt lat="42.85421" lon="0.26983">
        <ele>1449.6</ele>
        <time>2022-02-12T08:04:53Z</time>
      </trkpt>
      <trkpt lat="42.85422" lon="0.26982">
        <ele>1450</ele>
        <time>2022-02-12T08:04:55Z</time>
      </trkpt>
      <trkpt lat="42.85424" lon="0.26979">
        <ele>1451</ele>
        <time>2022-02-12T08:05:01Z</time>
      </trkpt>
      <trkpt lat="42.85428" lon="0.26975">
        <ele>1452.4</ele>
        <time>2022-02-12T08:05:08Z</time>
      </trkpt>
      <trkpt lat="42.85431" lon="0.26972">
        <ele>1453.4</ele>
        <time>2022-02-12T08:05:12Z</time>
      </trkpt>
      <trkpt lat="42.85433" lon="0.2697">
        <ele>1453.8</ele>
        <time>2022-02-12T08:05:15Z</time>
      </trkpt>
      <trkpt lat="42.85434" lon="0.26967">
        <ele>1454.6</ele>
        <time>2022-02-12T08:05:20Z</time>
      </trkpt>
      <trkpt lat="42.85435" lon="0.26965">
        <ele>1455.2</ele>
        <time>2022-02-12T08:05:23Z</time>
      </trkpt>
      <trkpt lat="42.85436" lon="0.26964">
        <ele>1455.8</ele>
        <time>2022-02-12T08:05:25Z</time>
      </trkpt>
      <trkpt lat="42.8544" lon="0.26961">
        <ele>1456.6</ele>
        <time>2022-02-12T08:05:30Z</time>
      </trkpt>
      <trkpt lat="42.85441" lon="0.26961">
        <ele>1456.8</ele>
        <time>2022-02-12T08:05:32Z</time>
      </trkpt>
      <trkpt lat="42.85444" lon="0.2696">
        <ele>1457.2</ele>
        <time>2022-02-12T08:05:36Z</time>
      </trkpt>
      <trkpt lat="42.85444" lon="0.26959">
        <ele>1457.4</ele>
        <time>2022-02-12T08:05:37Z</time>
      </trkpt>
      <trkpt lat="42.85445" lon="0.26958">
        <ele>1458</ele>
        <time>2022-02-12T08:05:40Z</time>
      </trkpt>
      <trkpt lat="42.85448" lon="0.26957">
        <ele>1459</ele>
        <time>2022-02-12T08:05:46Z</time>
      </trkpt>
      <trkpt lat="42.8545" lon="0.26957">
        <ele>1459.4</ele>
        <time>2022-02-12T08:05:48Z</time>
      </trkpt>
      <trkpt lat="42.85454" lon="0.26957">
        <ele>1460.2</ele>
        <time>2022-02-12T08:05:52Z</time>
      </trkpt>
      <trkpt lat="42.85455" lon="0.26957">
        <ele>1460.4</ele>
        <time>2022-02-12T08:05:53Z</time>
      </trkpt>
      <trkpt lat="42.85455" lon="0.26957">
        <ele>1460.4</ele>
        <time>2022-02-12T08:05:54Z</time>
      </trkpt>
      <trkpt lat="42.85456" lon="0.26955">
        <ele>1460.8</ele>
        <time>2022-02-12T08:05:57Z</time>
      </trkpt>
      <trkpt lat="42.85456" lon="0.26954">
        <ele>1461.4</ele>
        <time>2022-02-12T08:06:00Z</time>
      </trkpt>
      <trkpt lat="42.8546" lon="0.2695">
        <ele>1462.2</ele>
        <time>2022-02-12T08:06:06Z</time>
      </trkpt>
      <trkpt lat="42.85461" lon="0.26947">
        <ele>1462.4</ele>
        <time>2022-02-12T08:06:09Z</time>
      </trkpt>
      <trkpt lat="42.85463" lon="0.26945">
        <ele>1463.2</ele>
        <time>2022-02-12T08:06:12Z</time>
      </trkpt>
      <trkpt lat="42.85465" lon="0.26945">
        <ele>1463.6</ele>
        <time>2022-02-12T08:06:17Z</time>
      </trkpt>
      <trkpt lat="42.85465" lon="0.26945">
        <ele>1463.8</ele>
        <time>2022-02-12T08:06:18Z</time>
      </trkpt>
      <trkpt lat="42.85468" lon="0.26944">
        <ele>1464.6</ele>
        <time>2022-02-12T08:06:22Z</time>
      </trkpt>
      <trkpt lat="42.85471" lon="0.26943">
        <ele>1465.4</ele>
        <time>2022-02-12T08:06:25Z</time>
      </trkpt>
      <trkpt lat="42.85471" lon="0.26942">
        <ele>1465.8</ele>
        <time>2022-02-12T08:06:26Z</time>
      </trkpt>
      <trkpt lat="42.85474" lon="0.26945">
        <ele>1466.6</ele>
        <time>2022-02-12T08:06:32Z</time>
      </trkpt>
      <trkpt lat="42.85475" lon="0.26945">
        <ele>1467.2</ele>
        <time>2022-02-12T08:06:35Z</time>
      </trkpt>
      <trkpt lat="42.85477" lon="0.26946">
        <ele>1468.2</ele>
        <time>2022-02-12T08:06:38Z</time>
      </trkpt>
      <trkpt lat="42.85479" lon="0.26946">
        <ele>1468.6</ele>
        <time>2022-02-12T08:06:40Z</time>
      </trkpt>
      <trkpt lat="42.85482" lon="0.26945">
        <ele>1469.2</ele>
        <time>2022-02-12T08:06:45Z</time>
      </trkpt>
      <trkpt lat="42.85486" lon="0.26944">
        <ele>1470.2</ele>
        <time>2022-02-12T08:06:51Z</time>
      </trkpt>
      <trkpt lat="42.85489" lon="0.26942">
        <ele>1471.6</ele>
        <time>2022-02-12T08:06:58Z</time>
      </trkpt>
      <trkpt lat="42.8549" lon="0.26941">
        <ele>1471.8</ele>
        <time>2022-02-12T08:06:59Z</time>
      </trkpt>
      <trkpt lat="42.85494" lon="0.2694">
        <ele>1472.6</ele>
        <time>2022-02-12T08:07:04Z</time>
      </trkpt>
      <trkpt lat="42.85496" lon="0.26941">
        <ele>1472.8</ele>
        <time>2022-02-12T08:07:06Z</time>
      </trkpt>
      <trkpt lat="42.855" lon="0.2694">
        <ele>1473.6</ele>
        <time>2022-02-12T08:07:11Z</time>
      </trkpt>
      <trkpt lat="42.85502" lon="0.26939">
        <ele>1474</ele>
        <time>2022-02-12T08:07:14Z</time>
      </trkpt>
      <trkpt lat="42.85504" lon="0.26936">
        <ele>1474.6</ele>
        <time>2022-02-12T08:07:20Z</time>
      </trkpt>
      <trkpt lat="42.85505" lon="0.26936">
        <ele>1475</ele>
        <time>2022-02-12T08:07:21Z</time>
      </trkpt>
      <trkpt lat="42.85506" lon="0.26934">
        <ele>1475.8</ele>
        <time>2022-02-12T08:07:24Z</time>
      </trkpt>
      <trkpt lat="42.85507" lon="0.26932">
        <ele>1476.2</ele>
        <time>2022-02-12T08:07:27Z</time>
      </trkpt>
      <trkpt lat="42.85514" lon="0.2693">
        <ele>1477</ele>
        <time>2022-02-12T08:07:34Z</time>
      </trkpt>
      <trkpt lat="42.85517" lon="0.26929">
        <ele>1478</ele>
        <time>2022-02-12T08:07:40Z</time>
      </trkpt>
      <trkpt lat="42.85523" lon="0.26931">
        <ele>1479</ele>
        <time>2022-02-12T08:07:48Z</time>
      </trkpt>
      <trkpt lat="42.85524" lon="0.26931">
        <ele>1479.2</ele>
        <time>2022-02-12T08:07:49Z</time>
      </trkpt>
      <trkpt lat="42.85525" lon="0.26934">
        <ele>1480.4</ele>
        <time>2022-02-12T08:07:53Z</time>
      </trkpt>
      <trkpt lat="42.85525" lon="0.26934">
        <ele>1480.4</ele>
        <time>2022-02-12T08:07:54Z</time>
      </trkpt>
      <trkpt lat="42.85527" lon="0.26929">
        <ele>1481.6</ele>
        <time>2022-02-12T08:07:59Z</time>
      </trkpt>
      <trkpt lat="42.85527" lon="0.26929">
        <ele>1481.8</ele>
        <time>2022-02-12T08:08:00Z</time>
      </trkpt>
      <trkpt lat="42.85528" lon="0.26927">
        <ele>1482.6</ele>
        <time>2022-02-12T08:08:05Z</time>
      </trkpt>
      <trkpt lat="42.85529" lon="0.26926">
        <ele>1482.8</ele>
        <time>2022-02-12T08:08:07Z</time>
      </trkpt>
      <trkpt lat="42.85533" lon="0.26924">
        <ele>1483</ele>
        <time>2022-02-12T08:08:12Z</time>
      </trkpt>
      <trkpt lat="42.85534" lon="0.26924">
        <ele>1483.6</ele>
        <time>2022-02-12T08:08:14Z</time>
      </trkpt>
      <trkpt lat="42.85535" lon="0.26922">
        <ele>1484</ele>
        <time>2022-02-12T08:08:17Z</time>
      </trkpt>
      <trkpt lat="42.85538" lon="0.26918">
        <ele>1484.8</ele>
        <time>2022-02-12T08:08:22Z</time>
      </trkpt>
      <trkpt lat="42.85538" lon="0.26917">
        <ele>1485.2</ele>
        <time>2022-02-12T08:08:23Z</time>
      </trkpt>
      <trkpt lat="42.85539" lon="0.26916">
        <ele>1485.8</ele>
        <time>2022-02-12T08:08:25Z</time>
      </trkpt>
      <trkpt lat="42.85543" lon="0.26911">
        <ele>1486.4</ele>
        <time>2022-02-12T08:08:31Z</time>
      </trkpt>
      <trkpt lat="42.85544" lon="0.26909">
        <ele>1487</ele>
        <time>2022-02-12T08:08:34Z</time>
      </trkpt>
      <trkpt lat="42.85546" lon="0.26905">
        <ele>1487.4</ele>
        <time>2022-02-12T08:08:38Z</time>
      </trkpt>
      <trkpt lat="42.85549" lon="0.26904">
        <ele>1488</ele>
        <time>2022-02-12T08:08:41Z</time>
      </trkpt>
      <trkpt lat="42.8555" lon="0.26902">
        <ele>1488.8</ele>
        <time>2022-02-12T08:08:45Z</time>
      </trkpt>
      <trkpt lat="42.8555" lon="0.26901">
        <ele>1489</ele>
        <time>2022-02-12T08:08:47Z</time>
      </trkpt>
      <trkpt lat="42.8555" lon="0.26901">
        <ele>1489.2</ele>
        <time>2022-02-12T08:08:48Z</time>
      </trkpt>
      <trkpt lat="42.85551" lon="0.269">
        <ele>1489.2</ele>
        <time>2022-02-12T08:08:49Z</time>
      </trkpt>
      <trkpt lat="42.85553" lon="0.26899">
        <ele>1490.2</ele>
        <time>2022-02-12T08:08:53Z</time>
      </trkpt>
      <trkpt lat="42.85554" lon="0.26898">
        <ele>1490.2</ele>
        <time>2022-02-12T08:08:54Z</time>
      </trkpt>
      <trkpt lat="42.85561" lon="0.26897">
        <ele>1491.4</ele>
        <time>2022-02-12T08:09:00Z</time>
      </trkpt>
      <trkpt lat="42.85561" lon="0.26897">
        <ele>1491.6</ele>
        <time>2022-02-12T08:09:01Z</time>
      </trkpt>
      <trkpt lat="42.85561" lon="0.26892">
        <ele>1492.4</ele>
        <time>2022-02-12T08:09:06Z</time>
      </trkpt>
      <trkpt lat="42.85562" lon="0.26891">
        <ele>1493</ele>
        <time>2022-02-12T08:09:08Z</time>
      </trkpt>
      <trkpt lat="42.85563" lon="0.26888">
        <ele>1493.6</ele>
        <time>2022-02-12T08:09:11Z</time>
      </trkpt>
      <trkpt lat="42.85563" lon="0.26887">
        <ele>1493.8</ele>
        <time>2022-02-12T08:09:13Z</time>
      </trkpt>
      <trkpt lat="42.85562" lon="0.2688">
        <ele>1494.6</ele>
        <time>2022-02-12T08:09:19Z</time>
      </trkpt>
      <trkpt lat="42.85563" lon="0.26879">
        <ele>1494.6</ele>
        <time>2022-02-12T08:09:20Z</time>
      </trkpt>
      <trkpt lat="42.85563" lon="0.26877">
        <ele>1495</ele>
        <time>2022-02-12T08:09:23Z</time>
      </trkpt>
      <trkpt lat="42.85565" lon="0.26873">
        <ele>1495.6</ele>
        <time>2022-02-12T08:09:27Z</time>
      </trkpt>
      <trkpt lat="42.85565" lon="0.26872">
        <ele>1495.8</ele>
        <time>2022-02-12T08:09:28Z</time>
      </trkpt>
      <trkpt lat="42.85565" lon="0.26871">
        <ele>1495.8</ele>
        <time>2022-02-12T08:09:29Z</time>
      </trkpt>
      <trkpt lat="42.85566" lon="0.2687">
        <ele>1496</ele>
        <time>2022-02-12T08:09:31Z</time>
      </trkpt>
      <trkpt lat="42.85566" lon="0.2687">
        <ele>1496.2</ele>
        <time>2022-02-12T08:09:33Z</time>
      </trkpt>
      <trkpt lat="42.85566" lon="0.26869">
        <ele>1496.8</ele>
        <time>2022-02-12T08:09:35Z</time>
      </trkpt>
      <trkpt lat="42.85568" lon="0.26865">
        <ele>1497.6</ele>
        <time>2022-02-12T08:09:39Z</time>
      </trkpt>
      <trkpt lat="42.85571" lon="0.26859">
        <ele>1498</ele>
        <time>2022-02-12T08:09:43Z</time>
      </trkpt>
      <trkpt lat="42.85572" lon="0.26854">
        <ele>1498.8</ele>
        <time>2022-02-12T08:09:50Z</time>
      </trkpt>
      <trkpt lat="42.85573" lon="0.26851">
        <ele>1499.4</ele>
        <time>2022-02-12T08:09:53Z</time>
      </trkpt>
      <trkpt lat="42.85574" lon="0.26848">
        <ele>1500.2</ele>
        <time>2022-02-12T08:09:56Z</time>
      </trkpt>
      <trkpt lat="42.85576" lon="0.26846">
        <ele>1500.4</ele>
        <time>2022-02-12T08:09:58Z</time>
      </trkpt>
      <trkpt lat="42.85578" lon="0.26845">
        <ele>1500.6</ele>
        <time>2022-02-12T08:10:01Z</time>
      </trkpt>
      <trkpt lat="42.85579" lon="0.26843">
        <ele>1501.6</ele>
        <time>2022-02-12T08:10:04Z</time>
      </trkpt>
      <trkpt lat="42.85578" lon="0.26839">
        <ele>1502.6</ele>
        <time>2022-02-12T08:10:09Z</time>
      </trkpt>
      <trkpt lat="42.85579" lon="0.26839">
        <ele>1502.8</ele>
        <time>2022-02-12T08:10:10Z</time>
      </trkpt>
      <trkpt lat="42.8558" lon="0.26836">
        <ele>1503</ele>
        <time>2022-02-12T08:10:14Z</time>
      </trkpt>
      <trkpt lat="42.8558" lon="0.26835">
        <ele>1503.2</ele>
        <time>2022-02-12T08:10:16Z</time>
      </trkpt>
      <trkpt lat="42.85581" lon="0.26833">
        <ele>1504</ele>
        <time>2022-02-12T08:10:20Z</time>
      </trkpt>
      <trkpt lat="42.85583" lon="0.26831">
        <ele>1504.8</ele>
        <time>2022-02-12T08:10:23Z</time>
      </trkpt>
      <trkpt lat="42.85584" lon="0.26827">
        <ele>1505</ele>
        <time>2022-02-12T08:10:26Z</time>
      </trkpt>
      <trkpt lat="42.85583" lon="0.26825">
        <ele>1505.6</ele>
        <time>2022-02-12T08:10:28Z</time>
      </trkpt>
      <trkpt lat="42.85585" lon="0.26818">
        <ele>1506.4</ele>
        <time>2022-02-12T08:10:36Z</time>
      </trkpt>
      <trkpt lat="42.85588" lon="0.26814">
        <ele>1507.2</ele>
        <time>2022-02-12T08:10:42Z</time>
      </trkpt>
      <trkpt lat="42.85588" lon="0.26813">
        <ele>1507.4</ele>
        <time>2022-02-12T08:10:43Z</time>
      </trkpt>
      <trkpt lat="42.85587" lon="0.26809">
        <ele>1508.4</ele>
        <time>2022-02-12T08:10:47Z</time>
      </trkpt>
      <trkpt lat="42.85587" lon="0.26807">
        <ele>1508.4</ele>
        <time>2022-02-12T08:10:49Z</time>
      </trkpt>
      <trkpt lat="42.85591" lon="0.26806">
        <ele>1508.6</ele>
        <time>2022-02-12T08:10:54Z</time>
      </trkpt>
      <trkpt lat="42.85594" lon="0.26805">
        <ele>1509.6</ele>
        <time>2022-02-12T08:11:00Z</time>
      </trkpt>
      <trkpt lat="42.85594" lon="0.26805">
        <ele>1510.2</ele>
        <time>2022-02-12T08:11:02Z</time>
      </trkpt>
      <trkpt lat="42.85594" lon="0.26804">
        <ele>1511</ele>
        <time>2022-02-12T08:11:04Z</time>
      </trkpt>
      <trkpt lat="42.85595" lon="0.268">
        <ele>1511.8</ele>
        <time>2022-02-12T08:11:09Z</time>
      </trkpt>
      <trkpt lat="42.85598" lon="0.26798">
        <ele>1511.8</ele>
        <time>2022-02-12T08:11:16Z</time>
      </trkpt>
      <trkpt lat="42.856" lon="0.26797">
        <ele>1512.2</ele>
        <time>2022-02-12T08:11:19Z</time>
      </trkpt>
      <trkpt lat="42.85602" lon="0.26797">
        <ele>1512.8</ele>
        <time>2022-02-12T08:11:23Z</time>
      </trkpt>
      <trkpt lat="42.85604" lon="0.26797">
        <ele>1513.4</ele>
        <time>2022-02-12T08:11:25Z</time>
      </trkpt>
      <trkpt lat="42.85606" lon="0.26795">
        <ele>1514.2</ele>
        <time>2022-02-12T08:11:29Z</time>
      </trkpt>
      <trkpt lat="42.85607" lon="0.26793">
        <ele>1514.6</ele>
        <time>2022-02-12T08:11:31Z</time>
      </trkpt>
      <trkpt lat="42.85607" lon="0.26791">
        <ele>1515.4</ele>
        <time>2022-02-12T08:11:34Z</time>
      </trkpt>
      <trkpt lat="42.85608" lon="0.26789">
        <ele>1515.8</ele>
        <time>2022-02-12T08:11:37Z</time>
      </trkpt>
      <trkpt lat="42.85611" lon="0.26789">
        <ele>1516.2</ele>
        <time>2022-02-12T08:11:41Z</time>
      </trkpt>
      <trkpt lat="42.85612" lon="0.26787">
        <ele>1517</ele>
        <time>2022-02-12T08:11:46Z</time>
      </trkpt>
      <trkpt lat="42.85611" lon="0.26785">
        <ele>1517.8</ele>
        <time>2022-02-12T08:11:49Z</time>
      </trkpt>
      <trkpt lat="42.85611" lon="0.26784">
        <ele>1518</ele>
        <time>2022-02-12T08:11:50Z</time>
      </trkpt>
      <trkpt lat="42.85613" lon="0.26782">
        <ele>1518.2</ele>
        <time>2022-02-12T08:11:58Z</time>
      </trkpt>
      <trkpt lat="42.85612" lon="0.2678">
        <ele>1518.4</ele>
        <time>2022-02-12T08:12:04Z</time>
      </trkpt>
      <trkpt lat="42.85614" lon="0.26776">
        <ele>1519.2</ele>
        <time>2022-02-12T08:12:12Z</time>
      </trkpt>
      <trkpt lat="42.85616" lon="0.26773">
        <ele>1520.4</ele>
        <time>2022-02-12T08:12:16Z</time>
      </trkpt>
      <trkpt lat="42.85616" lon="0.2677">
        <ele>1520.6</ele>
        <time>2022-02-12T08:12:18Z</time>
      </trkpt>
      <trkpt lat="42.85617" lon="0.26766">
        <ele>1521.4</ele>
        <time>2022-02-12T08:12:22Z</time>
      </trkpt>
      <trkpt lat="42.85618" lon="0.26763">
        <ele>1522.4</ele>
        <time>2022-02-12T08:12:25Z</time>
      </trkpt>
      <trkpt lat="42.85618" lon="0.26761">
        <ele>1522.6</ele>
        <time>2022-02-12T08:12:26Z</time>
      </trkpt>
      <trkpt lat="42.85617" lon="0.2676">
        <ele>1522.6</ele>
        <time>2022-02-12T08:12:27Z</time>
      </trkpt>
      <trkpt lat="42.85617" lon="0.26759">
        <ele>1522.8</ele>
        <time>2022-02-12T08:12:28Z</time>
      </trkpt>
      <trkpt lat="42.85619" lon="0.26755">
        <ele>1522.8</ele>
        <time>2022-02-12T08:12:31Z</time>
      </trkpt>
      <trkpt lat="42.85621" lon="0.26752">
        <ele>1523.2</ele>
        <time>2022-02-12T08:12:33Z</time>
      </trkpt>
      <trkpt lat="42.85622" lon="0.26751">
        <ele>1523.4</ele>
        <time>2022-02-12T08:12:34Z</time>
      </trkpt>
      <trkpt lat="42.85623" lon="0.26751">
        <ele>1523.4</ele>
        <time>2022-02-12T08:12:35Z</time>
      </trkpt>
      <trkpt lat="42.85624" lon="0.2675">
        <ele>1523.6</ele>
        <time>2022-02-12T08:12:38Z</time>
      </trkpt>
      <trkpt lat="42.85624" lon="0.26749">
        <ele>1524</ele>
        <time>2022-02-12T08:12:40Z</time>
      </trkpt>
      <trkpt lat="42.85625" lon="0.26746">
        <ele>1524.8</ele>
        <time>2022-02-12T08:12:43Z</time>
      </trkpt>
      <trkpt lat="42.85626" lon="0.26745">
        <ele>1525.2</ele>
        <time>2022-02-12T08:12:45Z</time>
      </trkpt>
      <trkpt lat="42.85629" lon="0.26744">
        <ele>1525.8</ele>
        <time>2022-02-12T08:12:48Z</time>
      </trkpt>
      <trkpt lat="42.8563" lon="0.26743">
        <ele>1526</ele>
        <time>2022-02-12T08:12:49Z</time>
      </trkpt>
      <trkpt lat="42.85632" lon="0.2674">
        <ele>1527.2</ele>
        <time>2022-02-12T08:12:55Z</time>
      </trkpt>
      <trkpt lat="42.85634" lon="0.26739">
        <ele>1527.6</ele>
        <time>2022-02-12T08:12:57Z</time>
      </trkpt>
      <trkpt lat="42.85636" lon="0.26738">
        <ele>1528</ele>
        <time>2022-02-12T08:13:01Z</time>
      </trkpt>
      <trkpt lat="42.85637" lon="0.26738">
        <ele>1528.2</ele>
        <time>2022-02-12T08:13:02Z</time>
      </trkpt>
      <trkpt lat="42.8564" lon="0.26735">
        <ele>1529.4</ele>
        <time>2022-02-12T08:13:07Z</time>
      </trkpt>
      <trkpt lat="42.85641" lon="0.2673">
        <ele>1530.4</ele>
        <time>2022-02-12T08:13:12Z</time>
      </trkpt>
      <trkpt lat="42.85642" lon="0.26729">
        <ele>1530.6</ele>
        <time>2022-02-12T08:13:13Z</time>
      </trkpt>
      <trkpt lat="42.85646" lon="0.26725">
        <ele>1530.6</ele>
        <time>2022-02-12T08:13:18Z</time>
      </trkpt>
      <trkpt lat="42.85649" lon="0.26724">
        <ele>1531</ele>
        <time>2022-02-12T08:13:24Z</time>
      </trkpt>
      <trkpt lat="42.85649" lon="0.26725">
        <ele>1531.6</ele>
        <time>2022-02-12T08:13:28Z</time>
      </trkpt>
      <trkpt lat="42.8565" lon="0.26725">
        <ele>1531.8</ele>
        <time>2022-02-12T08:13:30Z</time>
      </trkpt>
      <trkpt lat="42.85652" lon="0.26724">
        <ele>1532.6</ele>
        <time>2022-02-12T08:13:33Z</time>
      </trkpt>
      <trkpt lat="42.85653" lon="0.26723">
        <ele>1533</ele>
        <time>2022-02-12T08:13:35Z</time>
      </trkpt>
      <trkpt lat="42.85658" lon="0.26719">
        <ele>1533.4</ele>
        <time>2022-02-12T08:13:41Z</time>
      </trkpt>
      <trkpt lat="42.8566" lon="0.26719">
        <ele>1533.8</ele>
        <time>2022-02-12T08:13:44Z</time>
      </trkpt>
      <trkpt lat="42.85661" lon="0.2672">
        <ele>1534.4</ele>
        <time>2022-02-12T08:13:48Z</time>
      </trkpt>
      <trkpt lat="42.85662" lon="0.2672">
        <ele>1534.8</ele>
        <time>2022-02-12T08:13:50Z</time>
      </trkpt>
      <trkpt lat="42.85665" lon="0.2672">
        <ele>1535.6</ele>
        <time>2022-02-12T08:13:54Z</time>
      </trkpt>
      <trkpt lat="42.85665" lon="0.26719">
        <ele>1536</ele>
        <time>2022-02-12T08:13:55Z</time>
      </trkpt>
      <trkpt lat="42.85669" lon="0.26718">
        <ele>1536.8</ele>
        <time>2022-02-12T08:13:59Z</time>
      </trkpt>
      <trkpt lat="42.85669" lon="0.26717">
        <ele>1537</ele>
        <time>2022-02-12T08:14:00Z</time>
      </trkpt>
      <trkpt lat="42.85672" lon="0.26717">
        <ele>1537.8</ele>
        <time>2022-02-12T08:14:05Z</time>
      </trkpt>
      <trkpt lat="42.85673" lon="0.26717">
        <ele>1538.2</ele>
        <time>2022-02-12T08:14:07Z</time>
      </trkpt>
      <trkpt lat="42.85673" lon="0.26717">
        <ele>1538.6</ele>
        <time>2022-02-12T08:14:12Z</time>
      </trkpt>
      <trkpt lat="42.85674" lon="0.26716">
        <ele>1539.4</ele>
        <time>2022-02-12T08:14:14Z</time>
      </trkpt>
      <trkpt lat="42.85676" lon="0.26717">
        <ele>1539.6</ele>
        <time>2022-02-12T08:14:17Z</time>
      </trkpt>
      <trkpt lat="42.85679" lon="0.26716">
        <ele>1540</ele>
        <time>2022-02-12T08:14:24Z</time>
      </trkpt>
      <trkpt lat="42.85679" lon="0.26716">
        <ele>1540.4</ele>
        <time>2022-02-12T08:14:26Z</time>
      </trkpt>
      <trkpt lat="42.85681" lon="0.26715">
        <ele>1541.6</ele>
        <time>2022-02-12T08:14:29Z</time>
      </trkpt>
      <trkpt lat="42.85682" lon="0.26714">
        <ele>1541.6</ele>
        <time>2022-02-12T08:14:30Z</time>
      </trkpt>
      <trkpt lat="42.85687" lon="0.2671">
        <ele>1542.4</ele>
        <time>2022-02-12T08:14:36Z</time>
      </trkpt>
      <trkpt lat="42.85688" lon="0.26709">
        <ele>1542.6</ele>
        <time>2022-02-12T08:14:37Z</time>
      </trkpt>
      <trkpt lat="42.85688" lon="0.26708">
        <ele>1542.8</ele>
        <time>2022-02-12T08:14:38Z</time>
      </trkpt>
      <trkpt lat="42.85687" lon="0.26707">
        <ele>1543.6</ele>
        <time>2022-02-12T08:14:41Z</time>
      </trkpt>
      <trkpt lat="42.85688" lon="0.26706">
        <ele>1543.8</ele>
        <time>2022-02-12T08:14:42Z</time>
      </trkpt>
      <trkpt lat="42.85692" lon="0.26704">
        <ele>1544.8</ele>
        <time>2022-02-12T08:14:49Z</time>
      </trkpt>
      <trkpt lat="42.85697" lon="0.26704">
        <ele>1545.6</ele>
        <time>2022-02-12T08:14:55Z</time>
      </trkpt>
      <trkpt lat="42.85699" lon="0.26702">
        <ele>1545.8</ele>
        <time>2022-02-12T08:14:58Z</time>
      </trkpt>
      <trkpt lat="42.857" lon="0.26699">
        <ele>1546.8</ele>
        <time>2022-02-12T08:15:02Z</time>
      </trkpt>
      <trkpt lat="42.857" lon="0.26698">
        <ele>1547</ele>
        <time>2022-02-12T08:15:03Z</time>
      </trkpt>
      <trkpt lat="42.85702" lon="0.26696">
        <ele>1548</ele>
        <time>2022-02-12T08:15:07Z</time>
      </trkpt>
      <trkpt lat="42.85702" lon="0.26696">
        <ele>1548.2</ele>
        <time>2022-02-12T08:15:08Z</time>
      </trkpt>
      <trkpt lat="42.85701" lon="0.26693">
        <ele>1549.2</ele>
        <time>2022-02-12T08:15:12Z</time>
      </trkpt>
      <trkpt lat="42.85701" lon="0.26691">
        <ele>1550</ele>
        <time>2022-02-12T08:15:15Z</time>
      </trkpt>
      <trkpt lat="42.85702" lon="0.26687">
        <ele>1550.2</ele>
        <time>2022-02-12T08:15:18Z</time>
      </trkpt>
      <trkpt lat="42.85701" lon="0.26685">
        <ele>1550.4</ele>
        <time>2022-02-12T08:15:21Z</time>
      </trkpt>
      <trkpt lat="42.85704" lon="0.26679">
        <ele>1551.4</ele>
        <time>2022-02-12T08:15:28Z</time>
      </trkpt>
      <trkpt lat="42.85707" lon="0.26677">
        <ele>1552.6</ele>
        <time>2022-02-12T08:15:32Z</time>
      </trkpt>
      <trkpt lat="42.85707" lon="0.26677">
        <ele>1553</ele>
        <time>2022-02-12T08:15:34Z</time>
      </trkpt>
      <trkpt lat="42.8571" lon="0.26676">
        <ele>1553.8</ele>
        <time>2022-02-12T08:15:39Z</time>
      </trkpt>
      <trkpt lat="42.8571" lon="0.26675">
        <ele>1554</ele>
        <time>2022-02-12T08:15:40Z</time>
      </trkpt>
      <trkpt lat="42.85713" lon="0.26672">
        <ele>1555</ele>
        <time>2022-02-12T08:15:45Z</time>
      </trkpt>
      <trkpt lat="42.85713" lon="0.26672">
        <ele>1555.2</ele>
        <time>2022-02-12T08:15:46Z</time>
      </trkpt>
      <trkpt lat="42.85718" lon="0.2667">
        <ele>1556</ele>
        <time>2022-02-12T08:15:53Z</time>
      </trkpt>
      <trkpt lat="42.85719" lon="0.2667">
        <ele>1556</ele>
        <time>2022-02-12T08:15:54Z</time>
      </trkpt>
      <trkpt lat="42.85724" lon="0.26668">
        <ele>1557</ele>
        <time>2022-02-12T08:16:00Z</time>
      </trkpt>
      <trkpt lat="42.85724" lon="0.26667">
        <ele>1557.2</ele>
        <time>2022-02-12T08:16:01Z</time>
      </trkpt>
      <trkpt lat="42.85726" lon="0.26664">
        <ele>1558.2</ele>
        <time>2022-02-12T08:16:05Z</time>
      </trkpt>
      <trkpt lat="42.85727" lon="0.26662">
        <ele>1558.2</ele>
        <time>2022-02-12T08:16:07Z</time>
      </trkpt>
      <trkpt lat="42.85728" lon="0.26659">
        <ele>1559.2</ele>
        <time>2022-02-12T08:16:11Z</time>
      </trkpt>
      <trkpt lat="42.85728" lon="0.26661">
        <ele>1559.4</ele>
        <time>2022-02-12T08:16:18Z</time>
      </trkpt>
      <trkpt lat="42.85728" lon="0.26665">
        <ele>1559.2</ele>
        <time>2022-02-12T08:16:25Z</time>
      </trkpt>
      <trkpt lat="42.85728" lon="0.26661">
        <ele>1559</ele>
        <time>2022-02-12T08:16:34Z</time>
      </trkpt>
      <trkpt lat="42.85729" lon="0.26659">
        <ele>1559</ele>
        <time>2022-02-12T08:16:42Z</time>
      </trkpt>
      <trkpt lat="42.85729" lon="0.26662">
        <ele>1559</ele>
        <time>2022-02-12T08:16:46Z</time>
      </trkpt>
      <trkpt lat="42.85729" lon="0.26663">
        <ele>1559</ele>
        <time>2022-02-12T08:16:47Z</time>
      </trkpt>
      <trkpt lat="42.85731" lon="0.26661">
        <ele>1559.4</ele>
        <time>2022-02-12T08:16:53Z</time>
      </trkpt>
      <trkpt lat="42.85731" lon="0.2666">
        <ele>1559.4</ele>
        <time>2022-02-12T08:16:54Z</time>
      </trkpt>
      <trkpt lat="42.85732" lon="0.26661">
        <ele>1559.6</ele>
        <time>2022-02-12T08:16:59Z</time>
      </trkpt>
      <trkpt lat="42.85733" lon="0.2666">
        <ele>1559.6</ele>
        <time>2022-02-12T08:17:01Z</time>
      </trkpt>
      <trkpt lat="42.85733" lon="0.26659">
        <ele>1559.4</ele>
        <time>2022-02-12T08:17:04Z</time>
      </trkpt>
      <trkpt lat="42.85733" lon="0.26659">
        <ele>1559.4</ele>
        <time>2022-02-12T08:17:08Z</time>
      </trkpt>
      <trkpt lat="42.85732" lon="0.2666">
        <ele>1559.2</ele>
        <time>2022-02-12T08:17:13Z</time>
      </trkpt>
      <trkpt lat="42.85732" lon="0.26662">
        <ele>1559.4</ele>
        <time>2022-02-12T08:17:16Z</time>
      </trkpt>
      <trkpt lat="42.85732" lon="0.26663">
        <ele>1559.4</ele>
        <time>2022-02-12T08:17:18Z</time>
      </trkpt>
      <trkpt lat="42.85732" lon="0.26661">
        <ele>1559.4</ele>
        <time>2022-02-12T08:17:25Z</time>
      </trkpt>
      <trkpt lat="42.8573" lon="0.26661">
        <ele>1554.8</ele>
        <time>2022-02-12T08:17:32Z</time>
      </trkpt>
      <trkpt lat="42.8573" lon="0.26661">
        <ele>1554.8</ele>
        <time>2022-02-12T08:17:33Z</time>
      </trkpt>
      <trkpt lat="42.85729" lon="0.26661">
        <ele>1556.8</ele>
        <time>2022-02-12T08:17:36Z</time>
      </trkpt>
      <trkpt lat="42.85729" lon="0.26661">
        <ele>1557.8</ele>
        <time>2022-02-12T08:17:37Z</time>
      </trkpt>
      <trkpt lat="42.85729" lon="0.26661">
        <ele>1558.8</ele>
        <time>2022-02-12T08:17:40Z</time>
      </trkpt>
      <trkpt lat="42.85729" lon="0.26661">
        <ele>1558.8</ele>
        <time>2022-02-12T08:17:42Z</time>
      </trkpt>
      <trkpt lat="42.8573" lon="0.26661">
        <ele>1558.8</ele>
        <time>2022-02-12T08:17:44Z</time>
      </trkpt>
      <trkpt lat="42.8573" lon="0.26662">
        <ele>1558.8</ele>
        <time>2022-02-12T08:17:45Z</time>
      </trkpt>
      <trkpt lat="42.85726" lon="0.26661">
        <ele>1558.8</ele>
        <time>2022-02-12T08:17:52Z</time>
      </trkpt>
      <trkpt lat="42.85724" lon="0.26659">
        <ele>1558.8</ele>
        <time>2022-02-12T08:17:55Z</time>
      </trkpt>
      <trkpt lat="42.85729" lon="0.2666">
        <ele>1558.8</ele>
        <time>2022-02-12T08:18:01Z</time>
      </trkpt>
      <trkpt lat="42.85728" lon="0.26664">
        <ele>1558.8</ele>
        <time>2022-02-12T08:18:15Z</time>
      </trkpt>
      <trkpt lat="42.85727" lon="0.26663">
        <ele>1558.8</ele>
        <time>2022-02-12T08:18:23Z</time>
      </trkpt>
      <trkpt lat="42.85729" lon="0.26663">
        <ele>1558.8</ele>
        <time>2022-02-12T08:18:31Z</time>
      </trkpt>
      <trkpt lat="42.85732" lon="0.2666">
        <ele>1558.8</ele>
        <time>2022-02-12T08:18:37Z</time>
      </trkpt>
      <trkpt lat="42.85732" lon="0.2666">
        <ele>1558.8</ele>
        <time>2022-02-12T08:18:44Z</time>
      </trkpt>
      <trkpt lat="42.85732" lon="0.26658">
        <ele>1558.8</ele>
        <time>2022-02-12T08:18:55Z</time>
      </trkpt>
      <trkpt lat="42.85731" lon="0.26655">
        <ele>1558.8</ele>
        <time>2022-02-12T08:19:03Z</time>
      </trkpt>
      <trkpt lat="42.85731" lon="0.26659">
        <ele>1558.8</ele>
        <time>2022-02-12T08:19:11Z</time>
      </trkpt>
      <trkpt lat="42.85731" lon="0.26659">
        <ele>1558.8</ele>
        <time>2022-02-12T08:19:14Z</time>
      </trkpt>
      <trkpt lat="42.85731" lon="0.2666">
        <ele>1558.8</ele>
        <time>2022-02-12T08:19:21Z</time>
      </trkpt>
      <trkpt lat="42.85729" lon="0.2666">
        <ele>1558.8</ele>
        <time>2022-02-12T08:19:27Z</time>
      </trkpt>
      <trkpt lat="42.85731" lon="0.2666">
        <ele>1558.8</ele>
        <time>2022-02-12T08:19:33Z</time>
      </trkpt>
      <trkpt lat="42.85729" lon="0.2666">
        <ele>1558.8</ele>
        <time>2022-02-12T08:19:40Z</time>
      </trkpt>
      <trkpt lat="42.85729" lon="0.26662">
        <ele>1558.8</ele>
        <time>2022-02-12T08:19:47Z</time>
      </trkpt>
      <trkpt lat="42.85729" lon="0.26659">
        <ele>1558.8</ele>
        <time>2022-02-12T08:19:51Z</time>
      </trkpt>
      <trkpt lat="42.85729" lon="0.26659">
        <ele>1558.8</ele>
        <time>2022-02-12T08:19:53Z</time>
      </trkpt>
      <trkpt lat="42.8573" lon="0.26659">
        <ele>1558.8</ele>
        <time>2022-02-12T08:19:55Z</time>
      </trkpt>
      <trkpt lat="42.8573" lon="0.26659">
        <ele>1558.8</ele>
        <time>2022-02-12T08:19:57Z</time>
      </trkpt>
      <trkpt lat="42.85729" lon="0.26658">
        <ele>1558.8</ele>
        <time>2022-02-12T08:20:02Z</time>
      </trkpt>
      <trkpt lat="42.85729" lon="0.26657">
        <ele>1558.8</ele>
        <time>2022-02-12T08:20:03Z</time>
      </trkpt>
      <trkpt lat="42.8573" lon="0.26664">
        <ele>1558.8</ele>
        <time>2022-02-12T08:20:08Z</time>
      </trkpt>
      <trkpt lat="42.8573" lon="0.26663">
        <ele>1558.8</ele>
        <time>2022-02-12T08:20:14Z</time>
      </trkpt>
      <trkpt lat="42.8573" lon="0.26662">
        <ele>1558.8</ele>
        <time>2022-02-12T08:20:19Z</time>
      </trkpt>
      <trkpt lat="42.8573" lon="0.26662">
        <ele>1558.8</ele>
        <time>2022-02-12T08:20:23Z</time>
      </trkpt>
      <trkpt lat="42.85731" lon="0.2666">
        <ele>1558.8</ele>
        <time>2022-02-12T08:20:28Z</time>
      </trkpt>
      <trkpt lat="42.85731" lon="0.2666">
        <ele>1558.8</ele>
        <time>2022-02-12T08:20:30Z</time>
      </trkpt>
      <trkpt lat="42.85731" lon="0.2666">
        <ele>1558.8</ele>
        <time>2022-02-12T08:20:32Z</time>
      </trkpt>
      <trkpt lat="42.85732" lon="0.2666">
        <ele>1558.8</ele>
        <time>2022-02-12T08:20:33Z</time>
      </trkpt>
      <trkpt lat="42.85733" lon="0.2666">
        <ele>1558.8</ele>
        <time>2022-02-12T08:20:35Z</time>
      </trkpt>
      <trkpt lat="42.85733" lon="0.26659">
        <ele>1558.8</ele>
        <time>2022-02-12T08:20:36Z</time>
      </trkpt>
      <trkpt lat="42.85733" lon="0.2666">
        <ele>1558.8</ele>
        <time>2022-02-12T08:20:44Z</time>
      </trkpt>
      <trkpt lat="42.85731" lon="0.26658">
        <ele>1558.8</ele>
        <time>2022-02-12T08:20:52Z</time>
      </trkpt>
      <trkpt lat="42.85725" lon="0.2666">
        <ele>1558.8</ele>
        <time>2022-02-12T08:21:01Z</time>
      </trkpt>
      <trkpt lat="42.85722" lon="0.2666">
        <ele>1558.8</ele>
        <time>2022-02-12T08:21:10Z</time>
      </trkpt>
      <trkpt lat="42.85722" lon="0.26661">
        <ele>1558.8</ele>
        <time>2022-02-12T08:21:11Z</time>
      </trkpt>
      <trkpt lat="42.85721" lon="0.26664">
        <ele>1558.8</ele>
        <time>2022-02-12T08:21:14Z</time>
      </trkpt>
      <trkpt lat="42.85722" lon="0.26665">
        <ele>1558.8</ele>
        <time>2022-02-12T08:21:16Z</time>
      </trkpt>
      <trkpt lat="42.85723" lon="0.26665">
        <ele>1558.8</ele>
        <time>2022-02-12T08:21:17Z</time>
      </trkpt>
      <trkpt lat="42.85729" lon="0.26663">
        <ele>1558.6</ele>
        <time>2022-02-12T08:21:26Z</time>
      </trkpt>
      <trkpt lat="42.85735" lon="0.2666">
        <ele>1558.4</ele>
        <time>2022-02-12T08:21:32Z</time>
      </trkpt>
      <trkpt lat="42.85739" lon="0.26656">
        <ele>1558.2</ele>
        <time>2022-02-12T08:21:41Z</time>
      </trkpt>
      <trkpt lat="42.8574" lon="0.26656">
        <ele>1558.2</ele>
        <time>2022-02-12T08:21:49Z</time>
      </trkpt>
      <trkpt lat="42.8574" lon="0.26652">
        <ele>1558.2</ele>
        <time>2022-02-12T08:21:56Z</time>
      </trkpt>
      <trkpt lat="42.85742" lon="0.26656">
        <ele>1558.4</ele>
        <time>2022-02-12T08:22:04Z</time>
      </trkpt>
      <trkpt lat="42.85747" lon="0.26654">
        <ele>1558.4</ele>
        <time>2022-02-12T08:22:12Z</time>
      </trkpt>
      <trkpt lat="42.85751" lon="0.26661">
        <ele>1558</ele>
        <time>2022-02-12T08:22:20Z</time>
      </trkpt>
      <trkpt lat="42.85752" lon="0.26652">
        <ele>1558.4</ele>
        <time>2022-02-12T08:22:31Z</time>
      </trkpt>
      <trkpt lat="42.85734" lon="0.26659">
        <ele>1558.2</ele>
        <time>2022-02-12T08:22:39Z</time>
      </trkpt>
      <trkpt lat="42.8573" lon="0.26664">
        <ele>1558.6</ele>
        <time>2022-02-12T08:22:45Z</time>
      </trkpt>
      <trkpt lat="42.8573" lon="0.26665">
        <ele>1558.6</ele>
        <time>2022-02-12T08:22:46Z</time>
      </trkpt>
      <trkpt lat="42.8573" lon="0.26666">
        <ele>1558.6</ele>
        <time>2022-02-12T08:22:48Z</time>
      </trkpt>
      <trkpt lat="42.85731" lon="0.26665">
        <ele>1558.8</ele>
        <time>2022-02-12T08:22:54Z</time>
      </trkpt>
      <trkpt lat="42.85732" lon="0.26665">
        <ele>1558.4</ele>
        <time>2022-02-12T08:23:03Z</time>
      </trkpt>
      <trkpt lat="42.85732" lon="0.26665">
        <ele>1558.2</ele>
        <time>2022-02-12T08:23:08Z</time>
      </trkpt>
      <trkpt lat="42.85732" lon="0.26662">
        <ele>1558.2</ele>
        <time>2022-02-12T08:23:11Z</time>
      </trkpt>
      <trkpt lat="42.85733" lon="0.2666">
        <ele>1558.2</ele>
        <time>2022-02-12T08:23:18Z</time>
      </trkpt>
      <trkpt lat="42.85734" lon="0.26656">
        <ele>1558.2</ele>
        <time>2022-02-12T08:23:21Z</time>
      </trkpt>
      <trkpt lat="42.85733" lon="0.26662">
        <ele>1558.4</ele>
        <time>2022-02-12T08:23:26Z</time>
      </trkpt>
      <trkpt lat="42.85735" lon="0.26662">
        <ele>1558.2</ele>
        <time>2022-02-12T08:23:34Z</time>
      </trkpt>
      <trkpt lat="42.85736" lon="0.26661">
        <ele>1558.2</ele>
        <time>2022-02-12T08:23:42Z</time>
      </trkpt>
      <trkpt lat="42.85732" lon="0.2666">
        <ele>1558.2</ele>
        <time>2022-02-12T08:23:50Z</time>
      </trkpt>
      <trkpt lat="42.85733" lon="0.26662">
        <ele>1558.8</ele>
        <time>2022-02-12T08:23:56Z</time>
      </trkpt>
      <trkpt lat="42.85735" lon="0.26654">
        <ele>1559.2</ele>
        <time>2022-02-12T08:24:04Z</time>
      </trkpt>
      <trkpt lat="42.85731" lon="0.26651">
        <ele>1559.2</ele>
        <time>2022-02-12T08:24:10Z</time>
      </trkpt>
      <trkpt lat="42.85729" lon="0.26648">
        <ele>1558.8</ele>
        <time>2022-02-12T08:24:14Z</time>
      </trkpt>
      <trkpt lat="42.85721" lon="0.26655">
        <ele>1559</ele>
        <time>2022-02-12T08:24:24Z</time>
      </trkpt>
      <trkpt lat="42.85719" lon="0.26654">
        <ele>1558.8</ele>
        <time>2022-02-12T08:24:26Z</time>
      </trkpt>
      <trkpt lat="42.85727" lon="0.26667">
        <ele>1559</ele>
        <time>2022-02-12T08:24:40Z</time>
      </trkpt>
      <trkpt lat="42.85725" lon="0.26667">
        <ele>1559.2</ele>
        <time>2022-02-12T08:24:45Z</time>
      </trkpt>
      <trkpt lat="42.85727" lon="0.26664">
        <ele>1559.6</ele>
        <time>2022-02-12T08:24:50Z</time>
      </trkpt>
      <trkpt lat="42.85729" lon="0.26663">
        <ele>1559.6</ele>
        <time>2022-02-12T08:24:51Z</time>
      </trkpt>
      <trkpt lat="42.85731" lon="0.26662">
        <ele>1558.2</ele>
        <time>2022-02-12T08:25:01Z</time>
      </trkpt>
      <trkpt lat="42.85732" lon="0.26657">
        <ele>1558.2</ele>
        <time>2022-02-12T08:25:12Z</time>
      </trkpt>
      <trkpt lat="42.85732" lon="0.26656">
        <ele>1558.2</ele>
        <time>2022-02-12T08:25:15Z</time>
      </trkpt>
      <trkpt lat="42.85733" lon="0.26657">
        <ele>1558.2</ele>
        <time>2022-02-12T08:25:21Z</time>
      </trkpt>
      <trkpt lat="42.85732" lon="0.26659">
        <ele>1558.2</ele>
        <time>2022-02-12T08:25:25Z</time>
      </trkpt>
      <trkpt lat="42.85733" lon="0.26662">
        <ele>1558.2</ele>
        <time>2022-02-12T08:25:32Z</time>
      </trkpt>
      <trkpt lat="42.85732" lon="0.26654">
        <ele>1558.2</ele>
        <time>2022-02-12T08:25:40Z</time>
      </trkpt>
      <trkpt lat="42.85731" lon="0.26654">
        <ele>1558.2</ele>
        <time>2022-02-12T08:25:48Z</time>
      </trkpt>
      <trkpt lat="42.8573" lon="0.26652">
        <ele>1558.2</ele>
        <time>2022-02-12T08:25:56Z</time>
      </trkpt>
      <trkpt lat="42.85731" lon="0.2665">
        <ele>1558.2</ele>
        <time>2022-02-12T08:26:02Z</time>
      </trkpt>
      <trkpt lat="42.85732" lon="0.26664">
        <ele>1558.2</ele>
        <time>2022-02-12T08:26:09Z</time>
      </trkpt>
      <trkpt lat="42.85732" lon="0.26673">
        <ele>1558.2</ele>
        <time>2022-02-12T08:26:16Z</time>
      </trkpt>
      <trkpt lat="42.85733" lon="0.26668">
        <ele>1558.2</ele>
        <time>2022-02-12T08:26:23Z</time>
      </trkpt>
      <trkpt lat="42.85733" lon="0.26657">
        <ele>1559.8</ele>
        <time>2022-02-12T08:26:31Z</time>
      </trkpt>
      <trkpt lat="42.85721" lon="0.2665">
        <ele>1559.6</ele>
        <time>2022-02-12T08:26:37Z</time>
      </trkpt>
      <trkpt lat="42.8572" lon="0.26648">
        <ele>1559.6</ele>
        <time>2022-02-12T08:26:38Z</time>
      </trkpt>
      <trkpt lat="42.85726" lon="0.26641">
        <ele>1559.4</ele>
        <time>2022-02-12T08:26:46Z</time>
      </trkpt>
      <trkpt lat="42.85725" lon="0.26653">
        <ele>1559.6</ele>
        <time>2022-02-12T08:26:57Z</time>
      </trkpt>
      <trkpt lat="42.85728" lon="0.26655">
        <ele>1559.6</ele>
        <time>2022-02-12T08:27:06Z</time>
      </trkpt>
      <trkpt lat="42.85731" lon="0.26658">
        <ele>1559.8</ele>
        <time>2022-02-12T08:27:11Z</time>
      </trkpt>
      <trkpt lat="42.8573" lon="0.26658">
        <ele>1560.2</ele>
        <time>2022-02-12T08:27:14Z</time>
      </trkpt>
      <trkpt lat="42.8573" lon="0.26658">
        <ele>1560.2</ele>
        <time>2022-02-12T08:27:15Z</time>
      </trkpt>
      <trkpt lat="42.85729" lon="0.26659">
        <ele>1560</ele>
        <time>2022-02-12T08:27:23Z</time>
      </trkpt>
      <trkpt lat="42.85729" lon="0.2666">
        <ele>1560</ele>
        <time>2022-02-12T08:27:28Z</time>
      </trkpt>
      <trkpt lat="42.85731" lon="0.26663">
        <ele>1560</ele>
        <time>2022-02-12T08:27:33Z</time>
      </trkpt>
      <trkpt lat="42.85734" lon="0.26666">
        <ele>1559.8</ele>
        <time>2022-02-12T08:27:39Z</time>
      </trkpt>
      <trkpt lat="42.85734" lon="0.26663">
        <ele>1559.6</ele>
        <time>2022-02-12T08:27:44Z</time>
      </trkpt>
      <trkpt lat="42.85734" lon="0.26663">
        <ele>1559.6</ele>
        <time>2022-02-12T08:27:46Z</time>
      </trkpt>
      <trkpt lat="42.85733" lon="0.26664">
        <ele>1559.8</ele>
        <time>2022-02-12T08:27:53Z</time>
      </trkpt>
      <trkpt lat="42.85733" lon="0.26663">
        <ele>1560</ele>
        <time>2022-02-12T08:27:55Z</time>
      </trkpt>
      <trkpt lat="42.85733" lon="0.26664">
        <ele>1560</ele>
        <time>2022-02-12T08:27:59Z</time>
      </trkpt>
      <trkpt lat="42.85733" lon="0.26664">
        <ele>1560.2</ele>
        <time>2022-02-12T08:28:00Z</time>
      </trkpt>
      <trkpt lat="42.85731" lon="0.26662">
        <ele>1560</ele>
        <time>2022-02-12T08:28:07Z</time>
      </trkpt>
      <trkpt lat="42.85732" lon="0.26659">
        <ele>1560.2</ele>
        <time>2022-02-12T08:28:10Z</time>
      </trkpt>
      <trkpt lat="42.85729" lon="0.26657">
        <ele>1560.2</ele>
        <time>2022-02-12T08:28:15Z</time>
      </trkpt>
      <trkpt lat="42.8573" lon="0.26655">
        <ele>1559.8</ele>
        <time>2022-02-12T08:28:23Z</time>
      </trkpt>
      <trkpt lat="42.85731" lon="0.26656">
        <ele>1560.4</ele>
        <time>2022-02-12T08:28:28Z</time>
      </trkpt>
      <trkpt lat="42.85729" lon="0.26659">
        <ele>1560.4</ele>
        <time>2022-02-12T08:28:30Z</time>
      </trkpt>
      <trkpt lat="42.8573" lon="0.26674">
        <ele>1560.6</ele>
        <time>2022-02-12T08:28:40Z</time>
      </trkpt>
      <trkpt lat="42.85732" lon="0.26669">
        <ele>1560.2</ele>
        <time>2022-02-12T08:28:43Z</time>
      </trkpt>
      <trkpt lat="42.85734" lon="0.26671">
        <ele>1559.4</ele>
        <time>2022-02-12T08:28:48Z</time>
      </trkpt>
      <trkpt lat="42.85734" lon="0.26668">
        <ele>1559.6</ele>
        <time>2022-02-12T08:28:51Z</time>
      </trkpt>
      <trkpt lat="42.85734" lon="0.26664">
        <ele>1559.8</ele>
        <time>2022-02-12T08:28:56Z</time>
      </trkpt>
      <trkpt lat="42.85734" lon="0.26662">
        <ele>1560</ele>
        <time>2022-02-12T08:28:59Z</time>
      </trkpt>
      <trkpt lat="42.85736" lon="0.26657">
        <ele>1560.8</ele>
        <time>2022-02-12T08:29:04Z</time>
      </trkpt>
      <trkpt lat="42.85737" lon="0.26656">
        <ele>1561</ele>
        <time>2022-02-12T08:29:06Z</time>
      </trkpt>
      <trkpt lat="42.85738" lon="0.26655">
        <ele>1559.4</ele>
        <time>2022-02-12T08:29:08Z</time>
      </trkpt>
      <trkpt lat="42.85739" lon="0.26651">
        <ele>1558.8</ele>
        <time>2022-02-12T08:29:11Z</time>
      </trkpt>
      <trkpt lat="42.85741" lon="0.26647">
        <ele>1559.4</ele>
        <time>2022-02-12T08:29:14Z</time>
      </trkpt>
      <trkpt lat="42.85742" lon="0.26645">
        <ele>1559.6</ele>
        <time>2022-02-12T08:29:17Z</time>
      </trkpt>
      <trkpt lat="42.85742" lon="0.26642">
        <ele>1559.6</ele>
        <time>2022-02-12T08:29:20Z</time>
      </trkpt>
      <trkpt lat="42.85743" lon="0.26639">
        <ele>1559.8</ele>
        <time>2022-02-12T08:29:23Z</time>
      </trkpt>
      <trkpt lat="42.85743" lon="0.26638">
        <ele>1559.8</ele>
        <time>2022-02-12T08:29:24Z</time>
      </trkpt>
      <trkpt lat="42.85743" lon="0.26636">
        <ele>1560</ele>
        <time>2022-02-12T08:29:26Z</time>
      </trkpt>
      <trkpt lat="42.85743" lon="0.26634">
        <ele>1560.2</ele>
        <time>2022-02-12T08:29:27Z</time>
      </trkpt>
      <trkpt lat="42.85744" lon="0.26632">
        <ele>1560.4</ele>
        <time>2022-02-12T08:29:29Z</time>
      </trkpt>
      <trkpt lat="42.85745" lon="0.26631">
        <ele>1560.6</ele>
        <time>2022-02-12T08:29:30Z</time>
      </trkpt>
      <trkpt lat="42.85745" lon="0.26629">
        <ele>1560.8</ele>
        <time>2022-02-12T08:29:34Z</time>
      </trkpt>
      <trkpt lat="42.85745" lon="0.26629">
        <ele>1560.6</ele>
        <time>2022-02-12T08:29:36Z</time>
      </trkpt>
      <trkpt lat="42.85745" lon="0.26628">
        <ele>1560.4</ele>
        <time>2022-02-12T08:29:37Z</time>
      </trkpt>
      <trkpt lat="42.85743" lon="0.26628">
        <ele>1560.4</ele>
        <time>2022-02-12T08:29:40Z</time>
      </trkpt>
      <trkpt lat="42.85742" lon="0.26629">
        <ele>1560.4</ele>
        <time>2022-02-12T08:29:42Z</time>
      </trkpt>
      <trkpt lat="42.85742" lon="0.26629">
        <ele>1560.6</ele>
        <time>2022-02-12T08:29:44Z</time>
      </trkpt>
      <trkpt lat="42.85742" lon="0.26629">
        <ele>1560.8</ele>
        <time>2022-02-12T08:29:47Z</time>
      </trkpt>
      <trkpt lat="42.85742" lon="0.26629">
        <ele>1561</ele>
        <time>2022-02-12T08:29:49Z</time>
      </trkpt>
      <trkpt lat="42.85742" lon="0.26628">
        <ele>1561</ele>
        <time>2022-02-12T08:29:50Z</time>
      </trkpt>
      <trkpt lat="42.85743" lon="0.26628">
        <ele>1561</ele>
        <time>2022-02-12T08:29:51Z</time>
      </trkpt>
      <trkpt lat="42.85744" lon="0.26621">
        <ele>1561.6</ele>
        <time>2022-02-12T08:29:57Z</time>
      </trkpt>
      <trkpt lat="42.85744" lon="0.2662">
        <ele>1562</ele>
        <time>2022-02-12T08:29:58Z</time>
      </trkpt>
      <trkpt lat="42.85743" lon="0.26615">
        <ele>1562.4</ele>
        <time>2022-02-12T08:30:02Z</time>
      </trkpt>
      <trkpt lat="42.85744" lon="0.26614">
        <ele>1562.4</ele>
        <time>2022-02-12T08:30:03Z</time>
      </trkpt>
      <trkpt lat="42.85745" lon="0.2661">
        <ele>1562.8</ele>
        <time>2022-02-12T08:30:08Z</time>
      </trkpt>
      <trkpt lat="42.85746" lon="0.26609">
        <ele>1563.2</ele>
        <time>2022-02-12T08:30:09Z</time>
      </trkpt>
      <trkpt lat="42.85747" lon="0.26607">
        <ele>1563.8</ele>
        <time>2022-02-12T08:30:12Z</time>
      </trkpt>
      <trkpt lat="42.85747" lon="0.26606">
        <ele>1564</ele>
        <time>2022-02-12T08:30:13Z</time>
      </trkpt>
      <trkpt lat="42.85747" lon="0.26605">
        <ele>1564</ele>
        <time>2022-02-12T08:30:14Z</time>
      </trkpt>
      <trkpt lat="42.85747" lon="0.26604">
        <ele>1564.2</ele>
        <time>2022-02-12T08:30:15Z</time>
      </trkpt>
      <trkpt lat="42.85747" lon="0.26603">
        <ele>1564.4</ele>
        <time>2022-02-12T08:30:17Z</time>
      </trkpt>
      <trkpt lat="42.85748" lon="0.26601">
        <ele>1564.6</ele>
        <time>2022-02-12T08:30:19Z</time>
      </trkpt>
      <trkpt lat="42.85749" lon="0.266">
        <ele>1565</ele>
        <time>2022-02-12T08:30:20Z</time>
      </trkpt>
      <trkpt lat="42.8575" lon="0.26598">
        <ele>1565.4</ele>
        <time>2022-02-12T08:30:22Z</time>
      </trkpt>
      <trkpt lat="42.8575" lon="0.26597">
        <ele>1565.6</ele>
        <time>2022-02-12T08:30:24Z</time>
      </trkpt>
      <trkpt lat="42.85751" lon="0.26596">
        <ele>1565.8</ele>
        <time>2022-02-12T08:30:25Z</time>
      </trkpt>
      <trkpt lat="42.85751" lon="0.26595">
        <ele>1566</ele>
        <time>2022-02-12T08:30:27Z</time>
      </trkpt>
      <trkpt lat="42.85752" lon="0.26595">
        <ele>1566.2</ele>
        <time>2022-02-12T08:30:28Z</time>
      </trkpt>
      <trkpt lat="42.85752" lon="0.26594">
        <ele>1566.6</ele>
        <time>2022-02-12T08:30:29Z</time>
      </trkpt>
      <trkpt lat="42.85751" lon="0.26593">
        <ele>1567</ele>
        <time>2022-02-12T08:30:31Z</time>
      </trkpt>
      <trkpt lat="42.85752" lon="0.26592">
        <ele>1567.4</ele>
        <time>2022-02-12T08:30:33Z</time>
      </trkpt>
      <trkpt lat="42.85753" lon="0.2659">
        <ele>1568.2</ele>
        <time>2022-02-12T08:30:37Z</time>
      </trkpt>
      <trkpt lat="42.85753" lon="0.26589">
        <ele>1568.4</ele>
        <time>2022-02-12T08:30:39Z</time>
      </trkpt>
      <trkpt lat="42.85753" lon="0.26587">
        <ele>1569.2</ele>
        <time>2022-02-12T08:30:42Z</time>
      </trkpt>
      <trkpt lat="42.85754" lon="0.26586">
        <ele>1569.4</ele>
        <time>2022-02-12T08:30:43Z</time>
      </trkpt>
      <trkpt lat="42.85754" lon="0.26586">
        <ele>1569.6</ele>
        <time>2022-02-12T08:30:44Z</time>
      </trkpt>
      <trkpt lat="42.85754" lon="0.26584">
        <ele>1570.6</ele>
        <time>2022-02-12T08:30:49Z</time>
      </trkpt>
      <trkpt lat="42.85755" lon="0.26584">
        <ele>1570.6</ele>
        <time>2022-02-12T08:30:50Z</time>
      </trkpt>
      <trkpt lat="42.85756" lon="0.26579">
        <ele>1571.2</ele>
        <time>2022-02-12T08:30:55Z</time>
      </trkpt>
      <trkpt lat="42.85757" lon="0.26575">
        <ele>1571.8</ele>
        <time>2022-02-12T08:30:59Z</time>
      </trkpt>
      <trkpt lat="42.85759" lon="0.26574">
        <ele>1572.2</ele>
        <time>2022-02-12T08:31:01Z</time>
      </trkpt>
      <trkpt lat="42.85761" lon="0.26574">
        <ele>1573</ele>
        <time>2022-02-12T08:31:04Z</time>
      </trkpt>
      <trkpt lat="42.8576" lon="0.2657">
        <ele>1574</ele>
        <time>2022-02-12T08:31:09Z</time>
      </trkpt>
      <trkpt lat="42.8576" lon="0.26569">
        <ele>1574.4</ele>
        <time>2022-02-12T08:31:10Z</time>
      </trkpt>
      <trkpt lat="42.85762" lon="0.26565">
        <ele>1575</ele>
        <time>2022-02-12T08:31:14Z</time>
      </trkpt>
      <trkpt lat="42.85763" lon="0.26564">
        <ele>1575.2</ele>
        <time>2022-02-12T08:31:17Z</time>
      </trkpt>
      <trkpt lat="42.85764" lon="0.26564">
        <ele>1575.2</ele>
        <time>2022-02-12T08:31:18Z</time>
      </trkpt>
      <trkpt lat="42.85763" lon="0.26564">
        <ele>1575.8</ele>
        <time>2022-02-12T08:31:20Z</time>
      </trkpt>
      <trkpt lat="42.85763" lon="0.26564">
        <ele>1576</ele>
        <time>2022-02-12T08:31:21Z</time>
      </trkpt>
      <trkpt lat="42.85763" lon="0.26563">
        <ele>1576.8</ele>
        <time>2022-02-12T08:31:24Z</time>
      </trkpt>
      <trkpt lat="42.85764" lon="0.26562">
        <ele>1577.2</ele>
        <time>2022-02-12T08:31:25Z</time>
      </trkpt>
      <trkpt lat="42.85765" lon="0.26559">
        <ele>1578.2</ele>
        <time>2022-02-12T08:31:29Z</time>
      </trkpt>
      <trkpt lat="42.85765" lon="0.26558">
        <ele>1578.8</ele>
        <time>2022-02-12T08:31:31Z</time>
      </trkpt>
      <trkpt lat="42.85765" lon="0.26553">
        <ele>1579.4</ele>
        <time>2022-02-12T08:31:36Z</time>
      </trkpt>
      <trkpt lat="42.85765" lon="0.26553">
        <ele>1579.6</ele>
        <time>2022-02-12T08:31:37Z</time>
      </trkpt>
      <trkpt lat="42.85765" lon="0.26548">
        <ele>1579.8</ele>
        <time>2022-02-12T08:31:41Z</time>
      </trkpt>
      <trkpt lat="42.85766" lon="0.26546">
        <ele>1580.2</ele>
        <time>2022-02-12T08:31:43Z</time>
      </trkpt>
      <trkpt lat="42.85766" lon="0.26543">
        <ele>1580.8</ele>
        <time>2022-02-12T08:31:45Z</time>
      </trkpt>
      <trkpt lat="42.85767" lon="0.26541">
        <ele>1581.6</ele>
        <time>2022-02-12T08:31:48Z</time>
      </trkpt>
      <trkpt lat="42.85767" lon="0.2654">
        <ele>1582</ele>
        <time>2022-02-12T08:31:49Z</time>
      </trkpt>
      <trkpt lat="42.85767" lon="0.26539">
        <ele>1582.4</ele>
        <time>2022-02-12T08:31:51Z</time>
      </trkpt>
      <trkpt lat="42.85769" lon="0.26539">
        <ele>1582.6</ele>
        <time>2022-02-12T08:31:54Z</time>
      </trkpt>
      <trkpt lat="42.85769" lon="0.26538">
        <ele>1582.8</ele>
        <time>2022-02-12T08:31:55Z</time>
      </trkpt>
      <trkpt lat="42.85769" lon="0.26538">
        <ele>1583</ele>
        <time>2022-02-12T08:31:56Z</time>
      </trkpt>
      <trkpt lat="42.85771" lon="0.26536">
        <ele>1583.8</ele>
        <time>2022-02-12T08:32:01Z</time>
      </trkpt>
      <trkpt lat="42.85773" lon="0.26536">
        <ele>1584</ele>
        <time>2022-02-12T08:32:06Z</time>
      </trkpt>
      <trkpt lat="42.85774" lon="0.26535">
        <ele>1584.4</ele>
        <time>2022-02-12T08:32:07Z</time>
      </trkpt>
      <trkpt lat="42.85774" lon="0.26533">
        <ele>1585.2</ele>
        <time>2022-02-12T08:32:10Z</time>
      </trkpt>
      <trkpt lat="42.85774" lon="0.26532">
        <ele>1585.4</ele>
        <time>2022-02-12T08:32:11Z</time>
      </trkpt>
      <trkpt lat="42.85774" lon="0.26527">
        <ele>1586.2</ele>
        <time>2022-02-12T08:32:15Z</time>
      </trkpt>
      <trkpt lat="42.85774" lon="0.26524">
        <ele>1586.4</ele>
        <time>2022-02-12T08:32:17Z</time>
      </trkpt>
      <trkpt lat="42.85775" lon="0.26523">
        <ele>1586.4</ele>
        <time>2022-02-12T08:32:18Z</time>
      </trkpt>
      <trkpt lat="42.85777" lon="0.26522">
        <ele>1587.4</ele>
        <time>2022-02-12T08:32:21Z</time>
      </trkpt>
      <trkpt lat="42.85778" lon="0.26522">
        <ele>1587.8</ele>
        <time>2022-02-12T08:32:23Z</time>
      </trkpt>
      <trkpt lat="42.85778" lon="0.26522">
        <ele>1588.2</ele>
        <time>2022-02-12T08:32:24Z</time>
      </trkpt>
      <trkpt lat="42.85778" lon="0.26521">
        <ele>1588.4</ele>
        <time>2022-02-12T08:32:25Z</time>
      </trkpt>
      <trkpt lat="42.85779" lon="0.2652">
        <ele>1588.8</ele>
        <time>2022-02-12T08:32:29Z</time>
      </trkpt>
      <trkpt lat="42.85779" lon="0.2652">
        <ele>1588.8</ele>
        <time>2022-02-12T08:32:30Z</time>
      </trkpt>
      <trkpt lat="42.85781" lon="0.26517">
        <ele>1589.4</ele>
        <time>2022-02-12T08:32:35Z</time>
      </trkpt>
      <trkpt lat="42.85782" lon="0.26516">
        <ele>1589.6</ele>
        <time>2022-02-12T08:32:36Z</time>
      </trkpt>
      <trkpt lat="42.85782" lon="0.26514">
        <ele>1590.6</ele>
        <time>2022-02-12T08:32:41Z</time>
      </trkpt>
      <trkpt lat="42.85782" lon="0.26514">
        <ele>1590.8</ele>
        <time>2022-02-12T08:32:42Z</time>
      </trkpt>
      <trkpt lat="42.85784" lon="0.26511">
        <ele>1591.4</ele>
        <time>2022-02-12T08:32:48Z</time>
      </trkpt>
      <trkpt lat="42.85784" lon="0.2651">
        <ele>1591.6</ele>
        <time>2022-02-12T08:32:49Z</time>
      </trkpt>
      <trkpt lat="42.85787" lon="0.26507">
        <ele>1592.2</ele>
        <time>2022-02-12T08:32:53Z</time>
      </trkpt>
      <trkpt lat="42.85788" lon="0.26505">
        <ele>1592.8</ele>
        <time>2022-02-12T08:32:55Z</time>
      </trkpt>
      <trkpt lat="42.85789" lon="0.26503">
        <ele>1594</ele>
        <time>2022-02-12T08:32:59Z</time>
      </trkpt>
      <trkpt lat="42.8579" lon="0.26503">
        <ele>1594.2</ele>
        <time>2022-02-12T08:33:00Z</time>
      </trkpt>
      <trkpt lat="42.8579" lon="0.26496">
        <ele>1594.6</ele>
        <time>2022-02-12T08:33:05Z</time>
      </trkpt>
      <trkpt lat="42.8579" lon="0.26495">
        <ele>1594.6</ele>
        <time>2022-02-12T08:33:06Z</time>
      </trkpt>
      <trkpt lat="42.85791" lon="0.26493">
        <ele>1595</ele>
        <time>2022-02-12T08:33:08Z</time>
      </trkpt>
      <trkpt lat="42.85791" lon="0.26492">
        <ele>1595</ele>
        <time>2022-02-12T08:33:09Z</time>
      </trkpt>
      <trkpt lat="42.85791" lon="0.2649">
        <ele>1595.4</ele>
        <time>2022-02-12T08:33:11Z</time>
      </trkpt>
      <trkpt lat="42.85791" lon="0.26489">
        <ele>1596</ele>
        <time>2022-02-12T08:33:13Z</time>
      </trkpt>
      <trkpt lat="42.85791" lon="0.26488">
        <ele>1596</ele>
        <time>2022-02-12T08:33:14Z</time>
      </trkpt>
      <trkpt lat="42.85792" lon="0.26488">
        <ele>1596.2</ele>
        <time>2022-02-12T08:33:15Z</time>
      </trkpt>
      <trkpt lat="42.85791" lon="0.26486">
        <ele>1596.6</ele>
        <time>2022-02-12T08:33:18Z</time>
      </trkpt>
      <trkpt lat="42.85791" lon="0.26485">
        <ele>1596.6</ele>
        <time>2022-02-12T08:33:19Z</time>
      </trkpt>
      <trkpt lat="42.85791" lon="0.26483">
        <ele>1597.4</ele>
        <time>2022-02-12T08:33:24Z</time>
      </trkpt>
      <trkpt lat="42.85791" lon="0.26483">
        <ele>1597.8</ele>
        <time>2022-02-12T08:33:26Z</time>
      </trkpt>
      <trkpt lat="42.85793" lon="0.26479">
        <ele>1598.6</ele>
        <time>2022-02-12T08:33:31Z</time>
      </trkpt>
      <trkpt lat="42.85794" lon="0.26478">
        <ele>1598.8</ele>
        <time>2022-02-12T08:33:32Z</time>
      </trkpt>
      <trkpt lat="42.85795" lon="0.26474">
        <ele>1599.6</ele>
        <time>2022-02-12T08:33:36Z</time>
      </trkpt>
      <trkpt lat="42.85795" lon="0.26473">
        <ele>1600.2</ele>
        <time>2022-02-12T08:33:38Z</time>
      </trkpt>
      <trkpt lat="42.85796" lon="0.26469">
        <ele>1600.6</ele>
        <time>2022-02-12T08:33:41Z</time>
      </trkpt>
      <trkpt lat="42.85796" lon="0.26467">
        <ele>1600.8</ele>
        <time>2022-02-12T08:33:43Z</time>
      </trkpt>
      <trkpt lat="42.85796" lon="0.26466">
        <ele>1601</ele>
        <time>2022-02-12T08:33:45Z</time>
      </trkpt>
      <trkpt lat="42.85796" lon="0.26465">
        <ele>1601.2</ele>
        <time>2022-02-12T08:33:46Z</time>
      </trkpt>
      <trkpt lat="42.85799" lon="0.26462">
        <ele>1601.8</ele>
        <time>2022-02-12T08:33:51Z</time>
      </trkpt>
      <trkpt lat="42.85799" lon="0.26462">
        <ele>1601.8</ele>
        <time>2022-02-12T08:33:52Z</time>
      </trkpt>
      <trkpt lat="42.85799" lon="0.26462">
        <ele>1602</ele>
        <time>2022-02-12T08:33:53Z</time>
      </trkpt>
      <trkpt lat="42.85799" lon="0.26461">
        <ele>1602.2</ele>
        <time>2022-02-12T08:33:56Z</time>
      </trkpt>
      <trkpt lat="42.85799" lon="0.26459">
        <ele>1602.8</ele>
        <time>2022-02-12T08:33:59Z</time>
      </trkpt>
      <trkpt lat="42.85799" lon="0.26459">
        <ele>1602.8</ele>
        <time>2022-02-12T08:34:00Z</time>
      </trkpt>
      <trkpt lat="42.858" lon="0.26457">
        <ele>1603.8</ele>
        <time>2022-02-12T08:34:05Z</time>
      </trkpt>
      <trkpt lat="42.85802" lon="0.26453">
        <ele>1605</ele>
        <time>2022-02-12T08:34:11Z</time>
      </trkpt>
      <trkpt lat="42.85802" lon="0.2645">
        <ele>1606</ele>
        <time>2022-02-12T08:34:15Z</time>
      </trkpt>
      <trkpt lat="42.85803" lon="0.26448">
        <ele>1606.2</ele>
        <time>2022-02-12T08:34:17Z</time>
      </trkpt>
      <trkpt lat="42.85805" lon="0.26443">
        <ele>1606.4</ele>
        <time>2022-02-12T08:34:22Z</time>
      </trkpt>
      <trkpt lat="42.85805" lon="0.2644">
        <ele>1607.2</ele>
        <time>2022-02-12T08:34:25Z</time>
      </trkpt>
      <trkpt lat="42.85806" lon="0.26439">
        <ele>1607.4</ele>
        <time>2022-02-12T08:34:26Z</time>
      </trkpt>
      <trkpt lat="42.85807" lon="0.26435">
        <ele>1608.4</ele>
        <time>2022-02-12T08:34:31Z</time>
      </trkpt>
      <trkpt lat="42.85808" lon="0.26432">
        <ele>1609</ele>
        <time>2022-02-12T08:34:37Z</time>
      </trkpt>
      <trkpt lat="42.85809" lon="0.26429">
        <ele>1609.4</ele>
        <time>2022-02-12T08:34:41Z</time>
      </trkpt>
      <trkpt lat="42.8581" lon="0.26426">
        <ele>1610.4</ele>
        <time>2022-02-12T08:34:44Z</time>
      </trkpt>
      <trkpt lat="42.8581" lon="0.26426">
        <ele>1610.6</ele>
        <time>2022-02-12T08:34:45Z</time>
      </trkpt>
      <trkpt lat="42.85811" lon="0.2642">
        <ele>1611.2</ele>
        <time>2022-02-12T08:34:50Z</time>
      </trkpt>
      <trkpt lat="42.85811" lon="0.26414">
        <ele>1611.6</ele>
        <time>2022-02-12T08:34:55Z</time>
      </trkpt>
      <trkpt lat="42.85811" lon="0.26413">
        <ele>1612</ele>
        <time>2022-02-12T08:34:56Z</time>
      </trkpt>
      <trkpt lat="42.85812" lon="0.26412">
        <ele>1612.4</ele>
        <time>2022-02-12T08:34:59Z</time>
      </trkpt>
      <trkpt lat="42.85813" lon="0.2641">
        <ele>1612.8</ele>
        <time>2022-02-12T08:35:03Z</time>
      </trkpt>
      <trkpt lat="42.85813" lon="0.26409">
        <ele>1613</ele>
        <time>2022-02-12T08:35:06Z</time>
      </trkpt>
      <trkpt lat="42.85813" lon="0.26407">
        <ele>1613.6</ele>
        <time>2022-02-12T08:35:09Z</time>
      </trkpt>
      <trkpt lat="42.85816" lon="0.26406">
        <ele>1614.2</ele>
        <time>2022-02-12T08:35:12Z</time>
      </trkpt>
      <trkpt lat="42.85817" lon="0.26405">
        <ele>1614.6</ele>
        <time>2022-02-12T08:35:14Z</time>
      </trkpt>
      <trkpt lat="42.8582" lon="0.26401">
        <ele>1615.2</ele>
        <time>2022-02-12T08:35:21Z</time>
      </trkpt>
      <trkpt lat="42.85822" lon="0.264">
        <ele>1616.4</ele>
        <time>2022-02-12T08:35:28Z</time>
      </trkpt>
      <trkpt lat="42.85823" lon="0.264">
        <ele>1617</ele>
        <time>2022-02-12T08:35:31Z</time>
      </trkpt>
      <trkpt lat="42.85822" lon="0.26398">
        <ele>1617.2</ele>
        <time>2022-02-12T08:35:33Z</time>
      </trkpt>
      <trkpt lat="42.85823" lon="0.26397">
        <ele>1617.6</ele>
        <time>2022-02-12T08:35:35Z</time>
      </trkpt>
      <trkpt lat="42.85824" lon="0.26395">
        <ele>1618.4</ele>
        <time>2022-02-12T08:35:38Z</time>
      </trkpt>
      <trkpt lat="42.85825" lon="0.26394">
        <ele>1618.6</ele>
        <time>2022-02-12T08:35:39Z</time>
      </trkpt>
      <trkpt lat="42.85826" lon="0.26392">
        <ele>1619</ele>
        <time>2022-02-12T08:35:43Z</time>
      </trkpt>
      <trkpt lat="42.85826" lon="0.2639">
        <ele>1619.4</ele>
        <time>2022-02-12T08:35:45Z</time>
      </trkpt>
      <trkpt lat="42.85827" lon="0.2639">
        <ele>1619.8</ele>
        <time>2022-02-12T08:35:47Z</time>
      </trkpt>
      <trkpt lat="42.85827" lon="0.26389">
        <ele>1620.2</ele>
        <time>2022-02-12T08:35:49Z</time>
      </trkpt>
      <trkpt lat="42.85828" lon="0.26388">
        <ele>1620.4</ele>
        <time>2022-02-12T08:35:51Z</time>
      </trkpt>
      <trkpt lat="42.85828" lon="0.26387">
        <ele>1621.2</ele>
        <time>2022-02-12T08:35:53Z</time>
      </trkpt>
      <trkpt lat="42.85829" lon="0.26387">
        <ele>1621.4</ele>
        <time>2022-02-12T08:35:59Z</time>
      </trkpt>
      <trkpt lat="42.8583" lon="0.26384">
        <ele>1622</ele>
        <time>2022-02-12T08:36:05Z</time>
      </trkpt>
      <trkpt lat="42.8583" lon="0.26384">
        <ele>1622.2</ele>
        <time>2022-02-12T08:36:08Z</time>
      </trkpt>
      <trkpt lat="42.85829" lon="0.26383">
        <ele>1622.4</ele>
        <time>2022-02-12T08:36:10Z</time>
      </trkpt>
      <trkpt lat="42.85831" lon="0.26379">
        <ele>1623.2</ele>
        <time>2022-02-12T08:36:15Z</time>
      </trkpt>
      <trkpt lat="42.85831" lon="0.26378">
        <ele>1623.2</ele>
        <time>2022-02-12T08:36:16Z</time>
      </trkpt>
      <trkpt lat="42.85832" lon="0.26376">
        <ele>1623.8</ele>
        <time>2022-02-12T08:36:19Z</time>
      </trkpt>
      <trkpt lat="42.85834" lon="0.26375">
        <ele>1624.4</ele>
        <time>2022-02-12T08:36:23Z</time>
      </trkpt>
      <trkpt lat="42.85834" lon="0.26374">
        <ele>1624.4</ele>
        <time>2022-02-12T08:36:24Z</time>
      </trkpt>
      <trkpt lat="42.85835" lon="0.26372">
        <ele>1625.4</ele>
        <time>2022-02-12T08:36:29Z</time>
      </trkpt>
      <trkpt lat="42.85835" lon="0.26371">
        <ele>1625.6</ele>
        <time>2022-02-12T08:36:30Z</time>
      </trkpt>
      <trkpt lat="42.85836" lon="0.26368">
        <ele>1626.8</ele>
        <time>2022-02-12T08:36:35Z</time>
      </trkpt>
      <trkpt lat="42.85837" lon="0.26367">
        <ele>1627.2</ele>
        <time>2022-02-12T08:36:38Z</time>
      </trkpt>
      <trkpt lat="42.85837" lon="0.26367">
        <ele>1627.8</ele>
        <time>2022-02-12T08:36:39Z</time>
      </trkpt>
      <trkpt lat="42.85839" lon="0.26365">
        <ele>1628.8</ele>
        <time>2022-02-12T08:36:43Z</time>
      </trkpt>
      <trkpt lat="42.8584" lon="0.26363">
        <ele>1629.2</ele>
        <time>2022-02-12T08:36:45Z</time>
      </trkpt>
      <trkpt lat="42.85842" lon="0.26357">
        <ele>1629.4</ele>
        <time>2022-02-12T08:36:51Z</time>
      </trkpt>
      <trkpt lat="42.85843" lon="0.26355">
        <ele>1629.8</ele>
        <time>2022-02-12T08:36:54Z</time>
      </trkpt>
      <trkpt lat="42.85844" lon="0.26353">
        <ele>1631</ele>
        <time>2022-02-12T08:36:57Z</time>
      </trkpt>
      <trkpt lat="42.85846" lon="0.26349">
        <ele>1631.8</ele>
        <time>2022-02-12T08:37:02Z</time>
      </trkpt>
      <trkpt lat="42.85847" lon="0.26349">
        <ele>1632</ele>
        <time>2022-02-12T08:37:03Z</time>
      </trkpt>
      <trkpt lat="42.8585" lon="0.2635">
        <ele>1632.8</ele>
        <time>2022-02-12T08:37:07Z</time>
      </trkpt>
      <trkpt lat="42.85851" lon="0.2635">
        <ele>1632.8</ele>
        <time>2022-02-12T08:37:08Z</time>
      </trkpt>
      <trkpt lat="42.85852" lon="0.26351">
        <ele>1633</ele>
        <time>2022-02-12T08:37:10Z</time>
      </trkpt>
      <trkpt lat="42.85852" lon="0.26352">
        <ele>1633.2</ele>
        <time>2022-02-12T08:37:11Z</time>
      </trkpt>
      <trkpt lat="42.85852" lon="0.26351">
        <ele>1634</ele>
        <time>2022-02-12T08:37:14Z</time>
      </trkpt>
      <trkpt lat="42.85852" lon="0.26351">
        <ele>1634.2</ele>
        <time>2022-02-12T08:37:16Z</time>
      </trkpt>
      <trkpt lat="42.85852" lon="0.2635">
        <ele>1634.2</ele>
        <time>2022-02-12T08:37:17Z</time>
      </trkpt>
      <trkpt lat="42.85852" lon="0.26348">
        <ele>1634.6</ele>
        <time>2022-02-12T08:37:19Z</time>
      </trkpt>
      <trkpt lat="42.85854" lon="0.26347">
        <ele>1635.4</ele>
        <time>2022-02-12T08:37:22Z</time>
      </trkpt>
      <trkpt lat="42.85854" lon="0.26347">
        <ele>1635.6</ele>
        <time>2022-02-12T08:37:24Z</time>
      </trkpt>
      <trkpt lat="42.85856" lon="0.26348">
        <ele>1635.8</ele>
        <time>2022-02-12T08:37:27Z</time>
      </trkpt>
      <trkpt lat="42.85856" lon="0.26348">
        <ele>1635.8</ele>
        <time>2022-02-12T08:37:29Z</time>
      </trkpt>
      <trkpt lat="42.85857" lon="0.26346">
        <ele>1636.4</ele>
        <time>2022-02-12T08:37:31Z</time>
      </trkpt>
      <trkpt lat="42.85858" lon="0.26343">
        <ele>1637</ele>
        <time>2022-02-12T08:37:34Z</time>
      </trkpt>
      <trkpt lat="42.85861" lon="0.26342">
        <ele>1637.8</ele>
        <time>2022-02-12T08:37:38Z</time>
      </trkpt>
      <trkpt lat="42.85863" lon="0.26343">
        <ele>1639</ele>
        <time>2022-02-12T08:37:43Z</time>
      </trkpt>
      <trkpt lat="42.85864" lon="0.26343">
        <ele>1639</ele>
        <time>2022-02-12T08:37:44Z</time>
      </trkpt>
      <trkpt lat="42.85865" lon="0.26344">
        <ele>1640</ele>
        <time>2022-02-12T08:37:49Z</time>
      </trkpt>
      <trkpt lat="42.85867" lon="0.26345">
        <ele>1641.2</ele>
        <time>2022-02-12T08:37:54Z</time>
      </trkpt>
      <trkpt lat="42.8587" lon="0.26341">
        <ele>1642</ele>
        <time>2022-02-12T08:38:00Z</time>
      </trkpt>
      <trkpt lat="42.8587" lon="0.26341">
        <ele>1642.2</ele>
        <time>2022-02-12T08:38:01Z</time>
      </trkpt>
      <trkpt lat="42.85873" lon="0.26341">
        <ele>1643.2</ele>
        <time>2022-02-12T08:38:06Z</time>
      </trkpt>
      <trkpt lat="42.85874" lon="0.26341">
        <ele>1644.2</ele>
        <time>2022-02-12T08:38:10Z</time>
      </trkpt>
      <trkpt lat="42.85875" lon="0.2634">
        <ele>1644.4</ele>
        <time>2022-02-12T08:38:12Z</time>
      </trkpt>
      <trkpt lat="42.85877" lon="0.2634">
        <ele>1644.8</ele>
        <time>2022-02-12T08:38:17Z</time>
      </trkpt>
      <trkpt lat="42.85878" lon="0.26339">
        <ele>1645.6</ele>
        <time>2022-02-12T08:38:21Z</time>
      </trkpt>
      <trkpt lat="42.85878" lon="0.26337">
        <ele>1645.6</ele>
        <time>2022-02-12T08:38:22Z</time>
      </trkpt>
      <trkpt lat="42.85879" lon="0.26334">
        <ele>1646.4</ele>
        <time>2022-02-12T08:38:28Z</time>
      </trkpt>
      <trkpt lat="42.8588" lon="0.26332">
        <ele>1646.2</ele>
        <time>2022-02-12T08:38:33Z</time>
      </trkpt>
      <trkpt lat="42.85879" lon="0.26326">
        <ele>1646.2</ele>
        <time>2022-02-12T08:38:41Z</time>
      </trkpt>
      <trkpt lat="42.8588" lon="0.26332">
        <ele>1646</ele>
        <time>2022-02-12T08:38:49Z</time>
      </trkpt>
      <trkpt lat="42.8588" lon="0.26331">
        <ele>1645.4</ele>
        <time>2022-02-12T08:38:57Z</time>
      </trkpt>
      <trkpt lat="42.8588" lon="0.26333">
        <ele>1646.2</ele>
        <time>2022-02-12T08:39:03Z</time>
      </trkpt>
      <trkpt lat="42.85879" lon="0.26332">
        <ele>1646.2</ele>
        <time>2022-02-12T08:39:07Z</time>
      </trkpt>
      <trkpt lat="42.85879" lon="0.26332">
        <ele>1646.2</ele>
        <time>2022-02-12T08:39:08Z</time>
      </trkpt>
      <trkpt lat="42.85879" lon="0.26329">
        <ele>1646</ele>
        <time>2022-02-12T08:39:12Z</time>
      </trkpt>
      <trkpt lat="42.85879" lon="0.2633">
        <ele>1646.8</ele>
        <time>2022-02-12T08:39:18Z</time>
      </trkpt>
      <trkpt lat="42.8588" lon="0.2633">
        <ele>1646.8</ele>
        <time>2022-02-12T08:39:19Z</time>
      </trkpt>
      <trkpt lat="42.85879" lon="0.26332">
        <ele>1644.2</ele>
        <time>2022-02-12T08:39:25Z</time>
      </trkpt>
      <trkpt lat="42.85879" lon="0.26332">
        <ele>1645.6</ele>
        <time>2022-02-12T08:39:30Z</time>
      </trkpt>
      <trkpt lat="42.8588" lon="0.26332">
        <ele>1646.2</ele>
        <time>2022-02-12T08:39:34Z</time>
      </trkpt>
      <trkpt lat="42.85879" lon="0.26334">
        <ele>1646.2</ele>
        <time>2022-02-12T08:39:39Z</time>
      </trkpt>
      <trkpt lat="42.85879" lon="0.26333">
        <ele>1646.2</ele>
        <time>2022-02-12T08:39:47Z</time>
      </trkpt>
      <trkpt lat="42.85879" lon="0.26333">
        <ele>1646.2</ele>
        <time>2022-02-12T08:39:49Z</time>
      </trkpt>
      <trkpt lat="42.85879" lon="0.26334">
        <ele>1646.2</ele>
        <time>2022-02-12T08:39:55Z</time>
      </trkpt>
      <trkpt lat="42.85879" lon="0.26334">
        <ele>1646.2</ele>
        <time>2022-02-12T08:39:57Z</time>
      </trkpt>
      <trkpt lat="42.8588" lon="0.26333">
        <ele>1646.2</ele>
        <time>2022-02-12T08:39:59Z</time>
      </trkpt>
      <trkpt lat="42.85881" lon="0.26329">
        <ele>1646.2</ele>
        <time>2022-02-12T08:40:03Z</time>
      </trkpt>
      <trkpt lat="42.85879" lon="0.2633">
        <ele>1646.2</ele>
        <time>2022-02-12T08:40:10Z</time>
      </trkpt>
      <trkpt lat="42.85877" lon="0.26331">
        <ele>1646.2</ele>
        <time>2022-02-12T08:40:18Z</time>
      </trkpt>
      <trkpt lat="42.85879" lon="0.26331">
        <ele>1646.2</ele>
        <time>2022-02-12T08:40:20Z</time>
      </trkpt>
      <trkpt lat="42.85879" lon="0.26332">
        <ele>1646.2</ele>
        <time>2022-02-12T08:40:27Z</time>
      </trkpt>
      <trkpt lat="42.85879" lon="0.2633">
        <ele>1646.2</ele>
        <time>2022-02-12T08:40:33Z</time>
      </trkpt>
      <trkpt lat="42.85879" lon="0.2633">
        <ele>1646.2</ele>
        <time>2022-02-12T08:40:34Z</time>
      </trkpt>
      <trkpt lat="42.85879" lon="0.2633">
        <ele>1646.2</ele>
        <time>2022-02-12T08:40:39Z</time>
      </trkpt>
      <trkpt lat="42.85879" lon="0.26329">
        <ele>1646.2</ele>
        <time>2022-02-12T08:40:42Z</time>
      </trkpt>
      <trkpt lat="42.85878" lon="0.26329">
        <ele>1646.2</ele>
        <time>2022-02-12T08:40:51Z</time>
      </trkpt>
      <trkpt lat="42.85878" lon="0.2633">
        <ele>1646.2</ele>
        <time>2022-02-12T08:40:56Z</time>
      </trkpt>
      <trkpt lat="42.8588" lon="0.26331">
        <ele>1646.2</ele>
        <time>2022-02-12T08:41:02Z</time>
      </trkpt>
      <trkpt lat="42.85881" lon="0.2633">
        <ele>1646.2</ele>
        <time>2022-02-12T08:41:10Z</time>
      </trkpt>
      <trkpt lat="42.85881" lon="0.26328">
        <ele>1646.2</ele>
        <time>2022-02-12T08:41:17Z</time>
      </trkpt>
      <trkpt lat="42.85877" lon="0.2633">
        <ele>1646.2</ele>
        <time>2022-02-12T08:41:27Z</time>
      </trkpt>
      <trkpt lat="42.85878" lon="0.26329">
        <ele>1646.2</ele>
        <time>2022-02-12T08:41:33Z</time>
      </trkpt>
      <trkpt lat="42.8588" lon="0.26328">
        <ele>1646.2</ele>
        <time>2022-02-12T08:41:39Z</time>
      </trkpt>
      <trkpt lat="42.85881" lon="0.26328">
        <ele>1646.2</ele>
        <time>2022-02-12T08:41:40Z</time>
      </trkpt>
      <trkpt lat="42.85879" lon="0.26328">
        <ele>1646.2</ele>
        <time>2022-02-12T08:41:46Z</time>
      </trkpt>
      <trkpt lat="42.85881" lon="0.26322">
        <ele>1646.2</ele>
        <time>2022-02-12T08:41:51Z</time>
      </trkpt>
      <trkpt lat="42.85885" lon="0.26318">
        <ele>1646.2</ele>
        <time>2022-02-12T08:41:57Z</time>
      </trkpt>
      <trkpt lat="42.85887" lon="0.26316">
        <ele>1647.2</ele>
        <time>2022-02-12T08:41:59Z</time>
      </trkpt>
      <trkpt lat="42.85888" lon="0.26314">
        <ele>1648.4</ele>
        <time>2022-02-12T08:42:01Z</time>
      </trkpt>
      <trkpt lat="42.85889" lon="0.26312">
        <ele>1648.6</ele>
        <time>2022-02-12T08:42:03Z</time>
      </trkpt>
      <trkpt lat="42.85891" lon="0.26311">
        <ele>1649.2</ele>
        <time>2022-02-12T08:42:06Z</time>
      </trkpt>
      <trkpt lat="42.85892" lon="0.26311">
        <ele>1649.4</ele>
        <time>2022-02-12T08:42:07Z</time>
      </trkpt>
      <trkpt lat="42.85893" lon="0.26311">
        <ele>1649.8</ele>
        <time>2022-02-12T08:42:08Z</time>
      </trkpt>
      <trkpt lat="42.85895" lon="0.26309">
        <ele>1650.6</ele>
        <time>2022-02-12T08:42:12Z</time>
      </trkpt>
      <trkpt lat="42.85896" lon="0.26307">
        <ele>1651.2</ele>
        <time>2022-02-12T08:42:15Z</time>
      </trkpt>
      <trkpt lat="42.85898" lon="0.26305">
        <ele>1651.6</ele>
        <time>2022-02-12T08:42:17Z</time>
      </trkpt>
      <trkpt lat="42.85901" lon="0.26303">
        <ele>1652</ele>
        <time>2022-02-12T08:42:20Z</time>
      </trkpt>
      <trkpt lat="42.85904" lon="0.26302">
        <ele>1652.8</ele>
        <time>2022-02-12T08:42:23Z</time>
      </trkpt>
      <trkpt lat="42.85905" lon="0.263">
        <ele>1653.6</ele>
        <time>2022-02-12T08:42:26Z</time>
      </trkpt>
      <trkpt lat="42.85905" lon="0.26299">
        <ele>1653.8</ele>
        <time>2022-02-12T08:42:27Z</time>
      </trkpt>
      <trkpt lat="42.85909" lon="0.26296">
        <ele>1654.8</ele>
        <time>2022-02-12T08:42:32Z</time>
      </trkpt>
      <trkpt lat="42.8591" lon="0.26295">
        <ele>1655</ele>
        <time>2022-02-12T08:42:33Z</time>
      </trkpt>
      <trkpt lat="42.85911" lon="0.26294">
        <ele>1655.2</ele>
        <time>2022-02-12T08:42:35Z</time>
      </trkpt>
      <trkpt lat="42.85913" lon="0.26293">
        <ele>1655.4</ele>
        <time>2022-02-12T08:42:37Z</time>
      </trkpt>
      <trkpt lat="42.85914" lon="0.26292">
        <ele>1655.8</ele>
        <time>2022-02-12T08:42:40Z</time>
      </trkpt>
      <trkpt lat="42.85914" lon="0.26292">
        <ele>1656</ele>
        <time>2022-02-12T08:42:42Z</time>
      </trkpt>
      <trkpt lat="42.85914" lon="0.26292">
        <ele>1656.2</ele>
        <time>2022-02-12T08:42:43Z</time>
      </trkpt>
      <trkpt lat="42.85918" lon="0.26293">
        <ele>1656.8</ele>
        <time>2022-02-12T08:42:52Z</time>
      </trkpt>
      <trkpt lat="42.85919" lon="0.26292">
        <ele>1657</ele>
        <time>2022-02-12T08:42:53Z</time>
      </trkpt>
      <trkpt lat="42.85922" lon="0.26289">
        <ele>1657.6</ele>
        <time>2022-02-12T08:42:58Z</time>
      </trkpt>
      <trkpt lat="42.85925" lon="0.26288">
        <ele>1658.2</ele>
        <time>2022-02-12T08:43:01Z</time>
      </trkpt>
      <trkpt lat="42.85926" lon="0.26287">
        <ele>1658.4</ele>
        <time>2022-02-12T08:43:03Z</time>
      </trkpt>
      <trkpt lat="42.85931" lon="0.26287">
        <ele>1658.8</ele>
        <time>2022-02-12T08:43:09Z</time>
      </trkpt>
      <trkpt lat="42.85932" lon="0.26287">
        <ele>1659.2</ele>
        <time>2022-02-12T08:43:11Z</time>
      </trkpt>
      <trkpt lat="42.85935" lon="0.26285">
        <ele>1659.6</ele>
        <time>2022-02-12T08:43:15Z</time>
      </trkpt>
      <trkpt lat="42.85936" lon="0.26283">
        <ele>1660.4</ele>
        <time>2022-02-12T08:43:18Z</time>
      </trkpt>
      <trkpt lat="42.85938" lon="0.26282">
        <ele>1661</ele>
        <time>2022-02-12T08:43:21Z</time>
      </trkpt>
      <trkpt lat="42.85941" lon="0.2628">
        <ele>1661.2</ele>
        <time>2022-02-12T08:43:25Z</time>
      </trkpt>
      <trkpt lat="42.85943" lon="0.2628">
        <ele>1661.2</ele>
        <time>2022-02-12T08:43:28Z</time>
      </trkpt>
      <trkpt lat="42.85944" lon="0.2628">
        <ele>1661.4</ele>
        <time>2022-02-12T08:43:29Z</time>
      </trkpt>
      <trkpt lat="42.85945" lon="0.2628">
        <ele>1661.6</ele>
        <time>2022-02-12T08:43:30Z</time>
      </trkpt>
      <trkpt lat="42.85946" lon="0.2628">
        <ele>1661.6</ele>
        <time>2022-02-12T08:43:32Z</time>
      </trkpt>
      <trkpt lat="42.85947" lon="0.2628">
        <ele>1661.6</ele>
        <time>2022-02-12T08:43:36Z</time>
      </trkpt>
      <trkpt lat="42.8595" lon="0.26279">
        <ele>1662.6</ele>
        <time>2022-02-12T08:43:40Z</time>
      </trkpt>
      <trkpt lat="42.85952" lon="0.26279">
        <ele>1663.2</ele>
        <time>2022-02-12T08:43:44Z</time>
      </trkpt>
      <trkpt lat="42.85954" lon="0.26278">
        <ele>1663.6</ele>
        <time>2022-02-12T08:43:47Z</time>
      </trkpt>
      <trkpt lat="42.85955" lon="0.26277">
        <ele>1663.6</ele>
        <time>2022-02-12T08:43:48Z</time>
      </trkpt>
      <trkpt lat="42.85956" lon="0.26275">
        <ele>1664</ele>
        <time>2022-02-12T08:43:52Z</time>
      </trkpt>
      <trkpt lat="42.85959" lon="0.26274">
        <ele>1664.6</ele>
        <time>2022-02-12T08:43:59Z</time>
      </trkpt>
      <trkpt lat="42.8596" lon="0.26275">
        <ele>1665</ele>
        <time>2022-02-12T08:44:00Z</time>
      </trkpt>
      <trkpt lat="42.85965" lon="0.26275">
        <ele>1665.2</ele>
        <time>2022-02-12T08:44:06Z</time>
      </trkpt>
      <trkpt lat="42.85968" lon="0.26273">
        <ele>1665.8</ele>
        <time>2022-02-12T08:44:13Z</time>
      </trkpt>
      <trkpt lat="42.8597" lon="0.26274">
        <ele>1666.2</ele>
        <time>2022-02-12T08:44:18Z</time>
      </trkpt>
      <trkpt lat="42.85971" lon="0.26274">
        <ele>1666.2</ele>
        <time>2022-02-12T08:44:19Z</time>
      </trkpt>
      <trkpt lat="42.85972" lon="0.26275">
        <ele>1666.6</ele>
        <time>2022-02-12T08:44:23Z</time>
      </trkpt>
      <trkpt lat="42.85973" lon="0.26275">
        <ele>1667</ele>
        <time>2022-02-12T08:44:24Z</time>
      </trkpt>
      <trkpt lat="42.85974" lon="0.26275">
        <ele>1667.4</ele>
        <time>2022-02-12T08:44:26Z</time>
      </trkpt>
      <trkpt lat="42.85975" lon="0.26276">
        <ele>1667.4</ele>
        <time>2022-02-12T08:44:27Z</time>
      </trkpt>
      <trkpt lat="42.85975" lon="0.26276">
        <ele>1668</ele>
        <time>2022-02-12T08:44:28Z</time>
      </trkpt>
      <trkpt lat="42.85979" lon="0.26275">
        <ele>1668.4</ele>
        <time>2022-02-12T08:44:32Z</time>
      </trkpt>
      <trkpt lat="42.8598" lon="0.26274">
        <ele>1669</ele>
        <time>2022-02-12T08:44:35Z</time>
      </trkpt>
      <trkpt lat="42.85982" lon="0.26274">
        <ele>1669.6</ele>
        <time>2022-02-12T08:44:39Z</time>
      </trkpt>
      <trkpt lat="42.85982" lon="0.26273">
        <ele>1670</ele>
        <time>2022-02-12T08:44:41Z</time>
      </trkpt>
      <trkpt lat="42.85984" lon="0.26272">
        <ele>1670.4</ele>
        <time>2022-02-12T08:44:44Z</time>
      </trkpt>
      <trkpt lat="42.85986" lon="0.26271">
        <ele>1670.6</ele>
        <time>2022-02-12T08:44:45Z</time>
      </trkpt>
      <trkpt lat="42.85989" lon="0.26269">
        <ele>1670.8</ele>
        <time>2022-02-12T08:44:48Z</time>
      </trkpt>
      <trkpt lat="42.85989" lon="0.26268">
        <ele>1671.2</ele>
        <time>2022-02-12T08:44:50Z</time>
      </trkpt>
      <trkpt lat="42.8599" lon="0.26268">
        <ele>1671.6</ele>
        <time>2022-02-12T08:44:51Z</time>
      </trkpt>
      <trkpt lat="42.85991" lon="0.26267">
        <ele>1672.4</ele>
        <time>2022-02-12T08:44:53Z</time>
      </trkpt>
      <trkpt lat="42.85992" lon="0.26266">
        <ele>1673.2</ele>
        <time>2022-02-12T08:44:55Z</time>
      </trkpt>
      <trkpt lat="42.85995" lon="0.26265">
        <ele>1673.4</ele>
        <time>2022-02-12T08:44:57Z</time>
      </trkpt>
      <trkpt lat="42.85997" lon="0.26263">
        <ele>1674</ele>
        <time>2022-02-12T08:45:01Z</time>
      </trkpt>
      <trkpt lat="42.85998" lon="0.26263">
        <ele>1674.2</ele>
        <time>2022-02-12T08:45:02Z</time>
      </trkpt>
      <trkpt lat="42.85998" lon="0.26263">
        <ele>1674.4</ele>
        <time>2022-02-12T08:45:04Z</time>
      </trkpt>
      <trkpt lat="42.85999" lon="0.26263">
        <ele>1675</ele>
        <time>2022-02-12T08:45:07Z</time>
      </trkpt>
      <trkpt lat="42.86" lon="0.26261">
        <ele>1675.8</ele>
        <time>2022-02-12T08:45:10Z</time>
      </trkpt>
      <trkpt lat="42.86002" lon="0.26259">
        <ele>1676.2</ele>
        <time>2022-02-12T08:45:13Z</time>
      </trkpt>
      <trkpt lat="42.86006" lon="0.26258">
        <ele>1676.8</ele>
        <time>2022-02-12T08:45:20Z</time>
      </trkpt>
      <trkpt lat="42.86008" lon="0.26257">
        <ele>1677.8</ele>
        <time>2022-02-12T08:45:23Z</time>
      </trkpt>
      <trkpt lat="42.8601" lon="0.26257">
        <ele>1678.2</ele>
        <time>2022-02-12T08:45:25Z</time>
      </trkpt>
      <trkpt lat="42.86011" lon="0.26255">
        <ele>1679</ele>
        <time>2022-02-12T08:45:29Z</time>
      </trkpt>
      <trkpt lat="42.86013" lon="0.26255">
        <ele>1680</ele>
        <time>2022-02-12T08:45:32Z</time>
      </trkpt>
      <trkpt lat="42.86014" lon="0.26254">
        <ele>1680.2</ele>
        <time>2022-02-12T08:45:33Z</time>
      </trkpt>
      <trkpt lat="42.86015" lon="0.26254">
        <ele>1680.2</ele>
        <time>2022-02-12T08:45:38Z</time>
      </trkpt>
      <trkpt lat="42.86015" lon="0.26252">
        <ele>1680.8</ele>
        <time>2022-02-12T08:45:48Z</time>
      </trkpt>
      <trkpt lat="42.86015" lon="0.26253">
        <ele>1680.8</ele>
        <time>2022-02-12T08:45:50Z</time>
      </trkpt>
      <trkpt lat="42.86015" lon="0.26253">
        <ele>1680.8</ele>
        <time>2022-02-12T08:45:55Z</time>
      </trkpt>
      <trkpt lat="42.86016" lon="0.26253">
        <ele>1680.8</ele>
        <time>2022-02-12T08:45:58Z</time>
      </trkpt>
      <trkpt lat="42.86015" lon="0.26252">
        <ele>1680.8</ele>
        <time>2022-02-12T08:46:00Z</time>
      </trkpt>
      <trkpt lat="42.86015" lon="0.26254">
        <ele>1681</ele>
        <time>2022-02-12T08:46:05Z</time>
      </trkpt>
      <trkpt lat="42.86015" lon="0.26254">
        <ele>1680.8</ele>
        <time>2022-02-12T08:46:08Z</time>
      </trkpt>
      <trkpt lat="42.86017" lon="0.26251">
        <ele>1681</ele>
        <time>2022-02-12T08:46:18Z</time>
      </trkpt>
      <trkpt lat="42.86017" lon="0.2625">
        <ele>1681</ele>
        <time>2022-02-12T08:46:22Z</time>
      </trkpt>
      <trkpt lat="42.86017" lon="0.26249">
        <ele>1681</ele>
        <time>2022-02-12T08:46:25Z</time>
      </trkpt>
      <trkpt lat="42.86019" lon="0.26247">
        <ele>1681.2</ele>
        <time>2022-02-12T08:46:28Z</time>
      </trkpt>
      <trkpt lat="42.86021" lon="0.26245">
        <ele>1681.4</ele>
        <time>2022-02-12T08:46:30Z</time>
      </trkpt>
      <trkpt lat="42.86023" lon="0.26243">
        <ele>1681.4</ele>
        <time>2022-02-12T08:46:33Z</time>
      </trkpt>
      <trkpt lat="42.86025" lon="0.26242">
        <ele>1682.2</ele>
        <time>2022-02-12T08:46:36Z</time>
      </trkpt>
      <trkpt lat="42.86026" lon="0.26241">
        <ele>1682.2</ele>
        <time>2022-02-12T08:46:37Z</time>
      </trkpt>
      <trkpt lat="42.86028" lon="0.26238">
        <ele>1683.2</ele>
        <time>2022-02-12T08:46:43Z</time>
      </trkpt>
      <trkpt lat="42.86028" lon="0.26237">
        <ele>1683.4</ele>
        <time>2022-02-12T08:46:44Z</time>
      </trkpt>
      <trkpt lat="42.86029" lon="0.26236">
        <ele>1683.6</ele>
        <time>2022-02-12T08:46:46Z</time>
      </trkpt>
      <trkpt lat="42.86031" lon="0.26234">
        <ele>1683.8</ele>
        <time>2022-02-12T08:46:48Z</time>
      </trkpt>
      <trkpt lat="42.86033" lon="0.26232">
        <ele>1684.4</ele>
        <time>2022-02-12T08:46:51Z</time>
      </trkpt>
      <trkpt lat="42.86033" lon="0.26231">
        <ele>1684.4</ele>
        <time>2022-02-12T08:46:52Z</time>
      </trkpt>
      <trkpt lat="42.86035" lon="0.26229">
        <ele>1685</ele>
        <time>2022-02-12T08:46:54Z</time>
      </trkpt>
      <trkpt lat="42.86037" lon="0.26227">
        <ele>1685.4</ele>
        <time>2022-02-12T08:46:57Z</time>
      </trkpt>
      <trkpt lat="42.86038" lon="0.26225">
        <ele>1686</ele>
        <time>2022-02-12T08:47:01Z</time>
      </trkpt>
      <trkpt lat="42.86043" lon="0.26221">
        <ele>1686.4</ele>
        <time>2022-02-12T08:47:07Z</time>
      </trkpt>
      <trkpt lat="42.86044" lon="0.2622">
        <ele>1686.8</ele>
        <time>2022-02-12T08:47:09Z</time>
      </trkpt>
      <trkpt lat="42.86046" lon="0.26219">
        <ele>1687</ele>
        <time>2022-02-12T08:47:12Z</time>
      </trkpt>
      <trkpt lat="42.86047" lon="0.26218">
        <ele>1687</ele>
        <time>2022-02-12T08:47:13Z</time>
      </trkpt>
      <trkpt lat="42.86048" lon="0.26215">
        <ele>1687.6</ele>
        <time>2022-02-12T08:47:16Z</time>
      </trkpt>
      <trkpt lat="42.86049" lon="0.26215">
        <ele>1687.8</ele>
        <time>2022-02-12T08:47:17Z</time>
      </trkpt>
      <trkpt lat="42.8605" lon="0.26213">
        <ele>1688.6</ele>
        <time>2022-02-12T08:47:20Z</time>
      </trkpt>
      <trkpt lat="42.86051" lon="0.26213">
        <ele>1688.8</ele>
        <time>2022-02-12T08:47:22Z</time>
      </trkpt>
      <trkpt lat="42.86055" lon="0.2621">
        <ele>1689.4</ele>
        <time>2022-02-12T08:47:27Z</time>
      </trkpt>
      <trkpt lat="42.86058" lon="0.26208">
        <ele>1690</ele>
        <time>2022-02-12T08:47:32Z</time>
      </trkpt>
      <trkpt lat="42.8606" lon="0.26207">
        <ele>1690.8</ele>
        <time>2022-02-12T08:47:34Z</time>
      </trkpt>
      <trkpt lat="42.86061" lon="0.26206">
        <ele>1691.2</ele>
        <time>2022-02-12T08:47:36Z</time>
      </trkpt>
      <trkpt lat="42.86063" lon="0.26205">
        <ele>1691.8</ele>
        <time>2022-02-12T08:47:40Z</time>
      </trkpt>
      <trkpt lat="42.86064" lon="0.26204">
        <ele>1692.2</ele>
        <time>2022-02-12T08:47:43Z</time>
      </trkpt>
      <trkpt lat="42.86067" lon="0.26203">
        <ele>1693.2</ele>
        <time>2022-02-12T08:47:46Z</time>
      </trkpt>
      <trkpt lat="42.86068" lon="0.26203">
        <ele>1693.2</ele>
        <time>2022-02-12T08:47:47Z</time>
      </trkpt>
      <trkpt lat="42.86071" lon="0.26204">
        <ele>1693.8</ele>
        <time>2022-02-12T08:47:52Z</time>
      </trkpt>
      <trkpt lat="42.86075" lon="0.26203">
        <ele>1694.4</ele>
        <time>2022-02-12T08:47:56Z</time>
      </trkpt>
      <trkpt lat="42.86077" lon="0.26202">
        <ele>1694.8</ele>
        <time>2022-02-12T08:47:59Z</time>
      </trkpt>
      <trkpt lat="42.86077" lon="0.26201">
        <ele>1695.6</ele>
        <time>2022-02-12T08:48:02Z</time>
      </trkpt>
      <trkpt lat="42.86074" lon="0.26204">
        <ele>1696.2</ele>
        <time>2022-02-12T08:48:06Z</time>
      </trkpt>
      <trkpt lat="42.86077" lon="0.26199">
        <ele>1696.6</ele>
        <time>2022-02-12T08:48:10Z</time>
      </trkpt>
      <trkpt lat="42.86082" lon="0.26197">
        <ele>1697.2</ele>
        <time>2022-02-12T08:48:13Z</time>
      </trkpt>
      <trkpt lat="42.86086" lon="0.26194">
        <ele>1697.6</ele>
        <time>2022-02-12T08:48:17Z</time>
      </trkpt>
      <trkpt lat="42.86087" lon="0.26194">
        <ele>1697.8</ele>
        <time>2022-02-12T08:48:18Z</time>
      </trkpt>
      <trkpt lat="42.8609" lon="0.26192">
        <ele>1699</ele>
        <time>2022-02-12T08:48:21Z</time>
      </trkpt>
      <trkpt lat="42.8609" lon="0.26191">
        <ele>1699.2</ele>
        <time>2022-02-12T08:48:22Z</time>
      </trkpt>
      <trkpt lat="42.86091" lon="0.26191">
        <ele>1699.6</ele>
        <time>2022-02-12T08:48:23Z</time>
      </trkpt>
      <trkpt lat="42.86093" lon="0.2619">
        <ele>1700</ele>
        <time>2022-02-12T08:48:29Z</time>
      </trkpt>
      <trkpt lat="42.86096" lon="0.26189">
        <ele>1701.2</ele>
        <time>2022-02-12T08:48:35Z</time>
      </trkpt>
      <trkpt lat="42.86096" lon="0.26188">
        <ele>1701.4</ele>
        <time>2022-02-12T08:48:36Z</time>
      </trkpt>
      <trkpt lat="42.861" lon="0.26187">
        <ele>1702.2</ele>
        <time>2022-02-12T08:48:41Z</time>
      </trkpt>
      <trkpt lat="42.861" lon="0.26186">
        <ele>1702.2</ele>
        <time>2022-02-12T08:48:42Z</time>
      </trkpt>
      <trkpt lat="42.86103" lon="0.26185">
        <ele>1703.2</ele>
        <time>2022-02-12T08:48:48Z</time>
      </trkpt>
      <trkpt lat="42.86104" lon="0.26184">
        <ele>1703.4</ele>
        <time>2022-02-12T08:48:49Z</time>
      </trkpt>
      <trkpt lat="42.8611" lon="0.26183">
        <ele>1704.4</ele>
        <time>2022-02-12T08:48:55Z</time>
      </trkpt>
      <trkpt lat="42.86114" lon="0.26183">
        <ele>1705.2</ele>
        <time>2022-02-12T08:49:01Z</time>
      </trkpt>
      <trkpt lat="42.86115" lon="0.26183">
        <ele>1705.6</ele>
        <time>2022-02-12T08:49:02Z</time>
      </trkpt>
      <trkpt lat="42.86119" lon="0.26182">
        <ele>1706.4</ele>
        <time>2022-02-12T08:49:08Z</time>
      </trkpt>
      <trkpt lat="42.86119" lon="0.26183">
        <ele>1706.8</ele>
        <time>2022-02-12T08:49:09Z</time>
      </trkpt>
      <trkpt lat="42.86122" lon="0.26182">
        <ele>1707.2</ele>
        <time>2022-02-12T08:49:14Z</time>
      </trkpt>
      <trkpt lat="42.86124" lon="0.26181">
        <ele>1707.8</ele>
        <time>2022-02-12T08:49:17Z</time>
      </trkpt>
      <trkpt lat="42.86126" lon="0.26181">
        <ele>1708.6</ele>
        <time>2022-02-12T08:49:20Z</time>
      </trkpt>
      <trkpt lat="42.86126" lon="0.26181">
        <ele>1708.8</ele>
        <time>2022-02-12T08:49:21Z</time>
      </trkpt>
      <trkpt lat="42.8613" lon="0.26183">
        <ele>1710</ele>
        <time>2022-02-12T08:49:27Z</time>
      </trkpt>
      <trkpt lat="42.86134" lon="0.26184">
        <ele>1711</ele>
        <time>2022-02-12T08:49:33Z</time>
      </trkpt>
      <trkpt lat="42.86134" lon="0.26184">
        <ele>1711.2</ele>
        <time>2022-02-12T08:49:35Z</time>
      </trkpt>
      <trkpt lat="42.86137" lon="0.26182">
        <ele>1711.8</ele>
        <time>2022-02-12T08:49:40Z</time>
      </trkpt>
      <trkpt lat="42.86138" lon="0.26181">
        <ele>1712.2</ele>
        <time>2022-02-12T08:49:42Z</time>
      </trkpt>
      <trkpt lat="42.86141" lon="0.2618">
        <ele>1713.2</ele>
        <time>2022-02-12T08:49:47Z</time>
      </trkpt>
      <trkpt lat="42.86142" lon="0.2618">
        <ele>1713.4</ele>
        <time>2022-02-12T08:49:48Z</time>
      </trkpt>
      <trkpt lat="42.86144" lon="0.2618">
        <ele>1714.4</ele>
        <time>2022-02-12T08:49:52Z</time>
      </trkpt>
      <trkpt lat="42.86144" lon="0.2618">
        <ele>1714.4</ele>
        <time>2022-02-12T08:49:53Z</time>
      </trkpt>
      <trkpt lat="42.8615" lon="0.26177">
        <ele>1715.2</ele>
        <time>2022-02-12T08:49:59Z</time>
      </trkpt>
      <trkpt lat="42.86151" lon="0.26177">
        <ele>1715.8</ele>
        <time>2022-02-12T08:50:01Z</time>
      </trkpt>
      <trkpt lat="42.86153" lon="0.26175">
        <ele>1716.6</ele>
        <time>2022-02-12T08:50:05Z</time>
      </trkpt>
      <trkpt lat="42.86154" lon="0.26175">
        <ele>1716.8</ele>
        <time>2022-02-12T08:50:06Z</time>
      </trkpt>
      <trkpt lat="42.86155" lon="0.2618">
        <ele>1717.2</ele>
        <time>2022-02-12T08:50:11Z</time>
      </trkpt>
      <trkpt lat="42.86158" lon="0.26182">
        <ele>1717.8</ele>
        <time>2022-02-12T08:50:17Z</time>
      </trkpt>
      <trkpt lat="42.86159" lon="0.26182">
        <ele>1717.8</ele>
        <time>2022-02-12T08:50:18Z</time>
      </trkpt>
      <trkpt lat="42.86161" lon="0.2618">
        <ele>1719</ele>
        <time>2022-02-12T08:50:22Z</time>
      </trkpt>
      <trkpt lat="42.86163" lon="0.26179">
        <ele>1720</ele>
        <time>2022-02-12T08:50:25Z</time>
      </trkpt>
      <trkpt lat="42.86164" lon="0.26178">
        <ele>1720</ele>
        <time>2022-02-12T08:50:26Z</time>
      </trkpt>
      <trkpt lat="42.86167" lon="0.26177">
        <ele>1720.6</ele>
        <time>2022-02-12T08:50:30Z</time>
      </trkpt>
      <trkpt lat="42.86173" lon="0.26174">
        <ele>1721.2</ele>
        <time>2022-02-12T08:50:35Z</time>
      </trkpt>
      <trkpt lat="42.86173" lon="0.26173">
        <ele>1721.8</ele>
        <time>2022-02-12T08:50:38Z</time>
      </trkpt>
      <trkpt lat="42.86173" lon="0.26172">
        <ele>1722.2</ele>
        <time>2022-02-12T08:50:40Z</time>
      </trkpt>
      <trkpt lat="42.86175" lon="0.26174">
        <ele>1723.2</ele>
        <time>2022-02-12T08:50:43Z</time>
      </trkpt>
      <trkpt lat="42.86176" lon="0.26175">
        <ele>1723.4</ele>
        <time>2022-02-12T08:50:44Z</time>
      </trkpt>
      <trkpt lat="42.86177" lon="0.26178">
        <ele>1724</ele>
        <time>2022-02-12T08:50:47Z</time>
      </trkpt>
      <trkpt lat="42.86177" lon="0.26181">
        <ele>1724.6</ele>
        <time>2022-02-12T08:50:53Z</time>
      </trkpt>
      <trkpt lat="42.86178" lon="0.26182">
        <ele>1725.8</ele>
        <time>2022-02-12T08:50:58Z</time>
      </trkpt>
      <trkpt lat="42.86183" lon="0.2618">
        <ele>1726.8</ele>
        <time>2022-02-12T08:51:02Z</time>
      </trkpt>
      <trkpt lat="42.86184" lon="0.26179">
        <ele>1727.2</ele>
        <time>2022-02-12T08:51:04Z</time>
      </trkpt>
      <trkpt lat="42.86186" lon="0.26178">
        <ele>1728</ele>
        <time>2022-02-12T08:51:06Z</time>
      </trkpt>
      <trkpt lat="42.86187" lon="0.26175">
        <ele>1728.4</ele>
        <time>2022-02-12T08:51:09Z</time>
      </trkpt>
      <trkpt lat="42.86188" lon="0.26171">
        <ele>1729</ele>
        <time>2022-02-12T08:51:15Z</time>
      </trkpt>
      <trkpt lat="42.86189" lon="0.2617">
        <ele>1729.4</ele>
        <time>2022-02-12T08:51:17Z</time>
      </trkpt>
      <trkpt lat="42.86191" lon="0.26171">
        <ele>1729.6</ele>
        <time>2022-02-12T08:51:21Z</time>
      </trkpt>
      <trkpt lat="42.86192" lon="0.26173">
        <ele>1729.8</ele>
        <time>2022-02-12T08:51:26Z</time>
      </trkpt>
      <trkpt lat="42.86195" lon="0.26174">
        <ele>1730</ele>
        <time>2022-02-12T08:51:29Z</time>
      </trkpt>
      <trkpt lat="42.86199" lon="0.26173">
        <ele>1731.2</ele>
        <time>2022-02-12T08:51:34Z</time>
      </trkpt>
      <trkpt lat="42.862" lon="0.26172">
        <ele>1731.4</ele>
        <time>2022-02-12T08:51:36Z</time>
      </trkpt>
      <trkpt lat="42.86201" lon="0.26172">
        <ele>1732.8</ele>
        <time>2022-02-12T08:51:40Z</time>
      </trkpt>
      <trkpt lat="42.86202" lon="0.26171">
        <ele>1733.4</ele>
        <time>2022-02-12T08:51:42Z</time>
      </trkpt>
      <trkpt lat="42.86205" lon="0.26169">
        <ele>1733.6</ele>
        <time>2022-02-12T08:51:47Z</time>
      </trkpt>
      <trkpt lat="42.86206" lon="0.26169">
        <ele>1734</ele>
        <time>2022-02-12T08:51:48Z</time>
      </trkpt>
      <trkpt lat="42.86208" lon="0.26168">
        <ele>1734.2</ele>
        <time>2022-02-12T08:51:52Z</time>
      </trkpt>
      <trkpt lat="42.86209" lon="0.26167">
        <ele>1734.4</ele>
        <time>2022-02-12T08:51:55Z</time>
      </trkpt>
      <trkpt lat="42.8621" lon="0.26167">
        <ele>1734.2</ele>
        <time>2022-02-12T08:51:57Z</time>
      </trkpt>
      <trkpt lat="42.8621" lon="0.26165">
        <ele>1734.2</ele>
        <time>2022-02-12T08:52:00Z</time>
      </trkpt>
      <trkpt lat="42.86215" lon="0.26161">
        <ele>1733.6</ele>
        <time>2022-02-12T08:52:08Z</time>
      </trkpt>
      <trkpt lat="42.86217" lon="0.2616">
        <ele>1733.2</ele>
        <time>2022-02-12T08:52:13Z</time>
      </trkpt>
      <trkpt lat="42.86217" lon="0.26156">
        <ele>1732.8</ele>
        <time>2022-02-12T08:52:17Z</time>
      </trkpt>
      <trkpt lat="42.86218" lon="0.26154">
        <ele>1732.6</ele>
        <time>2022-02-12T08:52:19Z</time>
      </trkpt>
      <trkpt lat="42.8622" lon="0.26151">
        <ele>1732.4</ele>
        <time>2022-02-12T08:52:23Z</time>
      </trkpt>
      <trkpt lat="42.86222" lon="0.2615">
        <ele>1732.6</ele>
        <time>2022-02-12T08:52:25Z</time>
      </trkpt>
      <trkpt lat="42.86222" lon="0.26146">
        <ele>1733.8</ele>
        <time>2022-02-12T08:52:31Z</time>
      </trkpt>
      <trkpt lat="42.86221" lon="0.26146">
        <ele>1733.8</ele>
        <time>2022-02-12T08:52:33Z</time>
      </trkpt>
      <trkpt lat="42.86221" lon="0.26145">
        <ele>1734</ele>
        <time>2022-02-12T08:52:34Z</time>
      </trkpt>
      <trkpt lat="42.8622" lon="0.26145">
        <ele>1734</ele>
        <time>2022-02-12T08:52:37Z</time>
      </trkpt>
      <trkpt lat="42.86215" lon="0.26145">
        <ele>1734.6</ele>
        <time>2022-02-12T08:52:44Z</time>
      </trkpt>
      <trkpt lat="42.8621" lon="0.26144">
        <ele>1733.8</ele>
        <time>2022-02-12T08:52:49Z</time>
      </trkpt>
      <trkpt lat="42.86207" lon="0.26143">
        <ele>1733.6</ele>
        <time>2022-02-12T08:52:51Z</time>
      </trkpt>
      <trkpt lat="42.86207" lon="0.2614">
        <ele>1733.6</ele>
        <time>2022-02-12T08:52:54Z</time>
      </trkpt>
      <trkpt lat="42.86207" lon="0.26138">
        <ele>1733.6</ele>
        <time>2022-02-12T08:52:55Z</time>
      </trkpt>
      <trkpt lat="42.86209" lon="0.26136">
        <ele>1733.6</ele>
        <time>2022-02-12T08:52:57Z</time>
      </trkpt>
      <trkpt lat="42.8621" lon="0.26135">
        <ele>1734</ele>
        <time>2022-02-12T08:52:59Z</time>
      </trkpt>
      <trkpt lat="42.86213" lon="0.26133">
        <ele>1734.4</ele>
        <time>2022-02-12T08:53:03Z</time>
      </trkpt>
      <trkpt lat="42.86214" lon="0.26132">
        <ele>1734.6</ele>
        <time>2022-02-12T08:53:04Z</time>
      </trkpt>
      <trkpt lat="42.86214" lon="0.26132">
        <ele>1734.6</ele>
        <time>2022-02-12T08:53:05Z</time>
      </trkpt>
      <trkpt lat="42.86215" lon="0.2613">
        <ele>1735</ele>
        <time>2022-02-12T08:53:07Z</time>
      </trkpt>
      <trkpt lat="42.86216" lon="0.2613">
        <ele>1735.4</ele>
        <time>2022-02-12T08:53:08Z</time>
      </trkpt>
      <trkpt lat="42.86218" lon="0.26129">
        <ele>1736.2</ele>
        <time>2022-02-12T08:53:11Z</time>
      </trkpt>
      <trkpt lat="42.86219" lon="0.26129">
        <ele>1736.4</ele>
        <time>2022-02-12T08:53:12Z</time>
      </trkpt>
      <trkpt lat="42.86228" lon="0.26127">
        <ele>1737.2</ele>
        <time>2022-02-12T08:53:18Z</time>
      </trkpt>
      <trkpt lat="42.8623" lon="0.26128">
        <ele>1737.4</ele>
        <time>2022-02-12T08:53:19Z</time>
      </trkpt>
      <trkpt lat="42.86229" lon="0.26131">
        <ele>1738.4</ele>
        <time>2022-02-12T08:53:26Z</time>
      </trkpt>
      <trkpt lat="42.86232" lon="0.26132">
        <ele>1739.2</ele>
        <time>2022-02-12T08:53:30Z</time>
      </trkpt>
      <trkpt lat="42.86233" lon="0.26132">
        <ele>1739.4</ele>
        <time>2022-02-12T08:53:32Z</time>
      </trkpt>
      <trkpt lat="42.86235" lon="0.26133">
        <ele>1740.2</ele>
        <time>2022-02-12T08:53:37Z</time>
      </trkpt>
      <trkpt lat="42.86235" lon="0.26133">
        <ele>1740.6</ele>
        <time>2022-02-12T08:53:39Z</time>
      </trkpt>
      <trkpt lat="42.86236" lon="0.26132">
        <ele>1741.2</ele>
        <time>2022-02-12T08:53:46Z</time>
      </trkpt>
      <trkpt lat="42.86244" lon="0.26132">
        <ele>1741</ele>
        <time>2022-02-12T08:53:52Z</time>
      </trkpt>
      <trkpt lat="42.86244" lon="0.26133">
        <ele>1741.8</ele>
        <time>2022-02-12T08:53:56Z</time>
      </trkpt>
      <trkpt lat="42.86244" lon="0.26133">
        <ele>1742.4</ele>
        <time>2022-02-12T08:53:59Z</time>
      </trkpt>
      <trkpt lat="42.86245" lon="0.26133">
        <ele>1742.8</ele>
        <time>2022-02-12T08:54:04Z</time>
      </trkpt>
      <trkpt lat="42.86246" lon="0.26133">
        <ele>1743</ele>
        <time>2022-02-12T08:54:05Z</time>
      </trkpt>
      <trkpt lat="42.86249" lon="0.26136">
        <ele>1743.8</ele>
        <time>2022-02-12T08:54:11Z</time>
      </trkpt>
      <trkpt lat="42.86251" lon="0.26137">
        <ele>1744.2</ele>
        <time>2022-02-12T08:54:13Z</time>
      </trkpt>
      <trkpt lat="42.86254" lon="0.26139">
        <ele>1745</ele>
        <time>2022-02-12T08:54:19Z</time>
      </trkpt>
      <trkpt lat="42.86256" lon="0.2614">
        <ele>1746</ele>
        <time>2022-02-12T08:54:24Z</time>
      </trkpt>
      <trkpt lat="42.86256" lon="0.2614">
        <ele>1746.4</ele>
        <time>2022-02-12T08:54:26Z</time>
      </trkpt>
      <trkpt lat="42.86258" lon="0.26141">
        <ele>1747.2</ele>
        <time>2022-02-12T08:54:30Z</time>
      </trkpt>
      <trkpt lat="42.86261" lon="0.26141">
        <ele>1747.8</ele>
        <time>2022-02-12T08:54:36Z</time>
      </trkpt>
      <trkpt lat="42.86262" lon="0.26142">
        <ele>1748.2</ele>
        <time>2022-02-12T08:54:37Z</time>
      </trkpt>
      <trkpt lat="42.86264" lon="0.26146">
        <ele>1749.2</ele>
        <time>2022-02-12T08:54:42Z</time>
      </trkpt>
      <trkpt lat="42.86265" lon="0.26146">
        <ele>1749.4</ele>
        <time>2022-02-12T08:54:43Z</time>
      </trkpt>
      <trkpt lat="42.86267" lon="0.26147">
        <ele>1750.4</ele>
        <time>2022-02-12T08:54:48Z</time>
      </trkpt>
      <trkpt lat="42.86267" lon="0.26146">
        <ele>1750.4</ele>
        <time>2022-02-12T08:54:49Z</time>
      </trkpt>
      <trkpt lat="42.8627" lon="0.26142">
        <ele>1751.6</ele>
        <time>2022-02-12T08:54:55Z</time>
      </trkpt>
      <trkpt lat="42.86271" lon="0.26142">
        <ele>1751.6</ele>
        <time>2022-02-12T08:54:56Z</time>
      </trkpt>
      <trkpt lat="42.86273" lon="0.26139">
        <ele>1752.8</ele>
        <time>2022-02-12T08:55:01Z</time>
      </trkpt>
      <trkpt lat="42.86274" lon="0.26137">
        <ele>1753.2</ele>
        <time>2022-02-12T08:55:04Z</time>
      </trkpt>
      <trkpt lat="42.86274" lon="0.26137">
        <ele>1754</ele>
        <time>2022-02-12T08:55:07Z</time>
      </trkpt>
      <trkpt lat="42.86276" lon="0.26135">
        <ele>1754.4</ele>
        <time>2022-02-12T08:55:11Z</time>
      </trkpt>
      <trkpt lat="42.86279" lon="0.26134">
        <ele>1755.2</ele>
        <time>2022-02-12T08:55:17Z</time>
      </trkpt>
      <trkpt lat="42.86279" lon="0.26133">
        <ele>1755.4</ele>
        <time>2022-02-12T08:55:18Z</time>
      </trkpt>
      <trkpt lat="42.86283" lon="0.2613">
        <ele>1756.2</ele>
        <time>2022-02-12T08:55:23Z</time>
      </trkpt>
      <trkpt lat="42.86284" lon="0.26133">
        <ele>1757.2</ele>
        <time>2022-02-12T08:55:31Z</time>
      </trkpt>
      <trkpt lat="42.86285" lon="0.26134">
        <ele>1757.4</ele>
        <time>2022-02-12T08:55:32Z</time>
      </trkpt>
      <trkpt lat="42.86286" lon="0.26135">
        <ele>1758</ele>
        <time>2022-02-12T08:55:36Z</time>
      </trkpt>
      <trkpt lat="42.86287" lon="0.26136">
        <ele>1758.6</ele>
        <time>2022-02-12T08:55:39Z</time>
      </trkpt>
      <trkpt lat="42.86288" lon="0.26138">
        <ele>1759.2</ele>
        <time>2022-02-12T08:55:42Z</time>
      </trkpt>
      <trkpt lat="42.86289" lon="0.2614">
        <ele>1759.8</ele>
        <time>2022-02-12T08:55:45Z</time>
      </trkpt>
      <trkpt lat="42.8629" lon="0.2614">
        <ele>1760.4</ele>
        <time>2022-02-12T08:55:47Z</time>
      </trkpt>
      <trkpt lat="42.86291" lon="0.2614">
        <ele>1761</ele>
        <time>2022-02-12T08:55:49Z</time>
      </trkpt>
      <trkpt lat="42.86292" lon="0.2614">
        <ele>1761.8</ele>
        <time>2022-02-12T08:55:53Z</time>
      </trkpt>
      <trkpt lat="42.86293" lon="0.26139">
        <ele>1762.2</ele>
        <time>2022-02-12T08:55:55Z</time>
      </trkpt>
      <trkpt lat="42.86293" lon="0.26138">
        <ele>1762.6</ele>
        <time>2022-02-12T08:55:59Z</time>
      </trkpt>
      <trkpt lat="42.86295" lon="0.26135">
        <ele>1763.2</ele>
        <time>2022-02-12T08:56:02Z</time>
      </trkpt>
      <trkpt lat="42.86297" lon="0.26131">
        <ele>1763.8</ele>
        <time>2022-02-12T08:56:06Z</time>
      </trkpt>
      <trkpt lat="42.86299" lon="0.26127">
        <ele>1764.4</ele>
        <time>2022-02-12T08:56:10Z</time>
      </trkpt>
      <trkpt lat="42.863" lon="0.26125">
        <ele>1764.6</ele>
        <time>2022-02-12T08:56:12Z</time>
      </trkpt>
      <trkpt lat="42.86301" lon="0.26123">
        <ele>1765</ele>
        <time>2022-02-12T08:56:17Z</time>
      </trkpt>
      <trkpt lat="42.86302" lon="0.26122">
        <ele>1765.6</ele>
        <time>2022-02-12T08:56:21Z</time>
      </trkpt>
      <trkpt lat="42.86303" lon="0.26119">
        <ele>1766.2</ele>
        <time>2022-02-12T08:56:25Z</time>
      </trkpt>
      <trkpt lat="42.86304" lon="0.26119">
        <ele>1766.6</ele>
        <time>2022-02-12T08:56:27Z</time>
      </trkpt>
      <trkpt lat="42.86309" lon="0.26115">
        <ele>1767.6</ele>
        <time>2022-02-12T08:56:31Z</time>
      </trkpt>
      <trkpt lat="42.86311" lon="0.26113">
        <ele>1768.2</ele>
        <time>2022-02-12T08:56:33Z</time>
      </trkpt>
      <trkpt lat="42.86311" lon="0.26112">
        <ele>1768.8</ele>
        <time>2022-02-12T08:56:36Z</time>
      </trkpt>
      <trkpt lat="42.86312" lon="0.26113">
        <ele>1769</ele>
        <time>2022-02-12T08:56:41Z</time>
      </trkpt>
      <trkpt lat="42.86314" lon="0.26119">
        <ele>1769.8</ele>
        <time>2022-02-12T08:56:48Z</time>
      </trkpt>
      <trkpt lat="42.86315" lon="0.2612">
        <ele>1770.6</ele>
        <time>2022-02-12T08:56:51Z</time>
      </trkpt>
      <trkpt lat="42.86315" lon="0.26122">
        <ele>1770.8</ele>
        <time>2022-02-12T08:56:54Z</time>
      </trkpt>
      <trkpt lat="42.86316" lon="0.26123">
        <ele>1771.4</ele>
        <time>2022-02-12T08:56:57Z</time>
      </trkpt>
      <trkpt lat="42.86316" lon="0.26125">
        <ele>1772</ele>
        <time>2022-02-12T08:56:59Z</time>
      </trkpt>
      <trkpt lat="42.86316" lon="0.26125">
        <ele>1772.6</ele>
        <time>2022-02-12T08:57:04Z</time>
      </trkpt>
      <trkpt lat="42.86316" lon="0.26129">
        <ele>1773</ele>
        <time>2022-02-12T08:57:07Z</time>
      </trkpt>
      <trkpt lat="42.86317" lon="0.26132">
        <ele>1773.6</ele>
        <time>2022-02-12T08:57:10Z</time>
      </trkpt>
      <trkpt lat="42.86317" lon="0.26134">
        <ele>1774</ele>
        <time>2022-02-12T08:57:12Z</time>
      </trkpt>
      <trkpt lat="42.86318" lon="0.26137">
        <ele>1774.8</ele>
        <time>2022-02-12T08:57:17Z</time>
      </trkpt>
      <trkpt lat="42.86319" lon="0.26138">
        <ele>1775.2</ele>
        <time>2022-02-12T08:57:19Z</time>
      </trkpt>
      <trkpt lat="42.8632" lon="0.26139">
        <ele>1776</ele>
        <time>2022-02-12T08:57:24Z</time>
      </trkpt>
      <trkpt lat="42.8632" lon="0.26139">
        <ele>1776.2</ele>
        <time>2022-02-12T08:57:26Z</time>
      </trkpt>
      <trkpt lat="42.86323" lon="0.26137">
        <ele>1777.2</ele>
        <time>2022-02-12T08:57:31Z</time>
      </trkpt>
      <trkpt lat="42.86323" lon="0.26136">
        <ele>1777.6</ele>
        <time>2022-02-12T08:57:32Z</time>
      </trkpt>
      <trkpt lat="42.86324" lon="0.26135">
        <ele>1778.2</ele>
        <time>2022-02-12T08:57:36Z</time>
      </trkpt>
      <trkpt lat="42.86326" lon="0.26133">
        <ele>1778.6</ele>
        <time>2022-02-12T08:57:39Z</time>
      </trkpt>
      <trkpt lat="42.86326" lon="0.26132">
        <ele>1779</ele>
        <time>2022-02-12T08:57:41Z</time>
      </trkpt>
      <trkpt lat="42.86328" lon="0.26131">
        <ele>1779.6</ele>
        <time>2022-02-12T08:57:44Z</time>
      </trkpt>
      <trkpt lat="42.86329" lon="0.26131">
        <ele>1779.8</ele>
        <time>2022-02-12T08:57:46Z</time>
      </trkpt>
      <trkpt lat="42.86331" lon="0.2613">
        <ele>1780.6</ele>
        <time>2022-02-12T08:57:53Z</time>
      </trkpt>
      <trkpt lat="42.86331" lon="0.26129">
        <ele>1781</ele>
        <time>2022-02-12T08:57:54Z</time>
      </trkpt>
      <trkpt lat="42.86333" lon="0.26128">
        <ele>1781.8</ele>
        <time>2022-02-12T08:57:58Z</time>
      </trkpt>
      <trkpt lat="42.86333" lon="0.26127">
        <ele>1782</ele>
        <time>2022-02-12T08:57:59Z</time>
      </trkpt>
      <trkpt lat="42.86334" lon="0.26123">
        <ele>1783</ele>
        <time>2022-02-12T08:58:04Z</time>
      </trkpt>
      <trkpt lat="42.86334" lon="0.26122">
        <ele>1783</ele>
        <time>2022-02-12T08:58:05Z</time>
      </trkpt>
      <trkpt lat="42.86336" lon="0.26119">
        <ele>1783.8</ele>
        <time>2022-02-12T08:58:10Z</time>
      </trkpt>
      <trkpt lat="42.86336" lon="0.26117">
        <ele>1784.2</ele>
        <time>2022-02-12T08:58:13Z</time>
      </trkpt>
      <trkpt lat="42.86337" lon="0.26114">
        <ele>1784.4</ele>
        <time>2022-02-12T08:58:17Z</time>
      </trkpt>
      <trkpt lat="42.86338" lon="0.2611">
        <ele>1785.4</ele>
        <time>2022-02-12T08:58:22Z</time>
      </trkpt>
      <trkpt lat="42.86339" lon="0.26109">
        <ele>1786</ele>
        <time>2022-02-12T08:58:27Z</time>
      </trkpt>
      <trkpt lat="42.86339" lon="0.26108">
        <ele>1786.4</ele>
        <time>2022-02-12T08:58:28Z</time>
      </trkpt>
      <trkpt lat="42.86341" lon="0.26106">
        <ele>1787</ele>
        <time>2022-02-12T08:58:32Z</time>
      </trkpt>
      <trkpt lat="42.86341" lon="0.26103">
        <ele>1787.4</ele>
        <time>2022-02-12T08:58:35Z</time>
      </trkpt>
      <trkpt lat="42.86342" lon="0.26102">
        <ele>1787.6</ele>
        <time>2022-02-12T08:58:37Z</time>
      </trkpt>
      <trkpt lat="42.86343" lon="0.261">
        <ele>1788.6</ele>
        <time>2022-02-12T08:58:41Z</time>
      </trkpt>
      <trkpt lat="42.86343" lon="0.261">
        <ele>1788.6</ele>
        <time>2022-02-12T08:58:42Z</time>
      </trkpt>
      <trkpt lat="42.86344" lon="0.26099">
        <ele>1789</ele>
        <time>2022-02-12T08:58:46Z</time>
      </trkpt>
      <trkpt lat="42.86345" lon="0.26098">
        <ele>1789.6</ele>
        <time>2022-02-12T08:58:49Z</time>
      </trkpt>
      <trkpt lat="42.86346" lon="0.26099">
        <ele>1790</ele>
        <time>2022-02-12T08:58:50Z</time>
      </trkpt>
      <trkpt lat="42.86346" lon="0.26101">
        <ele>1790.6</ele>
        <time>2022-02-12T08:58:57Z</time>
      </trkpt>
      <trkpt lat="42.86346" lon="0.26101">
        <ele>1790.8</ele>
        <time>2022-02-12T08:58:58Z</time>
      </trkpt>
      <trkpt lat="42.86347" lon="0.261">
        <ele>1791.6</ele>
        <time>2022-02-12T08:59:01Z</time>
      </trkpt>
      <trkpt lat="42.86347" lon="0.26098">
        <ele>1791.8</ele>
        <time>2022-02-12T08:59:08Z</time>
      </trkpt>
      <trkpt lat="42.86348" lon="0.261">
        <ele>1792.4</ele>
        <time>2022-02-12T08:59:14Z</time>
      </trkpt>
      <trkpt lat="42.86348" lon="0.26101">
        <ele>1792.8</ele>
        <time>2022-02-12T08:59:15Z</time>
      </trkpt>
      <trkpt lat="42.86349" lon="0.26106">
        <ele>1793.6</ele>
        <time>2022-02-12T08:59:22Z</time>
      </trkpt>
      <trkpt lat="42.8635" lon="0.26108">
        <ele>1793.8</ele>
        <time>2022-02-12T08:59:24Z</time>
      </trkpt>
      <trkpt lat="42.86352" lon="0.2611">
        <ele>1794.6</ele>
        <time>2022-02-12T08:59:28Z</time>
      </trkpt>
      <trkpt lat="42.86353" lon="0.26111">
        <ele>1794.8</ele>
        <time>2022-02-12T08:59:30Z</time>
      </trkpt>
      <trkpt lat="42.86354" lon="0.26112">
        <ele>1795.6</ele>
        <time>2022-02-12T08:59:34Z</time>
      </trkpt>
      <trkpt lat="42.86354" lon="0.26113">
        <ele>1796</ele>
        <time>2022-02-12T08:59:36Z</time>
      </trkpt>
      <trkpt lat="42.86357" lon="0.26115">
        <ele>1797</ele>
        <time>2022-02-12T08:59:42Z</time>
      </trkpt>
      <trkpt lat="42.86359" lon="0.26118">
        <ele>1798</ele>
        <time>2022-02-12T08:59:47Z</time>
      </trkpt>
      <trkpt lat="42.86359" lon="0.2612">
        <ele>1798.4</ele>
        <time>2022-02-12T08:59:49Z</time>
      </trkpt>
      <trkpt lat="42.86362" lon="0.26123">
        <ele>1798.8</ele>
        <time>2022-02-12T08:59:55Z</time>
      </trkpt>
      <trkpt lat="42.86362" lon="0.26124">
        <ele>1799.2</ele>
        <time>2022-02-12T08:59:56Z</time>
      </trkpt>
      <trkpt lat="42.86364" lon="0.26129">
        <ele>1800.2</ele>
        <time>2022-02-12T09:00:02Z</time>
      </trkpt>
      <trkpt lat="42.86365" lon="0.2613">
        <ele>1800.6</ele>
        <time>2022-02-12T09:00:04Z</time>
      </trkpt>
      <trkpt lat="42.86367" lon="0.26132">
        <ele>1801.2</ele>
        <time>2022-02-12T09:00:08Z</time>
      </trkpt>
      <trkpt lat="42.86368" lon="0.26133">
        <ele>1801.6</ele>
        <time>2022-02-12T09:00:10Z</time>
      </trkpt>
      <trkpt lat="42.86369" lon="0.26134">
        <ele>1802.2</ele>
        <time>2022-02-12T09:00:13Z</time>
      </trkpt>
      <trkpt lat="42.86372" lon="0.26135">
        <ele>1803.6</ele>
        <time>2022-02-12T09:00:17Z</time>
      </trkpt>
      <trkpt lat="42.86373" lon="0.26137">
        <ele>1804.8</ele>
        <time>2022-02-12T09:00:20Z</time>
      </trkpt>
      <trkpt lat="42.86374" lon="0.26137">
        <ele>1805.4</ele>
        <time>2022-02-12T09:00:22Z</time>
      </trkpt>
      <trkpt lat="42.86375" lon="0.26137">
        <ele>1806.2</ele>
        <time>2022-02-12T09:00:25Z</time>
      </trkpt>
      <trkpt lat="42.86376" lon="0.26136">
        <ele>1806.6</ele>
        <time>2022-02-12T09:00:28Z</time>
      </trkpt>
      <trkpt lat="42.8638" lon="0.26131">
        <ele>1807.4</ele>
        <time>2022-02-12T09:00:34Z</time>
      </trkpt>
      <trkpt lat="42.86381" lon="0.26131">
        <ele>1807.6</ele>
        <time>2022-02-12T09:00:35Z</time>
      </trkpt>
      <trkpt lat="42.86381" lon="0.26129">
        <ele>1808.2</ele>
        <time>2022-02-12T09:00:39Z</time>
      </trkpt>
      <trkpt lat="42.86381" lon="0.26127">
        <ele>1808.4</ele>
        <time>2022-02-12T09:00:41Z</time>
      </trkpt>
      <trkpt lat="42.86381" lon="0.26126">
        <ele>1808.8</ele>
        <time>2022-02-12T09:00:43Z</time>
      </trkpt>
      <trkpt lat="42.86382" lon="0.26124">
        <ele>1809.6</ele>
        <time>2022-02-12T09:00:46Z</time>
      </trkpt>
      <trkpt lat="42.86382" lon="0.26124">
        <ele>1810</ele>
        <time>2022-02-12T09:00:47Z</time>
      </trkpt>
      <trkpt lat="42.86381" lon="0.26122">
        <ele>1810.6</ele>
        <time>2022-02-12T09:00:50Z</time>
      </trkpt>
      <trkpt lat="42.86381" lon="0.26122">
        <ele>1810.8</ele>
        <time>2022-02-12T09:00:51Z</time>
      </trkpt>
      <trkpt lat="42.8638" lon="0.26118">
        <ele>1811.6</ele>
        <time>2022-02-12T09:00:56Z</time>
      </trkpt>
      <trkpt lat="42.8638" lon="0.26118">
        <ele>1811.6</ele>
        <time>2022-02-12T09:00:57Z</time>
      </trkpt>
      <trkpt lat="42.86381" lon="0.26115">
        <ele>1812.2</ele>
        <time>2022-02-12T09:01:01Z</time>
      </trkpt>
      <trkpt lat="42.86382" lon="0.26112">
        <ele>1812.8</ele>
        <time>2022-02-12T09:01:04Z</time>
      </trkpt>
      <trkpt lat="42.86383" lon="0.2611">
        <ele>1813.4</ele>
        <time>2022-02-12T09:01:06Z</time>
      </trkpt>
      <trkpt lat="42.86386" lon="0.26109">
        <ele>1814</ele>
        <time>2022-02-12T09:01:10Z</time>
      </trkpt>
      <trkpt lat="42.86387" lon="0.26108">
        <ele>1814.2</ele>
        <time>2022-02-12T09:01:11Z</time>
      </trkpt>
      <trkpt lat="42.86389" lon="0.2611">
        <ele>1815</ele>
        <time>2022-02-12T09:01:17Z</time>
      </trkpt>
      <trkpt lat="42.8639" lon="0.2611">
        <ele>1815.6</ele>
        <time>2022-02-12T09:01:19Z</time>
      </trkpt>
      <trkpt lat="42.86391" lon="0.2611">
        <ele>1816.2</ele>
        <time>2022-02-12T09:01:25Z</time>
      </trkpt>
      <trkpt lat="42.86392" lon="0.26111">
        <ele>1816.6</ele>
        <time>2022-02-12T09:01:28Z</time>
      </trkpt>
      <trkpt lat="42.86394" lon="0.26112">
        <ele>1817.2</ele>
        <time>2022-02-12T09:01:31Z</time>
      </trkpt>
      <trkpt lat="42.86395" lon="0.26112">
        <ele>1818.2</ele>
        <time>2022-02-12T09:01:36Z</time>
      </trkpt>
      <trkpt lat="42.86396" lon="0.26112">
        <ele>1818.4</ele>
        <time>2022-02-12T09:01:37Z</time>
      </trkpt>
      <trkpt lat="42.864" lon="0.26117">
        <ele>1819.4</ele>
        <time>2022-02-12T09:01:44Z</time>
      </trkpt>
      <trkpt lat="42.86401" lon="0.26117">
        <ele>1819.4</ele>
        <time>2022-02-12T09:01:45Z</time>
      </trkpt>
      <trkpt lat="42.86402" lon="0.26119">
        <ele>1820.4</ele>
        <time>2022-02-12T09:01:50Z</time>
      </trkpt>
      <trkpt lat="42.86402" lon="0.2612">
        <ele>1820.6</ele>
        <time>2022-02-12T09:01:52Z</time>
      </trkpt>
      <trkpt lat="42.86404" lon="0.26122">
        <ele>1821.4</ele>
        <time>2022-02-12T09:01:57Z</time>
      </trkpt>
      <trkpt lat="42.86405" lon="0.26123">
        <ele>1821.8</ele>
        <time>2022-02-12T09:02:00Z</time>
      </trkpt>
      <trkpt lat="42.86406" lon="0.26126">
        <ele>1822.6</ele>
        <time>2022-02-12T09:02:03Z</time>
      </trkpt>
      <trkpt lat="42.86409" lon="0.26128">
        <ele>1823.2</ele>
        <time>2022-02-12T09:02:07Z</time>
      </trkpt>
      <trkpt lat="42.86409" lon="0.26128">
        <ele>1823.6</ele>
        <time>2022-02-12T09:02:09Z</time>
      </trkpt>
      <trkpt lat="42.86408" lon="0.26127">
        <ele>1824.2</ele>
        <time>2022-02-12T09:02:15Z</time>
      </trkpt>
      <trkpt lat="42.86408" lon="0.2613">
        <ele>1824.4</ele>
        <time>2022-02-12T09:02:20Z</time>
      </trkpt>
      <trkpt lat="42.86409" lon="0.26133">
        <ele>1824.6</ele>
        <time>2022-02-12T09:02:23Z</time>
      </trkpt>
      <trkpt lat="42.86411" lon="0.26136">
        <ele>1825.6</ele>
        <time>2022-02-12T09:02:26Z</time>
      </trkpt>
      <trkpt lat="42.86412" lon="0.26137">
        <ele>1825.8</ele>
        <time>2022-02-12T09:02:27Z</time>
      </trkpt>
      <trkpt lat="42.86414" lon="0.26139">
        <ele>1826.4</ele>
        <time>2022-02-12T09:02:34Z</time>
      </trkpt>
      <trkpt lat="42.86415" lon="0.26139">
        <ele>1826.8</ele>
        <time>2022-02-12T09:02:35Z</time>
      </trkpt>
      <trkpt lat="42.86415" lon="0.26138">
        <ele>1827.8</ele>
        <time>2022-02-12T09:02:38Z</time>
      </trkpt>
      <trkpt lat="42.86415" lon="0.26138">
        <ele>1828.2</ele>
        <time>2022-02-12T09:02:39Z</time>
      </trkpt>
      <trkpt lat="42.86415" lon="0.26137">
        <ele>1828.8</ele>
        <time>2022-02-12T09:02:44Z</time>
      </trkpt>
      <trkpt lat="42.86416" lon="0.26137">
        <ele>1829.2</ele>
        <time>2022-02-12T09:02:45Z</time>
      </trkpt>
      <trkpt lat="42.86416" lon="0.26138">
        <ele>1829.8</ele>
        <time>2022-02-12T09:02:51Z</time>
      </trkpt>
      <trkpt lat="42.86417" lon="0.26138">
        <ele>1829.8</ele>
        <time>2022-02-12T09:03:00Z</time>
      </trkpt>
      <trkpt lat="42.86417" lon="0.26137">
        <ele>1829.6</ele>
        <time>2022-02-12T09:03:09Z</time>
      </trkpt>
      <trkpt lat="42.86417" lon="0.26138">
        <ele>1829.6</ele>
        <time>2022-02-12T09:03:11Z</time>
      </trkpt>
      <trkpt lat="42.86418" lon="0.26136">
        <ele>1829.6</ele>
        <time>2022-02-12T09:03:16Z</time>
      </trkpt>
      <trkpt lat="42.86417" lon="0.26135">
        <ele>1829.4</ele>
        <time>2022-02-12T09:03:19Z</time>
      </trkpt>
      <trkpt lat="42.86418" lon="0.26135">
        <ele>1829.8</ele>
        <time>2022-02-12T09:03:24Z</time>
      </trkpt>
      <trkpt lat="42.8642" lon="0.26136">
        <ele>1830</ele>
        <time>2022-02-12T09:03:29Z</time>
      </trkpt>
      <trkpt lat="42.86421" lon="0.26137">
        <ele>1830.2</ele>
        <time>2022-02-12T09:03:31Z</time>
      </trkpt>
      <trkpt lat="42.86423" lon="0.2614">
        <ele>1830.6</ele>
        <time>2022-02-12T09:03:35Z</time>
      </trkpt>
      <trkpt lat="42.86423" lon="0.26143">
        <ele>1831.6</ele>
        <time>2022-02-12T09:03:40Z</time>
      </trkpt>
      <trkpt lat="42.86423" lon="0.26144">
        <ele>1831.8</ele>
        <time>2022-02-12T09:03:42Z</time>
      </trkpt>
      <trkpt lat="42.86425" lon="0.26144">
        <ele>1832.6</ele>
        <time>2022-02-12T09:03:47Z</time>
      </trkpt>
      <trkpt lat="42.86425" lon="0.26144">
        <ele>1832.8</ele>
        <time>2022-02-12T09:03:48Z</time>
      </trkpt>
      <trkpt lat="42.86424" lon="0.26143">
        <ele>1833.2</ele>
        <time>2022-02-12T09:03:51Z</time>
      </trkpt>
      <trkpt lat="42.86424" lon="0.26143">
        <ele>1833.2</ele>
        <time>2022-02-12T09:03:53Z</time>
      </trkpt>
      <trkpt lat="42.86425" lon="0.26141">
        <ele>1834</ele>
        <time>2022-02-12T09:03:56Z</time>
      </trkpt>
      <trkpt lat="42.86425" lon="0.2614">
        <ele>1834</ele>
        <time>2022-02-12T09:03:57Z</time>
      </trkpt>
      <trkpt lat="42.86426" lon="0.26139">
        <ele>1834.6</ele>
        <time>2022-02-12T09:04:01Z</time>
      </trkpt>
      <trkpt lat="42.86426" lon="0.26139">
        <ele>1835</ele>
        <time>2022-02-12T09:04:07Z</time>
      </trkpt>
      <trkpt lat="42.86426" lon="0.26139">
        <ele>1835.2</ele>
        <time>2022-02-12T09:04:08Z</time>
      </trkpt>
      <trkpt lat="42.86427" lon="0.26141">
        <ele>1835.4</ele>
        <time>2022-02-12T09:04:12Z</time>
      </trkpt>
      <trkpt lat="42.86428" lon="0.26145">
        <ele>1835.8</ele>
        <time>2022-02-12T09:04:21Z</time>
      </trkpt>
      <trkpt lat="42.86428" lon="0.26145">
        <ele>1836.2</ele>
        <time>2022-02-12T09:04:22Z</time>
      </trkpt>
      <trkpt lat="42.86428" lon="0.26145">
        <ele>1836.2</ele>
        <time>2022-02-12T09:04:23Z</time>
      </trkpt>
      <trkpt lat="42.8643" lon="0.26145">
        <ele>1836.8</ele>
        <time>2022-02-12T09:04:27Z</time>
      </trkpt>
      <trkpt lat="42.86429" lon="0.26144">
        <ele>1837</ele>
        <time>2022-02-12T09:04:30Z</time>
      </trkpt>
      <trkpt lat="42.86429" lon="0.26145">
        <ele>1837.2</ele>
        <time>2022-02-12T09:04:32Z</time>
      </trkpt>
      <trkpt lat="42.86429" lon="0.26146">
        <ele>1837.2</ele>
        <time>2022-02-12T09:04:33Z</time>
      </trkpt>
      <trkpt lat="42.86431" lon="0.2615">
        <ele>1837.4</ele>
        <time>2022-02-12T09:04:38Z</time>
      </trkpt>
      <trkpt lat="42.86432" lon="0.26155">
        <ele>1838</ele>
        <time>2022-02-12T09:04:44Z</time>
      </trkpt>
      <trkpt lat="42.86434" lon="0.26157">
        <ele>1838.2</ele>
        <time>2022-02-12T09:04:47Z</time>
      </trkpt>
      <trkpt lat="42.86434" lon="0.26158">
        <ele>1838.4</ele>
        <time>2022-02-12T09:04:48Z</time>
      </trkpt>
      <trkpt lat="42.86435" lon="0.26159">
        <ele>1838.4</ele>
        <time>2022-02-12T09:04:50Z</time>
      </trkpt>
      <trkpt lat="42.86436" lon="0.26159">
        <ele>1838.6</ele>
        <time>2022-02-12T09:04:51Z</time>
      </trkpt>
      <trkpt lat="42.86436" lon="0.26163">
        <ele>1839.2</ele>
        <time>2022-02-12T09:04:57Z</time>
      </trkpt>
      <trkpt lat="42.86437" lon="0.26164">
        <ele>1839.6</ele>
        <time>2022-02-12T09:04:58Z</time>
      </trkpt>
      <trkpt lat="42.86437" lon="0.26167">
        <ele>1840.4</ele>
        <time>2022-02-12T09:05:01Z</time>
      </trkpt>
      <trkpt lat="42.86437" lon="0.26166">
        <ele>1840.6</ele>
        <time>2022-02-12T09:05:03Z</time>
      </trkpt>
      <trkpt lat="42.86436" lon="0.26167">
        <ele>1840.6</ele>
        <time>2022-02-12T09:05:05Z</time>
      </trkpt>
      <trkpt lat="42.86437" lon="0.26166">
        <ele>1841.2</ele>
        <time>2022-02-12T09:05:08Z</time>
      </trkpt>
      <trkpt lat="42.86438" lon="0.26163">
        <ele>1841.8</ele>
        <time>2022-02-12T09:05:13Z</time>
      </trkpt>
      <trkpt lat="42.86438" lon="0.26163">
        <ele>1842</ele>
        <time>2022-02-12T09:05:14Z</time>
      </trkpt>
      <trkpt lat="42.86438" lon="0.26161">
        <ele>1842.4</ele>
        <time>2022-02-12T09:05:20Z</time>
      </trkpt>
      <trkpt lat="42.86438" lon="0.26162">
        <ele>1842.8</ele>
        <time>2022-02-12T09:05:26Z</time>
      </trkpt>
      <trkpt lat="42.86441" lon="0.26164">
        <ele>1842.6</ele>
        <time>2022-02-12T09:05:32Z</time>
      </trkpt>
      <trkpt lat="42.86441" lon="0.26163">
        <ele>1842.8</ele>
        <time>2022-02-12T09:05:37Z</time>
      </trkpt>
      <trkpt lat="42.8644" lon="0.26163">
        <ele>1843</ele>
        <time>2022-02-12T09:05:39Z</time>
      </trkpt>
      <trkpt lat="42.86441" lon="0.26161">
        <ele>1843.2</ele>
        <time>2022-02-12T09:05:44Z</time>
      </trkpt>
      <trkpt lat="42.86442" lon="0.26161">
        <ele>1843.8</ele>
        <time>2022-02-12T09:05:48Z</time>
      </trkpt>
      <trkpt lat="42.86442" lon="0.2616">
        <ele>1844</ele>
        <time>2022-02-12T09:05:50Z</time>
      </trkpt>
      <trkpt lat="42.86441" lon="0.2616">
        <ele>1844.2</ele>
        <time>2022-02-12T09:05:54Z</time>
      </trkpt>
      <trkpt lat="42.86442" lon="0.26158">
        <ele>1844.8</ele>
        <time>2022-02-12T09:06:00Z</time>
      </trkpt>
      <trkpt lat="42.86441" lon="0.26159">
        <ele>1845.2</ele>
        <time>2022-02-12T09:06:06Z</time>
      </trkpt>
      <trkpt lat="42.86447" lon="0.26163">
        <ele>1845.8</ele>
        <time>2022-02-12T09:06:10Z</time>
      </trkpt>
      <trkpt lat="42.86447" lon="0.26164">
        <ele>1846</ele>
        <time>2022-02-12T09:06:12Z</time>
      </trkpt>
      <trkpt lat="42.86448" lon="0.26166">
        <ele>1846.6</ele>
        <time>2022-02-12T09:06:15Z</time>
      </trkpt>
      <trkpt lat="42.86448" lon="0.26167">
        <ele>1846.6</ele>
        <time>2022-02-12T09:06:16Z</time>
      </trkpt>
      <trkpt lat="42.86448" lon="0.26169">
        <ele>1846.8</ele>
        <time>2022-02-12T09:06:18Z</time>
      </trkpt>
      <trkpt lat="42.86448" lon="0.26169">
        <ele>1847</ele>
        <time>2022-02-12T09:06:19Z</time>
      </trkpt>
      <trkpt lat="42.86448" lon="0.26172">
        <ele>1847.4</ele>
        <time>2022-02-12T09:06:22Z</time>
      </trkpt>
      <trkpt lat="42.8645" lon="0.26174">
        <ele>1847.8</ele>
        <time>2022-02-12T09:06:28Z</time>
      </trkpt>
      <trkpt lat="42.86451" lon="0.26174">
        <ele>1848</ele>
        <time>2022-02-12T09:06:31Z</time>
      </trkpt>
      <trkpt lat="42.86452" lon="0.26174">
        <ele>1849.2</ele>
        <time>2022-02-12T09:06:35Z</time>
      </trkpt>
      <trkpt lat="42.86453" lon="0.26174">
        <ele>1849.6</ele>
        <time>2022-02-12T09:06:37Z</time>
      </trkpt>
      <trkpt lat="42.86455" lon="0.26177">
        <ele>1850.4</ele>
        <time>2022-02-12T09:06:43Z</time>
      </trkpt>
      <trkpt lat="42.86455" lon="0.26178">
        <ele>1850.6</ele>
        <time>2022-02-12T09:06:45Z</time>
      </trkpt>
      <trkpt lat="42.86458" lon="0.26181">
        <ele>1851.6</ele>
        <time>2022-02-12T09:06:49Z</time>
      </trkpt>
      <trkpt lat="42.86458" lon="0.26182">
        <ele>1852.2</ele>
        <time>2022-02-12T09:06:52Z</time>
      </trkpt>
      <trkpt lat="42.86459" lon="0.26184">
        <ele>1852.6</ele>
        <time>2022-02-12T09:06:56Z</time>
      </trkpt>
      <trkpt lat="42.8646" lon="0.26185">
        <ele>1852.8</ele>
        <time>2022-02-12T09:06:58Z</time>
      </trkpt>
      <trkpt lat="42.86462" lon="0.26184">
        <ele>1853.8</ele>
        <time>2022-02-12T09:07:04Z</time>
      </trkpt>
      <trkpt lat="42.86462" lon="0.26185">
        <ele>1854</ele>
        <time>2022-02-12T09:07:05Z</time>
      </trkpt>
      <trkpt lat="42.86465" lon="0.2619">
        <ele>1855</ele>
        <time>2022-02-12T09:07:11Z</time>
      </trkpt>
      <trkpt lat="42.86466" lon="0.26191">
        <ele>1855.2</ele>
        <time>2022-02-12T09:07:12Z</time>
      </trkpt>
      <trkpt lat="42.86466" lon="0.26192">
        <ele>1855.4</ele>
        <time>2022-02-12T09:07:14Z</time>
      </trkpt>
      <trkpt lat="42.86467" lon="0.26194">
        <ele>1856.2</ele>
        <time>2022-02-12T09:07:18Z</time>
      </trkpt>
      <trkpt lat="42.86468" lon="0.26194">
        <ele>1857</ele>
        <time>2022-02-12T09:07:21Z</time>
      </trkpt>
      <trkpt lat="42.86468" lon="0.26195">
        <ele>1857.2</ele>
        <time>2022-02-12T09:07:22Z</time>
      </trkpt>
      <trkpt lat="42.8647" lon="0.26197">
        <ele>1858.4</ele>
        <time>2022-02-12T09:07:28Z</time>
      </trkpt>
      <trkpt lat="42.86471" lon="0.26198">
        <ele>1858.8</ele>
        <time>2022-02-12T09:07:29Z</time>
      </trkpt>
      <trkpt lat="42.86473" lon="0.262">
        <ele>1859.6</ele>
        <time>2022-02-12T09:07:34Z</time>
      </trkpt>
      <trkpt lat="42.86473" lon="0.262">
        <ele>1860.2</ele>
        <time>2022-02-12T09:07:36Z</time>
      </trkpt>
      <trkpt lat="42.86472" lon="0.26198">
        <ele>1860.8</ele>
        <time>2022-02-12T09:07:38Z</time>
      </trkpt>
      <trkpt lat="42.86471" lon="0.26197">
        <ele>1861.4</ele>
        <time>2022-02-12T09:07:43Z</time>
      </trkpt>
      <trkpt lat="42.86472" lon="0.26198">
        <ele>1861.8</ele>
        <time>2022-02-12T09:07:46Z</time>
      </trkpt>
      <trkpt lat="42.86472" lon="0.26197">
        <ele>1862.2</ele>
        <time>2022-02-12T09:07:50Z</time>
      </trkpt>
      <trkpt lat="42.86473" lon="0.26194">
        <ele>1863</ele>
        <time>2022-02-12T09:07:53Z</time>
      </trkpt>
      <trkpt lat="42.86477" lon="0.26191">
        <ele>1863.6</ele>
        <time>2022-02-12T09:07:58Z</time>
      </trkpt>
      <trkpt lat="42.86478" lon="0.26194">
        <ele>1864.4</ele>
        <time>2022-02-12T09:08:04Z</time>
      </trkpt>
      <trkpt lat="42.86479" lon="0.26196">
        <ele>1865.2</ele>
        <time>2022-02-12T09:08:11Z</time>
      </trkpt>
      <trkpt lat="42.86479" lon="0.26196">
        <ele>1865.8</ele>
        <time>2022-02-12T09:08:15Z</time>
      </trkpt>
      <trkpt lat="42.86479" lon="0.26196">
        <ele>1866.2</ele>
        <time>2022-02-12T09:08:16Z</time>
      </trkpt>
      <trkpt lat="42.86479" lon="0.26193">
        <ele>1867</ele>
        <time>2022-02-12T09:08:21Z</time>
      </trkpt>
      <trkpt lat="42.86479" lon="0.26192">
        <ele>1867.2</ele>
        <time>2022-02-12T09:08:23Z</time>
      </trkpt>
      <trkpt lat="42.86481" lon="0.2619">
        <ele>1868</ele>
        <time>2022-02-12T09:08:27Z</time>
      </trkpt>
      <trkpt lat="42.86481" lon="0.26187">
        <ele>1868.6</ele>
        <time>2022-02-12T09:08:32Z</time>
      </trkpt>
      <trkpt lat="42.86481" lon="0.26186">
        <ele>1869</ele>
        <time>2022-02-12T09:08:34Z</time>
      </trkpt>
      <trkpt lat="42.86483" lon="0.26182">
        <ele>1869.6</ele>
        <time>2022-02-12T09:08:38Z</time>
      </trkpt>
      <trkpt lat="42.86484" lon="0.2618">
        <ele>1870.2</ele>
        <time>2022-02-12T09:08:42Z</time>
      </trkpt>
      <trkpt lat="42.86484" lon="0.26181">
        <ele>1870.4</ele>
        <time>2022-02-12T09:08:43Z</time>
      </trkpt>
      <trkpt lat="42.86484" lon="0.26181">
        <ele>1871.2</ele>
        <time>2022-02-12T09:08:48Z</time>
      </trkpt>
      <trkpt lat="42.86485" lon="0.26182">
        <ele>1871.4</ele>
        <time>2022-02-12T09:08:49Z</time>
      </trkpt>
      <trkpt lat="42.86485" lon="0.26182">
        <ele>1871.8</ele>
        <time>2022-02-12T09:08:55Z</time>
      </trkpt>
      <trkpt lat="42.86485" lon="0.26181">
        <ele>1872.2</ele>
        <time>2022-02-12T09:09:00Z</time>
      </trkpt>
      <trkpt lat="42.86485" lon="0.26181">
        <ele>1872.4</ele>
        <time>2022-02-12T09:09:01Z</time>
      </trkpt>
      <trkpt lat="42.86486" lon="0.26177">
        <ele>1873.2</ele>
        <time>2022-02-12T09:09:06Z</time>
      </trkpt>
      <trkpt lat="42.86487" lon="0.26175">
        <ele>1873.4</ele>
        <time>2022-02-12T09:09:10Z</time>
      </trkpt>
      <trkpt lat="42.86487" lon="0.26174">
        <ele>1873.4</ele>
        <time>2022-02-12T09:09:11Z</time>
      </trkpt>
      <trkpt lat="42.86488" lon="0.26174">
        <ele>1874.6</ele>
        <time>2022-02-12T09:09:16Z</time>
      </trkpt>
      <trkpt lat="42.86489" lon="0.26176">
        <ele>1875</ele>
        <time>2022-02-12T09:09:20Z</time>
      </trkpt>
      <trkpt lat="42.86491" lon="0.26177">
        <ele>1875.6</ele>
        <time>2022-02-12T09:09:25Z</time>
      </trkpt>
      <trkpt lat="42.86492" lon="0.26179">
        <ele>1876.4</ele>
        <time>2022-02-12T09:09:29Z</time>
      </trkpt>
      <trkpt lat="42.86492" lon="0.2618">
        <ele>1876.6</ele>
        <time>2022-02-12T09:09:30Z</time>
      </trkpt>
      <trkpt lat="42.86494" lon="0.26181">
        <ele>1877.4</ele>
        <time>2022-02-12T09:09:35Z</time>
      </trkpt>
      <trkpt lat="42.86494" lon="0.26179">
        <ele>1877.6</ele>
        <time>2022-02-12T09:09:37Z</time>
      </trkpt>
      <trkpt lat="42.86494" lon="0.26178">
        <ele>1877.8</ele>
        <time>2022-02-12T09:09:40Z</time>
      </trkpt>
      <trkpt lat="42.86495" lon="0.26177">
        <ele>1878.6</ele>
        <time>2022-02-12T09:09:46Z</time>
      </trkpt>
      <trkpt lat="42.86495" lon="0.26177">
        <ele>1879</ele>
        <time>2022-02-12T09:09:48Z</time>
      </trkpt>
      <trkpt lat="42.86495" lon="0.26177">
        <ele>1879.2</ele>
        <time>2022-02-12T09:09:51Z</time>
      </trkpt>
      <trkpt lat="42.86498" lon="0.26178">
        <ele>1879.6</ele>
        <time>2022-02-12T09:09:56Z</time>
      </trkpt>
      <trkpt lat="42.86499" lon="0.26181">
        <ele>1879.8</ele>
        <time>2022-02-12T09:10:03Z</time>
      </trkpt>
      <trkpt lat="42.86499" lon="0.26181">
        <ele>1880</ele>
        <time>2022-02-12T09:10:06Z</time>
      </trkpt>
      <trkpt lat="42.865" lon="0.26182">
        <ele>1881</ele>
        <time>2022-02-12T09:10:10Z</time>
      </trkpt>
      <trkpt lat="42.865" lon="0.26182">
        <ele>1881.2</ele>
        <time>2022-02-12T09:10:11Z</time>
      </trkpt>
      <trkpt lat="42.86502" lon="0.26181">
        <ele>1882</ele>
        <time>2022-02-12T09:10:18Z</time>
      </trkpt>
      <trkpt lat="42.86503" lon="0.26183">
        <ele>1882</ele>
        <time>2022-02-12T09:10:24Z</time>
      </trkpt>
      <trkpt lat="42.86503" lon="0.26181">
        <ele>1882.2</ele>
        <time>2022-02-12T09:10:32Z</time>
      </trkpt>
      <trkpt lat="42.86502" lon="0.26181">
        <ele>1882.2</ele>
        <time>2022-02-12T09:10:34Z</time>
      </trkpt>
      <trkpt lat="42.86501" lon="0.26183">
        <ele>1882.2</ele>
        <time>2022-02-12T09:10:39Z</time>
      </trkpt>
      <trkpt lat="42.86501" lon="0.26183">
        <ele>1882.2</ele>
        <time>2022-02-12T09:10:40Z</time>
      </trkpt>
      <trkpt lat="42.865" lon="0.26184">
        <ele>1882.2</ele>
        <time>2022-02-12T09:10:43Z</time>
      </trkpt>
      <trkpt lat="42.86501" lon="0.26184">
        <ele>1882</ele>
        <time>2022-02-12T09:10:50Z</time>
      </trkpt>
      <trkpt lat="42.86499" lon="0.26184">
        <ele>1881.2</ele>
        <time>2022-02-12T09:10:57Z</time>
      </trkpt>
      <trkpt lat="42.86499" lon="0.26184">
        <ele>1881.2</ele>
        <time>2022-02-12T09:10:58Z</time>
      </trkpt>
      <trkpt lat="42.86499" lon="0.26184">
        <ele>1881.2</ele>
        <time>2022-02-12T09:10:59Z</time>
      </trkpt>
      <trkpt lat="42.86498" lon="0.26185">
        <ele>1881.4</ele>
        <time>2022-02-12T09:11:07Z</time>
      </trkpt>
      <trkpt lat="42.865" lon="0.26185">
        <ele>1882.2</ele>
        <time>2022-02-12T09:11:13Z</time>
      </trkpt>
      <trkpt lat="42.865" lon="0.26185">
        <ele>1882.2</ele>
        <time>2022-02-12T09:11:14Z</time>
      </trkpt>
      <trkpt lat="42.865" lon="0.26184">
        <ele>1882.6</ele>
        <time>2022-02-12T09:11:15Z</time>
      </trkpt>
      <trkpt lat="42.86501" lon="0.26182">
        <ele>1883.6</ele>
        <time>2022-02-12T09:11:19Z</time>
      </trkpt>
      <trkpt lat="42.86502" lon="0.2618">
        <ele>1884.4</ele>
        <time>2022-02-12T09:11:22Z</time>
      </trkpt>
      <trkpt lat="42.86502" lon="0.2618">
        <ele>1884.8</ele>
        <time>2022-02-12T09:11:23Z</time>
      </trkpt>
      <trkpt lat="42.86502" lon="0.26179">
        <ele>1885</ele>
        <time>2022-02-12T09:11:24Z</time>
      </trkpt>
      <trkpt lat="42.86504" lon="0.26178">
        <ele>1885.6</ele>
        <time>2022-02-12T09:11:28Z</time>
      </trkpt>
      <trkpt lat="42.86504" lon="0.26179">
        <ele>1885.8</ele>
        <time>2022-02-12T09:11:31Z</time>
      </trkpt>
      <trkpt lat="42.86504" lon="0.2618">
        <ele>1886.8</ele>
        <time>2022-02-12T09:11:34Z</time>
      </trkpt>
      <trkpt lat="42.86504" lon="0.2618">
        <ele>1887</ele>
        <time>2022-02-12T09:11:35Z</time>
      </trkpt>
      <trkpt lat="42.86505" lon="0.26179">
        <ele>1888</ele>
        <time>2022-02-12T09:11:40Z</time>
      </trkpt>
      <trkpt lat="42.86505" lon="0.26175">
        <ele>1889.2</ele>
        <time>2022-02-12T09:11:44Z</time>
      </trkpt>
      <trkpt lat="42.86505" lon="0.26174">
        <ele>1889.6</ele>
        <time>2022-02-12T09:11:46Z</time>
      </trkpt>
      <trkpt lat="42.86506" lon="0.2617">
        <ele>1890.6</ele>
        <time>2022-02-12T09:11:52Z</time>
      </trkpt>
      <trkpt lat="42.86508" lon="0.26169">
        <ele>1891.4</ele>
        <time>2022-02-12T09:11:58Z</time>
      </trkpt>
      <trkpt lat="42.86508" lon="0.26168">
        <ele>1891.6</ele>
        <time>2022-02-12T09:12:00Z</time>
      </trkpt>
      <trkpt lat="42.86507" lon="0.26166">
        <ele>1891.8</ele>
        <time>2022-02-12T09:12:05Z</time>
      </trkpt>
      <trkpt lat="42.86508" lon="0.26164">
        <ele>1891.8</ele>
        <time>2022-02-12T09:12:09Z</time>
      </trkpt>
      <trkpt lat="42.86508" lon="0.26164">
        <ele>1892</ele>
        <time>2022-02-12T09:12:10Z</time>
      </trkpt>
      <trkpt lat="42.86509" lon="0.26162">
        <ele>1892.6</ele>
        <time>2022-02-12T09:12:13Z</time>
      </trkpt>
      <trkpt lat="42.86509" lon="0.26161">
        <ele>1893.2</ele>
        <time>2022-02-12T09:12:17Z</time>
      </trkpt>
      <trkpt lat="42.8651" lon="0.26161">
        <ele>1893.8</ele>
        <time>2022-02-12T09:12:19Z</time>
      </trkpt>
      <trkpt lat="42.8651" lon="0.26161">
        <ele>1894.2</ele>
        <time>2022-02-12T09:12:21Z</time>
      </trkpt>
      <trkpt lat="42.86512" lon="0.2616">
        <ele>1894.8</ele>
        <time>2022-02-12T09:12:24Z</time>
      </trkpt>
      <trkpt lat="42.86514" lon="0.26157">
        <ele>1895.4</ele>
        <time>2022-02-12T09:12:29Z</time>
      </trkpt>
      <trkpt lat="42.86514" lon="0.26157">
        <ele>1895.6</ele>
        <time>2022-02-12T09:12:35Z</time>
      </trkpt>
      <trkpt lat="42.86514" lon="0.26156">
        <ele>1895.6</ele>
        <time>2022-02-12T09:12:36Z</time>
      </trkpt>
      <trkpt lat="42.86514" lon="0.26157">
        <ele>1895.6</ele>
        <time>2022-02-12T09:12:42Z</time>
      </trkpt>
      <trkpt lat="42.86514" lon="0.26158">
        <ele>1895.6</ele>
        <time>2022-02-12T09:12:44Z</time>
      </trkpt>
      <trkpt lat="42.86515" lon="0.26161">
        <ele>1895.2</ele>
        <time>2022-02-12T09:12:51Z</time>
      </trkpt>
      <trkpt lat="42.86515" lon="0.26162">
        <ele>1895</ele>
        <time>2022-02-12T09:12:52Z</time>
      </trkpt>
      <trkpt lat="42.86515" lon="0.26163">
        <ele>1895</ele>
        <time>2022-02-12T09:12:59Z</time>
      </trkpt>
      <trkpt lat="42.86515" lon="0.26159">
        <ele>1895.8</ele>
        <time>2022-02-12T09:13:07Z</time>
      </trkpt>
      <trkpt lat="42.86516" lon="0.26161">
        <ele>1895.8</ele>
        <time>2022-02-12T09:13:18Z</time>
      </trkpt>
      <trkpt lat="42.86515" lon="0.26163">
        <ele>1895.8</ele>
        <time>2022-02-12T09:13:26Z</time>
      </trkpt>
      <trkpt lat="42.86515" lon="0.26164">
        <ele>1896.6</ele>
        <time>2022-02-12T09:13:30Z</time>
      </trkpt>
      <trkpt lat="42.86515" lon="0.26164">
        <ele>1897</ele>
        <time>2022-02-12T09:13:31Z</time>
      </trkpt>
      <trkpt lat="42.86517" lon="0.26166">
        <ele>1898</ele>
        <time>2022-02-12T09:13:35Z</time>
      </trkpt>
      <trkpt lat="42.86516" lon="0.26167">
        <ele>1898.4</ele>
        <time>2022-02-12T09:13:37Z</time>
      </trkpt>
      <trkpt lat="42.86517" lon="0.26165">
        <ele>1898.8</ele>
        <time>2022-02-12T09:13:42Z</time>
      </trkpt>
      <trkpt lat="42.86518" lon="0.26164">
        <ele>1899</ele>
        <time>2022-02-12T09:13:44Z</time>
      </trkpt>
      <trkpt lat="42.8652" lon="0.26163">
        <ele>1900.2</ele>
        <time>2022-02-12T09:13:47Z</time>
      </trkpt>
      <trkpt lat="42.86521" lon="0.26162">
        <ele>1900.8</ele>
        <time>2022-02-12T09:13:51Z</time>
      </trkpt>
      <trkpt lat="42.86522" lon="0.26163">
        <ele>1900.8</ele>
        <time>2022-02-12T09:13:53Z</time>
      </trkpt>
      <trkpt lat="42.86522" lon="0.26162">
        <ele>1900.8</ele>
        <time>2022-02-12T09:13:58Z</time>
      </trkpt>
      <trkpt lat="42.86522" lon="0.26163">
        <ele>1901.2</ele>
        <time>2022-02-12T09:14:03Z</time>
      </trkpt>
      <trkpt lat="42.86521" lon="0.26164">
        <ele>1901</ele>
        <time>2022-02-12T09:14:24Z</time>
      </trkpt>
      <trkpt lat="42.86521" lon="0.26163">
        <ele>1900.6</ele>
        <time>2022-02-12T09:14:40Z</time>
      </trkpt>
      <trkpt lat="42.86521" lon="0.26163">
        <ele>1900.8</ele>
        <time>2022-02-12T09:14:44Z</time>
      </trkpt>
      <trkpt lat="42.86521" lon="0.26163">
        <ele>1900.8</ele>
        <time>2022-02-12T09:14:47Z</time>
      </trkpt>
      <trkpt lat="42.8652" lon="0.26163">
        <ele>1905.2</ele>
        <time>2022-02-12T09:14:57Z</time>
      </trkpt>
      <trkpt lat="42.8652" lon="0.26163">
        <ele>1905.2</ele>
        <time>2022-02-12T09:14:58Z</time>
      </trkpt>
      <trkpt lat="42.8652" lon="0.26163">
        <ele>1902.8</ele>
        <time>2022-02-12T09:15:01Z</time>
      </trkpt>
      <trkpt lat="42.8652" lon="0.26163">
        <ele>1901.4</ele>
        <time>2022-02-12T09:15:02Z</time>
      </trkpt>
      <trkpt lat="42.8652" lon="0.26163">
        <ele>1900.6</ele>
        <time>2022-02-12T09:15:04Z</time>
      </trkpt>
      <trkpt lat="42.8652" lon="0.26164">
        <ele>1900.4</ele>
        <time>2022-02-12T09:15:05Z</time>
      </trkpt>
      <trkpt lat="42.8652" lon="0.26164">
        <ele>1900.2</ele>
        <time>2022-02-12T09:15:13Z</time>
      </trkpt>
      <trkpt lat="42.8652" lon="0.26164">
        <ele>1900.2</ele>
        <time>2022-02-12T09:15:30Z</time>
      </trkpt>
      <trkpt lat="42.86518" lon="0.26164">
        <ele>1900.2</ele>
        <time>2022-02-12T09:15:49Z</time>
      </trkpt>
      <trkpt lat="42.86518" lon="0.26164">
        <ele>1900.2</ele>
        <time>2022-02-12T09:15:55Z</time>
      </trkpt>
      <trkpt lat="42.86518" lon="0.26164">
        <ele>1900.2</ele>
        <time>2022-02-12T09:16:04Z</time>
      </trkpt>
      <trkpt lat="42.86519" lon="0.26164">
        <ele>1900.2</ele>
        <time>2022-02-12T09:16:07Z</time>
      </trkpt>
      <trkpt lat="42.86519" lon="0.26164">
        <ele>1900.2</ele>
        <time>2022-02-12T09:16:12Z</time>
      </trkpt>
      <trkpt lat="42.8652" lon="0.26164">
        <ele>1900.2</ele>
        <time>2022-02-12T09:16:20Z</time>
      </trkpt>
      <trkpt lat="42.86519" lon="0.26165">
        <ele>1900.2</ele>
        <time>2022-02-12T09:16:26Z</time>
      </trkpt>
      <trkpt lat="42.86519" lon="0.26165">
        <ele>1900.2</ele>
        <time>2022-02-12T09:16:27Z</time>
      </trkpt>
      <trkpt lat="42.86519" lon="0.26164">
        <ele>1900.2</ele>
        <time>2022-02-12T09:16:35Z</time>
      </trkpt>
      <trkpt lat="42.86519" lon="0.26164">
        <ele>1900.2</ele>
        <time>2022-02-12T09:16:44Z</time>
      </trkpt>
      <trkpt lat="42.86518" lon="0.26164">
        <ele>1900.2</ele>
        <time>2022-02-12T09:16:47Z</time>
      </trkpt>
      <trkpt lat="42.86517" lon="0.26163">
        <ele>1900.2</ele>
        <time>2022-02-12T09:16:53Z</time>
      </trkpt>
      <trkpt lat="42.86517" lon="0.26164">
        <ele>1900.2</ele>
        <time>2022-02-12T09:17:02Z</time>
      </trkpt>
      <trkpt lat="42.86517" lon="0.26164">
        <ele>1900.2</ele>
        <time>2022-02-12T09:17:13Z</time>
      </trkpt>
      <trkpt lat="42.86517" lon="0.26164">
        <ele>1900.2</ele>
        <time>2022-02-12T09:17:20Z</time>
      </trkpt>
      <trkpt lat="42.86518" lon="0.26167">
        <ele>1900.2</ele>
        <time>2022-02-12T09:17:27Z</time>
      </trkpt>
      <trkpt lat="42.86518" lon="0.26168">
        <ele>1900.2</ele>
        <time>2022-02-12T09:17:28Z</time>
      </trkpt>
      <trkpt lat="42.8652" lon="0.26171">
        <ele>1900.2</ele>
        <time>2022-02-12T09:17:33Z</time>
      </trkpt>
      <trkpt lat="42.86521" lon="0.26174">
        <ele>1900.2</ele>
        <time>2022-02-12T09:17:37Z</time>
      </trkpt>
      <trkpt lat="42.86521" lon="0.26176">
        <ele>1900.2</ele>
        <time>2022-02-12T09:17:42Z</time>
      </trkpt>
      <trkpt lat="42.86522" lon="0.26175">
        <ele>1900.2</ele>
        <time>2022-02-12T09:17:47Z</time>
      </trkpt>
      <trkpt lat="42.86525" lon="0.26172">
        <ele>1900.2</ele>
        <time>2022-02-12T09:17:53Z</time>
      </trkpt>
      <trkpt lat="42.86525" lon="0.26172">
        <ele>1900.2</ele>
        <time>2022-02-12T09:17:54Z</time>
      </trkpt>
      <trkpt lat="42.86528" lon="0.26169">
        <ele>1903.2</ele>
        <time>2022-02-12T09:17:59Z</time>
      </trkpt>
      <trkpt lat="42.86529" lon="0.26168">
        <ele>1905.2</ele>
        <time>2022-02-12T09:18:00Z</time>
      </trkpt>
      <trkpt lat="42.86529" lon="0.26168">
        <ele>1906.2</ele>
        <time>2022-02-12T09:18:01Z</time>
      </trkpt>
      <trkpt lat="42.8653" lon="0.26166">
        <ele>1907.6</ele>
        <time>2022-02-12T09:18:04Z</time>
      </trkpt>
      <trkpt lat="42.8653" lon="0.26165">
        <ele>1908</ele>
        <time>2022-02-12T09:18:05Z</time>
      </trkpt>
      <trkpt lat="42.86533" lon="0.26162">
        <ele>1908.8</ele>
        <time>2022-02-12T09:18:10Z</time>
      </trkpt>
      <trkpt lat="42.86533" lon="0.2616">
        <ele>1909.2</ele>
        <time>2022-02-12T09:18:12Z</time>
      </trkpt>
      <trkpt lat="42.86533" lon="0.26159">
        <ele>1909.4</ele>
        <time>2022-02-12T09:18:13Z</time>
      </trkpt>
      <trkpt lat="42.86534" lon="0.26158">
        <ele>1909.6</ele>
        <time>2022-02-12T09:18:15Z</time>
      </trkpt>
      <trkpt lat="42.86534" lon="0.26157">
        <ele>1909.8</ele>
        <time>2022-02-12T09:18:16Z</time>
      </trkpt>
      <trkpt lat="42.86534" lon="0.26153">
        <ele>1910</ele>
        <time>2022-02-12T09:18:19Z</time>
      </trkpt>
      <trkpt lat="42.86534" lon="0.26152">
        <ele>1910.4</ele>
        <time>2022-02-12T09:18:21Z</time>
      </trkpt>
      <trkpt lat="42.86534" lon="0.2615">
        <ele>1910.8</ele>
        <time>2022-02-12T09:18:23Z</time>
      </trkpt>
      <trkpt lat="42.86534" lon="0.2615">
        <ele>1911</ele>
        <time>2022-02-12T09:18:24Z</time>
      </trkpt>
      <trkpt lat="42.86536" lon="0.26151">
        <ele>1911.4</ele>
        <time>2022-02-12T09:18:28Z</time>
      </trkpt>
      <trkpt lat="42.86539" lon="0.26152">
        <ele>1911.8</ele>
        <time>2022-02-12T09:18:32Z</time>
      </trkpt>
      <trkpt lat="42.86541" lon="0.26153">
        <ele>1912.4</ele>
        <time>2022-02-12T09:18:36Z</time>
      </trkpt>
      <trkpt lat="42.86542" lon="0.26154">
        <ele>1912.6</ele>
        <time>2022-02-12T09:18:37Z</time>
      </trkpt>
      <trkpt lat="42.86544" lon="0.26155">
        <ele>1912.8</ele>
        <time>2022-02-12T09:18:41Z</time>
      </trkpt>
      <trkpt lat="42.86545" lon="0.26156">
        <ele>1913.2</ele>
        <time>2022-02-12T09:18:43Z</time>
      </trkpt>
      <trkpt lat="42.86547" lon="0.26157">
        <ele>1914</ele>
        <time>2022-02-12T09:18:48Z</time>
      </trkpt>
      <trkpt lat="42.86547" lon="0.26157">
        <ele>1914.2</ele>
        <time>2022-02-12T09:18:49Z</time>
      </trkpt>
      <trkpt lat="42.86548" lon="0.26158">
        <ele>1915.2</ele>
        <time>2022-02-12T09:18:52Z</time>
      </trkpt>
      <trkpt lat="42.8655" lon="0.26162">
        <ele>1916.2</ele>
        <time>2022-02-12T09:18:57Z</time>
      </trkpt>
      <trkpt lat="42.86552" lon="0.26166">
        <ele>1917.2</ele>
        <time>2022-02-12T09:19:02Z</time>
      </trkpt>
      <trkpt lat="42.86552" lon="0.26167">
        <ele>1917.4</ele>
        <time>2022-02-12T09:19:03Z</time>
      </trkpt>
      <trkpt lat="42.86552" lon="0.26171">
        <ele>1918.4</ele>
        <time>2022-02-12T09:19:08Z</time>
      </trkpt>
      <trkpt lat="42.86552" lon="0.26171">
        <ele>1918.6</ele>
        <time>2022-02-12T09:19:09Z</time>
      </trkpt>
      <trkpt lat="42.86554" lon="0.26173">
        <ele>1919.2</ele>
        <time>2022-02-12T09:19:15Z</time>
      </trkpt>
      <trkpt lat="42.86555" lon="0.26177">
        <ele>1919.8</ele>
        <time>2022-02-12T09:19:20Z</time>
      </trkpt>
      <trkpt lat="42.86555" lon="0.26179">
        <ele>1921</ele>
        <time>2022-02-12T09:19:23Z</time>
      </trkpt>
      <trkpt lat="42.86557" lon="0.26178">
        <ele>1922</ele>
        <time>2022-02-12T09:19:28Z</time>
      </trkpt>
      <trkpt lat="42.86558" lon="0.26177">
        <ele>1922.6</ele>
        <time>2022-02-12T09:19:30Z</time>
      </trkpt>
      <trkpt lat="42.86559" lon="0.26176">
        <ele>1923.6</ele>
        <time>2022-02-12T09:19:32Z</time>
      </trkpt>
      <trkpt lat="42.8656" lon="0.26175">
        <ele>1924.6</ele>
        <time>2022-02-12T09:19:35Z</time>
      </trkpt>
      <trkpt lat="42.86563" lon="0.26173">
        <ele>1925.6</ele>
        <time>2022-02-12T09:19:41Z</time>
      </trkpt>
      <trkpt lat="42.86564" lon="0.26172">
        <ele>1925.8</ele>
        <time>2022-02-12T09:19:42Z</time>
      </trkpt>
      <trkpt lat="42.86567" lon="0.26171">
        <ele>1926.8</ele>
        <time>2022-02-12T09:19:47Z</time>
      </trkpt>
      <trkpt lat="42.86567" lon="0.2617">
        <ele>1927</ele>
        <time>2022-02-12T09:19:48Z</time>
      </trkpt>
      <trkpt lat="42.86569" lon="0.26169">
        <ele>1928</ele>
        <time>2022-02-12T09:19:51Z</time>
      </trkpt>
      <trkpt lat="42.86571" lon="0.26168">
        <ele>1928.6</ele>
        <time>2022-02-12T09:19:55Z</time>
      </trkpt>
      <trkpt lat="42.86573" lon="0.26167">
        <ele>1929</ele>
        <time>2022-02-12T09:19:58Z</time>
      </trkpt>
      <trkpt lat="42.86574" lon="0.26166">
        <ele>1929.4</ele>
        <time>2022-02-12T09:20:00Z</time>
      </trkpt>
      <trkpt lat="42.86576" lon="0.26166">
        <ele>1930.2</ele>
        <time>2022-02-12T09:20:03Z</time>
      </trkpt>
      <trkpt lat="42.86579" lon="0.26168">
        <ele>1930.8</ele>
        <time>2022-02-12T09:20:07Z</time>
      </trkpt>
      <trkpt lat="42.86581" lon="0.26171">
        <ele>1930.8</ele>
        <time>2022-02-12T09:20:11Z</time>
      </trkpt>
      <trkpt lat="42.86581" lon="0.26173">
        <ele>1931</ele>
        <time>2022-02-12T09:20:13Z</time>
      </trkpt>
      <trkpt lat="42.86582" lon="0.26175">
        <ele>1931.4</ele>
        <time>2022-02-12T09:20:15Z</time>
      </trkpt>
      <trkpt lat="42.86581" lon="0.26176">
        <ele>1931.6</ele>
        <time>2022-02-12T09:20:16Z</time>
      </trkpt>
      <trkpt lat="42.86582" lon="0.26177">
        <ele>1931.8</ele>
        <time>2022-02-12T09:20:18Z</time>
      </trkpt>
      <trkpt lat="42.86582" lon="0.26179">
        <ele>1932.4</ele>
        <time>2022-02-12T09:20:20Z</time>
      </trkpt>
      <trkpt lat="42.86583" lon="0.26183">
        <ele>1933.2</ele>
        <time>2022-02-12T09:20:25Z</time>
      </trkpt>
      <trkpt lat="42.86584" lon="0.26184">
        <ele>1933.6</ele>
        <time>2022-02-12T09:20:27Z</time>
      </trkpt>
      <trkpt lat="42.86586" lon="0.26187">
        <ele>1934.6</ele>
        <time>2022-02-12T09:20:32Z</time>
      </trkpt>
      <trkpt lat="42.86592" lon="0.26189">
        <ele>1935.8</ele>
        <time>2022-02-12T09:20:39Z</time>
      </trkpt>
      <trkpt lat="42.86595" lon="0.2619">
        <ele>1936.4</ele>
        <time>2022-02-12T09:20:44Z</time>
      </trkpt>
      <trkpt lat="42.86596" lon="0.2619">
        <ele>1936.6</ele>
        <time>2022-02-12T09:20:46Z</time>
      </trkpt>
      <trkpt lat="42.86598" lon="0.2619">
        <ele>1936.8</ele>
        <time>2022-02-12T09:20:48Z</time>
      </trkpt>
      <trkpt lat="42.866" lon="0.2619">
        <ele>1937.4</ele>
        <time>2022-02-12T09:20:52Z</time>
      </trkpt>
      <trkpt lat="42.86604" lon="0.26191">
        <ele>1937.8</ele>
        <time>2022-02-12T09:20:57Z</time>
      </trkpt>
      <trkpt lat="42.86605" lon="0.26191">
        <ele>1938.2</ele>
        <time>2022-02-12T09:20:59Z</time>
      </trkpt>
      <trkpt lat="42.86608" lon="0.26191">
        <ele>1938.8</ele>
        <time>2022-02-12T09:21:04Z</time>
      </trkpt>
      <trkpt lat="42.86609" lon="0.26191">
        <ele>1938.8</ele>
        <time>2022-02-12T09:21:05Z</time>
      </trkpt>
      <trkpt lat="42.86612" lon="0.2619">
        <ele>1939.6</ele>
        <time>2022-02-12T09:21:10Z</time>
      </trkpt>
      <trkpt lat="42.86613" lon="0.2619">
        <ele>1939.8</ele>
        <time>2022-02-12T09:21:11Z</time>
      </trkpt>
      <trkpt lat="42.86616" lon="0.2619">
        <ele>1940.6</ele>
        <time>2022-02-12T09:21:16Z</time>
      </trkpt>
      <trkpt lat="42.86617" lon="0.26189">
        <ele>1941</ele>
        <time>2022-02-12T09:21:17Z</time>
      </trkpt>
      <trkpt lat="42.86619" lon="0.26187">
        <ele>1942</ele>
        <time>2022-02-12T09:21:21Z</time>
      </trkpt>
      <trkpt lat="42.86619" lon="0.26186">
        <ele>1942.2</ele>
        <time>2022-02-12T09:21:22Z</time>
      </trkpt>
      <trkpt lat="42.86621" lon="0.26183">
        <ele>1942.6</ele>
        <time>2022-02-12T09:21:26Z</time>
      </trkpt>
      <trkpt lat="42.86623" lon="0.26181">
        <ele>1943.4</ele>
        <time>2022-02-12T09:21:28Z</time>
      </trkpt>
      <trkpt lat="42.86624" lon="0.26179">
        <ele>1943.8</ele>
        <time>2022-02-12T09:21:31Z</time>
      </trkpt>
      <trkpt lat="42.86627" lon="0.26178">
        <ele>1944.4</ele>
        <time>2022-02-12T09:21:36Z</time>
      </trkpt>
      <trkpt lat="42.86627" lon="0.26179">
        <ele>1944.6</ele>
        <time>2022-02-12T09:21:37Z</time>
      </trkpt>
      <trkpt lat="42.86629" lon="0.26182">
        <ele>1945.6</ele>
        <time>2022-02-12T09:21:42Z</time>
      </trkpt>
      <trkpt lat="42.86629" lon="0.26183">
        <ele>1945.6</ele>
        <time>2022-02-12T09:21:43Z</time>
      </trkpt>
      <trkpt lat="42.86629" lon="0.26185">
        <ele>1946</ele>
        <time>2022-02-12T09:21:50Z</time>
      </trkpt>
      <trkpt lat="42.86628" lon="0.26186">
        <ele>1946.4</ele>
        <time>2022-02-12T09:21:58Z</time>
      </trkpt>
      <trkpt lat="42.86634" lon="0.2619">
        <ele>1946.6</ele>
        <time>2022-02-12T09:22:04Z</time>
      </trkpt>
      <trkpt lat="42.86634" lon="0.26191">
        <ele>1946.6</ele>
        <time>2022-02-12T09:22:05Z</time>
      </trkpt>
      <trkpt lat="42.86639" lon="0.26197">
        <ele>1947.6</ele>
        <time>2022-02-12T09:22:12Z</time>
      </trkpt>
      <trkpt lat="42.8664" lon="0.26197">
        <ele>1947.8</ele>
        <time>2022-02-12T09:22:13Z</time>
      </trkpt>
      <trkpt lat="42.86643" lon="0.26204">
        <ele>1948.8</ele>
        <time>2022-02-12T09:22:20Z</time>
      </trkpt>
      <trkpt lat="42.86643" lon="0.26205">
        <ele>1949.2</ele>
        <time>2022-02-12T09:22:21Z</time>
      </trkpt>
      <trkpt lat="42.86645" lon="0.26207">
        <ele>1949.4</ele>
        <time>2022-02-12T09:22:24Z</time>
      </trkpt>
      <trkpt lat="42.86646" lon="0.26208">
        <ele>1949.8</ele>
        <time>2022-02-12T09:22:26Z</time>
      </trkpt>
      <trkpt lat="42.86646" lon="0.26209">
        <ele>1950</ele>
        <time>2022-02-12T09:22:27Z</time>
      </trkpt>
      <trkpt lat="42.86647" lon="0.26214">
        <ele>1951</ele>
        <time>2022-02-12T09:22:33Z</time>
      </trkpt>
      <trkpt lat="42.86646" lon="0.26221">
        <ele>1952.4</ele>
        <time>2022-02-12T09:22:39Z</time>
      </trkpt>
      <trkpt lat="42.86646" lon="0.26222">
        <ele>1952.6</ele>
        <time>2022-02-12T09:22:40Z</time>
      </trkpt>
      <trkpt lat="42.86648" lon="0.26224">
        <ele>1953.4</ele>
        <time>2022-02-12T09:22:44Z</time>
      </trkpt>
      <trkpt lat="42.86649" lon="0.26225">
        <ele>1954</ele>
        <time>2022-02-12T09:22:46Z</time>
      </trkpt>
      <trkpt lat="42.86651" lon="0.26225">
        <ele>1954.6</ele>
        <time>2022-02-12T09:22:48Z</time>
      </trkpt>
      <trkpt lat="42.86655" lon="0.26224">
        <ele>1955.4</ele>
        <time>2022-02-12T09:22:54Z</time>
      </trkpt>
      <trkpt lat="42.86656" lon="0.26224">
        <ele>1955.6</ele>
        <time>2022-02-12T09:22:55Z</time>
      </trkpt>
      <trkpt lat="42.86658" lon="0.26223">
        <ele>1956</ele>
        <time>2022-02-12T09:22:59Z</time>
      </trkpt>
      <trkpt lat="42.86661" lon="0.26223">
        <ele>1956.8</ele>
        <time>2022-02-12T09:23:02Z</time>
      </trkpt>
      <trkpt lat="42.86663" lon="0.26222">
        <ele>1957.2</ele>
        <time>2022-02-12T09:23:05Z</time>
      </trkpt>
      <trkpt lat="42.86665" lon="0.2622">
        <ele>1957.8</ele>
        <time>2022-02-12T09:23:09Z</time>
      </trkpt>
      <trkpt lat="42.86666" lon="0.26218">
        <ele>1958.6</ele>
        <time>2022-02-12T09:23:12Z</time>
      </trkpt>
      <trkpt lat="42.86667" lon="0.26214">
        <ele>1959</ele>
        <time>2022-02-12T09:23:16Z</time>
      </trkpt>
      <trkpt lat="42.86667" lon="0.26214">
        <ele>1959</ele>
        <time>2022-02-12T09:23:17Z</time>
      </trkpt>
      <trkpt lat="42.86668" lon="0.26211">
        <ele>1959.6</ele>
        <time>2022-02-12T09:23:20Z</time>
      </trkpt>
      <trkpt lat="42.86669" lon="0.2621">
        <ele>1959.8</ele>
        <time>2022-02-12T09:23:22Z</time>
      </trkpt>
      <trkpt lat="42.8667" lon="0.26209">
        <ele>1960</ele>
        <time>2022-02-12T09:23:24Z</time>
      </trkpt>
      <trkpt lat="42.86672" lon="0.26206">
        <ele>1960.2</ele>
        <time>2022-02-12T09:23:29Z</time>
      </trkpt>
      <trkpt lat="42.86674" lon="0.26203">
        <ele>1961.2</ele>
        <time>2022-02-12T09:23:33Z</time>
      </trkpt>
      <trkpt lat="42.86677" lon="0.26202">
        <ele>1962</ele>
        <time>2022-02-12T09:23:37Z</time>
      </trkpt>
      <trkpt lat="42.86677" lon="0.26201">
        <ele>1962.2</ele>
        <time>2022-02-12T09:23:38Z</time>
      </trkpt>
      <trkpt lat="42.86679" lon="0.26199">
        <ele>1962.6</ele>
        <time>2022-02-12T09:23:42Z</time>
      </trkpt>
      <trkpt lat="42.86682" lon="0.26197">
        <ele>1963.4</ele>
        <time>2022-02-12T09:23:47Z</time>
      </trkpt>
      <trkpt lat="42.86683" lon="0.26196">
        <ele>1963.8</ele>
        <time>2022-02-12T09:23:49Z</time>
      </trkpt>
      <trkpt lat="42.86685" lon="0.26195">
        <ele>1964.6</ele>
        <time>2022-02-12T09:23:52Z</time>
      </trkpt>
      <trkpt lat="42.86687" lon="0.26194">
        <ele>1965</ele>
        <time>2022-02-12T09:23:55Z</time>
      </trkpt>
      <trkpt lat="42.86689" lon="0.26192">
        <ele>1965.8</ele>
        <time>2022-02-12T09:23:59Z</time>
      </trkpt>
      <trkpt lat="42.8669" lon="0.26194">
        <ele>1966.2</ele>
        <time>2022-02-12T09:24:00Z</time>
      </trkpt>
      <trkpt lat="42.86692" lon="0.26196">
        <ele>1966.6</ele>
        <time>2022-02-12T09:24:03Z</time>
      </trkpt>
      <trkpt lat="42.86692" lon="0.26197">
        <ele>1966.6</ele>
        <time>2022-02-12T09:24:04Z</time>
      </trkpt>
      <trkpt lat="42.86694" lon="0.26201">
        <ele>1966.4</ele>
        <time>2022-02-12T09:24:08Z</time>
      </trkpt>
      <trkpt lat="42.86694" lon="0.26202">
        <ele>1967</ele>
        <time>2022-02-12T09:24:10Z</time>
      </trkpt>
      <trkpt lat="42.86695" lon="0.26205">
        <ele>1967.2</ele>
        <time>2022-02-12T09:24:13Z</time>
      </trkpt>
      <trkpt lat="42.86695" lon="0.26206">
        <ele>1967.6</ele>
        <time>2022-02-12T09:24:15Z</time>
      </trkpt>
      <trkpt lat="42.86696" lon="0.26209">
        <ele>1968</ele>
        <time>2022-02-12T09:24:18Z</time>
      </trkpt>
      <trkpt lat="42.86698" lon="0.26213">
        <ele>1969</ele>
        <time>2022-02-12T09:24:24Z</time>
      </trkpt>
      <trkpt lat="42.86699" lon="0.26215">
        <ele>1969</ele>
        <time>2022-02-12T09:24:26Z</time>
      </trkpt>
      <trkpt lat="42.867" lon="0.26217">
        <ele>1969.4</ele>
        <time>2022-02-12T09:24:29Z</time>
      </trkpt>
      <trkpt lat="42.86702" lon="0.2622">
        <ele>1970.2</ele>
        <time>2022-02-12T09:24:33Z</time>
      </trkpt>
      <trkpt lat="42.86703" lon="0.2622">
        <ele>1970.6</ele>
        <time>2022-02-12T09:24:34Z</time>
      </trkpt>
      <trkpt lat="42.86706" lon="0.26222">
        <ele>1971.2</ele>
        <time>2022-02-12T09:24:41Z</time>
      </trkpt>
      <trkpt lat="42.86708" lon="0.26222">
        <ele>1971.8</ele>
        <time>2022-02-12T09:24:44Z</time>
      </trkpt>
      <trkpt lat="42.8671" lon="0.26223">
        <ele>1972.4</ele>
        <time>2022-02-12T09:24:49Z</time>
      </trkpt>
      <trkpt lat="42.86711" lon="0.26224">
        <ele>1972.6</ele>
        <time>2022-02-12T09:24:52Z</time>
      </trkpt>
      <trkpt lat="42.86711" lon="0.26224">
        <ele>1973</ele>
        <time>2022-02-12T09:24:59Z</time>
      </trkpt>
      <trkpt lat="42.8671" lon="0.26224">
        <ele>1973.4</ele>
        <time>2022-02-12T09:25:04Z</time>
      </trkpt>
      <trkpt lat="42.8671" lon="0.26224">
        <ele>1973.6</ele>
        <time>2022-02-12T09:25:07Z</time>
      </trkpt>
      <trkpt lat="42.8671" lon="0.26224">
        <ele>1973.6</ele>
        <time>2022-02-12T09:25:13Z</time>
      </trkpt>
      <trkpt lat="42.86711" lon="0.26224">
        <ele>1973.4</ele>
        <time>2022-02-12T09:25:18Z</time>
      </trkpt>
      <trkpt lat="42.86711" lon="0.26223">
        <ele>1972.8</ele>
        <time>2022-02-12T09:25:25Z</time>
      </trkpt>
      <trkpt lat="42.86712" lon="0.26223">
        <ele>1973</ele>
        <time>2022-02-12T09:25:26Z</time>
      </trkpt>
      <trkpt lat="42.86715" lon="0.26222">
        <ele>1973</ele>
        <time>2022-02-12T09:25:33Z</time>
      </trkpt>
      <trkpt lat="42.86712" lon="0.26223">
        <ele>1972.8</ele>
        <time>2022-02-12T09:25:38Z</time>
      </trkpt>
      <trkpt lat="42.86712" lon="0.26223">
        <ele>1972.8</ele>
        <time>2022-02-12T09:25:41Z</time>
      </trkpt>
      <trkpt lat="42.86712" lon="0.26223">
        <ele>1972.6</ele>
        <time>2022-02-12T09:25:50Z</time>
      </trkpt>
      <trkpt lat="42.86712" lon="0.26223">
        <ele>1972.8</ele>
        <time>2022-02-12T09:25:54Z</time>
      </trkpt>
      <trkpt lat="42.86713" lon="0.26224">
        <ele>1973.2</ele>
        <time>2022-02-12T09:25:58Z</time>
      </trkpt>
      <trkpt lat="42.86712" lon="0.26225">
        <ele>1972.8</ele>
        <time>2022-02-12T09:26:06Z</time>
      </trkpt>
      <trkpt lat="42.86712" lon="0.26225">
        <ele>1972.8</ele>
        <time>2022-02-12T09:26:09Z</time>
      </trkpt>
      <trkpt lat="42.86714" lon="0.26223">
        <ele>1972.4</ele>
        <time>2022-02-12T09:26:12Z</time>
      </trkpt>
      <trkpt lat="42.86714" lon="0.26223">
        <ele>1972.2</ele>
        <time>2022-02-12T09:26:13Z</time>
      </trkpt>
      <trkpt lat="42.86715" lon="0.26223">
        <ele>1972</ele>
        <time>2022-02-12T09:26:22Z</time>
      </trkpt>
      <trkpt lat="42.86714" lon="0.26223">
        <ele>1972</ele>
        <time>2022-02-12T09:26:25Z</time>
      </trkpt>
      <trkpt lat="42.86714" lon="0.26222">
        <ele>1972.4</ele>
        <time>2022-02-12T09:26:34Z</time>
      </trkpt>
      <trkpt lat="42.86713" lon="0.26221">
        <ele>1972.4</ele>
        <time>2022-02-12T09:26:42Z</time>
      </trkpt>
      <trkpt lat="42.86712" lon="0.26221">
        <ele>1972.4</ele>
        <time>2022-02-12T09:26:45Z</time>
      </trkpt>
      <trkpt lat="42.86713" lon="0.26223">
        <ele>1972.4</ele>
        <time>2022-02-12T09:26:49Z</time>
      </trkpt>
      <trkpt lat="42.86716" lon="0.26224">
        <ele>1972.8</ele>
        <time>2022-02-12T09:26:53Z</time>
      </trkpt>
      <trkpt lat="42.86719" lon="0.26225">
        <ele>1973.2</ele>
        <time>2022-02-12T09:26:57Z</time>
      </trkpt>
      <trkpt lat="42.86721" lon="0.26226">
        <ele>1973.4</ele>
        <time>2022-02-12T09:26:59Z</time>
      </trkpt>
      <trkpt lat="42.86725" lon="0.26228">
        <ele>1974.4</ele>
        <time>2022-02-12T09:27:04Z</time>
      </trkpt>
      <trkpt lat="42.86726" lon="0.26228">
        <ele>1974.6</ele>
        <time>2022-02-12T09:27:05Z</time>
      </trkpt>
      <trkpt lat="42.86728" lon="0.26229">
        <ele>1975</ele>
        <time>2022-02-12T09:27:08Z</time>
      </trkpt>
      <trkpt lat="42.86729" lon="0.26229">
        <ele>1975.4</ele>
        <time>2022-02-12T09:27:10Z</time>
      </trkpt>
      <trkpt lat="42.8673" lon="0.26229">
        <ele>1975.8</ele>
        <time>2022-02-12T09:27:11Z</time>
      </trkpt>
      <trkpt lat="42.86736" lon="0.2623">
        <ele>1976.6</ele>
        <time>2022-02-12T09:27:18Z</time>
      </trkpt>
      <trkpt lat="42.86736" lon="0.2623">
        <ele>1977.2</ele>
        <time>2022-02-12T09:27:19Z</time>
      </trkpt>
      <trkpt lat="42.86739" lon="0.2623">
        <ele>1978.2</ele>
        <time>2022-02-12T09:27:23Z</time>
      </trkpt>
      <trkpt lat="42.86741" lon="0.26231">
        <ele>1978.4</ele>
        <time>2022-02-12T09:27:25Z</time>
      </trkpt>
      <trkpt lat="42.86743" lon="0.26232">
        <ele>1978.8</ele>
        <time>2022-02-12T09:27:28Z</time>
      </trkpt>
      <trkpt lat="42.86744" lon="0.26233">
        <ele>1979.2</ele>
        <time>2022-02-12T09:27:31Z</time>
      </trkpt>
      <trkpt lat="42.86744" lon="0.26234">
        <ele>1979.2</ele>
        <time>2022-02-12T09:27:32Z</time>
      </trkpt>
      <trkpt lat="42.86745" lon="0.26234">
        <ele>1979.6</ele>
        <time>2022-02-12T09:27:33Z</time>
      </trkpt>
      <trkpt lat="42.86747" lon="0.26234">
        <ele>1980.4</ele>
        <time>2022-02-12T09:27:37Z</time>
      </trkpt>
      <trkpt lat="42.86749" lon="0.26234">
        <ele>1980.8</ele>
        <time>2022-02-12T09:27:39Z</time>
      </trkpt>
      <trkpt lat="42.86751" lon="0.26234">
        <ele>1981.4</ele>
        <time>2022-02-12T09:27:43Z</time>
      </trkpt>
      <trkpt lat="42.86753" lon="0.26233">
        <ele>1981.6</ele>
        <time>2022-02-12T09:27:45Z</time>
      </trkpt>
      <trkpt lat="42.86755" lon="0.26231">
        <ele>1982.6</ele>
        <time>2022-02-12T09:27:48Z</time>
      </trkpt>
      <trkpt lat="42.86757" lon="0.26227">
        <ele>1983.4</ele>
        <time>2022-02-12T09:27:53Z</time>
      </trkpt>
      <trkpt lat="42.86757" lon="0.26226">
        <ele>1983.8</ele>
        <time>2022-02-12T09:27:54Z</time>
      </trkpt>
      <trkpt lat="42.86758" lon="0.26222">
        <ele>1984.6</ele>
        <time>2022-02-12T09:27:58Z</time>
      </trkpt>
      <trkpt lat="42.86759" lon="0.26219">
        <ele>1984.8</ele>
        <time>2022-02-12T09:28:01Z</time>
      </trkpt>
      <trkpt lat="42.86759" lon="0.26216">
        <ele>1985</ele>
        <time>2022-02-12T09:28:03Z</time>
      </trkpt>
      <trkpt lat="42.8676" lon="0.26213">
        <ele>1985.6</ele>
        <time>2022-02-12T09:28:06Z</time>
      </trkpt>
      <trkpt lat="42.86761" lon="0.26211">
        <ele>1986</ele>
        <time>2022-02-12T09:28:08Z</time>
      </trkpt>
      <trkpt lat="42.86761" lon="0.26209">
        <ele>1986.2</ele>
        <time>2022-02-12T09:28:10Z</time>
      </trkpt>
      <trkpt lat="42.86762" lon="0.26207">
        <ele>1986.2</ele>
        <time>2022-02-12T09:28:12Z</time>
      </trkpt>
      <trkpt lat="42.86763" lon="0.26204">
        <ele>1987</ele>
        <time>2022-02-12T09:28:16Z</time>
      </trkpt>
      <trkpt lat="42.86763" lon="0.26203">
        <ele>1987.2</ele>
        <time>2022-02-12T09:28:17Z</time>
      </trkpt>
      <trkpt lat="42.86765" lon="0.262">
        <ele>1988</ele>
        <time>2022-02-12T09:28:23Z</time>
      </trkpt>
      <trkpt lat="42.86765" lon="0.262">
        <ele>1988.2</ele>
        <time>2022-02-12T09:28:24Z</time>
      </trkpt>
      <trkpt lat="42.86764" lon="0.26199">
        <ele>1988.6</ele>
        <time>2022-02-12T09:28:29Z</time>
      </trkpt>
      <trkpt lat="42.86768" lon="0.26199">
        <ele>1988.8</ele>
        <time>2022-02-12T09:28:34Z</time>
      </trkpt>
      <trkpt lat="42.86772" lon="0.26201">
        <ele>1989.4</ele>
        <time>2022-02-12T09:28:38Z</time>
      </trkpt>
      <trkpt lat="42.86773" lon="0.26201">
        <ele>1989.8</ele>
        <time>2022-02-12T09:28:40Z</time>
      </trkpt>
      <trkpt lat="42.86776" lon="0.26203">
        <ele>1990.6</ele>
        <time>2022-02-12T09:28:44Z</time>
      </trkpt>
      <trkpt lat="42.86777" lon="0.26203">
        <ele>1991.2</ele>
        <time>2022-02-12T09:28:46Z</time>
      </trkpt>
      <trkpt lat="42.86778" lon="0.26204">
        <ele>1991.6</ele>
        <time>2022-02-12T09:28:48Z</time>
      </trkpt>
      <trkpt lat="42.86781" lon="0.26206">
        <ele>1992.2</ele>
        <time>2022-02-12T09:28:52Z</time>
      </trkpt>
      <trkpt lat="42.86783" lon="0.26206">
        <ele>1992.8</ele>
        <time>2022-02-12T09:28:55Z</time>
      </trkpt>
      <trkpt lat="42.86785" lon="0.26206">
        <ele>1993.6</ele>
        <time>2022-02-12T09:28:58Z</time>
      </trkpt>
      <trkpt lat="42.86786" lon="0.26206">
        <ele>1993.8</ele>
        <time>2022-02-12T09:28:59Z</time>
      </trkpt>
      <trkpt lat="42.86789" lon="0.26205">
        <ele>1995</ele>
        <time>2022-02-12T09:29:04Z</time>
      </trkpt>
      <trkpt lat="42.8679" lon="0.26204">
        <ele>1995.2</ele>
        <time>2022-02-12T09:29:05Z</time>
      </trkpt>
      <trkpt lat="42.86793" lon="0.262">
        <ele>1996.2</ele>
        <time>2022-02-12T09:29:11Z</time>
      </trkpt>
      <trkpt lat="42.86795" lon="0.26198">
        <ele>1997.2</ele>
        <time>2022-02-12T09:29:14Z</time>
      </trkpt>
      <trkpt lat="42.86796" lon="0.26197">
        <ele>1997.6</ele>
        <time>2022-02-12T09:29:16Z</time>
      </trkpt>
      <trkpt lat="42.86798" lon="0.26196">
        <ele>1998.4</ele>
        <time>2022-02-12T09:29:20Z</time>
      </trkpt>
      <trkpt lat="42.86799" lon="0.26196">
        <ele>1999</ele>
        <time>2022-02-12T09:29:22Z</time>
      </trkpt>
      <trkpt lat="42.86802" lon="0.26193">
        <ele>1999.4</ele>
        <time>2022-02-12T09:29:27Z</time>
      </trkpt>
      <trkpt lat="42.86803" lon="0.26193">
        <ele>2000</ele>
        <time>2022-02-12T09:29:29Z</time>
      </trkpt>
      <trkpt lat="42.86805" lon="0.26191">
        <ele>2000.6</ele>
        <time>2022-02-12T09:29:33Z</time>
      </trkpt>
      <trkpt lat="42.86806" lon="0.2619">
        <ele>2000.8</ele>
        <time>2022-02-12T09:29:34Z</time>
      </trkpt>
      <trkpt lat="42.86811" lon="0.26187">
        <ele>2001.4</ele>
        <time>2022-02-12T09:29:40Z</time>
      </trkpt>
      <trkpt lat="42.86812" lon="0.26187">
        <ele>2001.8</ele>
        <time>2022-02-12T09:29:41Z</time>
      </trkpt>
      <trkpt lat="42.86816" lon="0.26186">
        <ele>2002.4</ele>
        <time>2022-02-12T09:29:47Z</time>
      </trkpt>
      <trkpt lat="42.86818" lon="0.26185">
        <ele>2002.8</ele>
        <time>2022-02-12T09:29:49Z</time>
      </trkpt>
      <trkpt lat="42.8682" lon="0.26185">
        <ele>2004</ele>
        <time>2022-02-12T09:29:52Z</time>
      </trkpt>
      <trkpt lat="42.86822" lon="0.26186">
        <ele>2005</ele>
        <time>2022-02-12T09:29:56Z</time>
      </trkpt>
      <trkpt lat="42.86822" lon="0.26186">
        <ele>2005.6</ele>
        <time>2022-02-12T09:29:59Z</time>
      </trkpt>
      <trkpt lat="42.86821" lon="0.26183">
        <ele>2006.6</ele>
        <time>2022-02-12T09:30:03Z</time>
      </trkpt>
      <trkpt lat="42.86821" lon="0.26182">
        <ele>2007.4</ele>
        <time>2022-02-12T09:30:05Z</time>
      </trkpt>
      <trkpt lat="42.86821" lon="0.2618">
        <ele>2007.8</ele>
        <time>2022-02-12T09:30:07Z</time>
      </trkpt>
      <trkpt lat="42.8682" lon="0.26177">
        <ele>2008.2</ele>
        <time>2022-02-12T09:30:11Z</time>
      </trkpt>
      <trkpt lat="42.8682" lon="0.26175">
        <ele>2008.8</ele>
        <time>2022-02-12T09:30:13Z</time>
      </trkpt>
      <trkpt lat="42.8682" lon="0.26174">
        <ele>2009.2</ele>
        <time>2022-02-12T09:30:15Z</time>
      </trkpt>
      <trkpt lat="42.8682" lon="0.26172">
        <ele>2009.8</ele>
        <time>2022-02-12T09:30:17Z</time>
      </trkpt>
      <trkpt lat="42.8682" lon="0.2617">
        <ele>2010</ele>
        <time>2022-02-12T09:30:19Z</time>
      </trkpt>
      <trkpt lat="42.86821" lon="0.26166">
        <ele>2011</ele>
        <time>2022-02-12T09:30:25Z</time>
      </trkpt>
      <trkpt lat="42.86822" lon="0.26165">
        <ele>2011</ele>
        <time>2022-02-12T09:30:26Z</time>
      </trkpt>
      <trkpt lat="42.86824" lon="0.26164">
        <ele>2012</ele>
        <time>2022-02-12T09:30:31Z</time>
      </trkpt>
      <trkpt lat="42.86824" lon="0.26163">
        <ele>2012.2</ele>
        <time>2022-02-12T09:30:32Z</time>
      </trkpt>
      <trkpt lat="42.86827" lon="0.26162">
        <ele>2012.6</ele>
        <time>2022-02-12T09:30:38Z</time>
      </trkpt>
      <trkpt lat="42.86829" lon="0.26161">
        <ele>2013.2</ele>
        <time>2022-02-12T09:30:41Z</time>
      </trkpt>
      <trkpt lat="42.86832" lon="0.2616">
        <ele>2013.8</ele>
        <time>2022-02-12T09:30:46Z</time>
      </trkpt>
      <trkpt lat="42.86834" lon="0.26161">
        <ele>2014.4</ele>
        <time>2022-02-12T09:30:48Z</time>
      </trkpt>
      <trkpt lat="42.86838" lon="0.26161">
        <ele>2015.2</ele>
        <time>2022-02-12T09:30:53Z</time>
      </trkpt>
      <trkpt lat="42.86839" lon="0.26161">
        <ele>2015.2</ele>
        <time>2022-02-12T09:30:55Z</time>
      </trkpt>
      <trkpt lat="42.86841" lon="0.26162">
        <ele>2015.4</ele>
        <time>2022-02-12T09:30:58Z</time>
      </trkpt>
      <trkpt lat="42.86842" lon="0.26162">
        <ele>2015.8</ele>
        <time>2022-02-12T09:30:59Z</time>
      </trkpt>
      <trkpt lat="42.86843" lon="0.2616">
        <ele>2016.4</ele>
        <time>2022-02-12T09:31:03Z</time>
      </trkpt>
      <trkpt lat="42.86843" lon="0.26157">
        <ele>2018</ele>
        <time>2022-02-12T09:31:06Z</time>
      </trkpt>
      <trkpt lat="42.86844" lon="0.26153">
        <ele>2019</ele>
        <time>2022-02-12T09:31:11Z</time>
      </trkpt>
      <trkpt lat="42.86844" lon="0.26151">
        <ele>2019.4</ele>
        <time>2022-02-12T09:31:13Z</time>
      </trkpt>
      <trkpt lat="42.86846" lon="0.26147">
        <ele>2020</ele>
        <time>2022-02-12T09:31:18Z</time>
      </trkpt>
      <trkpt lat="42.86847" lon="0.26147">
        <ele>2020.2</ele>
        <time>2022-02-12T09:31:20Z</time>
      </trkpt>
      <trkpt lat="42.86849" lon="0.26146">
        <ele>2021.2</ele>
        <time>2022-02-12T09:31:24Z</time>
      </trkpt>
      <trkpt lat="42.8685" lon="0.26145">
        <ele>2021.6</ele>
        <time>2022-02-12T09:31:26Z</time>
      </trkpt>
      <trkpt lat="42.86852" lon="0.26144">
        <ele>2022.2</ele>
        <time>2022-02-12T09:31:29Z</time>
      </trkpt>
      <trkpt lat="42.86853" lon="0.26143">
        <ele>2022.8</ele>
        <time>2022-02-12T09:31:32Z</time>
      </trkpt>
      <trkpt lat="42.86853" lon="0.2614">
        <ele>2023.4</ele>
        <time>2022-02-12T09:31:35Z</time>
      </trkpt>
      <trkpt lat="42.86854" lon="0.26137">
        <ele>2024.4</ele>
        <time>2022-02-12T09:31:39Z</time>
      </trkpt>
      <trkpt lat="42.86854" lon="0.26136">
        <ele>2024.4</ele>
        <time>2022-02-12T09:31:40Z</time>
      </trkpt>
      <trkpt lat="42.86856" lon="0.26131">
        <ele>2025.4</ele>
        <time>2022-02-12T09:31:46Z</time>
      </trkpt>
      <trkpt lat="42.86857" lon="0.26131">
        <ele>2025.6</ele>
        <time>2022-02-12T09:31:48Z</time>
      </trkpt>
      <trkpt lat="42.86858" lon="0.2613">
        <ele>2026</ele>
        <time>2022-02-12T09:31:51Z</time>
      </trkpt>
      <trkpt lat="42.8686" lon="0.2613">
        <ele>2026.8</ele>
        <time>2022-02-12T09:31:54Z</time>
      </trkpt>
      <trkpt lat="42.86863" lon="0.26131">
        <ele>2027.6</ele>
        <time>2022-02-12T09:31:59Z</time>
      </trkpt>
      <trkpt lat="42.86865" lon="0.26132">
        <ele>2027.8</ele>
        <time>2022-02-12T09:32:01Z</time>
      </trkpt>
      <trkpt lat="42.86868" lon="0.26134">
        <ele>2028.8</ele>
        <time>2022-02-12T09:32:06Z</time>
      </trkpt>
      <trkpt lat="42.86871" lon="0.26136">
        <ele>2030.2</ele>
        <time>2022-02-12T09:32:13Z</time>
      </trkpt>
      <trkpt lat="42.86872" lon="0.26134">
        <ele>2031.4</ele>
        <time>2022-02-12T09:32:18Z</time>
      </trkpt>
      <trkpt lat="42.86872" lon="0.2613">
        <ele>2032.4</ele>
        <time>2022-02-12T09:32:23Z</time>
      </trkpt>
      <trkpt lat="42.86872" lon="0.26129">
        <ele>2032.8</ele>
        <time>2022-02-12T09:32:24Z</time>
      </trkpt>
      <trkpt lat="42.86873" lon="0.26126">
        <ele>2033.4</ele>
        <time>2022-02-12T09:32:27Z</time>
      </trkpt>
      <trkpt lat="42.86873" lon="0.26124">
        <ele>2034</ele>
        <time>2022-02-12T09:32:29Z</time>
      </trkpt>
      <trkpt lat="42.86874" lon="0.2612">
        <ele>2034.4</ele>
        <time>2022-02-12T09:32:34Z</time>
      </trkpt>
      <trkpt lat="42.86874" lon="0.26119">
        <ele>2034.4</ele>
        <time>2022-02-12T09:32:35Z</time>
      </trkpt>
      <trkpt lat="42.86875" lon="0.26113">
        <ele>2034.8</ele>
        <time>2022-02-12T09:32:41Z</time>
      </trkpt>
      <trkpt lat="42.86875" lon="0.2611">
        <ele>2035.6</ele>
        <time>2022-02-12T09:32:44Z</time>
      </trkpt>
      <trkpt lat="42.86876" lon="0.26109">
        <ele>2035.8</ele>
        <time>2022-02-12T09:32:47Z</time>
      </trkpt>
      <trkpt lat="42.86875" lon="0.26109">
        <ele>2036.4</ele>
        <time>2022-02-12T09:32:58Z</time>
      </trkpt>
      <trkpt lat="42.86875" lon="0.26109">
        <ele>2036.4</ele>
        <time>2022-02-12T09:32:59Z</time>
      </trkpt>
      <trkpt lat="42.86875" lon="0.26109">
        <ele>2036</ele>
        <time>2022-02-12T09:33:07Z</time>
      </trkpt>
      <trkpt lat="42.86875" lon="0.26109">
        <ele>2036.2</ele>
        <time>2022-02-12T09:33:13Z</time>
      </trkpt>
      <trkpt lat="42.86875" lon="0.26109">
        <ele>2036.2</ele>
        <time>2022-02-12T09:33:14Z</time>
      </trkpt>
      <trkpt lat="42.86875" lon="0.26109">
        <ele>2036.4</ele>
        <time>2022-02-12T09:33:18Z</time>
      </trkpt>
      <trkpt lat="42.86875" lon="0.26109">
        <ele>2036.6</ele>
        <time>2022-02-12T09:33:22Z</time>
      </trkpt>
      <trkpt lat="42.86876" lon="0.26108">
        <ele>2036.8</ele>
        <time>2022-02-12T09:33:25Z</time>
      </trkpt>
      <trkpt lat="42.86881" lon="0.26108">
        <ele>2037.8</ele>
        <time>2022-02-12T09:33:32Z</time>
      </trkpt>
      <trkpt lat="42.86882" lon="0.26107">
        <ele>2038.2</ele>
        <time>2022-02-12T09:33:34Z</time>
      </trkpt>
      <trkpt lat="42.86883" lon="0.26108">
        <ele>2038.8</ele>
        <time>2022-02-12T09:33:36Z</time>
      </trkpt>
      <trkpt lat="42.86885" lon="0.26108">
        <ele>2039.2</ele>
        <time>2022-02-12T09:33:40Z</time>
      </trkpt>
      <trkpt lat="42.86887" lon="0.26109">
        <ele>2039.8</ele>
        <time>2022-02-12T09:33:44Z</time>
      </trkpt>
      <trkpt lat="42.86889" lon="0.26109">
        <ele>2040.4</ele>
        <time>2022-02-12T09:33:47Z</time>
      </trkpt>
      <trkpt lat="42.8689" lon="0.26109">
        <ele>2041.2</ele>
        <time>2022-02-12T09:33:50Z</time>
      </trkpt>
      <trkpt lat="42.86891" lon="0.26108">
        <ele>2041.8</ele>
        <time>2022-02-12T09:33:52Z</time>
      </trkpt>
      <trkpt lat="42.86892" lon="0.26105">
        <ele>2042.2</ele>
        <time>2022-02-12T09:33:55Z</time>
      </trkpt>
      <trkpt lat="42.86892" lon="0.26102">
        <ele>2042.8</ele>
        <time>2022-02-12T09:33:58Z</time>
      </trkpt>
      <trkpt lat="42.86893" lon="0.26101">
        <ele>2043.2</ele>
        <time>2022-02-12T09:33:59Z</time>
      </trkpt>
      <trkpt lat="42.86893" lon="0.261">
        <ele>2043.4</ele>
        <time>2022-02-12T09:34:00Z</time>
      </trkpt>
      <trkpt lat="42.86893" lon="0.26097">
        <ele>2043.8</ele>
        <time>2022-02-12T09:34:03Z</time>
      </trkpt>
      <trkpt lat="42.86893" lon="0.26095">
        <ele>2044.4</ele>
        <time>2022-02-12T09:34:05Z</time>
      </trkpt>
      <trkpt lat="42.86893" lon="0.26094">
        <ele>2044.6</ele>
        <time>2022-02-12T09:34:06Z</time>
      </trkpt>
      <trkpt lat="42.86894" lon="0.2609">
        <ele>2046</ele>
        <time>2022-02-12T09:34:11Z</time>
      </trkpt>
      <trkpt lat="42.86896" lon="0.26086">
        <ele>2046.4</ele>
        <time>2022-02-12T09:34:17Z</time>
      </trkpt>
      <trkpt lat="42.86898" lon="0.26086">
        <ele>2046.6</ele>
        <time>2022-02-12T09:34:20Z</time>
      </trkpt>
      <trkpt lat="42.869" lon="0.26086">
        <ele>2047</ele>
        <time>2022-02-12T09:34:23Z</time>
      </trkpt>
      <trkpt lat="42.869" lon="0.26086">
        <ele>2047.2</ele>
        <time>2022-02-12T09:34:24Z</time>
      </trkpt>
      <trkpt lat="42.86903" lon="0.26088">
        <ele>2048</ele>
        <time>2022-02-12T09:34:27Z</time>
      </trkpt>
      <trkpt lat="42.86904" lon="0.26088">
        <ele>2048.8</ele>
        <time>2022-02-12T09:34:29Z</time>
      </trkpt>
      <trkpt lat="42.86905" lon="0.26089">
        <ele>2049.2</ele>
        <time>2022-02-12T09:34:31Z</time>
      </trkpt>
      <trkpt lat="42.86905" lon="0.26089">
        <ele>2050.2</ele>
        <time>2022-02-12T09:34:35Z</time>
      </trkpt>
      <trkpt lat="42.86907" lon="0.2609">
        <ele>2051.4</ele>
        <time>2022-02-12T09:34:39Z</time>
      </trkpt>
      <trkpt lat="42.86908" lon="0.2609">
        <ele>2051.6</ele>
        <time>2022-02-12T09:34:40Z</time>
      </trkpt>
      <trkpt lat="42.8691" lon="0.26087">
        <ele>2052.6</ele>
        <time>2022-02-12T09:34:47Z</time>
      </trkpt>
      <trkpt lat="42.86911" lon="0.26086">
        <ele>2053</ele>
        <time>2022-02-12T09:34:48Z</time>
      </trkpt>
      <trkpt lat="42.86912" lon="0.2608">
        <ele>2054</ele>
        <time>2022-02-12T09:34:54Z</time>
      </trkpt>
      <trkpt lat="42.86917" lon="0.26076">
        <ele>2054.8</ele>
        <time>2022-02-12T09:35:00Z</time>
      </trkpt>
      <trkpt lat="42.86923" lon="0.26072">
        <ele>2055.4</ele>
        <time>2022-02-12T09:35:06Z</time>
      </trkpt>
      <trkpt lat="42.86928" lon="0.26067">
        <ele>2056.4</ele>
        <time>2022-02-12T09:35:14Z</time>
      </trkpt>
      <trkpt lat="42.8693" lon="0.26066">
        <ele>2056.8</ele>
        <time>2022-02-12T09:35:20Z</time>
      </trkpt>
      <trkpt lat="42.86936" lon="0.26067">
        <ele>2057.8</ele>
        <time>2022-02-12T09:35:26Z</time>
      </trkpt>
      <trkpt lat="42.86937" lon="0.26069">
        <ele>2058.8</ele>
        <time>2022-02-12T09:35:30Z</time>
      </trkpt>
      <trkpt lat="42.86937" lon="0.2607">
        <ele>2059.2</ele>
        <time>2022-02-12T09:35:32Z</time>
      </trkpt>
      <trkpt lat="42.86936" lon="0.26073">
        <ele>2060</ele>
        <time>2022-02-12T09:35:36Z</time>
      </trkpt>
      <trkpt lat="42.86937" lon="0.26074">
        <ele>2060.4</ele>
        <time>2022-02-12T09:35:39Z</time>
      </trkpt>
      <trkpt lat="42.8694" lon="0.26075">
        <ele>2061.4</ele>
        <time>2022-02-12T09:35:42Z</time>
      </trkpt>
      <trkpt lat="42.86939" lon="0.26076">
        <ele>2062.4</ele>
        <time>2022-02-12T09:35:45Z</time>
      </trkpt>
      <trkpt lat="42.86939" lon="0.26077">
        <ele>2062.4</ele>
        <time>2022-02-12T09:35:46Z</time>
      </trkpt>
      <trkpt lat="42.86945" lon="0.26076">
        <ele>2062.8</ele>
        <time>2022-02-12T09:35:52Z</time>
      </trkpt>
      <trkpt lat="42.86945" lon="0.26076">
        <ele>2063</ele>
        <time>2022-02-12T09:35:53Z</time>
      </trkpt>
      <trkpt lat="42.86947" lon="0.26074">
        <ele>2063.6</ele>
        <time>2022-02-12T09:35:56Z</time>
      </trkpt>
      <trkpt lat="42.86947" lon="0.2607">
        <ele>2064</ele>
        <time>2022-02-12T09:35:59Z</time>
      </trkpt>
      <trkpt lat="42.86947" lon="0.26067">
        <ele>2064.8</ele>
        <time>2022-02-12T09:36:02Z</time>
      </trkpt>
      <trkpt lat="42.86947" lon="0.26063">
        <ele>2065.6</ele>
        <time>2022-02-12T09:36:05Z</time>
      </trkpt>
      <trkpt lat="42.86947" lon="0.26062">
        <ele>2065.8</ele>
        <time>2022-02-12T09:36:06Z</time>
      </trkpt>
      <trkpt lat="42.86947" lon="0.2606">
        <ele>2066</ele>
        <time>2022-02-12T09:36:08Z</time>
      </trkpt>
      <trkpt lat="42.86947" lon="0.26056">
        <ele>2066.6</ele>
        <time>2022-02-12T09:36:12Z</time>
      </trkpt>
      <trkpt lat="42.86947" lon="0.26055">
        <ele>2067</ele>
        <time>2022-02-12T09:36:14Z</time>
      </trkpt>
      <trkpt lat="42.86947" lon="0.26051">
        <ele>2068.2</ele>
        <time>2022-02-12T09:36:18Z</time>
      </trkpt>
      <trkpt lat="42.86947" lon="0.26049">
        <ele>2068.4</ele>
        <time>2022-02-12T09:36:20Z</time>
      </trkpt>
      <trkpt lat="42.86946" lon="0.26045">
        <ele>2068.8</ele>
        <time>2022-02-12T09:36:24Z</time>
      </trkpt>
      <trkpt lat="42.86946" lon="0.26044">
        <ele>2069</ele>
        <time>2022-02-12T09:36:25Z</time>
      </trkpt>
      <trkpt lat="42.86946" lon="0.26043">
        <ele>2069</ele>
        <time>2022-02-12T09:36:26Z</time>
      </trkpt>
      <trkpt lat="42.86946" lon="0.26041">
        <ele>2069.2</ele>
        <time>2022-02-12T09:36:28Z</time>
      </trkpt>
      <trkpt lat="42.86947" lon="0.26041">
        <ele>2069.4</ele>
        <time>2022-02-12T09:36:29Z</time>
      </trkpt>
      <trkpt lat="42.86947" lon="0.2604">
        <ele>2069.6</ele>
        <time>2022-02-12T09:36:30Z</time>
      </trkpt>
      <trkpt lat="42.86949" lon="0.26038">
        <ele>2070.2</ele>
        <time>2022-02-12T09:36:33Z</time>
      </trkpt>
      <trkpt lat="42.86949" lon="0.26038">
        <ele>2070.4</ele>
        <time>2022-02-12T09:36:34Z</time>
      </trkpt>
      <trkpt lat="42.8695" lon="0.26037">
        <ele>2070.6</ele>
        <time>2022-02-12T09:36:35Z</time>
      </trkpt>
      <trkpt lat="42.8695" lon="0.26037">
        <ele>2070.8</ele>
        <time>2022-02-12T09:36:36Z</time>
      </trkpt>
      <trkpt lat="42.86955" lon="0.26037">
        <ele>2071.6</ele>
        <time>2022-02-12T09:36:43Z</time>
      </trkpt>
      <trkpt lat="42.86958" lon="0.26037">
        <ele>2072.6</ele>
        <time>2022-02-12T09:36:47Z</time>
      </trkpt>
      <trkpt lat="42.86963" lon="0.26037">
        <ele>2072.8</ele>
        <time>2022-02-12T09:36:50Z</time>
      </trkpt>
      <trkpt lat="42.86965" lon="0.26039">
        <ele>2073.2</ele>
        <time>2022-02-12T09:36:55Z</time>
      </trkpt>
      <trkpt lat="42.86964" lon="0.26039">
        <ele>2073.6</ele>
        <time>2022-02-12T09:36:57Z</time>
      </trkpt>
      <trkpt lat="42.86961" lon="0.26042">
        <ele>2074.8</ele>
        <time>2022-02-12T09:37:02Z</time>
      </trkpt>
      <trkpt lat="42.86963" lon="0.26044">
        <ele>2075.8</ele>
        <time>2022-02-12T09:37:06Z</time>
      </trkpt>
      <trkpt lat="42.86964" lon="0.26044">
        <ele>2076</ele>
        <time>2022-02-12T09:37:07Z</time>
      </trkpt>
      <trkpt lat="42.86964" lon="0.26045">
        <ele>2076.2</ele>
        <time>2022-02-12T09:37:08Z</time>
      </trkpt>
      <trkpt lat="42.86966" lon="0.26044">
        <ele>2076.4</ele>
        <time>2022-02-12T09:37:12Z</time>
      </trkpt>
      <trkpt lat="42.86965" lon="0.26042">
        <ele>2077</ele>
        <time>2022-02-12T09:37:14Z</time>
      </trkpt>
      <trkpt lat="42.86966" lon="0.26039">
        <ele>2078</ele>
        <time>2022-02-12T09:37:17Z</time>
      </trkpt>
      <trkpt lat="42.86967" lon="0.26036">
        <ele>2078.6</ele>
        <time>2022-02-12T09:37:20Z</time>
      </trkpt>
      <trkpt lat="42.86968" lon="0.26034">
        <ele>2079.2</ele>
        <time>2022-02-12T09:37:23Z</time>
      </trkpt>
      <trkpt lat="42.86969" lon="0.26032">
        <ele>2079.4</ele>
        <time>2022-02-12T09:37:25Z</time>
      </trkpt>
      <trkpt lat="42.8697" lon="0.26031">
        <ele>2080.2</ele>
        <time>2022-02-12T09:37:28Z</time>
      </trkpt>
      <trkpt lat="42.8697" lon="0.26028">
        <ele>2081</ele>
        <time>2022-02-12T09:37:31Z</time>
      </trkpt>
      <trkpt lat="42.86971" lon="0.26027">
        <ele>2081.4</ele>
        <time>2022-02-12T09:37:32Z</time>
      </trkpt>
      <trkpt lat="42.86971" lon="0.26026">
        <ele>2081.8</ele>
        <time>2022-02-12T09:37:34Z</time>
      </trkpt>
      <trkpt lat="42.86972" lon="0.26022">
        <ele>2082.4</ele>
        <time>2022-02-12T09:37:38Z</time>
      </trkpt>
      <trkpt lat="42.86973" lon="0.26018">
        <ele>2083.6</ele>
        <time>2022-02-12T09:37:44Z</time>
      </trkpt>
      <trkpt lat="42.86973" lon="0.26017">
        <ele>2083.8</ele>
        <time>2022-02-12T09:37:45Z</time>
      </trkpt>
      <trkpt lat="42.86975" lon="0.26009">
        <ele>2084</ele>
        <time>2022-02-12T09:37:53Z</time>
      </trkpt>
      <trkpt lat="42.86975" lon="0.26007">
        <ele>2084.8</ele>
        <time>2022-02-12T09:37:55Z</time>
      </trkpt>
      <trkpt lat="42.86975" lon="0.26005">
        <ele>2085.4</ele>
        <time>2022-02-12T09:37:58Z</time>
      </trkpt>
      <trkpt lat="42.86976" lon="0.26002">
        <ele>2086</ele>
        <time>2022-02-12T09:38:02Z</time>
      </trkpt>
      <trkpt lat="42.86976" lon="0.26001">
        <ele>2086.2</ele>
        <time>2022-02-12T09:38:03Z</time>
      </trkpt>
      <trkpt lat="42.86976" lon="0.26">
        <ele>2086.4</ele>
        <time>2022-02-12T09:38:04Z</time>
      </trkpt>
      <trkpt lat="42.86977" lon="0.25995">
        <ele>2087.2</ele>
        <time>2022-02-12T09:38:09Z</time>
      </trkpt>
      <trkpt lat="42.86978" lon="0.25993">
        <ele>2087.4</ele>
        <time>2022-02-12T09:38:11Z</time>
      </trkpt>
      <trkpt lat="42.86979" lon="0.25987">
        <ele>2088.4</ele>
        <time>2022-02-12T09:38:18Z</time>
      </trkpt>
      <trkpt lat="42.8698" lon="0.25981">
        <ele>2089</ele>
        <time>2022-02-12T09:38:24Z</time>
      </trkpt>
      <trkpt lat="42.8698" lon="0.25978">
        <ele>2089.6</ele>
        <time>2022-02-12T09:38:27Z</time>
      </trkpt>
      <trkpt lat="42.8698" lon="0.25976">
        <ele>2090.4</ele>
        <time>2022-02-12T09:38:30Z</time>
      </trkpt>
      <trkpt lat="42.86981" lon="0.25973">
        <ele>2090.8</ele>
        <time>2022-02-12T09:38:34Z</time>
      </trkpt>
      <trkpt lat="42.86981" lon="0.25973">
        <ele>2091.2</ele>
        <time>2022-02-12T09:38:35Z</time>
      </trkpt>
      <trkpt lat="42.86984" lon="0.25976">
        <ele>2091.4</ele>
        <time>2022-02-12T09:38:40Z</time>
      </trkpt>
      <trkpt lat="42.86987" lon="0.25979">
        <ele>2091.8</ele>
        <time>2022-02-12T09:38:46Z</time>
      </trkpt>
      <trkpt lat="42.86988" lon="0.25981">
        <ele>2093</ele>
        <time>2022-02-12T09:38:49Z</time>
      </trkpt>
      <trkpt lat="42.8699" lon="0.25983">
        <ele>2093.8</ele>
        <time>2022-02-12T09:38:53Z</time>
      </trkpt>
      <trkpt lat="42.86992" lon="0.25984">
        <ele>2094.4</ele>
        <time>2022-02-12T09:38:56Z</time>
      </trkpt>
      <trkpt lat="42.86994" lon="0.25985">
        <ele>2095</ele>
        <time>2022-02-12T09:38:59Z</time>
      </trkpt>
      <trkpt lat="42.86996" lon="0.25986">
        <ele>2095.4</ele>
        <time>2022-02-12T09:39:03Z</time>
      </trkpt>
      <trkpt lat="42.86999" lon="0.25987">
        <ele>2095.6</ele>
        <time>2022-02-12T09:39:06Z</time>
      </trkpt>
      <trkpt lat="42.87001" lon="0.25988">
        <ele>2096.6</ele>
        <time>2022-02-12T09:39:10Z</time>
      </trkpt>
      <trkpt lat="42.87003" lon="0.25989">
        <ele>2097</ele>
        <time>2022-02-12T09:39:13Z</time>
      </trkpt>
      <trkpt lat="42.87007" lon="0.25992">
        <ele>2097.6</ele>
        <time>2022-02-12T09:39:19Z</time>
      </trkpt>
      <trkpt lat="42.87008" lon="0.25992">
        <ele>2097.8</ele>
        <time>2022-02-12T09:39:20Z</time>
      </trkpt>
      <trkpt lat="42.8701" lon="0.25993">
        <ele>2098.6</ele>
        <time>2022-02-12T09:39:24Z</time>
      </trkpt>
      <trkpt lat="42.87012" lon="0.25993">
        <ele>2099</ele>
        <time>2022-02-12T09:39:26Z</time>
      </trkpt>
      <trkpt lat="42.87014" lon="0.25994">
        <ele>2099.6</ele>
        <time>2022-02-12T09:39:30Z</time>
      </trkpt>
      <trkpt lat="42.87014" lon="0.25993">
        <ele>2100.6</ele>
        <time>2022-02-12T09:39:33Z</time>
      </trkpt>
      <trkpt lat="42.87014" lon="0.25992">
        <ele>2100.8</ele>
        <time>2022-02-12T09:39:34Z</time>
      </trkpt>
      <trkpt lat="42.87015" lon="0.25989">
        <ele>2101.8</ele>
        <time>2022-02-12T09:39:38Z</time>
      </trkpt>
      <trkpt lat="42.87015" lon="0.25988">
        <ele>2102</ele>
        <time>2022-02-12T09:39:39Z</time>
      </trkpt>
      <trkpt lat="42.87016" lon="0.25984">
        <ele>2102.8</ele>
        <time>2022-02-12T09:39:44Z</time>
      </trkpt>
      <trkpt lat="42.87016" lon="0.25981">
        <ele>2103.2</ele>
        <time>2022-02-12T09:39:47Z</time>
      </trkpt>
      <trkpt lat="42.87016" lon="0.25978">
        <ele>2104.4</ele>
        <time>2022-02-12T09:39:50Z</time>
      </trkpt>
      <trkpt lat="42.87016" lon="0.25977">
        <ele>2104.8</ele>
        <time>2022-02-12T09:39:51Z</time>
      </trkpt>
      <trkpt lat="42.87017" lon="0.25971">
        <ele>2104.6</ele>
        <time>2022-02-12T09:39:57Z</time>
      </trkpt>
      <trkpt lat="42.87017" lon="0.25967">
        <ele>2105.6</ele>
        <time>2022-02-12T09:40:02Z</time>
      </trkpt>
      <trkpt lat="42.87017" lon="0.25966">
        <ele>2105.6</ele>
        <time>2022-02-12T09:40:03Z</time>
      </trkpt>
      <trkpt lat="42.87017" lon="0.25959">
        <ele>2106.2</ele>
        <time>2022-02-12T09:40:10Z</time>
      </trkpt>
      <trkpt lat="42.87018" lon="0.25955">
        <ele>2107</ele>
        <time>2022-02-12T09:40:14Z</time>
      </trkpt>
      <trkpt lat="42.87018" lon="0.25954">
        <ele>2107.8</ele>
        <time>2022-02-12T09:40:16Z</time>
      </trkpt>
      <trkpt lat="42.87018" lon="0.25953">
        <ele>2108</ele>
        <time>2022-02-12T09:40:17Z</time>
      </trkpt>
      <trkpt lat="42.8702" lon="0.25949">
        <ele>2108.4</ele>
        <time>2022-02-12T09:40:22Z</time>
      </trkpt>
      <trkpt lat="42.87021" lon="0.25947">
        <ele>2109</ele>
        <time>2022-02-12T09:40:25Z</time>
      </trkpt>
      <trkpt lat="42.87022" lon="0.25945">
        <ele>2109.6</ele>
        <time>2022-02-12T09:40:28Z</time>
      </trkpt>
      <trkpt lat="42.87025" lon="0.2594">
        <ele>2110</ele>
        <time>2022-02-12T09:40:35Z</time>
      </trkpt>
      <trkpt lat="42.87029" lon="0.25938">
        <ele>2110.4</ele>
        <time>2022-02-12T09:40:40Z</time>
      </trkpt>
      <trkpt lat="42.87032" lon="0.25937">
        <ele>2111.6</ele>
        <time>2022-02-12T09:40:45Z</time>
      </trkpt>
      <trkpt lat="42.87032" lon="0.25938">
        <ele>2111.8</ele>
        <time>2022-02-12T09:40:46Z</time>
      </trkpt>
      <trkpt lat="42.87035" lon="0.25941">
        <ele>2112.8</ele>
        <time>2022-02-12T09:40:51Z</time>
      </trkpt>
      <trkpt lat="42.87037" lon="0.25943">
        <ele>2113.8</ele>
        <time>2022-02-12T09:40:57Z</time>
      </trkpt>
      <trkpt lat="42.87037" lon="0.25944">
        <ele>2114</ele>
        <time>2022-02-12T09:40:58Z</time>
      </trkpt>
      <trkpt lat="42.87039" lon="0.25946">
        <ele>2114.8</ele>
        <time>2022-02-12T09:41:03Z</time>
      </trkpt>
      <trkpt lat="42.87041" lon="0.25947">
        <ele>2115.4</ele>
        <time>2022-02-12T09:41:06Z</time>
      </trkpt>
      <trkpt lat="42.87042" lon="0.25949">
        <ele>2115.8</ele>
        <time>2022-02-12T09:41:09Z</time>
      </trkpt>
      <trkpt lat="42.87044" lon="0.25951">
        <ele>2116.8</ele>
        <time>2022-02-12T09:41:13Z</time>
      </trkpt>
      <trkpt lat="42.87045" lon="0.25952">
        <ele>2117.2</ele>
        <time>2022-02-12T09:41:15Z</time>
      </trkpt>
      <trkpt lat="42.87048" lon="0.25954">
        <ele>2118</ele>
        <time>2022-02-12T09:41:20Z</time>
      </trkpt>
      <trkpt lat="42.87049" lon="0.25956">
        <ele>2118.4</ele>
        <time>2022-02-12T09:41:24Z</time>
      </trkpt>
      <trkpt lat="42.87051" lon="0.25958">
        <ele>2119.2</ele>
        <time>2022-02-12T09:41:27Z</time>
      </trkpt>
      <trkpt lat="42.87052" lon="0.25959">
        <ele>2119.6</ele>
        <time>2022-02-12T09:41:30Z</time>
      </trkpt>
      <trkpt lat="42.87054" lon="0.25962">
        <ele>2120.2</ele>
        <time>2022-02-12T09:41:34Z</time>
      </trkpt>
      <trkpt lat="42.87054" lon="0.25963">
        <ele>2120.4</ele>
        <time>2022-02-12T09:41:36Z</time>
      </trkpt>
      <trkpt lat="42.87058" lon="0.25966">
        <ele>2121.2</ele>
        <time>2022-02-12T09:41:43Z</time>
      </trkpt>
      <trkpt lat="42.87059" lon="0.25967">
        <ele>2121.2</ele>
        <time>2022-02-12T09:41:44Z</time>
      </trkpt>
      <trkpt lat="42.87062" lon="0.2597">
        <ele>2122.4</ele>
        <time>2022-02-12T09:41:49Z</time>
      </trkpt>
      <trkpt lat="42.87063" lon="0.25971">
        <ele>2122.8</ele>
        <time>2022-02-12T09:41:51Z</time>
      </trkpt>
      <trkpt lat="42.87065" lon="0.25973">
        <ele>2123.4</ele>
        <time>2022-02-12T09:41:58Z</time>
      </trkpt>
      <trkpt lat="42.87065" lon="0.25973">
        <ele>2123.6</ele>
        <time>2022-02-12T09:41:59Z</time>
      </trkpt>
      <trkpt lat="42.87068" lon="0.25975">
        <ele>2124.8</ele>
        <time>2022-02-12T09:42:04Z</time>
      </trkpt>
      <trkpt lat="42.87069" lon="0.25975">
        <ele>2125.2</ele>
        <time>2022-02-12T09:42:06Z</time>
      </trkpt>
      <trkpt lat="42.87069" lon="0.25975">
        <ele>2125.2</ele>
        <time>2022-02-12T09:42:13Z</time>
      </trkpt>
      <trkpt lat="42.87071" lon="0.25977">
        <ele>2125.8</ele>
        <time>2022-02-12T09:42:19Z</time>
      </trkpt>
      <trkpt lat="42.87071" lon="0.25977">
        <ele>2126</ele>
        <time>2022-02-12T09:42:20Z</time>
      </trkpt>
      <trkpt lat="42.87071" lon="0.25977">
        <ele>2126.4</ele>
        <time>2022-02-12T09:42:35Z</time>
      </trkpt>
      <trkpt lat="42.87074" lon="0.25979">
        <ele>2126.6</ele>
        <time>2022-02-12T09:42:41Z</time>
      </trkpt>
      <trkpt lat="42.87075" lon="0.25978">
        <ele>2127</ele>
        <time>2022-02-12T09:42:45Z</time>
      </trkpt>
      <trkpt lat="42.87075" lon="0.25977">
        <ele>2127.2</ele>
        <time>2022-02-12T09:42:46Z</time>
      </trkpt>
      <trkpt lat="42.87075" lon="0.25973">
        <ele>2128</ele>
        <time>2022-02-12T09:42:50Z</time>
      </trkpt>
      <trkpt lat="42.87076" lon="0.25971">
        <ele>2128.2</ele>
        <time>2022-02-12T09:42:52Z</time>
      </trkpt>
      <trkpt lat="42.87076" lon="0.25965">
        <ele>2128.8</ele>
        <time>2022-02-12T09:42:58Z</time>
      </trkpt>
      <trkpt lat="42.87076" lon="0.25964">
        <ele>2129.2</ele>
        <time>2022-02-12T09:42:59Z</time>
      </trkpt>
      <trkpt lat="42.87077" lon="0.25958">
        <ele>2130</ele>
        <time>2022-02-12T09:43:05Z</time>
      </trkpt>
      <trkpt lat="42.87077" lon="0.25955">
        <ele>2130.2</ele>
        <time>2022-02-12T09:43:08Z</time>
      </trkpt>
      <trkpt lat="42.87077" lon="0.25952">
        <ele>2130.6</ele>
        <time>2022-02-12T09:43:11Z</time>
      </trkpt>
      <trkpt lat="42.87077" lon="0.2595">
        <ele>2131.4</ele>
        <time>2022-02-12T09:43:14Z</time>
      </trkpt>
      <trkpt lat="42.87077" lon="0.25948">
        <ele>2131.6</ele>
        <time>2022-02-12T09:43:16Z</time>
      </trkpt>
      <trkpt lat="42.87076" lon="0.25942">
        <ele>2132.6</ele>
        <time>2022-02-12T09:43:22Z</time>
      </trkpt>
      <trkpt lat="42.87076" lon="0.25942">
        <ele>2133</ele>
        <time>2022-02-12T09:43:23Z</time>
      </trkpt>
      <trkpt lat="42.87077" lon="0.25939">
        <ele>2133.8</ele>
        <time>2022-02-12T09:43:26Z</time>
      </trkpt>
      <trkpt lat="42.87077" lon="0.25936">
        <ele>2134.4</ele>
        <time>2022-02-12T09:43:29Z</time>
      </trkpt>
      <trkpt lat="42.87077" lon="0.25933">
        <ele>2135</ele>
        <time>2022-02-12T09:43:32Z</time>
      </trkpt>
      <trkpt lat="42.87077" lon="0.25932">
        <ele>2135.4</ele>
        <time>2022-02-12T09:43:33Z</time>
      </trkpt>
      <trkpt lat="42.87077" lon="0.25931">
        <ele>2135.8</ele>
        <time>2022-02-12T09:43:35Z</time>
      </trkpt>
      <trkpt lat="42.87077" lon="0.25929">
        <ele>2136.2</ele>
        <time>2022-02-12T09:43:37Z</time>
      </trkpt>
      <trkpt lat="42.87078" lon="0.25925">
        <ele>2136.8</ele>
        <time>2022-02-12T09:43:41Z</time>
      </trkpt>
      <trkpt lat="42.87078" lon="0.25924">
        <ele>2137.2</ele>
        <time>2022-02-12T09:43:42Z</time>
      </trkpt>
      <trkpt lat="42.87079" lon="0.25918">
        <ele>2138</ele>
        <time>2022-02-12T09:43:48Z</time>
      </trkpt>
      <trkpt lat="42.87079" lon="0.25916">
        <ele>2138.2</ele>
        <time>2022-02-12T09:43:50Z</time>
      </trkpt>
      <trkpt lat="42.8708" lon="0.25913">
        <ele>2138.8</ele>
        <time>2022-02-12T09:43:53Z</time>
      </trkpt>
      <trkpt lat="42.8708" lon="0.25911">
        <ele>2139</ele>
        <time>2022-02-12T09:43:55Z</time>
      </trkpt>
      <trkpt lat="42.87081" lon="0.25909">
        <ele>2139.2</ele>
        <time>2022-02-12T09:43:58Z</time>
      </trkpt>
      <trkpt lat="42.87081" lon="0.25907">
        <ele>2139.8</ele>
        <time>2022-02-12T09:44:01Z</time>
      </trkpt>
      <trkpt lat="42.87082" lon="0.25903">
        <ele>2140.4</ele>
        <time>2022-02-12T09:44:06Z</time>
      </trkpt>
      <trkpt lat="42.87082" lon="0.25901">
        <ele>2140.6</ele>
        <time>2022-02-12T09:44:08Z</time>
      </trkpt>
      <trkpt lat="42.87082" lon="0.25899">
        <ele>2141.4</ele>
        <time>2022-02-12T09:44:11Z</time>
      </trkpt>
      <trkpt lat="42.87082" lon="0.25898">
        <ele>2141.6</ele>
        <time>2022-02-12T09:44:13Z</time>
      </trkpt>
      <trkpt lat="42.87082" lon="0.25895">
        <ele>2142.2</ele>
        <time>2022-02-12T09:44:19Z</time>
      </trkpt>
      <trkpt lat="42.87084" lon="0.25895">
        <ele>2142.4</ele>
        <time>2022-02-12T09:44:24Z</time>
      </trkpt>
      <trkpt lat="42.87084" lon="0.25896">
        <ele>2142.4</ele>
        <time>2022-02-12T09:44:25Z</time>
      </trkpt>
      <trkpt lat="42.87089" lon="0.25898">
        <ele>2143.4</ele>
        <time>2022-02-12T09:44:33Z</time>
      </trkpt>
      <trkpt lat="42.87093" lon="0.25901">
        <ele>2144.8</ele>
        <time>2022-02-12T09:44:40Z</time>
      </trkpt>
      <trkpt lat="42.87097" lon="0.25904">
        <ele>2145.8</ele>
        <time>2022-02-12T09:44:47Z</time>
      </trkpt>
      <trkpt lat="42.87098" lon="0.25904">
        <ele>2146.2</ele>
        <time>2022-02-12T09:44:48Z</time>
      </trkpt>
      <trkpt lat="42.87101" lon="0.25907">
        <ele>2147.2</ele>
        <time>2022-02-12T09:44:55Z</time>
      </trkpt>
      <trkpt lat="42.87103" lon="0.25908">
        <ele>2147.8</ele>
        <time>2022-02-12T09:44:58Z</time>
      </trkpt>
      <trkpt lat="42.87103" lon="0.25909">
        <ele>2148.2</ele>
        <time>2022-02-12T09:44:59Z</time>
      </trkpt>
      <trkpt lat="42.87104" lon="0.2591">
        <ele>2149</ele>
        <time>2022-02-12T09:45:05Z</time>
      </trkpt>
      <trkpt lat="42.87106" lon="0.2591">
        <ele>2149.2</ele>
        <time>2022-02-12T09:45:09Z</time>
      </trkpt>
      <trkpt lat="42.87107" lon="0.2591">
        <ele>2149.2</ele>
        <time>2022-02-12T09:45:11Z</time>
      </trkpt>
      <trkpt lat="42.87107" lon="0.2591">
        <ele>2150.2</ele>
        <time>2022-02-12T09:45:16Z</time>
      </trkpt>
      <trkpt lat="42.87107" lon="0.25911">
        <ele>2150.4</ele>
        <time>2022-02-12T09:45:17Z</time>
      </trkpt>
      <trkpt lat="42.87105" lon="0.25912">
        <ele>2150.6</ele>
        <time>2022-02-12T09:45:25Z</time>
      </trkpt>
      <trkpt lat="42.87109" lon="0.25907">
        <ele>2150.4</ele>
        <time>2022-02-12T09:45:32Z</time>
      </trkpt>
      <trkpt lat="42.87108" lon="0.25908">
        <ele>2150.6</ele>
        <time>2022-02-12T09:45:39Z</time>
      </trkpt>
      <trkpt lat="42.8711" lon="0.2591">
        <ele>2150.6</ele>
        <time>2022-02-12T09:45:45Z</time>
      </trkpt>
      <trkpt lat="42.87109" lon="0.25911">
        <ele>2150.8</ele>
        <time>2022-02-12T09:45:52Z</time>
      </trkpt>
      <trkpt lat="42.87109" lon="0.25911">
        <ele>2151</ele>
        <time>2022-02-12T09:45:53Z</time>
      </trkpt>
      <trkpt lat="42.87108" lon="0.25909">
        <ele>2151.4</ele>
        <time>2022-02-12T09:45:57Z</time>
      </trkpt>
      <trkpt lat="42.87108" lon="0.25909">
        <ele>2151.6</ele>
        <time>2022-02-12T09:46:03Z</time>
      </trkpt>
      <trkpt lat="42.87108" lon="0.25909">
        <ele>2151.6</ele>
        <time>2022-02-12T09:46:05Z</time>
      </trkpt>
      <trkpt lat="42.87108" lon="0.2591">
        <ele>2151.4</ele>
        <time>2022-02-12T09:46:10Z</time>
      </trkpt>
      <trkpt lat="42.87108" lon="0.2591">
        <ele>2151.2</ele>
        <time>2022-02-12T09:46:14Z</time>
      </trkpt>
      <trkpt lat="42.87109" lon="0.2591">
        <ele>2155.4</ele>
        <time>2022-02-12T09:46:17Z</time>
      </trkpt>
      <trkpt lat="42.87109" lon="0.2591">
        <ele>2153.4</ele>
        <time>2022-02-12T09:46:21Z</time>
      </trkpt>
      <trkpt lat="42.87109" lon="0.2591">
        <ele>2152</ele>
        <time>2022-02-12T09:46:23Z</time>
      </trkpt>
      <trkpt lat="42.87109" lon="0.2591">
        <ele>2151.4</ele>
        <time>2022-02-12T09:46:27Z</time>
      </trkpt>
      <trkpt lat="42.87112" lon="0.25913">
        <ele>2151.4</ele>
        <time>2022-02-12T09:46:32Z</time>
      </trkpt>
      <trkpt lat="42.87117" lon="0.2592">
        <ele>2151.4</ele>
        <time>2022-02-12T09:46:38Z</time>
      </trkpt>
      <trkpt lat="42.87122" lon="0.25927">
        <ele>2152.2</ele>
        <time>2022-02-12T09:46:44Z</time>
      </trkpt>
      <trkpt lat="42.87122" lon="0.25927">
        <ele>2152.2</ele>
        <time>2022-02-12T09:46:45Z</time>
      </trkpt>
      <trkpt lat="42.87123" lon="0.25928">
        <ele>2152.4</ele>
        <time>2022-02-12T09:46:47Z</time>
      </trkpt>
      <trkpt lat="42.87124" lon="0.2593">
        <ele>2153</ele>
        <time>2022-02-12T09:46:50Z</time>
      </trkpt>
      <trkpt lat="42.87124" lon="0.2593">
        <ele>2153.2</ele>
        <time>2022-02-12T09:46:51Z</time>
      </trkpt>
      <trkpt lat="42.87124" lon="0.25931">
        <ele>2153.2</ele>
        <time>2022-02-12T09:46:52Z</time>
      </trkpt>
      <trkpt lat="42.87124" lon="0.25931">
        <ele>2153.2</ele>
        <time>2022-02-12T09:46:53Z</time>
      </trkpt>
      <trkpt lat="42.87124" lon="0.25933">
        <ele>2153.8</ele>
        <time>2022-02-12T09:46:57Z</time>
      </trkpt>
      <trkpt lat="42.87123" lon="0.25933">
        <ele>2154.2</ele>
        <time>2022-02-12T09:46:59Z</time>
      </trkpt>
      <trkpt lat="42.87124" lon="0.25936">
        <ele>2155.2</ele>
        <time>2022-02-12T09:47:03Z</time>
      </trkpt>
      <trkpt lat="42.87124" lon="0.25937">
        <ele>2155.6</ele>
        <time>2022-02-12T09:47:05Z</time>
      </trkpt>
      <trkpt lat="42.87125" lon="0.2594">
        <ele>2156.4</ele>
        <time>2022-02-12T09:47:10Z</time>
      </trkpt>
      <trkpt lat="42.87126" lon="0.25939">
        <ele>2156.4</ele>
        <time>2022-02-12T09:47:11Z</time>
      </trkpt>
      <trkpt lat="42.87127" lon="0.25944">
        <ele>2157.2</ele>
        <time>2022-02-12T09:47:17Z</time>
      </trkpt>
      <trkpt lat="42.87127" lon="0.25945">
        <ele>2157.4</ele>
        <time>2022-02-12T09:47:18Z</time>
      </trkpt>
      <trkpt lat="42.87128" lon="0.25947">
        <ele>2158.6</ele>
        <time>2022-02-12T09:47:22Z</time>
      </trkpt>
      <trkpt lat="42.87128" lon="0.25947">
        <ele>2158.6</ele>
        <time>2022-02-12T09:47:23Z</time>
      </trkpt>
      <trkpt lat="42.87132" lon="0.25952">
        <ele>2159.6</ele>
        <time>2022-02-12T09:47:29Z</time>
      </trkpt>
      <trkpt lat="42.87134" lon="0.25954">
        <ele>2160.8</ele>
        <time>2022-02-12T09:47:33Z</time>
      </trkpt>
      <trkpt lat="42.87135" lon="0.25953">
        <ele>2161.2</ele>
        <time>2022-02-12T09:47:35Z</time>
      </trkpt>
      <trkpt lat="42.87137" lon="0.25952">
        <ele>2162.2</ele>
        <time>2022-02-12T09:47:38Z</time>
      </trkpt>
      <trkpt lat="42.87139" lon="0.25951">
        <ele>2163.2</ele>
        <time>2022-02-12T09:47:40Z</time>
      </trkpt>
      <trkpt lat="42.8714" lon="0.2595">
        <ele>2163.8</ele>
        <time>2022-02-12T09:47:42Z</time>
      </trkpt>
      <trkpt lat="42.87142" lon="0.25947">
        <ele>2164.2</ele>
        <time>2022-02-12T09:47:47Z</time>
      </trkpt>
      <trkpt lat="42.87145" lon="0.25945">
        <ele>2164.4</ele>
        <time>2022-02-12T09:47:51Z</time>
      </trkpt>
      <trkpt lat="42.87145" lon="0.25945">
        <ele>2164.4</ele>
        <time>2022-02-12T09:47:52Z</time>
      </trkpt>
      <trkpt lat="42.87147" lon="0.25945">
        <ele>2165.4</ele>
        <time>2022-02-12T09:47:55Z</time>
      </trkpt>
      <trkpt lat="42.87149" lon="0.25945">
        <ele>2166</ele>
        <time>2022-02-12T09:47:58Z</time>
      </trkpt>
      <trkpt lat="42.87149" lon="0.25946">
        <ele>2166.2</ele>
        <time>2022-02-12T09:47:59Z</time>
      </trkpt>
      <trkpt lat="42.8715" lon="0.25948">
        <ele>2166.6</ele>
        <time>2022-02-12T09:48:01Z</time>
      </trkpt>
      <trkpt lat="42.8715" lon="0.25949">
        <ele>2166.6</ele>
        <time>2022-02-12T09:48:02Z</time>
      </trkpt>
      <trkpt lat="42.8715" lon="0.2595">
        <ele>2166.4</ele>
        <time>2022-02-12T09:48:04Z</time>
      </trkpt>
      <trkpt lat="42.87151" lon="0.25955">
        <ele>2166.6</ele>
        <time>2022-02-12T09:48:10Z</time>
      </trkpt>
      <trkpt lat="42.87151" lon="0.25958">
        <ele>2166.6</ele>
        <time>2022-02-12T09:48:16Z</time>
      </trkpt>
      <trkpt lat="42.8715" lon="0.25955">
        <ele>2166.6</ele>
        <time>2022-02-12T09:48:25Z</time>
      </trkpt>
      <trkpt lat="42.87151" lon="0.25955">
        <ele>2167.4</ele>
        <time>2022-02-12T09:48:30Z</time>
      </trkpt>
      <trkpt lat="42.87154" lon="0.25957">
        <ele>2167</ele>
        <time>2022-02-12T09:48:37Z</time>
      </trkpt>
      <trkpt lat="42.87158" lon="0.25955">
        <ele>2167</ele>
        <time>2022-02-12T09:48:43Z</time>
      </trkpt>
      <trkpt lat="42.87159" lon="0.25957">
        <ele>2167.4</ele>
        <time>2022-02-12T09:48:48Z</time>
      </trkpt>
      <trkpt lat="42.87158" lon="0.25962">
        <ele>2167.6</ele>
        <time>2022-02-12T09:48:51Z</time>
      </trkpt>
      <trkpt lat="42.87158" lon="0.25962">
        <ele>2167.6</ele>
        <time>2022-02-12T09:48:52Z</time>
      </trkpt>
      <trkpt lat="42.87158" lon="0.2596">
        <ele>2166.8</ele>
        <time>2022-02-12T09:49:01Z</time>
      </trkpt>
      <trkpt lat="42.87157" lon="0.2596">
        <ele>2166.6</ele>
        <time>2022-02-12T09:49:03Z</time>
      </trkpt>
      <trkpt lat="42.87154" lon="0.25959">
        <ele>2167.4</ele>
        <time>2022-02-12T09:49:08Z</time>
      </trkpt>
      <trkpt lat="42.87154" lon="0.25959">
        <ele>2167.6</ele>
        <time>2022-02-12T09:49:09Z</time>
      </trkpt>
      <trkpt lat="42.87157" lon="0.25959">
        <ele>2167.8</ele>
        <time>2022-02-12T09:49:10Z</time>
      </trkpt>
      <trkpt lat="42.87159" lon="0.25959">
        <ele>2168</ele>
        <time>2022-02-12T09:49:16Z</time>
      </trkpt>
      <trkpt lat="42.87157" lon="0.25961">
        <ele>2167.6</ele>
        <time>2022-02-12T09:49:24Z</time>
      </trkpt>
      <trkpt lat="42.87152" lon="0.2596">
        <ele>2167.8</ele>
        <time>2022-02-12T09:49:30Z</time>
      </trkpt>
      <trkpt lat="42.87151" lon="0.25958">
        <ele>2167.6</ele>
        <time>2022-02-12T09:49:36Z</time>
      </trkpt>
      <trkpt lat="42.87151" lon="0.25957">
        <ele>2167.4</ele>
        <time>2022-02-12T09:49:38Z</time>
      </trkpt>
      <trkpt lat="42.8715" lon="0.25957">
        <ele>2167.2</ele>
        <time>2022-02-12T09:49:39Z</time>
      </trkpt>
      <trkpt lat="42.87139" lon="0.25953">
        <ele>2167.2</ele>
        <time>2022-02-12T09:49:49Z</time>
      </trkpt>
      <trkpt lat="42.8715" lon="0.25956">
        <ele>2166.6</ele>
        <time>2022-02-12T09:49:55Z</time>
      </trkpt>
      <trkpt lat="42.87152" lon="0.25956">
        <ele>2166.4</ele>
        <time>2022-02-12T09:49:56Z</time>
      </trkpt>
      <trkpt lat="42.87159" lon="0.25956">
        <ele>2167.4</ele>
        <time>2022-02-12T09:50:05Z</time>
      </trkpt>
      <trkpt lat="42.87161" lon="0.25956">
        <ele>2167.8</ele>
        <time>2022-02-12T09:50:06Z</time>
      </trkpt>
      <trkpt lat="42.87155" lon="0.25951">
        <ele>2168.2</ele>
        <time>2022-02-12T09:50:13Z</time>
      </trkpt>
      <trkpt lat="42.87153" lon="0.25951">
        <ele>2168.4</ele>
        <time>2022-02-12T09:50:17Z</time>
      </trkpt>
      <trkpt lat="42.87152" lon="0.25951">
        <ele>2168.2</ele>
        <time>2022-02-12T09:50:19Z</time>
      </trkpt>
      <trkpt lat="42.87152" lon="0.25952">
        <ele>2168</ele>
        <time>2022-02-12T09:50:28Z</time>
      </trkpt>
      <trkpt lat="42.87151" lon="0.25957">
        <ele>2167.4</ele>
        <time>2022-02-12T09:50:35Z</time>
      </trkpt>
      <trkpt lat="42.87154" lon="0.25958">
        <ele>2166.4</ele>
        <time>2022-02-12T09:50:42Z</time>
      </trkpt>
      <trkpt lat="42.87154" lon="0.25958">
        <ele>2166</ele>
        <time>2022-02-12T09:50:43Z</time>
      </trkpt>
      <trkpt lat="42.87153" lon="0.25959">
        <ele>2166</ele>
        <time>2022-02-12T09:50:46Z</time>
      </trkpt>
      <trkpt lat="42.87153" lon="0.25959">
        <ele>2166.4</ele>
        <time>2022-02-12T09:50:47Z</time>
      </trkpt>
      <trkpt lat="42.87155" lon="0.25957">
        <ele>2166.8</ele>
        <time>2022-02-12T09:50:51Z</time>
      </trkpt>
      <trkpt lat="42.87158" lon="0.25956">
        <ele>2167</ele>
        <time>2022-02-12T09:50:57Z</time>
      </trkpt>
      <trkpt lat="42.8716" lon="0.25956">
        <ele>2167.2</ele>
        <time>2022-02-12T09:50:59Z</time>
      </trkpt>
      <trkpt lat="42.8716" lon="0.25956">
        <ele>2167.2</ele>
        <time>2022-02-12T09:51:07Z</time>
      </trkpt>
      <trkpt lat="42.87156" lon="0.25957">
        <ele>2167.4</ele>
        <time>2022-02-12T09:51:13Z</time>
      </trkpt>
      <trkpt lat="42.87156" lon="0.25957">
        <ele>2167.4</ele>
        <time>2022-02-12T09:51:15Z</time>
      </trkpt>
      <trkpt lat="42.87149" lon="0.25956">
        <ele>2167.6</ele>
        <time>2022-02-12T09:51:24Z</time>
      </trkpt>
      <trkpt lat="42.87154" lon="0.25958">
        <ele>2168.4</ele>
        <time>2022-02-12T09:51:32Z</time>
      </trkpt>
      <trkpt lat="42.87154" lon="0.25957">
        <ele>2168.4</ele>
        <time>2022-02-12T09:51:39Z</time>
      </trkpt>
      <trkpt lat="42.87153" lon="0.25956">
        <ele>2168.4</ele>
        <time>2022-02-12T09:51:42Z</time>
      </trkpt>
      <trkpt lat="42.87152" lon="0.25955">
        <ele>2168.4</ele>
        <time>2022-02-12T09:51:47Z</time>
      </trkpt>
      <trkpt lat="42.87156" lon="0.25958">
        <ele>2168.4</ele>
        <time>2022-02-12T09:51:53Z</time>
      </trkpt>
      <trkpt lat="42.87153" lon="0.25958">
        <ele>2168.4</ele>
        <time>2022-02-12T09:51:59Z</time>
      </trkpt>
      <trkpt lat="42.87158" lon="0.25954">
        <ele>2168.4</ele>
        <time>2022-02-12T09:52:02Z</time>
      </trkpt>
      <trkpt lat="42.87154" lon="0.25953">
        <ele>2168.4</ele>
        <time>2022-02-12T09:52:04Z</time>
      </trkpt>
      <trkpt lat="42.87153" lon="0.25953">
        <ele>2168.4</ele>
        <time>2022-02-12T09:52:05Z</time>
      </trkpt>
      <trkpt lat="42.87152" lon="0.25953">
        <ele>2168.4</ele>
        <time>2022-02-12T09:52:06Z</time>
      </trkpt>
      <trkpt lat="42.87152" lon="0.25953">
        <ele>2168.6</ele>
        <time>2022-02-12T09:52:07Z</time>
      </trkpt>
      <trkpt lat="42.87153" lon="0.25953">
        <ele>2169.8</ele>
        <time>2022-02-12T09:52:12Z</time>
      </trkpt>
      <trkpt lat="42.87151" lon="0.25954">
        <ele>2169.4</ele>
        <time>2022-02-12T09:52:13Z</time>
      </trkpt>
      <trkpt lat="42.87152" lon="0.25952">
        <ele>2168.8</ele>
        <time>2022-02-12T09:52:19Z</time>
      </trkpt>
      <trkpt lat="42.87151" lon="0.25952">
        <ele>2168.8</ele>
        <time>2022-02-12T09:52:21Z</time>
      </trkpt>
      <trkpt lat="42.87152" lon="0.25956">
        <ele>2169.4</ele>
        <time>2022-02-12T09:52:27Z</time>
      </trkpt>
      <trkpt lat="42.87156" lon="0.2596">
        <ele>2169.8</ele>
        <time>2022-02-12T09:52:30Z</time>
      </trkpt>
      <trkpt lat="42.87155" lon="0.2596">
        <ele>2170</ele>
        <time>2022-02-12T09:52:33Z</time>
      </trkpt>
      <trkpt lat="42.87156" lon="0.2596">
        <ele>2170</ele>
        <time>2022-02-12T09:52:35Z</time>
      </trkpt>
      <trkpt lat="42.87157" lon="0.25962">
        <ele>2168.8</ele>
        <time>2022-02-12T09:52:39Z</time>
      </trkpt>
      <trkpt lat="42.8716" lon="0.25965">
        <ele>2168.8</ele>
        <time>2022-02-12T09:52:41Z</time>
      </trkpt>
      <trkpt lat="42.87162" lon="0.25963">
        <ele>2168.4</ele>
        <time>2022-02-12T09:52:49Z</time>
      </trkpt>
      <trkpt lat="42.87152" lon="0.25956">
        <ele>2168</ele>
        <time>2022-02-12T09:52:57Z</time>
      </trkpt>
      <trkpt lat="42.87155" lon="0.25954">
        <ele>2168.2</ele>
        <time>2022-02-12T09:53:07Z</time>
      </trkpt>
      <trkpt lat="42.87155" lon="0.25955">
        <ele>2167.8</ele>
        <time>2022-02-12T09:53:09Z</time>
      </trkpt>
      <trkpt lat="42.87155" lon="0.25955">
        <ele>2167.8</ele>
        <time>2022-02-12T09:53:14Z</time>
      </trkpt>
      <trkpt lat="42.87155" lon="0.25958">
        <ele>2167.8</ele>
        <time>2022-02-12T09:53:19Z</time>
      </trkpt>
      <trkpt lat="42.87154" lon="0.25958">
        <ele>2167.6</ele>
        <time>2022-02-12T09:53:21Z</time>
      </trkpt>
      <trkpt lat="42.87153" lon="0.25956">
        <ele>2167.4</ele>
        <time>2022-02-12T09:53:25Z</time>
      </trkpt>
      <trkpt lat="42.87152" lon="0.25956">
        <ele>2167.6</ele>
        <time>2022-02-12T09:53:28Z</time>
      </trkpt>
      <trkpt lat="42.87151" lon="0.25957">
        <ele>2167.8</ele>
        <time>2022-02-12T09:53:29Z</time>
      </trkpt>
      <trkpt lat="42.8715" lon="0.25958">
        <ele>2168.8</ele>
        <time>2022-02-12T09:53:33Z</time>
      </trkpt>
      <trkpt lat="42.8715" lon="0.25956">
        <ele>2168.8</ele>
        <time>2022-02-12T09:53:36Z</time>
      </trkpt>
      <trkpt lat="42.87151" lon="0.25955">
        <ele>2168.8</ele>
        <time>2022-02-12T09:53:37Z</time>
      </trkpt>
      <trkpt lat="42.87151" lon="0.25955">
        <ele>2169.4</ele>
        <time>2022-02-12T09:53:44Z</time>
      </trkpt>
      <trkpt lat="42.87151" lon="0.25957">
        <ele>2168.4</ele>
        <time>2022-02-12T09:53:53Z</time>
      </trkpt>
      <trkpt lat="42.87152" lon="0.25962">
        <ele>2168.2</ele>
        <time>2022-02-12T09:53:59Z</time>
      </trkpt>
      <trkpt lat="42.87151" lon="0.25963">
        <ele>2168.6</ele>
        <time>2022-02-12T09:54:04Z</time>
      </trkpt>
      <trkpt lat="42.87152" lon="0.25962">
        <ele>2168.2</ele>
        <time>2022-02-12T09:54:08Z</time>
      </trkpt>
      <trkpt lat="42.87154" lon="0.25957">
        <ele>2168.4</ele>
        <time>2022-02-12T09:54:17Z</time>
      </trkpt>
      <trkpt lat="42.87155" lon="0.25956">
        <ele>2167.8</ele>
        <time>2022-02-12T09:54:23Z</time>
      </trkpt>
      <trkpt lat="42.87155" lon="0.25957">
        <ele>2168</ele>
        <time>2022-02-12T09:54:25Z</time>
      </trkpt>
      <trkpt lat="42.87155" lon="0.25958">
        <ele>2168.2</ele>
        <time>2022-02-12T09:54:34Z</time>
      </trkpt>
      <trkpt lat="42.87157" lon="0.25958">
        <ele>2168.4</ele>
        <time>2022-02-12T09:54:42Z</time>
      </trkpt>
      <trkpt lat="42.87158" lon="0.2596">
        <ele>2168.2</ele>
        <time>2022-02-12T09:54:52Z</time>
      </trkpt>
      <trkpt lat="42.87154" lon="0.25957">
        <ele>2168.2</ele>
        <time>2022-02-12T09:55:01Z</time>
      </trkpt>
      <trkpt lat="42.87154" lon="0.25957">
        <ele>2168.2</ele>
        <time>2022-02-12T09:55:02Z</time>
      </trkpt>
      <trkpt lat="42.87154" lon="0.25956">
        <ele>2168.2</ele>
        <time>2022-02-12T09:55:09Z</time>
      </trkpt>
      <trkpt lat="42.87155" lon="0.25955">
        <ele>2168.2</ele>
        <time>2022-02-12T09:55:16Z</time>
      </trkpt>
      <trkpt lat="42.87155" lon="0.25954">
        <ele>2168.4</ele>
        <time>2022-02-12T09:55:18Z</time>
      </trkpt>
      <trkpt lat="42.87156" lon="0.25954">
        <ele>2168</ele>
        <time>2022-02-12T09:55:26Z</time>
      </trkpt>
      <trkpt lat="42.87153" lon="0.25953">
        <ele>2168</ele>
        <time>2022-02-12T09:55:36Z</time>
      </trkpt>
      <trkpt lat="42.87152" lon="0.25952">
        <ele>2168.4</ele>
        <time>2022-02-12T09:55:43Z</time>
      </trkpt>
      <trkpt lat="42.87152" lon="0.25954">
        <ele>2168.4</ele>
        <time>2022-02-12T09:55:47Z</time>
      </trkpt>
      <trkpt lat="42.87153" lon="0.25956">
        <ele>2168.6</ele>
        <time>2022-02-12T09:55:56Z</time>
      </trkpt>
      <trkpt lat="42.87154" lon="0.25956">
        <ele>2168.8</ele>
        <time>2022-02-12T09:55:59Z</time>
      </trkpt>
      <trkpt lat="42.87156" lon="0.25959">
        <ele>2169</ele>
        <time>2022-02-12T09:56:04Z</time>
      </trkpt>
      <trkpt lat="42.87158" lon="0.2596">
        <ele>2169.4</ele>
        <time>2022-02-12T09:56:12Z</time>
      </trkpt>
      <trkpt lat="42.87158" lon="0.25961">
        <ele>2169.2</ele>
        <time>2022-02-12T09:56:19Z</time>
      </trkpt>
      <trkpt lat="42.87157" lon="0.25957">
        <ele>2169</ele>
        <time>2022-02-12T09:56:26Z</time>
      </trkpt>
      <trkpt lat="42.87156" lon="0.25957">
        <ele>2168.8</ele>
        <time>2022-02-12T09:56:35Z</time>
      </trkpt>
      <trkpt lat="42.87154" lon="0.25957">
        <ele>2168.8</ele>
        <time>2022-02-12T09:56:38Z</time>
      </trkpt>
      <trkpt lat="42.87152" lon="0.25956">
        <ele>2168.8</ele>
        <time>2022-02-12T09:56:43Z</time>
      </trkpt>
      <trkpt lat="42.87146" lon="0.25956">
        <ele>2168.6</ele>
        <time>2022-02-12T09:56:51Z</time>
      </trkpt>
      <trkpt lat="42.87153" lon="0.25954">
        <ele>2168.6</ele>
        <time>2022-02-12T09:56:59Z</time>
      </trkpt>
      <trkpt lat="42.87157" lon="0.25954">
        <ele>2169</ele>
        <time>2022-02-12T09:57:07Z</time>
      </trkpt>
      <trkpt lat="42.87158" lon="0.25952">
        <ele>2167.8</ele>
        <time>2022-02-12T09:57:12Z</time>
      </trkpt>
      <trkpt lat="42.87156" lon="0.25952">
        <ele>2167.2</ele>
        <time>2022-02-12T09:57:14Z</time>
      </trkpt>
      <trkpt lat="42.87155" lon="0.25954">
        <ele>2167.4</ele>
        <time>2022-02-12T09:57:23Z</time>
      </trkpt>
      <trkpt lat="42.87156" lon="0.25954">
        <ele>2167</ele>
        <time>2022-02-12T09:57:26Z</time>
      </trkpt>
      <trkpt lat="42.87157" lon="0.25955">
        <ele>2166.8</ele>
        <time>2022-02-12T09:57:28Z</time>
      </trkpt>
      <trkpt lat="42.87157" lon="0.25956">
        <ele>2166.6</ele>
        <time>2022-02-12T09:57:30Z</time>
      </trkpt>
      <trkpt lat="42.87157" lon="0.25957">
        <ele>2166.8</ele>
        <time>2022-02-12T09:57:32Z</time>
      </trkpt>
      <trkpt lat="42.87157" lon="0.25957">
        <ele>2167</ele>
        <time>2022-02-12T09:57:34Z</time>
      </trkpt>
      <trkpt lat="42.87155" lon="0.25963">
        <ele>2167.2</ele>
        <time>2022-02-12T09:57:41Z</time>
      </trkpt>
      <trkpt lat="42.87155" lon="0.25962">
        <ele>2167</ele>
        <time>2022-02-12T09:57:48Z</time>
      </trkpt>
      <trkpt lat="42.87155" lon="0.25961">
        <ele>2167</ele>
        <time>2022-02-12T09:57:50Z</time>
      </trkpt>
      <trkpt lat="42.87156" lon="0.25959">
        <ele>2167</ele>
        <time>2022-02-12T09:57:52Z</time>
      </trkpt>
      <trkpt lat="42.87155" lon="0.25957">
        <ele>2167.4</ele>
        <time>2022-02-12T09:57:55Z</time>
      </trkpt>
      <trkpt lat="42.87154" lon="0.25954">
        <ele>2167.2</ele>
        <time>2022-02-12T09:58:02Z</time>
      </trkpt>
      <trkpt lat="42.87155" lon="0.25953">
        <ele>2168.4</ele>
        <time>2022-02-12T09:58:04Z</time>
      </trkpt>
      <trkpt lat="42.87154" lon="0.25952">
        <ele>2168.4</ele>
        <time>2022-02-12T09:58:08Z</time>
      </trkpt>
      <trkpt lat="42.87152" lon="0.25951">
        <ele>2168.2</ele>
        <time>2022-02-12T09:58:18Z</time>
      </trkpt>
      <trkpt lat="42.87151" lon="0.25953">
        <ele>2168.4</ele>
        <time>2022-02-12T09:58:25Z</time>
      </trkpt>
      <trkpt lat="42.87151" lon="0.25957">
        <ele>2168.2</ele>
        <time>2022-02-12T09:58:32Z</time>
      </trkpt>
      <trkpt lat="42.87155" lon="0.25957">
        <ele>2167.6</ele>
        <time>2022-02-12T09:58:40Z</time>
      </trkpt>
      <trkpt lat="42.87157" lon="0.25959">
        <ele>2167.6</ele>
        <time>2022-02-12T09:58:46Z</time>
      </trkpt>
      <trkpt lat="42.87159" lon="0.25959">
        <ele>2167.8</ele>
        <time>2022-02-12T09:58:49Z</time>
      </trkpt>
      <trkpt lat="42.87159" lon="0.25961">
        <ele>2167.8</ele>
        <time>2022-02-12T09:58:57Z</time>
      </trkpt>
      <trkpt lat="42.87158" lon="0.2596">
        <ele>2167.4</ele>
        <time>2022-02-12T09:59:03Z</time>
      </trkpt>
      <trkpt lat="42.87156" lon="0.25959">
        <ele>2167.6</ele>
        <time>2022-02-12T09:59:10Z</time>
      </trkpt>
      <trkpt lat="42.87155" lon="0.25958">
        <ele>2168</ele>
        <time>2022-02-12T09:59:18Z</time>
      </trkpt>
      <trkpt lat="42.87154" lon="0.25959">
        <ele>2168.4</ele>
        <time>2022-02-12T09:59:22Z</time>
      </trkpt>
      <trkpt lat="42.87153" lon="0.25959">
        <ele>2168.4</ele>
        <time>2022-02-12T09:59:25Z</time>
      </trkpt>
      <trkpt lat="42.87155" lon="0.2596">
        <ele>2168.4</ele>
        <time>2022-02-12T09:59:31Z</time>
      </trkpt>
      <trkpt lat="42.87157" lon="0.25955">
        <ele>2168.4</ele>
        <time>2022-02-12T09:59:39Z</time>
      </trkpt>
      <trkpt lat="42.87158" lon="0.25953">
        <ele>2168.6</ele>
        <time>2022-02-12T09:59:47Z</time>
      </trkpt>
      <trkpt lat="42.8716" lon="0.25956">
        <ele>2168.8</ele>
        <time>2022-02-12T09:59:55Z</time>
      </trkpt>
      <trkpt lat="42.87161" lon="0.25957">
        <ele>2168.6</ele>
        <time>2022-02-12T10:00:02Z</time>
      </trkpt>
      <trkpt lat="42.87161" lon="0.25957">
        <ele>2168.4</ele>
        <time>2022-02-12T10:00:09Z</time>
      </trkpt>
      <trkpt lat="42.87161" lon="0.25954">
        <ele>2168.6</ele>
        <time>2022-02-12T10:00:15Z</time>
      </trkpt>
      <trkpt lat="42.87159" lon="0.25956">
        <ele>2168.6</ele>
        <time>2022-02-12T10:00:19Z</time>
      </trkpt>
      <trkpt lat="42.87159" lon="0.25956">
        <ele>2168.4</ele>
        <time>2022-02-12T10:00:20Z</time>
      </trkpt>
      <trkpt lat="42.87157" lon="0.25959">
        <ele>2168.4</ele>
        <time>2022-02-12T10:00:28Z</time>
      </trkpt>
      <trkpt lat="42.87159" lon="0.25957">
        <ele>2168.2</ele>
        <time>2022-02-12T10:00:36Z</time>
      </trkpt>
      <trkpt lat="42.87157" lon="0.25957">
        <ele>2168.2</ele>
        <time>2022-02-12T10:00:41Z</time>
      </trkpt>
      <trkpt lat="42.87159" lon="0.25955">
        <ele>2168.4</ele>
        <time>2022-02-12T10:00:46Z</time>
      </trkpt>
      <trkpt lat="42.87154" lon="0.25953">
        <ele>2168.2</ele>
        <time>2022-02-12T10:00:54Z</time>
      </trkpt>
      <trkpt lat="42.87153" lon="0.25953">
        <ele>2168.2</ele>
        <time>2022-02-12T10:00:55Z</time>
      </trkpt>
      <trkpt lat="42.87153" lon="0.25954">
        <ele>2168.2</ele>
        <time>2022-02-12T10:00:58Z</time>
      </trkpt>
      <trkpt lat="42.87153" lon="0.25955">
        <ele>2168</ele>
        <time>2022-02-12T10:01:04Z</time>
      </trkpt>
      <trkpt lat="42.87153" lon="0.25958">
        <ele>2168.4</ele>
        <time>2022-02-12T10:01:11Z</time>
      </trkpt>
      <trkpt lat="42.87155" lon="0.25956">
        <ele>2168.6</ele>
        <time>2022-02-12T10:01:19Z</time>
      </trkpt>
      <trkpt lat="42.87155" lon="0.25954">
        <ele>2168.4</ele>
        <time>2022-02-12T10:01:27Z</time>
      </trkpt>
      <trkpt lat="42.87153" lon="0.25956">
        <ele>2168.4</ele>
        <time>2022-02-12T10:01:33Z</time>
      </trkpt>
      <trkpt lat="42.87153" lon="0.25959">
        <ele>2168.4</ele>
        <time>2022-02-12T10:01:40Z</time>
      </trkpt>
      <trkpt lat="42.8715" lon="0.25955">
        <ele>2168.4</ele>
        <time>2022-02-12T10:01:47Z</time>
      </trkpt>
      <trkpt lat="42.8715" lon="0.25955">
        <ele>2168.4</ele>
        <time>2022-02-12T10:01:48Z</time>
      </trkpt>
      <trkpt lat="42.87149" lon="0.25959">
        <ele>2167.8</ele>
        <time>2022-02-12T10:01:56Z</time>
      </trkpt>
      <trkpt lat="42.87153" lon="0.25961">
        <ele>2167.6</ele>
        <time>2022-02-12T10:02:03Z</time>
      </trkpt>
      <trkpt lat="42.87153" lon="0.25962">
        <ele>2167.6</ele>
        <time>2022-02-12T10:02:04Z</time>
      </trkpt>
      <trkpt lat="42.87155" lon="0.25964">
        <ele>2168.4</ele>
        <time>2022-02-12T10:02:07Z</time>
      </trkpt>
      <trkpt lat="42.87156" lon="0.25965">
        <ele>2168.6</ele>
        <time>2022-02-12T10:02:08Z</time>
      </trkpt>
      <trkpt lat="42.87156" lon="0.25967">
        <ele>2169.4</ele>
        <time>2022-02-12T10:02:11Z</time>
      </trkpt>
      <trkpt lat="42.87156" lon="0.25968">
        <ele>2169.6</ele>
        <time>2022-02-12T10:02:12Z</time>
      </trkpt>
      <trkpt lat="42.87156" lon="0.2597">
        <ele>2169.8</ele>
        <time>2022-02-12T10:02:13Z</time>
      </trkpt>
      <trkpt lat="42.87157" lon="0.25972">
        <ele>2170.2</ele>
        <time>2022-02-12T10:02:15Z</time>
      </trkpt>
      <trkpt lat="42.87158" lon="0.25973">
        <ele>2170.4</ele>
        <time>2022-02-12T10:02:17Z</time>
      </trkpt>
      <trkpt lat="42.87158" lon="0.25973">
        <ele>2170.4</ele>
        <time>2022-02-12T10:02:18Z</time>
      </trkpt>
      <trkpt lat="42.87159" lon="0.25974">
        <ele>2170.6</ele>
        <time>2022-02-12T10:02:19Z</time>
      </trkpt>
      <trkpt lat="42.8716" lon="0.25981">
        <ele>2171.8</ele>
        <time>2022-02-12T10:02:25Z</time>
      </trkpt>
      <trkpt lat="42.8716" lon="0.25982">
        <ele>2172</ele>
        <time>2022-02-12T10:02:26Z</time>
      </trkpt>
      <trkpt lat="42.87161" lon="0.25984">
        <ele>2172.4</ele>
        <time>2022-02-12T10:02:28Z</time>
      </trkpt>
      <trkpt lat="42.87161" lon="0.25986">
        <ele>2172.6</ele>
        <time>2022-02-12T10:02:30Z</time>
      </trkpt>
      <trkpt lat="42.87163" lon="0.25986">
        <ele>2172.8</ele>
        <time>2022-02-12T10:02:32Z</time>
      </trkpt>
      <trkpt lat="42.87163" lon="0.25986">
        <ele>2173</ele>
        <time>2022-02-12T10:02:33Z</time>
      </trkpt>
      <trkpt lat="42.87164" lon="0.25986">
        <ele>2173.2</ele>
        <time>2022-02-12T10:02:35Z</time>
      </trkpt>
      <trkpt lat="42.87164" lon="0.25985">
        <ele>2173.6</ele>
        <time>2022-02-12T10:02:37Z</time>
      </trkpt>
      <trkpt lat="42.87165" lon="0.25986">
        <ele>2173.8</ele>
        <time>2022-02-12T10:02:39Z</time>
      </trkpt>
      <trkpt lat="42.87167" lon="0.25986">
        <ele>2173.6</ele>
        <time>2022-02-12T10:02:42Z</time>
      </trkpt>
      <trkpt lat="42.87168" lon="0.25986">
        <ele>2173.4</ele>
        <time>2022-02-12T10:02:44Z</time>
      </trkpt>
      <trkpt lat="42.87169" lon="0.25985">
        <ele>2173.2</ele>
        <time>2022-02-12T10:02:46Z</time>
      </trkpt>
      <trkpt lat="42.8717" lon="0.25987">
        <ele>2173.2</ele>
        <time>2022-02-12T10:02:49Z</time>
      </trkpt>
      <trkpt lat="42.87169" lon="0.25995">
        <ele>2173.2</ele>
        <time>2022-02-12T10:02:52Z</time>
      </trkpt>
      <trkpt lat="42.87172" lon="0.25998">
        <ele>2174</ele>
        <time>2022-02-12T10:02:58Z</time>
      </trkpt>
      <trkpt lat="42.87174" lon="0.26">
        <ele>2175</ele>
        <time>2022-02-12T10:03:01Z</time>
      </trkpt>
      <trkpt lat="42.87174" lon="0.26001">
        <ele>2175.4</ele>
        <time>2022-02-12T10:03:02Z</time>
      </trkpt>
      <trkpt lat="42.87175" lon="0.26002">
        <ele>2176</ele>
        <time>2022-02-12T10:03:04Z</time>
      </trkpt>
      <trkpt lat="42.87175" lon="0.26004">
        <ele>2176.4</ele>
        <time>2022-02-12T10:03:06Z</time>
      </trkpt>
      <trkpt lat="42.87175" lon="0.26005">
        <ele>2176.4</ele>
        <time>2022-02-12T10:03:07Z</time>
      </trkpt>
      <trkpt lat="42.87174" lon="0.26008">
        <ele>2176.4</ele>
        <time>2022-02-12T10:03:09Z</time>
      </trkpt>
      <trkpt lat="42.87174" lon="0.26011">
        <ele>2176.8</ele>
        <time>2022-02-12T10:03:12Z</time>
      </trkpt>
      <trkpt lat="42.87174" lon="0.26012">
        <ele>2177</ele>
        <time>2022-02-12T10:03:13Z</time>
      </trkpt>
      <trkpt lat="42.87174" lon="0.26013">
        <ele>2177.2</ele>
        <time>2022-02-12T10:03:14Z</time>
      </trkpt>
      <trkpt lat="42.87174" lon="0.26014">
        <ele>2177.2</ele>
        <time>2022-02-12T10:03:15Z</time>
      </trkpt>
      <trkpt lat="42.87174" lon="0.26015">
        <ele>2177.8</ele>
        <time>2022-02-12T10:03:17Z</time>
      </trkpt>
      <trkpt lat="42.87175" lon="0.26017">
        <ele>2178.2</ele>
        <time>2022-02-12T10:03:19Z</time>
      </trkpt>
      <trkpt lat="42.87174" lon="0.26018">
        <ele>2178.4</ele>
        <time>2022-02-12T10:03:20Z</time>
      </trkpt>
      <trkpt lat="42.87172" lon="0.26019">
        <ele>2178.8</ele>
        <time>2022-02-12T10:03:24Z</time>
      </trkpt>
      <trkpt lat="42.87172" lon="0.26019">
        <ele>2179.2</ele>
        <time>2022-02-12T10:03:26Z</time>
      </trkpt>
      <trkpt lat="42.87172" lon="0.2602">
        <ele>2179.4</ele>
        <time>2022-02-12T10:03:27Z</time>
      </trkpt>
      <trkpt lat="42.87171" lon="0.26023">
        <ele>2180.4</ele>
        <time>2022-02-12T10:03:31Z</time>
      </trkpt>
      <trkpt lat="42.8717" lon="0.26024">
        <ele>2181</ele>
        <time>2022-02-12T10:03:34Z</time>
      </trkpt>
      <trkpt lat="42.87169" lon="0.26026">
        <ele>2181.6</ele>
        <time>2022-02-12T10:03:37Z</time>
      </trkpt>
      <trkpt lat="42.87168" lon="0.26027">
        <ele>2181.8</ele>
        <time>2022-02-12T10:03:39Z</time>
      </trkpt>
      <trkpt lat="42.87167" lon="0.26028">
        <ele>2182.6</ele>
        <time>2022-02-12T10:03:42Z</time>
      </trkpt>
      <trkpt lat="42.87166" lon="0.26032">
        <ele>2183.8</ele>
        <time>2022-02-12T10:03:47Z</time>
      </trkpt>
      <trkpt lat="42.87166" lon="0.26032">
        <ele>2184</ele>
        <time>2022-02-12T10:03:48Z</time>
      </trkpt>
      <trkpt lat="42.87166" lon="0.26035">
        <ele>2184.8</ele>
        <time>2022-02-12T10:03:53Z</time>
      </trkpt>
      <trkpt lat="42.87166" lon="0.26039">
        <ele>2186</ele>
        <time>2022-02-12T10:04:01Z</time>
      </trkpt>
      <trkpt lat="42.87164" lon="0.26043">
        <ele>2187.2</ele>
        <time>2022-02-12T10:04:10Z</time>
      </trkpt>
      <trkpt lat="42.87163" lon="0.26045">
        <ele>2187.4</ele>
        <time>2022-02-12T10:04:12Z</time>
      </trkpt>
      <trkpt lat="42.87163" lon="0.26048">
        <ele>2188.2</ele>
        <time>2022-02-12T10:04:16Z</time>
      </trkpt>
      <trkpt lat="42.87163" lon="0.26048">
        <ele>2188.8</ele>
        <time>2022-02-12T10:04:18Z</time>
      </trkpt>
      <trkpt lat="42.8716" lon="0.26051">
        <ele>2189.2</ele>
        <time>2022-02-12T10:04:23Z</time>
      </trkpt>
      <trkpt lat="42.87159" lon="0.26052">
        <ele>2189.2</ele>
        <time>2022-02-12T10:04:25Z</time>
      </trkpt>
      <trkpt lat="42.87157" lon="0.26052">
        <ele>2189.6</ele>
        <time>2022-02-12T10:04:30Z</time>
      </trkpt>
      <trkpt lat="42.87156" lon="0.26055">
        <ele>2190</ele>
        <time>2022-02-12T10:04:36Z</time>
      </trkpt>
      <trkpt lat="42.87156" lon="0.26055">
        <ele>2190.4</ele>
        <time>2022-02-12T10:04:37Z</time>
      </trkpt>
      <trkpt lat="42.87156" lon="0.26055">
        <ele>2190.8</ele>
        <time>2022-02-12T10:04:40Z</time>
      </trkpt>
      <trkpt lat="42.87156" lon="0.26056">
        <ele>2190.8</ele>
        <time>2022-02-12T10:04:44Z</time>
      </trkpt>
      <trkpt lat="42.87156" lon="0.26056">
        <ele>2191.6</ele>
        <time>2022-02-12T10:04:47Z</time>
      </trkpt>
      <trkpt lat="42.87154" lon="0.26057">
        <ele>2192.4</ele>
        <time>2022-02-12T10:04:51Z</time>
      </trkpt>
      <trkpt lat="42.87152" lon="0.26057">
        <ele>2192.6</ele>
        <time>2022-02-12T10:04:54Z</time>
      </trkpt>
      <trkpt lat="42.87152" lon="0.26057">
        <ele>2192.6</ele>
        <time>2022-02-12T10:04:55Z</time>
      </trkpt>
      <trkpt lat="42.87153" lon="0.26057">
        <ele>2192.8</ele>
        <time>2022-02-12T10:04:57Z</time>
      </trkpt>
      <trkpt lat="42.87149" lon="0.26059">
        <ele>2193</ele>
        <time>2022-02-12T10:05:08Z</time>
      </trkpt>
      <trkpt lat="42.87148" lon="0.26059">
        <ele>2192.8</ele>
        <time>2022-02-12T10:05:17Z</time>
      </trkpt>
      <trkpt lat="42.87148" lon="0.26059">
        <ele>2192.6</ele>
        <time>2022-02-12T10:05:19Z</time>
      </trkpt>
      <trkpt lat="42.87148" lon="0.26059">
        <ele>2192.6</ele>
        <time>2022-02-12T10:05:21Z</time>
      </trkpt>
      <trkpt lat="42.8715" lon="0.2606">
        <ele>2192.8</ele>
        <time>2022-02-12T10:05:26Z</time>
      </trkpt>
      <trkpt lat="42.8715" lon="0.26063">
        <ele>2193.4</ele>
        <time>2022-02-12T10:05:31Z</time>
      </trkpt>
      <trkpt lat="42.8715" lon="0.26064">
        <ele>2193.4</ele>
        <time>2022-02-12T10:05:36Z</time>
      </trkpt>
      <trkpt lat="42.8715" lon="0.26064">
        <ele>2193.8</ele>
        <time>2022-02-12T10:05:39Z</time>
      </trkpt>
      <trkpt lat="42.87148" lon="0.26063">
        <ele>2194.2</ele>
        <time>2022-02-12T10:05:43Z</time>
      </trkpt>
      <trkpt lat="42.87149" lon="0.26062">
        <ele>2194.8</ele>
        <time>2022-02-12T10:05:46Z</time>
      </trkpt>
      <trkpt lat="42.8715" lon="0.26062">
        <ele>2195.2</ele>
        <time>2022-02-12T10:05:49Z</time>
      </trkpt>
      <trkpt lat="42.87152" lon="0.26061">
        <ele>2195.8</ele>
        <time>2022-02-12T10:05:57Z</time>
      </trkpt>
      <trkpt lat="42.87152" lon="0.2606">
        <ele>2195.8</ele>
        <time>2022-02-12T10:05:58Z</time>
      </trkpt>
      <trkpt lat="42.87156" lon="0.2606">
        <ele>2196.6</ele>
        <time>2022-02-12T10:06:06Z</time>
      </trkpt>
      <trkpt lat="42.87156" lon="0.26062">
        <ele>2196.8</ele>
        <time>2022-02-12T10:06:12Z</time>
      </trkpt>
      <trkpt lat="42.87156" lon="0.26063">
        <ele>2197</ele>
        <time>2022-02-12T10:06:13Z</time>
      </trkpt>
      <trkpt lat="42.87156" lon="0.26065">
        <ele>2197.2</ele>
        <time>2022-02-12T10:06:15Z</time>
      </trkpt>
      <trkpt lat="42.87155" lon="0.26066">
        <ele>2197.4</ele>
        <time>2022-02-12T10:06:19Z</time>
      </trkpt>
      <trkpt lat="42.87154" lon="0.2607">
        <ele>2197.8</ele>
        <time>2022-02-12T10:06:24Z</time>
      </trkpt>
      <trkpt lat="42.87154" lon="0.26072">
        <ele>2198.2</ele>
        <time>2022-02-12T10:06:27Z</time>
      </trkpt>
      <trkpt lat="42.87155" lon="0.26072">
        <ele>2198.8</ele>
        <time>2022-02-12T10:06:30Z</time>
      </trkpt>
      <trkpt lat="42.87155" lon="0.26072">
        <ele>2199.2</ele>
        <time>2022-02-12T10:06:31Z</time>
      </trkpt>
      <trkpt lat="42.87155" lon="0.26073">
        <ele>2199.8</ele>
        <time>2022-02-12T10:06:34Z</time>
      </trkpt>
      <trkpt lat="42.87156" lon="0.26075">
        <ele>2200.4</ele>
        <time>2022-02-12T10:06:43Z</time>
      </trkpt>
      <trkpt lat="42.87154" lon="0.26075">
        <ele>2201</ele>
        <time>2022-02-12T10:06:49Z</time>
      </trkpt>
      <trkpt lat="42.87153" lon="0.26077">
        <ele>2201.2</ele>
        <time>2022-02-12T10:06:56Z</time>
      </trkpt>
      <trkpt lat="42.87153" lon="0.26077">
        <ele>2201.6</ele>
        <time>2022-02-12T10:06:59Z</time>
      </trkpt>
      <trkpt lat="42.87153" lon="0.26076">
        <ele>2202</ele>
        <time>2022-02-12T10:07:02Z</time>
      </trkpt>
      <trkpt lat="42.87154" lon="0.26076">
        <ele>2202.2</ele>
        <time>2022-02-12T10:07:03Z</time>
      </trkpt>
      <trkpt lat="42.87154" lon="0.26076">
        <ele>2202.6</ele>
        <time>2022-02-12T10:07:08Z</time>
      </trkpt>
      <trkpt lat="42.87154" lon="0.26075">
        <ele>2202.8</ele>
        <time>2022-02-12T10:07:10Z</time>
      </trkpt>
      <trkpt lat="42.87155" lon="0.26075">
        <ele>2203</ele>
        <time>2022-02-12T10:07:12Z</time>
      </trkpt>
      <trkpt lat="42.87155" lon="0.26076">
        <ele>2203.2</ele>
        <time>2022-02-12T10:07:13Z</time>
      </trkpt>
      <trkpt lat="42.87154" lon="0.26076">
        <ele>2203.8</ele>
        <time>2022-02-12T10:07:16Z</time>
      </trkpt>
      <trkpt lat="42.87154" lon="0.26077">
        <ele>2204</ele>
        <time>2022-02-12T10:07:18Z</time>
      </trkpt>
      <trkpt lat="42.87154" lon="0.26076">
        <ele>2203.8</ele>
        <time>2022-02-12T10:07:24Z</time>
      </trkpt>
      <trkpt lat="42.87154" lon="0.26078">
        <ele>2204.6</ele>
        <time>2022-02-12T10:07:29Z</time>
      </trkpt>
      <trkpt lat="42.87153" lon="0.26078">
        <ele>2204.6</ele>
        <time>2022-02-12T10:07:32Z</time>
      </trkpt>
      <trkpt lat="42.87153" lon="0.26077">
        <ele>2204.8</ele>
        <time>2022-02-12T10:07:38Z</time>
      </trkpt>
      <trkpt lat="42.87153" lon="0.26078">
        <ele>2204.8</ele>
        <time>2022-02-12T10:07:40Z</time>
      </trkpt>
      <trkpt lat="42.87153" lon="0.26078">
        <ele>2204.8</ele>
        <time>2022-02-12T10:07:42Z</time>
      </trkpt>
      <trkpt lat="42.87152" lon="0.26078">
        <ele>2205.2</ele>
        <time>2022-02-12T10:07:45Z</time>
      </trkpt>
      <trkpt lat="42.87153" lon="0.26078">
        <ele>2205.2</ele>
        <time>2022-02-12T10:07:46Z</time>
      </trkpt>
      <trkpt lat="42.87153" lon="0.26079">
        <ele>2206.2</ele>
        <time>2022-02-12T10:07:49Z</time>
      </trkpt>
      <trkpt lat="42.87153" lon="0.2608">
        <ele>2207.4</ele>
        <time>2022-02-12T10:07:54Z</time>
      </trkpt>
      <trkpt lat="42.87154" lon="0.26082">
        <ele>2207.6</ele>
        <time>2022-02-12T10:08:01Z</time>
      </trkpt>
      <trkpt lat="42.87157" lon="0.26087">
        <ele>2208.4</ele>
        <time>2022-02-12T10:08:10Z</time>
      </trkpt>
      <trkpt lat="42.87157" lon="0.26091">
        <ele>2209</ele>
        <time>2022-02-12T10:08:20Z</time>
      </trkpt>
      <trkpt lat="42.87159" lon="0.2609">
        <ele>2208.8</ele>
        <time>2022-02-12T10:08:26Z</time>
      </trkpt>
      <trkpt lat="42.87159" lon="0.2609">
        <ele>2208.4</ele>
        <time>2022-02-12T10:08:33Z</time>
      </trkpt>
      <trkpt lat="42.87164" lon="0.26088">
        <ele>2209</ele>
        <time>2022-02-12T10:08:40Z</time>
      </trkpt>
      <trkpt lat="42.87164" lon="0.26089">
        <ele>2209.4</ele>
        <time>2022-02-12T10:08:45Z</time>
      </trkpt>
      <trkpt lat="42.87164" lon="0.2609">
        <ele>2209.6</ele>
        <time>2022-02-12T10:08:49Z</time>
      </trkpt>
      <trkpt lat="42.87161" lon="0.26091">
        <ele>2210.4</ele>
        <time>2022-02-12T10:08:54Z</time>
      </trkpt>
      <trkpt lat="42.87161" lon="0.2609">
        <ele>2210.6</ele>
        <time>2022-02-12T10:08:56Z</time>
      </trkpt>
      <trkpt lat="42.8716" lon="0.26091">
        <ele>2211.6</ele>
        <time>2022-02-12T10:09:01Z</time>
      </trkpt>
      <trkpt lat="42.8716" lon="0.26093">
        <ele>2211.8</ele>
        <time>2022-02-12T10:09:03Z</time>
      </trkpt>
      <trkpt lat="42.87163" lon="0.26093">
        <ele>2212.6</ele>
        <time>2022-02-12T10:09:08Z</time>
      </trkpt>
      <trkpt lat="42.87164" lon="0.26093">
        <ele>2213</ele>
        <time>2022-02-12T10:09:09Z</time>
      </trkpt>
      <trkpt lat="42.87166" lon="0.26092">
        <ele>2213.8</ele>
        <time>2022-02-12T10:09:12Z</time>
      </trkpt>
      <trkpt lat="42.87167" lon="0.2609">
        <ele>2214.6</ele>
        <time>2022-02-12T10:09:16Z</time>
      </trkpt>
      <trkpt lat="42.87169" lon="0.2609">
        <ele>2214.8</ele>
        <time>2022-02-12T10:09:18Z</time>
      </trkpt>
      <trkpt lat="42.8717" lon="0.26093">
        <ele>2215</ele>
        <time>2022-02-12T10:09:22Z</time>
      </trkpt>
      <trkpt lat="42.8717" lon="0.26096">
        <ele>2215.8</ele>
        <time>2022-02-12T10:09:27Z</time>
      </trkpt>
      <trkpt lat="42.8717" lon="0.26096">
        <ele>2216</ele>
        <time>2022-02-12T10:09:28Z</time>
      </trkpt>
      <trkpt lat="42.87168" lon="0.26098">
        <ele>2216.8</ele>
        <time>2022-02-12T10:09:32Z</time>
      </trkpt>
      <trkpt lat="42.87167" lon="0.26098">
        <ele>2217</ele>
        <time>2022-02-12T10:09:34Z</time>
      </trkpt>
      <trkpt lat="42.87167" lon="0.261">
        <ele>2217.2</ele>
        <time>2022-02-12T10:09:37Z</time>
      </trkpt>
      <trkpt lat="42.87165" lon="0.26101">
        <ele>2218.2</ele>
        <time>2022-02-12T10:09:43Z</time>
      </trkpt>
      <trkpt lat="42.87164" lon="0.26102">
        <ele>2218.4</ele>
        <time>2022-02-12T10:09:45Z</time>
      </trkpt>
      <trkpt lat="42.87159" lon="0.26105">
        <ele>2219.2</ele>
        <time>2022-02-12T10:09:50Z</time>
      </trkpt>
      <trkpt lat="42.87156" lon="0.26106">
        <ele>2219.8</ele>
        <time>2022-02-12T10:09:54Z</time>
      </trkpt>
      <trkpt lat="42.87153" lon="0.26108">
        <ele>2220.4</ele>
        <time>2022-02-12T10:09:59Z</time>
      </trkpt>
      <trkpt lat="42.87152" lon="0.26108">
        <ele>2220.4</ele>
        <time>2022-02-12T10:10:01Z</time>
      </trkpt>
      <trkpt lat="42.87148" lon="0.26106">
        <ele>2221.2</ele>
        <time>2022-02-12T10:10:08Z</time>
      </trkpt>
      <trkpt lat="42.87146" lon="0.26106">
        <ele>2221.4</ele>
        <time>2022-02-12T10:10:14Z</time>
      </trkpt>
      <trkpt lat="42.87145" lon="0.26106">
        <ele>2221.4</ele>
        <time>2022-02-12T10:10:15Z</time>
      </trkpt>
      <trkpt lat="42.87144" lon="0.26106">
        <ele>2221.6</ele>
        <time>2022-02-12T10:10:25Z</time>
      </trkpt>
      <trkpt lat="42.87144" lon="0.26106">
        <ele>2221.4</ele>
        <time>2022-02-12T10:10:33Z</time>
      </trkpt>
      <trkpt lat="42.87146" lon="0.26104">
        <ele>2222</ele>
        <time>2022-02-12T10:10:41Z</time>
      </trkpt>
      <trkpt lat="42.87149" lon="0.26104">
        <ele>2222.2</ele>
        <time>2022-02-12T10:10:45Z</time>
      </trkpt>
      <trkpt lat="42.8715" lon="0.26104">
        <ele>2222.2</ele>
        <time>2022-02-12T10:10:48Z</time>
      </trkpt>
      <trkpt lat="42.8715" lon="0.26104">
        <ele>2222.2</ele>
        <time>2022-02-12T10:10:51Z</time>
      </trkpt>
      <trkpt lat="42.8715" lon="0.26103">
        <ele>2222.2</ele>
        <time>2022-02-12T10:10:52Z</time>
      </trkpt>
      <trkpt lat="42.87152" lon="0.26104">
        <ele>2222</ele>
        <time>2022-02-12T10:10:57Z</time>
      </trkpt>
      <trkpt lat="42.87152" lon="0.26104">
        <ele>2222</ele>
        <time>2022-02-12T10:11:01Z</time>
      </trkpt>
      <trkpt lat="42.87151" lon="0.26105">
        <ele>2222</ele>
        <time>2022-02-12T10:11:04Z</time>
      </trkpt>
      <trkpt lat="42.87148" lon="0.26106">
        <ele>2222.2</ele>
        <time>2022-02-12T10:11:12Z</time>
      </trkpt>
      <trkpt lat="42.87148" lon="0.26107">
        <ele>2222.4</ele>
        <time>2022-02-12T10:11:15Z</time>
      </trkpt>
      <trkpt lat="42.87148" lon="0.26107">
        <ele>2223.2</ele>
        <time>2022-02-12T10:11:20Z</time>
      </trkpt>
      <trkpt lat="42.87147" lon="0.26107">
        <ele>2223.6</ele>
        <time>2022-02-12T10:11:25Z</time>
      </trkpt>
      <trkpt lat="42.87143" lon="0.2611">
        <ele>2223.8</ele>
        <time>2022-02-12T10:11:31Z</time>
      </trkpt>
      <trkpt lat="42.87141" lon="0.26111">
        <ele>2222.8</ele>
        <time>2022-02-12T10:11:40Z</time>
      </trkpt>
      <trkpt lat="42.87137" lon="0.26113">
        <ele>2223.2</ele>
        <time>2022-02-12T10:11:47Z</time>
      </trkpt>
      <trkpt lat="42.87135" lon="0.26115">
        <ele>2223.2</ele>
        <time>2022-02-12T10:11:50Z</time>
      </trkpt>
      <trkpt lat="42.87135" lon="0.26114">
        <ele>2222.6</ele>
        <time>2022-02-12T10:11:57Z</time>
      </trkpt>
      <trkpt lat="42.87135" lon="0.26116">
        <ele>2223</ele>
        <time>2022-02-12T10:12:01Z</time>
      </trkpt>
      <trkpt lat="42.87135" lon="0.26116">
        <ele>2223.2</ele>
        <time>2022-02-12T10:12:02Z</time>
      </trkpt>
      <trkpt lat="42.87136" lon="0.26115">
        <ele>2223.6</ele>
        <time>2022-02-12T10:12:05Z</time>
      </trkpt>
      <trkpt lat="42.87137" lon="0.26113">
        <ele>2224</ele>
        <time>2022-02-12T10:12:08Z</time>
      </trkpt>
      <trkpt lat="42.87138" lon="0.26112">
        <ele>2223.8</ele>
        <time>2022-02-12T10:12:13Z</time>
      </trkpt>
      <trkpt lat="42.87143" lon="0.26109">
        <ele>2223.8</ele>
        <time>2022-02-12T10:12:21Z</time>
      </trkpt>
      <trkpt lat="42.87143" lon="0.26109">
        <ele>2223.6</ele>
        <time>2022-02-12T10:12:22Z</time>
      </trkpt>
      <trkpt lat="42.87145" lon="0.26109">
        <ele>2223.6</ele>
        <time>2022-02-12T10:12:28Z</time>
      </trkpt>
      <trkpt lat="42.87147" lon="0.26112">
        <ele>2224.8</ele>
        <time>2022-02-12T10:12:35Z</time>
      </trkpt>
      <trkpt lat="42.87149" lon="0.26116">
        <ele>2225.4</ele>
        <time>2022-02-12T10:12:39Z</time>
      </trkpt>
      <trkpt lat="42.87149" lon="0.26117">
        <ele>2225.8</ele>
        <time>2022-02-12T10:12:41Z</time>
      </trkpt>
      <trkpt lat="42.87149" lon="0.26116">
        <ele>2226.4</ele>
        <time>2022-02-12T10:12:43Z</time>
      </trkpt>
      <trkpt lat="42.87149" lon="0.26117">
        <ele>2227</ele>
        <time>2022-02-12T10:12:45Z</time>
      </trkpt>
      <trkpt lat="42.8715" lon="0.2612">
        <ele>2227.6</ele>
        <time>2022-02-12T10:12:50Z</time>
      </trkpt>
      <trkpt lat="42.87151" lon="0.26121">
        <ele>2227.8</ele>
        <time>2022-02-12T10:12:52Z</time>
      </trkpt>
      <trkpt lat="42.87151" lon="0.26122">
        <ele>2228</ele>
        <time>2022-02-12T10:12:54Z</time>
      </trkpt>
      <trkpt lat="42.87151" lon="0.26122">
        <ele>2229</ele>
        <time>2022-02-12T10:12:58Z</time>
      </trkpt>
      <trkpt lat="42.87151" lon="0.26122">
        <ele>2229.2</ele>
        <time>2022-02-12T10:13:00Z</time>
      </trkpt>
      <trkpt lat="42.87148" lon="0.26127">
        <ele>2230</ele>
        <time>2022-02-12T10:13:05Z</time>
      </trkpt>
      <trkpt lat="42.87148" lon="0.26127">
        <ele>2230</ele>
        <time>2022-02-12T10:13:06Z</time>
      </trkpt>
      <trkpt lat="42.87148" lon="0.26127">
        <ele>2230.2</ele>
        <time>2022-02-12T10:13:07Z</time>
      </trkpt>
      <trkpt lat="42.87148" lon="0.26131">
        <ele>2231.2</ele>
        <time>2022-02-12T10:13:13Z</time>
      </trkpt>
      <trkpt lat="42.87149" lon="0.26131">
        <ele>2231.2</ele>
        <time>2022-02-12T10:13:14Z</time>
      </trkpt>
      <trkpt lat="42.8715" lon="0.26132">
        <ele>2231.8</ele>
        <time>2022-02-12T10:13:18Z</time>
      </trkpt>
      <trkpt lat="42.87151" lon="0.26133">
        <ele>2232.4</ele>
        <time>2022-02-12T10:13:20Z</time>
      </trkpt>
      <trkpt lat="42.87151" lon="0.26136">
        <ele>2232.8</ele>
        <time>2022-02-12T10:13:25Z</time>
      </trkpt>
      <trkpt lat="42.87151" lon="0.26139">
        <ele>2233.4</ele>
        <time>2022-02-12T10:13:30Z</time>
      </trkpt>
      <trkpt lat="42.8715" lon="0.26141">
        <ele>2234</ele>
        <time>2022-02-12T10:13:34Z</time>
      </trkpt>
      <trkpt lat="42.8715" lon="0.26145">
        <ele>2234.4</ele>
        <time>2022-02-12T10:13:40Z</time>
      </trkpt>
      <trkpt lat="42.8715" lon="0.26146">
        <ele>2234.4</ele>
        <time>2022-02-12T10:13:41Z</time>
      </trkpt>
      <trkpt lat="42.87154" lon="0.26151">
        <ele>2235.8</ele>
        <time>2022-02-12T10:13:48Z</time>
      </trkpt>
      <trkpt lat="42.87157" lon="0.26156">
        <ele>2236.8</ele>
        <time>2022-02-12T10:13:54Z</time>
      </trkpt>
      <trkpt lat="42.87157" lon="0.26159">
        <ele>2236.8</ele>
        <time>2022-02-12T10:13:58Z</time>
      </trkpt>
      <trkpt lat="42.87153" lon="0.26164">
        <ele>2237.8</ele>
        <time>2022-02-12T10:14:06Z</time>
      </trkpt>
      <trkpt lat="42.87152" lon="0.26164">
        <ele>2238</ele>
        <time>2022-02-12T10:14:07Z</time>
      </trkpt>
      <trkpt lat="42.87149" lon="0.26167">
        <ele>2239.2</ele>
        <time>2022-02-12T10:14:13Z</time>
      </trkpt>
      <trkpt lat="42.87149" lon="0.26167">
        <ele>2239.2</ele>
        <time>2022-02-12T10:14:14Z</time>
      </trkpt>
      <trkpt lat="42.87147" lon="0.26167">
        <ele>2239.8</ele>
        <time>2022-02-12T10:14:19Z</time>
      </trkpt>
      <trkpt lat="42.87147" lon="0.26168">
        <ele>2240</ele>
        <time>2022-02-12T10:14:20Z</time>
      </trkpt>
      <trkpt lat="42.87147" lon="0.26168">
        <ele>2240.2</ele>
        <time>2022-02-12T10:14:21Z</time>
      </trkpt>
      <trkpt lat="42.87145" lon="0.2617">
        <ele>2240.6</ele>
        <time>2022-02-12T10:14:27Z</time>
      </trkpt>
      <trkpt lat="42.87145" lon="0.26169">
        <ele>2240.8</ele>
        <time>2022-02-12T10:14:30Z</time>
      </trkpt>
      <trkpt lat="42.87146" lon="0.26167">
        <ele>2241.2</ele>
        <time>2022-02-12T10:14:34Z</time>
      </trkpt>
      <trkpt lat="42.87145" lon="0.26168">
        <ele>2241.2</ele>
        <time>2022-02-12T10:14:36Z</time>
      </trkpt>
      <trkpt lat="42.87145" lon="0.26172">
        <ele>2242</ele>
        <time>2022-02-12T10:14:42Z</time>
      </trkpt>
      <trkpt lat="42.87145" lon="0.26173">
        <ele>2242.6</ele>
        <time>2022-02-12T10:14:45Z</time>
      </trkpt>
      <trkpt lat="42.87145" lon="0.26175">
        <ele>2243.4</ele>
        <time>2022-02-12T10:14:49Z</time>
      </trkpt>
      <trkpt lat="42.87145" lon="0.26175">
        <ele>2243.6</ele>
        <time>2022-02-12T10:14:51Z</time>
      </trkpt>
      <trkpt lat="42.87145" lon="0.26178">
        <ele>2244.4</ele>
        <time>2022-02-12T10:14:56Z</time>
      </trkpt>
      <trkpt lat="42.87145" lon="0.26179">
        <ele>2244.8</ele>
        <time>2022-02-12T10:14:58Z</time>
      </trkpt>
      <trkpt lat="42.87145" lon="0.26179">
        <ele>2245.6</ele>
        <time>2022-02-12T10:15:03Z</time>
      </trkpt>
      <trkpt lat="42.87144" lon="0.26181">
        <ele>2245.8</ele>
        <time>2022-02-12T10:15:07Z</time>
      </trkpt>
      <trkpt lat="42.87144" lon="0.26183">
        <ele>2246.4</ele>
        <time>2022-02-12T10:15:10Z</time>
      </trkpt>
      <trkpt lat="42.87142" lon="0.26186">
        <ele>2247</ele>
        <time>2022-02-12T10:15:15Z</time>
      </trkpt>
      <trkpt lat="42.87142" lon="0.26186">
        <ele>2247.6</ele>
        <time>2022-02-12T10:15:18Z</time>
      </trkpt>
      <trkpt lat="42.87139" lon="0.26186">
        <ele>2248</ele>
        <time>2022-02-12T10:15:22Z</time>
      </trkpt>
      <trkpt lat="42.87137" lon="0.26189">
        <ele>2248.8</ele>
        <time>2022-02-12T10:15:25Z</time>
      </trkpt>
      <trkpt lat="42.87135" lon="0.2619">
        <ele>2249.2</ele>
        <time>2022-02-12T10:15:30Z</time>
      </trkpt>
      <trkpt lat="42.87134" lon="0.2619">
        <ele>2250</ele>
        <time>2022-02-12T10:15:35Z</time>
      </trkpt>
      <trkpt lat="42.87133" lon="0.26193">
        <ele>2250.2</ele>
        <time>2022-02-12T10:15:37Z</time>
      </trkpt>
      <trkpt lat="42.87131" lon="0.26194">
        <ele>2250.6</ele>
        <time>2022-02-12T10:15:41Z</time>
      </trkpt>
      <trkpt lat="42.8713" lon="0.26194">
        <ele>2251</ele>
        <time>2022-02-12T10:15:42Z</time>
      </trkpt>
      <trkpt lat="42.87129" lon="0.26197">
        <ele>2251.4</ele>
        <time>2022-02-12T10:15:44Z</time>
      </trkpt>
      <trkpt lat="42.87128" lon="0.26197">
        <ele>2252</ele>
        <time>2022-02-12T10:15:49Z</time>
      </trkpt>
      <trkpt lat="42.87128" lon="0.26199">
        <ele>2252.2</ele>
        <time>2022-02-12T10:15:50Z</time>
      </trkpt>
      <trkpt lat="42.87128" lon="0.262">
        <ele>2252.4</ele>
        <time>2022-02-12T10:15:51Z</time>
      </trkpt>
      <trkpt lat="42.87129" lon="0.262">
        <ele>2253</ele>
        <time>2022-02-12T10:15:54Z</time>
      </trkpt>
      <trkpt lat="42.8713" lon="0.26199">
        <ele>2253</ele>
        <time>2022-02-12T10:15:56Z</time>
      </trkpt>
      <trkpt lat="42.87129" lon="0.26202">
        <ele>2253.4</ele>
        <time>2022-02-12T10:15:58Z</time>
      </trkpt>
      <trkpt lat="42.87129" lon="0.262">
        <ele>2252.8</ele>
        <time>2022-02-12T10:16:04Z</time>
      </trkpt>
      <trkpt lat="42.8713" lon="0.26201">
        <ele>2253</ele>
        <time>2022-02-12T10:16:09Z</time>
      </trkpt>
      <trkpt lat="42.8713" lon="0.26202">
        <ele>2253.2</ele>
        <time>2022-02-12T10:16:13Z</time>
      </trkpt>
      <trkpt lat="42.87129" lon="0.26208">
        <ele>2253.8</ele>
        <time>2022-02-12T10:16:20Z</time>
      </trkpt>
      <trkpt lat="42.8713" lon="0.26205">
        <ele>2254</ele>
        <time>2022-02-12T10:16:24Z</time>
      </trkpt>
      <trkpt lat="42.87131" lon="0.26205">
        <ele>2254.2</ele>
        <time>2022-02-12T10:16:25Z</time>
      </trkpt>
      <trkpt lat="42.87131" lon="0.26209">
        <ele>2254.4</ele>
        <time>2022-02-12T10:16:28Z</time>
      </trkpt>
      <trkpt lat="42.87132" lon="0.2621">
        <ele>2254.6</ele>
        <time>2022-02-12T10:16:34Z</time>
      </trkpt>
      <trkpt lat="42.87134" lon="0.26204">
        <ele>2254</ele>
        <time>2022-02-12T10:16:42Z</time>
      </trkpt>
      <trkpt lat="42.87127" lon="0.26213">
        <ele>2253.8</ele>
        <time>2022-02-12T10:16:48Z</time>
      </trkpt>
      <trkpt lat="42.87126" lon="0.26212">
        <ele>2253.6</ele>
        <time>2022-02-12T10:16:51Z</time>
      </trkpt>
      <trkpt lat="42.87129" lon="0.26208">
        <ele>2253.6</ele>
        <time>2022-02-12T10:16:59Z</time>
      </trkpt>
      <trkpt lat="42.87131" lon="0.26206">
        <ele>2253.4</ele>
        <time>2022-02-12T10:17:01Z</time>
      </trkpt>
      <trkpt lat="42.87132" lon="0.26206">
        <ele>2253.2</ele>
        <time>2022-02-12T10:17:05Z</time>
      </trkpt>
      <trkpt lat="42.87132" lon="0.26207">
        <ele>2253.2</ele>
        <time>2022-02-12T10:17:10Z</time>
      </trkpt>
      <trkpt lat="42.87132" lon="0.26205">
        <ele>2253.2</ele>
        <time>2022-02-12T10:17:16Z</time>
      </trkpt>
      <trkpt lat="42.87131" lon="0.2621">
        <ele>2252.4</ele>
        <time>2022-02-12T10:17:31Z</time>
      </trkpt>
      <trkpt lat="42.87131" lon="0.2621">
        <ele>2252.4</ele>
        <time>2022-02-12T10:17:32Z</time>
      </trkpt>
      <trkpt lat="42.87131" lon="0.2621">
        <ele>2252</ele>
        <time>2022-02-12T10:17:39Z</time>
      </trkpt>
      <trkpt lat="42.87131" lon="0.2621">
        <ele>2252</ele>
        <time>2022-02-12T10:17:44Z</time>
      </trkpt>
      <trkpt lat="42.87131" lon="0.2621">
        <ele>2251.2</ele>
        <time>2022-02-12T10:17:52Z</time>
      </trkpt>
      <trkpt lat="42.87131" lon="0.2621">
        <ele>2251</ele>
        <time>2022-02-12T10:17:57Z</time>
      </trkpt>
      <trkpt lat="42.87131" lon="0.26211">
        <ele>2251.8</ele>
        <time>2022-02-12T10:18:12Z</time>
      </trkpt>
      <trkpt lat="42.87131" lon="0.26212">
        <ele>2251.6</ele>
        <time>2022-02-12T10:18:38Z</time>
      </trkpt>
      <trkpt lat="42.87136" lon="0.26213">
        <ele>2252.4</ele>
        <time>2022-02-12T10:18:45Z</time>
      </trkpt>
      <trkpt lat="42.87137" lon="0.26213">
        <ele>2252.4</ele>
        <time>2022-02-12T10:18:46Z</time>
      </trkpt>
      <trkpt lat="42.87139" lon="0.26211">
        <ele>2253</ele>
        <time>2022-02-12T10:18:50Z</time>
      </trkpt>
      <trkpt lat="42.8714" lon="0.26211">
        <ele>2253.4</ele>
        <time>2022-02-12T10:18:53Z</time>
      </trkpt>
      <trkpt lat="42.8714" lon="0.26211">
        <ele>2253.6</ele>
        <time>2022-02-12T10:18:54Z</time>
      </trkpt>
      <trkpt lat="42.8714" lon="0.26211">
        <ele>2253.8</ele>
        <time>2022-02-12T10:18:56Z</time>
      </trkpt>
      <trkpt lat="42.8714" lon="0.2621">
        <ele>2254</ele>
        <time>2022-02-12T10:18:58Z</time>
      </trkpt>
      <trkpt lat="42.87142" lon="0.2621">
        <ele>2254.4</ele>
        <time>2022-02-12T10:19:03Z</time>
      </trkpt>
      <trkpt lat="42.87143" lon="0.26211">
        <ele>2254.4</ele>
        <time>2022-02-12T10:19:04Z</time>
      </trkpt>
      <trkpt lat="42.87145" lon="0.2621">
        <ele>2255.4</ele>
        <time>2022-02-12T10:19:10Z</time>
      </trkpt>
      <trkpt lat="42.87146" lon="0.2621">
        <ele>2255.6</ele>
        <time>2022-02-12T10:19:11Z</time>
      </trkpt>
      <trkpt lat="42.87147" lon="0.26209">
        <ele>2255.8</ele>
        <time>2022-02-12T10:19:14Z</time>
      </trkpt>
      <trkpt lat="42.87149" lon="0.26209">
        <ele>2256.6</ele>
        <time>2022-02-12T10:19:17Z</time>
      </trkpt>
      <trkpt lat="42.87149" lon="0.26208">
        <ele>2256.6</ele>
        <time>2022-02-12T10:19:18Z</time>
      </trkpt>
      <trkpt lat="42.8715" lon="0.26208">
        <ele>2256.8</ele>
        <time>2022-02-12T10:19:20Z</time>
      </trkpt>
      <trkpt lat="42.87151" lon="0.26207">
        <ele>2257.2</ele>
        <time>2022-02-12T10:19:23Z</time>
      </trkpt>
      <trkpt lat="42.87152" lon="0.26207">
        <ele>2257.4</ele>
        <time>2022-02-12T10:19:25Z</time>
      </trkpt>
      <trkpt lat="42.87153" lon="0.26206">
        <ele>2257.8</ele>
        <time>2022-02-12T10:19:28Z</time>
      </trkpt>
      <trkpt lat="42.87154" lon="0.26207">
        <ele>2258.4</ele>
        <time>2022-02-12T10:19:31Z</time>
      </trkpt>
      <trkpt lat="42.87154" lon="0.2621">
        <ele>2258.8</ele>
        <time>2022-02-12T10:19:36Z</time>
      </trkpt>
      <trkpt lat="42.87154" lon="0.26211">
        <ele>2259.8</ele>
        <time>2022-02-12T10:19:38Z</time>
      </trkpt>
      <trkpt lat="42.87154" lon="0.26211">
        <ele>2260</ele>
        <time>2022-02-12T10:19:39Z</time>
      </trkpt>
      <trkpt lat="42.87154" lon="0.26214">
        <ele>2260.4</ele>
        <time>2022-02-12T10:19:43Z</time>
      </trkpt>
      <trkpt lat="42.87154" lon="0.26215">
        <ele>2260.6</ele>
        <time>2022-02-12T10:19:45Z</time>
      </trkpt>
      <trkpt lat="42.87153" lon="0.26217">
        <ele>2261</ele>
        <time>2022-02-12T10:19:48Z</time>
      </trkpt>
      <trkpt lat="42.87151" lon="0.26218">
        <ele>2262.2</ele>
        <time>2022-02-12T10:19:51Z</time>
      </trkpt>
      <trkpt lat="42.8715" lon="0.26218">
        <ele>2262.2</ele>
        <time>2022-02-12T10:19:52Z</time>
      </trkpt>
      <trkpt lat="42.8715" lon="0.2622">
        <ele>2263.2</ele>
        <time>2022-02-12T10:19:56Z</time>
      </trkpt>
      <trkpt lat="42.87151" lon="0.2622">
        <ele>2263.8</ele>
        <time>2022-02-12T10:19:59Z</time>
      </trkpt>
      <trkpt lat="42.87152" lon="0.2622">
        <ele>2264.2</ele>
        <time>2022-02-12T10:20:01Z</time>
      </trkpt>
      <trkpt lat="42.87154" lon="0.26219">
        <ele>2265.6</ele>
        <time>2022-02-12T10:20:04Z</time>
      </trkpt>
      <trkpt lat="42.87155" lon="0.2622">
        <ele>2265.8</ele>
        <time>2022-02-12T10:20:05Z</time>
      </trkpt>
      <trkpt lat="42.87155" lon="0.2622">
        <ele>2266</ele>
        <time>2022-02-12T10:20:06Z</time>
      </trkpt>
      <trkpt lat="42.87157" lon="0.26219">
        <ele>2266.8</ele>
        <time>2022-02-12T10:20:09Z</time>
      </trkpt>
      <trkpt lat="42.87157" lon="0.26219">
        <ele>2267</ele>
        <time>2022-02-12T10:20:10Z</time>
      </trkpt>
      <trkpt lat="42.8716" lon="0.26218">
        <ele>2268</ele>
        <time>2022-02-12T10:20:15Z</time>
      </trkpt>
      <trkpt lat="42.87161" lon="0.26217">
        <ele>2268.2</ele>
        <time>2022-02-12T10:20:17Z</time>
      </trkpt>
      <trkpt lat="42.87163" lon="0.26217">
        <ele>2269.2</ele>
        <time>2022-02-12T10:20:21Z</time>
      </trkpt>
      <trkpt lat="42.87164" lon="0.26217">
        <ele>2269.2</ele>
        <time>2022-02-12T10:20:23Z</time>
      </trkpt>
      <trkpt lat="42.87164" lon="0.26221">
        <ele>2269.4</ele>
        <time>2022-02-12T10:20:29Z</time>
      </trkpt>
      <trkpt lat="42.87162" lon="0.26226">
        <ele>2270.2</ele>
        <time>2022-02-12T10:20:37Z</time>
      </trkpt>
      <trkpt lat="42.87162" lon="0.26227">
        <ele>2270.2</ele>
        <time>2022-02-12T10:20:38Z</time>
      </trkpt>
      <trkpt lat="42.87162" lon="0.26231">
        <ele>2271</ele>
        <time>2022-02-12T10:20:43Z</time>
      </trkpt>
      <trkpt lat="42.8716" lon="0.26233">
        <ele>2271.6</ele>
        <time>2022-02-12T10:20:47Z</time>
      </trkpt>
      <trkpt lat="42.87159" lon="0.26234">
        <ele>2272</ele>
        <time>2022-02-12T10:20:49Z</time>
      </trkpt>
      <trkpt lat="42.87159" lon="0.26236">
        <ele>2272.6</ele>
        <time>2022-02-12T10:20:52Z</time>
      </trkpt>
      <trkpt lat="42.87157" lon="0.26238">
        <ele>2273.4</ele>
        <time>2022-02-12T10:20:57Z</time>
      </trkpt>
      <trkpt lat="42.87156" lon="0.26238">
        <ele>2273.8</ele>
        <time>2022-02-12T10:20:59Z</time>
      </trkpt>
      <trkpt lat="42.87155" lon="0.2624">
        <ele>2274.2</ele>
        <time>2022-02-12T10:21:03Z</time>
      </trkpt>
      <trkpt lat="42.87157" lon="0.26241">
        <ele>2274.8</ele>
        <time>2022-02-12T10:21:06Z</time>
      </trkpt>
      <trkpt lat="42.87159" lon="0.26242">
        <ele>2276</ele>
        <time>2022-02-12T10:21:09Z</time>
      </trkpt>
      <trkpt lat="42.87161" lon="0.26243">
        <ele>2277</ele>
        <time>2022-02-12T10:21:14Z</time>
      </trkpt>
      <trkpt lat="42.87161" lon="0.26244">
        <ele>2277</ele>
        <time>2022-02-12T10:21:15Z</time>
      </trkpt>
      <trkpt lat="42.87158" lon="0.26247">
        <ele>2278</ele>
        <time>2022-02-12T10:21:22Z</time>
      </trkpt>
      <trkpt lat="42.87156" lon="0.26248">
        <ele>2278.4</ele>
        <time>2022-02-12T10:21:29Z</time>
      </trkpt>
      <trkpt lat="42.87154" lon="0.26249">
        <ele>2279</ele>
        <time>2022-02-12T10:21:33Z</time>
      </trkpt>
      <trkpt lat="42.87155" lon="0.2625">
        <ele>2280.2</ele>
        <time>2022-02-12T10:21:39Z</time>
      </trkpt>
      <trkpt lat="42.87155" lon="0.26251">
        <ele>2280.2</ele>
        <time>2022-02-12T10:21:40Z</time>
      </trkpt>
      <trkpt lat="42.8716" lon="0.26256">
        <ele>2279.4</ele>
        <time>2022-02-12T10:21:48Z</time>
      </trkpt>
      <trkpt lat="42.87159" lon="0.26257">
        <ele>2279.4</ele>
        <time>2022-02-12T10:21:53Z</time>
      </trkpt>
      <trkpt lat="42.87157" lon="0.26255">
        <ele>2279.4</ele>
        <time>2022-02-12T10:21:57Z</time>
      </trkpt>
      <trkpt lat="42.87156" lon="0.26255">
        <ele>2279</ele>
        <time>2022-02-12T10:22:02Z</time>
      </trkpt>
      <trkpt lat="42.87156" lon="0.26255">
        <ele>2279</ele>
        <time>2022-02-12T10:22:03Z</time>
      </trkpt>
      <trkpt lat="42.87157" lon="0.26255">
        <ele>2278.8</ele>
        <time>2022-02-12T10:22:11Z</time>
      </trkpt>
      <trkpt lat="42.87157" lon="0.26255">
        <ele>2278.6</ele>
        <time>2022-02-12T10:22:12Z</time>
      </trkpt>
      <trkpt lat="42.87157" lon="0.26255">
        <ele>2278.4</ele>
        <time>2022-02-12T10:22:16Z</time>
      </trkpt>
      <trkpt lat="42.87157" lon="0.26255">
        <ele>2278.2</ele>
        <time>2022-02-12T10:22:20Z</time>
      </trkpt>
      <trkpt lat="42.87158" lon="0.26255">
        <ele>2277.8</ele>
        <time>2022-02-12T10:22:22Z</time>
      </trkpt>
      <trkpt lat="42.87157" lon="0.26254">
        <ele>2277.6</ele>
        <time>2022-02-12T10:22:29Z</time>
      </trkpt>
      <trkpt lat="42.87158" lon="0.26254">
        <ele>2278.8</ele>
        <time>2022-02-12T10:22:40Z</time>
      </trkpt>
      <trkpt lat="42.87158" lon="0.26253">
        <ele>2278.4</ele>
        <time>2022-02-12T10:22:47Z</time>
      </trkpt>
      <trkpt lat="42.87157" lon="0.26253">
        <ele>2278</ele>
        <time>2022-02-12T10:22:51Z</time>
      </trkpt>
      <trkpt lat="42.87158" lon="0.26253">
        <ele>2277.8</ele>
        <time>2022-02-12T10:22:52Z</time>
      </trkpt>
      <trkpt lat="42.87157" lon="0.26253">
        <ele>2277.6</ele>
        <time>2022-02-12T10:22:57Z</time>
      </trkpt>
      <trkpt lat="42.87157" lon="0.26253">
        <ele>2277.6</ele>
        <time>2022-02-12T10:23:00Z</time>
      </trkpt>
      <trkpt lat="42.87158" lon="0.26253">
        <ele>2277.6</ele>
        <time>2022-02-12T10:23:02Z</time>
      </trkpt>
      <trkpt lat="42.87157" lon="0.26251">
        <ele>2278.6</ele>
        <time>2022-02-12T10:23:12Z</time>
      </trkpt>
      <trkpt lat="42.87157" lon="0.2625">
        <ele>2278.2</ele>
        <time>2022-02-12T10:23:19Z</time>
      </trkpt>
      <trkpt lat="42.87159" lon="0.26248">
        <ele>2277.2</ele>
        <time>2022-02-12T10:23:27Z</time>
      </trkpt>
      <trkpt lat="42.8716" lon="0.26249">
        <ele>2277.6</ele>
        <time>2022-02-12T10:23:37Z</time>
      </trkpt>
      <trkpt lat="42.8716" lon="0.26252">
        <ele>2277.8</ele>
        <time>2022-02-12T10:23:43Z</time>
      </trkpt>
      <trkpt lat="42.87162" lon="0.26257">
        <ele>2277.6</ele>
        <time>2022-02-12T10:23:50Z</time>
      </trkpt>
      <trkpt lat="42.87163" lon="0.26258">
        <ele>2277.4</ele>
        <time>2022-02-12T10:23:53Z</time>
      </trkpt>
      <trkpt lat="42.87163" lon="0.26259">
        <ele>2267.2</ele>
        <time>2022-02-12T10:23:54Z</time>
      </trkpt>
      <trkpt lat="42.87163" lon="0.26259">
        <ele>2267.2</ele>
        <time>2022-02-12T10:23:55Z</time>
      </trkpt>
      <trkpt lat="42.87163" lon="0.26259">
        <ele>2267.2</ele>
        <time>2022-02-12T10:23:57Z</time>
      </trkpt>
      <trkpt lat="42.87163" lon="0.26258">
        <ele>2272</ele>
        <time>2022-02-12T10:23:58Z</time>
      </trkpt>
      <trkpt lat="42.87163" lon="0.26258">
        <ele>2274.6</ele>
        <time>2022-02-12T10:23:59Z</time>
      </trkpt>
      <trkpt lat="42.87163" lon="0.26257">
        <ele>2275.8</ele>
        <time>2022-02-12T10:24:00Z</time>
      </trkpt>
      <trkpt lat="42.87162" lon="0.26257">
        <ele>2276.8</ele>
        <time>2022-02-12T10:24:03Z</time>
      </trkpt>
      <trkpt lat="42.8716" lon="0.26255">
        <ele>2277</ele>
        <time>2022-02-12T10:24:08Z</time>
      </trkpt>
      <trkpt lat="42.87159" lon="0.26255">
        <ele>2277</ele>
        <time>2022-02-12T10:24:10Z</time>
      </trkpt>
      <trkpt lat="42.87158" lon="0.26255">
        <ele>2277</ele>
        <time>2022-02-12T10:24:17Z</time>
      </trkpt>
      <trkpt lat="42.87157" lon="0.26253">
        <ele>2277</ele>
        <time>2022-02-12T10:24:23Z</time>
      </trkpt>
      <trkpt lat="42.87157" lon="0.26254">
        <ele>2277</ele>
        <time>2022-02-12T10:24:31Z</time>
      </trkpt>
      <trkpt lat="42.87157" lon="0.26255">
        <ele>2277</ele>
        <time>2022-02-12T10:24:32Z</time>
      </trkpt>
      <trkpt lat="42.87157" lon="0.26255">
        <ele>2277</ele>
        <time>2022-02-12T10:24:35Z</time>
      </trkpt>
      <trkpt lat="42.87157" lon="0.26255">
        <ele>2277</ele>
        <time>2022-02-12T10:24:38Z</time>
      </trkpt>
      <trkpt lat="42.87157" lon="0.26255">
        <ele>2277</ele>
        <time>2022-02-12T10:24:46Z</time>
      </trkpt>
      <trkpt lat="42.87156" lon="0.26252">
        <ele>2277</ele>
        <time>2022-02-12T10:24:54Z</time>
      </trkpt>
      <trkpt lat="42.87156" lon="0.26252">
        <ele>2280</ele>
        <time>2022-02-12T10:24:55Z</time>
      </trkpt>
      <trkpt lat="42.87157" lon="0.26253">
        <ele>2280</ele>
        <time>2022-02-12T10:24:57Z</time>
      </trkpt>
      <trkpt lat="42.87157" lon="0.26255">
        <ele>2280</ele>
        <time>2022-02-12T10:25:00Z</time>
      </trkpt>
      <trkpt lat="42.87158" lon="0.26255">
        <ele>2280.2</ele>
        <time>2022-02-12T10:25:04Z</time>
      </trkpt>
      <trkpt lat="42.8716" lon="0.26255">
        <ele>2280.2</ele>
        <time>2022-02-12T10:25:08Z</time>
      </trkpt>
      <trkpt lat="42.87162" lon="0.26259">
        <ele>2280.4</ele>
        <time>2022-02-12T10:25:15Z</time>
      </trkpt>
      <trkpt lat="42.87164" lon="0.26258">
        <ele>2280.2</ele>
        <time>2022-02-12T10:25:23Z</time>
      </trkpt>
      <trkpt lat="42.87162" lon="0.26257">
        <ele>2281</ele>
        <time>2022-02-12T10:25:32Z</time>
      </trkpt>
      <trkpt lat="42.87158" lon="0.26255">
        <ele>2281.2</ele>
        <time>2022-02-12T10:25:39Z</time>
      </trkpt>
      <trkpt lat="42.87157" lon="0.26255">
        <ele>2281.2</ele>
        <time>2022-02-12T10:25:40Z</time>
      </trkpt>
      <trkpt lat="42.87159" lon="0.26254">
        <ele>2281.4</ele>
        <time>2022-02-12T10:25:45Z</time>
      </trkpt>
      <trkpt lat="42.87159" lon="0.26254">
        <ele>2281.2</ele>
        <time>2022-02-12T10:25:53Z</time>
      </trkpt>
      <trkpt lat="42.87161" lon="0.26252">
        <ele>2281.2</ele>
        <time>2022-02-12T10:25:57Z</time>
      </trkpt>
      <trkpt lat="42.87161" lon="0.26252">
        <ele>2281.2</ele>
        <time>2022-02-12T10:26:01Z</time>
      </trkpt>
      <trkpt lat="42.8716" lon="0.26252">
        <ele>2281.8</ele>
        <time>2022-02-12T10:26:08Z</time>
      </trkpt>
      <trkpt lat="42.87159" lon="0.26252">
        <ele>2281.6</ele>
        <time>2022-02-12T10:26:14Z</time>
      </trkpt>
      <trkpt lat="42.87158" lon="0.26253">
        <ele>2281.6</ele>
        <time>2022-02-12T10:26:22Z</time>
      </trkpt>
      <trkpt lat="42.87158" lon="0.26252">
        <ele>2281.4</ele>
        <time>2022-02-12T10:26:29Z</time>
      </trkpt>
      <trkpt lat="42.87155" lon="0.2625">
        <ele>2281.6</ele>
        <time>2022-02-12T10:26:35Z</time>
      </trkpt>
      <trkpt lat="42.87155" lon="0.2625">
        <ele>2281.6</ele>
        <time>2022-02-12T10:26:38Z</time>
      </trkpt>
      <trkpt lat="42.87155" lon="0.26251">
        <ele>2281.6</ele>
        <time>2022-02-12T10:26:41Z</time>
      </trkpt>
      <trkpt lat="42.87156" lon="0.26251">
        <ele>2281.6</ele>
        <time>2022-02-12T10:26:46Z</time>
      </trkpt>
      <trkpt lat="42.87157" lon="0.26251">
        <ele>2281.6</ele>
        <time>2022-02-12T10:26:50Z</time>
      </trkpt>
      <trkpt lat="42.87159" lon="0.26255">
        <ele>2281.4</ele>
        <time>2022-02-12T10:27:00Z</time>
      </trkpt>
      <trkpt lat="42.8716" lon="0.26256">
        <ele>2281.4</ele>
        <time>2022-02-12T10:27:08Z</time>
      </trkpt>
      <trkpt lat="42.8716" lon="0.26256">
        <ele>2281.6</ele>
        <time>2022-02-12T10:27:16Z</time>
      </trkpt>
      <trkpt lat="42.87161" lon="0.26256">
        <ele>2281.6</ele>
        <time>2022-02-12T10:27:21Z</time>
      </trkpt>
      <trkpt lat="42.87161" lon="0.26256">
        <ele>2281.6</ele>
        <time>2022-02-12T10:27:24Z</time>
      </trkpt>
      <trkpt lat="42.8716" lon="0.26255">
        <ele>2281.4</ele>
        <time>2022-02-12T10:27:33Z</time>
      </trkpt>
      <trkpt lat="42.8716" lon="0.26255">
        <ele>2281.6</ele>
        <time>2022-02-12T10:27:40Z</time>
      </trkpt>
      <trkpt lat="42.8716" lon="0.26256">
        <ele>2281.4</ele>
        <time>2022-02-12T10:27:42Z</time>
      </trkpt>
      <trkpt lat="42.87162" lon="0.26256">
        <ele>2281.6</ele>
        <time>2022-02-12T10:27:51Z</time>
      </trkpt>
      <trkpt lat="42.87161" lon="0.26256">
        <ele>2281.6</ele>
        <time>2022-02-12T10:27:59Z</time>
      </trkpt>
      <trkpt lat="42.87157" lon="0.26253">
        <ele>2281.2</ele>
        <time>2022-02-12T10:28:08Z</time>
      </trkpt>
      <trkpt lat="42.87157" lon="0.26255">
        <ele>2281.8</ele>
        <time>2022-02-12T10:28:17Z</time>
      </trkpt>
      <trkpt lat="42.87159" lon="0.26255">
        <ele>2282.2</ele>
        <time>2022-02-12T10:28:23Z</time>
      </trkpt>
      <trkpt lat="42.87159" lon="0.26255">
        <ele>2282.2</ele>
        <time>2022-02-12T10:28:24Z</time>
      </trkpt>
      <trkpt lat="42.87159" lon="0.26255">
        <ele>2282.2</ele>
        <time>2022-02-12T10:28:31Z</time>
      </trkpt>
      <trkpt lat="42.87158" lon="0.26255">
        <ele>2282.2</ele>
        <time>2022-02-12T10:28:40Z</time>
      </trkpt>
      <trkpt lat="42.87159" lon="0.26254">
        <ele>2282</ele>
        <time>2022-02-12T10:28:50Z</time>
      </trkpt>
      <trkpt lat="42.87156" lon="0.26254">
        <ele>2282.2</ele>
        <time>2022-02-12T10:28:59Z</time>
      </trkpt>
      <trkpt lat="42.87157" lon="0.26251">
        <ele>2281.4</ele>
        <time>2022-02-12T10:29:08Z</time>
      </trkpt>
      <trkpt lat="42.87158" lon="0.26253">
        <ele>2281.8</ele>
        <time>2022-02-12T10:29:18Z</time>
      </trkpt>
      <trkpt lat="42.87159" lon="0.26253">
        <ele>2281.4</ele>
        <time>2022-02-12T10:29:25Z</time>
      </trkpt>
      <trkpt lat="42.87159" lon="0.26253">
        <ele>2281.2</ele>
        <time>2022-02-12T10:29:28Z</time>
      </trkpt>
      <trkpt lat="42.8716" lon="0.26254">
        <ele>2280.8</ele>
        <time>2022-02-12T10:29:33Z</time>
      </trkpt>
      <trkpt lat="42.87159" lon="0.26255">
        <ele>2280.6</ele>
        <time>2022-02-12T10:29:42Z</time>
      </trkpt>
      <trkpt lat="42.87159" lon="0.26255">
        <ele>2280.4</ele>
        <time>2022-02-12T10:29:50Z</time>
      </trkpt>
      <trkpt lat="42.87159" lon="0.26256">
        <ele>2280.4</ele>
        <time>2022-02-12T10:29:53Z</time>
      </trkpt>
      <trkpt lat="42.87159" lon="0.26256">
        <ele>2280.4</ele>
        <time>2022-02-12T10:29:54Z</time>
      </trkpt>
      <trkpt lat="42.87157" lon="0.26255">
        <ele>2280.6</ele>
        <time>2022-02-12T10:29:57Z</time>
      </trkpt>
      <trkpt lat="42.87157" lon="0.26254">
        <ele>2280.2</ele>
        <time>2022-02-12T10:30:01Z</time>
      </trkpt>
      <trkpt lat="42.87157" lon="0.26254">
        <ele>2280</ele>
        <time>2022-02-12T10:30:02Z</time>
      </trkpt>
      <trkpt lat="42.87158" lon="0.26254">
        <ele>2280.2</ele>
        <time>2022-02-12T10:30:10Z</time>
      </trkpt>
      <trkpt lat="42.87159" lon="0.26253">
        <ele>2280.4</ele>
        <time>2022-02-12T10:30:17Z</time>
      </trkpt>
      <trkpt lat="42.87162" lon="0.26254">
        <ele>2280.2</ele>
        <time>2022-02-12T10:30:23Z</time>
      </trkpt>
      <trkpt lat="42.87163" lon="0.26255">
        <ele>2281</ele>
        <time>2022-02-12T10:30:30Z</time>
      </trkpt>
      <trkpt lat="42.87164" lon="0.26255">
        <ele>2281.2</ele>
        <time>2022-02-12T10:30:32Z</time>
      </trkpt>
      <trkpt lat="42.87167" lon="0.26255">
        <ele>2281.4</ele>
        <time>2022-02-12T10:30:39Z</time>
      </trkpt>
      <trkpt lat="42.87168" lon="0.26255">
        <ele>2281.6</ele>
        <time>2022-02-12T10:30:41Z</time>
      </trkpt>
      <trkpt lat="42.87169" lon="0.26255">
        <ele>2281.8</ele>
        <time>2022-02-12T10:30:42Z</time>
      </trkpt>
      <trkpt lat="42.8717" lon="0.26255">
        <ele>2282.2</ele>
        <time>2022-02-12T10:30:43Z</time>
      </trkpt>
      <trkpt lat="42.87171" lon="0.26255">
        <ele>2283</ele>
        <time>2022-02-12T10:30:45Z</time>
      </trkpt>
      <trkpt lat="42.87172" lon="0.26255">
        <ele>2283.2</ele>
        <time>2022-02-12T10:30:47Z</time>
      </trkpt>
      <trkpt lat="42.87173" lon="0.26255">
        <ele>2283.4</ele>
        <time>2022-02-12T10:30:49Z</time>
      </trkpt>
      <trkpt lat="42.87174" lon="0.26255">
        <ele>2283.6</ele>
        <time>2022-02-12T10:30:51Z</time>
      </trkpt>
      <trkpt lat="42.87176" lon="0.26255">
        <ele>2283.8</ele>
        <time>2022-02-12T10:30:53Z</time>
      </trkpt>
      <trkpt lat="42.87177" lon="0.26255">
        <ele>2284.2</ele>
        <time>2022-02-12T10:30:55Z</time>
      </trkpt>
      <trkpt lat="42.87177" lon="0.26255">
        <ele>2284.6</ele>
        <time>2022-02-12T10:30:56Z</time>
      </trkpt>
      <trkpt lat="42.87181" lon="0.26254">
        <ele>2285.4</ele>
        <time>2022-02-12T10:31:02Z</time>
      </trkpt>
      <trkpt lat="42.87182" lon="0.26255">
        <ele>2285.6</ele>
        <time>2022-02-12T10:31:04Z</time>
      </trkpt>
      <trkpt lat="42.87182" lon="0.26257">
        <ele>2286.4</ele>
        <time>2022-02-12T10:31:07Z</time>
      </trkpt>
      <trkpt lat="42.87182" lon="0.26257">
        <ele>2287</ele>
        <time>2022-02-12T10:31:09Z</time>
      </trkpt>
      <trkpt lat="42.87181" lon="0.26258">
        <ele>2287.2</ele>
        <time>2022-02-12T10:31:11Z</time>
      </trkpt>
      <trkpt lat="42.87181" lon="0.26259">
        <ele>2287.6</ele>
        <time>2022-02-12T10:31:13Z</time>
      </trkpt>
      <trkpt lat="42.87181" lon="0.2626">
        <ele>2288</ele>
        <time>2022-02-12T10:31:16Z</time>
      </trkpt>
      <trkpt lat="42.8718" lon="0.26263">
        <ele>2288.4</ele>
        <time>2022-02-12T10:31:20Z</time>
      </trkpt>
      <trkpt lat="42.87178" lon="0.26265">
        <ele>2289</ele>
        <time>2022-02-12T10:31:24Z</time>
      </trkpt>
      <trkpt lat="42.87177" lon="0.26266">
        <ele>2289.6</ele>
        <time>2022-02-12T10:31:28Z</time>
      </trkpt>
      <trkpt lat="42.87177" lon="0.26265">
        <ele>2290</ele>
        <time>2022-02-12T10:31:31Z</time>
      </trkpt>
      <trkpt lat="42.87178" lon="0.26266">
        <ele>2290</ele>
        <time>2022-02-12T10:31:32Z</time>
      </trkpt>
      <trkpt lat="42.87179" lon="0.26266">
        <ele>2290.2</ele>
        <time>2022-02-12T10:31:34Z</time>
      </trkpt>
      <trkpt lat="42.8718" lon="0.26266">
        <ele>2290.4</ele>
        <time>2022-02-12T10:31:36Z</time>
      </trkpt>
      <trkpt lat="42.87181" lon="0.26266">
        <ele>2290.4</ele>
        <time>2022-02-12T10:31:37Z</time>
      </trkpt>
      <trkpt lat="42.87182" lon="0.26266">
        <ele>2290.6</ele>
        <time>2022-02-12T10:31:38Z</time>
      </trkpt>
      <trkpt lat="42.87183" lon="0.26267">
        <ele>2291.2</ele>
        <time>2022-02-12T10:31:40Z</time>
      </trkpt>
      <trkpt lat="42.87184" lon="0.26267">
        <ele>2291.4</ele>
        <time>2022-02-12T10:31:41Z</time>
      </trkpt>
      <trkpt lat="42.87186" lon="0.26268">
        <ele>2292</ele>
        <time>2022-02-12T10:31:45Z</time>
      </trkpt>
      <trkpt lat="42.87187" lon="0.26268">
        <ele>2292.2</ele>
        <time>2022-02-12T10:31:46Z</time>
      </trkpt>
      <trkpt lat="42.87188" lon="0.26269">
        <ele>2292.4</ele>
        <time>2022-02-12T10:31:47Z</time>
      </trkpt>
      <trkpt lat="42.87188" lon="0.26271">
        <ele>2292.6</ele>
        <time>2022-02-12T10:31:49Z</time>
      </trkpt>
      <trkpt lat="42.87188" lon="0.26272">
        <ele>2292.8</ele>
        <time>2022-02-12T10:31:51Z</time>
      </trkpt>
      <trkpt lat="42.87187" lon="0.26274">
        <ele>2293.4</ele>
        <time>2022-02-12T10:31:54Z</time>
      </trkpt>
      <trkpt lat="42.87187" lon="0.26277">
        <ele>2294.6</ele>
        <time>2022-02-12T10:31:57Z</time>
      </trkpt>
      <trkpt lat="42.87189" lon="0.26281">
        <ele>2295.2</ele>
        <time>2022-02-12T10:32:02Z</time>
      </trkpt>
      <trkpt lat="42.87189" lon="0.26282">
        <ele>2295.6</ele>
        <time>2022-02-12T10:32:03Z</time>
      </trkpt>
      <trkpt lat="42.87192" lon="0.26285">
        <ele>2295.8</ele>
        <time>2022-02-12T10:32:07Z</time>
      </trkpt>
      <trkpt lat="42.87194" lon="0.26286">
        <ele>2295.8</ele>
        <time>2022-02-12T10:32:09Z</time>
      </trkpt>
      <trkpt lat="42.87194" lon="0.26286">
        <ele>2296.2</ele>
        <time>2022-02-12T10:32:13Z</time>
      </trkpt>
      <trkpt lat="42.87196" lon="0.26291">
        <ele>2296.2</ele>
        <time>2022-02-12T10:32:20Z</time>
      </trkpt>
      <trkpt lat="42.87196" lon="0.26292">
        <ele>2296.6</ele>
        <time>2022-02-12T10:32:21Z</time>
      </trkpt>
      <trkpt lat="42.87196" lon="0.26294">
        <ele>2297</ele>
        <time>2022-02-12T10:32:23Z</time>
      </trkpt>
      <trkpt lat="42.87196" lon="0.26295">
        <ele>2297</ele>
        <time>2022-02-12T10:32:25Z</time>
      </trkpt>
      <trkpt lat="42.87196" lon="0.26297">
        <ele>2297</ele>
        <time>2022-02-12T10:32:27Z</time>
      </trkpt>
      <trkpt lat="42.87197" lon="0.26299">
        <ele>2297</ele>
        <time>2022-02-12T10:32:28Z</time>
      </trkpt>
      <trkpt lat="42.87198" lon="0.26301">
        <ele>2297.2</ele>
        <time>2022-02-12T10:32:30Z</time>
      </trkpt>
      <trkpt lat="42.87198" lon="0.26302">
        <ele>2297</ele>
        <time>2022-02-12T10:32:31Z</time>
      </trkpt>
      <trkpt lat="42.87199" lon="0.26304">
        <ele>2297.4</ele>
        <time>2022-02-12T10:32:34Z</time>
      </trkpt>
      <trkpt lat="42.87199" lon="0.26306">
        <ele>2297.4</ele>
        <time>2022-02-12T10:32:37Z</time>
      </trkpt>
      <trkpt lat="42.87199" lon="0.26306">
        <ele>2297.8</ele>
        <time>2022-02-12T10:32:39Z</time>
      </trkpt>
      <trkpt lat="42.87199" lon="0.26305">
        <ele>2298</ele>
        <time>2022-02-12T10:32:43Z</time>
      </trkpt>
      <trkpt lat="42.872" lon="0.26306">
        <ele>2298</ele>
        <time>2022-02-12T10:32:45Z</time>
      </trkpt>
      <trkpt lat="42.87201" lon="0.26309">
        <ele>2297.8</ele>
        <time>2022-02-12T10:32:50Z</time>
      </trkpt>
      <trkpt lat="42.87201" lon="0.26309">
        <ele>2297.8</ele>
        <time>2022-02-12T10:32:51Z</time>
      </trkpt>
      <trkpt lat="42.872" lon="0.26309">
        <ele>2297.8</ele>
        <time>2022-02-12T10:32:52Z</time>
      </trkpt>
      <trkpt lat="42.87201" lon="0.26307">
        <ele>2297.8</ele>
        <time>2022-02-12T10:32:57Z</time>
      </trkpt>
      <trkpt lat="42.87199" lon="0.26306">
        <ele>2298</ele>
        <time>2022-02-12T10:33:02Z</time>
      </trkpt>
      <trkpt lat="42.87198" lon="0.26306">
        <ele>2297.6</ele>
        <time>2022-02-12T10:33:09Z</time>
      </trkpt>
      <trkpt lat="42.87198" lon="0.26306">
        <ele>2298</ele>
        <time>2022-02-12T10:33:11Z</time>
      </trkpt>
      <trkpt lat="42.87198" lon="0.26306">
        <ele>2298.2</ele>
        <time>2022-02-12T10:33:18Z</time>
      </trkpt>
      <trkpt lat="42.87198" lon="0.26306">
        <ele>2298</ele>
        <time>2022-02-12T10:33:19Z</time>
      </trkpt>
      <trkpt lat="42.87197" lon="0.26307">
        <ele>2298</ele>
        <time>2022-02-12T10:33:20Z</time>
      </trkpt>
      <trkpt lat="42.87197" lon="0.26307">
        <ele>2298</ele>
        <time>2022-02-12T10:33:21Z</time>
      </trkpt>
      <trkpt lat="42.87197" lon="0.26307">
        <ele>2297.8</ele>
        <time>2022-02-12T10:33:25Z</time>
      </trkpt>
      <trkpt lat="42.87197" lon="0.26307">
        <ele>2297.8</ele>
        <time>2022-02-12T10:33:29Z</time>
      </trkpt>
      <trkpt lat="42.87197" lon="0.26306">
        <ele>2297.8</ele>
        <time>2022-02-12T10:33:34Z</time>
      </trkpt>
      <trkpt lat="42.87197" lon="0.26306">
        <ele>2297.8</ele>
        <time>2022-02-12T10:33:35Z</time>
      </trkpt>
      <trkpt lat="42.87196" lon="0.26307">
        <ele>2297.6</ele>
        <time>2022-02-12T10:33:47Z</time>
      </trkpt>
      <trkpt lat="42.87196" lon="0.26308">
        <ele>2296.6</ele>
        <time>2022-02-12T10:33:55Z</time>
      </trkpt>
      <trkpt lat="42.87196" lon="0.26308">
        <ele>2296.6</ele>
        <time>2022-02-12T10:34:00Z</time>
      </trkpt>
      <trkpt lat="42.87196" lon="0.26308">
        <ele>2296.8</ele>
        <time>2022-02-12T10:34:09Z</time>
      </trkpt>
      <trkpt lat="42.87196" lon="0.26308">
        <ele>2296.6</ele>
        <time>2022-02-12T10:34:10Z</time>
      </trkpt>
      <trkpt lat="42.87195" lon="0.26308">
        <ele>2297.6</ele>
        <time>2022-02-12T10:34:26Z</time>
      </trkpt>
      <trkpt lat="42.87195" lon="0.26308">
        <ele>2297.8</ele>
        <time>2022-02-12T10:34:27Z</time>
      </trkpt>
      <trkpt lat="42.87194" lon="0.26308">
        <ele>2297.8</ele>
        <time>2022-02-12T10:34:38Z</time>
      </trkpt>
      <trkpt lat="42.87196" lon="0.26308">
        <ele>2297.8</ele>
        <time>2022-02-12T10:34:52Z</time>
      </trkpt>
      <trkpt lat="42.87197" lon="0.26309">
        <ele>2297.2</ele>
        <time>2022-02-12T10:35:00Z</time>
      </trkpt>
      <trkpt lat="42.87197" lon="0.26309">
        <ele>2297</ele>
        <time>2022-02-12T10:35:04Z</time>
      </trkpt>
      <trkpt lat="42.87197" lon="0.26312">
        <ele>2297</ele>
        <time>2022-02-12T10:35:09Z</time>
      </trkpt>
      <trkpt lat="42.87197" lon="0.26317">
        <ele>2297.6</ele>
        <time>2022-02-12T10:35:15Z</time>
      </trkpt>
      <trkpt lat="42.87198" lon="0.26321">
        <ele>2298.2</ele>
        <time>2022-02-12T10:35:20Z</time>
      </trkpt>
      <trkpt lat="42.87199" lon="0.26321">
        <ele>2298.4</ele>
        <time>2022-02-12T10:35:21Z</time>
      </trkpt>
      <trkpt lat="42.872" lon="0.26324">
        <ele>2298.6</ele>
        <time>2022-02-12T10:35:24Z</time>
      </trkpt>
      <trkpt lat="42.87201" lon="0.26325">
        <ele>2298.6</ele>
        <time>2022-02-12T10:35:25Z</time>
      </trkpt>
      <trkpt lat="42.87201" lon="0.26326">
        <ele>2298.6</ele>
        <time>2022-02-12T10:35:26Z</time>
      </trkpt>
      <trkpt lat="42.87202" lon="0.26327">
        <ele>2298.6</ele>
        <time>2022-02-12T10:35:27Z</time>
      </trkpt>
      <trkpt lat="42.87203" lon="0.26328">
        <ele>2298.8</ele>
        <time>2022-02-12T10:35:28Z</time>
      </trkpt>
      <trkpt lat="42.87205" lon="0.26332">
        <ele>2299.2</ele>
        <time>2022-02-12T10:35:32Z</time>
      </trkpt>
      <trkpt lat="42.87205" lon="0.26332">
        <ele>2299.4</ele>
        <time>2022-02-12T10:35:33Z</time>
      </trkpt>
      <trkpt lat="42.87205" lon="0.26333">
        <ele>2299.6</ele>
        <time>2022-02-12T10:35:34Z</time>
      </trkpt>
      <trkpt lat="42.87205" lon="0.26336">
        <ele>2299.8</ele>
        <time>2022-02-12T10:35:38Z</time>
      </trkpt>
      <trkpt lat="42.87206" lon="0.26337">
        <ele>2299.8</ele>
        <time>2022-02-12T10:35:39Z</time>
      </trkpt>
      <trkpt lat="42.87206" lon="0.26338">
        <ele>2300</ele>
        <time>2022-02-12T10:35:40Z</time>
      </trkpt>
      <trkpt lat="42.87206" lon="0.26341">
        <ele>2300.6</ele>
        <time>2022-02-12T10:35:44Z</time>
      </trkpt>
      <trkpt lat="42.87206" lon="0.26342">
        <ele>2300.8</ele>
        <time>2022-02-12T10:35:45Z</time>
      </trkpt>
      <trkpt lat="42.87205" lon="0.26343">
        <ele>2301</ele>
        <time>2022-02-12T10:35:46Z</time>
      </trkpt>
      <trkpt lat="42.87206" lon="0.26347">
        <ele>2302</ele>
        <time>2022-02-12T10:35:51Z</time>
      </trkpt>
      <trkpt lat="42.87206" lon="0.26348">
        <ele>2302.2</ele>
        <time>2022-02-12T10:35:52Z</time>
      </trkpt>
      <trkpt lat="42.87206" lon="0.26352">
        <ele>2303.4</ele>
        <time>2022-02-12T10:35:56Z</time>
      </trkpt>
      <trkpt lat="42.87207" lon="0.26354">
        <ele>2303.6</ele>
        <time>2022-02-12T10:35:58Z</time>
      </trkpt>
      <trkpt lat="42.87208" lon="0.26356">
        <ele>2304.2</ele>
        <time>2022-02-12T10:36:02Z</time>
      </trkpt>
      <trkpt lat="42.87207" lon="0.26356">
        <ele>2304.2</ele>
        <time>2022-02-12T10:36:03Z</time>
      </trkpt>
      <trkpt lat="42.87207" lon="0.26354">
        <ele>2304</ele>
        <time>2022-02-12T10:36:05Z</time>
      </trkpt>
      <trkpt lat="42.87207" lon="0.26353">
        <ele>2303.8</ele>
        <time>2022-02-12T10:36:11Z</time>
      </trkpt>
      <trkpt lat="42.87206" lon="0.26354">
        <ele>2304.4</ele>
        <time>2022-02-12T10:36:20Z</time>
      </trkpt>
      <trkpt lat="42.87206" lon="0.26354">
        <ele>2304.4</ele>
        <time>2022-02-12T10:36:21Z</time>
      </trkpt>
      <trkpt lat="42.87209" lon="0.26354">
        <ele>2304.4</ele>
        <time>2022-02-12T10:36:29Z</time>
      </trkpt>
      <trkpt lat="42.87206" lon="0.26354">
        <ele>2304.4</ele>
        <time>2022-02-12T10:36:34Z</time>
      </trkpt>
      <trkpt lat="42.87206" lon="0.26354">
        <ele>2304.4</ele>
        <time>2022-02-12T10:36:36Z</time>
      </trkpt>
      <trkpt lat="42.87206" lon="0.26356">
        <ele>2304.4</ele>
        <time>2022-02-12T10:36:42Z</time>
      </trkpt>
      <trkpt lat="42.87206" lon="0.26356">
        <ele>2304.6</ele>
        <time>2022-02-12T10:36:44Z</time>
      </trkpt>
      <trkpt lat="42.87206" lon="0.26355">
        <ele>2304.6</ele>
        <time>2022-02-12T10:36:50Z</time>
      </trkpt>
      <trkpt lat="42.87207" lon="0.26356">
        <ele>2304.8</ele>
        <time>2022-02-12T10:36:53Z</time>
      </trkpt>
      <trkpt lat="42.87208" lon="0.26355">
        <ele>2305</ele>
        <time>2022-02-12T10:36:58Z</time>
      </trkpt>
      <trkpt lat="42.87208" lon="0.26354">
        <ele>2304.8</ele>
        <time>2022-02-12T10:37:02Z</time>
      </trkpt>
      <trkpt lat="42.87208" lon="0.26354">
        <ele>2304.6</ele>
        <time>2022-02-12T10:37:07Z</time>
      </trkpt>
      <trkpt lat="42.87207" lon="0.26353">
        <ele>2304.6</ele>
        <time>2022-02-12T10:37:11Z</time>
      </trkpt>
      <trkpt lat="42.87208" lon="0.26354">
        <ele>2305</ele>
        <time>2022-02-12T10:37:20Z</time>
      </trkpt>
      <trkpt lat="42.87209" lon="0.26355">
        <ele>2307</ele>
        <time>2022-02-12T10:37:21Z</time>
      </trkpt>
      <trkpt lat="42.87211" lon="0.26356">
        <ele>2306</ele>
        <time>2022-02-12T10:37:25Z</time>
      </trkpt>
      <trkpt lat="42.87211" lon="0.26357">
        <ele>2304.8</ele>
        <time>2022-02-12T10:37:29Z</time>
      </trkpt>
      <trkpt lat="42.87214" lon="0.26358">
        <ele>2304.8</ele>
        <time>2022-02-12T10:37:39Z</time>
      </trkpt>
      <trkpt lat="42.87214" lon="0.26358">
        <ele>2304.8</ele>
        <time>2022-02-12T10:37:46Z</time>
      </trkpt>
      <trkpt lat="42.87213" lon="0.26359">
        <ele>2304.8</ele>
        <time>2022-02-12T10:37:50Z</time>
      </trkpt>
      <trkpt lat="42.87213" lon="0.26361">
        <ele>2304.8</ele>
        <time>2022-02-12T10:37:52Z</time>
      </trkpt>
      <trkpt lat="42.87211" lon="0.26364">
        <ele>2304.8</ele>
        <time>2022-02-12T10:38:00Z</time>
      </trkpt>
      <trkpt lat="42.87212" lon="0.26364">
        <ele>2304.8</ele>
        <time>2022-02-12T10:38:07Z</time>
      </trkpt>
      <trkpt lat="42.87211" lon="0.26363">
        <ele>2304.8</ele>
        <time>2022-02-12T10:38:10Z</time>
      </trkpt>
      <trkpt lat="42.87211" lon="0.26363">
        <ele>2304.8</ele>
        <time>2022-02-12T10:38:15Z</time>
      </trkpt>
      <trkpt lat="42.87214" lon="0.26364">
        <ele>2304.8</ele>
        <time>2022-02-12T10:38:26Z</time>
      </trkpt>
      <trkpt lat="42.87215" lon="0.26364">
        <ele>2304.8</ele>
        <time>2022-02-12T10:38:27Z</time>
      </trkpt>
      <trkpt lat="42.87218" lon="0.26364">
        <ele>2304.8</ele>
        <time>2022-02-12T10:38:35Z</time>
      </trkpt>
      <trkpt lat="42.87217" lon="0.26363">
        <ele>2304.8</ele>
        <time>2022-02-12T10:38:43Z</time>
      </trkpt>
      <trkpt lat="42.87219" lon="0.26365">
        <ele>2304.8</ele>
        <time>2022-02-12T10:38:51Z</time>
      </trkpt>
      <trkpt lat="42.87217" lon="0.26368">
        <ele>2304.8</ele>
        <time>2022-02-12T10:38:55Z</time>
      </trkpt>
      <trkpt lat="42.87217" lon="0.26369">
        <ele>2304.8</ele>
        <time>2022-02-12T10:38:57Z</time>
      </trkpt>
      <trkpt lat="42.87214" lon="0.26373">
        <ele>2304.8</ele>
        <time>2022-02-12T10:39:04Z</time>
      </trkpt>
      <trkpt lat="42.87213" lon="0.26374">
        <ele>2304.8</ele>
        <time>2022-02-12T10:39:06Z</time>
      </trkpt>
      <trkpt lat="42.87212" lon="0.26374">
        <ele>2304.8</ele>
        <time>2022-02-12T10:39:08Z</time>
      </trkpt>
      <trkpt lat="42.87211" lon="0.26375">
        <ele>2304.8</ele>
        <time>2022-02-12T10:39:10Z</time>
      </trkpt>
      <trkpt lat="42.87211" lon="0.26377">
        <ele>2304.8</ele>
        <time>2022-02-12T10:39:11Z</time>
      </trkpt>
      <trkpt lat="42.87212" lon="0.26384">
        <ele>2304.8</ele>
        <time>2022-02-12T10:39:18Z</time>
      </trkpt>
      <trkpt lat="42.87213" lon="0.2639">
        <ele>2311.2</ele>
        <time>2022-02-12T10:39:23Z</time>
      </trkpt>
      <trkpt lat="42.87213" lon="0.26391">
        <ele>2311.2</ele>
        <time>2022-02-12T10:39:24Z</time>
      </trkpt>
      <trkpt lat="42.87213" lon="0.26393">
        <ele>2311.2</ele>
        <time>2022-02-12T10:39:25Z</time>
      </trkpt>
      <trkpt lat="42.87214" lon="0.26401">
        <ele>2312.4</ele>
        <time>2022-02-12T10:39:31Z</time>
      </trkpt>
      <trkpt lat="42.87216" lon="0.26409">
        <ele>2313</ele>
        <time>2022-02-12T10:39:37Z</time>
      </trkpt>
      <trkpt lat="42.87217" lon="0.2641">
        <ele>2313.4</ele>
        <time>2022-02-12T10:39:38Z</time>
      </trkpt>
      <trkpt lat="42.87217" lon="0.26414">
        <ele>2314</ele>
        <time>2022-02-12T10:39:42Z</time>
      </trkpt>
      <trkpt lat="42.87217" lon="0.26415">
        <ele>2314</ele>
        <time>2022-02-12T10:39:43Z</time>
      </trkpt>
      <trkpt lat="42.87216" lon="0.26415">
        <ele>2314.2</ele>
        <time>2022-02-12T10:39:45Z</time>
      </trkpt>
      <trkpt lat="42.87215" lon="0.26415">
        <ele>2314.8</ele>
        <time>2022-02-12T10:39:46Z</time>
      </trkpt>
      <trkpt lat="42.87213" lon="0.26416">
        <ele>2315.6</ele>
        <time>2022-02-12T10:39:48Z</time>
      </trkpt>
      <trkpt lat="42.87213" lon="0.26417">
        <ele>2315.6</ele>
        <time>2022-02-12T10:39:49Z</time>
      </trkpt>
      <trkpt lat="42.87212" lon="0.26417">
        <ele>2316.2</ele>
        <time>2022-02-12T10:39:51Z</time>
      </trkpt>
      <trkpt lat="42.87213" lon="0.26418">
        <ele>2316.8</ele>
        <time>2022-02-12T10:39:53Z</time>
      </trkpt>
      <trkpt lat="42.87214" lon="0.26416">
        <ele>2317.2</ele>
        <time>2022-02-12T10:39:57Z</time>
      </trkpt>
      <trkpt lat="42.87214" lon="0.26416">
        <ele>2317.2</ele>
        <time>2022-02-12T10:39:58Z</time>
      </trkpt>
      <trkpt lat="42.87216" lon="0.26413">
        <ele>2318</ele>
        <time>2022-02-12T10:40:04Z</time>
      </trkpt>
      <trkpt lat="42.87217" lon="0.26412">
        <ele>2318.4</ele>
        <time>2022-02-12T10:40:06Z</time>
      </trkpt>
      <trkpt lat="42.87219" lon="0.26411">
        <ele>2318.8</ele>
        <time>2022-02-12T10:40:09Z</time>
      </trkpt>
      <trkpt lat="42.87222" lon="0.26409">
        <ele>2319.6</ele>
        <time>2022-02-12T10:40:16Z</time>
      </trkpt>
      <trkpt lat="42.87223" lon="0.26408">
        <ele>2319.8</ele>
        <time>2022-02-12T10:40:18Z</time>
      </trkpt>
      <trkpt lat="42.87225" lon="0.26406">
        <ele>2320.8</ele>
        <time>2022-02-12T10:40:23Z</time>
      </trkpt>
      <trkpt lat="42.87229" lon="0.26403">
        <ele>2321.8</ele>
        <time>2022-02-12T10:40:30Z</time>
      </trkpt>
      <trkpt lat="42.87229" lon="0.26402">
        <ele>2322</ele>
        <time>2022-02-12T10:40:31Z</time>
      </trkpt>
      <trkpt lat="42.87231" lon="0.264">
        <ele>2322.6</ele>
        <time>2022-02-12T10:40:36Z</time>
      </trkpt>
      <trkpt lat="42.87232" lon="0.26401">
        <ele>2323</ele>
        <time>2022-02-12T10:40:39Z</time>
      </trkpt>
      <trkpt lat="42.87232" lon="0.26401">
        <ele>2323.4</ele>
        <time>2022-02-12T10:40:40Z</time>
      </trkpt>
      <trkpt lat="42.87232" lon="0.26404">
        <ele>2324</ele>
        <time>2022-02-12T10:40:44Z</time>
      </trkpt>
      <trkpt lat="42.87232" lon="0.26404">
        <ele>2324.2</ele>
        <time>2022-02-12T10:40:45Z</time>
      </trkpt>
      <trkpt lat="42.87231" lon="0.26407">
        <ele>2325.2</ele>
        <time>2022-02-12T10:40:51Z</time>
      </trkpt>
      <trkpt lat="42.87231" lon="0.26408">
        <ele>2325.2</ele>
        <time>2022-02-12T10:40:52Z</time>
      </trkpt>
      <trkpt lat="42.87234" lon="0.26417">
        <ele>2326.4</ele>
        <time>2022-02-12T10:40:59Z</time>
      </trkpt>
      <trkpt lat="42.87234" lon="0.26418">
        <ele>2326.6</ele>
        <time>2022-02-12T10:41:00Z</time>
      </trkpt>
      <trkpt lat="42.87234" lon="0.26424">
        <ele>2327.6</ele>
        <time>2022-02-12T10:41:08Z</time>
      </trkpt>
      <trkpt lat="42.87231" lon="0.26426">
        <ele>2328.6</ele>
        <time>2022-02-12T10:41:14Z</time>
      </trkpt>
      <trkpt lat="42.87229" lon="0.26432">
        <ele>2329.4</ele>
        <time>2022-02-12T10:41:20Z</time>
      </trkpt>
      <trkpt lat="42.87227" lon="0.26434">
        <ele>2329.6</ele>
        <time>2022-02-12T10:41:23Z</time>
      </trkpt>
      <trkpt lat="42.87227" lon="0.26437">
        <ele>2330</ele>
        <time>2022-02-12T10:41:26Z</time>
      </trkpt>
      <trkpt lat="42.87227" lon="0.26437">
        <ele>2330.4</ele>
        <time>2022-02-12T10:41:27Z</time>
      </trkpt>
      <trkpt lat="42.87225" lon="0.26437">
        <ele>2330.8</ele>
        <time>2022-02-12T10:41:29Z</time>
      </trkpt>
      <trkpt lat="42.87224" lon="0.26438">
        <ele>2331</ele>
        <time>2022-02-12T10:41:31Z</time>
      </trkpt>
      <trkpt lat="42.87225" lon="0.2644">
        <ele>2331.8</ele>
        <time>2022-02-12T10:41:34Z</time>
      </trkpt>
      <trkpt lat="42.87225" lon="0.26443">
        <ele>2332</ele>
        <time>2022-02-12T10:41:36Z</time>
      </trkpt>
      <trkpt lat="42.87226" lon="0.26444">
        <ele>2332.2</ele>
        <time>2022-02-12T10:41:37Z</time>
      </trkpt>
      <trkpt lat="42.87226" lon="0.26446">
        <ele>2332.6</ele>
        <time>2022-02-12T10:41:40Z</time>
      </trkpt>
      <trkpt lat="42.87227" lon="0.2645">
        <ele>2333</ele>
        <time>2022-02-12T10:41:43Z</time>
      </trkpt>
      <trkpt lat="42.87228" lon="0.26453">
        <ele>2333.2</ele>
        <time>2022-02-12T10:41:45Z</time>
      </trkpt>
      <trkpt lat="42.87229" lon="0.26454">
        <ele>2333.6</ele>
        <time>2022-02-12T10:41:47Z</time>
      </trkpt>
      <trkpt lat="42.8723" lon="0.26454">
        <ele>2334.2</ele>
        <time>2022-02-12T10:41:50Z</time>
      </trkpt>
      <trkpt lat="42.8723" lon="0.26453">
        <ele>2334.2</ele>
        <time>2022-02-12T10:41:51Z</time>
      </trkpt>
      <trkpt lat="42.87229" lon="0.2645">
        <ele>2334.4</ele>
        <time>2022-02-12T10:41:55Z</time>
      </trkpt>
      <trkpt lat="42.87232" lon="0.26449">
        <ele>2335.2</ele>
        <time>2022-02-12T10:42:01Z</time>
      </trkpt>
      <trkpt lat="42.87235" lon="0.26447">
        <ele>2336</ele>
        <time>2022-02-12T10:42:06Z</time>
      </trkpt>
      <trkpt lat="42.87236" lon="0.26447">
        <ele>2336.4</ele>
        <time>2022-02-12T10:42:08Z</time>
      </trkpt>
      <trkpt lat="42.87238" lon="0.26446">
        <ele>2337</ele>
        <time>2022-02-12T10:42:13Z</time>
      </trkpt>
      <trkpt lat="42.8724" lon="0.26445">
        <ele>2337.6</ele>
        <time>2022-02-12T10:42:16Z</time>
      </trkpt>
      <trkpt lat="42.87242" lon="0.26445">
        <ele>2338.4</ele>
        <time>2022-02-12T10:42:20Z</time>
      </trkpt>
      <trkpt lat="42.87242" lon="0.26445">
        <ele>2338.8</ele>
        <time>2022-02-12T10:42:21Z</time>
      </trkpt>
      <trkpt lat="42.87245" lon="0.26444">
        <ele>2339.4</ele>
        <time>2022-02-12T10:42:25Z</time>
      </trkpt>
      <trkpt lat="42.87247" lon="0.26443">
        <ele>2339.8</ele>
        <time>2022-02-12T10:42:29Z</time>
      </trkpt>
      <trkpt lat="42.87247" lon="0.26443">
        <ele>2339.8</ele>
        <time>2022-02-12T10:42:30Z</time>
      </trkpt>
      <trkpt lat="42.87249" lon="0.26443">
        <ele>2340.6</ele>
        <time>2022-02-12T10:42:38Z</time>
      </trkpt>
      <trkpt lat="42.87251" lon="0.26441">
        <ele>2341</ele>
        <time>2022-02-12T10:42:43Z</time>
      </trkpt>
      <trkpt lat="42.87251" lon="0.26441">
        <ele>2341.2</ele>
        <time>2022-02-12T10:42:44Z</time>
      </trkpt>
      <trkpt lat="42.87252" lon="0.26443">
        <ele>2341.6</ele>
        <time>2022-02-12T10:42:50Z</time>
      </trkpt>
      <trkpt lat="42.87251" lon="0.26445">
        <ele>2341.8</ele>
        <time>2022-02-12T10:42:55Z</time>
      </trkpt>
      <trkpt lat="42.87251" lon="0.26445">
        <ele>2342.2</ele>
        <time>2022-02-12T10:42:56Z</time>
      </trkpt>
      <trkpt lat="42.8725" lon="0.2645">
        <ele>2343.2</ele>
        <time>2022-02-12T10:43:02Z</time>
      </trkpt>
      <trkpt lat="42.87249" lon="0.26452">
        <ele>2343.4</ele>
        <time>2022-02-12T10:43:04Z</time>
      </trkpt>
      <trkpt lat="42.87249" lon="0.26459">
        <ele>2344.4</ele>
        <time>2022-02-12T10:43:12Z</time>
      </trkpt>
      <trkpt lat="42.87249" lon="0.2646">
        <ele>2344.6</ele>
        <time>2022-02-12T10:43:13Z</time>
      </trkpt>
      <trkpt lat="42.87249" lon="0.26461">
        <ele>2344.8</ele>
        <time>2022-02-12T10:43:14Z</time>
      </trkpt>
      <trkpt lat="42.87249" lon="0.26465">
        <ele>2345.4</ele>
        <time>2022-02-12T10:43:18Z</time>
      </trkpt>
      <trkpt lat="42.87249" lon="0.26466">
        <ele>2345.4</ele>
        <time>2022-02-12T10:43:19Z</time>
      </trkpt>
      <trkpt lat="42.87248" lon="0.2647">
        <ele>2346.6</ele>
        <time>2022-02-12T10:43:25Z</time>
      </trkpt>
      <trkpt lat="42.87248" lon="0.26471">
        <ele>2346.6</ele>
        <time>2022-02-12T10:43:26Z</time>
      </trkpt>
      <trkpt lat="42.87247" lon="0.26477">
        <ele>2347.4</ele>
        <time>2022-02-12T10:43:33Z</time>
      </trkpt>
      <trkpt lat="42.87247" lon="0.26478">
        <ele>2347.6</ele>
        <time>2022-02-12T10:43:34Z</time>
      </trkpt>
      <trkpt lat="42.87247" lon="0.26482">
        <ele>2348.4</ele>
        <time>2022-02-12T10:43:39Z</time>
      </trkpt>
      <trkpt lat="42.87246" lon="0.26482">
        <ele>2348.8</ele>
        <time>2022-02-12T10:43:42Z</time>
      </trkpt>
      <trkpt lat="42.87245" lon="0.26482">
        <ele>2349.4</ele>
        <time>2022-02-12T10:43:46Z</time>
      </trkpt>
      <trkpt lat="42.87246" lon="0.26482">
        <ele>2349.6</ele>
        <time>2022-02-12T10:43:51Z</time>
      </trkpt>
      <trkpt lat="42.87247" lon="0.26479">
        <ele>2349.4</ele>
        <time>2022-02-12T10:43:57Z</time>
      </trkpt>
      <trkpt lat="42.87252" lon="0.26484">
        <ele>2350</ele>
        <time>2022-02-12T10:44:01Z</time>
      </trkpt>
      <trkpt lat="42.87253" lon="0.26484">
        <ele>2350.4</ele>
        <time>2022-02-12T10:44:03Z</time>
      </trkpt>
      <trkpt lat="42.87256" lon="0.26481">
        <ele>2351.4</ele>
        <time>2022-02-12T10:44:07Z</time>
      </trkpt>
      <trkpt lat="42.87256" lon="0.2648">
        <ele>2351.6</ele>
        <time>2022-02-12T10:44:08Z</time>
      </trkpt>
      <trkpt lat="42.87259" lon="0.26478">
        <ele>2351.8</ele>
        <time>2022-02-12T10:44:14Z</time>
      </trkpt>
      <trkpt lat="42.8726" lon="0.26477">
        <ele>2352.4</ele>
        <time>2022-02-12T10:44:17Z</time>
      </trkpt>
      <trkpt lat="42.87261" lon="0.26475">
        <ele>2352.8</ele>
        <time>2022-02-12T10:44:19Z</time>
      </trkpt>
      <trkpt lat="42.87264" lon="0.26472">
        <ele>2353.4</ele>
        <time>2022-02-12T10:44:23Z</time>
      </trkpt>
      <trkpt lat="42.87264" lon="0.26472">
        <ele>2353.6</ele>
        <time>2022-02-12T10:44:25Z</time>
      </trkpt>
      <trkpt lat="42.87268" lon="0.2647">
        <ele>2354.4</ele>
        <time>2022-02-12T10:44:32Z</time>
      </trkpt>
      <trkpt lat="42.87268" lon="0.2647">
        <ele>2354.6</ele>
        <time>2022-02-12T10:44:33Z</time>
      </trkpt>
      <trkpt lat="42.87268" lon="0.26471">
        <ele>2355.2</ele>
        <time>2022-02-12T10:44:36Z</time>
      </trkpt>
      <trkpt lat="42.87267" lon="0.26475">
        <ele>2355.8</ele>
        <time>2022-02-12T10:44:42Z</time>
      </trkpt>
      <trkpt lat="42.87267" lon="0.26481">
        <ele>2356.6</ele>
        <time>2022-02-12T10:44:49Z</time>
      </trkpt>
      <trkpt lat="42.87267" lon="0.26484">
        <ele>2357</ele>
        <time>2022-02-12T10:44:51Z</time>
      </trkpt>
      <trkpt lat="42.87266" lon="0.26486">
        <ele>2357.6</ele>
        <time>2022-02-12T10:44:54Z</time>
      </trkpt>
      <trkpt lat="42.87266" lon="0.26487">
        <ele>2358</ele>
        <time>2022-02-12T10:44:58Z</time>
      </trkpt>
      <trkpt lat="42.87266" lon="0.2649">
        <ele>2358.6</ele>
        <time>2022-02-12T10:45:01Z</time>
      </trkpt>
      <trkpt lat="42.87265" lon="0.26493">
        <ele>2359</ele>
        <time>2022-02-12T10:45:03Z</time>
      </trkpt>
      <trkpt lat="42.87265" lon="0.26495">
        <ele>2359.8</ele>
        <time>2022-02-12T10:45:06Z</time>
      </trkpt>
      <trkpt lat="42.87264" lon="0.26495">
        <ele>2360.2</ele>
        <time>2022-02-12T10:45:09Z</time>
      </trkpt>
      <trkpt lat="42.87264" lon="0.26495">
        <ele>2360.2</ele>
        <time>2022-02-12T10:45:10Z</time>
      </trkpt>
      <trkpt lat="42.87264" lon="0.26496">
        <ele>2360.2</ele>
        <time>2022-02-12T10:45:13Z</time>
      </trkpt>
      <trkpt lat="42.87266" lon="0.26498">
        <ele>2360.2</ele>
        <time>2022-02-12T10:45:16Z</time>
      </trkpt>
      <trkpt lat="42.87267" lon="0.26501">
        <ele>2360.6</ele>
        <time>2022-02-12T10:45:22Z</time>
      </trkpt>
      <trkpt lat="42.87266" lon="0.26507">
        <ele>2361.2</ele>
        <time>2022-02-12T10:45:28Z</time>
      </trkpt>
      <trkpt lat="42.87265" lon="0.26508">
        <ele>2361.8</ele>
        <time>2022-02-12T10:45:30Z</time>
      </trkpt>
      <trkpt lat="42.87264" lon="0.26508">
        <ele>2362.2</ele>
        <time>2022-02-12T10:45:33Z</time>
      </trkpt>
      <trkpt lat="42.87261" lon="0.26507">
        <ele>2363</ele>
        <time>2022-02-12T10:45:38Z</time>
      </trkpt>
      <trkpt lat="42.8726" lon="0.26504">
        <ele>2363</ele>
        <time>2022-02-12T10:45:45Z</time>
      </trkpt>
      <trkpt lat="42.87261" lon="0.26507">
        <ele>2362.8</ele>
        <time>2022-02-12T10:45:53Z</time>
      </trkpt>
      <trkpt lat="42.87259" lon="0.26508">
        <ele>2363</ele>
        <time>2022-02-12T10:46:01Z</time>
      </trkpt>
      <trkpt lat="42.87259" lon="0.26508">
        <ele>2363.2</ele>
        <time>2022-02-12T10:46:08Z</time>
      </trkpt>
      <trkpt lat="42.87258" lon="0.26506">
        <ele>2363.2</ele>
        <time>2022-02-12T10:46:10Z</time>
      </trkpt>
      <trkpt lat="42.87257" lon="0.26506">
        <ele>2363</ele>
        <time>2022-02-12T10:46:12Z</time>
      </trkpt>
      <trkpt lat="42.87255" lon="0.26508">
        <ele>2362.8</ele>
        <time>2022-02-12T10:46:16Z</time>
      </trkpt>
      <trkpt lat="42.87253" lon="0.26513">
        <ele>2362.8</ele>
        <time>2022-02-12T10:46:24Z</time>
      </trkpt>
      <trkpt lat="42.87256" lon="0.26519">
        <ele>2362.6</ele>
        <time>2022-02-12T10:46:33Z</time>
      </trkpt>
      <trkpt lat="42.87256" lon="0.26519">
        <ele>2362.6</ele>
        <time>2022-02-12T10:46:34Z</time>
      </trkpt>
      <trkpt lat="42.87257" lon="0.2652">
        <ele>2362.6</ele>
        <time>2022-02-12T10:46:35Z</time>
      </trkpt>
      <trkpt lat="42.87259" lon="0.26521">
        <ele>2362.6</ele>
        <time>2022-02-12T10:46:37Z</time>
      </trkpt>
      <trkpt lat="42.8726" lon="0.26522">
        <ele>2362.4</ele>
        <time>2022-02-12T10:46:38Z</time>
      </trkpt>
      <trkpt lat="42.87262" lon="0.26523">
        <ele>2363.2</ele>
        <time>2022-02-12T10:46:44Z</time>
      </trkpt>
      <trkpt lat="42.87263" lon="0.26519">
        <ele>2362.8</ele>
        <time>2022-02-12T10:46:54Z</time>
      </trkpt>
      <trkpt lat="42.87262" lon="0.26514">
        <ele>2362.8</ele>
        <time>2022-02-12T10:46:59Z</time>
      </trkpt>
      <trkpt lat="42.87261" lon="0.26513">
        <ele>2362.8</ele>
        <time>2022-02-12T10:47:03Z</time>
      </trkpt>
      <trkpt lat="42.87262" lon="0.26513">
        <ele>2362.8</ele>
        <time>2022-02-12T10:47:10Z</time>
      </trkpt>
      <trkpt lat="42.87262" lon="0.26513">
        <ele>2362.4</ele>
        <time>2022-02-12T10:47:18Z</time>
      </trkpt>
      <trkpt lat="42.87262" lon="0.26507">
        <ele>2362</ele>
        <time>2022-02-12T10:47:27Z</time>
      </trkpt>
      <trkpt lat="42.87265" lon="0.2651">
        <ele>2362.6</ele>
        <time>2022-02-12T10:47:34Z</time>
      </trkpt>
      <trkpt lat="42.87261" lon="0.26509">
        <ele>2362.4</ele>
        <time>2022-02-12T10:47:43Z</time>
      </trkpt>
      <trkpt lat="42.87263" lon="0.26511">
        <ele>2362.8</ele>
        <time>2022-02-12T10:47:46Z</time>
      </trkpt>
      <trkpt lat="42.87262" lon="0.26511">
        <ele>2362.6</ele>
        <time>2022-02-12T10:47:55Z</time>
      </trkpt>
      <trkpt lat="42.87263" lon="0.26511">
        <ele>2362.8</ele>
        <time>2022-02-12T10:47:56Z</time>
      </trkpt>
      <trkpt lat="42.87262" lon="0.26508">
        <ele>2362.8</ele>
        <time>2022-02-12T10:48:04Z</time>
      </trkpt>
      <trkpt lat="42.8726" lon="0.26506">
        <ele>2362.8</ele>
        <time>2022-02-12T10:48:12Z</time>
      </trkpt>
      <trkpt lat="42.87261" lon="0.26504">
        <ele>2362.8</ele>
        <time>2022-02-12T10:48:18Z</time>
      </trkpt>
      <trkpt lat="42.8726" lon="0.26502">
        <ele>2363.4</ele>
        <time>2022-02-12T10:48:23Z</time>
      </trkpt>
      <trkpt lat="42.8726" lon="0.26502">
        <ele>2363.6</ele>
        <time>2022-02-12T10:48:25Z</time>
      </trkpt>
      <trkpt lat="42.87263" lon="0.26506">
        <ele>2363.6</ele>
        <time>2022-02-12T10:48:32Z</time>
      </trkpt>
      <trkpt lat="42.87268" lon="0.26509">
        <ele>2364.2</ele>
        <time>2022-02-12T10:48:37Z</time>
      </trkpt>
      <trkpt lat="42.87269" lon="0.26509">
        <ele>2364.4</ele>
        <time>2022-02-12T10:48:39Z</time>
      </trkpt>
      <trkpt lat="42.87271" lon="0.26509">
        <ele>2365</ele>
        <time>2022-02-12T10:48:42Z</time>
      </trkpt>
      <trkpt lat="42.87272" lon="0.26509">
        <ele>2365.4</ele>
        <time>2022-02-12T10:48:45Z</time>
      </trkpt>
      <trkpt lat="42.87273" lon="0.26509">
        <ele>2365.6</ele>
        <time>2022-02-12T10:48:46Z</time>
      </trkpt>
      <trkpt lat="42.87273" lon="0.26509">
        <ele>2365.8</ele>
        <time>2022-02-12T10:48:47Z</time>
      </trkpt>
      <trkpt lat="42.87272" lon="0.26509">
        <ele>2366</ele>
        <time>2022-02-12T10:48:54Z</time>
      </trkpt>
      <trkpt lat="42.87271" lon="0.26505">
        <ele>2366.2</ele>
        <time>2022-02-12T10:49:02Z</time>
      </trkpt>
      <trkpt lat="42.87273" lon="0.26506">
        <ele>2366.4</ele>
        <time>2022-02-12T10:49:13Z</time>
      </trkpt>
      <trkpt lat="42.87274" lon="0.26506">
        <ele>2366.4</ele>
        <time>2022-02-12T10:49:14Z</time>
      </trkpt>
      <trkpt lat="42.87275" lon="0.26505">
        <ele>2367.2</ele>
        <time>2022-02-12T10:49:19Z</time>
      </trkpt>
      <trkpt lat="42.87277" lon="0.26504">
        <ele>2367.8</ele>
        <time>2022-02-12T10:49:24Z</time>
      </trkpt>
      <trkpt lat="42.87278" lon="0.26504">
        <ele>2368.2</ele>
        <time>2022-02-12T10:49:26Z</time>
      </trkpt>
      <trkpt lat="42.87281" lon="0.26505">
        <ele>2368.8</ele>
        <time>2022-02-12T10:49:30Z</time>
      </trkpt>
      <trkpt lat="42.87282" lon="0.26505">
        <ele>2369.4</ele>
        <time>2022-02-12T10:49:35Z</time>
      </trkpt>
      <trkpt lat="42.87283" lon="0.26505">
        <ele>2369.8</ele>
        <time>2022-02-12T10:49:37Z</time>
      </trkpt>
      <trkpt lat="42.87282" lon="0.26505">
        <ele>2370</ele>
        <time>2022-02-12T10:49:39Z</time>
      </trkpt>
      <trkpt lat="42.87282" lon="0.2651">
        <ele>2370.2</ele>
        <time>2022-02-12T10:49:45Z</time>
      </trkpt>
      <trkpt lat="42.87281" lon="0.26513">
        <ele>2370.8</ele>
        <time>2022-02-12T10:49:49Z</time>
      </trkpt>
      <trkpt lat="42.87279" lon="0.26517">
        <ele>2371.2</ele>
        <time>2022-02-12T10:49:54Z</time>
      </trkpt>
      <trkpt lat="42.87276" lon="0.26519">
        <ele>2372</ele>
        <time>2022-02-12T10:49:57Z</time>
      </trkpt>
      <trkpt lat="42.87275" lon="0.26523">
        <ele>2372.8</ele>
        <time>2022-02-12T10:50:01Z</time>
      </trkpt>
      <trkpt lat="42.87275" lon="0.26525">
        <ele>2373</ele>
        <time>2022-02-12T10:50:03Z</time>
      </trkpt>
      <trkpt lat="42.87274" lon="0.26528">
        <ele>2373.8</ele>
        <time>2022-02-12T10:50:06Z</time>
      </trkpt>
      <trkpt lat="42.87274" lon="0.26529">
        <ele>2373.8</ele>
        <time>2022-02-12T10:50:07Z</time>
      </trkpt>
      <trkpt lat="42.87274" lon="0.26531">
        <ele>2374.2</ele>
        <time>2022-02-12T10:50:09Z</time>
      </trkpt>
      <trkpt lat="42.87272" lon="0.26534">
        <ele>2375.2</ele>
        <time>2022-02-12T10:50:14Z</time>
      </trkpt>
      <trkpt lat="42.87271" lon="0.26535">
        <ele>2375.4</ele>
        <time>2022-02-12T10:50:17Z</time>
      </trkpt>
      <trkpt lat="42.87271" lon="0.26536">
        <ele>2375.4</ele>
        <time>2022-02-12T10:50:18Z</time>
      </trkpt>
      <trkpt lat="42.87271" lon="0.26537">
        <ele>2375.8</ele>
        <time>2022-02-12T10:50:20Z</time>
      </trkpt>
      <trkpt lat="42.8727" lon="0.26537">
        <ele>2376</ele>
        <time>2022-02-12T10:50:21Z</time>
      </trkpt>
      <trkpt lat="42.8727" lon="0.26537">
        <ele>2376.4</ele>
        <time>2022-02-12T10:50:23Z</time>
      </trkpt>
      <trkpt lat="42.87269" lon="0.26537">
        <ele>2376.6</ele>
        <time>2022-02-12T10:50:24Z</time>
      </trkpt>
      <trkpt lat="42.87269" lon="0.26537">
        <ele>2376.8</ele>
        <time>2022-02-12T10:50:25Z</time>
      </trkpt>
      <trkpt lat="42.87269" lon="0.26538">
        <ele>2377</ele>
        <time>2022-02-12T10:50:26Z</time>
      </trkpt>
      <trkpt lat="42.87269" lon="0.26538">
        <ele>2377</ele>
        <time>2022-02-12T10:50:28Z</time>
      </trkpt>
      <trkpt lat="42.8727" lon="0.2654">
        <ele>2377.2</ele>
        <time>2022-02-12T10:50:30Z</time>
      </trkpt>
      <trkpt lat="42.87269" lon="0.26544">
        <ele>2377.4</ele>
        <time>2022-02-12T10:50:34Z</time>
      </trkpt>
      <trkpt lat="42.87268" lon="0.26545">
        <ele>2377.8</ele>
        <time>2022-02-12T10:50:37Z</time>
      </trkpt>
      <trkpt lat="42.87268" lon="0.26544">
        <ele>2378.4</ele>
        <time>2022-02-12T10:50:39Z</time>
      </trkpt>
      <trkpt lat="42.87268" lon="0.26542">
        <ele>2378.6</ele>
        <time>2022-02-12T10:50:41Z</time>
      </trkpt>
      <trkpt lat="42.87268" lon="0.26542">
        <ele>2378.6</ele>
        <time>2022-02-12T10:50:42Z</time>
      </trkpt>
      <trkpt lat="42.8727" lon="0.26542">
        <ele>2379</ele>
        <time>2022-02-12T10:50:47Z</time>
      </trkpt>
      <trkpt lat="42.87273" lon="0.26541">
        <ele>2379.6</ele>
        <time>2022-02-12T10:50:51Z</time>
      </trkpt>
      <trkpt lat="42.87274" lon="0.26541">
        <ele>2379.6</ele>
        <time>2022-02-12T10:50:52Z</time>
      </trkpt>
      <trkpt lat="42.87275" lon="0.26541">
        <ele>2379.8</ele>
        <time>2022-02-12T10:50:53Z</time>
      </trkpt>
      <trkpt lat="42.87278" lon="0.2654">
        <ele>2380.2</ele>
        <time>2022-02-12T10:50:58Z</time>
      </trkpt>
      <trkpt lat="42.87281" lon="0.26539">
        <ele>2380.6</ele>
        <time>2022-02-12T10:51:02Z</time>
      </trkpt>
      <trkpt lat="42.87281" lon="0.2654">
        <ele>2380.8</ele>
        <time>2022-02-12T10:51:03Z</time>
      </trkpt>
      <trkpt lat="42.87283" lon="0.26539">
        <ele>2381.2</ele>
        <time>2022-02-12T10:51:08Z</time>
      </trkpt>
      <trkpt lat="42.87284" lon="0.26538">
        <ele>2381.8</ele>
        <time>2022-02-12T10:51:11Z</time>
      </trkpt>
      <trkpt lat="42.87285" lon="0.26538">
        <ele>2382</ele>
        <time>2022-02-12T10:51:12Z</time>
      </trkpt>
      <trkpt lat="42.87288" lon="0.26535">
        <ele>2382.6</ele>
        <time>2022-02-12T10:51:17Z</time>
      </trkpt>
      <trkpt lat="42.87288" lon="0.26535">
        <ele>2382.8</ele>
        <time>2022-02-12T10:51:18Z</time>
      </trkpt>
      <trkpt lat="42.8729" lon="0.26533">
        <ele>2383.4</ele>
        <time>2022-02-12T10:51:22Z</time>
      </trkpt>
      <trkpt lat="42.87292" lon="0.26533">
        <ele>2383.6</ele>
        <time>2022-02-12T10:51:27Z</time>
      </trkpt>
      <trkpt lat="42.87293" lon="0.26533">
        <ele>2384</ele>
        <time>2022-02-12T10:51:28Z</time>
      </trkpt>
      <trkpt lat="42.87294" lon="0.26531">
        <ele>2384.8</ele>
        <time>2022-02-12T10:51:33Z</time>
      </trkpt>
      <trkpt lat="42.87296" lon="0.26529">
        <ele>2385.2</ele>
        <time>2022-02-12T10:51:37Z</time>
      </trkpt>
      <trkpt lat="42.87296" lon="0.26529">
        <ele>2385.4</ele>
        <time>2022-02-12T10:51:39Z</time>
      </trkpt>
      <trkpt lat="42.87297" lon="0.2653">
        <ele>2385.8</ele>
        <time>2022-02-12T10:51:44Z</time>
      </trkpt>
      <trkpt lat="42.87296" lon="0.26533">
        <ele>2386</ele>
        <time>2022-02-12T10:51:51Z</time>
      </trkpt>
      <trkpt lat="42.87295" lon="0.26533">
        <ele>2386.2</ele>
        <time>2022-02-12T10:51:52Z</time>
      </trkpt>
      <trkpt lat="42.87295" lon="0.26536">
        <ele>2386.8</ele>
        <time>2022-02-12T10:51:57Z</time>
      </trkpt>
      <trkpt lat="42.87293" lon="0.2654">
        <ele>2387.2</ele>
        <time>2022-02-12T10:52:02Z</time>
      </trkpt>
      <trkpt lat="42.87292" lon="0.2654">
        <ele>2387.4</ele>
        <time>2022-02-12T10:52:04Z</time>
      </trkpt>
      <trkpt lat="42.87291" lon="0.26547">
        <ele>2388.2</ele>
        <time>2022-02-12T10:52:11Z</time>
      </trkpt>
      <trkpt lat="42.87291" lon="0.26548">
        <ele>2388.4</ele>
        <time>2022-02-12T10:52:12Z</time>
      </trkpt>
      <trkpt lat="42.8729" lon="0.26553">
        <ele>2389</ele>
        <time>2022-02-12T10:52:17Z</time>
      </trkpt>
      <trkpt lat="42.87288" lon="0.26553">
        <ele>2389.4</ele>
        <time>2022-02-12T10:52:19Z</time>
      </trkpt>
      <trkpt lat="42.87288" lon="0.26554">
        <ele>2389.6</ele>
        <time>2022-02-12T10:52:20Z</time>
      </trkpt>
      <trkpt lat="42.87287" lon="0.26555">
        <ele>2390</ele>
        <time>2022-02-12T10:52:23Z</time>
      </trkpt>
      <trkpt lat="42.87287" lon="0.26556">
        <ele>2390.4</ele>
        <time>2022-02-12T10:52:27Z</time>
      </trkpt>
      <trkpt lat="42.87286" lon="0.26556">
        <ele>2390.4</ele>
        <time>2022-02-12T10:52:28Z</time>
      </trkpt>
      <trkpt lat="42.87285" lon="0.26559">
        <ele>2391</ele>
        <time>2022-02-12T10:52:34Z</time>
      </trkpt>
      <trkpt lat="42.87284" lon="0.2656">
        <ele>2391.4</ele>
        <time>2022-02-12T10:52:36Z</time>
      </trkpt>
      <trkpt lat="42.87285" lon="0.26565">
        <ele>2391.2</ele>
        <time>2022-02-12T10:52:40Z</time>
      </trkpt>
      <trkpt lat="42.87286" lon="0.26562">
        <ele>2392</ele>
        <time>2022-02-12T10:52:51Z</time>
      </trkpt>
      <trkpt lat="42.87287" lon="0.26565">
        <ele>2392.2</ele>
        <time>2022-02-12T10:52:53Z</time>
      </trkpt>
      <trkpt lat="42.87287" lon="0.26565">
        <ele>2392.4</ele>
        <time>2022-02-12T10:52:55Z</time>
      </trkpt>
      <trkpt lat="42.87286" lon="0.26565">
        <ele>2392.6</ele>
        <time>2022-02-12T10:52:57Z</time>
      </trkpt>
      <trkpt lat="42.87285" lon="0.26565">
        <ele>2392.8</ele>
        <time>2022-02-12T10:52:58Z</time>
      </trkpt>
      <trkpt lat="42.87283" lon="0.26562">
        <ele>2393.4</ele>
        <time>2022-02-12T10:53:04Z</time>
      </trkpt>
      <trkpt lat="42.87284" lon="0.26561">
        <ele>2393.8</ele>
        <time>2022-02-12T10:53:06Z</time>
      </trkpt>
      <trkpt lat="42.87286" lon="0.26561">
        <ele>2394.4</ele>
        <time>2022-02-12T10:53:11Z</time>
      </trkpt>
      <trkpt lat="42.87288" lon="0.26561">
        <ele>2394.8</ele>
        <time>2022-02-12T10:53:15Z</time>
      </trkpt>
      <trkpt lat="42.87288" lon="0.2656">
        <ele>2395</ele>
        <time>2022-02-12T10:53:16Z</time>
      </trkpt>
      <trkpt lat="42.8729" lon="0.26559">
        <ele>2395.6</ele>
        <time>2022-02-12T10:53:20Z</time>
      </trkpt>
      <trkpt lat="42.87291" lon="0.26559">
        <ele>2395.8</ele>
        <time>2022-02-12T10:53:21Z</time>
      </trkpt>
      <trkpt lat="42.87293" lon="0.26557">
        <ele>2396.4</ele>
        <time>2022-02-12T10:53:26Z</time>
      </trkpt>
      <trkpt lat="42.87296" lon="0.26558">
        <ele>2396.8</ele>
        <time>2022-02-12T10:53:31Z</time>
      </trkpt>
      <trkpt lat="42.87296" lon="0.26558">
        <ele>2397.2</ele>
        <time>2022-02-12T10:53:33Z</time>
      </trkpt>
      <trkpt lat="42.87298" lon="0.26556">
        <ele>2397.4</ele>
        <time>2022-02-12T10:53:40Z</time>
      </trkpt>
      <trkpt lat="42.87298" lon="0.26557">
        <ele>2397.8</ele>
        <time>2022-02-12T10:53:45Z</time>
      </trkpt>
      <trkpt lat="42.87298" lon="0.26558">
        <ele>2397.8</ele>
        <time>2022-02-12T10:53:47Z</time>
      </trkpt>
      <trkpt lat="42.87297" lon="0.26561">
        <ele>2398.8</ele>
        <time>2022-02-12T10:53:52Z</time>
      </trkpt>
      <trkpt lat="42.87297" lon="0.26561">
        <ele>2399</ele>
        <time>2022-02-12T10:53:53Z</time>
      </trkpt>
      <trkpt lat="42.87295" lon="0.26564">
        <ele>2399.8</ele>
        <time>2022-02-12T10:54:01Z</time>
      </trkpt>
      <trkpt lat="42.87295" lon="0.26564">
        <ele>2400</ele>
        <time>2022-02-12T10:54:02Z</time>
      </trkpt>
      <trkpt lat="42.87294" lon="0.26568">
        <ele>2400.8</ele>
        <time>2022-02-12T10:54:08Z</time>
      </trkpt>
      <trkpt lat="42.87294" lon="0.26569">
        <ele>2401</ele>
        <time>2022-02-12T10:54:09Z</time>
      </trkpt>
      <trkpt lat="42.87294" lon="0.2657">
        <ele>2401</ele>
        <time>2022-02-12T10:54:10Z</time>
      </trkpt>
      <trkpt lat="42.87294" lon="0.26572">
        <ele>2401.4</ele>
        <time>2022-02-12T10:54:11Z</time>
      </trkpt>
      <trkpt lat="42.87294" lon="0.26574">
        <ele>2401.6</ele>
        <time>2022-02-12T10:54:12Z</time>
      </trkpt>
      <trkpt lat="42.87295" lon="0.2658">
        <ele>2402</ele>
        <time>2022-02-12T10:54:16Z</time>
      </trkpt>
      <trkpt lat="42.87295" lon="0.26581">
        <ele>2402.2</ele>
        <time>2022-02-12T10:54:18Z</time>
      </trkpt>
      <trkpt lat="42.87293" lon="0.26584">
        <ele>2402.6</ele>
        <time>2022-02-12T10:54:23Z</time>
      </trkpt>
      <trkpt lat="42.87292" lon="0.26585">
        <ele>2403.2</ele>
        <time>2022-02-12T10:54:26Z</time>
      </trkpt>
      <trkpt lat="42.87292" lon="0.26586">
        <ele>2403.6</ele>
        <time>2022-02-12T10:54:28Z</time>
      </trkpt>
      <trkpt lat="42.87292" lon="0.2659">
        <ele>2404.2</ele>
        <time>2022-02-12T10:54:37Z</time>
      </trkpt>
      <trkpt lat="42.87291" lon="0.2659">
        <ele>2404.2</ele>
        <time>2022-02-12T10:54:38Z</time>
      </trkpt>
      <trkpt lat="42.87289" lon="0.26587">
        <ele>2404.8</ele>
        <time>2022-02-12T10:54:45Z</time>
      </trkpt>
      <trkpt lat="42.87288" lon="0.26585">
        <ele>2405</ele>
        <time>2022-02-12T10:54:48Z</time>
      </trkpt>
      <trkpt lat="42.87288" lon="0.26583">
        <ele>2405.4</ele>
        <time>2022-02-12T10:54:50Z</time>
      </trkpt>
      <trkpt lat="42.87289" lon="0.26583">
        <ele>2405.4</ele>
        <time>2022-02-12T10:54:52Z</time>
      </trkpt>
      <trkpt lat="42.8729" lon="0.26584">
        <ele>2405.4</ele>
        <time>2022-02-12T10:54:54Z</time>
      </trkpt>
      <trkpt lat="42.8729" lon="0.2658">
        <ele>2406.2</ele>
        <time>2022-02-12T10:55:06Z</time>
      </trkpt>
      <trkpt lat="42.87291" lon="0.2658">
        <ele>2406.4</ele>
        <time>2022-02-12T10:55:07Z</time>
      </trkpt>
      <trkpt lat="42.87293" lon="0.26579">
        <ele>2406.4</ele>
        <time>2022-02-12T10:55:11Z</time>
      </trkpt>
      <trkpt lat="42.87294" lon="0.26579">
        <ele>2406.6</ele>
        <time>2022-02-12T10:55:12Z</time>
      </trkpt>
      <trkpt lat="42.87294" lon="0.26577">
        <ele>2407.4</ele>
        <time>2022-02-12T10:55:17Z</time>
      </trkpt>
      <trkpt lat="42.87293" lon="0.26574">
        <ele>2407.8</ele>
        <time>2022-02-12T10:55:19Z</time>
      </trkpt>
      <trkpt lat="42.87285" lon="0.26551">
        <ele>2408</ele>
        <time>2022-02-12T10:55:28Z</time>
      </trkpt>
      <trkpt lat="42.87286" lon="0.26548">
        <ele>2408</ele>
        <time>2022-02-12T10:55:32Z</time>
      </trkpt>
      <trkpt lat="42.87286" lon="0.26547">
        <ele>2407.8</ele>
        <time>2022-02-12T10:55:36Z</time>
      </trkpt>
      <trkpt lat="42.87286" lon="0.26544">
        <ele>2407.6</ele>
        <time>2022-02-12T10:55:43Z</time>
      </trkpt>
      <trkpt lat="42.87286" lon="0.26543">
        <ele>2407.6</ele>
        <time>2022-02-12T10:55:44Z</time>
      </trkpt>
      <trkpt lat="42.87289" lon="0.2654">
        <ele>2406.8</ele>
        <time>2022-02-12T10:55:51Z</time>
      </trkpt>
      <trkpt lat="42.87289" lon="0.2654">
        <ele>2406.4</ele>
        <time>2022-02-12T10:55:55Z</time>
      </trkpt>
      <trkpt lat="42.87293" lon="0.26554">
        <ele>2406.2</ele>
        <time>2022-02-12T10:56:03Z</time>
      </trkpt>
      <trkpt lat="42.87295" lon="0.26558">
        <ele>2406.2</ele>
        <time>2022-02-12T10:56:04Z</time>
      </trkpt>
      <trkpt lat="42.87301" lon="0.26577">
        <ele>2405.8</ele>
        <time>2022-02-12T10:56:12Z</time>
      </trkpt>
      <trkpt lat="42.87299" lon="0.26582">
        <ele>2406</ele>
        <time>2022-02-12T10:56:20Z</time>
      </trkpt>
      <trkpt lat="42.87298" lon="0.26583">
        <ele>2406</ele>
        <time>2022-02-12T10:56:22Z</time>
      </trkpt>
      <trkpt lat="42.873" lon="0.26585">
        <ele>2405.8</ele>
        <time>2022-02-12T10:56:33Z</time>
      </trkpt>
      <trkpt lat="42.87299" lon="0.26585">
        <ele>2405.8</ele>
        <time>2022-02-12T10:56:36Z</time>
      </trkpt>
      <trkpt lat="42.87296" lon="0.26583">
        <ele>2405.6</ele>
        <time>2022-02-12T10:56:46Z</time>
      </trkpt>
      <trkpt lat="42.87297" lon="0.26583">
        <ele>2405.4</ele>
        <time>2022-02-12T10:56:49Z</time>
      </trkpt>
      <trkpt lat="42.87298" lon="0.26584">
        <ele>2405.4</ele>
        <time>2022-02-12T10:56:50Z</time>
      </trkpt>
      <trkpt lat="42.87303" lon="0.26589">
        <ele>2405.2</ele>
        <time>2022-02-12T10:57:01Z</time>
      </trkpt>
      <trkpt lat="42.87303" lon="0.26587">
        <ele>2405.2</ele>
        <time>2022-02-12T10:57:03Z</time>
      </trkpt>
      <trkpt lat="42.87301" lon="0.26586">
        <ele>2405.4</ele>
        <time>2022-02-12T10:57:18Z</time>
      </trkpt>
      <trkpt lat="42.87298" lon="0.26589">
        <ele>2405.6</ele>
        <time>2022-02-12T10:57:22Z</time>
      </trkpt>
      <trkpt lat="42.87296" lon="0.26588">
        <ele>2405.6</ele>
        <time>2022-02-12T10:57:24Z</time>
      </trkpt>
      <trkpt lat="42.87295" lon="0.26587">
        <ele>2405.6</ele>
        <time>2022-02-12T10:57:25Z</time>
      </trkpt>
      <trkpt lat="42.87291" lon="0.26576">
        <ele>2405.6</ele>
        <time>2022-02-12T10:57:34Z</time>
      </trkpt>
      <trkpt lat="42.87302" lon="0.26586">
        <ele>2405.6</ele>
        <time>2022-02-12T10:57:47Z</time>
      </trkpt>
      <trkpt lat="42.87296" lon="0.26559">
        <ele>2405.6</ele>
        <time>2022-02-12T10:58:07Z</time>
      </trkpt>
      <trkpt lat="42.87296" lon="0.26559">
        <ele>2405.6</ele>
        <time>2022-02-12T10:58:13Z</time>
      </trkpt>
      <trkpt lat="42.87296" lon="0.26559">
        <ele>2405.6</ele>
        <time>2022-02-12T10:58:24Z</time>
      </trkpt>
      <trkpt lat="42.87296" lon="0.26559">
        <ele>2405.6</ele>
        <time>2022-02-12T10:58:28Z</time>
      </trkpt>
      <trkpt lat="42.87296" lon="0.2656">
        <ele>2405.6</ele>
        <time>2022-02-12T10:58:33Z</time>
      </trkpt>
      <trkpt lat="42.87296" lon="0.2656">
        <ele>2405.6</ele>
        <time>2022-02-12T10:58:40Z</time>
      </trkpt>
      <trkpt lat="42.87296" lon="0.26561">
        <ele>2405.6</ele>
        <time>2022-02-12T10:58:59Z</time>
      </trkpt>
      <trkpt lat="42.87296" lon="0.26561">
        <ele>2405.6</ele>
        <time>2022-02-12T10:59:02Z</time>
      </trkpt>
      <trkpt lat="42.87298" lon="0.2656">
        <ele>2405.6</ele>
        <time>2022-02-12T10:59:13Z</time>
      </trkpt>
      <trkpt lat="42.87299" lon="0.2656">
        <ele>2405.6</ele>
        <time>2022-02-12T10:59:16Z</time>
      </trkpt>
      <trkpt lat="42.873" lon="0.2656">
        <ele>2405.6</ele>
        <time>2022-02-12T10:59:18Z</time>
      </trkpt>
      <trkpt lat="42.87302" lon="0.26558">
        <ele>2405.6</ele>
        <time>2022-02-12T10:59:24Z</time>
      </trkpt>
      <trkpt lat="42.87302" lon="0.26558">
        <ele>2405.6</ele>
        <time>2022-02-12T10:59:28Z</time>
      </trkpt>
      <trkpt lat="42.87303" lon="0.26558">
        <ele>2405.6</ele>
        <time>2022-02-12T10:59:31Z</time>
      </trkpt>
      <trkpt lat="42.87307" lon="0.26557">
        <ele>2405.6</ele>
        <time>2022-02-12T10:59:38Z</time>
      </trkpt>
      <trkpt lat="42.87308" lon="0.26556">
        <ele>2405.6</ele>
        <time>2022-02-12T10:59:46Z</time>
      </trkpt>
      <trkpt lat="42.87308" lon="0.26556">
        <ele>2405.6</ele>
        <time>2022-02-12T10:59:49Z</time>
      </trkpt>
      <trkpt lat="42.87308" lon="0.26556">
        <ele>2405.6</ele>
        <time>2022-02-12T10:59:56Z</time>
      </trkpt>
      <trkpt lat="42.87309" lon="0.26556">
        <ele>2405.6</ele>
        <time>2022-02-12T10:59:57Z</time>
      </trkpt>
      <trkpt lat="42.87309" lon="0.26556">
        <ele>2405.6</ele>
        <time>2022-02-12T10:59:58Z</time>
      </trkpt>
      <trkpt lat="42.8731" lon="0.26555">
        <ele>2405.6</ele>
        <time>2022-02-12T11:00:01Z</time>
      </trkpt>
      <trkpt lat="42.8731" lon="0.26555">
        <ele>2405.6</ele>
        <time>2022-02-12T11:00:05Z</time>
      </trkpt>
      <trkpt lat="42.8731" lon="0.26558">
        <ele>2405.6</ele>
        <time>2022-02-12T11:00:11Z</time>
      </trkpt>
      <trkpt lat="42.8731" lon="0.26561">
        <ele>2405.6</ele>
        <time>2022-02-12T11:00:16Z</time>
      </trkpt>
      <trkpt lat="42.87309" lon="0.26563">
        <ele>2410.4</ele>
        <time>2022-02-12T11:00:19Z</time>
      </trkpt>
      <trkpt lat="42.8731" lon="0.26565">
        <ele>2410.4</ele>
        <time>2022-02-12T11:00:21Z</time>
      </trkpt>
      <trkpt lat="42.8731" lon="0.26567">
        <ele>2410.4</ele>
        <time>2022-02-12T11:00:23Z</time>
      </trkpt>
      <trkpt lat="42.8731" lon="0.26573">
        <ele>2410.6</ele>
        <time>2022-02-12T11:00:28Z</time>
      </trkpt>
      <trkpt lat="42.87309" lon="0.26576">
        <ele>2410.6</ele>
        <time>2022-02-12T11:00:31Z</time>
      </trkpt>
      <trkpt lat="42.87309" lon="0.26578">
        <ele>2410.8</ele>
        <time>2022-02-12T11:00:32Z</time>
      </trkpt>
      <trkpt lat="42.87308" lon="0.26582">
        <ele>2411.4</ele>
        <time>2022-02-12T11:00:35Z</time>
      </trkpt>
      <trkpt lat="42.87308" lon="0.26583">
        <ele>2411.6</ele>
        <time>2022-02-12T11:00:36Z</time>
      </trkpt>
      <trkpt lat="42.87307" lon="0.26585">
        <ele>2411.8</ele>
        <time>2022-02-12T11:00:39Z</time>
      </trkpt>
      <trkpt lat="42.87306" lon="0.26588">
        <ele>2412.4</ele>
        <time>2022-02-12T11:00:44Z</time>
      </trkpt>
      <trkpt lat="42.87306" lon="0.26589">
        <ele>2412.4</ele>
        <time>2022-02-12T11:00:45Z</time>
      </trkpt>
      <trkpt lat="42.87304" lon="0.26591">
        <ele>2412.8</ele>
        <time>2022-02-12T11:00:51Z</time>
      </trkpt>
      <trkpt lat="42.87303" lon="0.26598">
        <ele>2413.6</ele>
        <time>2022-02-12T11:00:56Z</time>
      </trkpt>
      <trkpt lat="42.87303" lon="0.26601">
        <ele>2414.2</ele>
        <time>2022-02-12T11:00:58Z</time>
      </trkpt>
      <trkpt lat="42.87302" lon="0.26603">
        <ele>2414.6</ele>
        <time>2022-02-12T11:01:02Z</time>
      </trkpt>
      <trkpt lat="42.87301" lon="0.26606">
        <ele>2415.2</ele>
        <time>2022-02-12T11:01:05Z</time>
      </trkpt>
      <trkpt lat="42.873" lon="0.26607">
        <ele>2415.8</ele>
        <time>2022-02-12T11:01:08Z</time>
      </trkpt>
      <trkpt lat="42.87299" lon="0.26608">
        <ele>2415.8</ele>
        <time>2022-02-12T11:01:10Z</time>
      </trkpt>
      <trkpt lat="42.87299" lon="0.26611">
        <ele>2416</ele>
        <time>2022-02-12T11:01:13Z</time>
      </trkpt>
      <trkpt lat="42.87298" lon="0.26616">
        <ele>2416.8</ele>
        <time>2022-02-12T11:01:17Z</time>
      </trkpt>
      <trkpt lat="42.87298" lon="0.26614">
        <ele>2417.6</ele>
        <time>2022-02-12T11:01:20Z</time>
      </trkpt>
      <trkpt lat="42.87298" lon="0.26608">
        <ele>2417.6</ele>
        <time>2022-02-12T11:01:26Z</time>
      </trkpt>
      <trkpt lat="42.87299" lon="0.26607">
        <ele>2417.8</ele>
        <time>2022-02-12T11:01:27Z</time>
      </trkpt>
      <trkpt lat="42.873" lon="0.26606">
        <ele>2418</ele>
        <time>2022-02-12T11:01:29Z</time>
      </trkpt>
      <trkpt lat="42.87302" lon="0.26605">
        <ele>2418</ele>
        <time>2022-02-12T11:01:33Z</time>
      </trkpt>
      <trkpt lat="42.87305" lon="0.26604">
        <ele>2418.4</ele>
        <time>2022-02-12T11:01:39Z</time>
      </trkpt>
      <trkpt lat="42.87307" lon="0.26603">
        <ele>2419</ele>
        <time>2022-02-12T11:01:43Z</time>
      </trkpt>
      <trkpt lat="42.87308" lon="0.26603">
        <ele>2419.6</ele>
        <time>2022-02-12T11:01:46Z</time>
      </trkpt>
      <trkpt lat="42.87311" lon="0.26602">
        <ele>2420.2</ele>
        <time>2022-02-12T11:01:53Z</time>
      </trkpt>
      <trkpt lat="42.87313" lon="0.26603">
        <ele>2421</ele>
        <time>2022-02-12T11:01:57Z</time>
      </trkpt>
      <trkpt lat="42.87314" lon="0.26603">
        <ele>2421</ele>
        <time>2022-02-12T11:01:59Z</time>
      </trkpt>
      <trkpt lat="42.87314" lon="0.26603">
        <ele>2421.2</ele>
        <time>2022-02-12T11:02:00Z</time>
      </trkpt>
      <trkpt lat="42.87316" lon="0.26602">
        <ele>2422</ele>
        <time>2022-02-12T11:02:04Z</time>
      </trkpt>
      <trkpt lat="42.87318" lon="0.26601">
        <ele>2422.2</ele>
        <time>2022-02-12T11:02:07Z</time>
      </trkpt>
      <trkpt lat="42.87319" lon="0.266">
        <ele>2422.8</ele>
        <time>2022-02-12T11:02:10Z</time>
      </trkpt>
      <trkpt lat="42.87319" lon="0.266">
        <ele>2423</ele>
        <time>2022-02-12T11:02:11Z</time>
      </trkpt>
      <trkpt lat="42.87321" lon="0.26599">
        <ele>2423.4</ele>
        <time>2022-02-12T11:02:15Z</time>
      </trkpt>
      <trkpt lat="42.87322" lon="0.26598">
        <ele>2423.8</ele>
        <time>2022-02-12T11:02:17Z</time>
      </trkpt>
      <trkpt lat="42.87324" lon="0.26595">
        <ele>2424.6</ele>
        <time>2022-02-12T11:02:24Z</time>
      </trkpt>
      <trkpt lat="42.87326" lon="0.26594">
        <ele>2425.6</ele>
        <time>2022-02-12T11:02:29Z</time>
      </trkpt>
      <trkpt lat="42.87326" lon="0.26594">
        <ele>2425.6</ele>
        <time>2022-02-12T11:02:30Z</time>
      </trkpt>
      <trkpt lat="42.87327" lon="0.26592">
        <ele>2426.2</ele>
        <time>2022-02-12T11:02:35Z</time>
      </trkpt>
      <trkpt lat="42.87328" lon="0.26592">
        <ele>2426.6</ele>
        <time>2022-02-12T11:02:38Z</time>
      </trkpt>
      <trkpt lat="42.87329" lon="0.26592">
        <ele>2426.8</ele>
        <time>2022-02-12T11:02:39Z</time>
      </trkpt>
      <trkpt lat="42.87329" lon="0.26591">
        <ele>2427.2</ele>
        <time>2022-02-12T11:02:40Z</time>
      </trkpt>
      <trkpt lat="42.8733" lon="0.2659">
        <ele>2427.8</ele>
        <time>2022-02-12T11:02:43Z</time>
      </trkpt>
      <trkpt lat="42.87331" lon="0.26589">
        <ele>2428</ele>
        <time>2022-02-12T11:02:46Z</time>
      </trkpt>
      <trkpt lat="42.87333" lon="0.26587">
        <ele>2428.6</ele>
        <time>2022-02-12T11:02:51Z</time>
      </trkpt>
      <trkpt lat="42.87334" lon="0.26587">
        <ele>2428.8</ele>
        <time>2022-02-12T11:02:52Z</time>
      </trkpt>
      <trkpt lat="42.87336" lon="0.26585">
        <ele>2429.8</ele>
        <time>2022-02-12T11:02:56Z</time>
      </trkpt>
      <trkpt lat="42.87336" lon="0.26585">
        <ele>2429.8</ele>
        <time>2022-02-12T11:02:57Z</time>
      </trkpt>
      <trkpt lat="42.87337" lon="0.26584">
        <ele>2430</ele>
        <time>2022-02-12T11:02:58Z</time>
      </trkpt>
      <trkpt lat="42.87337" lon="0.26584">
        <ele>2430</ele>
        <time>2022-02-12T11:02:59Z</time>
      </trkpt>
      <trkpt lat="42.87339" lon="0.26583">
        <ele>2430.2</ele>
        <time>2022-02-12T11:03:02Z</time>
      </trkpt>
      <trkpt lat="42.87342" lon="0.26581">
        <ele>2430.8</ele>
        <time>2022-02-12T11:03:08Z</time>
      </trkpt>
      <trkpt lat="42.87343" lon="0.2658">
        <ele>2430.8</ele>
        <time>2022-02-12T11:03:10Z</time>
      </trkpt>
      <trkpt lat="42.87345" lon="0.26578">
        <ele>2431.8</ele>
        <time>2022-02-12T11:03:15Z</time>
      </trkpt>
      <trkpt lat="42.87346" lon="0.26577">
        <ele>2432</ele>
        <time>2022-02-12T11:03:17Z</time>
      </trkpt>
      <trkpt lat="42.87347" lon="0.26576">
        <ele>2432.2</ele>
        <time>2022-02-12T11:03:19Z</time>
      </trkpt>
      <trkpt lat="42.87349" lon="0.26575">
        <ele>2432.8</ele>
        <time>2022-02-12T11:03:23Z</time>
      </trkpt>
      <trkpt lat="42.87351" lon="0.26573">
        <ele>2433.2</ele>
        <time>2022-02-12T11:03:27Z</time>
      </trkpt>
      <trkpt lat="42.87351" lon="0.26573">
        <ele>2433</ele>
        <time>2022-02-12T11:03:28Z</time>
      </trkpt>
      <trkpt lat="42.87353" lon="0.26571">
        <ele>2433.6</ele>
        <time>2022-02-12T11:03:33Z</time>
      </trkpt>
      <trkpt lat="42.87353" lon="0.26573">
        <ele>2433.8</ele>
        <time>2022-02-12T11:03:35Z</time>
      </trkpt>
      <trkpt lat="42.87353" lon="0.26575">
        <ele>2433.8</ele>
        <time>2022-02-12T11:03:39Z</time>
      </trkpt>
      <trkpt lat="42.87353" lon="0.26576">
        <ele>2433.8</ele>
        <time>2022-02-12T11:03:40Z</time>
      </trkpt>
      <trkpt lat="42.87352" lon="0.26579">
        <ele>2434.2</ele>
        <time>2022-02-12T11:03:43Z</time>
      </trkpt>
      <trkpt lat="42.87351" lon="0.26583">
        <ele>2434.8</ele>
        <time>2022-02-12T11:03:48Z</time>
      </trkpt>
      <trkpt lat="42.87351" lon="0.26584">
        <ele>2435</ele>
        <time>2022-02-12T11:03:49Z</time>
      </trkpt>
      <trkpt lat="42.8735" lon="0.26585">
        <ele>2435.2</ele>
        <time>2022-02-12T11:03:50Z</time>
      </trkpt>
      <trkpt lat="42.8735" lon="0.26586">
        <ele>2435.4</ele>
        <time>2022-02-12T11:03:51Z</time>
      </trkpt>
      <trkpt lat="42.8735" lon="0.26587">
        <ele>2435.8</ele>
        <time>2022-02-12T11:03:53Z</time>
      </trkpt>
      <trkpt lat="42.8735" lon="0.26589">
        <ele>2436.2</ele>
        <time>2022-02-12T11:03:55Z</time>
      </trkpt>
      <trkpt lat="42.87349" lon="0.2659">
        <ele>2436.4</ele>
        <time>2022-02-12T11:03:56Z</time>
      </trkpt>
      <trkpt lat="42.87349" lon="0.26592">
        <ele>2436.8</ele>
        <time>2022-02-12T11:03:58Z</time>
      </trkpt>
      <trkpt lat="42.87349" lon="0.26596">
        <ele>2437.6</ele>
        <time>2022-02-12T11:04:02Z</time>
      </trkpt>
      <trkpt lat="42.87349" lon="0.26598">
        <ele>2437.8</ele>
        <time>2022-02-12T11:04:05Z</time>
      </trkpt>
      <trkpt lat="42.87349" lon="0.26604">
        <ele>2438.6</ele>
        <time>2022-02-12T11:04:13Z</time>
      </trkpt>
      <trkpt lat="42.87348" lon="0.26606">
        <ele>2439.2</ele>
        <time>2022-02-12T11:04:16Z</time>
      </trkpt>
      <trkpt lat="42.87348" lon="0.26607">
        <ele>2439.2</ele>
        <time>2022-02-12T11:04:18Z</time>
      </trkpt>
      <trkpt lat="42.87348" lon="0.26608">
        <ele>2439.4</ele>
        <time>2022-02-12T11:04:19Z</time>
      </trkpt>
      <trkpt lat="42.87348" lon="0.26611">
        <ele>2439.8</ele>
        <time>2022-02-12T11:04:23Z</time>
      </trkpt>
      <trkpt lat="42.87348" lon="0.26612">
        <ele>2440</ele>
        <time>2022-02-12T11:04:25Z</time>
      </trkpt>
      <trkpt lat="42.87347" lon="0.26616">
        <ele>2440.6</ele>
        <time>2022-02-12T11:04:30Z</time>
      </trkpt>
      <trkpt lat="42.87347" lon="0.26618">
        <ele>2441</ele>
        <time>2022-02-12T11:04:32Z</time>
      </trkpt>
      <trkpt lat="42.87347" lon="0.2662">
        <ele>2441.8</ele>
        <time>2022-02-12T11:04:36Z</time>
      </trkpt>
      <trkpt lat="42.87347" lon="0.26622">
        <ele>2442.2</ele>
        <time>2022-02-12T11:04:38Z</time>
      </trkpt>
      <trkpt lat="42.87347" lon="0.26625">
        <ele>2442.2</ele>
        <time>2022-02-12T11:04:41Z</time>
      </trkpt>
      <trkpt lat="42.87347" lon="0.26625">
        <ele>2442.4</ele>
        <time>2022-02-12T11:04:43Z</time>
      </trkpt>
      <trkpt lat="42.87348" lon="0.26626">
        <ele>2443.4</ele>
        <time>2022-02-12T11:04:45Z</time>
      </trkpt>
      <trkpt lat="42.87347" lon="0.26627">
        <ele>2443.8</ele>
        <time>2022-02-12T11:04:48Z</time>
      </trkpt>
      <trkpt lat="42.87347" lon="0.26631">
        <ele>2444.4</ele>
        <time>2022-02-12T11:04:52Z</time>
      </trkpt>
      <trkpt lat="42.87347" lon="0.26635">
        <ele>2444.8</ele>
        <time>2022-02-12T11:04:59Z</time>
      </trkpt>
      <trkpt lat="42.87346" lon="0.26637">
        <ele>2445.4</ele>
        <time>2022-02-12T11:05:04Z</time>
      </trkpt>
      <trkpt lat="42.87347" lon="0.26637">
        <ele>2445.6</ele>
        <time>2022-02-12T11:05:07Z</time>
      </trkpt>
      <trkpt lat="42.87347" lon="0.26638">
        <ele>2446</ele>
        <time>2022-02-12T11:05:14Z</time>
      </trkpt>
      <trkpt lat="42.87346" lon="0.2664">
        <ele>2446.4</ele>
        <time>2022-02-12T11:05:19Z</time>
      </trkpt>
      <trkpt lat="42.87346" lon="0.2664">
        <ele>2446.6</ele>
        <time>2022-02-12T11:05:21Z</time>
      </trkpt>
      <trkpt lat="42.87347" lon="0.26638">
        <ele>2446.8</ele>
        <time>2022-02-12T11:05:28Z</time>
      </trkpt>
      <trkpt lat="42.87349" lon="0.26635">
        <ele>2447.6</ele>
        <time>2022-02-12T11:05:34Z</time>
      </trkpt>
      <trkpt lat="42.8735" lon="0.26634">
        <ele>2447.8</ele>
        <time>2022-02-12T11:05:35Z</time>
      </trkpt>
      <trkpt lat="42.87351" lon="0.26633">
        <ele>2448.2</ele>
        <time>2022-02-12T11:05:39Z</time>
      </trkpt>
      <trkpt lat="42.87354" lon="0.2663">
        <ele>2448.6</ele>
        <time>2022-02-12T11:05:45Z</time>
      </trkpt>
      <trkpt lat="42.87355" lon="0.26629">
        <ele>2449.6</ele>
        <time>2022-02-12T11:05:49Z</time>
      </trkpt>
      <trkpt lat="42.87356" lon="0.26628">
        <ele>2449.8</ele>
        <time>2022-02-12T11:05:50Z</time>
      </trkpt>
      <trkpt lat="42.87358" lon="0.26626">
        <ele>2450</ele>
        <time>2022-02-12T11:05:54Z</time>
      </trkpt>
      <trkpt lat="42.87359" lon="0.26625">
        <ele>2450.6</ele>
        <time>2022-02-12T11:05:57Z</time>
      </trkpt>
      <trkpt lat="42.87359" lon="0.26625">
        <ele>2450.8</ele>
        <time>2022-02-12T11:05:58Z</time>
      </trkpt>
      <trkpt lat="42.8736" lon="0.26624">
        <ele>2451.2</ele>
        <time>2022-02-12T11:05:59Z</time>
      </trkpt>
      <trkpt lat="42.87362" lon="0.26623">
        <ele>2451.4</ele>
        <time>2022-02-12T11:06:02Z</time>
      </trkpt>
      <trkpt lat="42.87364" lon="0.26621">
        <ele>2452</ele>
        <time>2022-02-12T11:06:06Z</time>
      </trkpt>
      <trkpt lat="42.87366" lon="0.26619">
        <ele>2452.6</ele>
        <time>2022-02-12T11:06:11Z</time>
      </trkpt>
      <trkpt lat="42.87367" lon="0.26617">
        <ele>2452.8</ele>
        <time>2022-02-12T11:06:14Z</time>
      </trkpt>
      <trkpt lat="42.87368" lon="0.26615">
        <ele>2453</ele>
        <time>2022-02-12T11:06:17Z</time>
      </trkpt>
      <trkpt lat="42.8737" lon="0.26613">
        <ele>2454</ele>
        <time>2022-02-12T11:06:22Z</time>
      </trkpt>
      <trkpt lat="42.8737" lon="0.26613">
        <ele>2454.2</ele>
        <time>2022-02-12T11:06:23Z</time>
      </trkpt>
      <trkpt lat="42.87371" lon="0.26612">
        <ele>2454.6</ele>
        <time>2022-02-12T11:06:26Z</time>
      </trkpt>
      <trkpt lat="42.87371" lon="0.26611">
        <ele>2454.6</ele>
        <time>2022-02-12T11:06:27Z</time>
      </trkpt>
      <trkpt lat="42.87373" lon="0.26609">
        <ele>2455</ele>
        <time>2022-02-12T11:06:32Z</time>
      </trkpt>
      <trkpt lat="42.87374" lon="0.26608">
        <ele>2455.2</ele>
        <time>2022-02-12T11:06:34Z</time>
      </trkpt>
      <trkpt lat="42.87376" lon="0.26607">
        <ele>2455.6</ele>
        <time>2022-02-12T11:06:39Z</time>
      </trkpt>
      <trkpt lat="42.87377" lon="0.26606">
        <ele>2456.4</ele>
        <time>2022-02-12T11:06:41Z</time>
      </trkpt>
      <trkpt lat="42.87378" lon="0.26605">
        <ele>2456.6</ele>
        <time>2022-02-12T11:06:43Z</time>
      </trkpt>
      <trkpt lat="42.87379" lon="0.26603">
        <ele>2456.8</ele>
        <time>2022-02-12T11:06:46Z</time>
      </trkpt>
      <trkpt lat="42.87379" lon="0.26602">
        <ele>2457</ele>
        <time>2022-02-12T11:06:48Z</time>
      </trkpt>
      <trkpt lat="42.8738" lon="0.26602">
        <ele>2457</ele>
        <time>2022-02-12T11:06:49Z</time>
      </trkpt>
      <trkpt lat="42.87381" lon="0.26599">
        <ele>2457.4</ele>
        <time>2022-02-12T11:06:53Z</time>
      </trkpt>
      <trkpt lat="42.87382" lon="0.26598">
        <ele>2457.6</ele>
        <time>2022-02-12T11:06:56Z</time>
      </trkpt>
      <trkpt lat="42.87383" lon="0.26596">
        <ele>2458.2</ele>
        <time>2022-02-12T11:07:00Z</time>
      </trkpt>
      <trkpt lat="42.87384" lon="0.26595">
        <ele>2458.6</ele>
        <time>2022-02-12T11:07:02Z</time>
      </trkpt>
      <trkpt lat="42.87385" lon="0.26593">
        <ele>2459</ele>
        <time>2022-02-12T11:07:05Z</time>
      </trkpt>
      <trkpt lat="42.87385" lon="0.26592">
        <ele>2459.2</ele>
        <time>2022-02-12T11:07:06Z</time>
      </trkpt>
      <trkpt lat="42.87387" lon="0.2659">
        <ele>2459.4</ele>
        <time>2022-02-12T11:07:10Z</time>
      </trkpt>
      <trkpt lat="42.87387" lon="0.26589">
        <ele>2459.8</ele>
        <time>2022-02-12T11:07:12Z</time>
      </trkpt>
      <trkpt lat="42.87388" lon="0.26587">
        <ele>2460.4</ele>
        <time>2022-02-12T11:07:15Z</time>
      </trkpt>
      <trkpt lat="42.87389" lon="0.26585">
        <ele>2461</ele>
        <time>2022-02-12T11:07:18Z</time>
      </trkpt>
      <trkpt lat="42.8739" lon="0.26583">
        <ele>2461.2</ele>
        <time>2022-02-12T11:07:21Z</time>
      </trkpt>
      <trkpt lat="42.87391" lon="0.26581">
        <ele>2461.2</ele>
        <time>2022-02-12T11:07:24Z</time>
      </trkpt>
      <trkpt lat="42.87392" lon="0.26578">
        <ele>2461.2</ele>
        <time>2022-02-12T11:07:28Z</time>
      </trkpt>
      <trkpt lat="42.87392" lon="0.26577">
        <ele>2461.4</ele>
        <time>2022-02-12T11:07:30Z</time>
      </trkpt>
      <trkpt lat="42.87393" lon="0.26576">
        <ele>2461.8</ele>
        <time>2022-02-12T11:07:32Z</time>
      </trkpt>
      <trkpt lat="42.87393" lon="0.26575">
        <ele>2462.2</ele>
        <time>2022-02-12T11:07:33Z</time>
      </trkpt>
      <trkpt lat="42.87394" lon="0.26574">
        <ele>2462.4</ele>
        <time>2022-02-12T11:07:35Z</time>
      </trkpt>
      <trkpt lat="42.87394" lon="0.26573">
        <ele>2462.4</ele>
        <time>2022-02-12T11:07:36Z</time>
      </trkpt>
      <trkpt lat="42.87394" lon="0.26573">
        <ele>2462.6</ele>
        <time>2022-02-12T11:07:37Z</time>
      </trkpt>
      <trkpt lat="42.87395" lon="0.2657">
        <ele>2463.2</ele>
        <time>2022-02-12T11:07:41Z</time>
      </trkpt>
      <trkpt lat="42.87396" lon="0.26568">
        <ele>2463.4</ele>
        <time>2022-02-12T11:07:44Z</time>
      </trkpt>
      <trkpt lat="42.87397" lon="0.26564">
        <ele>2464.4</ele>
        <time>2022-02-12T11:07:49Z</time>
      </trkpt>
      <trkpt lat="42.87397" lon="0.26564">
        <ele>2464.4</ele>
        <time>2022-02-12T11:07:50Z</time>
      </trkpt>
      <trkpt lat="42.87397" lon="0.26559">
        <ele>2464.8</ele>
        <time>2022-02-12T11:07:55Z</time>
      </trkpt>
      <trkpt lat="42.87398" lon="0.26554">
        <ele>2465</ele>
        <time>2022-02-12T11:08:01Z</time>
      </trkpt>
      <trkpt lat="42.87399" lon="0.2655">
        <ele>2465.2</ele>
        <time>2022-02-12T11:08:07Z</time>
      </trkpt>
      <trkpt lat="42.87399" lon="0.26549">
        <ele>2465.4</ele>
        <time>2022-02-12T11:08:08Z</time>
      </trkpt>
      <trkpt lat="42.87399" lon="0.26547">
        <ele>2466</ele>
        <time>2022-02-12T11:08:12Z</time>
      </trkpt>
      <trkpt lat="42.874" lon="0.26547">
        <ele>2466.2</ele>
        <time>2022-02-12T11:08:16Z</time>
      </trkpt>
      <trkpt lat="42.874" lon="0.26549">
        <ele>2466.6</ele>
        <time>2022-02-12T11:08:19Z</time>
      </trkpt>
      <trkpt lat="42.87401" lon="0.2655">
        <ele>2466.4</ele>
        <time>2022-02-12T11:08:22Z</time>
      </trkpt>
      <trkpt lat="42.87402" lon="0.26553">
        <ele>2466.8</ele>
        <time>2022-02-12T11:08:27Z</time>
      </trkpt>
      <trkpt lat="42.87402" lon="0.26558">
        <ele>2467.6</ele>
        <time>2022-02-12T11:08:32Z</time>
      </trkpt>
      <trkpt lat="42.87402" lon="0.26559">
        <ele>2467.8</ele>
        <time>2022-02-12T11:08:34Z</time>
      </trkpt>
      <trkpt lat="42.87403" lon="0.26559">
        <ele>2468.2</ele>
        <time>2022-02-12T11:08:36Z</time>
      </trkpt>
      <trkpt lat="42.87403" lon="0.26561">
        <ele>2468.6</ele>
        <time>2022-02-12T11:08:39Z</time>
      </trkpt>
      <trkpt lat="42.87404" lon="0.26562">
        <ele>2468.6</ele>
        <time>2022-02-12T11:08:40Z</time>
      </trkpt>
      <trkpt lat="42.87405" lon="0.26565">
        <ele>2469</ele>
        <time>2022-02-12T11:08:46Z</time>
      </trkpt>
      <trkpt lat="42.87406" lon="0.26567">
        <ele>2469.6</ele>
        <time>2022-02-12T11:08:49Z</time>
      </trkpt>
      <trkpt lat="42.87407" lon="0.2657">
        <ele>2470</ele>
        <time>2022-02-12T11:08:53Z</time>
      </trkpt>
      <trkpt lat="42.87408" lon="0.26573">
        <ele>2470.8</ele>
        <time>2022-02-12T11:08:57Z</time>
      </trkpt>
      <trkpt lat="42.87408" lon="0.26574">
        <ele>2471</ele>
        <time>2022-02-12T11:08:58Z</time>
      </trkpt>
      <trkpt lat="42.87409" lon="0.26578">
        <ele>2471.6</ele>
        <time>2022-02-12T11:09:03Z</time>
      </trkpt>
      <trkpt lat="42.87409" lon="0.2658">
        <ele>2471.8</ele>
        <time>2022-02-12T11:09:05Z</time>
      </trkpt>
      <trkpt lat="42.87409" lon="0.26583">
        <ele>2472.6</ele>
        <time>2022-02-12T11:09:09Z</time>
      </trkpt>
      <trkpt lat="42.87409" lon="0.26584">
        <ele>2472.8</ele>
        <time>2022-02-12T11:09:11Z</time>
      </trkpt>
      <trkpt lat="42.8741" lon="0.26587">
        <ele>2473</ele>
        <time>2022-02-12T11:09:14Z</time>
      </trkpt>
      <trkpt lat="42.87411" lon="0.26591">
        <ele>2473.6</ele>
        <time>2022-02-12T11:09:20Z</time>
      </trkpt>
      <trkpt lat="42.87411" lon="0.26592">
        <ele>2473.8</ele>
        <time>2022-02-12T11:09:22Z</time>
      </trkpt>
      <trkpt lat="42.87412" lon="0.26597">
        <ele>2474.4</ele>
        <time>2022-02-12T11:09:28Z</time>
      </trkpt>
      <trkpt lat="42.87412" lon="0.266">
        <ele>2474.8</ele>
        <time>2022-02-12T11:09:32Z</time>
      </trkpt>
      <trkpt lat="42.87413" lon="0.266">
        <ele>2475</ele>
        <time>2022-02-12T11:09:33Z</time>
      </trkpt>
      <trkpt lat="42.87414" lon="0.26605">
        <ele>2475.8</ele>
        <time>2022-02-12T11:09:39Z</time>
      </trkpt>
      <trkpt lat="42.87414" lon="0.26607">
        <ele>2475.8</ele>
        <time>2022-02-12T11:09:42Z</time>
      </trkpt>
      <trkpt lat="42.87416" lon="0.2661">
        <ele>2476</ele>
        <time>2022-02-12T11:09:46Z</time>
      </trkpt>
      <trkpt lat="42.87416" lon="0.26615">
        <ele>2476.2</ele>
        <time>2022-02-12T11:09:53Z</time>
      </trkpt>
      <trkpt lat="42.87416" lon="0.26618">
        <ele>2477</ele>
        <time>2022-02-12T11:09:58Z</time>
      </trkpt>
      <trkpt lat="42.87416" lon="0.2662">
        <ele>2477.4</ele>
        <time>2022-02-12T11:10:00Z</time>
      </trkpt>
      <trkpt lat="42.87415" lon="0.26624">
        <ele>2478</ele>
        <time>2022-02-12T11:10:07Z</time>
      </trkpt>
      <trkpt lat="42.87415" lon="0.26623">
        <ele>2478.2</ele>
        <time>2022-02-12T11:10:08Z</time>
      </trkpt>
      <trkpt lat="42.87415" lon="0.26623">
        <ele>2478.4</ele>
        <time>2022-02-12T11:10:12Z</time>
      </trkpt>
      <trkpt lat="42.87416" lon="0.26621">
        <ele>2479</ele>
        <time>2022-02-12T11:10:19Z</time>
      </trkpt>
      <trkpt lat="42.87417" lon="0.26618">
        <ele>2479</ele>
        <time>2022-02-12T11:10:31Z</time>
      </trkpt>
      <trkpt lat="42.87418" lon="0.26614">
        <ele>2479</ele>
        <time>2022-02-12T11:10:37Z</time>
      </trkpt>
      <trkpt lat="42.87418" lon="0.26612">
        <ele>2478.6</ele>
        <time>2022-02-12T11:10:45Z</time>
      </trkpt>
      <trkpt lat="42.87418" lon="0.26612">
        <ele>2478.4</ele>
        <time>2022-02-12T11:10:52Z</time>
      </trkpt>
      <trkpt lat="42.87419" lon="0.26612">
        <ele>2479</ele>
        <time>2022-02-12T11:10:54Z</time>
      </trkpt>
      <trkpt lat="42.87419" lon="0.26612">
        <ele>2479.2</ele>
        <time>2022-02-12T11:10:55Z</time>
      </trkpt>
      <trkpt lat="42.87419" lon="0.26611">
        <ele>2479.4</ele>
        <time>2022-02-12T11:10:56Z</time>
      </trkpt>
      <trkpt lat="42.8742" lon="0.26609">
        <ele>2480.4</ele>
        <time>2022-02-12T11:11:00Z</time>
      </trkpt>
      <trkpt lat="42.8742" lon="0.26608">
        <ele>2480.4</ele>
        <time>2022-02-12T11:11:01Z</time>
      </trkpt>
      <trkpt lat="42.87421" lon="0.26607">
        <ele>2481</ele>
        <time>2022-02-12T11:11:05Z</time>
      </trkpt>
      <trkpt lat="42.87421" lon="0.26606">
        <ele>2481.2</ele>
        <time>2022-02-12T11:11:06Z</time>
      </trkpt>
      <trkpt lat="42.87421" lon="0.26606">
        <ele>2481.4</ele>
        <time>2022-02-12T11:11:13Z</time>
      </trkpt>
      <trkpt lat="42.87421" lon="0.26606">
        <ele>2480.6</ele>
        <time>2022-02-12T11:11:25Z</time>
      </trkpt>
      <trkpt lat="42.87421" lon="0.26606">
        <ele>2480.4</ele>
        <time>2022-02-12T11:11:26Z</time>
      </trkpt>
      <trkpt lat="42.87421" lon="0.26606">
        <ele>2480.6</ele>
        <time>2022-02-12T11:11:29Z</time>
      </trkpt>
      <trkpt lat="42.87421" lon="0.26606">
        <ele>2480.6</ele>
        <time>2022-02-12T11:11:47Z</time>
      </trkpt>
      <trkpt lat="42.87421" lon="0.26606">
        <ele>2480.2</ele>
        <time>2022-02-12T11:11:57Z</time>
      </trkpt>
      <trkpt lat="42.87421" lon="0.26606">
        <ele>2480.6</ele>
        <time>2022-02-12T11:12:01Z</time>
      </trkpt>
      <trkpt lat="42.87421" lon="0.26606">
        <ele>2480.6</ele>
        <time>2022-02-12T11:12:05Z</time>
      </trkpt>
      <trkpt lat="42.87421" lon="0.26606">
        <ele>2480.8</ele>
        <time>2022-02-12T11:12:11Z</time>
      </trkpt>
      <trkpt lat="42.87421" lon="0.26606">
        <ele>2480.6</ele>
        <time>2022-02-12T11:12:26Z</time>
      </trkpt>
      <trkpt lat="42.8742" lon="0.26606">
        <ele>2480.8</ele>
        <time>2022-02-12T11:12:31Z</time>
      </trkpt>
      <trkpt lat="42.8742" lon="0.26607">
        <ele>2480.8</ele>
        <time>2022-02-12T11:12:36Z</time>
      </trkpt>
      <trkpt lat="42.8742" lon="0.26606">
        <ele>2480.8</ele>
        <time>2022-02-12T11:12:46Z</time>
      </trkpt>
      <trkpt lat="42.8742" lon="0.26607">
        <ele>2480.8</ele>
        <time>2022-02-12T11:12:57Z</time>
      </trkpt>
      <trkpt lat="42.8742" lon="0.26607">
        <ele>2480.8</ele>
        <time>2022-02-12T11:13:01Z</time>
      </trkpt>
      <trkpt lat="42.87421" lon="0.26604">
        <ele>2480.8</ele>
        <time>2022-02-12T11:13:18Z</time>
      </trkpt>
      <trkpt lat="42.87423" lon="0.26601">
        <ele>2480.8</ele>
        <time>2022-02-12T11:13:23Z</time>
      </trkpt>
      <trkpt lat="42.87425" lon="0.26597">
        <ele>2480.8</ele>
        <time>2022-02-12T11:13:29Z</time>
      </trkpt>
      <trkpt lat="42.87426" lon="0.26593">
        <ele>2480.8</ele>
        <time>2022-02-12T11:13:35Z</time>
      </trkpt>
      <trkpt lat="42.87426" lon="0.26593">
        <ele>2480.8</ele>
        <time>2022-02-12T11:13:36Z</time>
      </trkpt>
      <trkpt lat="42.87426" lon="0.26593">
        <ele>2480.8</ele>
        <time>2022-02-12T11:13:42Z</time>
      </trkpt>
      <trkpt lat="42.87427" lon="0.2659">
        <ele>2480.8</ele>
        <time>2022-02-12T11:13:51Z</time>
      </trkpt>
      <trkpt lat="42.87428" lon="0.2659">
        <ele>2480.8</ele>
        <time>2022-02-12T11:13:53Z</time>
      </trkpt>
      <trkpt lat="42.87428" lon="0.2659">
        <ele>2480.8</ele>
        <time>2022-02-12T11:13:55Z</time>
      </trkpt>
      <trkpt lat="42.87429" lon="0.26589">
        <ele>2480.8</ele>
        <time>2022-02-12T11:13:56Z</time>
      </trkpt>
      <trkpt lat="42.8743" lon="0.2659">
        <ele>2480.8</ele>
        <time>2022-02-12T11:14:01Z</time>
      </trkpt>
      <trkpt lat="42.87431" lon="0.26592">
        <ele>2480.8</ele>
        <time>2022-02-12T11:14:07Z</time>
      </trkpt>
      <trkpt lat="42.8743" lon="0.26593">
        <ele>2480.8</ele>
        <time>2022-02-12T11:14:13Z</time>
      </trkpt>
      <trkpt lat="42.87431" lon="0.26595">
        <ele>2480.8</ele>
        <time>2022-02-12T11:14:20Z</time>
      </trkpt>
      <trkpt lat="42.87431" lon="0.26596">
        <ele>2487.4</ele>
        <time>2022-02-12T11:14:22Z</time>
      </trkpt>
      <trkpt lat="42.87431" lon="0.26599">
        <ele>2487.4</ele>
        <time>2022-02-12T11:14:26Z</time>
      </trkpt>
      <trkpt lat="42.87431" lon="0.26601">
        <ele>2487.6</ele>
        <time>2022-02-12T11:14:28Z</time>
      </trkpt>
      <trkpt lat="42.87431" lon="0.26601">
        <ele>2487.8</ele>
        <time>2022-02-12T11:14:29Z</time>
      </trkpt>
      <trkpt lat="42.8743" lon="0.26602">
        <ele>2487.8</ele>
        <time>2022-02-12T11:14:31Z</time>
      </trkpt>
      <trkpt lat="42.8743" lon="0.26603">
        <ele>2488</ele>
        <time>2022-02-12T11:14:33Z</time>
      </trkpt>
      <trkpt lat="42.87429" lon="0.26604">
        <ele>2488.4</ele>
        <time>2022-02-12T11:14:36Z</time>
      </trkpt>
      <trkpt lat="42.87428" lon="0.26605">
        <ele>2488.6</ele>
        <time>2022-02-12T11:14:38Z</time>
      </trkpt>
      <trkpt lat="42.87428" lon="0.26608">
        <ele>2488.8</ele>
        <time>2022-02-12T11:14:43Z</time>
      </trkpt>
      <trkpt lat="42.87427" lon="0.26611">
        <ele>2489.2</ele>
        <time>2022-02-12T11:14:50Z</time>
      </trkpt>
      <trkpt lat="42.87427" lon="0.26613">
        <ele>2489.4</ele>
        <time>2022-02-12T11:14:53Z</time>
      </trkpt>
      <trkpt lat="42.87427" lon="0.26613">
        <ele>2489.8</ele>
        <time>2022-02-12T11:14:56Z</time>
      </trkpt>
      <trkpt lat="42.87427" lon="0.26613">
        <ele>2490.2</ele>
        <time>2022-02-12T11:15:03Z</time>
      </trkpt>
      <trkpt lat="42.87427" lon="0.26613">
        <ele>2490.4</ele>
        <time>2022-02-12T11:15:07Z</time>
      </trkpt>
      <trkpt lat="42.87426" lon="0.26614">
        <ele>2490.6</ele>
        <time>2022-02-12T11:15:10Z</time>
      </trkpt>
      <trkpt lat="42.87427" lon="0.26614">
        <ele>2490.8</ele>
        <time>2022-02-12T11:15:17Z</time>
      </trkpt>
      <trkpt lat="42.87428" lon="0.26614">
        <ele>2490.8</ele>
        <time>2022-02-12T11:15:24Z</time>
      </trkpt>
      <trkpt lat="42.87429" lon="0.26614">
        <ele>2491</ele>
        <time>2022-02-12T11:15:32Z</time>
      </trkpt>
      <trkpt lat="42.87429" lon="0.26614">
        <ele>2491.6</ele>
        <time>2022-02-12T11:15:35Z</time>
      </trkpt>
      <trkpt lat="42.8743" lon="0.26615">
        <ele>2491.8</ele>
        <time>2022-02-12T11:15:40Z</time>
      </trkpt>
      <trkpt lat="42.87429" lon="0.26616">
        <ele>2491.6</ele>
        <time>2022-02-12T11:15:45Z</time>
      </trkpt>
      <trkpt lat="42.87429" lon="0.26616">
        <ele>2491.4</ele>
        <time>2022-02-12T11:15:47Z</time>
      </trkpt>
      <trkpt lat="42.8743" lon="0.26618">
        <ele>2491.6</ele>
        <time>2022-02-12T11:15:54Z</time>
      </trkpt>
      <trkpt lat="42.87429" lon="0.2662">
        <ele>2492.8</ele>
        <time>2022-02-12T11:16:00Z</time>
      </trkpt>
      <trkpt lat="42.87428" lon="0.26621">
        <ele>2493</ele>
        <time>2022-02-12T11:16:01Z</time>
      </trkpt>
      <trkpt lat="42.87426" lon="0.26624">
        <ele>2493.4</ele>
        <time>2022-02-12T11:16:07Z</time>
      </trkpt>
      <trkpt lat="42.87426" lon="0.26624">
        <ele>2493.8</ele>
        <time>2022-02-12T11:16:11Z</time>
      </trkpt>
      <trkpt lat="42.87426" lon="0.26624">
        <ele>2494.2</ele>
        <time>2022-02-12T11:16:13Z</time>
      </trkpt>
      <trkpt lat="42.87426" lon="0.26624">
        <ele>2494</ele>
        <time>2022-02-12T11:16:22Z</time>
      </trkpt>
      <trkpt lat="42.87426" lon="0.26625">
        <ele>2494.8</ele>
        <time>2022-02-12T11:16:27Z</time>
      </trkpt>
      <trkpt lat="42.87426" lon="0.26625">
        <ele>2495.2</ele>
        <time>2022-02-12T11:16:33Z</time>
      </trkpt>
      <trkpt lat="42.87425" lon="0.26625">
        <ele>2495.8</ele>
        <time>2022-02-12T11:16:40Z</time>
      </trkpt>
      <trkpt lat="42.87426" lon="0.26625">
        <ele>2496.2</ele>
        <time>2022-02-12T11:16:47Z</time>
      </trkpt>
      <trkpt lat="42.87426" lon="0.26625">
        <ele>2496.2</ele>
        <time>2022-02-12T11:16:54Z</time>
      </trkpt>
      <trkpt lat="42.87426" lon="0.26625">
        <ele>2495.8</ele>
        <time>2022-02-12T11:17:00Z</time>
      </trkpt>
      <trkpt lat="42.87425" lon="0.26625">
        <ele>2496</ele>
        <time>2022-02-12T11:17:04Z</time>
      </trkpt>
      <trkpt lat="42.87426" lon="0.26624">
        <ele>2496.4</ele>
        <time>2022-02-12T11:17:10Z</time>
      </trkpt>
      <trkpt lat="42.87427" lon="0.26624">
        <ele>2496.6</ele>
        <time>2022-02-12T11:17:15Z</time>
      </trkpt>
      <trkpt lat="42.87427" lon="0.26624">
        <ele>2497</ele>
        <time>2022-02-12T11:17:17Z</time>
      </trkpt>
      <trkpt lat="42.87429" lon="0.26624">
        <ele>2497.4</ele>
        <time>2022-02-12T11:17:22Z</time>
      </trkpt>
      <trkpt lat="42.87429" lon="0.26625">
        <ele>2498</ele>
        <time>2022-02-12T11:17:27Z</time>
      </trkpt>
      <trkpt lat="42.87429" lon="0.26625">
        <ele>2498</ele>
        <time>2022-02-12T11:17:29Z</time>
      </trkpt>
      <trkpt lat="42.87428" lon="0.26626">
        <ele>2498</ele>
        <time>2022-02-12T11:17:30Z</time>
      </trkpt>
      <trkpt lat="42.87428" lon="0.26629">
        <ele>2499</ele>
        <time>2022-02-12T11:17:37Z</time>
      </trkpt>
      <trkpt lat="42.87428" lon="0.2663">
        <ele>2499.4</ele>
        <time>2022-02-12T11:17:39Z</time>
      </trkpt>
      <trkpt lat="42.87428" lon="0.2663">
        <ele>2499.8</ele>
        <time>2022-02-12T11:17:42Z</time>
      </trkpt>
      <trkpt lat="42.87428" lon="0.26631">
        <ele>2500.2</ele>
        <time>2022-02-12T11:17:45Z</time>
      </trkpt>
      <trkpt lat="42.87428" lon="0.2663">
        <ele>2500.4</ele>
        <time>2022-02-12T11:17:46Z</time>
      </trkpt>
      <trkpt lat="42.87428" lon="0.26631">
        <ele>2501</ele>
        <time>2022-02-12T11:17:54Z</time>
      </trkpt>
      <trkpt lat="42.87428" lon="0.26632">
        <ele>2501.2</ele>
        <time>2022-02-12T11:18:04Z</time>
      </trkpt>
      <trkpt lat="42.87428" lon="0.26632">
        <ele>2501.2</ele>
        <time>2022-02-12T11:18:05Z</time>
      </trkpt>
      <trkpt lat="42.87427" lon="0.26633">
        <ele>2501.6</ele>
        <time>2022-02-12T11:18:11Z</time>
      </trkpt>
      <trkpt lat="42.87428" lon="0.26633">
        <ele>2501.2</ele>
        <time>2022-02-12T11:18:18Z</time>
      </trkpt>
      <trkpt lat="42.87429" lon="0.26632">
        <ele>2501.6</ele>
        <time>2022-02-12T11:18:24Z</time>
      </trkpt>
      <trkpt lat="42.8743" lon="0.26633">
        <ele>2501.4</ele>
        <time>2022-02-12T11:18:30Z</time>
      </trkpt>
      <trkpt lat="42.8743" lon="0.26633">
        <ele>2501.4</ele>
        <time>2022-02-12T11:18:34Z</time>
      </trkpt>
      <trkpt lat="42.87429" lon="0.26634">
        <ele>2502.2</ele>
        <time>2022-02-12T11:18:40Z</time>
      </trkpt>
      <trkpt lat="42.87428" lon="0.26635">
        <ele>2502.6</ele>
        <time>2022-02-12T11:18:42Z</time>
      </trkpt>
      <trkpt lat="42.87429" lon="0.26639">
        <ele>2503.4</ele>
        <time>2022-02-12T11:18:48Z</time>
      </trkpt>
      <trkpt lat="42.87429" lon="0.2664">
        <ele>2503.6</ele>
        <time>2022-02-12T11:18:50Z</time>
      </trkpt>
      <trkpt lat="42.87429" lon="0.2664">
        <ele>2504</ele>
        <time>2022-02-12T11:18:55Z</time>
      </trkpt>
      <trkpt lat="42.87429" lon="0.2664">
        <ele>2504.2</ele>
        <time>2022-02-12T11:19:02Z</time>
      </trkpt>
      <trkpt lat="42.87427" lon="0.26641">
        <ele>2504.4</ele>
        <time>2022-02-12T11:19:09Z</time>
      </trkpt>
      <trkpt lat="42.87427" lon="0.26641">
        <ele>2504.4</ele>
        <time>2022-02-12T11:19:10Z</time>
      </trkpt>
      <trkpt lat="42.87424" lon="0.26648">
        <ele>2505.6</ele>
        <time>2022-02-12T11:19:19Z</time>
      </trkpt>
      <trkpt lat="42.87424" lon="0.2665">
        <ele>2506</ele>
        <time>2022-02-12T11:19:23Z</time>
      </trkpt>
      <trkpt lat="42.87424" lon="0.26651">
        <ele>2506.2</ele>
        <time>2022-02-12T11:19:25Z</time>
      </trkpt>
      <trkpt lat="42.87424" lon="0.26653">
        <ele>2506.6</ele>
        <time>2022-02-12T11:19:31Z</time>
      </trkpt>
      <trkpt lat="42.87424" lon="0.26653">
        <ele>2506.8</ele>
        <time>2022-02-12T11:19:34Z</time>
      </trkpt>
      <trkpt lat="42.87425" lon="0.26652">
        <ele>2506.8</ele>
        <time>2022-02-12T11:19:39Z</time>
      </trkpt>
      <trkpt lat="42.87427" lon="0.2665">
        <ele>2507.4</ele>
        <time>2022-02-12T11:19:47Z</time>
      </trkpt>
      <trkpt lat="42.87429" lon="0.2665">
        <ele>2507.2</ele>
        <time>2022-02-12T11:19:55Z</time>
      </trkpt>
      <trkpt lat="42.87429" lon="0.2665">
        <ele>2507.8</ele>
        <time>2022-02-12T11:20:02Z</time>
      </trkpt>
      <trkpt lat="42.8743" lon="0.26649">
        <ele>2508.4</ele>
        <time>2022-02-12T11:20:06Z</time>
      </trkpt>
      <trkpt lat="42.87432" lon="0.26648">
        <ele>2509</ele>
        <time>2022-02-12T11:20:11Z</time>
      </trkpt>
      <trkpt lat="42.87432" lon="0.26648">
        <ele>2509.2</ele>
        <time>2022-02-12T11:20:18Z</time>
      </trkpt>
      <trkpt lat="42.87433" lon="0.26647">
        <ele>2509.6</ele>
        <time>2022-02-12T11:20:22Z</time>
      </trkpt>
      <trkpt lat="42.87434" lon="0.26645">
        <ele>2509.8</ele>
        <time>2022-02-12T11:20:28Z</time>
      </trkpt>
      <trkpt lat="42.87435" lon="0.26647">
        <ele>2509.8</ele>
        <time>2022-02-12T11:20:33Z</time>
      </trkpt>
      <trkpt lat="42.87434" lon="0.26649">
        <ele>2510</ele>
        <time>2022-02-12T11:20:39Z</time>
      </trkpt>
      <trkpt lat="42.87434" lon="0.26649">
        <ele>2510.2</ele>
        <time>2022-02-12T11:20:40Z</time>
      </trkpt>
      <trkpt lat="42.87433" lon="0.26652">
        <ele>2510.2</ele>
        <time>2022-02-12T11:20:44Z</time>
      </trkpt>
      <trkpt lat="42.87433" lon="0.26652">
        <ele>2510.4</ele>
        <time>2022-02-12T11:20:45Z</time>
      </trkpt>
      <trkpt lat="42.87433" lon="0.26653">
        <ele>2510.6</ele>
        <time>2022-02-12T11:20:47Z</time>
      </trkpt>
      <trkpt lat="42.87433" lon="0.26656">
        <ele>2511</ele>
        <time>2022-02-12T11:20:51Z</time>
      </trkpt>
      <trkpt lat="42.87433" lon="0.26657">
        <ele>2511</ele>
        <time>2022-02-12T11:20:53Z</time>
      </trkpt>
      <trkpt lat="42.87432" lon="0.26659">
        <ele>2511.2</ele>
        <time>2022-02-12T11:20:55Z</time>
      </trkpt>
      <trkpt lat="42.87431" lon="0.26661">
        <ele>2512</ele>
        <time>2022-02-12T11:20:59Z</time>
      </trkpt>
      <trkpt lat="42.87431" lon="0.26662">
        <ele>2512.4</ele>
        <time>2022-02-12T11:21:01Z</time>
      </trkpt>
      <trkpt lat="42.8743" lon="0.26666">
        <ele>2512.8</ele>
        <time>2022-02-12T11:21:06Z</time>
      </trkpt>
      <trkpt lat="42.87429" lon="0.26668">
        <ele>2513</ele>
        <time>2022-02-12T11:21:09Z</time>
      </trkpt>
      <trkpt lat="42.87429" lon="0.26669">
        <ele>2513.4</ele>
        <time>2022-02-12T11:21:10Z</time>
      </trkpt>
      <trkpt lat="42.87428" lon="0.26673">
        <ele>2514.2</ele>
        <time>2022-02-12T11:21:17Z</time>
      </trkpt>
      <trkpt lat="42.87428" lon="0.26674">
        <ele>2514.6</ele>
        <time>2022-02-12T11:21:18Z</time>
      </trkpt>
      <trkpt lat="42.87428" lon="0.26676">
        <ele>2515.4</ele>
        <time>2022-02-12T11:21:24Z</time>
      </trkpt>
      <trkpt lat="42.87429" lon="0.26675">
        <ele>2515.4</ele>
        <time>2022-02-12T11:21:29Z</time>
      </trkpt>
      <trkpt lat="42.8743" lon="0.26675">
        <ele>2516</ele>
        <time>2022-02-12T11:21:33Z</time>
      </trkpt>
      <trkpt lat="42.87431" lon="0.26674">
        <ele>2516.2</ele>
        <time>2022-02-12T11:21:35Z</time>
      </trkpt>
      <trkpt lat="42.87433" lon="0.26671">
        <ele>2516.6</ele>
        <time>2022-02-12T11:21:42Z</time>
      </trkpt>
      <trkpt lat="42.87434" lon="0.2667">
        <ele>2517</ele>
        <time>2022-02-12T11:21:44Z</time>
      </trkpt>
      <trkpt lat="42.87435" lon="0.26668">
        <ele>2517.2</ele>
        <time>2022-02-12T11:21:48Z</time>
      </trkpt>
      <trkpt lat="42.87437" lon="0.26666">
        <ele>2517.6</ele>
        <time>2022-02-12T11:21:53Z</time>
      </trkpt>
      <trkpt lat="42.87439" lon="0.26665">
        <ele>2518</ele>
        <time>2022-02-12T11:21:56Z</time>
      </trkpt>
      <trkpt lat="42.8744" lon="0.26663">
        <ele>2518.2</ele>
        <time>2022-02-12T11:21:59Z</time>
      </trkpt>
      <trkpt lat="42.87442" lon="0.26661">
        <ele>2518.2</ele>
        <time>2022-02-12T11:22:03Z</time>
      </trkpt>
      <trkpt lat="42.87442" lon="0.2666">
        <ele>2518.2</ele>
        <time>2022-02-12T11:22:04Z</time>
      </trkpt>
      <trkpt lat="42.87444" lon="0.26657">
        <ele>2519</ele>
        <time>2022-02-12T11:22:09Z</time>
      </trkpt>
      <trkpt lat="42.87444" lon="0.26657">
        <ele>2519</ele>
        <time>2022-02-12T11:22:10Z</time>
      </trkpt>
      <trkpt lat="42.87444" lon="0.26657">
        <ele>2519.2</ele>
        <time>2022-02-12T11:22:11Z</time>
      </trkpt>
      <trkpt lat="42.87444" lon="0.26657">
        <ele>2519.6</ele>
        <time>2022-02-12T11:22:16Z</time>
      </trkpt>
      <trkpt lat="42.87444" lon="0.26657">
        <ele>2520</ele>
        <time>2022-02-12T11:22:22Z</time>
      </trkpt>
      <trkpt lat="42.87444" lon="0.26657">
        <ele>2520.4</ele>
        <time>2022-02-12T11:22:24Z</time>
      </trkpt>
      <trkpt lat="42.87444" lon="0.26657">
        <ele>2520.4</ele>
        <time>2022-02-12T11:22:28Z</time>
      </trkpt>
      <trkpt lat="42.87444" lon="0.26656">
        <ele>2520.8</ele>
        <time>2022-02-12T11:22:37Z</time>
      </trkpt>
      <trkpt lat="42.87445" lon="0.26654">
        <ele>2521.2</ele>
        <time>2022-02-12T11:22:40Z</time>
      </trkpt>
      <trkpt lat="42.87446" lon="0.26653">
        <ele>2521.4</ele>
        <time>2022-02-12T11:22:42Z</time>
      </trkpt>
      <trkpt lat="42.87447" lon="0.2665">
        <ele>2521.8</ele>
        <time>2022-02-12T11:22:47Z</time>
      </trkpt>
      <trkpt lat="42.87447" lon="0.2665">
        <ele>2522.2</ele>
        <time>2022-02-12T11:22:50Z</time>
      </trkpt>
      <trkpt lat="42.87448" lon="0.26651">
        <ele>2522.2</ele>
        <time>2022-02-12T11:22:54Z</time>
      </trkpt>
      <trkpt lat="42.87448" lon="0.26653">
        <ele>2522</ele>
        <time>2022-02-12T11:22:59Z</time>
      </trkpt>
      <trkpt lat="42.87448" lon="0.26655">
        <ele>2522.2</ele>
        <time>2022-02-12T11:23:01Z</time>
      </trkpt>
      <trkpt lat="42.87448" lon="0.26659">
        <ele>2522.4</ele>
        <time>2022-02-12T11:23:06Z</time>
      </trkpt>
      <trkpt lat="42.87447" lon="0.26665">
        <ele>2523.2</ele>
        <time>2022-02-12T11:23:14Z</time>
      </trkpt>
      <trkpt lat="42.87447" lon="0.26666">
        <ele>2523.4</ele>
        <time>2022-02-12T11:23:15Z</time>
      </trkpt>
      <trkpt lat="42.87446" lon="0.26671">
        <ele>2524</ele>
        <time>2022-02-12T11:23:21Z</time>
      </trkpt>
      <trkpt lat="42.87446" lon="0.26671">
        <ele>2524.2</ele>
        <time>2022-02-12T11:23:22Z</time>
      </trkpt>
      <trkpt lat="42.87446" lon="0.26672">
        <ele>2524.4</ele>
        <time>2022-02-12T11:23:23Z</time>
      </trkpt>
      <trkpt lat="42.87446" lon="0.26676">
        <ele>2525</ele>
        <time>2022-02-12T11:23:28Z</time>
      </trkpt>
      <trkpt lat="42.87445" lon="0.2668">
        <ele>2525.4</ele>
        <time>2022-02-12T11:23:33Z</time>
      </trkpt>
      <trkpt lat="42.87445" lon="0.2668">
        <ele>2525.6</ele>
        <time>2022-02-12T11:23:34Z</time>
      </trkpt>
      <trkpt lat="42.87444" lon="0.26686">
        <ele>2526.6</ele>
        <time>2022-02-12T11:23:42Z</time>
      </trkpt>
      <trkpt lat="42.87444" lon="0.26687">
        <ele>2526.8</ele>
        <time>2022-02-12T11:23:43Z</time>
      </trkpt>
      <trkpt lat="42.87443" lon="0.26691">
        <ele>2528</ele>
        <time>2022-02-12T11:23:48Z</time>
      </trkpt>
      <trkpt lat="42.87442" lon="0.26696">
        <ele>2528.8</ele>
        <time>2022-02-12T11:23:55Z</time>
      </trkpt>
      <trkpt lat="42.8744" lon="0.267">
        <ele>2529.2</ele>
        <time>2022-02-12T11:24:00Z</time>
      </trkpt>
      <trkpt lat="42.8744" lon="0.26701">
        <ele>2529.2</ele>
        <time>2022-02-12T11:24:01Z</time>
      </trkpt>
      <trkpt lat="42.87439" lon="0.26705">
        <ele>2530</ele>
        <time>2022-02-12T11:24:07Z</time>
      </trkpt>
      <trkpt lat="42.87439" lon="0.26706">
        <ele>2530.2</ele>
        <time>2022-02-12T11:24:09Z</time>
      </trkpt>
      <trkpt lat="42.87439" lon="0.26707">
        <ele>2530.8</ele>
        <time>2022-02-12T11:24:13Z</time>
      </trkpt>
      <trkpt lat="42.87438" lon="0.2671">
        <ele>2530.8</ele>
        <time>2022-02-12T11:24:22Z</time>
      </trkpt>
      <trkpt lat="42.87437" lon="0.26714">
        <ele>2531.2</ele>
        <time>2022-02-12T11:24:28Z</time>
      </trkpt>
      <trkpt lat="42.87437" lon="0.26715">
        <ele>2531.2</ele>
        <time>2022-02-12T11:24:29Z</time>
      </trkpt>
      <trkpt lat="42.87437" lon="0.26715">
        <ele>2532</ele>
        <time>2022-02-12T11:24:33Z</time>
      </trkpt>
      <trkpt lat="42.87438" lon="0.26715">
        <ele>2532.4</ele>
        <time>2022-02-12T11:24:36Z</time>
      </trkpt>
      <trkpt lat="42.87439" lon="0.26714">
        <ele>2532.6</ele>
        <time>2022-02-12T11:24:40Z</time>
      </trkpt>
      <trkpt lat="42.87442" lon="0.26711">
        <ele>2532.8</ele>
        <time>2022-02-12T11:24:46Z</time>
      </trkpt>
      <trkpt lat="42.87446" lon="0.26708">
        <ele>2533.2</ele>
        <time>2022-02-12T11:24:53Z</time>
      </trkpt>
      <trkpt lat="42.87447" lon="0.26708">
        <ele>2533.4</ele>
        <time>2022-02-12T11:24:54Z</time>
      </trkpt>
      <trkpt lat="42.8745" lon="0.26704">
        <ele>2533.8</ele>
        <time>2022-02-12T11:25:00Z</time>
      </trkpt>
      <trkpt lat="42.87454" lon="0.267">
        <ele>2534.4</ele>
        <time>2022-02-12T11:25:09Z</time>
      </trkpt>
      <trkpt lat="42.87457" lon="0.26697">
        <ele>2535</ele>
        <time>2022-02-12T11:25:15Z</time>
      </trkpt>
      <trkpt lat="42.87459" lon="0.26696">
        <ele>2535.4</ele>
        <time>2022-02-12T11:25:19Z</time>
      </trkpt>
      <trkpt lat="42.87459" lon="0.26695">
        <ele>2535.6</ele>
        <time>2022-02-12T11:25:20Z</time>
      </trkpt>
      <trkpt lat="42.87461" lon="0.26694">
        <ele>2536.2</ele>
        <time>2022-02-12T11:25:24Z</time>
      </trkpt>
      <trkpt lat="42.87462" lon="0.26692">
        <ele>2536.8</ele>
        <time>2022-02-12T11:25:28Z</time>
      </trkpt>
      <trkpt lat="42.87463" lon="0.26691">
        <ele>2537</ele>
        <time>2022-02-12T11:25:30Z</time>
      </trkpt>
      <trkpt lat="42.87465" lon="0.26689">
        <ele>2537.8</ele>
        <time>2022-02-12T11:25:34Z</time>
      </trkpt>
      <trkpt lat="42.87465" lon="0.26688">
        <ele>2538</ele>
        <time>2022-02-12T11:25:35Z</time>
      </trkpt>
      <trkpt lat="42.87466" lon="0.26685">
        <ele>2538.8</ele>
        <time>2022-02-12T11:25:40Z</time>
      </trkpt>
      <trkpt lat="42.87469" lon="0.26683">
        <ele>2539.8</ele>
        <time>2022-02-12T11:25:45Z</time>
      </trkpt>
      <trkpt lat="42.87469" lon="0.26682">
        <ele>2540.2</ele>
        <time>2022-02-12T11:25:46Z</time>
      </trkpt>
      <trkpt lat="42.87472" lon="0.2668">
        <ele>2541.2</ele>
        <time>2022-02-12T11:25:52Z</time>
      </trkpt>
      <trkpt lat="42.87473" lon="0.26678">
        <ele>2542.4</ele>
        <time>2022-02-12T11:25:57Z</time>
      </trkpt>
      <trkpt lat="42.87475" lon="0.26676">
        <ele>2542.8</ele>
        <time>2022-02-12T11:26:03Z</time>
      </trkpt>
      <trkpt lat="42.87476" lon="0.26679">
        <ele>2542.6</ele>
        <time>2022-02-12T11:26:08Z</time>
      </trkpt>
      <trkpt lat="42.87475" lon="0.26682">
        <ele>2542.4</ele>
        <time>2022-02-12T11:26:13Z</time>
      </trkpt>
      <trkpt lat="42.87474" lon="0.26684">
        <ele>2543</ele>
        <time>2022-02-12T11:26:16Z</time>
      </trkpt>
      <trkpt lat="42.87474" lon="0.26686">
        <ele>2543</ele>
        <time>2022-02-12T11:26:19Z</time>
      </trkpt>
      <trkpt lat="42.87474" lon="0.26687">
        <ele>2543.4</ele>
        <time>2022-02-12T11:26:21Z</time>
      </trkpt>
      <trkpt lat="42.87472" lon="0.26692">
        <ele>2544.2</ele>
        <time>2022-02-12T11:26:29Z</time>
      </trkpt>
      <trkpt lat="42.87472" lon="0.26693">
        <ele>2544.4</ele>
        <time>2022-02-12T11:26:30Z</time>
      </trkpt>
      <trkpt lat="42.87471" lon="0.26697">
        <ele>2545.2</ele>
        <time>2022-02-12T11:26:35Z</time>
      </trkpt>
      <trkpt lat="42.87471" lon="0.267">
        <ele>2545.4</ele>
        <time>2022-02-12T11:26:40Z</time>
      </trkpt>
      <trkpt lat="42.87469" lon="0.26703">
        <ele>2546.4</ele>
        <time>2022-02-12T11:26:44Z</time>
      </trkpt>
      <trkpt lat="42.87469" lon="0.26704">
        <ele>2546.4</ele>
        <time>2022-02-12T11:26:46Z</time>
      </trkpt>
      <trkpt lat="42.87468" lon="0.26709">
        <ele>2546.6</ele>
        <time>2022-02-12T11:26:52Z</time>
      </trkpt>
      <trkpt lat="42.87468" lon="0.26711">
        <ele>2547.8</ele>
        <time>2022-02-12T11:26:56Z</time>
      </trkpt>
      <trkpt lat="42.87468" lon="0.26713">
        <ele>2548</ele>
        <time>2022-02-12T11:26:58Z</time>
      </trkpt>
      <trkpt lat="42.87467" lon="0.26718">
        <ele>2548.8</ele>
        <time>2022-02-12T11:27:05Z</time>
      </trkpt>
      <trkpt lat="42.87466" lon="0.26722">
        <ele>2549.4</ele>
        <time>2022-02-12T11:27:11Z</time>
      </trkpt>
      <trkpt lat="42.87466" lon="0.26724">
        <ele>2550</ele>
        <time>2022-02-12T11:27:13Z</time>
      </trkpt>
      <trkpt lat="42.87465" lon="0.26727">
        <ele>2550.2</ele>
        <time>2022-02-12T11:27:18Z</time>
      </trkpt>
      <trkpt lat="42.87464" lon="0.26732">
        <ele>2550.8</ele>
        <time>2022-02-12T11:27:24Z</time>
      </trkpt>
      <trkpt lat="42.87463" lon="0.26734">
        <ele>2551</ele>
        <time>2022-02-12T11:27:28Z</time>
      </trkpt>
      <trkpt lat="42.87463" lon="0.26735">
        <ele>2551.4</ele>
        <time>2022-02-12T11:27:29Z</time>
      </trkpt>
      <trkpt lat="42.87464" lon="0.2674">
        <ele>2551.8</ele>
        <time>2022-02-12T11:27:36Z</time>
      </trkpt>
      <trkpt lat="42.87463" lon="0.26742">
        <ele>2552</ele>
        <time>2022-02-12T11:27:38Z</time>
      </trkpt>
      <trkpt lat="42.87462" lon="0.26747">
        <ele>2552.8</ele>
        <time>2022-02-12T11:27:45Z</time>
      </trkpt>
      <trkpt lat="42.8746" lon="0.2675">
        <ele>2553.2</ele>
        <time>2022-02-12T11:27:50Z</time>
      </trkpt>
      <trkpt lat="42.8746" lon="0.26751">
        <ele>2553.2</ele>
        <time>2022-02-12T11:27:51Z</time>
      </trkpt>
      <trkpt lat="42.87459" lon="0.26756">
        <ele>2553.8</ele>
        <time>2022-02-12T11:27:58Z</time>
      </trkpt>
      <trkpt lat="42.87459" lon="0.26758">
        <ele>2554.2</ele>
        <time>2022-02-12T11:28:02Z</time>
      </trkpt>
      <trkpt lat="42.87459" lon="0.26761">
        <ele>2554.2</ele>
        <time>2022-02-12T11:28:05Z</time>
      </trkpt>
      <trkpt lat="42.87458" lon="0.26765">
        <ele>2554.6</ele>
        <time>2022-02-12T11:28:12Z</time>
      </trkpt>
      <trkpt lat="42.87457" lon="0.26766">
        <ele>2555.2</ele>
        <time>2022-02-12T11:28:15Z</time>
      </trkpt>
      <trkpt lat="42.87455" lon="0.2677">
        <ele>2555.2</ele>
        <time>2022-02-12T11:28:22Z</time>
      </trkpt>
      <trkpt lat="42.87454" lon="0.26773">
        <ele>2556</ele>
        <time>2022-02-12T11:28:28Z</time>
      </trkpt>
      <trkpt lat="42.87453" lon="0.26776">
        <ele>2556</ele>
        <time>2022-02-12T11:28:33Z</time>
      </trkpt>
      <trkpt lat="42.87453" lon="0.26776">
        <ele>2556.4</ele>
        <time>2022-02-12T11:28:35Z</time>
      </trkpt>
      <trkpt lat="42.8745" lon="0.26778">
        <ele>2556.8</ele>
        <time>2022-02-12T11:28:40Z</time>
      </trkpt>
      <trkpt lat="42.87449" lon="0.26779">
        <ele>2557.2</ele>
        <time>2022-02-12T11:28:47Z</time>
      </trkpt>
      <trkpt lat="42.8745" lon="0.26779">
        <ele>2557.2</ele>
        <time>2022-02-12T11:28:53Z</time>
      </trkpt>
      <trkpt lat="42.87452" lon="0.26778">
        <ele>2557.4</ele>
        <time>2022-02-12T11:28:56Z</time>
      </trkpt>
      <trkpt lat="42.87455" lon="0.26777">
        <ele>2558</ele>
        <time>2022-02-12T11:29:01Z</time>
      </trkpt>
      <trkpt lat="42.87457" lon="0.26775">
        <ele>2558.6</ele>
        <time>2022-02-12T11:29:05Z</time>
      </trkpt>
      <trkpt lat="42.87459" lon="0.26774">
        <ele>2559</ele>
        <time>2022-02-12T11:29:08Z</time>
      </trkpt>
      <trkpt lat="42.87462" lon="0.26772">
        <ele>2559.4</ele>
        <time>2022-02-12T11:29:13Z</time>
      </trkpt>
      <trkpt lat="42.87463" lon="0.26771">
        <ele>2559.6</ele>
        <time>2022-02-12T11:29:15Z</time>
      </trkpt>
      <trkpt lat="42.87464" lon="0.26769">
        <ele>2560.2</ele>
        <time>2022-02-12T11:29:19Z</time>
      </trkpt>
      <trkpt lat="42.87465" lon="0.26769">
        <ele>2560.6</ele>
        <time>2022-02-12T11:29:20Z</time>
      </trkpt>
      <trkpt lat="42.87467" lon="0.26767">
        <ele>2561</ele>
        <time>2022-02-12T11:29:24Z</time>
      </trkpt>
      <trkpt lat="42.87469" lon="0.26765">
        <ele>2561.2</ele>
        <time>2022-02-12T11:29:29Z</time>
      </trkpt>
      <trkpt lat="42.8747" lon="0.26763">
        <ele>2561.6</ele>
        <time>2022-02-12T11:29:33Z</time>
      </trkpt>
      <trkpt lat="42.87471" lon="0.26762">
        <ele>2562</ele>
        <time>2022-02-12T11:29:35Z</time>
      </trkpt>
      <trkpt lat="42.87473" lon="0.26761">
        <ele>2562.8</ele>
        <time>2022-02-12T11:29:38Z</time>
      </trkpt>
      <trkpt lat="42.87474" lon="0.26759">
        <ele>2563.2</ele>
        <time>2022-02-12T11:29:40Z</time>
      </trkpt>
      <trkpt lat="42.87476" lon="0.26756">
        <ele>2563.4</ele>
        <time>2022-02-12T11:29:45Z</time>
      </trkpt>
      <trkpt lat="42.87477" lon="0.26755">
        <ele>2563.8</ele>
        <time>2022-02-12T11:29:47Z</time>
      </trkpt>
      <trkpt lat="42.87479" lon="0.26754">
        <ele>2564.2</ele>
        <time>2022-02-12T11:29:50Z</time>
      </trkpt>
      <trkpt lat="42.87481" lon="0.26751">
        <ele>2564.6</ele>
        <time>2022-02-12T11:29:55Z</time>
      </trkpt>
      <trkpt lat="42.87481" lon="0.2675">
        <ele>2564.8</ele>
        <time>2022-02-12T11:29:56Z</time>
      </trkpt>
      <trkpt lat="42.87483" lon="0.26748">
        <ele>2565.2</ele>
        <time>2022-02-12T11:30:00Z</time>
      </trkpt>
      <trkpt lat="42.87485" lon="0.26745">
        <ele>2565.6</ele>
        <time>2022-02-12T11:30:05Z</time>
      </trkpt>
      <trkpt lat="42.87486" lon="0.26743">
        <ele>2565.8</ele>
        <time>2022-02-12T11:30:09Z</time>
      </trkpt>
      <trkpt lat="42.87487" lon="0.26742">
        <ele>2566</ele>
        <time>2022-02-12T11:30:11Z</time>
      </trkpt>
      <trkpt lat="42.87489" lon="0.26738">
        <ele>2566.4</ele>
        <time>2022-02-12T11:30:17Z</time>
      </trkpt>
      <trkpt lat="42.87492" lon="0.26734">
        <ele>2567</ele>
        <time>2022-02-12T11:30:24Z</time>
      </trkpt>
      <trkpt lat="42.87494" lon="0.2673">
        <ele>2567.4</ele>
        <time>2022-02-12T11:30:30Z</time>
      </trkpt>
      <trkpt lat="42.87496" lon="0.26728">
        <ele>2568</ele>
        <time>2022-02-12T11:30:35Z</time>
      </trkpt>
      <trkpt lat="42.87498" lon="0.26726">
        <ele>2568.6</ele>
        <time>2022-02-12T11:30:40Z</time>
      </trkpt>
      <trkpt lat="42.87499" lon="0.26729">
        <ele>2568.8</ele>
        <time>2022-02-12T11:30:46Z</time>
      </trkpt>
      <trkpt lat="42.87498" lon="0.26733">
        <ele>2569</ele>
        <time>2022-02-12T11:30:52Z</time>
      </trkpt>
      <trkpt lat="42.87498" lon="0.26733">
        <ele>2569.2</ele>
        <time>2022-02-12T11:30:53Z</time>
      </trkpt>
      <trkpt lat="42.87498" lon="0.26738">
        <ele>2569.8</ele>
        <time>2022-02-12T11:31:00Z</time>
      </trkpt>
      <trkpt lat="42.87497" lon="0.26741">
        <ele>2570.2</ele>
        <time>2022-02-12T11:31:04Z</time>
      </trkpt>
      <trkpt lat="42.87497" lon="0.26744">
        <ele>2570.8</ele>
        <time>2022-02-12T11:31:07Z</time>
      </trkpt>
      <trkpt lat="42.87496" lon="0.26746">
        <ele>2571.2</ele>
        <time>2022-02-12T11:31:10Z</time>
      </trkpt>
      <trkpt lat="42.87495" lon="0.2675">
        <ele>2571.6</ele>
        <time>2022-02-12T11:31:16Z</time>
      </trkpt>
      <trkpt lat="42.87494" lon="0.26754">
        <ele>2572.2</ele>
        <time>2022-02-12T11:31:21Z</time>
      </trkpt>
      <trkpt lat="42.87494" lon="0.26755">
        <ele>2572.6</ele>
        <time>2022-02-12T11:31:23Z</time>
      </trkpt>
      <trkpt lat="42.87493" lon="0.2676">
        <ele>2573.6</ele>
        <time>2022-02-12T11:31:30Z</time>
      </trkpt>
      <trkpt lat="42.87493" lon="0.26761">
        <ele>2573.8</ele>
        <time>2022-02-12T11:31:31Z</time>
      </trkpt>
      <trkpt lat="42.87493" lon="0.26764">
        <ele>2574.4</ele>
        <time>2022-02-12T11:31:37Z</time>
      </trkpt>
      <trkpt lat="42.87493" lon="0.26764">
        <ele>2574.6</ele>
        <time>2022-02-12T11:31:38Z</time>
      </trkpt>
      <trkpt lat="42.87491" lon="0.26769">
        <ele>2575.6</ele>
        <time>2022-02-12T11:31:45Z</time>
      </trkpt>
      <trkpt lat="42.87491" lon="0.2677">
        <ele>2575.8</ele>
        <time>2022-02-12T11:31:46Z</time>
      </trkpt>
      <trkpt lat="42.8749" lon="0.26775">
        <ele>2576.6</ele>
        <time>2022-02-12T11:31:52Z</time>
      </trkpt>
      <trkpt lat="42.8749" lon="0.26775">
        <ele>2576.8</ele>
        <time>2022-02-12T11:31:53Z</time>
      </trkpt>
      <trkpt lat="42.8749" lon="0.26778">
        <ele>2577.4</ele>
        <time>2022-02-12T11:31:59Z</time>
      </trkpt>
      <trkpt lat="42.87488" lon="0.26782">
        <ele>2577.8</ele>
        <time>2022-02-12T11:32:05Z</time>
      </trkpt>
      <trkpt lat="42.87487" lon="0.26786">
        <ele>2578.8</ele>
        <time>2022-02-12T11:32:13Z</time>
      </trkpt>
      <trkpt lat="42.87487" lon="0.26792">
        <ele>2579</ele>
        <time>2022-02-12T11:32:20Z</time>
      </trkpt>
      <trkpt lat="42.87486" lon="0.26797">
        <ele>2579.8</ele>
        <time>2022-02-12T11:32:27Z</time>
      </trkpt>
      <trkpt lat="42.87486" lon="0.26797">
        <ele>2580</ele>
        <time>2022-02-12T11:32:28Z</time>
      </trkpt>
      <trkpt lat="42.87486" lon="0.268">
        <ele>2580.4</ele>
        <time>2022-02-12T11:32:35Z</time>
      </trkpt>
      <trkpt lat="42.87487" lon="0.26799">
        <ele>2580.6</ele>
        <time>2022-02-12T11:32:41Z</time>
      </trkpt>
      <trkpt lat="42.87489" lon="0.26797">
        <ele>2581</ele>
        <time>2022-02-12T11:32:48Z</time>
      </trkpt>
      <trkpt lat="42.87491" lon="0.26796">
        <ele>2582</ele>
        <time>2022-02-12T11:32:51Z</time>
      </trkpt>
      <trkpt lat="42.87492" lon="0.26795">
        <ele>2582.4</ele>
        <time>2022-02-12T11:32:53Z</time>
      </trkpt>
      <trkpt lat="42.87493" lon="0.26794">
        <ele>2582.8</ele>
        <time>2022-02-12T11:32:56Z</time>
      </trkpt>
      <trkpt lat="42.87494" lon="0.26793">
        <ele>2583.2</ele>
        <time>2022-02-12T11:32:58Z</time>
      </trkpt>
      <trkpt lat="42.87494" lon="0.26793">
        <ele>2583.6</ele>
        <time>2022-02-12T11:32:59Z</time>
      </trkpt>
      <trkpt lat="42.87495" lon="0.26791">
        <ele>2584.2</ele>
        <time>2022-02-12T11:33:02Z</time>
      </trkpt>
      <trkpt lat="42.87496" lon="0.2679">
        <ele>2585.2</ele>
        <time>2022-02-12T11:33:06Z</time>
      </trkpt>
      <trkpt lat="42.87498" lon="0.26789">
        <ele>2586.4</ele>
        <time>2022-02-12T11:33:11Z</time>
      </trkpt>
      <trkpt lat="42.87499" lon="0.26788">
        <ele>2586.8</ele>
        <time>2022-02-12T11:33:13Z</time>
      </trkpt>
      <trkpt lat="42.87501" lon="0.26786">
        <ele>2587.6</ele>
        <time>2022-02-12T11:33:18Z</time>
      </trkpt>
      <trkpt lat="42.87502" lon="0.26785">
        <ele>2587.8</ele>
        <time>2022-02-12T11:33:20Z</time>
      </trkpt>
      <trkpt lat="42.87505" lon="0.26782">
        <ele>2588.4</ele>
        <time>2022-02-12T11:33:27Z</time>
      </trkpt>
      <trkpt lat="42.87506" lon="0.26781">
        <ele>2588.8</ele>
        <time>2022-02-12T11:33:28Z</time>
      </trkpt>
      <trkpt lat="42.87508" lon="0.2678">
        <ele>2589.8</ele>
        <time>2022-02-12T11:33:32Z</time>
      </trkpt>
      <trkpt lat="42.87508" lon="0.26779">
        <ele>2590</ele>
        <time>2022-02-12T11:33:33Z</time>
      </trkpt>
      <trkpt lat="42.8751" lon="0.26778">
        <ele>2591</ele>
        <time>2022-02-12T11:33:37Z</time>
      </trkpt>
      <trkpt lat="42.87511" lon="0.26777">
        <ele>2591.4</ele>
        <time>2022-02-12T11:33:40Z</time>
      </trkpt>
      <trkpt lat="42.87512" lon="0.26776">
        <ele>2592</ele>
        <time>2022-02-12T11:33:43Z</time>
      </trkpt>
      <trkpt lat="42.87513" lon="0.26776">
        <ele>2592.6</ele>
        <time>2022-02-12T11:33:46Z</time>
      </trkpt>
      <trkpt lat="42.87513" lon="0.26776">
        <ele>2592.4</ele>
        <time>2022-02-12T11:33:54Z</time>
      </trkpt>
      <trkpt lat="42.87513" lon="0.26775">
        <ele>2593.2</ele>
        <time>2022-02-12T11:34:03Z</time>
      </trkpt>
      <trkpt lat="42.87514" lon="0.26774">
        <ele>2593.2</ele>
        <time>2022-02-12T11:34:10Z</time>
      </trkpt>
      <trkpt lat="42.87515" lon="0.26772">
        <ele>2594.4</ele>
        <time>2022-02-12T11:34:16Z</time>
      </trkpt>
      <trkpt lat="42.87518" lon="0.2677">
        <ele>2595.4</ele>
        <time>2022-02-12T11:34:22Z</time>
      </trkpt>
      <trkpt lat="42.87518" lon="0.26769">
        <ele>2595.4</ele>
        <time>2022-02-12T11:34:23Z</time>
      </trkpt>
      <trkpt lat="42.87519" lon="0.26767">
        <ele>2596.6</ele>
        <time>2022-02-12T11:34:27Z</time>
      </trkpt>
      <trkpt lat="42.8752" lon="0.26767">
        <ele>2596.6</ele>
        <time>2022-02-12T11:34:28Z</time>
      </trkpt>
      <trkpt lat="42.87522" lon="0.26764">
        <ele>2597.4</ele>
        <time>2022-02-12T11:34:34Z</time>
      </trkpt>
      <trkpt lat="42.87523" lon="0.26763">
        <ele>2597.6</ele>
        <time>2022-02-12T11:34:36Z</time>
      </trkpt>
      <trkpt lat="42.87524" lon="0.26762">
        <ele>2598</ele>
        <time>2022-02-12T11:34:40Z</time>
      </trkpt>
      <trkpt lat="42.87525" lon="0.26759">
        <ele>2598.4</ele>
        <time>2022-02-12T11:34:46Z</time>
      </trkpt>
      <trkpt lat="42.87527" lon="0.26758">
        <ele>2598.8</ele>
        <time>2022-02-12T11:34:49Z</time>
      </trkpt>
      <trkpt lat="42.87528" lon="0.26758">
        <ele>2599.2</ele>
        <time>2022-02-12T11:34:52Z</time>
      </trkpt>
      <trkpt lat="42.87528" lon="0.26759">
        <ele>2599.2</ele>
        <time>2022-02-12T11:34:56Z</time>
      </trkpt>
      <trkpt lat="42.87527" lon="0.26765">
        <ele>2599.8</ele>
        <time>2022-02-12T11:35:04Z</time>
      </trkpt>
      <trkpt lat="42.87526" lon="0.26767">
        <ele>2600</ele>
        <time>2022-02-12T11:35:06Z</time>
      </trkpt>
      <trkpt lat="42.87527" lon="0.2677">
        <ele>2600.6</ele>
        <time>2022-02-12T11:35:11Z</time>
      </trkpt>
      <trkpt lat="42.87527" lon="0.26772">
        <ele>2601</ele>
        <time>2022-02-12T11:35:13Z</time>
      </trkpt>
      <trkpt lat="42.87527" lon="0.26774">
        <ele>2601.8</ele>
        <time>2022-02-12T11:35:17Z</time>
      </trkpt>
      <trkpt lat="42.87527" lon="0.26776">
        <ele>2602.2</ele>
        <time>2022-02-12T11:35:20Z</time>
      </trkpt>
      <trkpt lat="42.87526" lon="0.26777">
        <ele>2602.6</ele>
        <time>2022-02-12T11:35:24Z</time>
      </trkpt>
      <trkpt lat="42.87527" lon="0.26776">
        <ele>2602.4</ele>
        <time>2022-02-12T11:35:33Z</time>
      </trkpt>
      <trkpt lat="42.87526" lon="0.26777">
        <ele>2602.6</ele>
        <time>2022-02-12T11:35:39Z</time>
      </trkpt>
      <trkpt lat="42.87526" lon="0.26777">
        <ele>2602.6</ele>
        <time>2022-02-12T11:35:40Z</time>
      </trkpt>
      <trkpt lat="42.87525" lon="0.2678">
        <ele>2603.4</ele>
        <time>2022-02-12T11:35:45Z</time>
      </trkpt>
      <trkpt lat="42.87524" lon="0.26782">
        <ele>2604</ele>
        <time>2022-02-12T11:35:49Z</time>
      </trkpt>
      <trkpt lat="42.87524" lon="0.26784">
        <ele>2604.4</ele>
        <time>2022-02-12T11:35:52Z</time>
      </trkpt>
      <trkpt lat="42.87522" lon="0.26786">
        <ele>2605</ele>
        <time>2022-02-12T11:35:55Z</time>
      </trkpt>
      <trkpt lat="42.87522" lon="0.26788">
        <ele>2605.6</ele>
        <time>2022-02-12T11:35:57Z</time>
      </trkpt>
      <trkpt lat="42.87522" lon="0.26789">
        <ele>2606.2</ele>
        <time>2022-02-12T11:36:02Z</time>
      </trkpt>
      <trkpt lat="42.87523" lon="0.26788">
        <ele>2606.2</ele>
        <time>2022-02-12T11:36:08Z</time>
      </trkpt>
      <trkpt lat="42.87526" lon="0.26786">
        <ele>2606.8</ele>
        <time>2022-02-12T11:36:14Z</time>
      </trkpt>
      <trkpt lat="42.87527" lon="0.26786">
        <ele>2607</ele>
        <time>2022-02-12T11:36:15Z</time>
      </trkpt>
      <trkpt lat="42.87528" lon="0.26786">
        <ele>2607.8</ele>
        <time>2022-02-12T11:36:18Z</time>
      </trkpt>
      <trkpt lat="42.8753" lon="0.26786">
        <ele>2608.6</ele>
        <time>2022-02-12T11:36:21Z</time>
      </trkpt>
      <trkpt lat="42.87531" lon="0.26786">
        <ele>2608.8</ele>
        <time>2022-02-12T11:36:23Z</time>
      </trkpt>
      <trkpt lat="42.87532" lon="0.26785">
        <ele>2609.4</ele>
        <time>2022-02-12T11:36:27Z</time>
      </trkpt>
      <trkpt lat="42.87533" lon="0.26784">
        <ele>2610</ele>
        <time>2022-02-12T11:36:30Z</time>
      </trkpt>
      <trkpt lat="42.87534" lon="0.26783">
        <ele>2611</ele>
        <time>2022-02-12T11:36:33Z</time>
      </trkpt>
      <trkpt lat="42.87536" lon="0.26781">
        <ele>2611.8</ele>
        <time>2022-02-12T11:36:39Z</time>
      </trkpt>
      <trkpt lat="42.87536" lon="0.26781">
        <ele>2612.2</ele>
        <time>2022-02-12T11:36:43Z</time>
      </trkpt>
      <trkpt lat="42.87537" lon="0.2678">
        <ele>2613</ele>
        <time>2022-02-12T11:36:48Z</time>
      </trkpt>
      <trkpt lat="42.87537" lon="0.26779">
        <ele>2613.4</ele>
        <time>2022-02-12T11:36:50Z</time>
      </trkpt>
      <trkpt lat="42.87538" lon="0.26778">
        <ele>2613.6</ele>
        <time>2022-02-12T11:36:54Z</time>
      </trkpt>
      <trkpt lat="42.87539" lon="0.26776">
        <ele>2614.4</ele>
        <time>2022-02-12T11:36:58Z</time>
      </trkpt>
      <trkpt lat="42.8754" lon="0.26775">
        <ele>2614.8</ele>
        <time>2022-02-12T11:37:01Z</time>
      </trkpt>
      <trkpt lat="42.8754" lon="0.26775">
        <ele>2615.4</ele>
        <time>2022-02-12T11:37:05Z</time>
      </trkpt>
      <trkpt lat="42.87541" lon="0.26773">
        <ele>2616</ele>
        <time>2022-02-12T11:37:12Z</time>
      </trkpt>
      <trkpt lat="42.87542" lon="0.26772">
        <ele>2616.6</ele>
        <time>2022-02-12T11:37:17Z</time>
      </trkpt>
      <trkpt lat="42.87542" lon="0.26771">
        <ele>2616.8</ele>
        <time>2022-02-12T11:37:19Z</time>
      </trkpt>
      <trkpt lat="42.87542" lon="0.26772">
        <ele>2617</ele>
        <time>2022-02-12T11:37:25Z</time>
      </trkpt>
      <trkpt lat="42.87542" lon="0.26772">
        <ele>2616.8</ele>
        <time>2022-02-12T11:37:30Z</time>
      </trkpt>
      <trkpt lat="42.87542" lon="0.26773">
        <ele>2616.8</ele>
        <time>2022-02-12T11:37:34Z</time>
      </trkpt>
      <trkpt lat="42.87542" lon="0.26773">
        <ele>2616.8</ele>
        <time>2022-02-12T11:37:41Z</time>
      </trkpt>
      <trkpt lat="42.87542" lon="0.26774">
        <ele>2617.2</ele>
        <time>2022-02-12T11:37:43Z</time>
      </trkpt>
      <trkpt lat="42.87542" lon="0.26776">
        <ele>2617.6</ele>
        <time>2022-02-12T11:37:48Z</time>
      </trkpt>
      <trkpt lat="42.87542" lon="0.26777">
        <ele>2618</ele>
        <time>2022-02-12T11:37:51Z</time>
      </trkpt>
      <trkpt lat="42.87542" lon="0.26778">
        <ele>2618</ele>
        <time>2022-02-12T11:37:56Z</time>
      </trkpt>
      <trkpt lat="42.87542" lon="0.2678">
        <ele>2618</ele>
        <time>2022-02-12T11:38:02Z</time>
      </trkpt>
      <trkpt lat="42.87542" lon="0.26783">
        <ele>2618.2</ele>
        <time>2022-02-12T11:38:09Z</time>
      </trkpt>
      <trkpt lat="42.87541" lon="0.26785">
        <ele>2618.6</ele>
        <time>2022-02-12T11:38:13Z</time>
      </trkpt>
      <trkpt lat="42.87541" lon="0.26787">
        <ele>2618.8</ele>
        <time>2022-02-12T11:38:15Z</time>
      </trkpt>
      <trkpt lat="42.87541" lon="0.2679">
        <ele>2619.8</ele>
        <time>2022-02-12T11:38:22Z</time>
      </trkpt>
      <trkpt lat="42.87539" lon="0.26793">
        <ele>2620.6</ele>
        <time>2022-02-12T11:38:28Z</time>
      </trkpt>
      <trkpt lat="42.87539" lon="0.26795">
        <ele>2620.8</ele>
        <time>2022-02-12T11:38:32Z</time>
      </trkpt>
      <trkpt lat="42.87539" lon="0.26796">
        <ele>2621</ele>
        <time>2022-02-12T11:38:33Z</time>
      </trkpt>
      <trkpt lat="42.87538" lon="0.26799">
        <ele>2621.2</ele>
        <time>2022-02-12T11:38:38Z</time>
      </trkpt>
      <trkpt lat="42.87538" lon="0.26804">
        <ele>2622</ele>
        <time>2022-02-12T11:38:46Z</time>
      </trkpt>
      <trkpt lat="42.87538" lon="0.26805">
        <ele>2622.4</ele>
        <time>2022-02-12T11:38:47Z</time>
      </trkpt>
      <trkpt lat="42.87538" lon="0.26806">
        <ele>2623</ele>
        <time>2022-02-12T11:38:50Z</time>
      </trkpt>
      <trkpt lat="42.87538" lon="0.26806">
        <ele>2623.6</ele>
        <time>2022-02-12T11:38:53Z</time>
      </trkpt>
      <trkpt lat="42.87541" lon="0.26807">
        <ele>2623.6</ele>
        <time>2022-02-12T11:39:03Z</time>
      </trkpt>
      <trkpt lat="42.8754" lon="0.2681">
        <ele>2624</ele>
        <time>2022-02-12T11:39:08Z</time>
      </trkpt>
      <trkpt lat="42.8754" lon="0.26811">
        <ele>2624</ele>
        <time>2022-02-12T11:39:11Z</time>
      </trkpt>
      <trkpt lat="42.87539" lon="0.26815">
        <ele>2625.2</ele>
        <time>2022-02-12T11:39:17Z</time>
      </trkpt>
      <trkpt lat="42.87539" lon="0.26816">
        <ele>2625.4</ele>
        <time>2022-02-12T11:39:18Z</time>
      </trkpt>
      <trkpt lat="42.87538" lon="0.26818">
        <ele>2626.2</ele>
        <time>2022-02-12T11:39:23Z</time>
      </trkpt>
      <trkpt lat="42.87537" lon="0.26818">
        <ele>2626.6</ele>
        <time>2022-02-12T11:39:25Z</time>
      </trkpt>
      <trkpt lat="42.87537" lon="0.2682">
        <ele>2626.2</ele>
        <time>2022-02-12T11:39:33Z</time>
      </trkpt>
      <trkpt lat="42.87537" lon="0.26822">
        <ele>2626.4</ele>
        <time>2022-02-12T11:39:36Z</time>
      </trkpt>
      <trkpt lat="42.87537" lon="0.26824">
        <ele>2627</ele>
        <time>2022-02-12T11:39:39Z</time>
      </trkpt>
      <trkpt lat="42.87536" lon="0.26825">
        <ele>2627.4</ele>
        <time>2022-02-12T11:39:41Z</time>
      </trkpt>
      <trkpt lat="42.87534" lon="0.26827">
        <ele>2627.8</ele>
        <time>2022-02-12T11:39:46Z</time>
      </trkpt>
      <trkpt lat="42.87533" lon="0.26827">
        <ele>2628.4</ele>
        <time>2022-02-12T11:39:51Z</time>
      </trkpt>
      <trkpt lat="42.87533" lon="0.26827">
        <ele>2628.6</ele>
        <time>2022-02-12T11:39:52Z</time>
      </trkpt>
      <trkpt lat="42.87533" lon="0.2683">
        <ele>2629.4</ele>
        <time>2022-02-12T11:39:57Z</time>
      </trkpt>
      <trkpt lat="42.87533" lon="0.2683">
        <ele>2629.6</ele>
        <time>2022-02-12T11:39:58Z</time>
      </trkpt>
      <trkpt lat="42.87532" lon="0.26832">
        <ele>2630.6</ele>
        <time>2022-02-12T11:40:03Z</time>
      </trkpt>
      <trkpt lat="42.87531" lon="0.26838">
        <ele>2631.6</ele>
        <time>2022-02-12T11:40:11Z</time>
      </trkpt>
      <trkpt lat="42.87531" lon="0.26838">
        <ele>2632</ele>
        <time>2022-02-12T11:40:12Z</time>
      </trkpt>
      <trkpt lat="42.87529" lon="0.26842">
        <ele>2633</ele>
        <time>2022-02-12T11:40:18Z</time>
      </trkpt>
      <trkpt lat="42.87529" lon="0.26843">
        <ele>2633.2</ele>
        <time>2022-02-12T11:40:19Z</time>
      </trkpt>
      <trkpt lat="42.87529" lon="0.26844">
        <ele>2633.8</ele>
        <time>2022-02-12T11:40:27Z</time>
      </trkpt>
      <trkpt lat="42.87528" lon="0.26847">
        <ele>2634</ele>
        <time>2022-02-12T11:40:33Z</time>
      </trkpt>
      <trkpt lat="42.87528" lon="0.26848">
        <ele>2634</ele>
        <time>2022-02-12T11:40:34Z</time>
      </trkpt>
      <trkpt lat="42.87528" lon="0.26851">
        <ele>2634.6</ele>
        <time>2022-02-12T11:40:39Z</time>
      </trkpt>
      <trkpt lat="42.87528" lon="0.26853">
        <ele>2635</ele>
        <time>2022-02-12T11:40:41Z</time>
      </trkpt>
      <trkpt lat="42.87529" lon="0.26855">
        <ele>2635.8</ele>
        <time>2022-02-12T11:40:46Z</time>
      </trkpt>
      <trkpt lat="42.8753" lon="0.26855">
        <ele>2636.2</ele>
        <time>2022-02-12T11:40:48Z</time>
      </trkpt>
      <trkpt lat="42.87531" lon="0.26856">
        <ele>2635.8</ele>
        <time>2022-02-12T11:40:55Z</time>
      </trkpt>
      <trkpt lat="42.87533" lon="0.26854">
        <ele>2636.4</ele>
        <time>2022-02-12T11:41:04Z</time>
      </trkpt>
      <trkpt lat="42.87536" lon="0.26852">
        <ele>2637</ele>
        <time>2022-02-12T11:41:09Z</time>
      </trkpt>
      <trkpt lat="42.87536" lon="0.26852">
        <ele>2637.2</ele>
        <time>2022-02-12T11:41:10Z</time>
      </trkpt>
      <trkpt lat="42.87538" lon="0.2685">
        <ele>2638</ele>
        <time>2022-02-12T11:41:15Z</time>
      </trkpt>
      <trkpt lat="42.8754" lon="0.26848">
        <ele>2638.4</ele>
        <time>2022-02-12T11:41:20Z</time>
      </trkpt>
      <trkpt lat="42.87541" lon="0.26848">
        <ele>2638.6</ele>
        <time>2022-02-12T11:41:21Z</time>
      </trkpt>
      <trkpt lat="42.87542" lon="0.26847">
        <ele>2639.6</ele>
        <time>2022-02-12T11:41:25Z</time>
      </trkpt>
      <trkpt lat="42.87543" lon="0.26846">
        <ele>2640</ele>
        <time>2022-02-12T11:41:27Z</time>
      </trkpt>
      <trkpt lat="42.87544" lon="0.26845">
        <ele>2640.6</ele>
        <time>2022-02-12T11:41:31Z</time>
      </trkpt>
      <trkpt lat="42.87546" lon="0.26844">
        <ele>2640.6</ele>
        <time>2022-02-12T11:41:34Z</time>
      </trkpt>
      <trkpt lat="42.87547" lon="0.26843">
        <ele>2641</ele>
        <time>2022-02-12T11:41:40Z</time>
      </trkpt>
      <trkpt lat="42.87547" lon="0.26844">
        <ele>2641.2</ele>
        <time>2022-02-12T11:41:44Z</time>
      </trkpt>
      <trkpt lat="42.87545" lon="0.26846">
        <ele>2641.4</ele>
        <time>2022-02-12T11:41:48Z</time>
      </trkpt>
      <trkpt lat="42.87545" lon="0.26847">
        <ele>2641.6</ele>
        <time>2022-02-12T11:41:49Z</time>
      </trkpt>
      <trkpt lat="42.87544" lon="0.2685">
        <ele>2642.4</ele>
        <time>2022-02-12T11:41:56Z</time>
      </trkpt>
      <trkpt lat="42.87544" lon="0.26851">
        <ele>2642.6</ele>
        <time>2022-02-12T11:41:58Z</time>
      </trkpt>
      <trkpt lat="42.87543" lon="0.26854">
        <ele>2643.2</ele>
        <time>2022-02-12T11:42:02Z</time>
      </trkpt>
      <trkpt lat="42.87543" lon="0.26856">
        <ele>2643.8</ele>
        <time>2022-02-12T11:42:05Z</time>
      </trkpt>
      <trkpt lat="42.87542" lon="0.26858">
        <ele>2644.2</ele>
        <time>2022-02-12T11:42:09Z</time>
      </trkpt>
      <trkpt lat="42.8754" lon="0.26857">
        <ele>2644.2</ele>
        <time>2022-02-12T11:42:17Z</time>
      </trkpt>
      <trkpt lat="42.8754" lon="0.26859">
        <ele>2645</ele>
        <time>2022-02-12T11:42:21Z</time>
      </trkpt>
      <trkpt lat="42.87539" lon="0.26862">
        <ele>2645.4</ele>
        <time>2022-02-12T11:42:24Z</time>
      </trkpt>
      <trkpt lat="42.87539" lon="0.26866">
        <ele>2646.2</ele>
        <time>2022-02-12T11:42:28Z</time>
      </trkpt>
      <trkpt lat="42.87538" lon="0.26868">
        <ele>2646.8</ele>
        <time>2022-02-12T11:42:31Z</time>
      </trkpt>
      <trkpt lat="42.87538" lon="0.2687">
        <ele>2647.2</ele>
        <time>2022-02-12T11:42:34Z</time>
      </trkpt>
      <trkpt lat="42.87537" lon="0.26871">
        <ele>2647.8</ele>
        <time>2022-02-12T11:42:37Z</time>
      </trkpt>
      <trkpt lat="42.87536" lon="0.26873">
        <ele>2648.4</ele>
        <time>2022-02-12T11:42:42Z</time>
      </trkpt>
      <trkpt lat="42.87536" lon="0.26874">
        <ele>2648.8</ele>
        <time>2022-02-12T11:42:44Z</time>
      </trkpt>
      <trkpt lat="42.87537" lon="0.26875">
        <ele>2649.4</ele>
        <time>2022-02-12T11:42:51Z</time>
      </trkpt>
      <trkpt lat="42.87538" lon="0.26875">
        <ele>2649.4</ele>
        <time>2022-02-12T11:42:55Z</time>
      </trkpt>
      <trkpt lat="42.87539" lon="0.26875">
        <ele>2650.4</ele>
        <time>2022-02-12T11:42:59Z</time>
      </trkpt>
      <trkpt lat="42.87539" lon="0.26875">
        <ele>2650.6</ele>
        <time>2022-02-12T11:43:00Z</time>
      </trkpt>
      <trkpt lat="42.8754" lon="0.26875">
        <ele>2650.8</ele>
        <time>2022-02-12T11:43:02Z</time>
      </trkpt>
      <trkpt lat="42.87541" lon="0.26874">
        <ele>2651.6</ele>
        <time>2022-02-12T11:43:05Z</time>
      </trkpt>
      <trkpt lat="42.87543" lon="0.26873">
        <ele>2652.8</ele>
        <time>2022-02-12T11:43:09Z</time>
      </trkpt>
      <trkpt lat="42.87544" lon="0.26873">
        <ele>2653.4</ele>
        <time>2022-02-12T11:43:11Z</time>
      </trkpt>
      <trkpt lat="42.87545" lon="0.26872">
        <ele>2654</ele>
        <time>2022-02-12T11:43:14Z</time>
      </trkpt>
      <trkpt lat="42.87547" lon="0.26871">
        <ele>2655.2</ele>
        <time>2022-02-12T11:43:17Z</time>
      </trkpt>
      <trkpt lat="42.87549" lon="0.2687">
        <ele>2656.4</ele>
        <time>2022-02-12T11:43:22Z</time>
      </trkpt>
      <trkpt lat="42.87549" lon="0.2687">
        <ele>2656.6</ele>
        <time>2022-02-12T11:43:23Z</time>
      </trkpt>
      <trkpt lat="42.8755" lon="0.26868">
        <ele>2657.4</ele>
        <time>2022-02-12T11:43:28Z</time>
      </trkpt>
      <trkpt lat="42.87551" lon="0.26869">
        <ele>2657.6</ele>
        <time>2022-02-12T11:43:30Z</time>
      </trkpt>
      <trkpt lat="42.87551" lon="0.2687">
        <ele>2657.2</ele>
        <time>2022-02-12T11:43:36Z</time>
      </trkpt>
      <trkpt lat="42.8755" lon="0.2687">
        <ele>2656.8</ele>
        <time>2022-02-12T11:43:44Z</time>
      </trkpt>
      <trkpt lat="42.8755" lon="0.2687">
        <ele>2656.6</ele>
        <time>2022-02-12T11:43:48Z</time>
      </trkpt>
      <trkpt lat="42.8755" lon="0.2687">
        <ele>2656.4</ele>
        <time>2022-02-12T11:43:52Z</time>
      </trkpt>
      <trkpt lat="42.8755" lon="0.2687">
        <ele>2656.2</ele>
        <time>2022-02-12T11:43:56Z</time>
      </trkpt>
      <trkpt lat="42.8755" lon="0.2687">
        <ele>2656</ele>
        <time>2022-02-12T11:44:00Z</time>
      </trkpt>
      <trkpt lat="42.8755" lon="0.2687">
        <ele>2656</ele>
        <time>2022-02-12T11:44:01Z</time>
      </trkpt>
      <trkpt lat="42.8755" lon="0.2687">
        <ele>2655.8</ele>
        <time>2022-02-12T11:44:07Z</time>
      </trkpt>
      <trkpt lat="42.8755" lon="0.2687">
        <ele>2655.8</ele>
        <time>2022-02-12T11:44:10Z</time>
      </trkpt>
      <trkpt lat="42.87549" lon="0.26872">
        <ele>2656.2</ele>
        <time>2022-02-12T11:44:17Z</time>
      </trkpt>
      <trkpt lat="42.87548" lon="0.26876">
        <ele>2657</ele>
        <time>2022-02-12T11:44:24Z</time>
      </trkpt>
      <trkpt lat="42.87547" lon="0.26879">
        <ele>2657.4</ele>
        <time>2022-02-12T11:44:29Z</time>
      </trkpt>
      <trkpt lat="42.87546" lon="0.2688">
        <ele>2657.6</ele>
        <time>2022-02-12T11:44:33Z</time>
      </trkpt>
      <trkpt lat="42.87547" lon="0.26881">
        <ele>2657.4</ele>
        <time>2022-02-12T11:44:38Z</time>
      </trkpt>
      <trkpt lat="42.87548" lon="0.26881">
        <ele>2658</ele>
        <time>2022-02-12T11:44:46Z</time>
      </trkpt>
      <trkpt lat="42.87549" lon="0.26881">
        <ele>2658.6</ele>
        <time>2022-02-12T11:44:51Z</time>
      </trkpt>
      <trkpt lat="42.8755" lon="0.2688">
        <ele>2658.8</ele>
        <time>2022-02-12T11:44:52Z</time>
      </trkpt>
      <trkpt lat="42.87551" lon="0.26878">
        <ele>2659.6</ele>
        <time>2022-02-12T11:44:57Z</time>
      </trkpt>
      <trkpt lat="42.87552" lon="0.26878">
        <ele>2660</ele>
        <time>2022-02-12T11:44:59Z</time>
      </trkpt>
      <trkpt lat="42.87554" lon="0.26876">
        <ele>2660.6</ele>
        <time>2022-02-12T11:45:02Z</time>
      </trkpt>
      <trkpt lat="42.87555" lon="0.26875">
        <ele>2661.4</ele>
        <time>2022-02-12T11:45:06Z</time>
      </trkpt>
      <trkpt lat="42.87557" lon="0.26874">
        <ele>2661.8</ele>
        <time>2022-02-12T11:45:09Z</time>
      </trkpt>
      <trkpt lat="42.87558" lon="0.26873">
        <ele>2662.4</ele>
        <time>2022-02-12T11:45:13Z</time>
      </trkpt>
      <trkpt lat="42.87559" lon="0.26873">
        <ele>2662.8</ele>
        <time>2022-02-12T11:45:18Z</time>
      </trkpt>
      <trkpt lat="42.87559" lon="0.26872">
        <ele>2662.8</ele>
        <time>2022-02-12T11:45:20Z</time>
      </trkpt>
      <trkpt lat="42.87559" lon="0.26872">
        <ele>2662.8</ele>
        <time>2022-02-12T11:45:21Z</time>
      </trkpt>
      <trkpt lat="42.8756" lon="0.26872">
        <ele>2662.8</ele>
        <time>2022-02-12T11:45:22Z</time>
      </trkpt>
      <trkpt lat="42.87562" lon="0.26871">
        <ele>2663.4</ele>
        <time>2022-02-12T11:45:30Z</time>
      </trkpt>
      <trkpt lat="42.87561" lon="0.26871">
        <ele>2662.8</ele>
        <time>2022-02-12T11:45:35Z</time>
      </trkpt>
      <trkpt lat="42.87561" lon="0.26872">
        <ele>2662.6</ele>
        <time>2022-02-12T11:45:41Z</time>
      </trkpt>
      <trkpt lat="42.8756" lon="0.26875">
        <ele>2663</ele>
        <time>2022-02-12T11:45:47Z</time>
      </trkpt>
      <trkpt lat="42.87559" lon="0.26878">
        <ele>2663.8</ele>
        <time>2022-02-12T11:45:53Z</time>
      </trkpt>
      <trkpt lat="42.87558" lon="0.26881">
        <ele>2665</ele>
        <time>2022-02-12T11:46:00Z</time>
      </trkpt>
      <trkpt lat="42.87557" lon="0.26885">
        <ele>2666</ele>
        <time>2022-02-12T11:46:05Z</time>
      </trkpt>
      <trkpt lat="42.87557" lon="0.26886">
        <ele>2666.2</ele>
        <time>2022-02-12T11:46:07Z</time>
      </trkpt>
      <trkpt lat="42.87557" lon="0.26885">
        <ele>2666.4</ele>
        <time>2022-02-12T11:46:19Z</time>
      </trkpt>
      <trkpt lat="42.87556" lon="0.26888">
        <ele>2667.2</ele>
        <time>2022-02-12T11:46:24Z</time>
      </trkpt>
      <trkpt lat="42.87556" lon="0.26889">
        <ele>2667.6</ele>
        <time>2022-02-12T11:46:26Z</time>
      </trkpt>
      <trkpt lat="42.87555" lon="0.26891">
        <ele>2668.2</ele>
        <time>2022-02-12T11:46:30Z</time>
      </trkpt>
      <trkpt lat="42.87555" lon="0.26892">
        <ele>2668.4</ele>
        <time>2022-02-12T11:46:31Z</time>
      </trkpt>
      <trkpt lat="42.87555" lon="0.26896">
        <ele>2668.8</ele>
        <time>2022-02-12T11:46:36Z</time>
      </trkpt>
      <trkpt lat="42.87553" lon="0.26898">
        <ele>2669.2</ele>
        <time>2022-02-12T11:46:41Z</time>
      </trkpt>
      <trkpt lat="42.87553" lon="0.269">
        <ele>2669.6</ele>
        <time>2022-02-12T11:46:43Z</time>
      </trkpt>
      <trkpt lat="42.87552" lon="0.26901">
        <ele>2670.6</ele>
        <time>2022-02-12T11:46:46Z</time>
      </trkpt>
      <trkpt lat="42.87551" lon="0.26902">
        <ele>2671.4</ele>
        <time>2022-02-12T11:46:49Z</time>
      </trkpt>
      <trkpt lat="42.87551" lon="0.26904">
        <ele>2671.6</ele>
        <time>2022-02-12T11:46:51Z</time>
      </trkpt>
      <trkpt lat="42.8755" lon="0.26906">
        <ele>2672</ele>
        <time>2022-02-12T11:46:53Z</time>
      </trkpt>
      <trkpt lat="42.8755" lon="0.26907">
        <ele>2672.2</ele>
        <time>2022-02-12T11:46:55Z</time>
      </trkpt>
      <trkpt lat="42.87548" lon="0.26909">
        <ele>2672.8</ele>
        <time>2022-02-12T11:47:00Z</time>
      </trkpt>
      <trkpt lat="42.87547" lon="0.2691">
        <ele>2673.2</ele>
        <time>2022-02-12T11:47:02Z</time>
      </trkpt>
      <trkpt lat="42.87547" lon="0.26912">
        <ele>2673.8</ele>
        <time>2022-02-12T11:47:05Z</time>
      </trkpt>
      <trkpt lat="42.87546" lon="0.26915">
        <ele>2674</ele>
        <time>2022-02-12T11:47:08Z</time>
      </trkpt>
      <trkpt lat="42.87545" lon="0.26918">
        <ele>2674.4</ele>
        <time>2022-02-12T11:47:13Z</time>
      </trkpt>
      <trkpt lat="42.87545" lon="0.26919">
        <ele>2675</ele>
        <time>2022-02-12T11:47:15Z</time>
      </trkpt>
      <trkpt lat="42.87544" lon="0.26921">
        <ele>2675.8</ele>
        <time>2022-02-12T11:47:19Z</time>
      </trkpt>
      <trkpt lat="42.87544" lon="0.26921">
        <ele>2676</ele>
        <time>2022-02-12T11:47:20Z</time>
      </trkpt>
      <trkpt lat="42.87543" lon="0.26923">
        <ele>2676.6</ele>
        <time>2022-02-12T11:47:25Z</time>
      </trkpt>
      <trkpt lat="42.87544" lon="0.26923">
        <ele>2676.4</ele>
        <time>2022-02-12T11:47:35Z</time>
      </trkpt>
      <trkpt lat="42.87544" lon="0.26923">
        <ele>2676.2</ele>
        <time>2022-02-12T11:47:36Z</time>
      </trkpt>
      <trkpt lat="42.87542" lon="0.26926">
        <ele>2677.2</ele>
        <time>2022-02-12T11:47:42Z</time>
      </trkpt>
      <trkpt lat="42.87541" lon="0.2693">
        <ele>2678</ele>
        <time>2022-02-12T11:47:49Z</time>
      </trkpt>
      <trkpt lat="42.87541" lon="0.26932">
        <ele>2678.2</ele>
        <time>2022-02-12T11:47:52Z</time>
      </trkpt>
      <trkpt lat="42.8754" lon="0.26933">
        <ele>2678.8</ele>
        <time>2022-02-12T11:47:55Z</time>
      </trkpt>
      <trkpt lat="42.87539" lon="0.26934">
        <ele>2679.4</ele>
        <time>2022-02-12T11:47:57Z</time>
      </trkpt>
      <trkpt lat="42.87539" lon="0.26937">
        <ele>2680.6</ele>
        <time>2022-02-12T11:48:02Z</time>
      </trkpt>
      <trkpt lat="42.87537" lon="0.2694">
        <ele>2681.4</ele>
        <time>2022-02-12T11:48:09Z</time>
      </trkpt>
      <trkpt lat="42.87536" lon="0.26941">
        <ele>2681.6</ele>
        <time>2022-02-12T11:48:10Z</time>
      </trkpt>
      <trkpt lat="42.87535" lon="0.26944">
        <ele>2682.8</ele>
        <time>2022-02-12T11:48:16Z</time>
      </trkpt>
      <trkpt lat="42.87534" lon="0.26947">
        <ele>2683.6</ele>
        <time>2022-02-12T11:48:22Z</time>
      </trkpt>
      <trkpt lat="42.87534" lon="0.26948">
        <ele>2683.8</ele>
        <time>2022-02-12T11:48:23Z</time>
      </trkpt>
      <trkpt lat="42.87533" lon="0.2695">
        <ele>2684.6</ele>
        <time>2022-02-12T11:48:28Z</time>
      </trkpt>
      <trkpt lat="42.87533" lon="0.26952">
        <ele>2684.8</ele>
        <time>2022-02-12T11:48:30Z</time>
      </trkpt>
      <trkpt lat="42.87532" lon="0.26954">
        <ele>2685.6</ele>
        <time>2022-02-12T11:48:34Z</time>
      </trkpt>
      <trkpt lat="42.87532" lon="0.26956">
        <ele>2686</ele>
        <time>2022-02-12T11:48:37Z</time>
      </trkpt>
      <trkpt lat="42.87531" lon="0.26959">
        <ele>2686.6</ele>
        <time>2022-02-12T11:48:41Z</time>
      </trkpt>
      <trkpt lat="42.87531" lon="0.2696">
        <ele>2687</ele>
        <time>2022-02-12T11:48:44Z</time>
      </trkpt>
      <trkpt lat="42.87531" lon="0.26962">
        <ele>2687.8</ele>
        <time>2022-02-12T11:48:47Z</time>
      </trkpt>
      <trkpt lat="42.87531" lon="0.26964">
        <ele>2688.2</ele>
        <time>2022-02-12T11:48:50Z</time>
      </trkpt>
      <trkpt lat="42.8753" lon="0.26966">
        <ele>2688.2</ele>
        <time>2022-02-12T11:48:54Z</time>
      </trkpt>
      <trkpt lat="42.8753" lon="0.26966">
        <ele>2688.2</ele>
        <time>2022-02-12T11:49:01Z</time>
      </trkpt>
      <trkpt lat="42.87529" lon="0.26967">
        <ele>2688.2</ele>
        <time>2022-02-12T11:49:15Z</time>
      </trkpt>
      <trkpt lat="42.87529" lon="0.26967">
        <ele>2688.2</ele>
        <time>2022-02-12T11:49:16Z</time>
      </trkpt>
      <trkpt lat="42.87529" lon="0.26967">
        <ele>2687.8</ele>
        <time>2022-02-12T11:49:25Z</time>
      </trkpt>
      <trkpt lat="42.87529" lon="0.26967">
        <ele>2687</ele>
        <time>2022-02-12T11:49:29Z</time>
      </trkpt>
      <trkpt lat="42.8753" lon="0.26967">
        <ele>2687</ele>
        <time>2022-02-12T11:49:33Z</time>
      </trkpt>
      <trkpt lat="42.87529" lon="0.26969">
        <ele>2687.8</ele>
        <time>2022-02-12T11:49:38Z</time>
      </trkpt>
      <trkpt lat="42.87529" lon="0.26971">
        <ele>2688.2</ele>
        <time>2022-02-12T11:49:40Z</time>
      </trkpt>
      <trkpt lat="42.87528" lon="0.26974">
        <ele>2689.2</ele>
        <time>2022-02-12T11:49:46Z</time>
      </trkpt>
      <trkpt lat="42.87527" lon="0.26977">
        <ele>2690</ele>
        <time>2022-02-12T11:49:51Z</time>
      </trkpt>
      <trkpt lat="42.87527" lon="0.26978">
        <ele>2690.2</ele>
        <time>2022-02-12T11:49:53Z</time>
      </trkpt>
      <trkpt lat="42.87527" lon="0.26979">
        <ele>2690.4</ele>
        <time>2022-02-12T11:49:55Z</time>
      </trkpt>
      <trkpt lat="42.87525" lon="0.26983">
        <ele>2691.2</ele>
        <time>2022-02-12T11:50:02Z</time>
      </trkpt>
      <trkpt lat="42.87525" lon="0.26983">
        <ele>2691.4</ele>
        <time>2022-02-12T11:50:03Z</time>
      </trkpt>
      <trkpt lat="42.87524" lon="0.26986">
        <ele>2692.8</ele>
        <time>2022-02-12T11:50:08Z</time>
      </trkpt>
      <trkpt lat="42.87523" lon="0.26988">
        <ele>2693.4</ele>
        <time>2022-02-12T11:50:12Z</time>
      </trkpt>
      <trkpt lat="42.87523" lon="0.26989">
        <ele>2693.6</ele>
        <time>2022-02-12T11:50:14Z</time>
      </trkpt>
      <trkpt lat="42.87522" lon="0.26992">
        <ele>2694</ele>
        <time>2022-02-12T11:50:19Z</time>
      </trkpt>
      <trkpt lat="42.87522" lon="0.26992">
        <ele>2694.4</ele>
        <time>2022-02-12T11:50:20Z</time>
      </trkpt>
      <trkpt lat="42.87521" lon="0.26994">
        <ele>2695.2</ele>
        <time>2022-02-12T11:50:24Z</time>
      </trkpt>
      <trkpt lat="42.87521" lon="0.26996">
        <ele>2695.8</ele>
        <time>2022-02-12T11:50:28Z</time>
      </trkpt>
      <trkpt lat="42.8752" lon="0.26998">
        <ele>2696.2</ele>
        <time>2022-02-12T11:50:32Z</time>
      </trkpt>
      <trkpt lat="42.87519" lon="0.27">
        <ele>2696.4</ele>
        <time>2022-02-12T11:50:34Z</time>
      </trkpt>
      <trkpt lat="42.8752" lon="0.26999">
        <ele>2696.4</ele>
        <time>2022-02-12T11:50:40Z</time>
      </trkpt>
      <trkpt lat="42.87521" lon="0.26998">
        <ele>2696.8</ele>
        <time>2022-02-12T11:50:48Z</time>
      </trkpt>
      <trkpt lat="42.87522" lon="0.26997">
        <ele>2697.2</ele>
        <time>2022-02-12T11:50:51Z</time>
      </trkpt>
      <trkpt lat="42.87523" lon="0.26997">
        <ele>2697.8</ele>
        <time>2022-02-12T11:50:53Z</time>
      </trkpt>
      <trkpt lat="42.87525" lon="0.26996">
        <ele>2698.2</ele>
        <time>2022-02-12T11:50:55Z</time>
      </trkpt>
      <trkpt lat="42.87526" lon="0.26995">
        <ele>2698.6</ele>
        <time>2022-02-12T11:50:58Z</time>
      </trkpt>
      <trkpt lat="42.87529" lon="0.26993">
        <ele>2698.8</ele>
        <time>2022-02-12T11:51:03Z</time>
      </trkpt>
      <trkpt lat="42.87532" lon="0.26991">
        <ele>2699.4</ele>
        <time>2022-02-12T11:51:08Z</time>
      </trkpt>
      <trkpt lat="42.87533" lon="0.2699">
        <ele>2700.2</ele>
        <time>2022-02-12T11:51:11Z</time>
      </trkpt>
      <trkpt lat="42.87534" lon="0.2699">
        <ele>2700.6</ele>
        <time>2022-02-12T11:51:13Z</time>
      </trkpt>
      <trkpt lat="42.87536" lon="0.26989">
        <ele>2701.4</ele>
        <time>2022-02-12T11:51:17Z</time>
      </trkpt>
      <trkpt lat="42.87537" lon="0.26988">
        <ele>2702.2</ele>
        <time>2022-02-12T11:51:18Z</time>
      </trkpt>
      <trkpt lat="42.87539" lon="0.26987">
        <ele>2703.2</ele>
        <time>2022-02-12T11:51:22Z</time>
      </trkpt>
      <trkpt lat="42.87539" lon="0.26987">
        <ele>2703.2</ele>
        <time>2022-02-12T11:51:23Z</time>
      </trkpt>
      <trkpt lat="42.87542" lon="0.26986">
        <ele>2703.4</ele>
        <time>2022-02-12T11:51:29Z</time>
      </trkpt>
      <trkpt lat="42.87542" lon="0.26987">
        <ele>2704</ele>
        <time>2022-02-12T11:51:33Z</time>
      </trkpt>
      <trkpt lat="42.87541" lon="0.2699">
        <ele>2704</ele>
        <time>2022-02-12T11:51:40Z</time>
      </trkpt>
      <trkpt lat="42.8754" lon="0.26991">
        <ele>2704.2</ele>
        <time>2022-02-12T11:51:41Z</time>
      </trkpt>
      <trkpt lat="42.8754" lon="0.26992">
        <ele>2704.4</ele>
        <time>2022-02-12T11:51:47Z</time>
      </trkpt>
      <trkpt lat="42.8754" lon="0.26995">
        <ele>2704.8</ele>
        <time>2022-02-12T11:51:52Z</time>
      </trkpt>
      <trkpt lat="42.87539" lon="0.26997">
        <ele>2705.6</ele>
        <time>2022-02-12T11:51:55Z</time>
      </trkpt>
      <trkpt lat="42.87539" lon="0.27">
        <ele>2706</ele>
        <time>2022-02-12T11:51:59Z</time>
      </trkpt>
      <trkpt lat="42.87537" lon="0.27002">
        <ele>2707</ele>
        <time>2022-02-12T11:52:03Z</time>
      </trkpt>
      <trkpt lat="42.87538" lon="0.27005">
        <ele>2707.6</ele>
        <time>2022-02-12T11:52:06Z</time>
      </trkpt>
      <trkpt lat="42.87537" lon="0.27007">
        <ele>2708</ele>
        <time>2022-02-12T11:52:09Z</time>
      </trkpt>
      <trkpt lat="42.87536" lon="0.27009">
        <ele>2708.6</ele>
        <time>2022-02-12T11:52:13Z</time>
      </trkpt>
      <trkpt lat="42.87535" lon="0.27012">
        <ele>2709</ele>
        <time>2022-02-12T11:52:17Z</time>
      </trkpt>
      <trkpt lat="42.87535" lon="0.27013">
        <ele>2709.8</ele>
        <time>2022-02-12T11:52:20Z</time>
      </trkpt>
      <trkpt lat="42.87535" lon="0.27015">
        <ele>2710.4</ele>
        <time>2022-02-12T11:52:22Z</time>
      </trkpt>
      <trkpt lat="42.87534" lon="0.27018">
        <ele>2710.8</ele>
        <time>2022-02-12T11:52:27Z</time>
      </trkpt>
      <trkpt lat="42.87533" lon="0.2702">
        <ele>2711.6</ele>
        <time>2022-02-12T11:52:31Z</time>
      </trkpt>
      <trkpt lat="42.87533" lon="0.27021">
        <ele>2712</ele>
        <time>2022-02-12T11:52:34Z</time>
      </trkpt>
      <trkpt lat="42.87532" lon="0.27022">
        <ele>2712.8</ele>
        <time>2022-02-12T11:52:39Z</time>
      </trkpt>
      <trkpt lat="42.87532" lon="0.27023">
        <ele>2713</ele>
        <time>2022-02-12T11:52:40Z</time>
      </trkpt>
      <trkpt lat="42.87531" lon="0.27025">
        <ele>2713.6</ele>
        <time>2022-02-12T11:52:47Z</time>
      </trkpt>
      <trkpt lat="42.87531" lon="0.27024">
        <ele>2713</ele>
        <time>2022-02-12T11:52:56Z</time>
      </trkpt>
      <trkpt lat="42.87532" lon="0.27024">
        <ele>2712.8</ele>
        <time>2022-02-12T11:52:58Z</time>
      </trkpt>
      <trkpt lat="42.87533" lon="0.27026">
        <ele>2712.6</ele>
        <time>2022-02-12T11:53:04Z</time>
      </trkpt>
      <trkpt lat="42.87532" lon="0.27026">
        <ele>2712.4</ele>
        <time>2022-02-12T11:53:06Z</time>
      </trkpt>
      <trkpt lat="42.87532" lon="0.27026">
        <ele>2712.4</ele>
        <time>2022-02-12T11:53:09Z</time>
      </trkpt>
      <trkpt lat="42.87532" lon="0.27026">
        <ele>2713.2</ele>
        <time>2022-02-12T11:53:17Z</time>
      </trkpt>
      <trkpt lat="42.87532" lon="0.27028">
        <ele>2713</ele>
        <time>2022-02-12T11:53:26Z</time>
      </trkpt>
      <trkpt lat="42.87532" lon="0.27028">
        <ele>2713</ele>
        <time>2022-02-12T11:53:27Z</time>
      </trkpt>
      <trkpt lat="42.87532" lon="0.27028">
        <ele>2713</ele>
        <time>2022-02-12T11:53:32Z</time>
      </trkpt>
      <trkpt lat="42.87533" lon="0.27027">
        <ele>2712.6</ele>
        <time>2022-02-12T11:53:36Z</time>
      </trkpt>
      <trkpt lat="42.87533" lon="0.27025">
        <ele>2712.4</ele>
        <time>2022-02-12T11:53:41Z</time>
      </trkpt>
      <trkpt lat="42.87533" lon="0.27025">
        <ele>2712.6</ele>
        <time>2022-02-12T11:53:44Z</time>
      </trkpt>
      <trkpt lat="42.87533" lon="0.27025">
        <ele>2700.4</ele>
        <time>2022-02-12T11:53:46Z</time>
      </trkpt>
      <trkpt lat="42.87533" lon="0.27025">
        <ele>2706.6</ele>
        <time>2022-02-12T11:53:50Z</time>
      </trkpt>
      <trkpt lat="42.87533" lon="0.27025">
        <ele>2709.6</ele>
        <time>2022-02-12T11:53:51Z</time>
      </trkpt>
      <trkpt lat="42.87533" lon="0.27025">
        <ele>2711.2</ele>
        <time>2022-02-12T11:53:52Z</time>
      </trkpt>
      <trkpt lat="42.87533" lon="0.27024">
        <ele>2712.2</ele>
        <time>2022-02-12T11:53:54Z</time>
      </trkpt>
      <trkpt lat="42.87533" lon="0.27024">
        <ele>2712.6</ele>
        <time>2022-02-12T11:53:58Z</time>
      </trkpt>
      <trkpt lat="42.87532" lon="0.27025">
        <ele>2712.6</ele>
        <time>2022-02-12T11:54:07Z</time>
      </trkpt>
      <trkpt lat="42.87531" lon="0.27025">
        <ele>2712.6</ele>
        <time>2022-02-12T11:54:12Z</time>
      </trkpt>
      <trkpt lat="42.87528" lon="0.2703">
        <ele>2712.6</ele>
        <time>2022-02-12T11:54:19Z</time>
      </trkpt>
      <trkpt lat="42.87528" lon="0.27031">
        <ele>2712.6</ele>
        <time>2022-02-12T11:54:20Z</time>
      </trkpt>
      <trkpt lat="42.87527" lon="0.27035">
        <ele>2712.6</ele>
        <time>2022-02-12T11:54:26Z</time>
      </trkpt>
      <trkpt lat="42.87527" lon="0.27036">
        <ele>2712.6</ele>
        <time>2022-02-12T11:54:27Z</time>
      </trkpt>
      <trkpt lat="42.87526" lon="0.27039">
        <ele>2712.6</ele>
        <time>2022-02-12T11:54:36Z</time>
      </trkpt>
      <trkpt lat="42.87526" lon="0.27038">
        <ele>2712.6</ele>
        <time>2022-02-12T11:54:45Z</time>
      </trkpt>
      <trkpt lat="42.87526" lon="0.27038">
        <ele>2716.4</ele>
        <time>2022-02-12T11:54:47Z</time>
      </trkpt>
      <trkpt lat="42.87527" lon="0.27039">
        <ele>2715.6</ele>
        <time>2022-02-12T11:54:54Z</time>
      </trkpt>
      <trkpt lat="42.87527" lon="0.27038">
        <ele>2716</ele>
        <time>2022-02-12T11:55:03Z</time>
      </trkpt>
      <trkpt lat="42.87527" lon="0.27037">
        <ele>2716</ele>
        <time>2022-02-12T11:55:10Z</time>
      </trkpt>
      <trkpt lat="42.87527" lon="0.27037">
        <ele>2716.2</ele>
        <time>2022-02-12T11:55:12Z</time>
      </trkpt>
      <trkpt lat="42.87527" lon="0.27041">
        <ele>2716.4</ele>
        <time>2022-02-12T11:55:21Z</time>
      </trkpt>
      <trkpt lat="42.87527" lon="0.27042">
        <ele>2716.6</ele>
        <time>2022-02-12T11:55:22Z</time>
      </trkpt>
      <trkpt lat="42.87526" lon="0.27044">
        <ele>2717.2</ele>
        <time>2022-02-12T11:55:27Z</time>
      </trkpt>
      <trkpt lat="42.87525" lon="0.27045">
        <ele>2717.4</ele>
        <time>2022-02-12T11:55:29Z</time>
      </trkpt>
      <trkpt lat="42.87525" lon="0.27048">
        <ele>2718.2</ele>
        <time>2022-02-12T11:55:35Z</time>
      </trkpt>
      <trkpt lat="42.87525" lon="0.27049">
        <ele>2718.4</ele>
        <time>2022-02-12T11:55:37Z</time>
      </trkpt>
      <trkpt lat="42.87524" lon="0.27051">
        <ele>2719</ele>
        <time>2022-02-12T11:55:41Z</time>
      </trkpt>
      <trkpt lat="42.87524" lon="0.27052">
        <ele>2719.6</ele>
        <time>2022-02-12T11:55:43Z</time>
      </trkpt>
      <trkpt lat="42.87524" lon="0.27054">
        <ele>2720.2</ele>
        <time>2022-02-12T11:55:47Z</time>
      </trkpt>
      <trkpt lat="42.87523" lon="0.27057">
        <ele>2720.6</ele>
        <time>2022-02-12T11:55:50Z</time>
      </trkpt>
      <trkpt lat="42.87523" lon="0.27058">
        <ele>2720.8</ele>
        <time>2022-02-12T11:55:52Z</time>
      </trkpt>
      <trkpt lat="42.87523" lon="0.2706">
        <ele>2721.6</ele>
        <time>2022-02-12T11:55:55Z</time>
      </trkpt>
      <trkpt lat="42.87523" lon="0.2706">
        <ele>2721.8</ele>
        <time>2022-02-12T11:55:56Z</time>
      </trkpt>
      <trkpt lat="42.87522" lon="0.27063">
        <ele>2722.6</ele>
        <time>2022-02-12T11:56:01Z</time>
      </trkpt>
      <trkpt lat="42.8752" lon="0.27065">
        <ele>2724</ele>
        <time>2022-02-12T11:56:05Z</time>
      </trkpt>
      <trkpt lat="42.8752" lon="0.27068">
        <ele>2724.8</ele>
        <time>2022-02-12T11:56:09Z</time>
      </trkpt>
      <trkpt lat="42.87519" lon="0.27068">
        <ele>2725</ele>
        <time>2022-02-12T11:56:10Z</time>
      </trkpt>
      <trkpt lat="42.87518" lon="0.27072">
        <ele>2726</ele>
        <time>2022-02-12T11:56:16Z</time>
      </trkpt>
      <trkpt lat="42.87518" lon="0.27073">
        <ele>2726.2</ele>
        <time>2022-02-12T11:56:17Z</time>
      </trkpt>
      <trkpt lat="42.87517" lon="0.27075">
        <ele>2727</ele>
        <time>2022-02-12T11:56:22Z</time>
      </trkpt>
      <trkpt lat="42.87517" lon="0.27076">
        <ele>2727.2</ele>
        <time>2022-02-12T11:56:25Z</time>
      </trkpt>
      <trkpt lat="42.87517" lon="0.27076">
        <ele>2727.8</ele>
        <time>2022-02-12T11:56:28Z</time>
      </trkpt>
      <trkpt lat="42.87516" lon="0.27077">
        <ele>2728.2</ele>
        <time>2022-02-12T11:56:30Z</time>
      </trkpt>
      <trkpt lat="42.87515" lon="0.27082">
        <ele>2728.8</ele>
        <time>2022-02-12T11:56:36Z</time>
      </trkpt>
      <trkpt lat="42.87514" lon="0.27083">
        <ele>2729</ele>
        <time>2022-02-12T11:56:39Z</time>
      </trkpt>
      <trkpt lat="42.87513" lon="0.27085">
        <ele>2729.4</ele>
        <time>2022-02-12T11:56:41Z</time>
      </trkpt>
      <trkpt lat="42.87512" lon="0.27087">
        <ele>2730.2</ele>
        <time>2022-02-12T11:56:47Z</time>
      </trkpt>
      <trkpt lat="42.87511" lon="0.2709">
        <ele>2730.4</ele>
        <time>2022-02-12T11:56:53Z</time>
      </trkpt>
      <trkpt lat="42.8751" lon="0.27091">
        <ele>2730.8</ele>
        <time>2022-02-12T11:56:55Z</time>
      </trkpt>
      <trkpt lat="42.87509" lon="0.27093">
        <ele>2731.2</ele>
        <time>2022-02-12T11:56:59Z</time>
      </trkpt>
      <trkpt lat="42.87509" lon="0.27094">
        <ele>2731.6</ele>
        <time>2022-02-12T11:57:04Z</time>
      </trkpt>
      <trkpt lat="42.87509" lon="0.27094">
        <ele>2732</ele>
        <time>2022-02-12T11:57:05Z</time>
      </trkpt>
      <trkpt lat="42.87507" lon="0.27096">
        <ele>2732.2</ele>
        <time>2022-02-12T11:57:11Z</time>
      </trkpt>
      <trkpt lat="42.87505" lon="0.27097">
        <ele>2732.6</ele>
        <time>2022-02-12T11:57:17Z</time>
      </trkpt>
      <trkpt lat="42.87504" lon="0.27099">
        <ele>2733</ele>
        <time>2022-02-12T11:57:20Z</time>
      </trkpt>
      <trkpt lat="42.87503" lon="0.27102">
        <ele>2733</ele>
        <time>2022-02-12T11:57:25Z</time>
      </trkpt>
      <trkpt lat="42.87505" lon="0.27103">
        <ele>2733.6</ele>
        <time>2022-02-12T11:57:32Z</time>
      </trkpt>
      <trkpt lat="42.87509" lon="0.27104">
        <ele>2733.6</ele>
        <time>2022-02-12T11:57:39Z</time>
      </trkpt>
      <trkpt lat="42.87509" lon="0.27104">
        <ele>2734.2</ele>
        <time>2022-02-12T11:57:41Z</time>
      </trkpt>
      <trkpt lat="42.87511" lon="0.27103">
        <ele>2735.2</ele>
        <time>2022-02-12T11:57:45Z</time>
      </trkpt>
      <trkpt lat="42.87513" lon="0.27103">
        <ele>2735.8</ele>
        <time>2022-02-12T11:57:50Z</time>
      </trkpt>
      <trkpt lat="42.87516" lon="0.27102">
        <ele>2736.2</ele>
        <time>2022-02-12T11:57:56Z</time>
      </trkpt>
      <trkpt lat="42.87516" lon="0.27102">
        <ele>2736.4</ele>
        <time>2022-02-12T11:57:57Z</time>
      </trkpt>
      <trkpt lat="42.87519" lon="0.27101">
        <ele>2737.2</ele>
        <time>2022-02-12T11:58:02Z</time>
      </trkpt>
      <trkpt lat="42.8752" lon="0.27101">
        <ele>2737.4</ele>
        <time>2022-02-12T11:58:04Z</time>
      </trkpt>
      <trkpt lat="42.87521" lon="0.271">
        <ele>2738.4</ele>
        <time>2022-02-12T11:58:07Z</time>
      </trkpt>
      <trkpt lat="42.87523" lon="0.271">
        <ele>2739.6</ele>
        <time>2022-02-12T11:58:10Z</time>
      </trkpt>
      <trkpt lat="42.87524" lon="0.27099">
        <ele>2739.8</ele>
        <time>2022-02-12T11:58:13Z</time>
      </trkpt>
      <trkpt lat="42.87527" lon="0.27099">
        <ele>2740.8</ele>
        <time>2022-02-12T11:58:17Z</time>
      </trkpt>
      <trkpt lat="42.87528" lon="0.27098">
        <ele>2741.6</ele>
        <time>2022-02-12T11:58:20Z</time>
      </trkpt>
      <trkpt lat="42.87529" lon="0.27098">
        <ele>2741.8</ele>
        <time>2022-02-12T11:58:22Z</time>
      </trkpt>
      <trkpt lat="42.8753" lon="0.27097">
        <ele>2742.4</ele>
        <time>2022-02-12T11:58:25Z</time>
      </trkpt>
      <trkpt lat="42.87531" lon="0.27097">
        <ele>2743</ele>
        <time>2022-02-12T11:58:28Z</time>
      </trkpt>
      <trkpt lat="42.87533" lon="0.27096">
        <ele>2743.6</ele>
        <time>2022-02-12T11:58:32Z</time>
      </trkpt>
      <trkpt lat="42.87534" lon="0.27095">
        <ele>2744</ele>
        <time>2022-02-12T11:58:35Z</time>
      </trkpt>
      <trkpt lat="42.87535" lon="0.27095">
        <ele>2744.4</ele>
        <time>2022-02-12T11:58:38Z</time>
      </trkpt>
      <trkpt lat="42.87535" lon="0.27097">
        <ele>2744.4</ele>
        <time>2022-02-12T11:58:43Z</time>
      </trkpt>
      <trkpt lat="42.87534" lon="0.27099">
        <ele>2744.4</ele>
        <time>2022-02-12T11:58:48Z</time>
      </trkpt>
      <trkpt lat="42.87533" lon="0.27101">
        <ele>2744.8</ele>
        <time>2022-02-12T11:58:54Z</time>
      </trkpt>
      <trkpt lat="42.87532" lon="0.27103">
        <ele>2745.2</ele>
        <time>2022-02-12T11:58:58Z</time>
      </trkpt>
      <trkpt lat="42.87532" lon="0.27105">
        <ele>2745.4</ele>
        <time>2022-02-12T11:59:01Z</time>
      </trkpt>
      <trkpt lat="42.8753" lon="0.27108">
        <ele>2746.4</ele>
        <time>2022-02-12T11:59:06Z</time>
      </trkpt>
      <trkpt lat="42.87529" lon="0.27109">
        <ele>2747</ele>
        <time>2022-02-12T11:59:09Z</time>
      </trkpt>
      <trkpt lat="42.87528" lon="0.27112">
        <ele>2747.4</ele>
        <time>2022-02-12T11:59:14Z</time>
      </trkpt>
      <trkpt lat="42.87528" lon="0.27114">
        <ele>2747.6</ele>
        <time>2022-02-12T11:59:16Z</time>
      </trkpt>
      <trkpt lat="42.87526" lon="0.27117">
        <ele>2748.6</ele>
        <time>2022-02-12T11:59:22Z</time>
      </trkpt>
      <trkpt lat="42.87525" lon="0.27117">
        <ele>2748.6</ele>
        <time>2022-02-12T11:59:23Z</time>
      </trkpt>
      <trkpt lat="42.87523" lon="0.27119">
        <ele>2749.6</ele>
        <time>2022-02-12T11:59:30Z</time>
      </trkpt>
      <trkpt lat="42.87523" lon="0.2712">
        <ele>2749.6</ele>
        <time>2022-02-12T11:59:31Z</time>
      </trkpt>
      <trkpt lat="42.87522" lon="0.27119">
        <ele>2750</ele>
        <time>2022-02-12T11:59:38Z</time>
      </trkpt>
      <trkpt lat="42.87522" lon="0.27119">
        <ele>2749.6</ele>
        <time>2022-02-12T11:59:49Z</time>
      </trkpt>
      <trkpt lat="42.87522" lon="0.27119">
        <ele>2748.6</ele>
        <time>2022-02-12T12:00:00Z</time>
      </trkpt>
      <trkpt lat="42.87522" lon="0.27119">
        <ele>2748.2</ele>
        <time>2022-02-12T12:00:03Z</time>
      </trkpt>
      <trkpt lat="42.87523" lon="0.27119">
        <ele>2748.2</ele>
        <time>2022-02-12T12:00:08Z</time>
      </trkpt>
      <trkpt lat="42.87521" lon="0.2712">
        <ele>2748.2</ele>
        <time>2022-02-12T12:00:12Z</time>
      </trkpt>
      <trkpt lat="42.87519" lon="0.27124">
        <ele>2749.6</ele>
        <time>2022-02-12T12:00:20Z</time>
      </trkpt>
      <trkpt lat="42.87518" lon="0.27125">
        <ele>2749.6</ele>
        <time>2022-02-12T12:00:21Z</time>
      </trkpt>
      <trkpt lat="42.87517" lon="0.27127">
        <ele>2750.6</ele>
        <time>2022-02-12T12:00:26Z</time>
      </trkpt>
      <trkpt lat="42.87517" lon="0.27127">
        <ele>2750.8</ele>
        <time>2022-02-12T12:00:27Z</time>
      </trkpt>
      <trkpt lat="42.87516" lon="0.27129">
        <ele>2750.6</ele>
        <time>2022-02-12T12:00:33Z</time>
      </trkpt>
      <trkpt lat="42.87515" lon="0.2713">
        <ele>2751</ele>
        <time>2022-02-12T12:00:35Z</time>
      </trkpt>
      <trkpt lat="42.87515" lon="0.2713">
        <ele>2751.8</ele>
        <time>2022-02-12T12:00:39Z</time>
      </trkpt>
      <trkpt lat="42.87515" lon="0.2713">
        <ele>2752.4</ele>
        <time>2022-02-12T12:00:44Z</time>
      </trkpt>
      <trkpt lat="42.87516" lon="0.27129">
        <ele>2752</ele>
        <time>2022-02-12T12:00:53Z</time>
      </trkpt>
      <trkpt lat="42.87512" lon="0.27133">
        <ele>2752.8</ele>
        <time>2022-02-12T12:01:00Z</time>
      </trkpt>
      <trkpt lat="42.87512" lon="0.27133">
        <ele>2752.8</ele>
        <time>2022-02-12T12:01:01Z</time>
      </trkpt>
      <trkpt lat="42.87511" lon="0.27136">
        <ele>2754.2</ele>
        <time>2022-02-12T12:01:04Z</time>
      </trkpt>
      <trkpt lat="42.8751" lon="0.27137">
        <ele>2754.4</ele>
        <time>2022-02-12T12:01:06Z</time>
      </trkpt>
      <trkpt lat="42.87508" lon="0.27139">
        <ele>2754.6</ele>
        <time>2022-02-12T12:01:09Z</time>
      </trkpt>
      <trkpt lat="42.87506" lon="0.27141">
        <ele>2755.4</ele>
        <time>2022-02-12T12:01:13Z</time>
      </trkpt>
      <trkpt lat="42.87505" lon="0.27143">
        <ele>2756.2</ele>
        <time>2022-02-12T12:01:16Z</time>
      </trkpt>
      <trkpt lat="42.87505" lon="0.27144">
        <ele>2756.4</ele>
        <time>2022-02-12T12:01:17Z</time>
      </trkpt>
      <trkpt lat="42.87505" lon="0.27145">
        <ele>2756.6</ele>
        <time>2022-02-12T12:01:18Z</time>
      </trkpt>
      <trkpt lat="42.87503" lon="0.27147">
        <ele>2757.6</ele>
        <time>2022-02-12T12:01:21Z</time>
      </trkpt>
      <trkpt lat="42.87503" lon="0.27148">
        <ele>2757.8</ele>
        <time>2022-02-12T12:01:22Z</time>
      </trkpt>
      <trkpt lat="42.87503" lon="0.27149">
        <ele>2758</ele>
        <time>2022-02-12T12:01:23Z</time>
      </trkpt>
      <trkpt lat="42.87502" lon="0.27151">
        <ele>2758.4</ele>
        <time>2022-02-12T12:01:26Z</time>
      </trkpt>
      <trkpt lat="42.87501" lon="0.27154">
        <ele>2758.8</ele>
        <time>2022-02-12T12:01:29Z</time>
      </trkpt>
      <trkpt lat="42.87501" lon="0.27155">
        <ele>2759</ele>
        <time>2022-02-12T12:01:30Z</time>
      </trkpt>
      <trkpt lat="42.875" lon="0.27159">
        <ele>2759.6</ele>
        <time>2022-02-12T12:01:34Z</time>
      </trkpt>
      <trkpt lat="42.87499" lon="0.2716">
        <ele>2759.6</ele>
        <time>2022-02-12T12:01:36Z</time>
      </trkpt>
      <trkpt lat="42.87499" lon="0.27162">
        <ele>2760.2</ele>
        <time>2022-02-12T12:01:38Z</time>
      </trkpt>
      <trkpt lat="42.87499" lon="0.27163">
        <ele>2760.4</ele>
        <time>2022-02-12T12:01:39Z</time>
      </trkpt>
      <trkpt lat="42.87499" lon="0.27163">
        <ele>2760.8</ele>
        <time>2022-02-12T12:01:40Z</time>
      </trkpt>
      <trkpt lat="42.87498" lon="0.27165">
        <ele>2761.4</ele>
        <time>2022-02-12T12:01:44Z</time>
      </trkpt>
      <trkpt lat="42.87498" lon="0.27165">
        <ele>2761.2</ele>
        <time>2022-02-12T12:01:59Z</time>
      </trkpt>
      <trkpt lat="42.87498" lon="0.27165">
        <ele>2761.8</ele>
        <time>2022-02-12T12:02:08Z</time>
      </trkpt>
      <trkpt lat="42.87498" lon="0.27165">
        <ele>2761.6</ele>
        <time>2022-02-12T12:02:16Z</time>
      </trkpt>
      <trkpt lat="42.87498" lon="0.27165">
        <ele>2761</ele>
        <time>2022-02-12T12:02:22Z</time>
      </trkpt>
      <trkpt lat="42.87498" lon="0.27166">
        <ele>2760.6</ele>
        <time>2022-02-12T12:02:26Z</time>
      </trkpt>
      <trkpt lat="42.87498" lon="0.27166">
        <ele>2760.2</ele>
        <time>2022-02-12T12:02:27Z</time>
      </trkpt>
      <trkpt lat="42.87498" lon="0.27168">
        <ele>2760.2</ele>
        <time>2022-02-12T12:02:32Z</time>
      </trkpt>
      <trkpt lat="42.87499" lon="0.27168">
        <ele>2761.4</ele>
        <time>2022-02-12T12:02:37Z</time>
      </trkpt>
      <trkpt lat="42.87501" lon="0.27165">
        <ele>2762.6</ele>
        <time>2022-02-12T12:02:42Z</time>
      </trkpt>
      <trkpt lat="42.87506" lon="0.27162">
        <ele>2763</ele>
        <time>2022-02-12T12:02:49Z</time>
      </trkpt>
      <trkpt lat="42.87508" lon="0.27161">
        <ele>2763.6</ele>
        <time>2022-02-12T12:02:53Z</time>
      </trkpt>
      <trkpt lat="42.87509" lon="0.27161">
        <ele>2764</ele>
        <time>2022-02-12T12:02:54Z</time>
      </trkpt>
      <trkpt lat="42.8751" lon="0.27161">
        <ele>2764.6</ele>
        <time>2022-02-12T12:02:56Z</time>
      </trkpt>
      <trkpt lat="42.87512" lon="0.2716">
        <ele>2765.8</ele>
        <time>2022-02-12T12:02:59Z</time>
      </trkpt>
      <trkpt lat="42.87512" lon="0.2716">
        <ele>2765.8</ele>
        <time>2022-02-12T12:03:00Z</time>
      </trkpt>
      <trkpt lat="42.87514" lon="0.2716">
        <ele>2766.8</ele>
        <time>2022-02-12T12:03:03Z</time>
      </trkpt>
      <trkpt lat="42.87516" lon="0.27159">
        <ele>2767.6</ele>
        <time>2022-02-12T12:03:06Z</time>
      </trkpt>
      <trkpt lat="42.87517" lon="0.27158">
        <ele>2767.8</ele>
        <time>2022-02-12T12:03:09Z</time>
      </trkpt>
      <trkpt lat="42.8752" lon="0.27158">
        <ele>2768.2</ele>
        <time>2022-02-12T12:03:14Z</time>
      </trkpt>
      <trkpt lat="42.87522" lon="0.27157">
        <ele>2768.2</ele>
        <time>2022-02-12T12:03:17Z</time>
      </trkpt>
      <trkpt lat="42.87524" lon="0.27156">
        <ele>2768.8</ele>
        <time>2022-02-12T12:03:21Z</time>
      </trkpt>
      <trkpt lat="42.87524" lon="0.27156">
        <ele>2769</ele>
        <time>2022-02-12T12:03:22Z</time>
      </trkpt>
      <trkpt lat="42.87526" lon="0.27155">
        <ele>2769.8</ele>
        <time>2022-02-12T12:03:26Z</time>
      </trkpt>
      <trkpt lat="42.87527" lon="0.27155">
        <ele>2770.2</ele>
        <time>2022-02-12T12:03:28Z</time>
      </trkpt>
      <trkpt lat="42.87529" lon="0.27154">
        <ele>2770.4</ele>
        <time>2022-02-12T12:03:31Z</time>
      </trkpt>
      <trkpt lat="42.87531" lon="0.27154">
        <ele>2771.2</ele>
        <time>2022-02-12T12:03:35Z</time>
      </trkpt>
      <trkpt lat="42.87533" lon="0.27153">
        <ele>2771.6</ele>
        <time>2022-02-12T12:03:38Z</time>
      </trkpt>
      <trkpt lat="42.87535" lon="0.27152">
        <ele>2772</ele>
        <time>2022-02-12T12:03:43Z</time>
      </trkpt>
      <trkpt lat="42.87536" lon="0.27151">
        <ele>2772.2</ele>
        <time>2022-02-12T12:03:44Z</time>
      </trkpt>
      <trkpt lat="42.87538" lon="0.2715">
        <ele>2773.4</ele>
        <time>2022-02-12T12:03:48Z</time>
      </trkpt>
      <trkpt lat="42.8754" lon="0.27149">
        <ele>2774</ele>
        <time>2022-02-12T12:03:51Z</time>
      </trkpt>
      <trkpt lat="42.87542" lon="0.27148">
        <ele>2774.6</ele>
        <time>2022-02-12T12:03:55Z</time>
      </trkpt>
      <trkpt lat="42.87544" lon="0.27147">
        <ele>2775</ele>
        <time>2022-02-12T12:03:58Z</time>
      </trkpt>
      <trkpt lat="42.87545" lon="0.27147">
        <ele>2775.6</ele>
        <time>2022-02-12T12:04:01Z</time>
      </trkpt>
      <trkpt lat="42.87546" lon="0.27146">
        <ele>2775.8</ele>
        <time>2022-02-12T12:04:03Z</time>
      </trkpt>
      <trkpt lat="42.87549" lon="0.27146">
        <ele>2776.6</ele>
        <time>2022-02-12T12:04:08Z</time>
      </trkpt>
      <trkpt lat="42.87549" lon="0.27146">
        <ele>2776.8</ele>
        <time>2022-02-12T12:04:09Z</time>
      </trkpt>
      <trkpt lat="42.87552" lon="0.27145">
        <ele>2777.6</ele>
        <time>2022-02-12T12:04:14Z</time>
      </trkpt>
      <trkpt lat="42.87554" lon="0.27144">
        <ele>2778</ele>
        <time>2022-02-12T12:04:17Z</time>
      </trkpt>
      <trkpt lat="42.87556" lon="0.27144">
        <ele>2778.8</ele>
        <time>2022-02-12T12:04:20Z</time>
      </trkpt>
      <trkpt lat="42.87558" lon="0.27144">
        <ele>2779.2</ele>
        <time>2022-02-12T12:04:24Z</time>
      </trkpt>
      <trkpt lat="42.87562" lon="0.27143">
        <ele>2780</ele>
        <time>2022-02-12T12:04:32Z</time>
      </trkpt>
      <trkpt lat="42.87563" lon="0.27143">
        <ele>2780.2</ele>
        <time>2022-02-12T12:04:33Z</time>
      </trkpt>
      <trkpt lat="42.87567" lon="0.27142">
        <ele>2780.8</ele>
        <time>2022-02-12T12:04:40Z</time>
      </trkpt>
      <trkpt lat="42.87567" lon="0.27144">
        <ele>2781.2</ele>
        <time>2022-02-12T12:04:44Z</time>
      </trkpt>
      <trkpt lat="42.87566" lon="0.27144">
        <ele>2781.4</ele>
        <time>2022-02-12T12:04:51Z</time>
      </trkpt>
      <trkpt lat="42.87564" lon="0.27148">
        <ele>2781.6</ele>
        <time>2022-02-12T12:04:57Z</time>
      </trkpt>
      <trkpt lat="42.87561" lon="0.2715">
        <ele>2781.8</ele>
        <time>2022-02-12T12:05:02Z</time>
      </trkpt>
      <trkpt lat="42.87558" lon="0.27154">
        <ele>2782</ele>
        <time>2022-02-12T12:05:09Z</time>
      </trkpt>
      <trkpt lat="42.87556" lon="0.27156">
        <ele>2782.4</ele>
        <time>2022-02-12T12:05:13Z</time>
      </trkpt>
      <trkpt lat="42.87555" lon="0.27158">
        <ele>2782.6</ele>
        <time>2022-02-12T12:05:16Z</time>
      </trkpt>
      <trkpt lat="42.87553" lon="0.27161">
        <ele>2783.2</ele>
        <time>2022-02-12T12:05:22Z</time>
      </trkpt>
      <trkpt lat="42.87552" lon="0.27162">
        <ele>2783.4</ele>
        <time>2022-02-12T12:05:24Z</time>
      </trkpt>
      <trkpt lat="42.87551" lon="0.27163">
        <ele>2783.8</ele>
        <time>2022-02-12T12:05:27Z</time>
      </trkpt>
      <trkpt lat="42.87549" lon="0.27166">
        <ele>2784.4</ele>
        <time>2022-02-12T12:05:31Z</time>
      </trkpt>
      <trkpt lat="42.87549" lon="0.27166">
        <ele>2784.6</ele>
        <time>2022-02-12T12:05:32Z</time>
      </trkpt>
      <trkpt lat="42.87548" lon="0.2717">
        <ele>2785.4</ele>
        <time>2022-02-12T12:05:38Z</time>
      </trkpt>
      <trkpt lat="42.87548" lon="0.2717">
        <ele>2785.6</ele>
        <time>2022-02-12T12:05:39Z</time>
      </trkpt>
      <trkpt lat="42.87545" lon="0.27174">
        <ele>2785.8</ele>
        <time>2022-02-12T12:05:45Z</time>
      </trkpt>
      <trkpt lat="42.87543" lon="0.27177">
        <ele>2786.6</ele>
        <time>2022-02-12T12:05:51Z</time>
      </trkpt>
      <trkpt lat="42.87542" lon="0.27178">
        <ele>2786.6</ele>
        <time>2022-02-12T12:05:52Z</time>
      </trkpt>
      <trkpt lat="42.8754" lon="0.27182">
        <ele>2787.2</ele>
        <time>2022-02-12T12:05:59Z</time>
      </trkpt>
      <trkpt lat="42.87539" lon="0.27185">
        <ele>2787.6</ele>
        <time>2022-02-12T12:06:03Z</time>
      </trkpt>
      <trkpt lat="42.87539" lon="0.27186">
        <ele>2788</ele>
        <time>2022-02-12T12:06:05Z</time>
      </trkpt>
      <trkpt lat="42.87539" lon="0.27189">
        <ele>2788.8</ele>
        <time>2022-02-12T12:06:09Z</time>
      </trkpt>
      <trkpt lat="42.87538" lon="0.2719">
        <ele>2789</ele>
        <time>2022-02-12T12:06:11Z</time>
      </trkpt>
      <trkpt lat="42.87536" lon="0.27194">
        <ele>2789.8</ele>
        <time>2022-02-12T12:06:17Z</time>
      </trkpt>
      <trkpt lat="42.87536" lon="0.27195">
        <ele>2790</ele>
        <time>2022-02-12T12:06:19Z</time>
      </trkpt>
      <trkpt lat="42.87535" lon="0.27199">
        <ele>2790.8</ele>
        <time>2022-02-12T12:06:24Z</time>
      </trkpt>
      <trkpt lat="42.87535" lon="0.27199">
        <ele>2790.8</ele>
        <time>2022-02-12T12:06:25Z</time>
      </trkpt>
      <trkpt lat="42.87534" lon="0.27203">
        <ele>2791.2</ele>
        <time>2022-02-12T12:06:30Z</time>
      </trkpt>
      <trkpt lat="42.87533" lon="0.27207">
        <ele>2791.8</ele>
        <time>2022-02-12T12:06:36Z</time>
      </trkpt>
      <trkpt lat="42.87532" lon="0.2721">
        <ele>2792.8</ele>
        <time>2022-02-12T12:06:42Z</time>
      </trkpt>
      <trkpt lat="42.87532" lon="0.2721">
        <ele>2793</ele>
        <time>2022-02-12T12:06:43Z</time>
      </trkpt>
      <trkpt lat="42.87533" lon="0.2721">
        <ele>2793</ele>
        <time>2022-02-12T12:06:48Z</time>
      </trkpt>
      <trkpt lat="42.87534" lon="0.27208">
        <ele>2794.2</ele>
        <time>2022-02-12T12:06:52Z</time>
      </trkpt>
      <trkpt lat="42.87535" lon="0.27208">
        <ele>2794.6</ele>
        <time>2022-02-12T12:06:54Z</time>
      </trkpt>
      <trkpt lat="42.87537" lon="0.27207">
        <ele>2795.2</ele>
        <time>2022-02-12T12:06:58Z</time>
      </trkpt>
      <trkpt lat="42.87537" lon="0.27206">
        <ele>2795.4</ele>
        <time>2022-02-12T12:06:59Z</time>
      </trkpt>
      <trkpt lat="42.8754" lon="0.27205">
        <ele>2796.4</ele>
        <time>2022-02-12T12:07:05Z</time>
      </trkpt>
      <trkpt lat="42.87541" lon="0.27204">
        <ele>2796.6</ele>
        <time>2022-02-12T12:07:07Z</time>
      </trkpt>
      <trkpt lat="42.87543" lon="0.27204">
        <ele>2797.6</ele>
        <time>2022-02-12T12:07:11Z</time>
      </trkpt>
      <trkpt lat="42.87544" lon="0.27203">
        <ele>2797.8</ele>
        <time>2022-02-12T12:07:12Z</time>
      </trkpt>
      <trkpt lat="42.87547" lon="0.27202">
        <ele>2798.4</ele>
        <time>2022-02-12T12:07:18Z</time>
      </trkpt>
      <trkpt lat="42.87548" lon="0.27202">
        <ele>2798.8</ele>
        <time>2022-02-12T12:07:20Z</time>
      </trkpt>
      <trkpt lat="42.87549" lon="0.27202">
        <ele>2799.4</ele>
        <time>2022-02-12T12:07:23Z</time>
      </trkpt>
      <trkpt lat="42.87551" lon="0.27201">
        <ele>2799.6</ele>
        <time>2022-02-12T12:07:26Z</time>
      </trkpt>
      <trkpt lat="42.87551" lon="0.27201">
        <ele>2799.8</ele>
        <time>2022-02-12T12:07:27Z</time>
      </trkpt>
      <trkpt lat="42.87552" lon="0.27201">
        <ele>2800</ele>
        <time>2022-02-12T12:07:28Z</time>
      </trkpt>
      <trkpt lat="42.87553" lon="0.27201">
        <ele>2800.4</ele>
        <time>2022-02-12T12:07:30Z</time>
      </trkpt>
      <trkpt lat="42.87554" lon="0.272">
        <ele>2800.8</ele>
        <time>2022-02-12T12:07:33Z</time>
      </trkpt>
      <trkpt lat="42.87556" lon="0.272">
        <ele>2801.4</ele>
        <time>2022-02-12T12:07:38Z</time>
      </trkpt>
      <trkpt lat="42.87558" lon="0.27199">
        <ele>2802</ele>
        <time>2022-02-12T12:07:42Z</time>
      </trkpt>
      <trkpt lat="42.87559" lon="0.27198">
        <ele>2802.2</ele>
        <time>2022-02-12T12:07:44Z</time>
      </trkpt>
      <trkpt lat="42.87561" lon="0.27198">
        <ele>2803</ele>
        <time>2022-02-12T12:07:47Z</time>
      </trkpt>
      <trkpt lat="42.87562" lon="0.27198">
        <ele>2803.6</ele>
        <time>2022-02-12T12:07:49Z</time>
      </trkpt>
      <trkpt lat="42.87564" lon="0.27197">
        <ele>2804</ele>
        <time>2022-02-12T12:07:54Z</time>
      </trkpt>
      <trkpt lat="42.87565" lon="0.27197">
        <ele>2804</ele>
        <time>2022-02-12T12:07:55Z</time>
      </trkpt>
      <trkpt lat="42.87568" lon="0.27196">
        <ele>2804.4</ele>
        <time>2022-02-12T12:07:59Z</time>
      </trkpt>
      <trkpt lat="42.87569" lon="0.27196">
        <ele>2804.6</ele>
        <time>2022-02-12T12:08:01Z</time>
      </trkpt>
      <trkpt lat="42.87573" lon="0.27196">
        <ele>2804.8</ele>
        <time>2022-02-12T12:08:08Z</time>
      </trkpt>
      <trkpt lat="42.87577" lon="0.27196">
        <ele>2804.8</ele>
        <time>2022-02-12T12:08:14Z</time>
      </trkpt>
      <trkpt lat="42.87579" lon="0.27197">
        <ele>2805.2</ele>
        <time>2022-02-12T12:08:18Z</time>
      </trkpt>
      <trkpt lat="42.87579" lon="0.27197">
        <ele>2805.2</ele>
        <time>2022-02-12T12:08:19Z</time>
      </trkpt>
      <trkpt lat="42.87579" lon="0.27198">
        <ele>2805.2</ele>
        <time>2022-02-12T12:08:23Z</time>
      </trkpt>
      <trkpt lat="42.87575" lon="0.27202">
        <ele>2805.4</ele>
        <time>2022-02-12T12:08:30Z</time>
      </trkpt>
      <trkpt lat="42.87571" lon="0.27204">
        <ele>2806</ele>
        <time>2022-02-12T12:08:37Z</time>
      </trkpt>
      <trkpt lat="42.87571" lon="0.27205">
        <ele>2806.2</ele>
        <time>2022-02-12T12:08:39Z</time>
      </trkpt>
      <trkpt lat="42.87569" lon="0.27206">
        <ele>2806.6</ele>
        <time>2022-02-12T12:08:42Z</time>
      </trkpt>
      <trkpt lat="42.87568" lon="0.27207">
        <ele>2807.4</ele>
        <time>2022-02-12T12:08:45Z</time>
      </trkpt>
      <trkpt lat="42.87567" lon="0.27209">
        <ele>2807.8</ele>
        <time>2022-02-12T12:08:48Z</time>
      </trkpt>
      <trkpt lat="42.87565" lon="0.27213">
        <ele>2808.2</ele>
        <time>2022-02-12T12:08:53Z</time>
      </trkpt>
      <trkpt lat="42.87565" lon="0.27214">
        <ele>2808.6</ele>
        <time>2022-02-12T12:08:55Z</time>
      </trkpt>
      <trkpt lat="42.87564" lon="0.27216">
        <ele>2809</ele>
        <time>2022-02-12T12:08:58Z</time>
      </trkpt>
      <trkpt lat="42.87563" lon="0.27221">
        <ele>2809.8</ele>
        <time>2022-02-12T12:09:03Z</time>
      </trkpt>
      <trkpt lat="42.87562" lon="0.27224">
        <ele>2810.2</ele>
        <time>2022-02-12T12:09:07Z</time>
      </trkpt>
      <trkpt lat="42.87562" lon="0.27224">
        <ele>2810.2</ele>
        <time>2022-02-12T12:09:08Z</time>
      </trkpt>
      <trkpt lat="42.87561" lon="0.27225">
        <ele>2810.2</ele>
        <time>2022-02-12T12:09:09Z</time>
      </trkpt>
      <trkpt lat="42.87561" lon="0.27227">
        <ele>2810.4</ele>
        <time>2022-02-12T12:09:11Z</time>
      </trkpt>
      <trkpt lat="42.8756" lon="0.27228">
        <ele>2810.4</ele>
        <time>2022-02-12T12:09:13Z</time>
      </trkpt>
      <trkpt lat="42.87559" lon="0.2723">
        <ele>2810.8</ele>
        <time>2022-02-12T12:09:16Z</time>
      </trkpt>
      <trkpt lat="42.87559" lon="0.27232">
        <ele>2811.2</ele>
        <time>2022-02-12T12:09:18Z</time>
      </trkpt>
      <trkpt lat="42.87559" lon="0.27236">
        <ele>2811.6</ele>
        <time>2022-02-12T12:09:24Z</time>
      </trkpt>
      <trkpt lat="42.87558" lon="0.27238">
        <ele>2811.8</ele>
        <time>2022-02-12T12:09:27Z</time>
      </trkpt>
      <trkpt lat="42.87558" lon="0.27241">
        <ele>2812.2</ele>
        <time>2022-02-12T12:09:31Z</time>
      </trkpt>
      <trkpt lat="42.87558" lon="0.27244">
        <ele>2812.6</ele>
        <time>2022-02-12T12:09:37Z</time>
      </trkpt>
      <trkpt lat="42.87558" lon="0.27243">
        <ele>2812.6</ele>
        <time>2022-02-12T12:09:38Z</time>
      </trkpt>
      <trkpt lat="42.87558" lon="0.27243">
        <ele>2813.2</ele>
        <time>2022-02-12T12:09:41Z</time>
      </trkpt>
      <trkpt lat="42.87559" lon="0.27242">
        <ele>2813.8</ele>
        <time>2022-02-12T12:09:43Z</time>
      </trkpt>
      <trkpt lat="42.8756" lon="0.27241">
        <ele>2814.2</ele>
        <time>2022-02-12T12:09:45Z</time>
      </trkpt>
      <trkpt lat="42.87561" lon="0.2724">
        <ele>2814.8</ele>
        <time>2022-02-12T12:09:48Z</time>
      </trkpt>
      <trkpt lat="42.87564" lon="0.27238">
        <ele>2815.4</ele>
        <time>2022-02-12T12:09:53Z</time>
      </trkpt>
      <trkpt lat="42.87567" lon="0.27237">
        <ele>2816.2</ele>
        <time>2022-02-12T12:09:58Z</time>
      </trkpt>
      <trkpt lat="42.87568" lon="0.27236">
        <ele>2816.8</ele>
        <time>2022-02-12T12:10:00Z</time>
      </trkpt>
      <trkpt lat="42.8757" lon="0.27235">
        <ele>2816.8</ele>
        <time>2022-02-12T12:10:04Z</time>
      </trkpt>
      <trkpt lat="42.87573" lon="0.27234">
        <ele>2817.4</ele>
        <time>2022-02-12T12:10:09Z</time>
      </trkpt>
      <trkpt lat="42.87574" lon="0.27233">
        <ele>2818</ele>
        <time>2022-02-12T12:10:11Z</time>
      </trkpt>
      <trkpt lat="42.87576" lon="0.27232">
        <ele>2818.4</ele>
        <time>2022-02-12T12:10:15Z</time>
      </trkpt>
      <trkpt lat="42.87578" lon="0.27232">
        <ele>2819</ele>
        <time>2022-02-12T12:10:20Z</time>
      </trkpt>
      <trkpt lat="42.87579" lon="0.27232">
        <ele>2819.2</ele>
        <time>2022-02-12T12:10:22Z</time>
      </trkpt>
      <trkpt lat="42.87579" lon="0.27232">
        <ele>2820.4</ele>
        <time>2022-02-12T12:10:35Z</time>
      </trkpt>
      <trkpt lat="42.87579" lon="0.27232">
        <ele>2820.6</ele>
        <time>2022-02-12T12:10:36Z</time>
      </trkpt>
      <trkpt lat="42.87579" lon="0.27232">
        <ele>2820</ele>
        <time>2022-02-12T12:10:44Z</time>
      </trkpt>
      <trkpt lat="42.87579" lon="0.27232">
        <ele>2819.2</ele>
        <time>2022-02-12T12:10:52Z</time>
      </trkpt>
      <trkpt lat="42.87579" lon="0.27232">
        <ele>2819</ele>
        <time>2022-02-12T12:10:59Z</time>
      </trkpt>
      <trkpt lat="42.87579" lon="0.27232">
        <ele>2818.6</ele>
        <time>2022-02-12T12:11:05Z</time>
      </trkpt>
      <trkpt lat="42.87579" lon="0.27232">
        <ele>2818.2</ele>
        <time>2022-02-12T12:11:07Z</time>
      </trkpt>
      <trkpt lat="42.87579" lon="0.27232">
        <ele>2817.4</ele>
        <time>2022-02-12T12:11:15Z</time>
      </trkpt>
      <trkpt lat="42.87579" lon="0.27232">
        <ele>2817.2</ele>
        <time>2022-02-12T12:11:17Z</time>
      </trkpt>
      <trkpt lat="42.87579" lon="0.27232">
        <ele>2816.8</ele>
        <time>2022-02-12T12:11:22Z</time>
      </trkpt>
      <trkpt lat="42.87579" lon="0.27232">
        <ele>2816.4</ele>
        <time>2022-02-12T12:11:28Z</time>
      </trkpt>
      <trkpt lat="42.87579" lon="0.27232">
        <ele>2816.4</ele>
        <time>2022-02-12T12:11:30Z</time>
      </trkpt>
      <trkpt lat="42.87579" lon="0.27232">
        <ele>2816</ele>
        <time>2022-02-12T12:11:35Z</time>
      </trkpt>
      <trkpt lat="42.87579" lon="0.27232">
        <ele>2816</ele>
        <time>2022-02-12T12:11:37Z</time>
      </trkpt>
      <trkpt lat="42.87579" lon="0.27232">
        <ele>2815.8</ele>
        <time>2022-02-12T12:11:47Z</time>
      </trkpt>
      <trkpt lat="42.87579" lon="0.27232">
        <ele>2816</ele>
        <time>2022-02-12T12:11:58Z</time>
      </trkpt>
      <trkpt lat="42.87579" lon="0.27232">
        <ele>2815.2</ele>
        <time>2022-02-12T12:12:14Z</time>
      </trkpt>
      <trkpt lat="42.87579" lon="0.27231">
        <ele>2815</ele>
        <time>2022-02-12T12:12:17Z</time>
      </trkpt>
      <trkpt lat="42.87579" lon="0.27231">
        <ele>2814.6</ele>
        <time>2022-02-12T12:12:32Z</time>
      </trkpt>
      <trkpt lat="42.87579" lon="0.27231">
        <ele>2814</ele>
        <time>2022-02-12T12:12:49Z</time>
      </trkpt>
      <trkpt lat="42.87579" lon="0.27231">
        <ele>2814</ele>
        <time>2022-02-12T12:12:50Z</time>
      </trkpt>
      <trkpt lat="42.87579" lon="0.27231">
        <ele>2813.6</ele>
        <time>2022-02-12T12:13:08Z</time>
      </trkpt>
      <trkpt lat="42.87579" lon="0.27231">
        <ele>2813.4</ele>
        <time>2022-02-12T12:13:21Z</time>
      </trkpt>
      <trkpt lat="42.87579" lon="0.27231">
        <ele>2813.4</ele>
        <time>2022-02-12T12:13:25Z</time>
      </trkpt>
      <trkpt lat="42.87579" lon="0.27231">
        <ele>2813.6</ele>
        <time>2022-02-12T12:13:30Z</time>
      </trkpt>
      <trkpt lat="42.87579" lon="0.27231">
        <ele>2813.4</ele>
        <time>2022-02-12T12:13:41Z</time>
      </trkpt>
      <trkpt lat="42.87579" lon="0.27231">
        <ele>2813.6</ele>
        <time>2022-02-12T12:13:44Z</time>
      </trkpt>
      <trkpt lat="42.87579" lon="0.2723">
        <ele>2813.2</ele>
        <time>2022-02-12T12:14:06Z</time>
      </trkpt>
      <trkpt lat="42.87579" lon="0.2723">
        <ele>2813</ele>
        <time>2022-02-12T12:14:11Z</time>
      </trkpt>
      <trkpt lat="42.87579" lon="0.2723">
        <ele>2813.2</ele>
        <time>2022-02-12T12:14:26Z</time>
      </trkpt>
      <trkpt lat="42.87581" lon="0.2723">
        <ele>2812.8</ele>
        <time>2022-02-12T12:14:35Z</time>
      </trkpt>
      <trkpt lat="42.87581" lon="0.2723">
        <ele>2813.4</ele>
        <time>2022-02-12T12:14:38Z</time>
      </trkpt>
      <trkpt lat="42.87581" lon="0.27231">
        <ele>2813.4</ele>
        <time>2022-02-12T12:14:40Z</time>
      </trkpt>
      <trkpt lat="42.87581" lon="0.27234">
        <ele>2813.6</ele>
        <time>2022-02-12T12:14:45Z</time>
      </trkpt>
      <trkpt lat="42.8758" lon="0.27236">
        <ele>2813.8</ele>
        <time>2022-02-12T12:14:48Z</time>
      </trkpt>
      <trkpt lat="42.87579" lon="0.27237">
        <ele>2814</ele>
        <time>2022-02-12T12:14:50Z</time>
      </trkpt>
      <trkpt lat="42.87578" lon="0.27238">
        <ele>2814.4</ele>
        <time>2022-02-12T12:14:52Z</time>
      </trkpt>
      <trkpt lat="42.87578" lon="0.27239">
        <ele>2815.2</ele>
        <time>2022-02-12T12:14:55Z</time>
      </trkpt>
      <trkpt lat="42.87578" lon="0.2724">
        <ele>2815.8</ele>
        <time>2022-02-12T12:14:58Z</time>
      </trkpt>
      <trkpt lat="42.87578" lon="0.2724">
        <ele>2816</ele>
        <time>2022-02-12T12:15:01Z</time>
      </trkpt>
      <trkpt lat="42.87578" lon="0.2724">
        <ele>2816.2</ele>
        <time>2022-02-12T12:15:03Z</time>
      </trkpt>
      <trkpt lat="42.87578" lon="0.27241">
        <ele>2816.6</ele>
        <time>2022-02-12T12:15:08Z</time>
      </trkpt>
      <trkpt lat="42.87578" lon="0.27241">
        <ele>2817.4</ele>
        <time>2022-02-12T12:15:12Z</time>
      </trkpt>
      <trkpt lat="42.87578" lon="0.27242">
        <ele>2817.8</ele>
        <time>2022-02-12T12:15:19Z</time>
      </trkpt>
      <trkpt lat="42.87578" lon="0.27241">
        <ele>2818.4</ele>
        <time>2022-02-12T12:15:22Z</time>
      </trkpt>
      <trkpt lat="42.87578" lon="0.27241">
        <ele>2818.6</ele>
        <time>2022-02-12T12:15:25Z</time>
      </trkpt>
      <trkpt lat="42.87579" lon="0.27241">
        <ele>2819.2</ele>
        <time>2022-02-12T12:15:35Z</time>
      </trkpt>
      <trkpt lat="42.87579" lon="0.27241">
        <ele>2819.2</ele>
        <time>2022-02-12T12:15:36Z</time>
      </trkpt>
      <trkpt lat="42.87579" lon="0.27242">
        <ele>2819.6</ele>
        <time>2022-02-12T12:15:41Z</time>
      </trkpt>
      <trkpt lat="42.87579" lon="0.27241">
        <ele>2819.6</ele>
        <time>2022-02-12T12:15:43Z</time>
      </trkpt>
      <trkpt lat="42.87579" lon="0.27242">
        <ele>2820.2</ele>
        <time>2022-02-12T12:15:46Z</time>
      </trkpt>
      <trkpt lat="42.87579" lon="0.27242">
        <ele>2819.8</ele>
        <time>2022-02-12T12:15:52Z</time>
      </trkpt>
      <trkpt lat="42.87579" lon="0.27242">
        <ele>2819.8</ele>
        <time>2022-02-12T12:15:57Z</time>
      </trkpt>
      <trkpt lat="42.87579" lon="0.27243">
        <ele>2819.6</ele>
        <time>2022-02-12T12:16:02Z</time>
      </trkpt>
      <trkpt lat="42.87579" lon="0.27243">
        <ele>2820.2</ele>
        <time>2022-02-12T12:16:09Z</time>
      </trkpt>
      <trkpt lat="42.87579" lon="0.27243">
        <ele>2820.4</ele>
        <time>2022-02-12T12:16:25Z</time>
      </trkpt>
      <trkpt lat="42.87579" lon="0.27243">
        <ele>2820.4</ele>
        <time>2022-02-12T12:16:26Z</time>
      </trkpt>
      <trkpt lat="42.87579" lon="0.27243">
        <ele>2820.6</ele>
        <time>2022-02-12T12:16:35Z</time>
      </trkpt>
      <trkpt lat="42.87579" lon="0.27243">
        <ele>2820.6</ele>
        <time>2022-02-12T12:16:36Z</time>
      </trkpt>
      <trkpt lat="42.87579" lon="0.27243">
        <ele>2820.6</ele>
        <time>2022-02-12T12:16:38Z</time>
      </trkpt>
      <trkpt lat="42.87579" lon="0.27243">
        <ele>2820.4</ele>
        <time>2022-02-12T12:16:45Z</time>
      </trkpt>
      <trkpt lat="42.87579" lon="0.27244">
        <ele>2820.4</ele>
        <time>2022-02-12T12:16:53Z</time>
      </trkpt>
      <trkpt lat="42.87579" lon="0.27244">
        <ele>2819.2</ele>
        <time>2022-02-12T12:17:07Z</time>
      </trkpt>
      <trkpt lat="42.87579" lon="0.27244">
        <ele>2818.2</ele>
        <time>2022-02-12T12:17:12Z</time>
      </trkpt>
      <trkpt lat="42.87579" lon="0.27243">
        <ele>2819</ele>
        <time>2022-02-12T12:17:15Z</time>
      </trkpt>
      <trkpt lat="42.8758" lon="0.27242">
        <ele>2819.2</ele>
        <time>2022-02-12T12:17:17Z</time>
      </trkpt>
      <trkpt lat="42.8758" lon="0.27243">
        <ele>2819.2</ele>
        <time>2022-02-12T12:17:19Z</time>
      </trkpt>
      <trkpt lat="42.8758" lon="0.27242">
        <ele>2819.2</ele>
        <time>2022-02-12T12:17:27Z</time>
      </trkpt>
      <trkpt lat="42.8758" lon="0.2724">
        <ele>2818.6</ele>
        <time>2022-02-12T12:17:32Z</time>
      </trkpt>
      <trkpt lat="42.87581" lon="0.27239">
        <ele>2818.6</ele>
        <time>2022-02-12T12:17:35Z</time>
      </trkpt>
      <trkpt lat="42.87581" lon="0.27239">
        <ele>2818.8</ele>
        <time>2022-02-12T12:17:38Z</time>
      </trkpt>
      <trkpt lat="42.87581" lon="0.27239">
        <ele>2818.8</ele>
        <time>2022-02-12T12:17:41Z</time>
      </trkpt>
      <trkpt lat="42.87581" lon="0.27239">
        <ele>2818.8</ele>
        <time>2022-02-12T12:17:45Z</time>
      </trkpt>
      <trkpt lat="42.87581" lon="0.27239">
        <ele>2819</ele>
        <time>2022-02-12T12:17:50Z</time>
      </trkpt>
      <trkpt lat="42.8758" lon="0.27238">
        <ele>2819</ele>
        <time>2022-02-12T12:17:53Z</time>
      </trkpt>
      <trkpt lat="42.8758" lon="0.27239">
        <ele>2818.6</ele>
        <time>2022-02-12T12:17:58Z</time>
      </trkpt>
      <trkpt lat="42.8758" lon="0.27238">
        <ele>2819</ele>
        <time>2022-02-12T12:18:03Z</time>
      </trkpt>
      <trkpt lat="42.87579" lon="0.27238">
        <ele>2819</ele>
        <time>2022-02-12T12:18:05Z</time>
      </trkpt>
      <trkpt lat="42.87578" lon="0.27239">
        <ele>2819.2</ele>
        <time>2022-02-12T12:18:08Z</time>
      </trkpt>
      <trkpt lat="42.87578" lon="0.27239">
        <ele>2819.2</ele>
        <time>2022-02-12T12:18:13Z</time>
      </trkpt>
      <trkpt lat="42.87578" lon="0.27239">
        <ele>2818.4</ele>
        <time>2022-02-12T12:18:20Z</time>
      </trkpt>
      <trkpt lat="42.87578" lon="0.27238">
        <ele>2818.2</ele>
        <time>2022-02-12T12:18:21Z</time>
      </trkpt>
      <trkpt lat="42.8758" lon="0.27237">
        <ele>2818.6</ele>
        <time>2022-02-12T12:18:27Z</time>
      </trkpt>
      <trkpt lat="42.8758" lon="0.27238">
        <ele>2819</ele>
        <time>2022-02-12T12:18:33Z</time>
      </trkpt>
      <trkpt lat="42.8758" lon="0.27238">
        <ele>2818.8</ele>
        <time>2022-02-12T12:18:35Z</time>
      </trkpt>
      <trkpt lat="42.8758" lon="0.27238">
        <ele>2818.4</ele>
        <time>2022-02-12T12:18:41Z</time>
      </trkpt>
      <trkpt lat="42.8758" lon="0.27237">
        <ele>2818</ele>
        <time>2022-02-12T12:18:47Z</time>
      </trkpt>
      <trkpt lat="42.8758" lon="0.27238">
        <ele>2817.8</ele>
        <time>2022-02-12T12:18:55Z</time>
      </trkpt>
      <trkpt lat="42.87579" lon="0.27238">
        <ele>2817.8</ele>
        <time>2022-02-12T12:19:01Z</time>
      </trkpt>
      <trkpt lat="42.87579" lon="0.27238">
        <ele>2817.8</ele>
        <time>2022-02-12T12:19:02Z</time>
      </trkpt>
      <trkpt lat="42.87579" lon="0.27239">
        <ele>2817.2</ele>
        <time>2022-02-12T12:19:07Z</time>
      </trkpt>
      <trkpt lat="42.87579" lon="0.27239">
        <ele>2816.6</ele>
        <time>2022-02-12T12:19:10Z</time>
      </trkpt>
      <trkpt lat="42.87579" lon="0.27239">
        <ele>2816.6</ele>
        <time>2022-02-12T12:19:13Z</time>
      </trkpt>
      <trkpt lat="42.87579" lon="0.27239">
        <ele>2816.6</ele>
        <time>2022-02-12T12:19:21Z</time>
      </trkpt>
      <trkpt lat="42.87579" lon="0.27239">
        <ele>2816.6</ele>
        <time>2022-02-12T12:19:23Z</time>
      </trkpt>
      <trkpt lat="42.87579" lon="0.27239">
        <ele>2816.8</ele>
        <time>2022-02-12T12:19:26Z</time>
      </trkpt>
      <trkpt lat="42.87579" lon="0.27239">
        <ele>2816.6</ele>
        <time>2022-02-12T12:19:27Z</time>
      </trkpt>
      <trkpt lat="42.87579" lon="0.27239">
        <ele>2816.4</ele>
        <time>2022-02-12T12:19:32Z</time>
      </trkpt>
      <trkpt lat="42.87579" lon="0.27239">
        <ele>2816.2</ele>
        <time>2022-02-12T12:19:41Z</time>
      </trkpt>
      <trkpt lat="42.87579" lon="0.27238">
        <ele>2816.2</ele>
        <time>2022-02-12T12:19:42Z</time>
      </trkpt>
      <trkpt lat="42.87579" lon="0.27238">
        <ele>2816</ele>
        <time>2022-02-12T12:19:44Z</time>
      </trkpt>
      <trkpt lat="42.87579" lon="0.27238">
        <ele>2815.8</ele>
        <time>2022-02-12T12:19:51Z</time>
      </trkpt>
      <trkpt lat="42.87579" lon="0.27238">
        <ele>2815.6</ele>
        <time>2022-02-12T12:19:56Z</time>
      </trkpt>
      <trkpt lat="42.87579" lon="0.27238">
        <ele>2816</ele>
        <time>2022-02-12T12:20:06Z</time>
      </trkpt>
      <trkpt lat="42.8758" lon="0.27239">
        <ele>2809.6</ele>
        <time>2022-02-12T12:20:12Z</time>
      </trkpt>
      <trkpt lat="42.8758" lon="0.27238">
        <ele>2809.6</ele>
        <time>2022-02-12T12:20:13Z</time>
      </trkpt>
      <trkpt lat="42.8758" lon="0.27239">
        <ele>2812.6</ele>
        <time>2022-02-12T12:20:16Z</time>
      </trkpt>
      <trkpt lat="42.8758" lon="0.27239">
        <ele>2814.2</ele>
        <time>2022-02-12T12:20:17Z</time>
      </trkpt>
      <trkpt lat="42.8758" lon="0.27239">
        <ele>2815.4</ele>
        <time>2022-02-12T12:20:19Z</time>
      </trkpt>
      <trkpt lat="42.8758" lon="0.27238">
        <ele>2815.8</ele>
        <time>2022-02-12T12:20:28Z</time>
      </trkpt>
      <trkpt lat="42.8758" lon="0.27239">
        <ele>2815.8</ele>
        <time>2022-02-12T12:20:38Z</time>
      </trkpt>
      <trkpt lat="42.8758" lon="0.27239">
        <ele>2815.8</ele>
        <time>2022-02-12T12:20:44Z</time>
      </trkpt>
      <trkpt lat="42.8758" lon="0.2724">
        <ele>2815.8</ele>
        <time>2022-02-12T12:20:48Z</time>
      </trkpt>
      <trkpt lat="42.8758" lon="0.27241">
        <ele>2815.8</ele>
        <time>2022-02-12T12:20:55Z</time>
      </trkpt>
      <trkpt lat="42.8758" lon="0.2724">
        <ele>2815.8</ele>
        <time>2022-02-12T12:21:02Z</time>
      </trkpt>
      <trkpt lat="42.8758" lon="0.27241">
        <ele>2815.8</ele>
        <time>2022-02-12T12:21:10Z</time>
      </trkpt>
      <trkpt lat="42.8758" lon="0.27242">
        <ele>2815.8</ele>
        <time>2022-02-12T12:21:17Z</time>
      </trkpt>
      <trkpt lat="42.8758" lon="0.27244">
        <ele>2815.8</ele>
        <time>2022-02-12T12:21:26Z</time>
      </trkpt>
      <trkpt lat="42.87581" lon="0.27242">
        <ele>2815.8</ele>
        <time>2022-02-12T12:21:33Z</time>
      </trkpt>
      <trkpt lat="42.87581" lon="0.27243">
        <ele>2815.8</ele>
        <time>2022-02-12T12:21:41Z</time>
      </trkpt>
      <trkpt lat="42.87581" lon="0.27243">
        <ele>2815.8</ele>
        <time>2022-02-12T12:21:49Z</time>
      </trkpt>
      <trkpt lat="42.87581" lon="0.27242">
        <ele>2815.8</ele>
        <time>2022-02-12T12:21:57Z</time>
      </trkpt>
      <trkpt lat="42.87581" lon="0.27242">
        <ele>2815.8</ele>
        <time>2022-02-12T12:22:05Z</time>
      </trkpt>
      <trkpt lat="42.87581" lon="0.27241">
        <ele>2815.8</ele>
        <time>2022-02-12T12:22:14Z</time>
      </trkpt>
      <trkpt lat="42.87581" lon="0.27243">
        <ele>2815.8</ele>
        <time>2022-02-12T12:22:21Z</time>
      </trkpt>
      <trkpt lat="42.87581" lon="0.27243">
        <ele>2815.8</ele>
        <time>2022-02-12T12:22:22Z</time>
      </trkpt>
      <trkpt lat="42.87581" lon="0.27242">
        <ele>2815.8</ele>
        <time>2022-02-12T12:22:30Z</time>
      </trkpt>
      <trkpt lat="42.87581" lon="0.2724">
        <ele>2815.8</ele>
        <time>2022-02-12T12:22:35Z</time>
      </trkpt>
      <trkpt lat="42.87581" lon="0.2724">
        <ele>2815.8</ele>
        <time>2022-02-12T12:22:44Z</time>
      </trkpt>
      <trkpt lat="42.87581" lon="0.27241">
        <ele>2815.8</ele>
        <time>2022-02-12T12:22:50Z</time>
      </trkpt>
      <trkpt lat="42.87581" lon="0.27243">
        <ele>2815.8</ele>
        <time>2022-02-12T12:22:54Z</time>
      </trkpt>
      <trkpt lat="42.87581" lon="0.27242">
        <ele>2815.8</ele>
        <time>2022-02-12T12:23:02Z</time>
      </trkpt>
      <trkpt lat="42.87581" lon="0.27242">
        <ele>2815.8</ele>
        <time>2022-02-12T12:23:07Z</time>
      </trkpt>
      <trkpt lat="42.87581" lon="0.27242">
        <ele>2815.8</ele>
        <time>2022-02-12T12:23:11Z</time>
      </trkpt>
      <trkpt lat="42.87581" lon="0.27242">
        <ele>2815.8</ele>
        <time>2022-02-12T12:23:12Z</time>
      </trkpt>
      <trkpt lat="42.8758" lon="0.27241">
        <ele>2815.8</ele>
        <time>2022-02-12T12:23:17Z</time>
      </trkpt>
      <trkpt lat="42.8758" lon="0.27241">
        <ele>2815.8</ele>
        <time>2022-02-12T12:23:20Z</time>
      </trkpt>
      <trkpt lat="42.8758" lon="0.2724">
        <ele>2815.8</ele>
        <time>2022-02-12T12:23:30Z</time>
      </trkpt>
      <trkpt lat="42.8758" lon="0.27239">
        <ele>2815.8</ele>
        <time>2022-02-12T12:23:40Z</time>
      </trkpt>
      <trkpt lat="42.8758" lon="0.27239">
        <ele>2815.8</ele>
        <time>2022-02-12T12:23:48Z</time>
      </trkpt>
      <trkpt lat="42.87581" lon="0.27239">
        <ele>2815.8</ele>
        <time>2022-02-12T12:23:58Z</time>
      </trkpt>
      <trkpt lat="42.87581" lon="0.27239">
        <ele>2815.8</ele>
        <time>2022-02-12T12:24:01Z</time>
      </trkpt>
      <trkpt lat="42.87581" lon="0.27239">
        <ele>2815.8</ele>
        <time>2022-02-12T12:24:02Z</time>
      </trkpt>
      <trkpt lat="42.87581" lon="0.27238">
        <ele>2815.8</ele>
        <time>2022-02-12T12:24:06Z</time>
      </trkpt>
      <trkpt lat="42.8758" lon="0.27239">
        <ele>2815.8</ele>
        <time>2022-02-12T12:24:11Z</time>
      </trkpt>
      <trkpt lat="42.8758" lon="0.2724">
        <ele>2815.8</ele>
        <time>2022-02-12T12:24:13Z</time>
      </trkpt>
      <trkpt lat="42.87581" lon="0.27241">
        <ele>2815.8</ele>
        <time>2022-02-12T12:24:18Z</time>
      </trkpt>
      <trkpt lat="42.87581" lon="0.27241">
        <ele>2815.8</ele>
        <time>2022-02-12T12:24:19Z</time>
      </trkpt>
      <trkpt lat="42.87581" lon="0.27241">
        <ele>2815.8</ele>
        <time>2022-02-12T12:24:21Z</time>
      </trkpt>
      <trkpt lat="42.87581" lon="0.27241">
        <ele>2815.8</ele>
        <time>2022-02-12T12:24:27Z</time>
      </trkpt>
      <trkpt lat="42.87581" lon="0.2724">
        <ele>2815.8</ele>
        <time>2022-02-12T12:24:32Z</time>
      </trkpt>
      <trkpt lat="42.87581" lon="0.27241">
        <ele>2815.8</ele>
        <time>2022-02-12T12:24:43Z</time>
      </trkpt>
      <trkpt lat="42.87582" lon="0.2724">
        <ele>2815.8</ele>
        <time>2022-02-12T12:24:51Z</time>
      </trkpt>
      <trkpt lat="42.87581" lon="0.27239">
        <ele>2815.8</ele>
        <time>2022-02-12T12:24:58Z</time>
      </trkpt>
      <trkpt lat="42.87581" lon="0.27241">
        <ele>2815.8</ele>
        <time>2022-02-12T12:25:03Z</time>
      </trkpt>
      <trkpt lat="42.87581" lon="0.27244">
        <ele>2815.8</ele>
        <time>2022-02-12T12:25:09Z</time>
      </trkpt>
      <trkpt lat="42.87581" lon="0.27247">
        <ele>2821</ele>
        <time>2022-02-12T12:25:17Z</time>
      </trkpt>
      <trkpt lat="42.87582" lon="0.27247">
        <ele>2821</ele>
        <time>2022-02-12T12:25:18Z</time>
      </trkpt>
      <trkpt lat="42.87584" lon="0.27247">
        <ele>2820.8</ele>
        <time>2022-02-12T12:25:24Z</time>
      </trkpt>
      <trkpt lat="42.87585" lon="0.27246">
        <ele>2821.8</ele>
        <time>2022-02-12T12:25:28Z</time>
      </trkpt>
      <trkpt lat="42.87586" lon="0.27246">
        <ele>2822</ele>
        <time>2022-02-12T12:25:30Z</time>
      </trkpt>
      <trkpt lat="42.87587" lon="0.27246">
        <ele>2822</ele>
        <time>2022-02-12T12:25:31Z</time>
      </trkpt>
      <trkpt lat="42.87587" lon="0.27247">
        <ele>2822.8</ele>
        <time>2022-02-12T12:25:33Z</time>
      </trkpt>
      <trkpt lat="42.87588" lon="0.27248">
        <ele>2823</ele>
        <time>2022-02-12T12:25:35Z</time>
      </trkpt>
      <trkpt lat="42.87588" lon="0.27249">
        <ele>2824.2</ele>
        <time>2022-02-12T12:25:41Z</time>
      </trkpt>
      <trkpt lat="42.87589" lon="0.2725">
        <ele>2824.2</ele>
        <time>2022-02-12T12:25:42Z</time>
      </trkpt>
      <trkpt lat="42.87589" lon="0.27251">
        <ele>2824.8</ele>
        <time>2022-02-12T12:25:46Z</time>
      </trkpt>
      <trkpt lat="42.8759" lon="0.27251">
        <ele>2825</ele>
        <time>2022-02-12T12:25:48Z</time>
      </trkpt>
      <trkpt lat="42.8759" lon="0.27251">
        <ele>2825.4</ele>
        <time>2022-02-12T12:25:50Z</time>
      </trkpt>
      <trkpt lat="42.87591" lon="0.27252">
        <ele>2826.4</ele>
        <time>2022-02-12T12:25:55Z</time>
      </trkpt>
      <trkpt lat="42.87593" lon="0.27252">
        <ele>2827.6</ele>
        <time>2022-02-12T12:26:00Z</time>
      </trkpt>
      <trkpt lat="42.87593" lon="0.27253">
        <ele>2828</ele>
        <time>2022-02-12T12:26:02Z</time>
      </trkpt>
      <trkpt lat="42.87593" lon="0.27255">
        <ele>2828.6</ele>
        <time>2022-02-12T12:26:05Z</time>
      </trkpt>
      <trkpt lat="42.87593" lon="0.27256">
        <ele>2829.4</ele>
        <time>2022-02-12T12:26:08Z</time>
      </trkpt>
      <trkpt lat="42.87593" lon="0.27258">
        <ele>2829.6</ele>
        <time>2022-02-12T12:26:10Z</time>
      </trkpt>
      <trkpt lat="42.87593" lon="0.27261">
        <ele>2830.2</ele>
        <time>2022-02-12T12:26:14Z</time>
      </trkpt>
      <trkpt lat="42.87594" lon="0.27265">
        <ele>2830.2</ele>
        <time>2022-02-12T12:26:21Z</time>
      </trkpt>
      <trkpt lat="42.87594" lon="0.27266">
        <ele>2830</ele>
        <time>2022-02-12T12:26:28Z</time>
      </trkpt>
      <trkpt lat="42.87594" lon="0.27266">
        <ele>2829.8</ele>
        <time>2022-02-12T12:26:39Z</time>
      </trkpt>
      <trkpt lat="42.87594" lon="0.27266">
        <ele>2829.6</ele>
        <time>2022-02-12T12:26:43Z</time>
      </trkpt>
      <trkpt lat="42.87594" lon="0.27266">
        <ele>2829.6</ele>
        <time>2022-02-12T12:26:44Z</time>
      </trkpt>
      <trkpt lat="42.87594" lon="0.27266">
        <ele>2829.4</ele>
        <time>2022-02-12T12:26:45Z</time>
      </trkpt>
      <trkpt lat="42.87594" lon="0.27266">
        <ele>2829.4</ele>
        <time>2022-02-12T12:26:50Z</time>
      </trkpt>
      <trkpt lat="42.87594" lon="0.27267">
        <ele>2830.2</ele>
        <time>2022-02-12T12:27:00Z</time>
      </trkpt>
      <trkpt lat="42.87594" lon="0.27268">
        <ele>2830</ele>
        <time>2022-02-12T12:27:07Z</time>
      </trkpt>
      <trkpt lat="42.87594" lon="0.27267">
        <ele>2830</ele>
        <time>2022-02-12T12:27:12Z</time>
      </trkpt>
      <trkpt lat="42.87594" lon="0.27266">
        <ele>2829.4</ele>
        <time>2022-02-12T12:27:17Z</time>
      </trkpt>
      <trkpt lat="42.87594" lon="0.27266">
        <ele>2829</ele>
        <time>2022-02-12T12:27:22Z</time>
      </trkpt>
      <trkpt lat="42.87594" lon="0.27265">
        <ele>2829</ele>
        <time>2022-02-12T12:27:29Z</time>
      </trkpt>
      <trkpt lat="42.87594" lon="0.27265">
        <ele>2829</ele>
        <time>2022-02-12T12:27:39Z</time>
      </trkpt>
      <trkpt lat="42.87594" lon="0.27264">
        <ele>2829.8</ele>
        <time>2022-02-12T12:27:45Z</time>
      </trkpt>
      <trkpt lat="42.87594" lon="0.27264">
        <ele>2830</ele>
        <time>2022-02-12T12:27:47Z</time>
      </trkpt>
      <trkpt lat="42.87595" lon="0.27264">
        <ele>2829.8</ele>
        <time>2022-02-12T12:27:49Z</time>
      </trkpt>
      <trkpt lat="42.87594" lon="0.27263">
        <ele>2829.6</ele>
        <time>2022-02-12T12:27:53Z</time>
      </trkpt>
      <trkpt lat="42.87594" lon="0.27263">
        <ele>2829.6</ele>
        <time>2022-02-12T12:27:55Z</time>
      </trkpt>
      <trkpt lat="42.87594" lon="0.27263">
        <ele>2829.4</ele>
        <time>2022-02-12T12:27:57Z</time>
      </trkpt>
      <trkpt lat="42.87595" lon="0.27264">
        <ele>2829.2</ele>
        <time>2022-02-12T12:28:03Z</time>
      </trkpt>
      <trkpt lat="42.87595" lon="0.27264">
        <ele>2828.6</ele>
        <time>2022-02-12T12:28:06Z</time>
      </trkpt>
      <trkpt lat="42.87594" lon="0.27264">
        <ele>2828.4</ele>
        <time>2022-02-12T12:28:09Z</time>
      </trkpt>
      <trkpt lat="42.87594" lon="0.27263">
        <ele>2828.4</ele>
        <time>2022-02-12T12:28:11Z</time>
      </trkpt>
      <trkpt lat="42.87593" lon="0.27263">
        <ele>2828.4</ele>
        <time>2022-02-12T12:28:19Z</time>
      </trkpt>
      <trkpt lat="42.87593" lon="0.27263">
        <ele>2828.2</ele>
        <time>2022-02-12T12:28:23Z</time>
      </trkpt>
      <trkpt lat="42.87593" lon="0.27263">
        <ele>2828.2</ele>
        <time>2022-02-12T12:28:32Z</time>
      </trkpt>
      <trkpt lat="42.87593" lon="0.27264">
        <ele>2828.4</ele>
        <time>2022-02-12T12:28:39Z</time>
      </trkpt>
      <trkpt lat="42.87593" lon="0.27264">
        <ele>2828</ele>
        <time>2022-02-12T12:28:42Z</time>
      </trkpt>
      <trkpt lat="42.87593" lon="0.27264">
        <ele>2827.8</ele>
        <time>2022-02-12T12:28:49Z</time>
      </trkpt>
      <trkpt lat="42.87593" lon="0.27264">
        <ele>2827.6</ele>
        <time>2022-02-12T12:28:53Z</time>
      </trkpt>
      <trkpt lat="42.87593" lon="0.27264">
        <ele>2827.8</ele>
        <time>2022-02-12T12:28:56Z</time>
      </trkpt>
      <trkpt lat="42.87593" lon="0.27264">
        <ele>2828.2</ele>
        <time>2022-02-12T12:29:03Z</time>
      </trkpt>
      <trkpt lat="42.87593" lon="0.27263">
        <ele>2828.8</ele>
        <time>2022-02-12T12:29:07Z</time>
      </trkpt>
      <trkpt lat="42.87594" lon="0.27263">
        <ele>2829.6</ele>
        <time>2022-02-12T12:29:12Z</time>
      </trkpt>
      <trkpt lat="42.87594" lon="0.27264">
        <ele>2829.8</ele>
        <time>2022-02-12T12:29:19Z</time>
      </trkpt>
      <trkpt lat="42.87594" lon="0.27264">
        <ele>2829.8</ele>
        <time>2022-02-12T12:29:20Z</time>
      </trkpt>
      <trkpt lat="42.87594" lon="0.27264">
        <ele>2829.8</ele>
        <time>2022-02-12T12:29:26Z</time>
      </trkpt>
      <trkpt lat="42.87593" lon="0.27265">
        <ele>2829.6</ele>
        <time>2022-02-12T12:29:36Z</time>
      </trkpt>
      <trkpt lat="42.87593" lon="0.27265">
        <ele>2829.6</ele>
        <time>2022-02-12T12:29:40Z</time>
      </trkpt>
      <trkpt lat="42.87593" lon="0.27265">
        <ele>2829.4</ele>
        <time>2022-02-12T12:29:42Z</time>
      </trkpt>
      <trkpt lat="42.87593" lon="0.27265">
        <ele>2829.2</ele>
        <time>2022-02-12T12:29:43Z</time>
      </trkpt>
      <trkpt lat="42.87594" lon="0.27265">
        <ele>2829.4</ele>
        <time>2022-02-12T12:29:44Z</time>
      </trkpt>
      <trkpt lat="42.87593" lon="0.27265">
        <ele>2829.4</ele>
        <time>2022-02-12T12:29:49Z</time>
      </trkpt>
      <trkpt lat="42.87594" lon="0.27264">
        <ele>2829.6</ele>
        <time>2022-02-12T12:29:56Z</time>
      </trkpt>
      <trkpt lat="42.87594" lon="0.27264">
        <ele>2829.6</ele>
        <time>2022-02-12T12:30:01Z</time>
      </trkpt>
      <trkpt lat="42.87594" lon="0.27264">
        <ele>2829.6</ele>
        <time>2022-02-12T12:30:05Z</time>
      </trkpt>
      <trkpt lat="42.87594" lon="0.27264">
        <ele>2829.6</ele>
        <time>2022-02-12T12:30:07Z</time>
      </trkpt>
      <trkpt lat="42.87593" lon="0.27263">
        <ele>2829.4</ele>
        <time>2022-02-12T12:30:20Z</time>
      </trkpt>
      <trkpt lat="42.87593" lon="0.27265">
        <ele>2829.4</ele>
        <time>2022-02-12T12:30:28Z</time>
      </trkpt>
      <trkpt lat="42.87593" lon="0.27265">
        <ele>2829.4</ele>
        <time>2022-02-12T12:30:29Z</time>
      </trkpt>
      <trkpt lat="42.87594" lon="0.27266">
        <ele>2829.6</ele>
        <time>2022-02-12T12:30:47Z</time>
      </trkpt>
      <trkpt lat="42.87593" lon="0.27266">
        <ele>2829.2</ele>
        <time>2022-02-12T12:30:55Z</time>
      </trkpt>
      <trkpt lat="42.87593" lon="0.27266">
        <ele>2829.2</ele>
        <time>2022-02-12T12:31:05Z</time>
      </trkpt>
      <trkpt lat="42.87593" lon="0.27266">
        <ele>2829.4</ele>
        <time>2022-02-12T12:31:14Z</time>
      </trkpt>
      <trkpt lat="42.87593" lon="0.27266">
        <ele>2829.4</ele>
        <time>2022-02-12T12:31:15Z</time>
      </trkpt>
      <trkpt lat="42.87593" lon="0.27264">
        <ele>2829.8</ele>
        <time>2022-02-12T12:31:21Z</time>
      </trkpt>
      <trkpt lat="42.87593" lon="0.27264">
        <ele>2829.2</ele>
        <time>2022-02-12T12:31:23Z</time>
      </trkpt>
      <trkpt lat="42.87593" lon="0.27264">
        <ele>2829.2</ele>
        <time>2022-02-12T12:31:24Z</time>
      </trkpt>
      <trkpt lat="42.87593" lon="0.27264">
        <ele>2829.6</ele>
        <time>2022-02-12T12:31:27Z</time>
      </trkpt>
      <trkpt lat="42.87593" lon="0.27264">
        <ele>2830.2</ele>
        <time>2022-02-12T12:31:31Z</time>
      </trkpt>
      <trkpt lat="42.87593" lon="0.27263">
        <ele>2830.2</ele>
        <time>2022-02-12T12:31:39Z</time>
      </trkpt>
      <trkpt lat="42.87593" lon="0.27263">
        <ele>2830.2</ele>
        <time>2022-02-12T12:31:49Z</time>
      </trkpt>
      <trkpt lat="42.87593" lon="0.27263">
        <ele>2830.2</ele>
        <time>2022-02-12T12:31:59Z</time>
      </trkpt>
      <trkpt lat="42.87593" lon="0.27263">
        <ele>2830.2</ele>
        <time>2022-02-12T12:32:00Z</time>
      </trkpt>
      <trkpt lat="42.87593" lon="0.27263">
        <ele>2830.2</ele>
        <time>2022-02-12T12:32:14Z</time>
      </trkpt>
      <trkpt lat="42.87593" lon="0.27264">
        <ele>2830.2</ele>
        <time>2022-02-12T12:32:22Z</time>
      </trkpt>
      <trkpt lat="42.87593" lon="0.27263">
        <ele>2830.2</ele>
        <time>2022-02-12T12:32:23Z</time>
      </trkpt>
      <trkpt lat="42.87593" lon="0.27264">
        <ele>2830.2</ele>
        <time>2022-02-12T12:32:27Z</time>
      </trkpt>
      <trkpt lat="42.87593" lon="0.27263">
        <ele>2830.2</ele>
        <time>2022-02-12T12:32:35Z</time>
      </trkpt>
      <trkpt lat="42.87593" lon="0.27263">
        <ele>2830.2</ele>
        <time>2022-02-12T12:32:40Z</time>
      </trkpt>
      <trkpt lat="42.87593" lon="0.27263">
        <ele>2830.2</ele>
        <time>2022-02-12T12:32:45Z</time>
      </trkpt>
      <trkpt lat="42.87593" lon="0.27263">
        <ele>2830.2</ele>
        <time>2022-02-12T12:32:55Z</time>
      </trkpt>
      <trkpt lat="42.87593" lon="0.27263">
        <ele>2830.2</ele>
        <time>2022-02-12T12:33:05Z</time>
      </trkpt>
      <trkpt lat="42.87593" lon="0.27263">
        <ele>2830.2</ele>
        <time>2022-02-12T12:33:09Z</time>
      </trkpt>
      <trkpt lat="42.87593" lon="0.27263">
        <ele>2830.2</ele>
        <time>2022-02-12T12:33:15Z</time>
      </trkpt>
      <trkpt lat="42.87593" lon="0.27263">
        <ele>2830.2</ele>
        <time>2022-02-12T12:33:21Z</time>
      </trkpt>
      <trkpt lat="42.87593" lon="0.27264">
        <ele>2830.2</ele>
        <time>2022-02-12T12:33:23Z</time>
      </trkpt>
      <trkpt lat="42.87593" lon="0.27263">
        <ele>2830.2</ele>
        <time>2022-02-12T12:33:25Z</time>
      </trkpt>
      <trkpt lat="42.87593" lon="0.27264">
        <ele>2830.2</ele>
        <time>2022-02-12T12:33:38Z</time>
      </trkpt>
      <trkpt lat="42.87593" lon="0.27264">
        <ele>2830.2</ele>
        <time>2022-02-12T12:33:46Z</time>
      </trkpt>
      <trkpt lat="42.87593" lon="0.27264">
        <ele>2830.2</ele>
        <time>2022-02-12T12:34:08Z</time>
      </trkpt>
      <trkpt lat="42.87593" lon="0.27264">
        <ele>2830.2</ele>
        <time>2022-02-12T12:34:16Z</time>
      </trkpt>
      <trkpt lat="42.87593" lon="0.27264">
        <ele>2830.2</ele>
        <time>2022-02-12T12:34:20Z</time>
      </trkpt>
      <trkpt lat="42.87593" lon="0.27264">
        <ele>2830.2</ele>
        <time>2022-02-12T12:34:28Z</time>
      </trkpt>
      <trkpt lat="42.87593" lon="0.27264">
        <ele>2830.2</ele>
        <time>2022-02-12T12:34:44Z</time>
      </trkpt>
      <trkpt lat="42.87593" lon="0.27264">
        <ele>2830.2</ele>
        <time>2022-02-12T12:34:59Z</time>
      </trkpt>
      <trkpt lat="42.87593" lon="0.27264">
        <ele>2830.2</ele>
        <time>2022-02-12T12:35:12Z</time>
      </trkpt>
      <trkpt lat="42.87593" lon="0.27264">
        <ele>2830.2</ele>
        <time>2022-02-12T12:35:28Z</time>
      </trkpt>
      <trkpt lat="42.87593" lon="0.27264">
        <ele>2830.2</ele>
        <time>2022-02-12T12:35:29Z</time>
      </trkpt>
      <trkpt lat="42.87593" lon="0.27264">
        <ele>2830.2</ele>
        <time>2022-02-12T12:35:31Z</time>
      </trkpt>
      <trkpt lat="42.87593" lon="0.27264">
        <ele>2830.2</ele>
        <time>2022-02-12T12:35:47Z</time>
      </trkpt>
      <trkpt lat="42.87594" lon="0.27264">
        <ele>2830.2</ele>
        <time>2022-02-12T12:36:00Z</time>
      </trkpt>
      <trkpt lat="42.87594" lon="0.27265">
        <ele>2830.2</ele>
        <time>2022-02-12T12:36:05Z</time>
      </trkpt>
      <trkpt lat="42.87594" lon="0.27265">
        <ele>2830.2</ele>
        <time>2022-02-12T12:36:06Z</time>
      </trkpt>
      <trkpt lat="42.87594" lon="0.27265">
        <ele>2830.2</ele>
        <time>2022-02-12T12:36:17Z</time>
      </trkpt>
      <trkpt lat="42.87594" lon="0.27265">
        <ele>2830.2</ele>
        <time>2022-02-12T12:36:29Z</time>
      </trkpt>
      <trkpt lat="42.87594" lon="0.27265">
        <ele>2830.2</ele>
        <time>2022-02-12T12:36:33Z</time>
      </trkpt>
      <trkpt lat="42.87594" lon="0.27265">
        <ele>2830.2</ele>
        <time>2022-02-12T12:36:49Z</time>
      </trkpt>
      <trkpt lat="42.87593" lon="0.27265">
        <ele>2830.2</ele>
        <time>2022-02-12T12:37:01Z</time>
      </trkpt>
      <trkpt lat="42.87593" lon="0.27265">
        <ele>2830.2</ele>
        <time>2022-02-12T12:37:04Z</time>
      </trkpt>
      <trkpt lat="42.87593" lon="0.27265">
        <ele>2830.2</ele>
        <time>2022-02-12T12:37:06Z</time>
      </trkpt>
      <trkpt lat="42.87593" lon="0.27265">
        <ele>2830.2</ele>
        <time>2022-02-12T12:37:08Z</time>
      </trkpt>
      <trkpt lat="42.87593" lon="0.27266">
        <ele>2830.2</ele>
        <time>2022-02-12T12:37:19Z</time>
      </trkpt>
      <trkpt lat="42.87593" lon="0.27265">
        <ele>2830.2</ele>
        <time>2022-02-12T12:37:35Z</time>
      </trkpt>
      <trkpt lat="42.87593" lon="0.27265">
        <ele>2830.2</ele>
        <time>2022-02-12T12:37:39Z</time>
      </trkpt>
      <trkpt lat="42.87593" lon="0.27265">
        <ele>2830.2</ele>
        <time>2022-02-12T12:37:40Z</time>
      </trkpt>
      <trkpt lat="42.87593" lon="0.27265">
        <ele>2830.2</ele>
        <time>2022-02-12T12:37:55Z</time>
      </trkpt>
      <trkpt lat="42.87593" lon="0.27265">
        <ele>2830.2</ele>
        <time>2022-02-12T12:38:02Z</time>
      </trkpt>
      <trkpt lat="42.87593" lon="0.27265">
        <ele>2830.2</ele>
        <time>2022-02-12T12:38:05Z</time>
      </trkpt>
      <trkpt lat="42.87593" lon="0.27265">
        <ele>2830.2</ele>
        <time>2022-02-12T12:38:07Z</time>
      </trkpt>
      <trkpt lat="42.87593" lon="0.27265">
        <ele>2830.2</ele>
        <time>2022-02-12T12:38:17Z</time>
      </trkpt>
      <trkpt lat="42.87593" lon="0.27265">
        <ele>2830.2</ele>
        <time>2022-02-12T12:38:19Z</time>
      </trkpt>
      <trkpt lat="42.87593" lon="0.27265">
        <ele>2830.2</ele>
        <time>2022-02-12T12:38:23Z</time>
      </trkpt>
      <trkpt lat="42.87593" lon="0.27265">
        <ele>2830.2</ele>
        <time>2022-02-12T12:38:24Z</time>
      </trkpt>
      <trkpt lat="42.87593" lon="0.27265">
        <ele>2830.2</ele>
        <time>2022-02-12T12:38:25Z</time>
      </trkpt>
      <trkpt lat="42.87593" lon="0.27264">
        <ele>2830.2</ele>
        <time>2022-02-12T12:38:27Z</time>
      </trkpt>
      <trkpt lat="42.87592" lon="0.27264">
        <ele>2830.2</ele>
        <time>2022-02-12T12:38:45Z</time>
      </trkpt>
      <trkpt lat="42.87592" lon="0.27264">
        <ele>2830.2</ele>
        <time>2022-02-12T12:38:57Z</time>
      </trkpt>
      <trkpt lat="42.87592" lon="0.27264">
        <ele>2830.2</ele>
        <time>2022-02-12T12:39:01Z</time>
      </trkpt>
      <trkpt lat="42.87592" lon="0.27264">
        <ele>2830.2</ele>
        <time>2022-02-12T12:39:07Z</time>
      </trkpt>
      <trkpt lat="42.87592" lon="0.27264">
        <ele>2830.2</ele>
        <time>2022-02-12T12:39:11Z</time>
      </trkpt>
      <trkpt lat="42.87592" lon="0.27264">
        <ele>2830.2</ele>
        <time>2022-02-12T12:39:14Z</time>
      </trkpt>
      <trkpt lat="42.87592" lon="0.27265">
        <ele>2830.2</ele>
        <time>2022-02-12T12:39:16Z</time>
      </trkpt>
      <trkpt lat="42.87592" lon="0.27265">
        <ele>2830.2</ele>
        <time>2022-02-12T12:39:22Z</time>
      </trkpt>
      <trkpt lat="42.87592" lon="0.27265">
        <ele>2830.2</ele>
        <time>2022-02-12T12:39:30Z</time>
      </trkpt>
      <trkpt lat="42.87592" lon="0.27265">
        <ele>2830.2</ele>
        <time>2022-02-12T12:39:54Z</time>
      </trkpt>
      <trkpt lat="42.87592" lon="0.27264">
        <ele>2830.2</ele>
        <time>2022-02-12T12:40:11Z</time>
      </trkpt>
      <trkpt lat="42.87592" lon="0.27264">
        <ele>2830.2</ele>
        <time>2022-02-12T12:40:23Z</time>
      </trkpt>
      <trkpt lat="42.87592" lon="0.27264">
        <ele>2830.2</ele>
        <time>2022-02-12T12:40:31Z</time>
      </trkpt>
      <trkpt lat="42.87592" lon="0.27264">
        <ele>2830.2</ele>
        <time>2022-02-12T12:40:33Z</time>
      </trkpt>
      <trkpt lat="42.87592" lon="0.27264">
        <ele>2830.2</ele>
        <time>2022-02-12T12:40:48Z</time>
      </trkpt>
      <trkpt lat="42.87592" lon="0.27264">
        <ele>2830.2</ele>
        <time>2022-02-12T12:40:49Z</time>
      </trkpt>
      <trkpt lat="42.87592" lon="0.27264">
        <ele>2830.2</ele>
        <time>2022-02-12T12:40:58Z</time>
      </trkpt>
      <trkpt lat="42.87592" lon="0.27263">
        <ele>2830.2</ele>
        <time>2022-02-12T12:41:04Z</time>
      </trkpt>
      <trkpt lat="42.87592" lon="0.27263">
        <ele>2830.2</ele>
        <time>2022-02-12T12:41:05Z</time>
      </trkpt>
      <trkpt lat="42.87592" lon="0.27264">
        <ele>2830.2</ele>
        <time>2022-02-12T12:41:11Z</time>
      </trkpt>
      <trkpt lat="42.87592" lon="0.27264">
        <ele>2830.2</ele>
        <time>2022-02-12T12:41:14Z</time>
      </trkpt>
      <trkpt lat="42.87592" lon="0.27264">
        <ele>2830.2</ele>
        <time>2022-02-12T12:41:17Z</time>
      </trkpt>
      <trkpt lat="42.87592" lon="0.27264">
        <ele>2830.2</ele>
        <time>2022-02-12T12:41:22Z</time>
      </trkpt>
      <trkpt lat="42.87592" lon="0.27264">
        <ele>2830.2</ele>
        <time>2022-02-12T12:41:25Z</time>
      </trkpt>
      <trkpt lat="42.87592" lon="0.27264">
        <ele>2830.2</ele>
        <time>2022-02-12T12:41:34Z</time>
      </trkpt>
      <trkpt lat="42.87592" lon="0.27264">
        <ele>2830.2</ele>
        <time>2022-02-12T12:41:38Z</time>
      </trkpt>
      <trkpt lat="42.87592" lon="0.27263">
        <ele>2830.2</ele>
        <time>2022-02-12T12:41:45Z</time>
      </trkpt>
      <trkpt lat="42.87593" lon="0.27263">
        <ele>2830.2</ele>
        <time>2022-02-12T12:41:54Z</time>
      </trkpt>
      <trkpt lat="42.87593" lon="0.27263">
        <ele>2830.2</ele>
        <time>2022-02-12T12:41:59Z</time>
      </trkpt>
      <trkpt lat="42.87592" lon="0.27263">
        <ele>2830.2</ele>
        <time>2022-02-12T12:42:01Z</time>
      </trkpt>
      <trkpt lat="42.87592" lon="0.27263">
        <ele>2830.2</ele>
        <time>2022-02-12T12:42:02Z</time>
      </trkpt>
      <trkpt lat="42.87593" lon="0.27263">
        <ele>2830.2</ele>
        <time>2022-02-12T12:42:08Z</time>
      </trkpt>
      <trkpt lat="42.87593" lon="0.27262">
        <ele>2830.2</ele>
        <time>2022-02-12T12:42:17Z</time>
      </trkpt>
      <trkpt lat="42.87593" lon="0.27263">
        <ele>2830.2</ele>
        <time>2022-02-12T12:42:21Z</time>
      </trkpt>
      <trkpt lat="42.87593" lon="0.27263">
        <ele>2830.2</ele>
        <time>2022-02-12T12:42:28Z</time>
      </trkpt>
      <trkpt lat="42.87593" lon="0.27264">
        <ele>2830.2</ele>
        <time>2022-02-12T12:42:32Z</time>
      </trkpt>
      <trkpt lat="42.87593" lon="0.27264">
        <ele>2830.2</ele>
        <time>2022-02-12T12:42:39Z</time>
      </trkpt>
      <trkpt lat="42.87593" lon="0.27265">
        <ele>2830.2</ele>
        <time>2022-02-12T12:42:46Z</time>
      </trkpt>
      <trkpt lat="42.87593" lon="0.27265">
        <ele>2830.2</ele>
        <time>2022-02-12T12:42:47Z</time>
      </trkpt>
      <trkpt lat="42.87593" lon="0.27265">
        <ele>2830.2</ele>
        <time>2022-02-12T12:43:00Z</time>
      </trkpt>
      <trkpt lat="42.87593" lon="0.27265">
        <ele>2830.2</ele>
        <time>2022-02-12T12:43:02Z</time>
      </trkpt>
      <trkpt lat="42.87593" lon="0.27264">
        <ele>2830.2</ele>
        <time>2022-02-12T12:43:17Z</time>
      </trkpt>
      <trkpt lat="42.87593" lon="0.27264">
        <ele>2830.2</ele>
        <time>2022-02-12T12:43:31Z</time>
      </trkpt>
      <trkpt lat="42.87593" lon="0.27264">
        <ele>2830.2</ele>
        <time>2022-02-12T12:43:33Z</time>
      </trkpt>
      <trkpt lat="42.87593" lon="0.27264">
        <ele>2830.2</ele>
        <time>2022-02-12T12:43:35Z</time>
      </trkpt>
      <trkpt lat="42.87593" lon="0.27264">
        <ele>2830.2</ele>
        <time>2022-02-12T12:43:39Z</time>
      </trkpt>
      <trkpt lat="42.87593" lon="0.27264">
        <ele>2830.2</ele>
        <time>2022-02-12T12:43:45Z</time>
      </trkpt>
      <trkpt lat="42.87593" lon="0.27265">
        <ele>2830.2</ele>
        <time>2022-02-12T12:43:51Z</time>
      </trkpt>
      <trkpt lat="42.87593" lon="0.27264">
        <ele>2830.2</ele>
        <time>2022-02-12T12:43:54Z</time>
      </trkpt>
      <trkpt lat="42.87594" lon="0.27264">
        <ele>2830.2</ele>
        <time>2022-02-12T12:44:07Z</time>
      </trkpt>
      <trkpt lat="42.87594" lon="0.27264">
        <ele>2830.2</ele>
        <time>2022-02-12T12:44:13Z</time>
      </trkpt>
      <trkpt lat="42.87594" lon="0.27264">
        <ele>2830.2</ele>
        <time>2022-02-12T12:44:14Z</time>
      </trkpt>
      <trkpt lat="42.87594" lon="0.27264">
        <ele>2830.2</ele>
        <time>2022-02-12T12:44:21Z</time>
      </trkpt>
      <trkpt lat="42.87594" lon="0.27265">
        <ele>2830.2</ele>
        <time>2022-02-12T12:44:27Z</time>
      </trkpt>
      <trkpt lat="42.87594" lon="0.27265">
        <ele>2830.2</ele>
        <time>2022-02-12T12:44:32Z</time>
      </trkpt>
      <trkpt lat="42.87594" lon="0.27265">
        <ele>2830.2</ele>
        <time>2022-02-12T12:44:36Z</time>
      </trkpt>
      <trkpt lat="42.87594" lon="0.27265">
        <ele>2830.2</ele>
        <time>2022-02-12T12:44:49Z</time>
      </trkpt>
      <trkpt lat="42.87595" lon="0.27264">
        <ele>2830.2</ele>
        <time>2022-02-12T12:44:57Z</time>
      </trkpt>
      <trkpt lat="42.87594" lon="0.27264">
        <ele>2830.2</ele>
        <time>2022-02-12T12:45:07Z</time>
      </trkpt>
      <trkpt lat="42.87594" lon="0.27264">
        <ele>2830.2</ele>
        <time>2022-02-12T12:45:09Z</time>
      </trkpt>
      <trkpt lat="42.87594" lon="0.27264">
        <ele>2830.2</ele>
        <time>2022-02-12T12:45:10Z</time>
      </trkpt>
      <trkpt lat="42.87594" lon="0.27264">
        <ele>2830.2</ele>
        <time>2022-02-12T12:45:11Z</time>
      </trkpt>
      <trkpt lat="42.87594" lon="0.27264">
        <ele>2830.2</ele>
        <time>2022-02-12T12:45:12Z</time>
      </trkpt>
      <trkpt lat="42.87594" lon="0.27264">
        <ele>2830.2</ele>
        <time>2022-02-12T12:45:18Z</time>
      </trkpt>
      <trkpt lat="42.87594" lon="0.27264">
        <ele>2830.2</ele>
        <time>2022-02-12T12:45:27Z</time>
      </trkpt>
      <trkpt lat="42.87594" lon="0.27264">
        <ele>2830.2</ele>
        <time>2022-02-12T12:45:34Z</time>
      </trkpt>
      <trkpt lat="42.87594" lon="0.27264">
        <ele>2830.2</ele>
        <time>2022-02-12T12:45:39Z</time>
      </trkpt>
      <trkpt lat="42.87594" lon="0.27263">
        <ele>2830.2</ele>
        <time>2022-02-12T12:45:49Z</time>
      </trkpt>
      <trkpt lat="42.87593" lon="0.27264">
        <ele>2830.2</ele>
        <time>2022-02-12T12:45:58Z</time>
      </trkpt>
      <trkpt lat="42.87593" lon="0.27264">
        <ele>2830.2</ele>
        <time>2022-02-12T12:46:08Z</time>
      </trkpt>
      <trkpt lat="42.87593" lon="0.27263">
        <ele>2830.2</ele>
        <time>2022-02-12T12:46:16Z</time>
      </trkpt>
      <trkpt lat="42.87593" lon="0.27264">
        <ele>2830.2</ele>
        <time>2022-02-12T12:46:24Z</time>
      </trkpt>
      <trkpt lat="42.87593" lon="0.27264">
        <ele>2830.2</ele>
        <time>2022-02-12T12:46:29Z</time>
      </trkpt>
      <trkpt lat="42.87593" lon="0.27263">
        <ele>2830.2</ele>
        <time>2022-02-12T12:46:31Z</time>
      </trkpt>
      <trkpt lat="42.87593" lon="0.27264">
        <ele>2830.2</ele>
        <time>2022-02-12T12:46:38Z</time>
      </trkpt>
      <trkpt lat="42.87593" lon="0.27264">
        <ele>2830.2</ele>
        <time>2022-02-12T12:46:43Z</time>
      </trkpt>
      <trkpt lat="42.87593" lon="0.27264">
        <ele>2830.2</ele>
        <time>2022-02-12T12:46:51Z</time>
      </trkpt>
      <trkpt lat="42.87593" lon="0.27264">
        <ele>2830.2</ele>
        <time>2022-02-12T12:47:03Z</time>
      </trkpt>
      <trkpt lat="42.87593" lon="0.27264">
        <ele>2830.2</ele>
        <time>2022-02-12T12:47:09Z</time>
      </trkpt>
      <trkpt lat="42.87593" lon="0.27263">
        <ele>2830.2</ele>
        <time>2022-02-12T12:47:17Z</time>
      </trkpt>
      <trkpt lat="42.87593" lon="0.27263">
        <ele>2830.2</ele>
        <time>2022-02-12T12:47:28Z</time>
      </trkpt>
      <trkpt lat="42.87594" lon="0.27265">
        <ele>2830.2</ele>
        <time>2022-02-12T12:47:34Z</time>
      </trkpt>
      <trkpt lat="42.87594" lon="0.27264">
        <ele>2830.2</ele>
        <time>2022-02-12T12:47:37Z</time>
      </trkpt>
      <trkpt lat="42.87595" lon="0.27267">
        <ele>2830.2</ele>
        <time>2022-02-12T12:47:43Z</time>
      </trkpt>
      <trkpt lat="42.87596" lon="0.27268">
        <ele>2830.2</ele>
        <time>2022-02-12T12:47:51Z</time>
      </trkpt>
      <trkpt lat="42.87596" lon="0.27269">
        <ele>2830.2</ele>
        <time>2022-02-12T12:48:00Z</time>
      </trkpt>
      <trkpt lat="42.87596" lon="0.27269">
        <ele>2830.2</ele>
        <time>2022-02-12T12:48:17Z</time>
      </trkpt>
      <trkpt lat="42.87596" lon="0.2727">
        <ele>2830.2</ele>
        <time>2022-02-12T12:48:29Z</time>
      </trkpt>
      <trkpt lat="42.87596" lon="0.2727">
        <ele>2830.2</ele>
        <time>2022-02-12T12:48:39Z</time>
      </trkpt>
      <trkpt lat="42.87596" lon="0.2727">
        <ele>2830.2</ele>
        <time>2022-02-12T12:48:42Z</time>
      </trkpt>
      <trkpt lat="42.87596" lon="0.2727">
        <ele>2830.2</ele>
        <time>2022-02-12T12:48:44Z</time>
      </trkpt>
      <trkpt lat="42.87596" lon="0.27271">
        <ele>2830.2</ele>
        <time>2022-02-12T12:48:48Z</time>
      </trkpt>
      <trkpt lat="42.87596" lon="0.27271">
        <ele>2830.2</ele>
        <time>2022-02-12T12:48:52Z</time>
      </trkpt>
      <trkpt lat="42.87596" lon="0.27271">
        <ele>2830.2</ele>
        <time>2022-02-12T12:48:55Z</time>
      </trkpt>
      <trkpt lat="42.87595" lon="0.27271">
        <ele>2830.2</ele>
        <time>2022-02-12T12:49:07Z</time>
      </trkpt>
      <trkpt lat="42.87596" lon="0.27271">
        <ele>2830.2</ele>
        <time>2022-02-12T12:49:19Z</time>
      </trkpt>
      <trkpt lat="42.87596" lon="0.27271">
        <ele>2830.2</ele>
        <time>2022-02-12T12:49:20Z</time>
      </trkpt>
      <trkpt lat="42.87596" lon="0.27271">
        <ele>2830.2</ele>
        <time>2022-02-12T12:49:24Z</time>
      </trkpt>
      <trkpt lat="42.87596" lon="0.27271">
        <ele>2830.2</ele>
        <time>2022-02-12T12:49:25Z</time>
      </trkpt>
      <trkpt lat="42.87596" lon="0.27271">
        <ele>2830.2</ele>
        <time>2022-02-12T12:49:29Z</time>
      </trkpt>
      <trkpt lat="42.87596" lon="0.27271">
        <ele>2830.2</ele>
        <time>2022-02-12T12:49:34Z</time>
      </trkpt>
      <trkpt lat="42.87596" lon="0.27271">
        <ele>2830.2</ele>
        <time>2022-02-12T12:49:50Z</time>
      </trkpt>
      <trkpt lat="42.87595" lon="0.27271">
        <ele>2830.2</ele>
        <time>2022-02-12T12:49:55Z</time>
      </trkpt>
      <trkpt lat="42.87595" lon="0.27271">
        <ele>2830.2</ele>
        <time>2022-02-12T12:50:00Z</time>
      </trkpt>
      <trkpt lat="42.87595" lon="0.27271">
        <ele>2830.2</ele>
        <time>2022-02-12T12:50:03Z</time>
      </trkpt>
      <trkpt lat="42.87595" lon="0.2727">
        <ele>2830.2</ele>
        <time>2022-02-12T12:50:19Z</time>
      </trkpt>
      <trkpt lat="42.87595" lon="0.27268">
        <ele>2830.2</ele>
        <time>2022-02-12T12:50:24Z</time>
      </trkpt>
      <trkpt lat="42.87594" lon="0.27268">
        <ele>2830.2</ele>
        <time>2022-02-12T12:50:27Z</time>
      </trkpt>
      <trkpt lat="42.87594" lon="0.27267">
        <ele>2830.2</ele>
        <time>2022-02-12T12:50:33Z</time>
      </trkpt>
      <trkpt lat="42.87594" lon="0.27266">
        <ele>2830.2</ele>
        <time>2022-02-12T12:50:42Z</time>
      </trkpt>
      <trkpt lat="42.87594" lon="0.27266">
        <ele>2830.2</ele>
        <time>2022-02-12T12:50:43Z</time>
      </trkpt>
      <trkpt lat="42.87594" lon="0.27266">
        <ele>2830.2</ele>
        <time>2022-02-12T12:50:46Z</time>
      </trkpt>
      <trkpt lat="42.87594" lon="0.27266">
        <ele>2830.2</ele>
        <time>2022-02-12T12:50:50Z</time>
      </trkpt>
      <trkpt lat="42.87594" lon="0.27266">
        <ele>2830.2</ele>
        <time>2022-02-12T12:50:58Z</time>
      </trkpt>
      <trkpt lat="42.87594" lon="0.27265">
        <ele>2830.2</ele>
        <time>2022-02-12T12:51:06Z</time>
      </trkpt>
      <trkpt lat="42.87594" lon="0.27265">
        <ele>2830.2</ele>
        <time>2022-02-12T12:51:11Z</time>
      </trkpt>
      <trkpt lat="42.87594" lon="0.27265">
        <ele>2830.2</ele>
        <time>2022-02-12T12:51:18Z</time>
      </trkpt>
      <trkpt lat="42.87594" lon="0.27265">
        <ele>2830.2</ele>
        <time>2022-02-12T12:51:19Z</time>
      </trkpt>
      <trkpt lat="42.87594" lon="0.27264">
        <ele>2830.2</ele>
        <time>2022-02-12T12:51:24Z</time>
      </trkpt>
      <trkpt lat="42.87594" lon="0.27264">
        <ele>2830.2</ele>
        <time>2022-02-12T12:51:30Z</time>
      </trkpt>
      <trkpt lat="42.87594" lon="0.27264">
        <ele>2830.2</ele>
        <time>2022-02-12T12:51:34Z</time>
      </trkpt>
      <trkpt lat="42.87594" lon="0.27264">
        <ele>2830.2</ele>
        <time>2022-02-12T12:51:39Z</time>
      </trkpt>
      <trkpt lat="42.87594" lon="0.27263">
        <ele>2830.2</ele>
        <time>2022-02-12T12:51:43Z</time>
      </trkpt>
      <trkpt lat="42.87594" lon="0.27262">
        <ele>2830.2</ele>
        <time>2022-02-12T12:51:53Z</time>
      </trkpt>
      <trkpt lat="42.87595" lon="0.27263">
        <ele>2830.2</ele>
        <time>2022-02-12T12:52:01Z</time>
      </trkpt>
      <trkpt lat="42.87593" lon="0.27264">
        <ele>2830.2</ele>
        <time>2022-02-12T12:52:07Z</time>
      </trkpt>
      <trkpt lat="42.87591" lon="0.27259">
        <ele>2830.2</ele>
        <time>2022-02-12T12:52:12Z</time>
      </trkpt>
      <trkpt lat="42.87592" lon="0.27253">
        <ele>2830.2</ele>
        <time>2022-02-12T12:52:19Z</time>
      </trkpt>
      <trkpt lat="42.8759" lon="0.27247">
        <ele>2830.2</ele>
        <time>2022-02-12T12:52:25Z</time>
      </trkpt>
      <trkpt lat="42.8759" lon="0.27246">
        <ele>2830.2</ele>
        <time>2022-02-12T12:52:27Z</time>
      </trkpt>
      <trkpt lat="42.8759" lon="0.27247">
        <ele>2830.2</ele>
        <time>2022-02-12T12:52:32Z</time>
      </trkpt>
      <trkpt lat="42.8759" lon="0.27247">
        <ele>2830.2</ele>
        <time>2022-02-12T12:52:39Z</time>
      </trkpt>
      <trkpt lat="42.87589" lon="0.27245">
        <ele>2830.2</ele>
        <time>2022-02-12T12:52:42Z</time>
      </trkpt>
      <trkpt lat="42.87589" lon="0.27244">
        <ele>2826.2</ele>
        <time>2022-02-12T12:52:44Z</time>
      </trkpt>
      <trkpt lat="42.87588" lon="0.27244">
        <ele>2826.2</ele>
        <time>2022-02-12T12:52:46Z</time>
      </trkpt>
      <trkpt lat="42.87587" lon="0.27243">
        <ele>2825</ele>
        <time>2022-02-12T12:52:51Z</time>
      </trkpt>
      <trkpt lat="42.87587" lon="0.27243">
        <ele>2824.8</ele>
        <time>2022-02-12T12:52:53Z</time>
      </trkpt>
      <trkpt lat="42.87588" lon="0.27243">
        <ele>2824</ele>
        <time>2022-02-12T12:52:59Z</time>
      </trkpt>
      <trkpt lat="42.87589" lon="0.27244">
        <ele>2823.8</ele>
        <time>2022-02-12T12:53:00Z</time>
      </trkpt>
      <trkpt lat="42.87588" lon="0.27246">
        <ele>2823</ele>
        <time>2022-02-12T12:53:05Z</time>
      </trkpt>
      <trkpt lat="42.87587" lon="0.27246">
        <ele>2823</ele>
        <time>2022-02-12T12:53:06Z</time>
      </trkpt>
      <trkpt lat="42.87584" lon="0.27247">
        <ele>2822</ele>
        <time>2022-02-12T12:53:11Z</time>
      </trkpt>
      <trkpt lat="42.87584" lon="0.27246">
        <ele>2821.8</ele>
        <time>2022-02-12T12:53:12Z</time>
      </trkpt>
      <trkpt lat="42.87581" lon="0.27243">
        <ele>2820.8</ele>
        <time>2022-02-12T12:53:17Z</time>
      </trkpt>
      <trkpt lat="42.8758" lon="0.27241">
        <ele>2820.4</ele>
        <time>2022-02-12T12:53:19Z</time>
      </trkpt>
      <trkpt lat="42.8758" lon="0.27237">
        <ele>2819.6</ele>
        <time>2022-02-12T12:53:25Z</time>
      </trkpt>
      <trkpt lat="42.8758" lon="0.27237">
        <ele>2819.4</ele>
        <time>2022-02-12T12:53:26Z</time>
      </trkpt>
      <trkpt lat="42.8758" lon="0.27236">
        <ele>2819</ele>
        <time>2022-02-12T12:53:29Z</time>
      </trkpt>
      <trkpt lat="42.8758" lon="0.27237">
        <ele>2818.4</ele>
        <time>2022-02-12T12:53:31Z</time>
      </trkpt>
      <trkpt lat="42.8758" lon="0.27237">
        <ele>2818</ele>
        <time>2022-02-12T12:53:33Z</time>
      </trkpt>
      <trkpt lat="42.87581" lon="0.27238">
        <ele>2818</ele>
        <time>2022-02-12T12:53:34Z</time>
      </trkpt>
      <trkpt lat="42.87581" lon="0.27238">
        <ele>2817.8</ele>
        <time>2022-02-12T12:53:36Z</time>
      </trkpt>
      <trkpt lat="42.87581" lon="0.2724">
        <ele>2817.4</ele>
        <time>2022-02-12T12:53:42Z</time>
      </trkpt>
      <trkpt lat="42.87581" lon="0.2724">
        <ele>2817.4</ele>
        <time>2022-02-12T12:53:44Z</time>
      </trkpt>
      <trkpt lat="42.87579" lon="0.27241">
        <ele>2818.2</ele>
        <time>2022-02-12T12:53:55Z</time>
      </trkpt>
      <trkpt lat="42.87581" lon="0.2724">
        <ele>2818.2</ele>
        <time>2022-02-12T12:54:00Z</time>
      </trkpt>
      <trkpt lat="42.87581" lon="0.27241">
        <ele>2818</ele>
        <time>2022-02-12T12:54:02Z</time>
      </trkpt>
      <trkpt lat="42.87583" lon="0.27244">
        <ele>2818.2</ele>
        <time>2022-02-12T12:54:13Z</time>
      </trkpt>
      <trkpt lat="42.87583" lon="0.27243">
        <ele>2817.8</ele>
        <time>2022-02-12T12:54:20Z</time>
      </trkpt>
      <trkpt lat="42.87583" lon="0.27243">
        <ele>2817.6</ele>
        <time>2022-02-12T12:54:24Z</time>
      </trkpt>
      <trkpt lat="42.87582" lon="0.27241">
        <ele>2817.8</ele>
        <time>2022-02-12T12:54:29Z</time>
      </trkpt>
      <trkpt lat="42.87581" lon="0.27242">
        <ele>2818.4</ele>
        <time>2022-02-12T12:54:38Z</time>
      </trkpt>
      <trkpt lat="42.87581" lon="0.27242">
        <ele>2818.4</ele>
        <time>2022-02-12T12:54:39Z</time>
      </trkpt>
      <trkpt lat="42.87581" lon="0.27242">
        <ele>2818.4</ele>
        <time>2022-02-12T12:54:42Z</time>
      </trkpt>
      <trkpt lat="42.8758" lon="0.27241">
        <ele>2818.8</ele>
        <time>2022-02-12T12:54:50Z</time>
      </trkpt>
      <trkpt lat="42.87581" lon="0.27238">
        <ele>2818.8</ele>
        <time>2022-02-12T12:54:57Z</time>
      </trkpt>
      <trkpt lat="42.8758" lon="0.27236">
        <ele>2818.8</ele>
        <time>2022-02-12T12:55:06Z</time>
      </trkpt>
      <trkpt lat="42.87579" lon="0.27238">
        <ele>2818.8</ele>
        <time>2022-02-12T12:55:14Z</time>
      </trkpt>
      <trkpt lat="42.87578" lon="0.27238">
        <ele>2818.8</ele>
        <time>2022-02-12T12:55:16Z</time>
      </trkpt>
      <trkpt lat="42.87578" lon="0.27238">
        <ele>2818.8</ele>
        <time>2022-02-12T12:55:17Z</time>
      </trkpt>
      <trkpt lat="42.87577" lon="0.27238">
        <ele>2818.8</ele>
        <time>2022-02-12T12:55:19Z</time>
      </trkpt>
      <trkpt lat="42.87578" lon="0.27239">
        <ele>2818.8</ele>
        <time>2022-02-12T12:55:21Z</time>
      </trkpt>
      <trkpt lat="42.87579" lon="0.2724">
        <ele>2818.8</ele>
        <time>2022-02-12T12:55:25Z</time>
      </trkpt>
      <trkpt lat="42.87582" lon="0.27242">
        <ele>2818.8</ele>
        <time>2022-02-12T12:55:35Z</time>
      </trkpt>
      <trkpt lat="42.87583" lon="0.27243">
        <ele>2818.8</ele>
        <time>2022-02-12T12:55:41Z</time>
      </trkpt>
      <trkpt lat="42.87581" lon="0.27242">
        <ele>2818.8</ele>
        <time>2022-02-12T12:55:50Z</time>
      </trkpt>
      <trkpt lat="42.87582" lon="0.27244">
        <ele>2818.8</ele>
        <time>2022-02-12T12:56:01Z</time>
      </trkpt>
      <trkpt lat="42.87583" lon="0.27245">
        <ele>2818.8</ele>
        <time>2022-02-12T12:56:11Z</time>
      </trkpt>
      <trkpt lat="42.87581" lon="0.27242">
        <ele>2818.8</ele>
        <time>2022-02-12T12:56:24Z</time>
      </trkpt>
      <trkpt lat="42.87582" lon="0.27242">
        <ele>2818.8</ele>
        <time>2022-02-12T12:56:26Z</time>
      </trkpt>
      <trkpt lat="42.87583" lon="0.27245">
        <ele>2818.8</ele>
        <time>2022-02-12T12:56:35Z</time>
      </trkpt>
      <trkpt lat="42.87583" lon="0.27245">
        <ele>2818.8</ele>
        <time>2022-02-12T12:56:41Z</time>
      </trkpt>
      <trkpt lat="42.87581" lon="0.27242">
        <ele>2818.8</ele>
        <time>2022-02-12T12:56:55Z</time>
      </trkpt>
      <trkpt lat="42.87581" lon="0.27241">
        <ele>2818.8</ele>
        <time>2022-02-12T12:56:58Z</time>
      </trkpt>
      <trkpt lat="42.87581" lon="0.27241">
        <ele>2818.8</ele>
        <time>2022-02-12T12:57:00Z</time>
      </trkpt>
      <trkpt lat="42.87581" lon="0.27242">
        <ele>2818.8</ele>
        <time>2022-02-12T12:57:03Z</time>
      </trkpt>
      <trkpt lat="42.87582" lon="0.27242">
        <ele>2818.8</ele>
        <time>2022-02-12T12:57:05Z</time>
      </trkpt>
      <trkpt lat="42.87583" lon="0.27242">
        <ele>2818.8</ele>
        <time>2022-02-12T12:57:11Z</time>
      </trkpt>
      <trkpt lat="42.87583" lon="0.27242">
        <ele>2818.8</ele>
        <time>2022-02-12T12:57:16Z</time>
      </trkpt>
      <trkpt lat="42.87582" lon="0.27241">
        <ele>2818.8</ele>
        <time>2022-02-12T12:57:18Z</time>
      </trkpt>
      <trkpt lat="42.87582" lon="0.27239">
        <ele>2818.8</ele>
        <time>2022-02-12T12:57:25Z</time>
      </trkpt>
      <trkpt lat="42.87582" lon="0.27238">
        <ele>2818.8</ele>
        <time>2022-02-12T12:57:28Z</time>
      </trkpt>
      <trkpt lat="42.87582" lon="0.27239">
        <ele>2818.8</ele>
        <time>2022-02-12T12:57:34Z</time>
      </trkpt>
      <trkpt lat="42.87582" lon="0.2724">
        <ele>2818.8</ele>
        <time>2022-02-12T12:57:38Z</time>
      </trkpt>
      <trkpt lat="42.87583" lon="0.2724">
        <ele>2818.8</ele>
        <time>2022-02-12T12:57:40Z</time>
      </trkpt>
      <trkpt lat="42.87583" lon="0.27241">
        <ele>2818.8</ele>
        <time>2022-02-12T12:57:41Z</time>
      </trkpt>
      <trkpt lat="42.87584" lon="0.27241">
        <ele>2818.8</ele>
        <time>2022-02-12T12:57:46Z</time>
      </trkpt>
      <trkpt lat="42.87584" lon="0.27242">
        <ele>2818.8</ele>
        <time>2022-02-12T12:57:48Z</time>
      </trkpt>
      <trkpt lat="42.87583" lon="0.27241">
        <ele>2818.8</ele>
        <time>2022-02-12T12:57:52Z</time>
      </trkpt>
      <trkpt lat="42.87582" lon="0.27241">
        <ele>2818.8</ele>
        <time>2022-02-12T12:57:57Z</time>
      </trkpt>
      <trkpt lat="42.87583" lon="0.2724">
        <ele>2818.8</ele>
        <time>2022-02-12T12:58:01Z</time>
      </trkpt>
      <trkpt lat="42.87583" lon="0.2724">
        <ele>2818.8</ele>
        <time>2022-02-12T12:58:03Z</time>
      </trkpt>
      <trkpt lat="42.87583" lon="0.2724">
        <ele>2818.8</ele>
        <time>2022-02-12T12:58:04Z</time>
      </trkpt>
      <trkpt lat="42.87583" lon="0.27239">
        <ele>2818.8</ele>
        <time>2022-02-12T12:58:06Z</time>
      </trkpt>
      <trkpt lat="42.87583" lon="0.27238">
        <ele>2818.8</ele>
        <time>2022-02-12T12:58:13Z</time>
      </trkpt>
      <trkpt lat="42.87583" lon="0.27238">
        <ele>2818.8</ele>
        <time>2022-02-12T12:58:17Z</time>
      </trkpt>
      <trkpt lat="42.87583" lon="0.27237">
        <ele>2818.8</ele>
        <time>2022-02-12T12:58:19Z</time>
      </trkpt>
      <trkpt lat="42.87582" lon="0.27235">
        <ele>2818.8</ele>
        <time>2022-02-12T12:58:26Z</time>
      </trkpt>
      <trkpt lat="42.87582" lon="0.27235">
        <ele>2818.8</ele>
        <time>2022-02-12T12:58:28Z</time>
      </trkpt>
      <trkpt lat="42.87582" lon="0.27234">
        <ele>2818.8</ele>
        <time>2022-02-12T12:58:31Z</time>
      </trkpt>
      <trkpt lat="42.87581" lon="0.27234">
        <ele>2818.8</ele>
        <time>2022-02-12T12:58:34Z</time>
      </trkpt>
      <trkpt lat="42.8758" lon="0.27234">
        <ele>2818.8</ele>
        <time>2022-02-12T12:58:37Z</time>
      </trkpt>
      <trkpt lat="42.8758" lon="0.27235">
        <ele>2818.8</ele>
        <time>2022-02-12T12:58:46Z</time>
      </trkpt>
      <trkpt lat="42.87583" lon="0.2724">
        <ele>2818.8</ele>
        <time>2022-02-12T12:58:58Z</time>
      </trkpt>
      <trkpt lat="42.87583" lon="0.2724">
        <ele>2818.8</ele>
        <time>2022-02-12T12:59:01Z</time>
      </trkpt>
      <trkpt lat="42.87583" lon="0.27241">
        <ele>2818.8</ele>
        <time>2022-02-12T12:59:07Z</time>
      </trkpt>
      <trkpt lat="42.87583" lon="0.27241">
        <ele>2818.8</ele>
        <time>2022-02-12T12:59:16Z</time>
      </trkpt>
      <trkpt lat="42.87583" lon="0.27242">
        <ele>2818.8</ele>
        <time>2022-02-12T12:59:27Z</time>
      </trkpt>
      <trkpt lat="42.87583" lon="0.27242">
        <ele>2818.8</ele>
        <time>2022-02-12T12:59:37Z</time>
      </trkpt>
      <trkpt lat="42.87583" lon="0.27242">
        <ele>2818.8</ele>
        <time>2022-02-12T12:59:43Z</time>
      </trkpt>
      <trkpt lat="42.87583" lon="0.27242">
        <ele>2818.8</ele>
        <time>2022-02-12T12:59:45Z</time>
      </trkpt>
      <trkpt lat="42.87582" lon="0.27242">
        <ele>2818.8</ele>
        <time>2022-02-12T12:59:46Z</time>
      </trkpt>
      <trkpt lat="42.87583" lon="0.2724">
        <ele>2818.8</ele>
        <time>2022-02-12T12:59:52Z</time>
      </trkpt>
      <trkpt lat="42.87583" lon="0.27238">
        <ele>2818.8</ele>
        <time>2022-02-12T12:59:56Z</time>
      </trkpt>
      <trkpt lat="42.87582" lon="0.27237">
        <ele>2818.8</ele>
        <time>2022-02-12T12:59:59Z</time>
      </trkpt>
      <trkpt lat="42.87582" lon="0.27237">
        <ele>2818.8</ele>
        <time>2022-02-12T13:00:02Z</time>
      </trkpt>
      <trkpt lat="42.87582" lon="0.2724">
        <ele>2818.8</ele>
        <time>2022-02-12T13:00:11Z</time>
      </trkpt>
      <trkpt lat="42.87583" lon="0.27241">
        <ele>2818.8</ele>
        <time>2022-02-12T13:00:18Z</time>
      </trkpt>
      <trkpt lat="42.87583" lon="0.2724">
        <ele>2818.8</ele>
        <time>2022-02-12T13:00:21Z</time>
      </trkpt>
      <trkpt lat="42.87583" lon="0.2724">
        <ele>2818.8</ele>
        <time>2022-02-12T13:00:25Z</time>
      </trkpt>
      <trkpt lat="42.87583" lon="0.2724">
        <ele>2818.8</ele>
        <time>2022-02-12T13:00:32Z</time>
      </trkpt>
      <trkpt lat="42.87583" lon="0.27239">
        <ele>2818.8</ele>
        <time>2022-02-12T13:00:36Z</time>
      </trkpt>
      <trkpt lat="42.87583" lon="0.27238">
        <ele>2818.8</ele>
        <time>2022-02-12T13:00:38Z</time>
      </trkpt>
      <trkpt lat="42.87581" lon="0.27236">
        <ele>2818.8</ele>
        <time>2022-02-12T13:00:43Z</time>
      </trkpt>
      <trkpt lat="42.87581" lon="0.27236">
        <ele>2818.8</ele>
        <time>2022-02-12T13:00:46Z</time>
      </trkpt>
      <trkpt lat="42.87581" lon="0.27235">
        <ele>2818.8</ele>
        <time>2022-02-12T13:00:48Z</time>
      </trkpt>
      <trkpt lat="42.87581" lon="0.27234">
        <ele>2818.8</ele>
        <time>2022-02-12T13:00:52Z</time>
      </trkpt>
      <trkpt lat="42.87581" lon="0.27234">
        <ele>2818.8</ele>
        <time>2022-02-12T13:00:53Z</time>
      </trkpt>
      <trkpt lat="42.87581" lon="0.27234">
        <ele>2818.8</ele>
        <time>2022-02-12T13:01:01Z</time>
      </trkpt>
      <trkpt lat="42.87581" lon="0.27235">
        <ele>2818.8</ele>
        <time>2022-02-12T13:01:10Z</time>
      </trkpt>
      <trkpt lat="42.87581" lon="0.27237">
        <ele>2818.8</ele>
        <time>2022-02-12T13:01:18Z</time>
      </trkpt>
      <trkpt lat="42.87581" lon="0.27237">
        <ele>2818.8</ele>
        <time>2022-02-12T13:01:20Z</time>
      </trkpt>
      <trkpt lat="42.87582" lon="0.27238">
        <ele>2818.8</ele>
        <time>2022-02-12T13:01:23Z</time>
      </trkpt>
      <trkpt lat="42.87582" lon="0.27239">
        <ele>2818.8</ele>
        <time>2022-02-12T13:01:25Z</time>
      </trkpt>
      <trkpt lat="42.87582" lon="0.27239">
        <ele>2818.8</ele>
        <time>2022-02-12T13:01:27Z</time>
      </trkpt>
      <trkpt lat="42.87581" lon="0.27239">
        <ele>2818.8</ele>
        <time>2022-02-12T13:01:29Z</time>
      </trkpt>
      <trkpt lat="42.87581" lon="0.27239">
        <ele>2818.8</ele>
        <time>2022-02-12T13:01:33Z</time>
      </trkpt>
      <trkpt lat="42.87581" lon="0.27239">
        <ele>2818.8</ele>
        <time>2022-02-12T13:01:34Z</time>
      </trkpt>
      <trkpt lat="42.87581" lon="0.27239">
        <ele>2818.8</ele>
        <time>2022-02-12T13:01:36Z</time>
      </trkpt>
      <trkpt lat="42.87581" lon="0.27239">
        <ele>2818.8</ele>
        <time>2022-02-12T13:01:37Z</time>
      </trkpt>
      <trkpt lat="42.87581" lon="0.27239">
        <ele>2818.8</ele>
        <time>2022-02-12T13:01:38Z</time>
      </trkpt>
      <trkpt lat="42.87581" lon="0.27238">
        <ele>2818.8</ele>
        <time>2022-02-12T13:01:40Z</time>
      </trkpt>
      <trkpt lat="42.8758" lon="0.27238">
        <ele>2818.8</ele>
        <time>2022-02-12T13:01:42Z</time>
      </trkpt>
      <trkpt lat="42.8758" lon="0.27239">
        <ele>2818.8</ele>
        <time>2022-02-12T13:01:46Z</time>
      </trkpt>
      <trkpt lat="42.87581" lon="0.2724">
        <ele>2818.8</ele>
        <time>2022-02-12T13:01:50Z</time>
      </trkpt>
      <trkpt lat="42.87582" lon="0.27241">
        <ele>2818.8</ele>
        <time>2022-02-12T13:01:52Z</time>
      </trkpt>
      <trkpt lat="42.8758" lon="0.27241">
        <ele>2818.8</ele>
        <time>2022-02-12T13:01:59Z</time>
      </trkpt>
      <trkpt lat="42.8758" lon="0.27239">
        <ele>2818.8</ele>
        <time>2022-02-12T13:02:02Z</time>
      </trkpt>
      <trkpt lat="42.87581" lon="0.27238">
        <ele>2818.8</ele>
        <time>2022-02-12T13:02:04Z</time>
      </trkpt>
      <trkpt lat="42.8758" lon="0.27236">
        <ele>2818.8</ele>
        <time>2022-02-12T13:02:13Z</time>
      </trkpt>
      <trkpt lat="42.87579" lon="0.27235">
        <ele>2818.8</ele>
        <time>2022-02-12T13:02:20Z</time>
      </trkpt>
      <trkpt lat="42.8758" lon="0.27235">
        <ele>2818.8</ele>
        <time>2022-02-12T13:02:29Z</time>
      </trkpt>
      <trkpt lat="42.8758" lon="0.27236">
        <ele>2818.8</ele>
        <time>2022-02-12T13:02:34Z</time>
      </trkpt>
      <trkpt lat="42.87581" lon="0.27236">
        <ele>2818.8</ele>
        <time>2022-02-12T13:02:42Z</time>
      </trkpt>
      <trkpt lat="42.87581" lon="0.27237">
        <ele>2818.8</ele>
        <time>2022-02-12T13:02:43Z</time>
      </trkpt>
      <trkpt lat="42.87581" lon="0.27237">
        <ele>2818.8</ele>
        <time>2022-02-12T13:02:46Z</time>
      </trkpt>
      <trkpt lat="42.8758" lon="0.27238">
        <ele>2818.8</ele>
        <time>2022-02-12T13:02:48Z</time>
      </trkpt>
      <trkpt lat="42.8758" lon="0.27239">
        <ele>2818.8</ele>
        <time>2022-02-12T13:02:51Z</time>
      </trkpt>
      <trkpt lat="42.87581" lon="0.27238">
        <ele>2818.8</ele>
        <time>2022-02-12T13:02:52Z</time>
      </trkpt>
      <trkpt lat="42.8758" lon="0.27236">
        <ele>2818.8</ele>
        <time>2022-02-12T13:02:57Z</time>
      </trkpt>
      <trkpt lat="42.87578" lon="0.27235">
        <ele>2818.8</ele>
        <time>2022-02-12T13:03:00Z</time>
      </trkpt>
      <trkpt lat="42.87577" lon="0.27232">
        <ele>2818.8</ele>
        <time>2022-02-12T13:03:02Z</time>
      </trkpt>
      <trkpt lat="42.87576" lon="0.2723">
        <ele>2818.8</ele>
        <time>2022-02-12T13:03:03Z</time>
      </trkpt>
      <trkpt lat="42.87574" lon="0.27233">
        <ele>2818.8</ele>
        <time>2022-02-12T13:03:06Z</time>
      </trkpt>
      <trkpt lat="42.87572" lon="0.27233">
        <ele>2818.8</ele>
        <time>2022-02-12T13:03:08Z</time>
      </trkpt>
      <trkpt lat="42.87569" lon="0.27227">
        <ele>2818.8</ele>
        <time>2022-02-12T13:03:10Z</time>
      </trkpt>
      <trkpt lat="42.87568" lon="0.27225">
        <ele>2814.6</ele>
        <time>2022-02-12T13:03:11Z</time>
      </trkpt>
      <trkpt lat="42.87567" lon="0.27216">
        <ele>2812.6</ele>
        <time>2022-02-12T13:03:12Z</time>
      </trkpt>
      <trkpt lat="42.87566" lon="0.27212">
        <ele>2809.6</ele>
        <time>2022-02-12T13:03:13Z</time>
      </trkpt>
      <trkpt lat="42.87564" lon="0.27207">
        <ele>2808</ele>
        <time>2022-02-12T13:03:14Z</time>
      </trkpt>
      <trkpt lat="42.87564" lon="0.27203">
        <ele>2806.8</ele>
        <time>2022-02-12T13:03:15Z</time>
      </trkpt>
      <trkpt lat="42.87564" lon="0.272">
        <ele>2805.4</ele>
        <time>2022-02-12T13:03:16Z</time>
      </trkpt>
      <trkpt lat="42.87563" lon="0.27198">
        <ele>2803.8</ele>
        <time>2022-02-12T13:03:17Z</time>
      </trkpt>
      <trkpt lat="42.87562" lon="0.27196">
        <ele>2802</ele>
        <time>2022-02-12T13:03:18Z</time>
      </trkpt>
      <trkpt lat="42.87562" lon="0.27196">
        <ele>2800.8</ele>
        <time>2022-02-12T13:03:19Z</time>
      </trkpt>
      <trkpt lat="42.8756" lon="0.27197">
        <ele>2799.6</ele>
        <time>2022-02-12T13:03:20Z</time>
      </trkpt>
      <trkpt lat="42.87558" lon="0.27201">
        <ele>2797.8</ele>
        <time>2022-02-12T13:03:22Z</time>
      </trkpt>
      <trkpt lat="42.87558" lon="0.27202">
        <ele>2796.8</ele>
        <time>2022-02-12T13:03:24Z</time>
      </trkpt>
      <trkpt lat="42.87558" lon="0.27203">
        <ele>2796.6</ele>
        <time>2022-02-12T13:03:25Z</time>
      </trkpt>
      <trkpt lat="42.87556" lon="0.272">
        <ele>2796</ele>
        <time>2022-02-12T13:03:34Z</time>
      </trkpt>
      <trkpt lat="42.8755" lon="0.27198">
        <ele>2795.8</ele>
        <time>2022-02-12T13:03:39Z</time>
      </trkpt>
      <trkpt lat="42.87546" lon="0.27198">
        <ele>2795.6</ele>
        <time>2022-02-12T13:03:41Z</time>
      </trkpt>
      <trkpt lat="42.87549" lon="0.27187">
        <ele>2794.8</ele>
        <time>2022-02-12T13:03:42Z</time>
      </trkpt>
      <trkpt lat="42.8755" lon="0.27183">
        <ele>2794.2</ele>
        <time>2022-02-12T13:03:43Z</time>
      </trkpt>
      <trkpt lat="42.87551" lon="0.27181">
        <ele>2791</ele>
        <time>2022-02-12T13:03:44Z</time>
      </trkpt>
      <trkpt lat="42.8755" lon="0.27178">
        <ele>2789.4</ele>
        <time>2022-02-12T13:03:45Z</time>
      </trkpt>
      <trkpt lat="42.87549" lon="0.27176">
        <ele>2788.2</ele>
        <time>2022-02-12T13:03:46Z</time>
      </trkpt>
      <trkpt lat="42.87547" lon="0.27174">
        <ele>2787</ele>
        <time>2022-02-12T13:03:47Z</time>
      </trkpt>
      <trkpt lat="42.87545" lon="0.27173">
        <ele>2786.2</ele>
        <time>2022-02-12T13:03:48Z</time>
      </trkpt>
      <trkpt lat="42.87545" lon="0.27173">
        <ele>2785.2</ele>
        <time>2022-02-12T13:03:49Z</time>
      </trkpt>
      <trkpt lat="42.87542" lon="0.27168">
        <ele>2783.8</ele>
        <time>2022-02-12T13:03:50Z</time>
      </trkpt>
      <trkpt lat="42.87542" lon="0.27166">
        <ele>2782.6</ele>
        <time>2022-02-12T13:03:51Z</time>
      </trkpt>
      <trkpt lat="42.87541" lon="0.27163">
        <ele>2780.8</ele>
        <time>2022-02-12T13:03:52Z</time>
      </trkpt>
      <trkpt lat="42.8754" lon="0.27161">
        <ele>2778.8</ele>
        <time>2022-02-12T13:03:53Z</time>
      </trkpt>
      <trkpt lat="42.8754" lon="0.2716">
        <ele>2777.4</ele>
        <time>2022-02-12T13:03:54Z</time>
      </trkpt>
      <trkpt lat="42.87541" lon="0.27161">
        <ele>2776.4</ele>
        <time>2022-02-12T13:03:55Z</time>
      </trkpt>
      <trkpt lat="42.87541" lon="0.27163">
        <ele>2775.2</ele>
        <time>2022-02-12T13:03:56Z</time>
      </trkpt>
      <trkpt lat="42.87541" lon="0.27164">
        <ele>2773.8</ele>
        <time>2022-02-12T13:03:57Z</time>
      </trkpt>
      <trkpt lat="42.87542" lon="0.27165">
        <ele>2772.4</ele>
        <time>2022-02-12T13:03:59Z</time>
      </trkpt>
      <trkpt lat="42.87542" lon="0.27166">
        <ele>2772</ele>
        <time>2022-02-12T13:04:06Z</time>
      </trkpt>
      <trkpt lat="42.87543" lon="0.27167">
        <ele>2772</ele>
        <time>2022-02-12T13:04:10Z</time>
      </trkpt>
      <trkpt lat="42.87539" lon="0.27163">
        <ele>2772.2</ele>
        <time>2022-02-12T13:04:20Z</time>
      </trkpt>
      <trkpt lat="42.87534" lon="0.27153">
        <ele>2772.2</ele>
        <time>2022-02-12T13:04:24Z</time>
      </trkpt>
      <trkpt lat="42.87534" lon="0.27144">
        <ele>2772</ele>
        <time>2022-02-12T13:04:26Z</time>
      </trkpt>
      <trkpt lat="42.87532" lon="0.2714">
        <ele>2770</ele>
        <time>2022-02-12T13:04:27Z</time>
      </trkpt>
      <trkpt lat="42.87532" lon="0.2714">
        <ele>2768.2</ele>
        <time>2022-02-12T13:04:28Z</time>
      </trkpt>
      <trkpt lat="42.87532" lon="0.2714">
        <ele>2766.8</ele>
        <time>2022-02-12T13:04:29Z</time>
      </trkpt>
      <trkpt lat="42.87532" lon="0.2714">
        <ele>2764.8</ele>
        <time>2022-02-12T13:04:30Z</time>
      </trkpt>
      <trkpt lat="42.87525" lon="0.2713">
        <ele>2763.4</ele>
        <time>2022-02-12T13:04:31Z</time>
      </trkpt>
      <trkpt lat="42.87525" lon="0.27126">
        <ele>2761.8</ele>
        <time>2022-02-12T13:04:32Z</time>
      </trkpt>
      <trkpt lat="42.87523" lon="0.27122">
        <ele>2758.4</ele>
        <time>2022-02-12T13:04:34Z</time>
      </trkpt>
      <trkpt lat="42.87523" lon="0.27121">
        <ele>2756.4</ele>
        <time>2022-02-12T13:04:35Z</time>
      </trkpt>
      <trkpt lat="42.87523" lon="0.27121">
        <ele>2755</ele>
        <time>2022-02-12T13:04:36Z</time>
      </trkpt>
      <trkpt lat="42.87522" lon="0.27121">
        <ele>2753.8</ele>
        <time>2022-02-12T13:04:37Z</time>
      </trkpt>
      <trkpt lat="42.87521" lon="0.27123">
        <ele>2752.4</ele>
        <time>2022-02-12T13:04:38Z</time>
      </trkpt>
      <trkpt lat="42.87521" lon="0.27124">
        <ele>2750.6</ele>
        <time>2022-02-12T13:04:39Z</time>
      </trkpt>
      <trkpt lat="42.8752" lon="0.27123">
        <ele>2749.4</ele>
        <time>2022-02-12T13:04:40Z</time>
      </trkpt>
      <trkpt lat="42.8752" lon="0.27123">
        <ele>2748.2</ele>
        <time>2022-02-12T13:04:43Z</time>
      </trkpt>
      <trkpt lat="42.8752" lon="0.27123">
        <ele>2748.2</ele>
        <time>2022-02-12T13:04:45Z</time>
      </trkpt>
      <trkpt lat="42.8752" lon="0.27122">
        <ele>2749</ele>
        <time>2022-02-12T13:04:55Z</time>
      </trkpt>
      <trkpt lat="42.8752" lon="0.27123">
        <ele>2748.8</ele>
        <time>2022-02-12T13:05:04Z</time>
      </trkpt>
      <trkpt lat="42.87524" lon="0.27124">
        <ele>2749.2</ele>
        <time>2022-02-12T13:05:16Z</time>
      </trkpt>
      <trkpt lat="42.87525" lon="0.27124">
        <ele>2749.2</ele>
        <time>2022-02-12T13:05:18Z</time>
      </trkpt>
      <trkpt lat="42.87518" lon="0.2712">
        <ele>2751.2</ele>
        <time>2022-02-12T13:05:43Z</time>
      </trkpt>
      <trkpt lat="42.87518" lon="0.2712">
        <ele>2749.8</ele>
        <time>2022-02-12T13:05:48Z</time>
      </trkpt>
      <trkpt lat="42.87518" lon="0.2712">
        <ele>2749.4</ele>
        <time>2022-02-12T13:05:54Z</time>
      </trkpt>
      <trkpt lat="42.87518" lon="0.2712">
        <ele>2749.4</ele>
        <time>2022-02-12T13:05:56Z</time>
      </trkpt>
      <trkpt lat="42.87518" lon="0.2712">
        <ele>2749.4</ele>
        <time>2022-02-12T13:06:03Z</time>
      </trkpt>
      <trkpt lat="42.87518" lon="0.2712">
        <ele>2749.4</ele>
        <time>2022-02-12T13:06:04Z</time>
      </trkpt>
      <trkpt lat="42.87518" lon="0.2712">
        <ele>2749.4</ele>
        <time>2022-02-12T13:06:11Z</time>
      </trkpt>
      <trkpt lat="42.87518" lon="0.2712">
        <ele>2749.4</ele>
        <time>2022-02-12T13:06:17Z</time>
      </trkpt>
      <trkpt lat="42.87518" lon="0.2712">
        <ele>2749.4</ele>
        <time>2022-02-12T13:06:18Z</time>
      </trkpt>
      <trkpt lat="42.87518" lon="0.2712">
        <ele>2749.4</ele>
        <time>2022-02-12T13:06:20Z</time>
      </trkpt>
      <trkpt lat="42.87518" lon="0.2712">
        <ele>2749.4</ele>
        <time>2022-02-12T13:06:25Z</time>
      </trkpt>
      <trkpt lat="42.87518" lon="0.2712">
        <ele>2749.4</ele>
        <time>2022-02-12T13:06:26Z</time>
      </trkpt>
      <trkpt lat="42.87518" lon="0.2712">
        <ele>2749.4</ele>
        <time>2022-02-12T13:06:31Z</time>
      </trkpt>
      <trkpt lat="42.87518" lon="0.2712">
        <ele>2749.4</ele>
        <time>2022-02-12T13:06:34Z</time>
      </trkpt>
      <trkpt lat="42.87518" lon="0.2712">
        <ele>2749.4</ele>
        <time>2022-02-12T13:06:45Z</time>
      </trkpt>
      <trkpt lat="42.87518" lon="0.2712">
        <ele>2749.4</ele>
        <time>2022-02-12T13:06:48Z</time>
      </trkpt>
      <trkpt lat="42.87518" lon="0.2712">
        <ele>2749.4</ele>
        <time>2022-02-12T13:06:50Z</time>
      </trkpt>
      <trkpt lat="42.87518" lon="0.2712">
        <ele>2749.4</ele>
        <time>2022-02-12T13:06:51Z</time>
      </trkpt>
      <trkpt lat="42.87518" lon="0.27121">
        <ele>2749.4</ele>
        <time>2022-02-12T13:07:05Z</time>
      </trkpt>
      <trkpt lat="42.87518" lon="0.27121">
        <ele>2749.4</ele>
        <time>2022-02-12T13:07:11Z</time>
      </trkpt>
      <trkpt lat="42.87518" lon="0.2712">
        <ele>2749.4</ele>
        <time>2022-02-12T13:07:12Z</time>
      </trkpt>
      <trkpt lat="42.87518" lon="0.2712">
        <ele>2749.4</ele>
        <time>2022-02-12T13:07:14Z</time>
      </trkpt>
      <trkpt lat="42.87515" lon="0.27117">
        <ele>2749.4</ele>
        <time>2022-02-12T13:07:16Z</time>
      </trkpt>
      <trkpt lat="42.87515" lon="0.27111">
        <ele>2749.4</ele>
        <time>2022-02-12T13:07:17Z</time>
      </trkpt>
      <trkpt lat="42.87517" lon="0.27106">
        <ele>2749.4</ele>
        <time>2022-02-12T13:07:18Z</time>
      </trkpt>
      <trkpt lat="42.87519" lon="0.27098">
        <ele>2749.4</ele>
        <time>2022-02-12T13:07:20Z</time>
      </trkpt>
      <trkpt lat="42.87518" lon="0.27094">
        <ele>2749.4</ele>
        <time>2022-02-12T13:07:21Z</time>
      </trkpt>
      <trkpt lat="42.87515" lon="0.27093">
        <ele>2745.2</ele>
        <time>2022-02-12T13:07:22Z</time>
      </trkpt>
      <trkpt lat="42.87512" lon="0.27092">
        <ele>2742.4</ele>
        <time>2022-02-12T13:07:23Z</time>
      </trkpt>
      <trkpt lat="42.8751" lon="0.27087">
        <ele>2740.2</ele>
        <time>2022-02-12T13:07:24Z</time>
      </trkpt>
      <trkpt lat="42.87511" lon="0.27082">
        <ele>2738.6</ele>
        <time>2022-02-12T13:07:25Z</time>
      </trkpt>
      <trkpt lat="42.87511" lon="0.27079">
        <ele>2735.2</ele>
        <time>2022-02-12T13:07:26Z</time>
      </trkpt>
      <trkpt lat="42.87511" lon="0.27078">
        <ele>2733.2</ele>
        <time>2022-02-12T13:07:27Z</time>
      </trkpt>
      <trkpt lat="42.87511" lon="0.27079">
        <ele>2731.8</ele>
        <time>2022-02-12T13:07:29Z</time>
      </trkpt>
      <trkpt lat="42.87512" lon="0.27081">
        <ele>2731</ele>
        <time>2022-02-12T13:07:33Z</time>
      </trkpt>
      <trkpt lat="42.87512" lon="0.27081">
        <ele>2731</ele>
        <time>2022-02-12T13:07:34Z</time>
      </trkpt>
      <trkpt lat="42.87512" lon="0.27081">
        <ele>2731</ele>
        <time>2022-02-12T13:07:42Z</time>
      </trkpt>
      <trkpt lat="42.87512" lon="0.27082">
        <ele>2731</ele>
        <time>2022-02-12T13:07:47Z</time>
      </trkpt>
      <trkpt lat="42.87512" lon="0.27082">
        <ele>2731</ele>
        <time>2022-02-12T13:07:49Z</time>
      </trkpt>
      <trkpt lat="42.87512" lon="0.27082">
        <ele>2731</ele>
        <time>2022-02-12T13:07:51Z</time>
      </trkpt>
      <trkpt lat="42.87512" lon="0.27082">
        <ele>2731</ele>
        <time>2022-02-12T13:07:53Z</time>
      </trkpt>
      <trkpt lat="42.87513" lon="0.27079">
        <ele>2730.8</ele>
        <time>2022-02-12T13:07:57Z</time>
      </trkpt>
      <trkpt lat="42.87513" lon="0.27078">
        <ele>2730.6</ele>
        <time>2022-02-12T13:07:58Z</time>
      </trkpt>
      <trkpt lat="42.87511" lon="0.27072">
        <ele>2729.6</ele>
        <time>2022-02-12T13:08:00Z</time>
      </trkpt>
      <trkpt lat="42.87509" lon="0.27072">
        <ele>2729</ele>
        <time>2022-02-12T13:08:01Z</time>
      </trkpt>
      <trkpt lat="42.87511" lon="0.27072">
        <ele>2727.6</ele>
        <time>2022-02-12T13:08:02Z</time>
      </trkpt>
      <trkpt lat="42.87511" lon="0.27072">
        <ele>2726.4</ele>
        <time>2022-02-12T13:08:03Z</time>
      </trkpt>
      <trkpt lat="42.87515" lon="0.27059">
        <ele>2723.2</ele>
        <time>2022-02-12T13:08:05Z</time>
      </trkpt>
      <trkpt lat="42.87515" lon="0.27056">
        <ele>2720.8</ele>
        <time>2022-02-12T13:08:06Z</time>
      </trkpt>
      <trkpt lat="42.87515" lon="0.27053">
        <ele>2719.2</ele>
        <time>2022-02-12T13:08:07Z</time>
      </trkpt>
      <trkpt lat="42.87515" lon="0.27053">
        <ele>2718.2</ele>
        <time>2022-02-12T13:08:08Z</time>
      </trkpt>
      <trkpt lat="42.87515" lon="0.27053">
        <ele>2717.6</ele>
        <time>2022-02-12T13:08:09Z</time>
      </trkpt>
      <trkpt lat="42.8751" lon="0.27042">
        <ele>2717.2</ele>
        <time>2022-02-12T13:08:10Z</time>
      </trkpt>
      <trkpt lat="42.87511" lon="0.27037">
        <ele>2715.4</ele>
        <time>2022-02-12T13:08:11Z</time>
      </trkpt>
      <trkpt lat="42.87512" lon="0.27034">
        <ele>2713.8</ele>
        <time>2022-02-12T13:08:12Z</time>
      </trkpt>
      <trkpt lat="42.87514" lon="0.27031">
        <ele>2710.8</ele>
        <time>2022-02-12T13:08:13Z</time>
      </trkpt>
      <trkpt lat="42.87515" lon="0.27028">
        <ele>2708</ele>
        <time>2022-02-12T13:08:14Z</time>
      </trkpt>
      <trkpt lat="42.87517" lon="0.27025">
        <ele>2706</ele>
        <time>2022-02-12T13:08:15Z</time>
      </trkpt>
      <trkpt lat="42.87518" lon="0.27021">
        <ele>2705</ele>
        <time>2022-02-12T13:08:16Z</time>
      </trkpt>
      <trkpt lat="42.87522" lon="0.27012">
        <ele>2704</ele>
        <time>2022-02-12T13:08:18Z</time>
      </trkpt>
      <trkpt lat="42.87523" lon="0.27004">
        <ele>2702.6</ele>
        <time>2022-02-12T13:08:20Z</time>
      </trkpt>
      <trkpt lat="42.87523" lon="0.26999">
        <ele>2701.6</ele>
        <time>2022-02-12T13:08:21Z</time>
      </trkpt>
      <trkpt lat="42.87519" lon="0.26995">
        <ele>2701</ele>
        <time>2022-02-12T13:08:22Z</time>
      </trkpt>
      <trkpt lat="42.87518" lon="0.26991">
        <ele>2700.6</ele>
        <time>2022-02-12T13:08:23Z</time>
      </trkpt>
      <trkpt lat="42.87514" lon="0.26987">
        <ele>2700</ele>
        <time>2022-02-12T13:08:24Z</time>
      </trkpt>
      <trkpt lat="42.87512" lon="0.26981">
        <ele>2697.6</ele>
        <time>2022-02-12T13:08:25Z</time>
      </trkpt>
      <trkpt lat="42.87514" lon="0.26972">
        <ele>2696</ele>
        <time>2022-02-12T13:08:26Z</time>
      </trkpt>
      <trkpt lat="42.87517" lon="0.26964">
        <ele>2691.8</ele>
        <time>2022-02-12T13:08:27Z</time>
      </trkpt>
      <trkpt lat="42.87532" lon="0.26957">
        <ele>2688.4</ele>
        <time>2022-02-12T13:08:28Z</time>
      </trkpt>
      <trkpt lat="42.87535" lon="0.26952">
        <ele>2686.2</ele>
        <time>2022-02-12T13:08:29Z</time>
      </trkpt>
      <trkpt lat="42.87536" lon="0.2695">
        <ele>2684.8</ele>
        <time>2022-02-12T13:08:30Z</time>
      </trkpt>
      <trkpt lat="42.87537" lon="0.26948">
        <ele>2684</ele>
        <time>2022-02-12T13:08:31Z</time>
      </trkpt>
      <trkpt lat="42.87537" lon="0.26947">
        <ele>2683.4</ele>
        <time>2022-02-12T13:08:32Z</time>
      </trkpt>
      <trkpt lat="42.87536" lon="0.26947">
        <ele>2683</ele>
        <time>2022-02-12T13:08:34Z</time>
      </trkpt>
      <trkpt lat="42.87536" lon="0.26947">
        <ele>2682.4</ele>
        <time>2022-02-12T13:08:37Z</time>
      </trkpt>
      <trkpt lat="42.87535" lon="0.26949">
        <ele>2682.2</ele>
        <time>2022-02-12T13:08:44Z</time>
      </trkpt>
      <trkpt lat="42.87536" lon="0.26949">
        <ele>2682.4</ele>
        <time>2022-02-12T13:08:49Z</time>
      </trkpt>
      <trkpt lat="42.87537" lon="0.26944">
        <ele>2682.6</ele>
        <time>2022-02-12T13:08:55Z</time>
      </trkpt>
      <trkpt lat="42.87539" lon="0.2694">
        <ele>2681.6</ele>
        <time>2022-02-12T13:08:58Z</time>
      </trkpt>
      <trkpt lat="42.87539" lon="0.2694">
        <ele>2680.8</ele>
        <time>2022-02-12T13:08:59Z</time>
      </trkpt>
      <trkpt lat="42.87537" lon="0.26939">
        <ele>2679.6</ele>
        <time>2022-02-12T13:09:03Z</time>
      </trkpt>
      <trkpt lat="42.87537" lon="0.26939">
        <ele>2679.8</ele>
        <time>2022-02-12T13:09:05Z</time>
      </trkpt>
      <trkpt lat="42.87537" lon="0.26939">
        <ele>2680.2</ele>
        <time>2022-02-12T13:09:10Z</time>
      </trkpt>
      <trkpt lat="42.87538" lon="0.26938">
        <ele>2680</ele>
        <time>2022-02-12T13:09:17Z</time>
      </trkpt>
      <trkpt lat="42.87545" lon="0.26926">
        <ele>2679</ele>
        <time>2022-02-12T13:09:21Z</time>
      </trkpt>
      <trkpt lat="42.87547" lon="0.26922">
        <ele>2678.2</ele>
        <time>2022-02-12T13:09:22Z</time>
      </trkpt>
      <trkpt lat="42.87552" lon="0.26914">
        <ele>2676</ele>
        <time>2022-02-12T13:09:24Z</time>
      </trkpt>
      <trkpt lat="42.87553" lon="0.26911">
        <ele>2674.6</ele>
        <time>2022-02-12T13:09:25Z</time>
      </trkpt>
      <trkpt lat="42.87553" lon="0.26908">
        <ele>2673.2</ele>
        <time>2022-02-12T13:09:26Z</time>
      </trkpt>
      <trkpt lat="42.87552" lon="0.26904">
        <ele>2671.8</ele>
        <time>2022-02-12T13:09:27Z</time>
      </trkpt>
      <trkpt lat="42.87549" lon="0.26897">
        <ele>2670.2</ele>
        <time>2022-02-12T13:09:29Z</time>
      </trkpt>
      <trkpt lat="42.87549" lon="0.26897">
        <ele>2669.6</ele>
        <time>2022-02-12T13:09:30Z</time>
      </trkpt>
      <trkpt lat="42.87549" lon="0.26897">
        <ele>2668</ele>
        <time>2022-02-12T13:09:31Z</time>
      </trkpt>
      <trkpt lat="42.87549" lon="0.26897">
        <ele>2665.8</ele>
        <time>2022-02-12T13:09:32Z</time>
      </trkpt>
      <trkpt lat="42.87551" lon="0.26878">
        <ele>2664</ele>
        <time>2022-02-12T13:09:33Z</time>
      </trkpt>
      <trkpt lat="42.87552" lon="0.26875">
        <ele>2660.8</ele>
        <time>2022-02-12T13:09:34Z</time>
      </trkpt>
      <trkpt lat="42.87552" lon="0.26873">
        <ele>2657.8</ele>
        <time>2022-02-12T13:09:35Z</time>
      </trkpt>
      <trkpt lat="42.87552" lon="0.26872">
        <ele>2655.6</ele>
        <time>2022-02-12T13:09:36Z</time>
      </trkpt>
      <trkpt lat="42.87551" lon="0.26871">
        <ele>2654.4</ele>
        <time>2022-02-12T13:09:37Z</time>
      </trkpt>
      <trkpt lat="42.8755" lon="0.26869">
        <ele>2653.2</ele>
        <time>2022-02-12T13:09:39Z</time>
      </trkpt>
      <trkpt lat="42.8755" lon="0.26861">
        <ele>2652</ele>
        <time>2022-02-12T13:09:42Z</time>
      </trkpt>
      <trkpt lat="42.8755" lon="0.26859">
        <ele>2651.6</ele>
        <time>2022-02-12T13:09:43Z</time>
      </trkpt>
      <trkpt lat="42.87549" lon="0.26854">
        <ele>2650.2</ele>
        <time>2022-02-12T13:09:45Z</time>
      </trkpt>
      <trkpt lat="42.87545" lon="0.26855">
        <ele>2649</ele>
        <time>2022-02-12T13:09:46Z</time>
      </trkpt>
      <trkpt lat="42.87543" lon="0.26855">
        <ele>2647.4</ele>
        <time>2022-02-12T13:09:47Z</time>
      </trkpt>
      <trkpt lat="42.8754" lon="0.26857">
        <ele>2645.8</ele>
        <time>2022-02-12T13:09:48Z</time>
      </trkpt>
      <trkpt lat="42.87538" lon="0.26858">
        <ele>2644.2</ele>
        <time>2022-02-12T13:09:49Z</time>
      </trkpt>
      <trkpt lat="42.87536" lon="0.26857">
        <ele>2642.8</ele>
        <time>2022-02-12T13:09:50Z</time>
      </trkpt>
      <trkpt lat="42.87536" lon="0.26857">
        <ele>2641.2</ele>
        <time>2022-02-12T13:09:52Z</time>
      </trkpt>
      <trkpt lat="42.87536" lon="0.26857">
        <ele>2640</ele>
        <time>2022-02-12T13:09:53Z</time>
      </trkpt>
      <trkpt lat="42.87533" lon="0.26843">
        <ele>2636.2</ele>
        <time>2022-02-12T13:09:55Z</time>
      </trkpt>
      <trkpt lat="42.87532" lon="0.26842">
        <ele>2634.2</ele>
        <time>2022-02-12T13:09:56Z</time>
      </trkpt>
      <trkpt lat="42.87532" lon="0.26842">
        <ele>2633.2</ele>
        <time>2022-02-12T13:09:57Z</time>
      </trkpt>
      <trkpt lat="42.87532" lon="0.26842">
        <ele>2632</ele>
        <time>2022-02-12T13:09:58Z</time>
      </trkpt>
      <trkpt lat="42.87525" lon="0.26849">
        <ele>2629.2</ele>
        <time>2022-02-12T13:10:00Z</time>
      </trkpt>
      <trkpt lat="42.87522" lon="0.26852">
        <ele>2627.2</ele>
        <time>2022-02-12T13:10:01Z</time>
      </trkpt>
      <trkpt lat="42.87521" lon="0.26855">
        <ele>2625.2</ele>
        <time>2022-02-12T13:10:02Z</time>
      </trkpt>
      <trkpt lat="42.87521" lon="0.26856">
        <ele>2623.6</ele>
        <time>2022-02-12T13:10:03Z</time>
      </trkpt>
      <trkpt lat="42.87521" lon="0.26857">
        <ele>2623</ele>
        <time>2022-02-12T13:10:04Z</time>
      </trkpt>
      <trkpt lat="42.87522" lon="0.26857">
        <ele>2622.4</ele>
        <time>2022-02-12T13:10:05Z</time>
      </trkpt>
      <trkpt lat="42.87523" lon="0.26859">
        <ele>2621.4</ele>
        <time>2022-02-12T13:10:10Z</time>
      </trkpt>
      <trkpt lat="42.87523" lon="0.26857">
        <ele>2621.4</ele>
        <time>2022-02-12T13:10:12Z</time>
      </trkpt>
      <trkpt lat="42.87522" lon="0.26857">
        <ele>2621.4</ele>
        <time>2022-02-12T13:10:13Z</time>
      </trkpt>
      <trkpt lat="42.87514" lon="0.26855">
        <ele>2620.8</ele>
        <time>2022-02-12T13:10:17Z</time>
      </trkpt>
      <trkpt lat="42.87511" lon="0.26854">
        <ele>2620.6</ele>
        <time>2022-02-12T13:10:18Z</time>
      </trkpt>
      <trkpt lat="42.8751" lon="0.26851">
        <ele>2620</ele>
        <time>2022-02-12T13:10:19Z</time>
      </trkpt>
      <trkpt lat="42.8751" lon="0.26851">
        <ele>2619.8</ele>
        <time>2022-02-12T13:10:20Z</time>
      </trkpt>
      <trkpt lat="42.8751" lon="0.26844">
        <ele>2618.2</ele>
        <time>2022-02-12T13:10:21Z</time>
      </trkpt>
      <trkpt lat="42.8751" lon="0.26841">
        <ele>2615.8</ele>
        <time>2022-02-12T13:10:22Z</time>
      </trkpt>
      <trkpt lat="42.87511" lon="0.26837">
        <ele>2613.8</ele>
        <time>2022-02-12T13:10:23Z</time>
      </trkpt>
      <trkpt lat="42.87512" lon="0.26835">
        <ele>2612.4</ele>
        <time>2022-02-12T13:10:24Z</time>
      </trkpt>
      <trkpt lat="42.87514" lon="0.26828">
        <ele>2610.4</ele>
        <time>2022-02-12T13:10:26Z</time>
      </trkpt>
      <trkpt lat="42.87515" lon="0.26825">
        <ele>2609.4</ele>
        <time>2022-02-12T13:10:27Z</time>
      </trkpt>
      <trkpt lat="42.87516" lon="0.26823">
        <ele>2608.6</ele>
        <time>2022-02-12T13:10:28Z</time>
      </trkpt>
      <trkpt lat="42.87516" lon="0.26821">
        <ele>2607.2</ele>
        <time>2022-02-12T13:10:29Z</time>
      </trkpt>
      <trkpt lat="42.87516" lon="0.2682">
        <ele>2606</ele>
        <time>2022-02-12T13:10:30Z</time>
      </trkpt>
      <trkpt lat="42.87516" lon="0.26819">
        <ele>2605.4</ele>
        <time>2022-02-12T13:10:31Z</time>
      </trkpt>
      <trkpt lat="42.87516" lon="0.26818">
        <ele>2605</ele>
        <time>2022-02-12T13:10:32Z</time>
      </trkpt>
      <trkpt lat="42.87516" lon="0.26818">
        <ele>2604.4</ele>
        <time>2022-02-12T13:10:33Z</time>
      </trkpt>
      <trkpt lat="42.87516" lon="0.26817">
        <ele>2603.8</ele>
        <time>2022-02-12T13:10:34Z</time>
      </trkpt>
      <trkpt lat="42.87515" lon="0.26816">
        <ele>2603</ele>
        <time>2022-02-12T13:10:36Z</time>
      </trkpt>
      <trkpt lat="42.87514" lon="0.26815">
        <ele>2602.8</ele>
        <time>2022-02-12T13:10:37Z</time>
      </trkpt>
      <trkpt lat="42.87514" lon="0.26815">
        <ele>2602.8</ele>
        <time>2022-02-12T13:10:38Z</time>
      </trkpt>
      <trkpt lat="42.87514" lon="0.26815">
        <ele>2602.8</ele>
        <time>2022-02-12T13:10:39Z</time>
      </trkpt>
      <trkpt lat="42.87514" lon="0.26816">
        <ele>2602.6</ele>
        <time>2022-02-12T13:10:47Z</time>
      </trkpt>
      <trkpt lat="42.87516" lon="0.26809">
        <ele>2602.4</ele>
        <time>2022-02-12T13:10:57Z</time>
      </trkpt>
      <trkpt lat="42.87513" lon="0.26804">
        <ele>2602</ele>
        <time>2022-02-12T13:10:59Z</time>
      </trkpt>
      <trkpt lat="42.8751" lon="0.26801">
        <ele>2601</ele>
        <time>2022-02-12T13:11:00Z</time>
      </trkpt>
      <trkpt lat="42.8751" lon="0.26801">
        <ele>2600</ele>
        <time>2022-02-12T13:11:01Z</time>
      </trkpt>
      <trkpt lat="42.8751" lon="0.26801">
        <ele>2599.2</ele>
        <time>2022-02-12T13:11:02Z</time>
      </trkpt>
      <trkpt lat="42.8751" lon="0.26801">
        <ele>2597</ele>
        <time>2022-02-12T13:11:03Z</time>
      </trkpt>
      <trkpt lat="42.87502" lon="0.26786">
        <ele>2595</ele>
        <time>2022-02-12T13:11:04Z</time>
      </trkpt>
      <trkpt lat="42.87502" lon="0.26786">
        <ele>2592</ele>
        <time>2022-02-12T13:11:05Z</time>
      </trkpt>
      <trkpt lat="42.87502" lon="0.26786">
        <ele>2589.4</ele>
        <time>2022-02-12T13:11:06Z</time>
      </trkpt>
      <trkpt lat="42.87502" lon="0.26786">
        <ele>2587.8</ele>
        <time>2022-02-12T13:11:07Z</time>
      </trkpt>
      <trkpt lat="42.87502" lon="0.26786">
        <ele>2585.2</ele>
        <time>2022-02-12T13:11:08Z</time>
      </trkpt>
      <trkpt lat="42.87493" lon="0.26763">
        <ele>2582.4</ele>
        <time>2022-02-12T13:11:09Z</time>
      </trkpt>
      <trkpt lat="42.87492" lon="0.2676">
        <ele>2577.8</ele>
        <time>2022-02-12T13:11:10Z</time>
      </trkpt>
      <trkpt lat="42.8749" lon="0.26758">
        <ele>2575</ele>
        <time>2022-02-12T13:11:11Z</time>
      </trkpt>
      <trkpt lat="42.8749" lon="0.26758">
        <ele>2573.8</ele>
        <time>2022-02-12T13:11:12Z</time>
      </trkpt>
      <trkpt lat="42.87483" lon="0.26754">
        <ele>2570.8</ele>
        <time>2022-02-12T13:11:14Z</time>
      </trkpt>
      <trkpt lat="42.87483" lon="0.26754">
        <ele>2569.2</ele>
        <time>2022-02-12T13:11:15Z</time>
      </trkpt>
      <trkpt lat="42.87482" lon="0.26754">
        <ele>2566.6</ele>
        <time>2022-02-12T13:11:16Z</time>
      </trkpt>
      <trkpt lat="42.87482" lon="0.26755">
        <ele>2565.2</ele>
        <time>2022-02-12T13:11:17Z</time>
      </trkpt>
      <trkpt lat="42.87483" lon="0.26757">
        <ele>2564.2</ele>
        <time>2022-02-12T13:11:19Z</time>
      </trkpt>
      <trkpt lat="42.87484" lon="0.26759">
        <ele>2563.8</ele>
        <time>2022-02-12T13:11:24Z</time>
      </trkpt>
      <trkpt lat="42.87485" lon="0.26757">
        <ele>2563.8</ele>
        <time>2022-02-12T13:11:27Z</time>
      </trkpt>
      <trkpt lat="42.87485" lon="0.26757">
        <ele>2563.8</ele>
        <time>2022-02-12T13:11:32Z</time>
      </trkpt>
      <trkpt lat="42.87481" lon="0.26755">
        <ele>2564</ele>
        <time>2022-02-12T13:11:38Z</time>
      </trkpt>
      <trkpt lat="42.87481" lon="0.26755">
        <ele>2564</ele>
        <time>2022-02-12T13:11:41Z</time>
      </trkpt>
      <trkpt lat="42.87483" lon="0.26757">
        <ele>2563.8</ele>
        <time>2022-02-12T13:11:47Z</time>
      </trkpt>
      <trkpt lat="42.87483" lon="0.26758">
        <ele>2563.6</ele>
        <time>2022-02-12T13:11:51Z</time>
      </trkpt>
      <trkpt lat="42.87484" lon="0.26759">
        <ele>2564</ele>
        <time>2022-02-12T13:12:00Z</time>
      </trkpt>
      <trkpt lat="42.87481" lon="0.26754">
        <ele>2563.8</ele>
        <time>2022-02-12T13:12:11Z</time>
      </trkpt>
      <trkpt lat="42.87478" lon="0.26748">
        <ele>2562.8</ele>
        <time>2022-02-12T13:12:13Z</time>
      </trkpt>
      <trkpt lat="42.87478" lon="0.26748">
        <ele>2562.2</ele>
        <time>2022-02-12T13:12:14Z</time>
      </trkpt>
      <trkpt lat="42.87478" lon="0.26748">
        <ele>2560.4</ele>
        <time>2022-02-12T13:12:15Z</time>
      </trkpt>
      <trkpt lat="42.87478" lon="0.26748">
        <ele>2559.2</ele>
        <time>2022-02-12T13:12:16Z</time>
      </trkpt>
      <trkpt lat="42.87465" lon="0.26776">
        <ele>2557.8</ele>
        <time>2022-02-12T13:12:17Z</time>
      </trkpt>
      <trkpt lat="42.87463" lon="0.26781">
        <ele>2557</ele>
        <time>2022-02-12T13:12:18Z</time>
      </trkpt>
      <trkpt lat="42.8746" lon="0.26783">
        <ele>2556.4</ele>
        <time>2022-02-12T13:12:19Z</time>
      </trkpt>
      <trkpt lat="42.87455" lon="0.2679">
        <ele>2555.4</ele>
        <time>2022-02-12T13:12:22Z</time>
      </trkpt>
      <trkpt lat="42.87454" lon="0.26792">
        <ele>2555.4</ele>
        <time>2022-02-12T13:12:23Z</time>
      </trkpt>
      <trkpt lat="42.87453" lon="0.26794">
        <ele>2555</ele>
        <time>2022-02-12T13:12:24Z</time>
      </trkpt>
      <trkpt lat="42.87451" lon="0.26797">
        <ele>2554.8</ele>
        <time>2022-02-12T13:12:26Z</time>
      </trkpt>
      <trkpt lat="42.87449" lon="0.26806">
        <ele>2554.8</ele>
        <time>2022-02-12T13:12:31Z</time>
      </trkpt>
      <trkpt lat="42.87448" lon="0.2682">
        <ele>2554.2</ele>
        <time>2022-02-12T13:12:37Z</time>
      </trkpt>
      <trkpt lat="42.87442" lon="0.26832">
        <ele>2553.8</ele>
        <time>2022-02-12T13:12:40Z</time>
      </trkpt>
      <trkpt lat="42.87437" lon="0.26835">
        <ele>2552.6</ele>
        <time>2022-02-12T13:12:42Z</time>
      </trkpt>
      <trkpt lat="42.87437" lon="0.26835">
        <ele>2551.8</ele>
        <time>2022-02-12T13:12:43Z</time>
      </trkpt>
      <trkpt lat="42.87436" lon="0.26835">
        <ele>2551.2</ele>
        <time>2022-02-12T13:12:44Z</time>
      </trkpt>
      <trkpt lat="42.87436" lon="0.26834">
        <ele>2550.8</ele>
        <time>2022-02-12T13:12:45Z</time>
      </trkpt>
      <trkpt lat="42.87436" lon="0.26834">
        <ele>2550.6</ele>
        <time>2022-02-12T13:12:46Z</time>
      </trkpt>
      <trkpt lat="42.87436" lon="0.26833">
        <ele>2550.4</ele>
        <time>2022-02-12T13:12:47Z</time>
      </trkpt>
      <trkpt lat="42.87435" lon="0.26832">
        <ele>2550</ele>
        <time>2022-02-12T13:12:48Z</time>
      </trkpt>
      <trkpt lat="42.87428" lon="0.26829">
        <ele>2550</ele>
        <time>2022-02-12T13:12:55Z</time>
      </trkpt>
      <trkpt lat="42.87423" lon="0.2683">
        <ele>2549.8</ele>
        <time>2022-02-12T13:12:58Z</time>
      </trkpt>
      <trkpt lat="42.87423" lon="0.2683">
        <ele>2549.4</ele>
        <time>2022-02-12T13:12:59Z</time>
      </trkpt>
      <trkpt lat="42.87423" lon="0.2683">
        <ele>2548.8</ele>
        <time>2022-02-12T13:13:00Z</time>
      </trkpt>
      <trkpt lat="42.87417" lon="0.26815">
        <ele>2546.2</ele>
        <time>2022-02-12T13:13:01Z</time>
      </trkpt>
      <trkpt lat="42.87415" lon="0.26814">
        <ele>2544</ele>
        <time>2022-02-12T13:13:02Z</time>
      </trkpt>
      <trkpt lat="42.87412" lon="0.26812">
        <ele>2542.6</ele>
        <time>2022-02-12T13:13:03Z</time>
      </trkpt>
      <trkpt lat="42.87409" lon="0.2681">
        <ele>2541.2</ele>
        <time>2022-02-12T13:13:04Z</time>
      </trkpt>
      <trkpt lat="42.87409" lon="0.2681">
        <ele>2539.8</ele>
        <time>2022-02-12T13:13:05Z</time>
      </trkpt>
      <trkpt lat="42.87409" lon="0.2681">
        <ele>2538.6</ele>
        <time>2022-02-12T13:13:06Z</time>
      </trkpt>
      <trkpt lat="42.87409" lon="0.2681">
        <ele>2537</ele>
        <time>2022-02-12T13:13:07Z</time>
      </trkpt>
      <trkpt lat="42.87409" lon="0.2681">
        <ele>2534.6</ele>
        <time>2022-02-12T13:13:08Z</time>
      </trkpt>
      <trkpt lat="42.87408" lon="0.26788">
        <ele>2532.4</ele>
        <time>2022-02-12T13:13:09Z</time>
      </trkpt>
      <trkpt lat="42.87405" lon="0.26787">
        <ele>2530.8</ele>
        <time>2022-02-12T13:13:10Z</time>
      </trkpt>
      <trkpt lat="42.87405" lon="0.26787">
        <ele>2529.4</ele>
        <time>2022-02-12T13:13:11Z</time>
      </trkpt>
      <trkpt lat="42.87399" lon="0.26784">
        <ele>2527.8</ele>
        <time>2022-02-12T13:13:12Z</time>
      </trkpt>
      <trkpt lat="42.87396" lon="0.26783">
        <ele>2526.2</ele>
        <time>2022-02-12T13:13:13Z</time>
      </trkpt>
      <trkpt lat="42.87396" lon="0.26783">
        <ele>2524.8</ele>
        <time>2022-02-12T13:13:14Z</time>
      </trkpt>
      <trkpt lat="42.87396" lon="0.26783">
        <ele>2523.4</ele>
        <time>2022-02-12T13:13:15Z</time>
      </trkpt>
      <trkpt lat="42.87399" lon="0.26775">
        <ele>2520</ele>
        <time>2022-02-12T13:13:17Z</time>
      </trkpt>
      <trkpt lat="42.874" lon="0.26774">
        <ele>2517.4</ele>
        <time>2022-02-12T13:13:18Z</time>
      </trkpt>
      <trkpt lat="42.87401" lon="0.26774">
        <ele>2515.8</ele>
        <time>2022-02-12T13:13:19Z</time>
      </trkpt>
      <trkpt lat="42.87401" lon="0.26774">
        <ele>2515</ele>
        <time>2022-02-12T13:13:20Z</time>
      </trkpt>
      <trkpt lat="42.87401" lon="0.26774">
        <ele>2514.4</ele>
        <time>2022-02-12T13:13:21Z</time>
      </trkpt>
      <trkpt lat="42.874" lon="0.26777">
        <ele>2513.8</ele>
        <time>2022-02-12T13:13:27Z</time>
      </trkpt>
      <trkpt lat="42.874" lon="0.26769">
        <ele>2514.2</ele>
        <time>2022-02-12T13:13:36Z</time>
      </trkpt>
      <trkpt lat="42.87397" lon="0.26764">
        <ele>2513.4</ele>
        <time>2022-02-12T13:13:38Z</time>
      </trkpt>
      <trkpt lat="42.87394" lon="0.26761">
        <ele>2512.6</ele>
        <time>2022-02-12T13:13:39Z</time>
      </trkpt>
      <trkpt lat="42.87393" lon="0.26757">
        <ele>2511.4</ele>
        <time>2022-02-12T13:13:40Z</time>
      </trkpt>
      <trkpt lat="42.87393" lon="0.26757">
        <ele>2510</ele>
        <time>2022-02-12T13:13:41Z</time>
      </trkpt>
      <trkpt lat="42.87392" lon="0.26752">
        <ele>2508.8</ele>
        <time>2022-02-12T13:13:42Z</time>
      </trkpt>
      <trkpt lat="42.87389" lon="0.26747">
        <ele>2506.2</ele>
        <time>2022-02-12T13:13:43Z</time>
      </trkpt>
      <trkpt lat="42.87387" lon="0.26743">
        <ele>2504.2</ele>
        <time>2022-02-12T13:13:44Z</time>
      </trkpt>
      <trkpt lat="42.87385" lon="0.26739">
        <ele>2502.8</ele>
        <time>2022-02-12T13:13:45Z</time>
      </trkpt>
      <trkpt lat="42.87385" lon="0.26739">
        <ele>2501</ele>
        <time>2022-02-12T13:13:46Z</time>
      </trkpt>
      <trkpt lat="42.87386" lon="0.26729">
        <ele>2499</ele>
        <time>2022-02-12T13:13:47Z</time>
      </trkpt>
      <trkpt lat="42.87387" lon="0.26726">
        <ele>2497.2</ele>
        <time>2022-02-12T13:13:48Z</time>
      </trkpt>
      <trkpt lat="42.87388" lon="0.26722">
        <ele>2493.8</ele>
        <time>2022-02-12T13:13:49Z</time>
      </trkpt>
      <trkpt lat="42.87388" lon="0.26719">
        <ele>2492</ele>
        <time>2022-02-12T13:13:50Z</time>
      </trkpt>
      <trkpt lat="42.87388" lon="0.26715">
        <ele>2490.2</ele>
        <time>2022-02-12T13:13:52Z</time>
      </trkpt>
      <trkpt lat="42.87387" lon="0.26715">
        <ele>2489</ele>
        <time>2022-02-12T13:13:53Z</time>
      </trkpt>
      <trkpt lat="42.87387" lon="0.26715">
        <ele>2488</ele>
        <time>2022-02-12T13:13:54Z</time>
      </trkpt>
      <trkpt lat="42.87387" lon="0.26715">
        <ele>2487.6</ele>
        <time>2022-02-12T13:13:55Z</time>
      </trkpt>
      <trkpt lat="42.87387" lon="0.26716">
        <ele>2487</ele>
        <time>2022-02-12T13:14:02Z</time>
      </trkpt>
      <trkpt lat="42.87386" lon="0.26717">
        <ele>2487.2</ele>
        <time>2022-02-12T13:14:13Z</time>
      </trkpt>
      <trkpt lat="42.87387" lon="0.26717">
        <ele>2487</ele>
        <time>2022-02-12T13:14:14Z</time>
      </trkpt>
      <trkpt lat="42.87387" lon="0.26718">
        <ele>2487.2</ele>
        <time>2022-02-12T13:14:16Z</time>
      </trkpt>
      <trkpt lat="42.87387" lon="0.26719">
        <ele>2487.4</ele>
        <time>2022-02-12T13:14:18Z</time>
      </trkpt>
      <trkpt lat="42.87387" lon="0.2672">
        <ele>2487.4</ele>
        <time>2022-02-12T13:14:19Z</time>
      </trkpt>
      <trkpt lat="42.87387" lon="0.26716">
        <ele>2487.4</ele>
        <time>2022-02-12T13:14:22Z</time>
      </trkpt>
      <trkpt lat="42.87386" lon="0.26713">
        <ele>2487.2</ele>
        <time>2022-02-12T13:14:26Z</time>
      </trkpt>
      <trkpt lat="42.87386" lon="0.26714">
        <ele>2486.4</ele>
        <time>2022-02-12T13:14:33Z</time>
      </trkpt>
      <trkpt lat="42.87386" lon="0.26714">
        <ele>2486.6</ele>
        <time>2022-02-12T13:14:34Z</time>
      </trkpt>
      <trkpt lat="42.87385" lon="0.26704">
        <ele>2486.8</ele>
        <time>2022-02-12T13:14:40Z</time>
      </trkpt>
      <trkpt lat="42.87385" lon="0.26704">
        <ele>2486.6</ele>
        <time>2022-02-12T13:14:41Z</time>
      </trkpt>
      <trkpt lat="42.87378" lon="0.26702">
        <ele>2484.8</ele>
        <time>2022-02-12T13:14:43Z</time>
      </trkpt>
      <trkpt lat="42.87374" lon="0.26702">
        <ele>2483.6</ele>
        <time>2022-02-12T13:14:44Z</time>
      </trkpt>
      <trkpt lat="42.87371" lon="0.26701">
        <ele>2482.4</ele>
        <time>2022-02-12T13:14:45Z</time>
      </trkpt>
      <trkpt lat="42.87371" lon="0.26701">
        <ele>2480.4</ele>
        <time>2022-02-12T13:14:46Z</time>
      </trkpt>
      <trkpt lat="42.87371" lon="0.26701">
        <ele>2479.2</ele>
        <time>2022-02-12T13:14:47Z</time>
      </trkpt>
      <trkpt lat="42.87371" lon="0.26701">
        <ele>2478.4</ele>
        <time>2022-02-12T13:14:48Z</time>
      </trkpt>
      <trkpt lat="42.87367" lon="0.26684">
        <ele>2474.8</ele>
        <time>2022-02-12T13:14:49Z</time>
      </trkpt>
      <trkpt lat="42.87365" lon="0.2668">
        <ele>2472.2</ele>
        <time>2022-02-12T13:14:50Z</time>
      </trkpt>
      <trkpt lat="42.87365" lon="0.2668">
        <ele>2470.4</ele>
        <time>2022-02-12T13:14:51Z</time>
      </trkpt>
      <trkpt lat="42.87365" lon="0.2668">
        <ele>2469.6</ele>
        <time>2022-02-12T13:14:52Z</time>
      </trkpt>
      <trkpt lat="42.87365" lon="0.2668">
        <ele>2468.2</ele>
        <time>2022-02-12T13:14:53Z</time>
      </trkpt>
      <trkpt lat="42.87356" lon="0.26667">
        <ele>2466.8</ele>
        <time>2022-02-12T13:14:54Z</time>
      </trkpt>
      <trkpt lat="42.87355" lon="0.26664">
        <ele>2464.2</ele>
        <time>2022-02-12T13:14:55Z</time>
      </trkpt>
      <trkpt lat="42.87354" lon="0.26662">
        <ele>2461.4</ele>
        <time>2022-02-12T13:14:56Z</time>
      </trkpt>
      <trkpt lat="42.87352" lon="0.26662">
        <ele>2458.2</ele>
        <time>2022-02-12T13:14:57Z</time>
      </trkpt>
      <trkpt lat="42.87352" lon="0.26664">
        <ele>2456.6</ele>
        <time>2022-02-12T13:14:58Z</time>
      </trkpt>
      <trkpt lat="42.8735" lon="0.26665">
        <ele>2454.2</ele>
        <time>2022-02-12T13:14:59Z</time>
      </trkpt>
      <trkpt lat="42.8735" lon="0.26665">
        <ele>2452.6</ele>
        <time>2022-02-12T13:15:00Z</time>
      </trkpt>
      <trkpt lat="42.87349" lon="0.26664">
        <ele>2450.8</ele>
        <time>2022-02-12T13:15:01Z</time>
      </trkpt>
      <trkpt lat="42.87349" lon="0.26663">
        <ele>2449.4</ele>
        <time>2022-02-12T13:15:03Z</time>
      </trkpt>
      <trkpt lat="42.87353" lon="0.26669">
        <ele>2448.8</ele>
        <time>2022-02-12T13:15:13Z</time>
      </trkpt>
      <trkpt lat="42.8734" lon="0.26659">
        <ele>2449.8</ele>
        <time>2022-02-12T13:15:18Z</time>
      </trkpt>
      <trkpt lat="42.87337" lon="0.26656">
        <ele>2448.6</ele>
        <time>2022-02-12T13:15:20Z</time>
      </trkpt>
      <trkpt lat="42.87337" lon="0.26656">
        <ele>2448</ele>
        <time>2022-02-12T13:15:21Z</time>
      </trkpt>
      <trkpt lat="42.87337" lon="0.26656">
        <ele>2444.8</ele>
        <time>2022-02-12T13:15:23Z</time>
      </trkpt>
      <trkpt lat="42.87348" lon="0.26626">
        <ele>2442.2</ele>
        <time>2022-02-12T13:15:24Z</time>
      </trkpt>
      <trkpt lat="42.87347" lon="0.26623">
        <ele>2441</ele>
        <time>2022-02-12T13:15:25Z</time>
      </trkpt>
      <trkpt lat="42.87347" lon="0.26623">
        <ele>2440</ele>
        <time>2022-02-12T13:15:26Z</time>
      </trkpt>
      <trkpt lat="42.87347" lon="0.26623">
        <ele>2439</ele>
        <time>2022-02-12T13:15:27Z</time>
      </trkpt>
      <trkpt lat="42.87347" lon="0.26623">
        <ele>2438.2</ele>
        <time>2022-02-12T13:15:28Z</time>
      </trkpt>
      <trkpt lat="42.87347" lon="0.26623">
        <ele>2437.6</ele>
        <time>2022-02-12T13:15:29Z</time>
      </trkpt>
      <trkpt lat="42.87335" lon="0.26606">
        <ele>2435.6</ele>
        <time>2022-02-12T13:15:30Z</time>
      </trkpt>
      <trkpt lat="42.87335" lon="0.26602">
        <ele>2433</ele>
        <time>2022-02-12T13:15:31Z</time>
      </trkpt>
      <trkpt lat="42.87335" lon="0.26598">
        <ele>2429.8</ele>
        <time>2022-02-12T13:15:32Z</time>
      </trkpt>
      <trkpt lat="42.87334" lon="0.26595">
        <ele>2427.6</ele>
        <time>2022-02-12T13:15:33Z</time>
      </trkpt>
      <trkpt lat="42.87333" lon="0.26592">
        <ele>2426.4</ele>
        <time>2022-02-12T13:15:34Z</time>
      </trkpt>
      <trkpt lat="42.87331" lon="0.2659">
        <ele>2425.8</ele>
        <time>2022-02-12T13:15:35Z</time>
      </trkpt>
      <trkpt lat="42.87331" lon="0.2659">
        <ele>2425.2</ele>
        <time>2022-02-12T13:15:36Z</time>
      </trkpt>
      <trkpt lat="42.87331" lon="0.2659">
        <ele>2424</ele>
        <time>2022-02-12T13:15:37Z</time>
      </trkpt>
      <trkpt lat="42.87321" lon="0.26584">
        <ele>2423</ele>
        <time>2022-02-12T13:15:38Z</time>
      </trkpt>
      <trkpt lat="42.87319" lon="0.26581">
        <ele>2421</ele>
        <time>2022-02-12T13:15:39Z</time>
      </trkpt>
      <trkpt lat="42.87318" lon="0.26578">
        <ele>2418</ele>
        <time>2022-02-12T13:15:40Z</time>
      </trkpt>
      <trkpt lat="42.87316" lon="0.26577">
        <ele>2414.8</ele>
        <time>2022-02-12T13:15:41Z</time>
      </trkpt>
      <trkpt lat="42.87315" lon="0.26578">
        <ele>2413</ele>
        <time>2022-02-12T13:15:42Z</time>
      </trkpt>
      <trkpt lat="42.87315" lon="0.26579">
        <ele>2411.8</ele>
        <time>2022-02-12T13:15:43Z</time>
      </trkpt>
      <trkpt lat="42.87314" lon="0.26579">
        <ele>2409.4</ele>
        <time>2022-02-12T13:15:44Z</time>
      </trkpt>
      <trkpt lat="42.87314" lon="0.26579">
        <ele>2407.4</ele>
        <time>2022-02-12T13:15:45Z</time>
      </trkpt>
      <trkpt lat="42.87314" lon="0.26579">
        <ele>2406.2</ele>
        <time>2022-02-12T13:15:46Z</time>
      </trkpt>
      <trkpt lat="42.87313" lon="0.26579">
        <ele>2405.2</ele>
        <time>2022-02-12T13:15:48Z</time>
      </trkpt>
      <trkpt lat="42.87314" lon="0.2658">
        <ele>2404.8</ele>
        <time>2022-02-12T13:15:50Z</time>
      </trkpt>
      <trkpt lat="42.87316" lon="0.26578">
        <ele>2404.6</ele>
        <time>2022-02-12T13:16:00Z</time>
      </trkpt>
      <trkpt lat="42.87319" lon="0.26584">
        <ele>2404.8</ele>
        <time>2022-02-12T13:16:10Z</time>
      </trkpt>
      <trkpt lat="42.87312" lon="0.26585">
        <ele>2405</ele>
        <time>2022-02-12T13:16:16Z</time>
      </trkpt>
      <trkpt lat="42.87307" lon="0.26579">
        <ele>2404.6</ele>
        <time>2022-02-12T13:16:18Z</time>
      </trkpt>
      <trkpt lat="42.87307" lon="0.26579">
        <ele>2404.2</ele>
        <time>2022-02-12T13:16:19Z</time>
      </trkpt>
      <trkpt lat="42.87303" lon="0.26569">
        <ele>2403.6</ele>
        <time>2022-02-12T13:16:20Z</time>
      </trkpt>
      <trkpt lat="42.873" lon="0.26566">
        <ele>2401.6</ele>
        <time>2022-02-12T13:16:21Z</time>
      </trkpt>
      <trkpt lat="42.87297" lon="0.26561">
        <ele>2399.2</ele>
        <time>2022-02-12T13:16:22Z</time>
      </trkpt>
      <trkpt lat="42.87297" lon="0.26561">
        <ele>2397.6</ele>
        <time>2022-02-12T13:16:23Z</time>
      </trkpt>
      <trkpt lat="42.87297" lon="0.26561">
        <ele>2396</ele>
        <time>2022-02-12T13:16:24Z</time>
      </trkpt>
      <trkpt lat="42.87297" lon="0.26561">
        <ele>2394.4</ele>
        <time>2022-02-12T13:16:25Z</time>
      </trkpt>
      <trkpt lat="42.87295" lon="0.26544">
        <ele>2391.2</ele>
        <time>2022-02-12T13:16:26Z</time>
      </trkpt>
      <trkpt lat="42.87294" lon="0.26544">
        <ele>2388.8</ele>
        <time>2022-02-12T13:16:27Z</time>
      </trkpt>
      <trkpt lat="42.87293" lon="0.26544">
        <ele>2387.4</ele>
        <time>2022-02-12T13:16:28Z</time>
      </trkpt>
      <trkpt lat="42.87292" lon="0.26546">
        <ele>2385.8</ele>
        <time>2022-02-12T13:16:29Z</time>
      </trkpt>
      <trkpt lat="42.87291" lon="0.26547">
        <ele>2383.8</ele>
        <time>2022-02-12T13:16:30Z</time>
      </trkpt>
      <trkpt lat="42.87291" lon="0.26548">
        <ele>2382.2</ele>
        <time>2022-02-12T13:16:31Z</time>
      </trkpt>
      <trkpt lat="42.87291" lon="0.26548">
        <ele>2381.4</ele>
        <time>2022-02-12T13:16:32Z</time>
      </trkpt>
      <trkpt lat="42.87291" lon="0.26548">
        <ele>2380.8</ele>
        <time>2022-02-12T13:16:33Z</time>
      </trkpt>
      <trkpt lat="42.87286" lon="0.26534">
        <ele>2380</ele>
        <time>2022-02-12T13:16:40Z</time>
      </trkpt>
      <trkpt lat="42.87284" lon="0.2653">
        <ele>2380</ele>
        <time>2022-02-12T13:16:41Z</time>
      </trkpt>
      <trkpt lat="42.87284" lon="0.2653">
        <ele>2378.6</ele>
        <time>2022-02-12T13:16:42Z</time>
      </trkpt>
      <trkpt lat="42.87284" lon="0.2653">
        <ele>2376.8</ele>
        <time>2022-02-12T13:16:43Z</time>
      </trkpt>
      <trkpt lat="42.87279" lon="0.26512">
        <ele>2375.6</ele>
        <time>2022-02-12T13:16:44Z</time>
      </trkpt>
      <trkpt lat="42.87278" lon="0.26506">
        <ele>2373.8</ele>
        <time>2022-02-12T13:16:45Z</time>
      </trkpt>
      <trkpt lat="42.87278" lon="0.26501">
        <ele>2370.4</ele>
        <time>2022-02-12T13:16:46Z</time>
      </trkpt>
      <trkpt lat="42.87278" lon="0.26501">
        <ele>2367</ele>
        <time>2022-02-12T13:16:47Z</time>
      </trkpt>
      <trkpt lat="42.87278" lon="0.26501">
        <ele>2364.6</ele>
        <time>2022-02-12T13:16:48Z</time>
      </trkpt>
      <trkpt lat="42.87278" lon="0.26501">
        <ele>2363.2</ele>
        <time>2022-02-12T13:16:49Z</time>
      </trkpt>
      <trkpt lat="42.87278" lon="0.26501">
        <ele>2362.2</ele>
        <time>2022-02-12T13:16:50Z</time>
      </trkpt>
      <trkpt lat="42.87278" lon="0.26501">
        <ele>2359.8</ele>
        <time>2022-02-12T13:16:51Z</time>
      </trkpt>
      <trkpt lat="42.87262" lon="0.26479">
        <ele>2358</ele>
        <time>2022-02-12T13:16:52Z</time>
      </trkpt>
      <trkpt lat="42.87259" lon="0.26476">
        <ele>2355.4</ele>
        <time>2022-02-12T13:16:53Z</time>
      </trkpt>
      <trkpt lat="42.87259" lon="0.26476">
        <ele>2352.8</ele>
        <time>2022-02-12T13:16:54Z</time>
      </trkpt>
      <trkpt lat="42.87259" lon="0.26476">
        <ele>2351.2</ele>
        <time>2022-02-12T13:16:55Z</time>
      </trkpt>
      <trkpt lat="42.87251" lon="0.26468">
        <ele>2350</ele>
        <time>2022-02-12T13:16:56Z</time>
      </trkpt>
      <trkpt lat="42.87251" lon="0.26464">
        <ele>2348.2</ele>
        <time>2022-02-12T13:16:57Z</time>
      </trkpt>
      <trkpt lat="42.87252" lon="0.26462">
        <ele>2346.2</ele>
        <time>2022-02-12T13:16:58Z</time>
      </trkpt>
      <trkpt lat="42.87252" lon="0.2646">
        <ele>2344</ele>
        <time>2022-02-12T13:16:59Z</time>
      </trkpt>
      <trkpt lat="42.87252" lon="0.2646">
        <ele>2342.6</ele>
        <time>2022-02-12T13:17:00Z</time>
      </trkpt>
      <trkpt lat="42.87252" lon="0.2646">
        <ele>2342</ele>
        <time>2022-02-12T13:17:01Z</time>
      </trkpt>
      <trkpt lat="42.87252" lon="0.2646">
        <ele>2341.6</ele>
        <time>2022-02-12T13:17:03Z</time>
      </trkpt>
      <trkpt lat="42.8725" lon="0.26459">
        <ele>2341.8</ele>
        <time>2022-02-12T13:17:15Z</time>
      </trkpt>
      <trkpt lat="42.87252" lon="0.26461">
        <ele>2341.6</ele>
        <time>2022-02-12T13:17:24Z</time>
      </trkpt>
      <trkpt lat="42.8725" lon="0.26456">
        <ele>2341.6</ele>
        <time>2022-02-12T13:17:27Z</time>
      </trkpt>
      <trkpt lat="42.87249" lon="0.26453">
        <ele>2341</ele>
        <time>2022-02-12T13:17:30Z</time>
      </trkpt>
      <trkpt lat="42.87249" lon="0.26453">
        <ele>2339.8</ele>
        <time>2022-02-12T13:17:31Z</time>
      </trkpt>
      <trkpt lat="42.87241" lon="0.2644">
        <ele>2339.2</ele>
        <time>2022-02-12T13:17:32Z</time>
      </trkpt>
      <trkpt lat="42.8724" lon="0.26436">
        <ele>2337.4</ele>
        <time>2022-02-12T13:17:33Z</time>
      </trkpt>
      <trkpt lat="42.87237" lon="0.26432">
        <ele>2335.2</ele>
        <time>2022-02-12T13:17:34Z</time>
      </trkpt>
      <trkpt lat="42.87241" lon="0.26434">
        <ele>2333.8</ele>
        <time>2022-02-12T13:17:35Z</time>
      </trkpt>
      <trkpt lat="42.87237" lon="0.26434">
        <ele>2332.6</ele>
        <time>2022-02-12T13:17:36Z</time>
      </trkpt>
      <trkpt lat="42.87234" lon="0.26432">
        <ele>2331</ele>
        <time>2022-02-12T13:17:37Z</time>
      </trkpt>
      <trkpt lat="42.87233" lon="0.26426">
        <ele>2329.6</ele>
        <time>2022-02-12T13:17:38Z</time>
      </trkpt>
      <trkpt lat="42.87232" lon="0.26417">
        <ele>2327.4</ele>
        <time>2022-02-12T13:17:39Z</time>
      </trkpt>
      <trkpt lat="42.87228" lon="0.26411">
        <ele>2324.6</ele>
        <time>2022-02-12T13:17:40Z</time>
      </trkpt>
      <trkpt lat="42.87223" lon="0.26405">
        <ele>2322.2</ele>
        <time>2022-02-12T13:17:41Z</time>
      </trkpt>
      <trkpt lat="42.87219" lon="0.26396">
        <ele>2319.8</ele>
        <time>2022-02-12T13:17:42Z</time>
      </trkpt>
      <trkpt lat="42.87217" lon="0.26385">
        <ele>2316.2</ele>
        <time>2022-02-12T13:17:43Z</time>
      </trkpt>
      <trkpt lat="42.87218" lon="0.26375">
        <ele>2311.8</ele>
        <time>2022-02-12T13:17:44Z</time>
      </trkpt>
      <trkpt lat="42.87215" lon="0.26369">
        <ele>2314.6</ele>
        <time>2022-02-12T13:17:45Z</time>
      </trkpt>
      <trkpt lat="42.87211" lon="0.26365">
        <ele>2314.6</ele>
        <time>2022-02-12T13:17:46Z</time>
      </trkpt>
      <trkpt lat="42.87207" lon="0.26358">
        <ele>2314.6</ele>
        <time>2022-02-12T13:17:47Z</time>
      </trkpt>
      <trkpt lat="42.87188" lon="0.26334">
        <ele>2311.2</ele>
        <time>2022-02-12T13:17:48Z</time>
      </trkpt>
      <trkpt lat="42.87188" lon="0.26334">
        <ele>2308</ele>
        <time>2022-02-12T13:17:49Z</time>
      </trkpt>
      <trkpt lat="42.87188" lon="0.26334">
        <ele>2305.2</ele>
        <time>2022-02-12T13:17:50Z</time>
      </trkpt>
      <trkpt lat="42.87188" lon="0.26334">
        <ele>2303.6</ele>
        <time>2022-02-12T13:17:51Z</time>
      </trkpt>
      <trkpt lat="42.87188" lon="0.26334">
        <ele>2302</ele>
        <time>2022-02-12T13:17:53Z</time>
      </trkpt>
      <trkpt lat="42.87189" lon="0.26311">
        <ele>2301.4</ele>
        <time>2022-02-12T13:17:55Z</time>
      </trkpt>
      <trkpt lat="42.87188" lon="0.2631">
        <ele>2301.4</ele>
        <time>2022-02-12T13:17:56Z</time>
      </trkpt>
      <trkpt lat="42.87189" lon="0.26309">
        <ele>2301.4</ele>
        <time>2022-02-12T13:18:03Z</time>
      </trkpt>
      <trkpt lat="42.87188" lon="0.26309">
        <ele>2301</ele>
        <time>2022-02-12T13:18:10Z</time>
      </trkpt>
      <trkpt lat="42.87188" lon="0.26312">
        <ele>2300.8</ele>
        <time>2022-02-12T13:18:11Z</time>
      </trkpt>
      <trkpt lat="42.87188" lon="0.26314">
        <ele>2300.8</ele>
        <time>2022-02-12T13:18:19Z</time>
      </trkpt>
      <trkpt lat="42.87187" lon="0.26311">
        <ele>2301</ele>
        <time>2022-02-12T13:18:24Z</time>
      </trkpt>
      <trkpt lat="42.87186" lon="0.26312">
        <ele>2301.2</ele>
        <time>2022-02-12T13:18:28Z</time>
      </trkpt>
      <trkpt lat="42.87188" lon="0.26311">
        <ele>2300.4</ele>
        <time>2022-02-12T13:18:36Z</time>
      </trkpt>
      <trkpt lat="42.87188" lon="0.26312">
        <ele>2300</ele>
        <time>2022-02-12T13:18:40Z</time>
      </trkpt>
      <trkpt lat="42.87187" lon="0.2631">
        <ele>2300</ele>
        <time>2022-02-12T13:18:48Z</time>
      </trkpt>
      <trkpt lat="42.87188" lon="0.26309">
        <ele>2300.4</ele>
        <time>2022-02-12T13:18:58Z</time>
      </trkpt>
      <trkpt lat="42.87189" lon="0.26308">
        <ele>2300.2</ele>
        <time>2022-02-12T13:19:07Z</time>
      </trkpt>
      <trkpt lat="42.8719" lon="0.26303">
        <ele>2300</ele>
        <time>2022-02-12T13:19:11Z</time>
      </trkpt>
      <trkpt lat="42.8719" lon="0.26298">
        <ele>2299.8</ele>
        <time>2022-02-12T13:19:13Z</time>
      </trkpt>
      <trkpt lat="42.8719" lon="0.26297">
        <ele>2299.8</ele>
        <time>2022-02-12T13:19:14Z</time>
      </trkpt>
      <trkpt lat="42.87191" lon="0.2628">
        <ele>2299.2</ele>
        <time>2022-02-12T13:19:20Z</time>
      </trkpt>
      <trkpt lat="42.87195" lon="0.26255">
        <ele>2298.8</ele>
        <time>2022-02-12T13:19:24Z</time>
      </trkpt>
      <trkpt lat="42.87195" lon="0.26247">
        <ele>2298</ele>
        <time>2022-02-12T13:19:25Z</time>
      </trkpt>
      <trkpt lat="42.87195" lon="0.26235">
        <ele>2297</ele>
        <time>2022-02-12T13:19:27Z</time>
      </trkpt>
      <trkpt lat="42.87194" lon="0.26227">
        <ele>2295.8</ele>
        <time>2022-02-12T13:19:28Z</time>
      </trkpt>
      <trkpt lat="42.87192" lon="0.26219">
        <ele>2295</ele>
        <time>2022-02-12T13:19:29Z</time>
      </trkpt>
      <trkpt lat="42.8719" lon="0.26211">
        <ele>2294</ele>
        <time>2022-02-12T13:19:30Z</time>
      </trkpt>
      <trkpt lat="42.87188" lon="0.26204">
        <ele>2291.6</ele>
        <time>2022-02-12T13:19:31Z</time>
      </trkpt>
      <trkpt lat="42.87186" lon="0.26198">
        <ele>2290</ele>
        <time>2022-02-12T13:19:32Z</time>
      </trkpt>
      <trkpt lat="42.87183" lon="0.26193">
        <ele>2289</ele>
        <time>2022-02-12T13:19:33Z</time>
      </trkpt>
      <trkpt lat="42.8718" lon="0.26185">
        <ele>2286.6</ele>
        <time>2022-02-12T13:19:35Z</time>
      </trkpt>
      <trkpt lat="42.87179" lon="0.26183">
        <ele>2284.8</ele>
        <time>2022-02-12T13:19:36Z</time>
      </trkpt>
      <trkpt lat="42.87178" lon="0.26182">
        <ele>2283.8</ele>
        <time>2022-02-12T13:19:37Z</time>
      </trkpt>
      <trkpt lat="42.87178" lon="0.26181">
        <ele>2282.8</ele>
        <time>2022-02-12T13:19:40Z</time>
      </trkpt>
      <trkpt lat="42.87179" lon="0.26184">
        <ele>2282.6</ele>
        <time>2022-02-12T13:19:42Z</time>
      </trkpt>
      <trkpt lat="42.87178" lon="0.26191">
        <ele>2282</ele>
        <time>2022-02-12T13:19:52Z</time>
      </trkpt>
      <trkpt lat="42.87177" lon="0.26191">
        <ele>2281.6</ele>
        <time>2022-02-12T13:19:57Z</time>
      </trkpt>
      <trkpt lat="42.87179" lon="0.2619">
        <ele>2281.6</ele>
        <time>2022-02-12T13:20:00Z</time>
      </trkpt>
      <trkpt lat="42.87179" lon="0.26205">
        <ele>2281.2</ele>
        <time>2022-02-12T13:20:07Z</time>
      </trkpt>
      <trkpt lat="42.87177" lon="0.2621">
        <ele>2280.6</ele>
        <time>2022-02-12T13:20:08Z</time>
      </trkpt>
      <trkpt lat="42.87176" lon="0.26215">
        <ele>2279.8</ele>
        <time>2022-02-12T13:20:09Z</time>
      </trkpt>
      <trkpt lat="42.87171" lon="0.26217">
        <ele>2278.4</ele>
        <time>2022-02-12T13:20:11Z</time>
      </trkpt>
      <trkpt lat="42.87168" lon="0.26214">
        <ele>2277.4</ele>
        <time>2022-02-12T13:20:12Z</time>
      </trkpt>
      <trkpt lat="42.87168" lon="0.26214">
        <ele>2276.4</ele>
        <time>2022-02-12T13:20:13Z</time>
      </trkpt>
      <trkpt lat="42.87163" lon="0.26209">
        <ele>2275.4</ele>
        <time>2022-02-12T13:20:14Z</time>
      </trkpt>
      <trkpt lat="42.8716" lon="0.26211">
        <ele>2272.6</ele>
        <time>2022-02-12T13:20:15Z</time>
      </trkpt>
      <trkpt lat="42.87157" lon="0.26213">
        <ele>2271</ele>
        <time>2022-02-12T13:20:16Z</time>
      </trkpt>
      <trkpt lat="42.87154" lon="0.26214">
        <ele>2270</ele>
        <time>2022-02-12T13:20:17Z</time>
      </trkpt>
      <trkpt lat="42.8715" lon="0.26214">
        <ele>2268.8</ele>
        <time>2022-02-12T13:20:18Z</time>
      </trkpt>
      <trkpt lat="42.87145" lon="0.26212">
        <ele>2266.8</ele>
        <time>2022-02-12T13:20:20Z</time>
      </trkpt>
      <trkpt lat="42.87145" lon="0.26212">
        <ele>2265.8</ele>
        <time>2022-02-12T13:20:21Z</time>
      </trkpt>
      <trkpt lat="42.87142" lon="0.26206">
        <ele>2265</ele>
        <time>2022-02-12T13:20:22Z</time>
      </trkpt>
      <trkpt lat="42.87141" lon="0.26204">
        <ele>2262.2</ele>
        <time>2022-02-12T13:20:23Z</time>
      </trkpt>
      <trkpt lat="42.87141" lon="0.26204">
        <ele>2260</ele>
        <time>2022-02-12T13:20:24Z</time>
      </trkpt>
      <trkpt lat="42.87141" lon="0.26204">
        <ele>2258.8</ele>
        <time>2022-02-12T13:20:25Z</time>
      </trkpt>
      <trkpt lat="42.87142" lon="0.26204">
        <ele>2258.2</ele>
        <time>2022-02-12T13:20:26Z</time>
      </trkpt>
      <trkpt lat="42.87142" lon="0.26204">
        <ele>2257.6</ele>
        <time>2022-02-12T13:20:28Z</time>
      </trkpt>
      <trkpt lat="42.87143" lon="0.26197">
        <ele>2257.6</ele>
        <time>2022-02-12T13:20:32Z</time>
      </trkpt>
      <trkpt lat="42.87143" lon="0.26196">
        <ele>2256.2</ele>
        <time>2022-02-12T13:20:34Z</time>
      </trkpt>
      <trkpt lat="42.87142" lon="0.26196">
        <ele>2255.2</ele>
        <time>2022-02-12T13:20:35Z</time>
      </trkpt>
      <trkpt lat="42.87141" lon="0.26194">
        <ele>2253.6</ele>
        <time>2022-02-12T13:20:37Z</time>
      </trkpt>
      <trkpt lat="42.87141" lon="0.26193">
        <ele>2252.6</ele>
        <time>2022-02-12T13:20:40Z</time>
      </trkpt>
      <trkpt lat="42.87141" lon="0.26193">
        <ele>2252.2</ele>
        <time>2022-02-12T13:20:41Z</time>
      </trkpt>
      <trkpt lat="42.87141" lon="0.26191">
        <ele>2251</ele>
        <time>2022-02-12T13:20:44Z</time>
      </trkpt>
      <trkpt lat="42.8714" lon="0.2619">
        <ele>2249.6</ele>
        <time>2022-02-12T13:20:47Z</time>
      </trkpt>
      <trkpt lat="42.8714" lon="0.26189">
        <ele>2248.6</ele>
        <time>2022-02-12T13:20:51Z</time>
      </trkpt>
      <trkpt lat="42.87143" lon="0.26186">
        <ele>2248</ele>
        <time>2022-02-12T13:20:53Z</time>
      </trkpt>
      <trkpt lat="42.87145" lon="0.26184">
        <ele>2247.6</ele>
        <time>2022-02-12T13:20:54Z</time>
      </trkpt>
      <trkpt lat="42.87146" lon="0.26183">
        <ele>2246.6</ele>
        <time>2022-02-12T13:20:56Z</time>
      </trkpt>
      <trkpt lat="42.87146" lon="0.26183">
        <ele>2246.4</ele>
        <time>2022-02-12T13:20:57Z</time>
      </trkpt>
      <trkpt lat="42.87146" lon="0.26183">
        <ele>2246</ele>
        <time>2022-02-12T13:20:58Z</time>
      </trkpt>
      <trkpt lat="42.87147" lon="0.2618">
        <ele>2245.2</ele>
        <time>2022-02-12T13:21:02Z</time>
      </trkpt>
      <trkpt lat="42.87149" lon="0.26176">
        <ele>2244.8</ele>
        <time>2022-02-12T13:21:04Z</time>
      </trkpt>
      <trkpt lat="42.8715" lon="0.26175">
        <ele>2243.8</ele>
        <time>2022-02-12T13:21:06Z</time>
      </trkpt>
      <trkpt lat="42.87149" lon="0.26175">
        <ele>2243</ele>
        <time>2022-02-12T13:21:07Z</time>
      </trkpt>
      <trkpt lat="42.87149" lon="0.26174">
        <ele>2242.6</ele>
        <time>2022-02-12T13:21:08Z</time>
      </trkpt>
      <trkpt lat="42.87146" lon="0.26169">
        <ele>2242</ele>
        <time>2022-02-12T13:21:13Z</time>
      </trkpt>
      <trkpt lat="42.87146" lon="0.26169">
        <ele>2240</ele>
        <time>2022-02-12T13:21:15Z</time>
      </trkpt>
      <trkpt lat="42.87153" lon="0.26137">
        <ele>2237.8</ele>
        <time>2022-02-12T13:21:16Z</time>
      </trkpt>
      <trkpt lat="42.87154" lon="0.26135">
        <ele>2235.8</ele>
        <time>2022-02-12T13:21:17Z</time>
      </trkpt>
      <trkpt lat="42.87154" lon="0.26132">
        <ele>2234.8</ele>
        <time>2022-02-12T13:21:18Z</time>
      </trkpt>
      <trkpt lat="42.87155" lon="0.26131">
        <ele>2233.8</ele>
        <time>2022-02-12T13:21:19Z</time>
      </trkpt>
      <trkpt lat="42.87157" lon="0.26127">
        <ele>2232.4</ele>
        <time>2022-02-12T13:21:21Z</time>
      </trkpt>
      <trkpt lat="42.8716" lon="0.26125">
        <ele>2231.4</ele>
        <time>2022-02-12T13:21:23Z</time>
      </trkpt>
      <trkpt lat="42.87161" lon="0.26123">
        <ele>2230.2</ele>
        <time>2022-02-12T13:21:25Z</time>
      </trkpt>
      <trkpt lat="42.87161" lon="0.26122">
        <ele>2229.4</ele>
        <time>2022-02-12T13:21:27Z</time>
      </trkpt>
      <trkpt lat="42.87162" lon="0.26121">
        <ele>2228.8</ele>
        <time>2022-02-12T13:21:28Z</time>
      </trkpt>
      <trkpt lat="42.87161" lon="0.26112">
        <ele>2227.6</ele>
        <time>2022-02-12T13:21:32Z</time>
      </trkpt>
      <trkpt lat="42.8716" lon="0.2611">
        <ele>2227</ele>
        <time>2022-02-12T13:21:33Z</time>
      </trkpt>
      <trkpt lat="42.87159" lon="0.26109">
        <ele>2226.4</ele>
        <time>2022-02-12T13:21:34Z</time>
      </trkpt>
      <trkpt lat="42.87159" lon="0.26109">
        <ele>2224.4</ele>
        <time>2022-02-12T13:21:35Z</time>
      </trkpt>
      <trkpt lat="42.87159" lon="0.26108">
        <ele>2222.8</ele>
        <time>2022-02-12T13:21:36Z</time>
      </trkpt>
      <trkpt lat="42.87159" lon="0.26108">
        <ele>2221.6</ele>
        <time>2022-02-12T13:21:37Z</time>
      </trkpt>
      <trkpt lat="42.87159" lon="0.2611">
        <ele>2220.6</ele>
        <time>2022-02-12T13:21:39Z</time>
      </trkpt>
      <trkpt lat="42.87158" lon="0.2611">
        <ele>2220.4</ele>
        <time>2022-02-12T13:21:40Z</time>
      </trkpt>
      <trkpt lat="42.87159" lon="0.26107">
        <ele>2220</ele>
        <time>2022-02-12T13:21:47Z</time>
      </trkpt>
      <trkpt lat="42.87156" lon="0.26104">
        <ele>2220</ele>
        <time>2022-02-12T13:21:52Z</time>
      </trkpt>
      <trkpt lat="42.87158" lon="0.26094">
        <ele>2219.8</ele>
        <time>2022-02-12T13:21:53Z</time>
      </trkpt>
      <trkpt lat="42.87159" lon="0.26092">
        <ele>2218.8</ele>
        <time>2022-02-12T13:21:54Z</time>
      </trkpt>
      <trkpt lat="42.87159" lon="0.2609">
        <ele>2217</ele>
        <time>2022-02-12T13:21:55Z</time>
      </trkpt>
      <trkpt lat="42.87159" lon="0.2609">
        <ele>2215.6</ele>
        <time>2022-02-12T13:21:56Z</time>
      </trkpt>
      <trkpt lat="42.87159" lon="0.26089">
        <ele>2214.6</ele>
        <time>2022-02-12T13:21:57Z</time>
      </trkpt>
      <trkpt lat="42.87159" lon="0.26089">
        <ele>2213.8</ele>
        <time>2022-02-12T13:21:58Z</time>
      </trkpt>
      <trkpt lat="42.8716" lon="0.26088">
        <ele>2213.4</ele>
        <time>2022-02-12T13:21:59Z</time>
      </trkpt>
      <trkpt lat="42.87163" lon="0.26088">
        <ele>2212.4</ele>
        <time>2022-02-12T13:22:05Z</time>
      </trkpt>
      <trkpt lat="42.87162" lon="0.26091">
        <ele>2212.4</ele>
        <time>2022-02-12T13:22:07Z</time>
      </trkpt>
      <trkpt lat="42.87168" lon="0.2611">
        <ele>2212.8</ele>
        <time>2022-02-12T13:22:18Z</time>
      </trkpt>
      <trkpt lat="42.8717" lon="0.26106">
        <ele>2212.6</ele>
        <time>2022-02-12T13:22:25Z</time>
      </trkpt>
      <trkpt lat="42.87168" lon="0.2611">
        <ele>2212.6</ele>
        <time>2022-02-12T13:22:32Z</time>
      </trkpt>
      <trkpt lat="42.87155" lon="0.26086">
        <ele>2212.6</ele>
        <time>2022-02-12T13:22:41Z</time>
      </trkpt>
      <trkpt lat="42.87153" lon="0.26085">
        <ele>2212.6</ele>
        <time>2022-02-12T13:22:42Z</time>
      </trkpt>
      <trkpt lat="42.87151" lon="0.26084">
        <ele>2212</ele>
        <time>2022-02-12T13:22:43Z</time>
      </trkpt>
      <trkpt lat="42.87149" lon="0.26084">
        <ele>2210.6</ele>
        <time>2022-02-12T13:22:44Z</time>
      </trkpt>
      <trkpt lat="42.87148" lon="0.26083">
        <ele>2208.8</ele>
        <time>2022-02-12T13:22:45Z</time>
      </trkpt>
      <trkpt lat="42.87148" lon="0.26083">
        <ele>2207.6</ele>
        <time>2022-02-12T13:22:46Z</time>
      </trkpt>
      <trkpt lat="42.87148" lon="0.26083">
        <ele>2206.4</ele>
        <time>2022-02-12T13:22:47Z</time>
      </trkpt>
      <trkpt lat="42.87147" lon="0.26084">
        <ele>2205</ele>
        <time>2022-02-12T13:22:49Z</time>
      </trkpt>
      <trkpt lat="42.87148" lon="0.26083">
        <ele>2203.8</ele>
        <time>2022-02-12T13:22:52Z</time>
      </trkpt>
      <trkpt lat="42.87149" lon="0.26079">
        <ele>2203.8</ele>
        <time>2022-02-12T13:23:00Z</time>
      </trkpt>
      <trkpt lat="42.87149" lon="0.26083">
        <ele>2204</ele>
        <time>2022-02-12T13:23:04Z</time>
      </trkpt>
      <trkpt lat="42.87149" lon="0.26082">
        <ele>2203.8</ele>
        <time>2022-02-12T13:23:10Z</time>
      </trkpt>
      <trkpt lat="42.8715" lon="0.2608">
        <ele>2204</ele>
        <time>2022-02-12T13:23:15Z</time>
      </trkpt>
      <trkpt lat="42.87149" lon="0.26078">
        <ele>2204</ele>
        <time>2022-02-12T13:23:23Z</time>
      </trkpt>
      <trkpt lat="42.87151" lon="0.26074">
        <ele>2203.6</ele>
        <time>2022-02-12T13:23:25Z</time>
      </trkpt>
      <trkpt lat="42.87155" lon="0.26071">
        <ele>2201.8</ele>
        <time>2022-02-12T13:23:27Z</time>
      </trkpt>
      <trkpt lat="42.87157" lon="0.26069">
        <ele>2200.8</ele>
        <time>2022-02-12T13:23:28Z</time>
      </trkpt>
      <trkpt lat="42.8716" lon="0.26066">
        <ele>2200.2</ele>
        <time>2022-02-12T13:23:29Z</time>
      </trkpt>
      <trkpt lat="42.87164" lon="0.26061">
        <ele>2199.6</ele>
        <time>2022-02-12T13:23:31Z</time>
      </trkpt>
      <trkpt lat="42.87166" lon="0.26057">
        <ele>2198.8</ele>
        <time>2022-02-12T13:23:33Z</time>
      </trkpt>
      <trkpt lat="42.87166" lon="0.26055">
        <ele>2198.2</ele>
        <time>2022-02-12T13:23:34Z</time>
      </trkpt>
      <trkpt lat="42.87165" lon="0.26051">
        <ele>2197.8</ele>
        <time>2022-02-12T13:23:35Z</time>
      </trkpt>
      <trkpt lat="42.87165" lon="0.26051">
        <ele>2197</ele>
        <time>2022-02-12T13:23:36Z</time>
      </trkpt>
      <trkpt lat="42.87165" lon="0.26051">
        <ele>2196.6</ele>
        <time>2022-02-12T13:23:37Z</time>
      </trkpt>
      <trkpt lat="42.87158" lon="0.2604">
        <ele>2193.6</ele>
        <time>2022-02-12T13:23:39Z</time>
      </trkpt>
      <trkpt lat="42.87158" lon="0.2604">
        <ele>2190.8</ele>
        <time>2022-02-12T13:23:40Z</time>
      </trkpt>
      <trkpt lat="42.87158" lon="0.26029">
        <ele>2188.4</ele>
        <time>2022-02-12T13:23:41Z</time>
      </trkpt>
      <trkpt lat="42.87156" lon="0.26025">
        <ele>2185.2</ele>
        <time>2022-02-12T13:23:42Z</time>
      </trkpt>
      <trkpt lat="42.87154" lon="0.2602">
        <ele>2182.4</ele>
        <time>2022-02-12T13:23:43Z</time>
      </trkpt>
      <trkpt lat="42.87154" lon="0.2602">
        <ele>2180.8</ele>
        <time>2022-02-12T13:23:44Z</time>
      </trkpt>
      <trkpt lat="42.87154" lon="0.2602">
        <ele>2178.2</ele>
        <time>2022-02-12T13:23:45Z</time>
      </trkpt>
      <trkpt lat="42.87146" lon="0.26004">
        <ele>2175.4</ele>
        <time>2022-02-12T13:23:46Z</time>
      </trkpt>
      <trkpt lat="42.87143" lon="0.25996">
        <ele>2172.4</ele>
        <time>2022-02-12T13:23:47Z</time>
      </trkpt>
      <trkpt lat="42.87143" lon="0.25996">
        <ele>2169.2</ele>
        <time>2022-02-12T13:23:48Z</time>
      </trkpt>
      <trkpt lat="42.87143" lon="0.25996">
        <ele>2165.8</ele>
        <time>2022-02-12T13:23:49Z</time>
      </trkpt>
      <trkpt lat="42.87145" lon="0.25972">
        <ele>2162.2</ele>
        <time>2022-02-12T13:23:50Z</time>
      </trkpt>
      <trkpt lat="42.87146" lon="0.25968">
        <ele>2158.6</ele>
        <time>2022-02-12T13:23:51Z</time>
      </trkpt>
      <trkpt lat="42.87146" lon="0.25966">
        <ele>2156.6</ele>
        <time>2022-02-12T13:23:52Z</time>
      </trkpt>
      <trkpt lat="42.87145" lon="0.25964">
        <ele>2155.2</ele>
        <time>2022-02-12T13:23:54Z</time>
      </trkpt>
      <trkpt lat="42.87144" lon="0.25964">
        <ele>2155</ele>
        <time>2022-02-12T13:23:55Z</time>
      </trkpt>
      <trkpt lat="42.87144" lon="0.25965">
        <ele>2155</ele>
        <time>2022-02-12T13:23:57Z</time>
      </trkpt>
      <trkpt lat="42.87144" lon="0.25965">
        <ele>2155</ele>
        <time>2022-02-12T13:24:04Z</time>
      </trkpt>
      <trkpt lat="42.87143" lon="0.25965">
        <ele>2155</ele>
        <time>2022-02-12T13:24:07Z</time>
      </trkpt>
      <trkpt lat="42.87142" lon="0.25965">
        <ele>2155</ele>
        <time>2022-02-12T13:24:09Z</time>
      </trkpt>
      <trkpt lat="42.87143" lon="0.25965">
        <ele>2154.6</ele>
        <time>2022-02-12T13:24:11Z</time>
      </trkpt>
      <trkpt lat="42.87144" lon="0.25968">
        <ele>2154.6</ele>
        <time>2022-02-12T13:24:18Z</time>
      </trkpt>
      <trkpt lat="42.87144" lon="0.25967">
        <ele>2154.8</ele>
        <time>2022-02-12T13:24:19Z</time>
      </trkpt>
      <trkpt lat="42.87145" lon="0.25964">
        <ele>2154.6</ele>
        <time>2022-02-12T13:24:26Z</time>
      </trkpt>
      <trkpt lat="42.87145" lon="0.25965">
        <ele>2154.4</ele>
        <time>2022-02-12T13:24:31Z</time>
      </trkpt>
      <trkpt lat="42.87146" lon="0.25965">
        <ele>2154.2</ele>
        <time>2022-02-12T13:24:34Z</time>
      </trkpt>
      <trkpt lat="42.87146" lon="0.25967">
        <ele>2154.4</ele>
        <time>2022-02-12T13:24:37Z</time>
      </trkpt>
      <trkpt lat="42.87146" lon="0.25969">
        <ele>2154.6</ele>
        <time>2022-02-12T13:24:40Z</time>
      </trkpt>
      <trkpt lat="42.87146" lon="0.25969">
        <ele>2154.8</ele>
        <time>2022-02-12T13:24:42Z</time>
      </trkpt>
      <trkpt lat="42.87149" lon="0.25972">
        <ele>2155</ele>
        <time>2022-02-12T13:24:48Z</time>
      </trkpt>
      <trkpt lat="42.87147" lon="0.25972">
        <ele>2156</ele>
        <time>2022-02-12T13:24:55Z</time>
      </trkpt>
      <trkpt lat="42.87147" lon="0.25972">
        <ele>2156.2</ele>
        <time>2022-02-12T13:24:58Z</time>
      </trkpt>
      <trkpt lat="42.87147" lon="0.25971">
        <ele>2156.4</ele>
        <time>2022-02-12T13:25:01Z</time>
      </trkpt>
      <trkpt lat="42.87147" lon="0.25971">
        <ele>2156.4</ele>
        <time>2022-02-12T13:25:03Z</time>
      </trkpt>
      <trkpt lat="42.87147" lon="0.2597">
        <ele>2156.4</ele>
        <time>2022-02-12T13:25:04Z</time>
      </trkpt>
      <trkpt lat="42.87148" lon="0.25971">
        <ele>2156.4</ele>
        <time>2022-02-12T13:25:08Z</time>
      </trkpt>
      <trkpt lat="42.87145" lon="0.25967">
        <ele>2156.8</ele>
        <time>2022-02-12T13:25:15Z</time>
      </trkpt>
      <trkpt lat="42.87146" lon="0.25967">
        <ele>2155.8</ele>
        <time>2022-02-12T13:25:24Z</time>
      </trkpt>
      <trkpt lat="42.87146" lon="0.25969">
        <ele>2156.4</ele>
        <time>2022-02-12T13:25:32Z</time>
      </trkpt>
      <trkpt lat="42.87147" lon="0.25968">
        <ele>2156.2</ele>
        <time>2022-02-12T13:25:39Z</time>
      </trkpt>
      <trkpt lat="42.87147" lon="0.25966">
        <ele>2156.6</ele>
        <time>2022-02-12T13:25:49Z</time>
      </trkpt>
      <trkpt lat="42.87146" lon="0.25968">
        <ele>2155.8</ele>
        <time>2022-02-12T13:25:59Z</time>
      </trkpt>
      <trkpt lat="42.87148" lon="0.25966">
        <ele>2155.6</ele>
        <time>2022-02-12T13:26:10Z</time>
      </trkpt>
      <trkpt lat="42.87147" lon="0.25966">
        <ele>2155.6</ele>
        <time>2022-02-12T13:26:11Z</time>
      </trkpt>
      <trkpt lat="42.87142" lon="0.25968">
        <ele>2156.2</ele>
        <time>2022-02-12T13:26:19Z</time>
      </trkpt>
      <trkpt lat="42.87144" lon="0.25969">
        <ele>2156</ele>
        <time>2022-02-12T13:26:22Z</time>
      </trkpt>
      <trkpt lat="42.87146" lon="0.25972">
        <ele>2155.8</ele>
        <time>2022-02-12T13:26:29Z</time>
      </trkpt>
      <trkpt lat="42.87146" lon="0.25971">
        <ele>2156</ele>
        <time>2022-02-12T13:26:31Z</time>
      </trkpt>
      <trkpt lat="42.87147" lon="0.25971">
        <ele>2155.8</ele>
        <time>2022-02-12T13:26:37Z</time>
      </trkpt>
      <trkpt lat="42.87146" lon="0.25968">
        <ele>2156.2</ele>
        <time>2022-02-12T13:26:46Z</time>
      </trkpt>
      <trkpt lat="42.87146" lon="0.25969">
        <ele>2156.2</ele>
        <time>2022-02-12T13:26:51Z</time>
      </trkpt>
      <trkpt lat="42.87146" lon="0.25969">
        <ele>2156.4</ele>
        <time>2022-02-12T13:26:54Z</time>
      </trkpt>
      <trkpt lat="42.87145" lon="0.25971">
        <ele>2155.2</ele>
        <time>2022-02-12T13:27:01Z</time>
      </trkpt>
      <trkpt lat="42.87144" lon="0.25967">
        <ele>2155.6</ele>
        <time>2022-02-12T13:27:05Z</time>
      </trkpt>
      <trkpt lat="42.87144" lon="0.25966">
        <ele>2155.8</ele>
        <time>2022-02-12T13:27:06Z</time>
      </trkpt>
      <trkpt lat="42.87145" lon="0.25965">
        <ele>2156</ele>
        <time>2022-02-12T13:27:14Z</time>
      </trkpt>
      <trkpt lat="42.87146" lon="0.25965">
        <ele>2156</ele>
        <time>2022-02-12T13:27:21Z</time>
      </trkpt>
      <trkpt lat="42.87145" lon="0.25966">
        <ele>2156</ele>
        <time>2022-02-12T13:27:28Z</time>
      </trkpt>
      <trkpt lat="42.87147" lon="0.25967">
        <ele>2156</ele>
        <time>2022-02-12T13:27:37Z</time>
      </trkpt>
      <trkpt lat="42.87145" lon="0.25968">
        <ele>2156</ele>
        <time>2022-02-12T13:27:42Z</time>
      </trkpt>
      <trkpt lat="42.87145" lon="0.25968">
        <ele>2156</ele>
        <time>2022-02-12T13:27:48Z</time>
      </trkpt>
      <trkpt lat="42.87145" lon="0.25968">
        <ele>2156</ele>
        <time>2022-02-12T13:27:57Z</time>
      </trkpt>
      <trkpt lat="42.87145" lon="0.25966">
        <ele>2156</ele>
        <time>2022-02-12T13:28:07Z</time>
      </trkpt>
      <trkpt lat="42.87145" lon="0.25966">
        <ele>2156</ele>
        <time>2022-02-12T13:28:18Z</time>
      </trkpt>
      <trkpt lat="42.87145" lon="0.25966">
        <ele>2156</ele>
        <time>2022-02-12T13:28:19Z</time>
      </trkpt>
      <trkpt lat="42.87146" lon="0.25966">
        <ele>2156</ele>
        <time>2022-02-12T13:28:28Z</time>
      </trkpt>
      <trkpt lat="42.87146" lon="0.25966">
        <ele>2156</ele>
        <time>2022-02-12T13:28:34Z</time>
      </trkpt>
      <trkpt lat="42.87145" lon="0.25965">
        <ele>2156</ele>
        <time>2022-02-12T13:28:42Z</time>
      </trkpt>
      <trkpt lat="42.87144" lon="0.25966">
        <ele>2156</ele>
        <time>2022-02-12T13:28:48Z</time>
      </trkpt>
      <trkpt lat="42.87145" lon="0.25963">
        <ele>2156</ele>
        <time>2022-02-12T13:28:53Z</time>
      </trkpt>
      <trkpt lat="42.87144" lon="0.25963">
        <ele>2156</ele>
        <time>2022-02-12T13:28:58Z</time>
      </trkpt>
      <trkpt lat="42.87145" lon="0.25963">
        <ele>2156</ele>
        <time>2022-02-12T13:29:00Z</time>
      </trkpt>
      <trkpt lat="42.87144" lon="0.25961">
        <ele>2156</ele>
        <time>2022-02-12T13:29:10Z</time>
      </trkpt>
      <trkpt lat="42.87138" lon="0.25953">
        <ele>2156</ele>
        <time>2022-02-12T13:29:14Z</time>
      </trkpt>
      <trkpt lat="42.87131" lon="0.2595">
        <ele>2156</ele>
        <time>2022-02-12T13:29:16Z</time>
      </trkpt>
      <trkpt lat="42.87126" lon="0.2595">
        <ele>2156</ele>
        <time>2022-02-12T13:29:17Z</time>
      </trkpt>
      <trkpt lat="42.87121" lon="0.25951">
        <ele>2156</ele>
        <time>2022-02-12T13:29:18Z</time>
      </trkpt>
      <trkpt lat="42.87116" lon="0.25951">
        <ele>2151.8</ele>
        <time>2022-02-12T13:29:19Z</time>
      </trkpt>
      <trkpt lat="42.87111" lon="0.25951">
        <ele>2149.8</ele>
        <time>2022-02-12T13:29:20Z</time>
      </trkpt>
      <trkpt lat="42.87105" lon="0.25952">
        <ele>2147.4</ele>
        <time>2022-02-12T13:29:21Z</time>
      </trkpt>
      <trkpt lat="42.87099" lon="0.25951">
        <ele>2144.8</ele>
        <time>2022-02-12T13:29:22Z</time>
      </trkpt>
      <trkpt lat="42.87094" lon="0.25952">
        <ele>2142.2</ele>
        <time>2022-02-12T13:29:23Z</time>
      </trkpt>
      <trkpt lat="42.87089" lon="0.25955">
        <ele>2139.6</ele>
        <time>2022-02-12T13:29:24Z</time>
      </trkpt>
      <trkpt lat="42.87089" lon="0.25955">
        <ele>2136</ele>
        <time>2022-02-12T13:29:25Z</time>
      </trkpt>
      <trkpt lat="42.87089" lon="0.25955">
        <ele>2134</ele>
        <time>2022-02-12T13:29:26Z</time>
      </trkpt>
      <trkpt lat="42.87071" lon="0.25965">
        <ele>2132.6</ele>
        <time>2022-02-12T13:29:27Z</time>
      </trkpt>
      <trkpt lat="42.87065" lon="0.25966">
        <ele>2130.2</ele>
        <time>2022-02-12T13:29:28Z</time>
      </trkpt>
      <trkpt lat="42.87061" lon="0.2597">
        <ele>2126.8</ele>
        <time>2022-02-12T13:29:29Z</time>
      </trkpt>
      <trkpt lat="42.87061" lon="0.2597">
        <ele>2124</ele>
        <time>2022-02-12T13:29:30Z</time>
      </trkpt>
      <trkpt lat="42.87052" lon="0.25977">
        <ele>2122</ele>
        <time>2022-02-12T13:29:31Z</time>
      </trkpt>
      <trkpt lat="42.87048" lon="0.25977">
        <ele>2120.4</ele>
        <time>2022-02-12T13:29:32Z</time>
      </trkpt>
      <trkpt lat="42.87044" lon="0.25979">
        <ele>2118.6</ele>
        <time>2022-02-12T13:29:33Z</time>
      </trkpt>
      <trkpt lat="42.87039" lon="0.25983">
        <ele>2116.6</ele>
        <time>2022-02-12T13:29:34Z</time>
      </trkpt>
      <trkpt lat="42.87035" lon="0.25987">
        <ele>2114.4</ele>
        <time>2022-02-12T13:29:35Z</time>
      </trkpt>
      <trkpt lat="42.8703" lon="0.25988">
        <ele>2113.2</ele>
        <time>2022-02-12T13:29:36Z</time>
      </trkpt>
      <trkpt lat="42.87026" lon="0.2599">
        <ele>2111</ele>
        <time>2022-02-12T13:29:37Z</time>
      </trkpt>
      <trkpt lat="42.87022" lon="0.25994">
        <ele>2108.6</ele>
        <time>2022-02-12T13:29:38Z</time>
      </trkpt>
      <trkpt lat="42.87018" lon="0.25999">
        <ele>2106</ele>
        <time>2022-02-12T13:29:39Z</time>
      </trkpt>
      <trkpt lat="42.87014" lon="0.26002">
        <ele>2104.4</ele>
        <time>2022-02-12T13:29:40Z</time>
      </trkpt>
      <trkpt lat="42.87011" lon="0.26005">
        <ele>2102.8</ele>
        <time>2022-02-12T13:29:41Z</time>
      </trkpt>
      <trkpt lat="42.87007" lon="0.26008">
        <ele>2100.6</ele>
        <time>2022-02-12T13:29:42Z</time>
      </trkpt>
      <trkpt lat="42.87004" lon="0.26013">
        <ele>2098.4</ele>
        <time>2022-02-12T13:29:43Z</time>
      </trkpt>
      <trkpt lat="42.87001" lon="0.26018">
        <ele>2097.2</ele>
        <time>2022-02-12T13:29:44Z</time>
      </trkpt>
      <trkpt lat="42.86998" lon="0.26023">
        <ele>2096</ele>
        <time>2022-02-12T13:29:45Z</time>
      </trkpt>
      <trkpt lat="42.86998" lon="0.26025">
        <ele>2093.4</ele>
        <time>2022-02-12T13:29:46Z</time>
      </trkpt>
      <trkpt lat="42.86998" lon="0.26025">
        <ele>2091.6</ele>
        <time>2022-02-12T13:29:47Z</time>
      </trkpt>
      <trkpt lat="42.86998" lon="0.26025">
        <ele>2089</ele>
        <time>2022-02-12T13:29:48Z</time>
      </trkpt>
      <trkpt lat="42.86995" lon="0.26025">
        <ele>2087</ele>
        <time>2022-02-12T13:29:49Z</time>
      </trkpt>
      <trkpt lat="42.86995" lon="0.26025">
        <ele>2085.8</ele>
        <time>2022-02-12T13:29:50Z</time>
      </trkpt>
      <trkpt lat="42.86996" lon="0.26025">
        <ele>2084.6</ele>
        <time>2022-02-12T13:29:53Z</time>
      </trkpt>
      <trkpt lat="42.86998" lon="0.26025">
        <ele>2084.4</ele>
        <time>2022-02-12T13:29:58Z</time>
      </trkpt>
      <trkpt lat="42.86985" lon="0.26025">
        <ele>2084.6</ele>
        <time>2022-02-12T13:30:02Z</time>
      </trkpt>
      <trkpt lat="42.86981" lon="0.26025">
        <ele>2084.2</ele>
        <time>2022-02-12T13:30:03Z</time>
      </trkpt>
      <trkpt lat="42.86976" lon="0.26028">
        <ele>2083</ele>
        <time>2022-02-12T13:30:04Z</time>
      </trkpt>
      <trkpt lat="42.86976" lon="0.26028">
        <ele>2081.2</ele>
        <time>2022-02-12T13:30:05Z</time>
      </trkpt>
      <trkpt lat="42.86976" lon="0.26028">
        <ele>2080</ele>
        <time>2022-02-12T13:30:06Z</time>
      </trkpt>
      <trkpt lat="42.86976" lon="0.26028">
        <ele>2079.2</ele>
        <time>2022-02-12T13:30:07Z</time>
      </trkpt>
      <trkpt lat="42.86976" lon="0.26028">
        <ele>2077.8</ele>
        <time>2022-02-12T13:30:08Z</time>
      </trkpt>
      <trkpt lat="42.86976" lon="0.26028">
        <ele>2075</ele>
        <time>2022-02-12T13:30:09Z</time>
      </trkpt>
      <trkpt lat="42.86949" lon="0.26049">
        <ele>2072.6</ele>
        <time>2022-02-12T13:30:10Z</time>
      </trkpt>
      <trkpt lat="42.86945" lon="0.26052">
        <ele>2071</ele>
        <time>2022-02-12T13:30:11Z</time>
      </trkpt>
      <trkpt lat="42.8694" lon="0.26057">
        <ele>2069.8</ele>
        <time>2022-02-12T13:30:12Z</time>
      </trkpt>
      <trkpt lat="42.8694" lon="0.26057">
        <ele>2067</ele>
        <time>2022-02-12T13:30:13Z</time>
      </trkpt>
      <trkpt lat="42.8694" lon="0.26057">
        <ele>2065.4</ele>
        <time>2022-02-12T13:30:14Z</time>
      </trkpt>
      <trkpt lat="42.8694" lon="0.26057">
        <ele>2063.4</ele>
        <time>2022-02-12T13:30:15Z</time>
      </trkpt>
      <trkpt lat="42.8694" lon="0.26057">
        <ele>2061.6</ele>
        <time>2022-02-12T13:30:16Z</time>
      </trkpt>
      <trkpt lat="42.8694" lon="0.26057">
        <ele>2058.8</ele>
        <time>2022-02-12T13:30:17Z</time>
      </trkpt>
      <trkpt lat="42.86915" lon="0.2606">
        <ele>2056</ele>
        <time>2022-02-12T13:30:18Z</time>
      </trkpt>
      <trkpt lat="42.86915" lon="0.26061">
        <ele>2054.6</ele>
        <time>2022-02-12T13:30:19Z</time>
      </trkpt>
      <trkpt lat="42.86915" lon="0.26061">
        <ele>2053.4</ele>
        <time>2022-02-12T13:30:21Z</time>
      </trkpt>
      <trkpt lat="42.86916" lon="0.26059">
        <ele>2053.4</ele>
        <time>2022-02-12T13:30:29Z</time>
      </trkpt>
      <trkpt lat="42.86903" lon="0.26076">
        <ele>2053</ele>
        <time>2022-02-12T13:30:33Z</time>
      </trkpt>
      <trkpt lat="42.869" lon="0.26085">
        <ele>2052.2</ele>
        <time>2022-02-12T13:30:35Z</time>
      </trkpt>
      <trkpt lat="42.86898" lon="0.26088">
        <ele>2051.8</ele>
        <time>2022-02-12T13:30:36Z</time>
      </trkpt>
      <trkpt lat="42.86897" lon="0.26092">
        <ele>2050.2</ele>
        <time>2022-02-12T13:30:37Z</time>
      </trkpt>
      <trkpt lat="42.86895" lon="0.26095">
        <ele>2049.2</ele>
        <time>2022-02-12T13:30:38Z</time>
      </trkpt>
      <trkpt lat="42.86893" lon="0.26098">
        <ele>2048.4</ele>
        <time>2022-02-12T13:30:39Z</time>
      </trkpt>
      <trkpt lat="42.86891" lon="0.26101">
        <ele>2046.8</ele>
        <time>2022-02-12T13:30:40Z</time>
      </trkpt>
      <trkpt lat="42.86888" lon="0.26106">
        <ele>2045.2</ele>
        <time>2022-02-12T13:30:41Z</time>
      </trkpt>
      <trkpt lat="42.86886" lon="0.26109">
        <ele>2043.8</ele>
        <time>2022-02-12T13:30:42Z</time>
      </trkpt>
      <trkpt lat="42.86883" lon="0.26112">
        <ele>2043</ele>
        <time>2022-02-12T13:30:43Z</time>
      </trkpt>
      <trkpt lat="42.86881" lon="0.26116">
        <ele>2040.8</ele>
        <time>2022-02-12T13:30:44Z</time>
      </trkpt>
      <trkpt lat="42.8688" lon="0.2612">
        <ele>2039.8</ele>
        <time>2022-02-12T13:30:45Z</time>
      </trkpt>
      <trkpt lat="42.86879" lon="0.26123">
        <ele>2038.6</ele>
        <time>2022-02-12T13:30:46Z</time>
      </trkpt>
      <trkpt lat="42.8688" lon="0.26125">
        <ele>2036.8</ele>
        <time>2022-02-12T13:30:47Z</time>
      </trkpt>
      <trkpt lat="42.8688" lon="0.26126">
        <ele>2035.8</ele>
        <time>2022-02-12T13:30:48Z</time>
      </trkpt>
      <trkpt lat="42.8688" lon="0.26126">
        <ele>2034.4</ele>
        <time>2022-02-12T13:30:49Z</time>
      </trkpt>
      <trkpt lat="42.86881" lon="0.26126">
        <ele>2033.6</ele>
        <time>2022-02-12T13:30:50Z</time>
      </trkpt>
      <trkpt lat="42.86881" lon="0.26125">
        <ele>2033.2</ele>
        <time>2022-02-12T13:30:51Z</time>
      </trkpt>
      <trkpt lat="42.86882" lon="0.26125">
        <ele>2032</ele>
        <time>2022-02-12T13:30:54Z</time>
      </trkpt>
      <trkpt lat="42.86883" lon="0.26122">
        <ele>2032.2</ele>
        <time>2022-02-12T13:30:58Z</time>
      </trkpt>
      <trkpt lat="42.86877" lon="0.26124">
        <ele>2032</ele>
        <time>2022-02-12T13:31:07Z</time>
      </trkpt>
      <trkpt lat="42.86874" lon="0.26129">
        <ele>2031.8</ele>
        <time>2022-02-12T13:31:08Z</time>
      </trkpt>
      <trkpt lat="42.8687" lon="0.26131">
        <ele>2031.8</ele>
        <time>2022-02-12T13:31:09Z</time>
      </trkpt>
      <trkpt lat="42.8687" lon="0.26131">
        <ele>2030.4</ele>
        <time>2022-02-12T13:31:10Z</time>
      </trkpt>
      <trkpt lat="42.86864" lon="0.26138">
        <ele>2029.4</ele>
        <time>2022-02-12T13:31:11Z</time>
      </trkpt>
      <trkpt lat="42.86861" lon="0.26142">
        <ele>2028.4</ele>
        <time>2022-02-12T13:31:12Z</time>
      </trkpt>
      <trkpt lat="42.86854" lon="0.2615">
        <ele>2026.2</ele>
        <time>2022-02-12T13:31:14Z</time>
      </trkpt>
      <trkpt lat="42.8685" lon="0.26153">
        <ele>2025.2</ele>
        <time>2022-02-12T13:31:15Z</time>
      </trkpt>
      <trkpt lat="42.86847" lon="0.26158">
        <ele>2023.8</ele>
        <time>2022-02-12T13:31:16Z</time>
      </trkpt>
      <trkpt lat="42.86843" lon="0.26162">
        <ele>2022.2</ele>
        <time>2022-02-12T13:31:17Z</time>
      </trkpt>
      <trkpt lat="42.86839" lon="0.26165">
        <ele>2021</ele>
        <time>2022-02-12T13:31:18Z</time>
      </trkpt>
      <trkpt lat="42.86835" lon="0.26168">
        <ele>2019.8</ele>
        <time>2022-02-12T13:31:19Z</time>
      </trkpt>
      <trkpt lat="42.86832" lon="0.26174">
        <ele>2018.4</ele>
        <time>2022-02-12T13:31:20Z</time>
      </trkpt>
      <trkpt lat="42.86829" lon="0.26179">
        <ele>2017</ele>
        <time>2022-02-12T13:31:21Z</time>
      </trkpt>
      <trkpt lat="42.86826" lon="0.26182">
        <ele>2015.8</ele>
        <time>2022-02-12T13:31:22Z</time>
      </trkpt>
      <trkpt lat="42.86823" lon="0.26186">
        <ele>2014.4</ele>
        <time>2022-02-12T13:31:23Z</time>
      </trkpt>
      <trkpt lat="42.86819" lon="0.2619">
        <ele>2012.4</ele>
        <time>2022-02-12T13:31:24Z</time>
      </trkpt>
      <trkpt lat="42.86815" lon="0.26192">
        <ele>2011.2</ele>
        <time>2022-02-12T13:31:25Z</time>
      </trkpt>
      <trkpt lat="42.8681" lon="0.26193">
        <ele>2010.2</ele>
        <time>2022-02-12T13:31:26Z</time>
      </trkpt>
      <trkpt lat="42.86804" lon="0.26194">
        <ele>2008.8</ele>
        <time>2022-02-12T13:31:27Z</time>
      </trkpt>
      <trkpt lat="42.86799" lon="0.26195">
        <ele>2007.4</ele>
        <time>2022-02-12T13:31:28Z</time>
      </trkpt>
      <trkpt lat="42.86795" lon="0.26197">
        <ele>2006</ele>
        <time>2022-02-12T13:31:29Z</time>
      </trkpt>
      <trkpt lat="42.86791" lon="0.26201">
        <ele>2004</ele>
        <time>2022-02-12T13:31:30Z</time>
      </trkpt>
      <trkpt lat="42.86787" lon="0.26204">
        <ele>2002.8</ele>
        <time>2022-02-12T13:31:31Z</time>
      </trkpt>
      <trkpt lat="42.86784" lon="0.26205">
        <ele>2002</ele>
        <time>2022-02-12T13:31:32Z</time>
      </trkpt>
      <trkpt lat="42.86781" lon="0.26204">
        <ele>2000.8</ele>
        <time>2022-02-12T13:31:33Z</time>
      </trkpt>
      <trkpt lat="42.86779" lon="0.26202">
        <ele>1999.8</ele>
        <time>2022-02-12T13:31:34Z</time>
      </trkpt>
      <trkpt lat="42.86779" lon="0.26202">
        <ele>1997.8</ele>
        <time>2022-02-12T13:31:35Z</time>
      </trkpt>
      <trkpt lat="42.86778" lon="0.26198">
        <ele>1996.4</ele>
        <time>2022-02-12T13:31:36Z</time>
      </trkpt>
      <trkpt lat="42.86778" lon="0.26199">
        <ele>1995.4</ele>
        <time>2022-02-12T13:31:37Z</time>
      </trkpt>
      <trkpt lat="42.86778" lon="0.26198">
        <ele>1994.2</ele>
        <time>2022-02-12T13:31:40Z</time>
      </trkpt>
      <trkpt lat="42.86774" lon="0.26201">
        <ele>1993.6</ele>
        <time>2022-02-12T13:31:44Z</time>
      </trkpt>
      <trkpt lat="42.86771" lon="0.26204">
        <ele>1993.6</ele>
        <time>2022-02-12T13:31:45Z</time>
      </trkpt>
      <trkpt lat="42.86764" lon="0.2621">
        <ele>1993</ele>
        <time>2022-02-12T13:31:47Z</time>
      </trkpt>
      <trkpt lat="42.86756" lon="0.26217">
        <ele>1991.4</ele>
        <time>2022-02-12T13:31:49Z</time>
      </trkpt>
      <trkpt lat="42.86751" lon="0.26221">
        <ele>1990</ele>
        <time>2022-02-12T13:31:50Z</time>
      </trkpt>
      <trkpt lat="42.86746" lon="0.26223">
        <ele>1988.6</ele>
        <time>2022-02-12T13:31:51Z</time>
      </trkpt>
      <trkpt lat="42.86741" lon="0.26224">
        <ele>1987.8</ele>
        <time>2022-02-12T13:31:52Z</time>
      </trkpt>
      <trkpt lat="42.86736" lon="0.26228">
        <ele>1986.2</ele>
        <time>2022-02-12T13:31:53Z</time>
      </trkpt>
      <trkpt lat="42.86731" lon="0.26232">
        <ele>1985</ele>
        <time>2022-02-12T13:31:54Z</time>
      </trkpt>
      <trkpt lat="42.86726" lon="0.26234">
        <ele>1983.4</ele>
        <time>2022-02-12T13:31:55Z</time>
      </trkpt>
      <trkpt lat="42.86723" lon="0.26237">
        <ele>1982.2</ele>
        <time>2022-02-12T13:31:56Z</time>
      </trkpt>
      <trkpt lat="42.86719" lon="0.26241">
        <ele>1980.2</ele>
        <time>2022-02-12T13:31:57Z</time>
      </trkpt>
      <trkpt lat="42.86716" lon="0.26244">
        <ele>1978.8</ele>
        <time>2022-02-12T13:31:58Z</time>
      </trkpt>
      <trkpt lat="42.86712" lon="0.26249">
        <ele>1975.8</ele>
        <time>2022-02-12T13:32:00Z</time>
      </trkpt>
      <trkpt lat="42.86712" lon="0.26249">
        <ele>1974.4</ele>
        <time>2022-02-12T13:32:01Z</time>
      </trkpt>
      <trkpt lat="42.86713" lon="0.26249">
        <ele>1973.8</ele>
        <time>2022-02-12T13:32:02Z</time>
      </trkpt>
      <trkpt lat="42.86714" lon="0.26248">
        <ele>1972.2</ele>
        <time>2022-02-12T13:32:03Z</time>
      </trkpt>
      <trkpt lat="42.86716" lon="0.26247">
        <ele>1970.8</ele>
        <time>2022-02-12T13:32:05Z</time>
      </trkpt>
      <trkpt lat="42.86716" lon="0.26246">
        <ele>1970.6</ele>
        <time>2022-02-12T13:32:06Z</time>
      </trkpt>
      <trkpt lat="42.86716" lon="0.26245">
        <ele>1970.6</ele>
        <time>2022-02-12T13:32:11Z</time>
      </trkpt>
      <trkpt lat="42.86716" lon="0.26245">
        <ele>1970.6</ele>
        <time>2022-02-12T13:32:12Z</time>
      </trkpt>
      <trkpt lat="42.86716" lon="0.26245">
        <ele>1970.6</ele>
        <time>2022-02-12T13:32:13Z</time>
      </trkpt>
      <trkpt lat="42.86716" lon="0.26245">
        <ele>1970.6</ele>
        <time>2022-02-12T13:32:16Z</time>
      </trkpt>
      <trkpt lat="42.86718" lon="0.26243">
        <ele>1970.2</ele>
        <time>2022-02-12T13:32:25Z</time>
      </trkpt>
      <trkpt lat="42.86715" lon="0.26246">
        <ele>1970</ele>
        <time>2022-02-12T13:32:42Z</time>
      </trkpt>
      <trkpt lat="42.86716" lon="0.26245">
        <ele>1969.8</ele>
        <time>2022-02-12T13:32:43Z</time>
      </trkpt>
      <trkpt lat="42.86715" lon="0.26245">
        <ele>1969.8</ele>
        <time>2022-02-12T13:32:45Z</time>
      </trkpt>
      <trkpt lat="42.86712" lon="0.26243">
        <ele>1970</ele>
        <time>2022-02-12T13:33:01Z</time>
      </trkpt>
      <trkpt lat="42.86712" lon="0.26243">
        <ele>1968.2</ele>
        <time>2022-02-12T13:33:07Z</time>
      </trkpt>
      <trkpt lat="42.86712" lon="0.26242">
        <ele>1969.4</ele>
        <time>2022-02-12T13:33:13Z</time>
      </trkpt>
      <trkpt lat="42.86708" lon="0.26245">
        <ele>1969.6</ele>
        <time>2022-02-12T13:33:16Z</time>
      </trkpt>
      <trkpt lat="42.86704" lon="0.26244">
        <ele>1969.6</ele>
        <time>2022-02-12T13:33:17Z</time>
      </trkpt>
      <trkpt lat="42.86697" lon="0.26241">
        <ele>1969.6</ele>
        <time>2022-02-12T13:33:19Z</time>
      </trkpt>
      <trkpt lat="42.8669" lon="0.26246">
        <ele>1969.6</ele>
        <time>2022-02-12T13:33:21Z</time>
      </trkpt>
      <trkpt lat="42.86688" lon="0.26252">
        <ele>1966.8</ele>
        <time>2022-02-12T13:33:22Z</time>
      </trkpt>
      <trkpt lat="42.86688" lon="0.26256">
        <ele>1965.2</ele>
        <time>2022-02-12T13:33:23Z</time>
      </trkpt>
      <trkpt lat="42.86687" lon="0.26259">
        <ele>1963.4</ele>
        <time>2022-02-12T13:33:24Z</time>
      </trkpt>
      <trkpt lat="42.86686" lon="0.2626">
        <ele>1961.4</ele>
        <time>2022-02-12T13:33:25Z</time>
      </trkpt>
      <trkpt lat="42.86686" lon="0.26262">
        <ele>1960.4</ele>
        <time>2022-02-12T13:33:26Z</time>
      </trkpt>
      <trkpt lat="42.86686" lon="0.26266">
        <ele>1959.8</ele>
        <time>2022-02-12T13:33:27Z</time>
      </trkpt>
      <trkpt lat="42.86687" lon="0.2627">
        <ele>1959.4</ele>
        <time>2022-02-12T13:33:28Z</time>
      </trkpt>
      <trkpt lat="42.86689" lon="0.26279">
        <ele>1956.8</ele>
        <time>2022-02-12T13:33:30Z</time>
      </trkpt>
      <trkpt lat="42.86689" lon="0.26285">
        <ele>1956</ele>
        <time>2022-02-12T13:33:31Z</time>
      </trkpt>
      <trkpt lat="42.86689" lon="0.26291">
        <ele>1955.4</ele>
        <time>2022-02-12T13:33:32Z</time>
      </trkpt>
      <trkpt lat="42.86688" lon="0.26298">
        <ele>1954</ele>
        <time>2022-02-12T13:33:33Z</time>
      </trkpt>
      <trkpt lat="42.86688" lon="0.26304">
        <ele>1953.2</ele>
        <time>2022-02-12T13:33:34Z</time>
      </trkpt>
      <trkpt lat="42.86688" lon="0.26309">
        <ele>1952.2</ele>
        <time>2022-02-12T13:33:35Z</time>
      </trkpt>
      <trkpt lat="42.86684" lon="0.26319">
        <ele>1950.8</ele>
        <time>2022-02-12T13:33:37Z</time>
      </trkpt>
      <trkpt lat="42.8668" lon="0.26325">
        <ele>1949.6</ele>
        <time>2022-02-12T13:33:38Z</time>
      </trkpt>
      <trkpt lat="42.86676" lon="0.26331">
        <ele>1947.6</ele>
        <time>2022-02-12T13:33:39Z</time>
      </trkpt>
      <trkpt lat="42.86674" lon="0.26337">
        <ele>1945.8</ele>
        <time>2022-02-12T13:33:40Z</time>
      </trkpt>
      <trkpt lat="42.86672" lon="0.26342">
        <ele>1944.8</ele>
        <time>2022-02-12T13:33:41Z</time>
      </trkpt>
      <trkpt lat="42.8667" lon="0.26347">
        <ele>1943.8</ele>
        <time>2022-02-12T13:33:42Z</time>
      </trkpt>
      <trkpt lat="42.86668" lon="0.26353">
        <ele>1942.4</ele>
        <time>2022-02-12T13:33:44Z</time>
      </trkpt>
      <trkpt lat="42.86667" lon="0.26359">
        <ele>1941.2</ele>
        <time>2022-02-12T13:33:46Z</time>
      </trkpt>
      <trkpt lat="42.86664" lon="0.26371">
        <ele>1939.8</ele>
        <time>2022-02-12T13:33:49Z</time>
      </trkpt>
      <trkpt lat="42.86663" lon="0.26375">
        <ele>1939.4</ele>
        <time>2022-02-12T13:33:50Z</time>
      </trkpt>
      <trkpt lat="42.86663" lon="0.26378">
        <ele>1938.8</ele>
        <time>2022-02-12T13:33:52Z</time>
      </trkpt>
      <trkpt lat="42.86664" lon="0.26378">
        <ele>1938.6</ele>
        <time>2022-02-12T13:33:53Z</time>
      </trkpt>
      <trkpt lat="42.86664" lon="0.26377">
        <ele>1938.4</ele>
        <time>2022-02-12T13:33:54Z</time>
      </trkpt>
      <trkpt lat="42.86664" lon="0.26377">
        <ele>1938.2</ele>
        <time>2022-02-12T13:33:55Z</time>
      </trkpt>
      <trkpt lat="42.86664" lon="0.26377">
        <ele>1937.8</ele>
        <time>2022-02-12T13:34:04Z</time>
      </trkpt>
      <trkpt lat="42.86658" lon="0.26382">
        <ele>1937.8</ele>
        <time>2022-02-12T13:34:07Z</time>
      </trkpt>
      <trkpt lat="42.86654" lon="0.26382">
        <ele>1937.4</ele>
        <time>2022-02-12T13:34:08Z</time>
      </trkpt>
      <trkpt lat="42.8665" lon="0.26381">
        <ele>1936.4</ele>
        <time>2022-02-12T13:34:09Z</time>
      </trkpt>
      <trkpt lat="42.86648" lon="0.26382">
        <ele>1935.2</ele>
        <time>2022-02-12T13:34:10Z</time>
      </trkpt>
      <trkpt lat="42.86646" lon="0.26385">
        <ele>1933.8</ele>
        <time>2022-02-12T13:34:11Z</time>
      </trkpt>
      <trkpt lat="42.86644" lon="0.26388">
        <ele>1932.4</ele>
        <time>2022-02-12T13:34:12Z</time>
      </trkpt>
      <trkpt lat="42.86639" lon="0.26387">
        <ele>1931</ele>
        <time>2022-02-12T13:34:13Z</time>
      </trkpt>
      <trkpt lat="42.86636" lon="0.26386">
        <ele>1929.4</ele>
        <time>2022-02-12T13:34:14Z</time>
      </trkpt>
      <trkpt lat="42.86633" lon="0.26387">
        <ele>1927.6</ele>
        <time>2022-02-12T13:34:15Z</time>
      </trkpt>
      <trkpt lat="42.86629" lon="0.2639">
        <ele>1926.4</ele>
        <time>2022-02-12T13:34:16Z</time>
      </trkpt>
      <trkpt lat="42.86624" lon="0.26391">
        <ele>1925</ele>
        <time>2022-02-12T13:34:17Z</time>
      </trkpt>
      <trkpt lat="42.86619" lon="0.26392">
        <ele>1922.8</ele>
        <time>2022-02-12T13:34:18Z</time>
      </trkpt>
      <trkpt lat="42.86614" lon="0.26396">
        <ele>1920.8</ele>
        <time>2022-02-12T13:34:19Z</time>
      </trkpt>
      <trkpt lat="42.8661" lon="0.26399">
        <ele>1918.8</ele>
        <time>2022-02-12T13:34:20Z</time>
      </trkpt>
      <trkpt lat="42.86605" lon="0.26404">
        <ele>1916.4</ele>
        <time>2022-02-12T13:34:21Z</time>
      </trkpt>
      <trkpt lat="42.86602" lon="0.26407">
        <ele>1914.6</ele>
        <time>2022-02-12T13:34:22Z</time>
      </trkpt>
      <trkpt lat="42.86601" lon="0.26407">
        <ele>1912.8</ele>
        <time>2022-02-12T13:34:23Z</time>
      </trkpt>
      <trkpt lat="42.86601" lon="0.26407">
        <ele>1911.8</ele>
        <time>2022-02-12T13:34:24Z</time>
      </trkpt>
      <trkpt lat="42.86601" lon="0.26407">
        <ele>1911</ele>
        <time>2022-02-12T13:34:25Z</time>
      </trkpt>
      <trkpt lat="42.86599" lon="0.2641">
        <ele>1910</ele>
        <time>2022-02-12T13:34:28Z</time>
      </trkpt>
      <trkpt lat="42.86595" lon="0.26412">
        <ele>1909.8</ele>
        <time>2022-02-12T13:34:29Z</time>
      </trkpt>
      <trkpt lat="42.86583" lon="0.26419">
        <ele>1909.2</ele>
        <time>2022-02-12T13:34:31Z</time>
      </trkpt>
      <trkpt lat="42.86577" lon="0.26425">
        <ele>1908</ele>
        <time>2022-02-12T13:34:32Z</time>
      </trkpt>
      <trkpt lat="42.8657" lon="0.26432">
        <ele>1906.2</ele>
        <time>2022-02-12T13:34:33Z</time>
      </trkpt>
      <trkpt lat="42.8656" lon="0.26443">
        <ele>1903.4</ele>
        <time>2022-02-12T13:34:35Z</time>
      </trkpt>
      <trkpt lat="42.86555" lon="0.26446">
        <ele>1901.4</ele>
        <time>2022-02-12T13:34:36Z</time>
      </trkpt>
      <trkpt lat="42.86549" lon="0.26449">
        <ele>1900.4</ele>
        <time>2022-02-12T13:34:37Z</time>
      </trkpt>
      <trkpt lat="42.86544" lon="0.26451">
        <ele>1899.6</ele>
        <time>2022-02-12T13:34:38Z</time>
      </trkpt>
      <trkpt lat="42.86538" lon="0.26453">
        <ele>1898.8</ele>
        <time>2022-02-12T13:34:39Z</time>
      </trkpt>
      <trkpt lat="42.86534" lon="0.26454">
        <ele>1897.6</ele>
        <time>2022-02-12T13:34:40Z</time>
      </trkpt>
      <trkpt lat="42.86524" lon="0.26455">
        <ele>1896.4</ele>
        <time>2022-02-12T13:34:42Z</time>
      </trkpt>
      <trkpt lat="42.8651" lon="0.26462">
        <ele>1895</ele>
        <time>2022-02-12T13:34:44Z</time>
      </trkpt>
      <trkpt lat="42.86509" lon="0.2646">
        <ele>1892.2</ele>
        <time>2022-02-12T13:34:46Z</time>
      </trkpt>
      <trkpt lat="42.86509" lon="0.2646">
        <ele>1891</ele>
        <time>2022-02-12T13:34:47Z</time>
      </trkpt>
      <trkpt lat="42.86509" lon="0.26461">
        <ele>1889.8</ele>
        <time>2022-02-12T13:34:49Z</time>
      </trkpt>
      <trkpt lat="42.86509" lon="0.26461">
        <ele>1889.6</ele>
        <time>2022-02-12T13:34:51Z</time>
      </trkpt>
      <trkpt lat="42.86511" lon="0.26461">
        <ele>1889.4</ele>
        <time>2022-02-12T13:34:55Z</time>
      </trkpt>
      <trkpt lat="42.86512" lon="0.26461">
        <ele>1889.6</ele>
        <time>2022-02-12T13:34:59Z</time>
      </trkpt>
      <trkpt lat="42.86513" lon="0.26464">
        <ele>1889.4</ele>
        <time>2022-02-12T13:35:01Z</time>
      </trkpt>
      <trkpt lat="42.86513" lon="0.26465">
        <ele>1889</ele>
        <time>2022-02-12T13:35:12Z</time>
      </trkpt>
      <trkpt lat="42.86513" lon="0.26465">
        <ele>1889</ele>
        <time>2022-02-12T13:35:18Z</time>
      </trkpt>
      <trkpt lat="42.8651" lon="0.26458">
        <ele>1889</ele>
        <time>2022-02-12T13:35:25Z</time>
      </trkpt>
      <trkpt lat="42.865" lon="0.26452">
        <ele>1889.4</ele>
        <time>2022-02-12T13:35:33Z</time>
      </trkpt>
      <trkpt lat="42.86496" lon="0.26446">
        <ele>1888.6</ele>
        <time>2022-02-12T13:35:35Z</time>
      </trkpt>
      <trkpt lat="42.86494" lon="0.2644">
        <ele>1887.6</ele>
        <time>2022-02-12T13:35:36Z</time>
      </trkpt>
      <trkpt lat="42.86493" lon="0.26436">
        <ele>1886.4</ele>
        <time>2022-02-12T13:35:37Z</time>
      </trkpt>
      <trkpt lat="42.86491" lon="0.26433">
        <ele>1885</ele>
        <time>2022-02-12T13:35:38Z</time>
      </trkpt>
      <trkpt lat="42.86491" lon="0.26433">
        <ele>1883.8</ele>
        <time>2022-02-12T13:35:39Z</time>
      </trkpt>
      <trkpt lat="42.86491" lon="0.26433">
        <ele>1882.4</ele>
        <time>2022-02-12T13:35:40Z</time>
      </trkpt>
      <trkpt lat="42.86491" lon="0.26433">
        <ele>1881.4</ele>
        <time>2022-02-12T13:35:41Z</time>
      </trkpt>
      <trkpt lat="42.86474" lon="0.2643">
        <ele>1880</ele>
        <time>2022-02-12T13:35:42Z</time>
      </trkpt>
      <trkpt lat="42.86469" lon="0.26432">
        <ele>1878</ele>
        <time>2022-02-12T13:35:43Z</time>
      </trkpt>
      <trkpt lat="42.86465" lon="0.26436">
        <ele>1876.4</ele>
        <time>2022-02-12T13:35:44Z</time>
      </trkpt>
      <trkpt lat="42.86463" lon="0.26438">
        <ele>1874.6</ele>
        <time>2022-02-12T13:35:45Z</time>
      </trkpt>
      <trkpt lat="42.86461" lon="0.26439">
        <ele>1872.6</ele>
        <time>2022-02-12T13:35:46Z</time>
      </trkpt>
      <trkpt lat="42.86461" lon="0.2644">
        <ele>1871.4</ele>
        <time>2022-02-12T13:35:47Z</time>
      </trkpt>
      <trkpt lat="42.8646" lon="0.26439">
        <ele>1870.2</ele>
        <time>2022-02-12T13:35:48Z</time>
      </trkpt>
      <trkpt lat="42.86459" lon="0.26437">
        <ele>1869.2</ele>
        <time>2022-02-12T13:35:50Z</time>
      </trkpt>
      <trkpt lat="42.86456" lon="0.26431">
        <ele>1868.8</ele>
        <time>2022-02-12T13:35:57Z</time>
      </trkpt>
      <trkpt lat="42.86456" lon="0.26422">
        <ele>1868.8</ele>
        <time>2022-02-12T13:35:59Z</time>
      </trkpt>
      <trkpt lat="42.86454" lon="0.2642">
        <ele>1868.6</ele>
        <time>2022-02-12T13:36:00Z</time>
      </trkpt>
      <trkpt lat="42.86454" lon="0.2642">
        <ele>1867</ele>
        <time>2022-02-12T13:36:01Z</time>
      </trkpt>
      <trkpt lat="42.86447" lon="0.26418">
        <ele>1865.6</ele>
        <time>2022-02-12T13:36:02Z</time>
      </trkpt>
      <trkpt lat="42.86442" lon="0.26419">
        <ele>1864</ele>
        <time>2022-02-12T13:36:03Z</time>
      </trkpt>
      <trkpt lat="42.86437" lon="0.2642">
        <ele>1862.4</ele>
        <time>2022-02-12T13:36:04Z</time>
      </trkpt>
      <trkpt lat="42.86431" lon="0.26421">
        <ele>1861</ele>
        <time>2022-02-12T13:36:05Z</time>
      </trkpt>
      <trkpt lat="42.86427" lon="0.26419">
        <ele>1859.2</ele>
        <time>2022-02-12T13:36:06Z</time>
      </trkpt>
      <trkpt lat="42.86422" lon="0.26418">
        <ele>1858</ele>
        <time>2022-02-12T13:36:07Z</time>
      </trkpt>
      <trkpt lat="42.86418" lon="0.26416">
        <ele>1857</ele>
        <time>2022-02-12T13:36:08Z</time>
      </trkpt>
      <trkpt lat="42.86413" lon="0.26414">
        <ele>1855.4</ele>
        <time>2022-02-12T13:36:09Z</time>
      </trkpt>
      <trkpt lat="42.86408" lon="0.26412">
        <ele>1854.6</ele>
        <time>2022-02-12T13:36:10Z</time>
      </trkpt>
      <trkpt lat="42.86405" lon="0.26411">
        <ele>1853</ele>
        <time>2022-02-12T13:36:11Z</time>
      </trkpt>
      <trkpt lat="42.86403" lon="0.26411">
        <ele>1851.2</ele>
        <time>2022-02-12T13:36:12Z</time>
      </trkpt>
      <trkpt lat="42.86402" lon="0.26411">
        <ele>1848.2</ele>
        <time>2022-02-12T13:36:13Z</time>
      </trkpt>
      <trkpt lat="42.86403" lon="0.26411">
        <ele>1845.8</ele>
        <time>2022-02-12T13:36:14Z</time>
      </trkpt>
      <trkpt lat="42.86403" lon="0.2641">
        <ele>1844.4</ele>
        <time>2022-02-12T13:36:15Z</time>
      </trkpt>
      <trkpt lat="42.86404" lon="0.2641">
        <ele>1843.2</ele>
        <time>2022-02-12T13:36:17Z</time>
      </trkpt>
      <trkpt lat="42.86405" lon="0.2641">
        <ele>1842.8</ele>
        <time>2022-02-12T13:36:22Z</time>
      </trkpt>
      <trkpt lat="42.86405" lon="0.26409">
        <ele>1843</ele>
        <time>2022-02-12T13:36:23Z</time>
      </trkpt>
      <trkpt lat="42.86402" lon="0.26407">
        <ele>1843.6</ele>
        <time>2022-02-12T13:36:39Z</time>
      </trkpt>
      <trkpt lat="42.86401" lon="0.26397">
        <ele>1843</ele>
        <time>2022-02-12T13:36:41Z</time>
      </trkpt>
      <trkpt lat="42.86399" lon="0.26392">
        <ele>1842.4</ele>
        <time>2022-02-12T13:36:42Z</time>
      </trkpt>
      <trkpt lat="42.86396" lon="0.2639">
        <ele>1841.2</ele>
        <time>2022-02-12T13:36:43Z</time>
      </trkpt>
      <trkpt lat="42.86394" lon="0.26387">
        <ele>1838.2</ele>
        <time>2022-02-12T13:36:44Z</time>
      </trkpt>
      <trkpt lat="42.86393" lon="0.26381">
        <ele>1835.6</ele>
        <time>2022-02-12T13:36:45Z</time>
      </trkpt>
      <trkpt lat="42.86394" lon="0.26374">
        <ele>1833</ele>
        <time>2022-02-12T13:36:46Z</time>
      </trkpt>
      <trkpt lat="42.86392" lon="0.26369">
        <ele>1830.6</ele>
        <time>2022-02-12T13:36:47Z</time>
      </trkpt>
      <trkpt lat="42.8639" lon="0.26363">
        <ele>1829.2</ele>
        <time>2022-02-12T13:36:48Z</time>
      </trkpt>
      <trkpt lat="42.86388" lon="0.26356">
        <ele>1827</ele>
        <time>2022-02-12T13:36:49Z</time>
      </trkpt>
      <trkpt lat="42.86385" lon="0.26351">
        <ele>1824.2</ele>
        <time>2022-02-12T13:36:50Z</time>
      </trkpt>
      <trkpt lat="42.86381" lon="0.26349">
        <ele>1822.4</ele>
        <time>2022-02-12T13:36:51Z</time>
      </trkpt>
      <trkpt lat="42.86376" lon="0.26348">
        <ele>1820</ele>
        <time>2022-02-12T13:36:52Z</time>
      </trkpt>
      <trkpt lat="42.86372" lon="0.26342">
        <ele>1818.2</ele>
        <time>2022-02-12T13:36:53Z</time>
      </trkpt>
      <trkpt lat="42.86371" lon="0.26335">
        <ele>1817.2</ele>
        <time>2022-02-12T13:36:54Z</time>
      </trkpt>
      <trkpt lat="42.86369" lon="0.26329">
        <ele>1815.8</ele>
        <time>2022-02-12T13:36:55Z</time>
      </trkpt>
      <trkpt lat="42.86353" lon="0.26315">
        <ele>1814.2</ele>
        <time>2022-02-12T13:36:56Z</time>
      </trkpt>
      <trkpt lat="42.86349" lon="0.26309">
        <ele>1812.4</ele>
        <time>2022-02-12T13:36:57Z</time>
      </trkpt>
      <trkpt lat="42.86345" lon="0.26305">
        <ele>1810</ele>
        <time>2022-02-12T13:36:58Z</time>
      </trkpt>
      <trkpt lat="42.8634" lon="0.263">
        <ele>1807.8</ele>
        <time>2022-02-12T13:36:59Z</time>
      </trkpt>
      <trkpt lat="42.86336" lon="0.26295">
        <ele>1805.6</ele>
        <time>2022-02-12T13:37:00Z</time>
      </trkpt>
      <trkpt lat="42.86331" lon="0.26292">
        <ele>1803.8</ele>
        <time>2022-02-12T13:37:01Z</time>
      </trkpt>
      <trkpt lat="42.86325" lon="0.2629">
        <ele>1802</ele>
        <time>2022-02-12T13:37:02Z</time>
      </trkpt>
      <trkpt lat="42.86325" lon="0.2629">
        <ele>1800.2</ele>
        <time>2022-02-12T13:37:03Z</time>
      </trkpt>
      <trkpt lat="42.86319" lon="0.26293">
        <ele>1799.2</ele>
        <time>2022-02-12T13:37:04Z</time>
      </trkpt>
      <trkpt lat="42.86315" lon="0.26297">
        <ele>1797.4</ele>
        <time>2022-02-12T13:37:06Z</time>
      </trkpt>
      <trkpt lat="42.86316" lon="0.26298">
        <ele>1795.8</ele>
        <time>2022-02-12T13:37:07Z</time>
      </trkpt>
      <trkpt lat="42.86317" lon="0.26299">
        <ele>1795</ele>
        <time>2022-02-12T13:37:08Z</time>
      </trkpt>
      <trkpt lat="42.86316" lon="0.26298">
        <ele>1794.4</ele>
        <time>2022-02-12T13:37:09Z</time>
      </trkpt>
      <trkpt lat="42.86316" lon="0.26296">
        <ele>1794.2</ele>
        <time>2022-02-12T13:37:10Z</time>
      </trkpt>
      <trkpt lat="42.86313" lon="0.26291">
        <ele>1794.2</ele>
        <time>2022-02-12T13:37:19Z</time>
      </trkpt>
      <trkpt lat="42.86304" lon="0.26282">
        <ele>1793.6</ele>
        <time>2022-02-12T13:37:22Z</time>
      </trkpt>
      <trkpt lat="42.863" lon="0.26281">
        <ele>1792.8</ele>
        <time>2022-02-12T13:37:23Z</time>
      </trkpt>
      <trkpt lat="42.86295" lon="0.26281">
        <ele>1792</ele>
        <time>2022-02-12T13:37:24Z</time>
      </trkpt>
      <trkpt lat="42.86295" lon="0.26281">
        <ele>1790.8</ele>
        <time>2022-02-12T13:37:25Z</time>
      </trkpt>
      <trkpt lat="42.86295" lon="0.26281">
        <ele>1789.4</ele>
        <time>2022-02-12T13:37:26Z</time>
      </trkpt>
      <trkpt lat="42.86276" lon="0.26283">
        <ele>1786.8</ele>
        <time>2022-02-12T13:37:28Z</time>
      </trkpt>
      <trkpt lat="42.86276" lon="0.26283">
        <ele>1786</ele>
        <time>2022-02-12T13:37:29Z</time>
      </trkpt>
      <trkpt lat="42.86276" lon="0.26283">
        <ele>1784.4</ele>
        <time>2022-02-12T13:37:30Z</time>
      </trkpt>
      <trkpt lat="42.8627" lon="0.26268">
        <ele>1783.2</ele>
        <time>2022-02-12T13:37:31Z</time>
      </trkpt>
      <trkpt lat="42.86269" lon="0.26263">
        <ele>1782</ele>
        <time>2022-02-12T13:37:32Z</time>
      </trkpt>
      <trkpt lat="42.86267" lon="0.2626">
        <ele>1780.6</ele>
        <time>2022-02-12T13:37:33Z</time>
      </trkpt>
      <trkpt lat="42.86265" lon="0.2626">
        <ele>1778.6</ele>
        <time>2022-02-12T13:37:34Z</time>
      </trkpt>
      <trkpt lat="42.86264" lon="0.26261">
        <ele>1777.2</ele>
        <time>2022-02-12T13:37:35Z</time>
      </trkpt>
      <trkpt lat="42.86264" lon="0.26262">
        <ele>1775</ele>
        <time>2022-02-12T13:37:36Z</time>
      </trkpt>
      <trkpt lat="42.86264" lon="0.26262">
        <ele>1772.6</ele>
        <time>2022-02-12T13:37:37Z</time>
      </trkpt>
      <trkpt lat="42.86264" lon="0.26261">
        <ele>1771.4</ele>
        <time>2022-02-12T13:37:38Z</time>
      </trkpt>
      <trkpt lat="42.86265" lon="0.26261">
        <ele>1770.2</ele>
        <time>2022-02-12T13:37:40Z</time>
      </trkpt>
      <trkpt lat="42.86263" lon="0.2626">
        <ele>1769.8</ele>
        <time>2022-02-12T13:37:47Z</time>
      </trkpt>
      <trkpt lat="42.8625" lon="0.26253">
        <ele>1769.8</ele>
        <time>2022-02-12T13:37:51Z</time>
      </trkpt>
      <trkpt lat="42.8625" lon="0.26253">
        <ele>1769.6</ele>
        <time>2022-02-12T13:37:52Z</time>
      </trkpt>
      <trkpt lat="42.86248" lon="0.26236">
        <ele>1768.6</ele>
        <time>2022-02-12T13:37:54Z</time>
      </trkpt>
      <trkpt lat="42.86245" lon="0.26232">
        <ele>1766.2</ele>
        <time>2022-02-12T13:37:55Z</time>
      </trkpt>
      <trkpt lat="42.86242" lon="0.26227">
        <ele>1764.6</ele>
        <time>2022-02-12T13:37:56Z</time>
      </trkpt>
      <trkpt lat="42.86239" lon="0.26223">
        <ele>1763.8</ele>
        <time>2022-02-12T13:37:57Z</time>
      </trkpt>
      <trkpt lat="42.86236" lon="0.26218">
        <ele>1762.4</ele>
        <time>2022-02-12T13:37:58Z</time>
      </trkpt>
      <trkpt lat="42.86234" lon="0.26212">
        <ele>1760.6</ele>
        <time>2022-02-12T13:37:59Z</time>
      </trkpt>
      <trkpt lat="42.86231" lon="0.26208">
        <ele>1759.6</ele>
        <time>2022-02-12T13:38:00Z</time>
      </trkpt>
      <trkpt lat="42.86228" lon="0.26205">
        <ele>1757.6</ele>
        <time>2022-02-12T13:38:01Z</time>
      </trkpt>
      <trkpt lat="42.86225" lon="0.26201">
        <ele>1755.6</ele>
        <time>2022-02-12T13:38:02Z</time>
      </trkpt>
      <trkpt lat="42.86224" lon="0.26199">
        <ele>1753.6</ele>
        <time>2022-02-12T13:38:03Z</time>
      </trkpt>
      <trkpt lat="42.86225" lon="0.26198">
        <ele>1752</ele>
        <time>2022-02-12T13:38:04Z</time>
      </trkpt>
      <trkpt lat="42.86225" lon="0.26198">
        <ele>1749.6</ele>
        <time>2022-02-12T13:38:05Z</time>
      </trkpt>
      <trkpt lat="42.86225" lon="0.26199">
        <ele>1747.4</ele>
        <time>2022-02-12T13:38:06Z</time>
      </trkpt>
      <trkpt lat="42.86224" lon="0.26201">
        <ele>1746.4</ele>
        <time>2022-02-12T13:38:07Z</time>
      </trkpt>
      <trkpt lat="42.86223" lon="0.26204">
        <ele>1745</ele>
        <time>2022-02-12T13:38:09Z</time>
      </trkpt>
      <trkpt lat="42.86222" lon="0.26205">
        <ele>1744.4</ele>
        <time>2022-02-12T13:38:11Z</time>
      </trkpt>
      <trkpt lat="42.86221" lon="0.26206">
        <ele>1744</ele>
        <time>2022-02-12T13:38:13Z</time>
      </trkpt>
      <trkpt lat="42.8622" lon="0.26205">
        <ele>1743.6</ele>
        <time>2022-02-12T13:38:17Z</time>
      </trkpt>
      <trkpt lat="42.86219" lon="0.26204">
        <ele>1743</ele>
        <time>2022-02-12T13:38:22Z</time>
      </trkpt>
      <trkpt lat="42.86219" lon="0.26204">
        <ele>1743</ele>
        <time>2022-02-12T13:38:23Z</time>
      </trkpt>
      <trkpt lat="42.86219" lon="0.26203">
        <ele>1742.8</ele>
        <time>2022-02-12T13:38:25Z</time>
      </trkpt>
      <trkpt lat="42.86219" lon="0.26204">
        <ele>1742.8</ele>
        <time>2022-02-12T13:38:29Z</time>
      </trkpt>
      <trkpt lat="42.86219" lon="0.26203">
        <ele>1743.4</ele>
        <time>2022-02-12T13:38:32Z</time>
      </trkpt>
      <trkpt lat="42.86221" lon="0.26205">
        <ele>1743.6</ele>
        <time>2022-02-12T13:38:41Z</time>
      </trkpt>
      <trkpt lat="42.86223" lon="0.26206">
        <ele>1743.8</ele>
        <time>2022-02-12T13:38:44Z</time>
      </trkpt>
      <trkpt lat="42.86224" lon="0.26206">
        <ele>1744.2</ele>
        <time>2022-02-12T13:38:46Z</time>
      </trkpt>
      <trkpt lat="42.86225" lon="0.26206">
        <ele>1744.2</ele>
        <time>2022-02-12T13:38:51Z</time>
      </trkpt>
      <trkpt lat="42.86225" lon="0.26206">
        <ele>1743.6</ele>
        <time>2022-02-12T13:38:56Z</time>
      </trkpt>
      <trkpt lat="42.86222" lon="0.26206">
        <ele>1743.4</ele>
        <time>2022-02-12T13:39:00Z</time>
      </trkpt>
      <trkpt lat="42.86222" lon="0.26208">
        <ele>1743.6</ele>
        <time>2022-02-12T13:39:06Z</time>
      </trkpt>
      <trkpt lat="42.86222" lon="0.26209">
        <ele>1743.8</ele>
        <time>2022-02-12T13:39:10Z</time>
      </trkpt>
      <trkpt lat="42.86215" lon="0.26207">
        <ele>1743.6</ele>
        <time>2022-02-12T13:39:14Z</time>
      </trkpt>
      <trkpt lat="42.86213" lon="0.26207">
        <ele>1743.4</ele>
        <time>2022-02-12T13:39:15Z</time>
      </trkpt>
      <trkpt lat="42.86212" lon="0.26207">
        <ele>1743.4</ele>
        <time>2022-02-12T13:39:16Z</time>
      </trkpt>
      <trkpt lat="42.8621" lon="0.26206">
        <ele>1743</ele>
        <time>2022-02-12T13:39:17Z</time>
      </trkpt>
      <trkpt lat="42.86206" lon="0.26206">
        <ele>1742.4</ele>
        <time>2022-02-12T13:39:19Z</time>
      </trkpt>
      <trkpt lat="42.86205" lon="0.26207">
        <ele>1741.6</ele>
        <time>2022-02-12T13:39:20Z</time>
      </trkpt>
      <trkpt lat="42.86202" lon="0.2621">
        <ele>1740.8</ele>
        <time>2022-02-12T13:39:22Z</time>
      </trkpt>
      <trkpt lat="42.862" lon="0.2621">
        <ele>1740.4</ele>
        <time>2022-02-12T13:39:23Z</time>
      </trkpt>
      <trkpt lat="42.86199" lon="0.26211">
        <ele>1739.6</ele>
        <time>2022-02-12T13:39:25Z</time>
      </trkpt>
      <trkpt lat="42.86199" lon="0.2621">
        <ele>1739.2</ele>
        <time>2022-02-12T13:39:27Z</time>
      </trkpt>
      <trkpt lat="42.86187" lon="0.26191">
        <ele>1738.2</ele>
        <time>2022-02-12T13:39:34Z</time>
      </trkpt>
      <trkpt lat="42.86187" lon="0.26191">
        <ele>1738</ele>
        <time>2022-02-12T13:39:35Z</time>
      </trkpt>
      <trkpt lat="42.86187" lon="0.26191">
        <ele>1737</ele>
        <time>2022-02-12T13:39:36Z</time>
      </trkpt>
      <trkpt lat="42.86174" lon="0.26184">
        <ele>1735.4</ele>
        <time>2022-02-12T13:39:37Z</time>
      </trkpt>
      <trkpt lat="42.86174" lon="0.26184">
        <ele>1733.6</ele>
        <time>2022-02-12T13:39:38Z</time>
      </trkpt>
      <trkpt lat="42.86174" lon="0.26184">
        <ele>1730.8</ele>
        <time>2022-02-12T13:39:39Z</time>
      </trkpt>
      <trkpt lat="42.86174" lon="0.26184">
        <ele>1728.4</ele>
        <time>2022-02-12T13:39:40Z</time>
      </trkpt>
      <trkpt lat="42.86174" lon="0.26184">
        <ele>1726.8</ele>
        <time>2022-02-12T13:39:41Z</time>
      </trkpt>
      <trkpt lat="42.8615" lon="0.26183">
        <ele>1724.8</ele>
        <time>2022-02-12T13:39:42Z</time>
      </trkpt>
      <trkpt lat="42.86144" lon="0.26183">
        <ele>1723.4</ele>
        <time>2022-02-12T13:39:43Z</time>
      </trkpt>
      <trkpt lat="42.86139" lon="0.26184">
        <ele>1721.2</ele>
        <time>2022-02-12T13:39:44Z</time>
      </trkpt>
      <trkpt lat="42.86139" lon="0.26184">
        <ele>1720</ele>
        <time>2022-02-12T13:39:45Z</time>
      </trkpt>
      <trkpt lat="42.86127" lon="0.26187">
        <ele>1718.8</ele>
        <time>2022-02-12T13:39:46Z</time>
      </trkpt>
      <trkpt lat="42.86127" lon="0.26187">
        <ele>1717.6</ele>
        <time>2022-02-12T13:39:47Z</time>
      </trkpt>
      <trkpt lat="42.86127" lon="0.26187">
        <ele>1716.6</ele>
        <time>2022-02-12T13:39:48Z</time>
      </trkpt>
      <trkpt lat="42.86127" lon="0.26187">
        <ele>1714.6</ele>
        <time>2022-02-12T13:39:49Z</time>
      </trkpt>
      <trkpt lat="42.86127" lon="0.26187">
        <ele>1713</ele>
        <time>2022-02-12T13:39:50Z</time>
      </trkpt>
      <trkpt lat="42.86101" lon="0.26207">
        <ele>1710.6</ele>
        <time>2022-02-12T13:39:51Z</time>
      </trkpt>
      <trkpt lat="42.86097" lon="0.2621">
        <ele>1708.6</ele>
        <time>2022-02-12T13:39:52Z</time>
      </trkpt>
      <trkpt lat="42.86095" lon="0.26214">
        <ele>1707.4</ele>
        <time>2022-02-12T13:39:53Z</time>
      </trkpt>
      <trkpt lat="42.86092" lon="0.26217">
        <ele>1706.8</ele>
        <time>2022-02-12T13:39:54Z</time>
      </trkpt>
      <trkpt lat="42.86084" lon="0.26225">
        <ele>1706.2</ele>
        <time>2022-02-12T13:39:56Z</time>
      </trkpt>
      <trkpt lat="42.86076" lon="0.26235">
        <ele>1705.2</ele>
        <time>2022-02-12T13:39:58Z</time>
      </trkpt>
      <trkpt lat="42.86072" lon="0.26239">
        <ele>1704</ele>
        <time>2022-02-12T13:39:59Z</time>
      </trkpt>
      <trkpt lat="42.86064" lon="0.26245">
        <ele>1702.4</ele>
        <time>2022-02-12T13:40:01Z</time>
      </trkpt>
      <trkpt lat="42.8606" lon="0.26246">
        <ele>1701</ele>
        <time>2022-02-12T13:40:02Z</time>
      </trkpt>
      <trkpt lat="42.86056" lon="0.26246">
        <ele>1700.2</ele>
        <time>2022-02-12T13:40:03Z</time>
      </trkpt>
      <trkpt lat="42.86051" lon="0.26246">
        <ele>1699.4</ele>
        <time>2022-02-12T13:40:04Z</time>
      </trkpt>
      <trkpt lat="42.86046" lon="0.2625">
        <ele>1698.8</ele>
        <time>2022-02-12T13:40:05Z</time>
      </trkpt>
      <trkpt lat="42.86042" lon="0.26253">
        <ele>1698.4</ele>
        <time>2022-02-12T13:40:06Z</time>
      </trkpt>
      <trkpt lat="42.86037" lon="0.26256">
        <ele>1697</ele>
        <time>2022-02-12T13:40:07Z</time>
      </trkpt>
      <trkpt lat="42.86033" lon="0.26262">
        <ele>1694.8</ele>
        <time>2022-02-12T13:40:08Z</time>
      </trkpt>
      <trkpt lat="42.8603" lon="0.26267">
        <ele>1693.4</ele>
        <time>2022-02-12T13:40:09Z</time>
      </trkpt>
      <trkpt lat="42.86027" lon="0.26273">
        <ele>1690.2</ele>
        <time>2022-02-12T13:40:11Z</time>
      </trkpt>
      <trkpt lat="42.86027" lon="0.26274">
        <ele>1689.2</ele>
        <time>2022-02-12T13:40:12Z</time>
      </trkpt>
      <trkpt lat="42.86026" lon="0.26275">
        <ele>1687.8</ele>
        <time>2022-02-12T13:40:13Z</time>
      </trkpt>
      <trkpt lat="42.86026" lon="0.26276">
        <ele>1686.8</ele>
        <time>2022-02-12T13:40:14Z</time>
      </trkpt>
      <trkpt lat="42.86025" lon="0.26277">
        <ele>1685.8</ele>
        <time>2022-02-12T13:40:16Z</time>
      </trkpt>
      <trkpt lat="42.86025" lon="0.26278">
        <ele>1685.8</ele>
        <time>2022-02-12T13:40:19Z</time>
      </trkpt>
      <trkpt lat="42.86027" lon="0.26275">
        <ele>1686.6</ele>
        <time>2022-02-12T13:40:26Z</time>
      </trkpt>
      <trkpt lat="42.86027" lon="0.26273">
        <ele>1686.8</ele>
        <time>2022-02-12T13:40:33Z</time>
      </trkpt>
      <trkpt lat="42.86028" lon="0.26272">
        <ele>1686.8</ele>
        <time>2022-02-12T13:40:36Z</time>
      </trkpt>
      <trkpt lat="42.86029" lon="0.26272">
        <ele>1687.6</ele>
        <time>2022-02-12T13:40:43Z</time>
      </trkpt>
      <trkpt lat="42.86028" lon="0.26277">
        <ele>1686.6</ele>
        <time>2022-02-12T13:40:50Z</time>
      </trkpt>
      <trkpt lat="42.86026" lon="0.26273">
        <ele>1687.2</ele>
        <time>2022-02-12T13:41:00Z</time>
      </trkpt>
      <trkpt lat="42.86026" lon="0.26272">
        <ele>1687.2</ele>
        <time>2022-02-12T13:41:03Z</time>
      </trkpt>
      <trkpt lat="42.86028" lon="0.2627">
        <ele>1687.4</ele>
        <time>2022-02-12T13:41:09Z</time>
      </trkpt>
      <trkpt lat="42.86027" lon="0.26274">
        <ele>1687</ele>
        <time>2022-02-12T13:41:20Z</time>
      </trkpt>
      <trkpt lat="42.86026" lon="0.26274">
        <ele>1687.2</ele>
        <time>2022-02-12T13:41:24Z</time>
      </trkpt>
      <trkpt lat="42.86027" lon="0.26276">
        <ele>1689.2</ele>
        <time>2022-02-12T13:41:31Z</time>
      </trkpt>
      <trkpt lat="42.86026" lon="0.26274">
        <ele>1689.2</ele>
        <time>2022-02-12T13:41:34Z</time>
      </trkpt>
      <trkpt lat="42.86026" lon="0.26274">
        <ele>1688.2</ele>
        <time>2022-02-12T13:41:35Z</time>
      </trkpt>
      <trkpt lat="42.86026" lon="0.26272">
        <ele>1687</ele>
        <time>2022-02-12T13:41:39Z</time>
      </trkpt>
      <trkpt lat="42.86027" lon="0.26272">
        <ele>1687</ele>
        <time>2022-02-12T13:41:47Z</time>
      </trkpt>
      <trkpt lat="42.86026" lon="0.26271">
        <ele>1687</ele>
        <time>2022-02-12T13:41:53Z</time>
      </trkpt>
      <trkpt lat="42.86027" lon="0.26271">
        <ele>1687</ele>
        <time>2022-02-12T13:41:59Z</time>
      </trkpt>
      <trkpt lat="42.86026" lon="0.26274">
        <ele>1687</ele>
        <time>2022-02-12T13:42:08Z</time>
      </trkpt>
      <trkpt lat="42.86014" lon="0.26288">
        <ele>1687</ele>
        <time>2022-02-12T13:42:14Z</time>
      </trkpt>
      <trkpt lat="42.85992" lon="0.26305">
        <ele>1687</ele>
        <time>2022-02-12T13:42:18Z</time>
      </trkpt>
      <trkpt lat="42.85986" lon="0.2631">
        <ele>1684.6</ele>
        <time>2022-02-12T13:42:19Z</time>
      </trkpt>
      <trkpt lat="42.8598" lon="0.26315">
        <ele>1683.2</ele>
        <time>2022-02-12T13:42:20Z</time>
      </trkpt>
      <trkpt lat="42.85974" lon="0.2632">
        <ele>1681.4</ele>
        <time>2022-02-12T13:42:21Z</time>
      </trkpt>
      <trkpt lat="42.85968" lon="0.26326">
        <ele>1680.2</ele>
        <time>2022-02-12T13:42:22Z</time>
      </trkpt>
      <trkpt lat="42.85959" lon="0.26335">
        <ele>1677.6</ele>
        <time>2022-02-12T13:42:24Z</time>
      </trkpt>
      <trkpt lat="42.8595" lon="0.26343">
        <ele>1675.8</ele>
        <time>2022-02-12T13:42:26Z</time>
      </trkpt>
      <trkpt lat="42.85946" lon="0.26346">
        <ele>1675.4</ele>
        <time>2022-02-12T13:42:27Z</time>
      </trkpt>
      <trkpt lat="42.85936" lon="0.2636">
        <ele>1674.6</ele>
        <time>2022-02-12T13:42:30Z</time>
      </trkpt>
      <trkpt lat="42.85933" lon="0.26364">
        <ele>1673.8</ele>
        <time>2022-02-12T13:42:31Z</time>
      </trkpt>
      <trkpt lat="42.85932" lon="0.26367">
        <ele>1673.2</ele>
        <time>2022-02-12T13:42:32Z</time>
      </trkpt>
      <trkpt lat="42.85931" lon="0.2637">
        <ele>1673</ele>
        <time>2022-02-12T13:42:33Z</time>
      </trkpt>
      <trkpt lat="42.85929" lon="0.26371">
        <ele>1672</ele>
        <time>2022-02-12T13:42:35Z</time>
      </trkpt>
      <trkpt lat="42.85929" lon="0.26373">
        <ele>1671.8</ele>
        <time>2022-02-12T13:42:36Z</time>
      </trkpt>
      <trkpt lat="42.85927" lon="0.26379">
        <ele>1671</ele>
        <time>2022-02-12T13:42:39Z</time>
      </trkpt>
      <trkpt lat="42.85925" lon="0.26385">
        <ele>1670.8</ele>
        <time>2022-02-12T13:42:42Z</time>
      </trkpt>
      <trkpt lat="42.85922" lon="0.26391">
        <ele>1670.6</ele>
        <time>2022-02-12T13:42:45Z</time>
      </trkpt>
      <trkpt lat="42.85921" lon="0.26395">
        <ele>1670.2</ele>
        <time>2022-02-12T13:42:47Z</time>
      </trkpt>
      <trkpt lat="42.8592" lon="0.26395">
        <ele>1669.4</ele>
        <time>2022-02-12T13:42:49Z</time>
      </trkpt>
      <trkpt lat="42.85922" lon="0.26397">
        <ele>1669.2</ele>
        <time>2022-02-12T13:42:50Z</time>
      </trkpt>
      <trkpt lat="42.85922" lon="0.26397">
        <ele>1668.8</ele>
        <time>2022-02-12T13:42:51Z</time>
      </trkpt>
      <trkpt lat="42.8592" lon="0.26396">
        <ele>1670.4</ele>
        <time>2022-02-12T13:43:06Z</time>
      </trkpt>
      <trkpt lat="42.8592" lon="0.26396">
        <ele>1670.6</ele>
        <time>2022-02-12T13:43:08Z</time>
      </trkpt>
      <trkpt lat="42.8592" lon="0.26396">
        <ele>1671.2</ele>
        <time>2022-02-12T13:43:16Z</time>
      </trkpt>
      <trkpt lat="42.85921" lon="0.26395">
        <ele>1671.4</ele>
        <time>2022-02-12T13:43:27Z</time>
      </trkpt>
      <trkpt lat="42.8592" lon="0.26396">
        <ele>1671.6</ele>
        <time>2022-02-12T13:43:33Z</time>
      </trkpt>
      <trkpt lat="42.85917" lon="0.26392">
        <ele>1671.4</ele>
        <time>2022-02-12T13:43:35Z</time>
      </trkpt>
      <trkpt lat="42.85918" lon="0.26382">
        <ele>1669.8</ele>
        <time>2022-02-12T13:43:39Z</time>
      </trkpt>
      <trkpt lat="42.85918" lon="0.26379">
        <ele>1669.6</ele>
        <time>2022-02-12T13:43:40Z</time>
      </trkpt>
      <trkpt lat="42.85919" lon="0.26371">
        <ele>1669.8</ele>
        <time>2022-02-12T13:43:45Z</time>
      </trkpt>
      <trkpt lat="42.85919" lon="0.26368">
        <ele>1670.4</ele>
        <time>2022-02-12T13:43:51Z</time>
      </trkpt>
      <trkpt lat="42.85919" lon="0.26368">
        <ele>1670.4</ele>
        <time>2022-02-12T13:43:52Z</time>
      </trkpt>
      <trkpt lat="42.8592" lon="0.26367">
        <ele>1670.4</ele>
        <time>2022-02-12T13:43:56Z</time>
      </trkpt>
      <trkpt lat="42.8592" lon="0.26367">
        <ele>1670.4</ele>
        <time>2022-02-12T13:43:58Z</time>
      </trkpt>
      <trkpt lat="42.85921" lon="0.26366">
        <ele>1670.2</ele>
        <time>2022-02-12T13:44:02Z</time>
      </trkpt>
      <trkpt lat="42.85921" lon="0.26365">
        <ele>1670.4</ele>
        <time>2022-02-12T13:44:06Z</time>
      </trkpt>
      <trkpt lat="42.85922" lon="0.26365">
        <ele>1670.6</ele>
        <time>2022-02-12T13:44:07Z</time>
      </trkpt>
      <trkpt lat="42.85922" lon="0.26365">
        <ele>1670.4</ele>
        <time>2022-02-12T13:44:11Z</time>
      </trkpt>
      <trkpt lat="42.85922" lon="0.26366">
        <ele>1670.4</ele>
        <time>2022-02-12T13:44:15Z</time>
      </trkpt>
      <trkpt lat="42.85921" lon="0.26366">
        <ele>1670.2</ele>
        <time>2022-02-12T13:44:19Z</time>
      </trkpt>
      <trkpt lat="42.85921" lon="0.26366">
        <ele>1670.2</ele>
        <time>2022-02-12T13:44:20Z</time>
      </trkpt>
      <trkpt lat="42.85921" lon="0.26366">
        <ele>1670.2</ele>
        <time>2022-02-12T13:44:23Z</time>
      </trkpt>
      <trkpt lat="42.85922" lon="0.26367">
        <ele>1670.2</ele>
        <time>2022-02-12T13:44:30Z</time>
      </trkpt>
      <trkpt lat="42.85922" lon="0.26367">
        <ele>1670.4</ele>
        <time>2022-02-12T13:44:36Z</time>
      </trkpt>
      <trkpt lat="42.85922" lon="0.26367">
        <ele>1670.4</ele>
        <time>2022-02-12T13:44:49Z</time>
      </trkpt>
      <trkpt lat="42.85922" lon="0.26366">
        <ele>1670.2</ele>
        <time>2022-02-12T13:44:57Z</time>
      </trkpt>
      <trkpt lat="42.85922" lon="0.26366">
        <ele>1670</ele>
        <time>2022-02-12T13:45:01Z</time>
      </trkpt>
      <trkpt lat="42.85923" lon="0.26366">
        <ele>1670.2</ele>
        <time>2022-02-12T13:45:10Z</time>
      </trkpt>
      <trkpt lat="42.85924" lon="0.26365">
        <ele>1670.2</ele>
        <time>2022-02-12T13:45:18Z</time>
      </trkpt>
      <trkpt lat="42.85924" lon="0.26365">
        <ele>1670.6</ele>
        <time>2022-02-12T13:45:23Z</time>
      </trkpt>
      <trkpt lat="42.85925" lon="0.26365">
        <ele>1670.6</ele>
        <time>2022-02-12T13:45:25Z</time>
      </trkpt>
      <trkpt lat="42.85925" lon="0.26364">
        <ele>1670.8</ele>
        <time>2022-02-12T13:45:27Z</time>
      </trkpt>
      <trkpt lat="42.85925" lon="0.26362">
        <ele>1671.6</ele>
        <time>2022-02-12T13:45:30Z</time>
      </trkpt>
      <trkpt lat="42.85925" lon="0.26362">
        <ele>1671.6</ele>
        <time>2022-02-12T13:45:31Z</time>
      </trkpt>
      <trkpt lat="42.85926" lon="0.2636">
        <ele>1672</ele>
        <time>2022-02-12T13:45:40Z</time>
      </trkpt>
      <trkpt lat="42.85926" lon="0.26359">
        <ele>1671.4</ele>
        <time>2022-02-12T13:45:46Z</time>
      </trkpt>
      <trkpt lat="42.85926" lon="0.26359">
        <ele>1671.2</ele>
        <time>2022-02-12T13:45:56Z</time>
      </trkpt>
      <trkpt lat="42.85926" lon="0.26359">
        <ele>1671.2</ele>
        <time>2022-02-12T13:45:57Z</time>
      </trkpt>
      <trkpt lat="42.85926" lon="0.26359">
        <ele>1671</ele>
        <time>2022-02-12T13:46:00Z</time>
      </trkpt>
      <trkpt lat="42.85926" lon="0.26359">
        <ele>1671.2</ele>
        <time>2022-02-12T13:46:03Z</time>
      </trkpt>
      <trkpt lat="42.85925" lon="0.26352">
        <ele>1671.6</ele>
        <time>2022-02-12T13:46:08Z</time>
      </trkpt>
      <trkpt lat="42.85925" lon="0.26348">
        <ele>1671.4</ele>
        <time>2022-02-12T13:46:09Z</time>
      </trkpt>
      <trkpt lat="42.85926" lon="0.26339">
        <ele>1670.4</ele>
        <time>2022-02-12T13:46:11Z</time>
      </trkpt>
      <trkpt lat="42.85926" lon="0.26335">
        <ele>1669.6</ele>
        <time>2022-02-12T13:46:12Z</time>
      </trkpt>
      <trkpt lat="42.85925" lon="0.26332">
        <ele>1669</ele>
        <time>2022-02-12T13:46:13Z</time>
      </trkpt>
      <trkpt lat="42.8592" lon="0.2633">
        <ele>1667.6</ele>
        <time>2022-02-12T13:46:15Z</time>
      </trkpt>
      <trkpt lat="42.85914" lon="0.26324">
        <ele>1665.4</ele>
        <time>2022-02-12T13:46:17Z</time>
      </trkpt>
      <trkpt lat="42.85911" lon="0.2632">
        <ele>1664.6</ele>
        <time>2022-02-12T13:46:18Z</time>
      </trkpt>
      <trkpt lat="42.85909" lon="0.26317">
        <ele>1662.8</ele>
        <time>2022-02-12T13:46:19Z</time>
      </trkpt>
      <trkpt lat="42.85906" lon="0.26316">
        <ele>1661.6</ele>
        <time>2022-02-12T13:46:20Z</time>
      </trkpt>
      <trkpt lat="42.85903" lon="0.26314">
        <ele>1659.8</ele>
        <time>2022-02-12T13:46:21Z</time>
      </trkpt>
      <trkpt lat="42.85899" lon="0.26311">
        <ele>1658.2</ele>
        <time>2022-02-12T13:46:22Z</time>
      </trkpt>
      <trkpt lat="42.85896" lon="0.2631">
        <ele>1657</ele>
        <time>2022-02-12T13:46:23Z</time>
      </trkpt>
      <trkpt lat="42.85894" lon="0.26312">
        <ele>1655.4</ele>
        <time>2022-02-12T13:46:24Z</time>
      </trkpt>
      <trkpt lat="42.85891" lon="0.26315">
        <ele>1653.6</ele>
        <time>2022-02-12T13:46:25Z</time>
      </trkpt>
      <trkpt lat="42.8589" lon="0.26318">
        <ele>1652.8</ele>
        <time>2022-02-12T13:46:26Z</time>
      </trkpt>
      <trkpt lat="42.85889" lon="0.2632">
        <ele>1651.6</ele>
        <time>2022-02-12T13:46:27Z</time>
      </trkpt>
      <trkpt lat="42.85889" lon="0.26321">
        <ele>1650.4</ele>
        <time>2022-02-12T13:46:28Z</time>
      </trkpt>
      <trkpt lat="42.85889" lon="0.26322">
        <ele>1649.6</ele>
        <time>2022-02-12T13:46:30Z</time>
      </trkpt>
      <trkpt lat="42.85889" lon="0.26322">
        <ele>1649.4</ele>
        <time>2022-02-12T13:46:32Z</time>
      </trkpt>
      <trkpt lat="42.85889" lon="0.26322">
        <ele>1649.8</ele>
        <time>2022-02-12T13:46:39Z</time>
      </trkpt>
      <trkpt lat="42.85889" lon="0.26322">
        <ele>1650.4</ele>
        <time>2022-02-12T13:46:42Z</time>
      </trkpt>
      <trkpt lat="42.85889" lon="0.26321">
        <ele>1650.2</ele>
        <time>2022-02-12T13:46:50Z</time>
      </trkpt>
      <trkpt lat="42.85889" lon="0.26321">
        <ele>1649.8</ele>
        <time>2022-02-12T13:46:55Z</time>
      </trkpt>
      <trkpt lat="42.85889" lon="0.26321">
        <ele>1649.6</ele>
        <time>2022-02-12T13:47:06Z</time>
      </trkpt>
      <trkpt lat="42.85886" lon="0.26325">
        <ele>1650</ele>
        <time>2022-02-12T13:47:17Z</time>
      </trkpt>
      <trkpt lat="42.85883" lon="0.26328">
        <ele>1649.8</ele>
        <time>2022-02-12T13:47:18Z</time>
      </trkpt>
      <trkpt lat="42.85881" lon="0.26332">
        <ele>1649.4</ele>
        <time>2022-02-12T13:47:19Z</time>
      </trkpt>
      <trkpt lat="42.8588" lon="0.26336">
        <ele>1649.2</ele>
        <time>2022-02-12T13:47:20Z</time>
      </trkpt>
      <trkpt lat="42.8588" lon="0.2634">
        <ele>1648.4</ele>
        <time>2022-02-12T13:47:22Z</time>
      </trkpt>
      <trkpt lat="42.8588" lon="0.2634">
        <ele>1647.8</ele>
        <time>2022-02-12T13:47:23Z</time>
      </trkpt>
      <trkpt lat="42.8588" lon="0.26341">
        <ele>1647.2</ele>
        <time>2022-02-12T13:47:25Z</time>
      </trkpt>
      <trkpt lat="42.8588" lon="0.26341">
        <ele>1647</ele>
        <time>2022-02-12T13:47:28Z</time>
      </trkpt>
      <trkpt lat="42.85881" lon="0.26341">
        <ele>1647</ele>
        <time>2022-02-12T13:47:31Z</time>
      </trkpt>
      <trkpt lat="42.85881" lon="0.26342">
        <ele>1647</ele>
        <time>2022-02-12T13:47:33Z</time>
      </trkpt>
      <trkpt lat="42.85881" lon="0.26342">
        <ele>1647</ele>
        <time>2022-02-12T13:47:36Z</time>
      </trkpt>
      <trkpt lat="42.85881" lon="0.26343">
        <ele>1647.2</ele>
        <time>2022-02-12T13:47:39Z</time>
      </trkpt>
      <trkpt lat="42.85881" lon="0.26342">
        <ele>1648</ele>
        <time>2022-02-12T13:47:44Z</time>
      </trkpt>
      <trkpt lat="42.85881" lon="0.26342">
        <ele>1647.8</ele>
        <time>2022-02-12T13:47:51Z</time>
      </trkpt>
      <trkpt lat="42.8588" lon="0.2634">
        <ele>1648</ele>
        <time>2022-02-12T13:47:59Z</time>
      </trkpt>
      <trkpt lat="42.8588" lon="0.2634">
        <ele>1648</ele>
        <time>2022-02-12T13:48:04Z</time>
      </trkpt>
      <trkpt lat="42.85881" lon="0.26341">
        <ele>1648</ele>
        <time>2022-02-12T13:48:10Z</time>
      </trkpt>
      <trkpt lat="42.8588" lon="0.26342">
        <ele>1648</ele>
        <time>2022-02-12T13:48:11Z</time>
      </trkpt>
      <trkpt lat="42.85881" lon="0.26343">
        <ele>1647.6</ele>
        <time>2022-02-12T13:48:18Z</time>
      </trkpt>
      <trkpt lat="42.85881" lon="0.26343">
        <ele>1648.2</ele>
        <time>2022-02-12T13:48:25Z</time>
      </trkpt>
      <trkpt lat="42.85881" lon="0.26343">
        <ele>1648.2</ele>
        <time>2022-02-12T13:48:26Z</time>
      </trkpt>
      <trkpt lat="42.85881" lon="0.26344">
        <ele>1648</ele>
        <time>2022-02-12T13:48:27Z</time>
      </trkpt>
      <trkpt lat="42.8588" lon="0.26343">
        <ele>1648</ele>
        <time>2022-02-12T13:48:29Z</time>
      </trkpt>
      <trkpt lat="42.8588" lon="0.26342">
        <ele>1648</ele>
        <time>2022-02-12T13:48:34Z</time>
      </trkpt>
      <trkpt lat="42.85881" lon="0.26344">
        <ele>1648</ele>
        <time>2022-02-12T13:48:42Z</time>
      </trkpt>
      <trkpt lat="42.85879" lon="0.26342">
        <ele>1648.6</ele>
        <time>2022-02-12T13:48:49Z</time>
      </trkpt>
      <trkpt lat="42.8588" lon="0.26342">
        <ele>1648.8</ele>
        <time>2022-02-12T13:48:55Z</time>
      </trkpt>
      <trkpt lat="42.8588" lon="0.26342">
        <ele>1649.2</ele>
        <time>2022-02-12T13:48:57Z</time>
      </trkpt>
      <trkpt lat="42.8588" lon="0.26343">
        <ele>1649.4</ele>
        <time>2022-02-12T13:49:00Z</time>
      </trkpt>
      <trkpt lat="42.8588" lon="0.26343">
        <ele>1649</ele>
        <time>2022-02-12T13:49:06Z</time>
      </trkpt>
      <trkpt lat="42.85882" lon="0.26345">
        <ele>1649.4</ele>
        <time>2022-02-12T13:49:12Z</time>
      </trkpt>
      <trkpt lat="42.85882" lon="0.26345">
        <ele>1649.4</ele>
        <time>2022-02-12T13:49:13Z</time>
      </trkpt>
      <trkpt lat="42.85882" lon="0.26345">
        <ele>1649.4</ele>
        <time>2022-02-12T13:49:15Z</time>
      </trkpt>
      <trkpt lat="42.85882" lon="0.26345">
        <ele>1649.2</ele>
        <time>2022-02-12T13:49:16Z</time>
      </trkpt>
      <trkpt lat="42.85882" lon="0.26345">
        <ele>1648.6</ele>
        <time>2022-02-12T13:49:23Z</time>
      </trkpt>
      <trkpt lat="42.85881" lon="0.26346">
        <ele>1648.8</ele>
        <time>2022-02-12T13:49:27Z</time>
      </trkpt>
      <trkpt lat="42.85881" lon="0.26341">
        <ele>1648.2</ele>
        <time>2022-02-12T13:49:34Z</time>
      </trkpt>
      <trkpt lat="42.85881" lon="0.2634">
        <ele>1648.2</ele>
        <time>2022-02-12T13:49:35Z</time>
      </trkpt>
      <trkpt lat="42.85879" lon="0.26338">
        <ele>1649.4</ele>
        <time>2022-02-12T13:49:44Z</time>
      </trkpt>
      <trkpt lat="42.85878" lon="0.26339">
        <ele>1650</ele>
        <time>2022-02-12T13:49:52Z</time>
      </trkpt>
      <trkpt lat="42.85878" lon="0.26339">
        <ele>1650.4</ele>
        <time>2022-02-12T13:49:56Z</time>
      </trkpt>
      <trkpt lat="42.85878" lon="0.26339">
        <ele>1650.6</ele>
        <time>2022-02-12T13:49:58Z</time>
      </trkpt>
      <trkpt lat="42.85878" lon="0.26339">
        <ele>1650.8</ele>
        <time>2022-02-12T13:50:05Z</time>
      </trkpt>
      <trkpt lat="42.85878" lon="0.26339">
        <ele>1651.2</ele>
        <time>2022-02-12T13:50:07Z</time>
      </trkpt>
      <trkpt lat="42.85878" lon="0.2634">
        <ele>1651.2</ele>
        <time>2022-02-12T13:50:18Z</time>
      </trkpt>
      <trkpt lat="42.85878" lon="0.26339">
        <ele>1651.4</ele>
        <time>2022-02-12T13:50:24Z</time>
      </trkpt>
      <trkpt lat="42.85878" lon="0.26339">
        <ele>1651.6</ele>
        <time>2022-02-12T13:50:26Z</time>
      </trkpt>
      <trkpt lat="42.85878" lon="0.2634">
        <ele>1651.8</ele>
        <time>2022-02-12T13:50:34Z</time>
      </trkpt>
      <trkpt lat="42.85875" lon="0.26337">
        <ele>1651.8</ele>
        <time>2022-02-12T13:50:43Z</time>
      </trkpt>
      <trkpt lat="42.85875" lon="0.26338">
        <ele>1652</ele>
        <time>2022-02-12T13:50:45Z</time>
      </trkpt>
      <trkpt lat="42.85877" lon="0.26337">
        <ele>1652.2</ele>
        <time>2022-02-12T13:50:51Z</time>
      </trkpt>
      <trkpt lat="42.85877" lon="0.26338">
        <ele>1652.2</ele>
        <time>2022-02-12T13:50:53Z</time>
      </trkpt>
      <trkpt lat="42.85876" lon="0.26338">
        <ele>1652</ele>
        <time>2022-02-12T13:50:55Z</time>
      </trkpt>
      <trkpt lat="42.85876" lon="0.26339">
        <ele>1652</ele>
        <time>2022-02-12T13:50:58Z</time>
      </trkpt>
      <trkpt lat="42.85877" lon="0.26342">
        <ele>1651.8</ele>
        <time>2022-02-12T13:51:01Z</time>
      </trkpt>
      <trkpt lat="42.85877" lon="0.26343">
        <ele>1649.6</ele>
        <time>2022-02-12T13:51:02Z</time>
      </trkpt>
      <trkpt lat="42.85876" lon="0.26339">
        <ele>1650.6</ele>
        <time>2022-02-12T13:51:06Z</time>
      </trkpt>
      <trkpt lat="42.85876" lon="0.26338">
        <ele>1651.4</ele>
        <time>2022-02-12T13:51:08Z</time>
      </trkpt>
      <trkpt lat="42.85877" lon="0.26339">
        <ele>1651.6</ele>
        <time>2022-02-12T13:51:10Z</time>
      </trkpt>
      <trkpt lat="42.85878" lon="0.26341">
        <ele>1651.6</ele>
        <time>2022-02-12T13:51:17Z</time>
      </trkpt>
      <trkpt lat="42.85877" lon="0.2634">
        <ele>1651.4</ele>
        <time>2022-02-12T13:51:23Z</time>
      </trkpt>
      <trkpt lat="42.85877" lon="0.26339">
        <ele>1651.8</ele>
        <time>2022-02-12T13:51:28Z</time>
      </trkpt>
      <trkpt lat="42.85878" lon="0.2634">
        <ele>1651.8</ele>
        <time>2022-02-12T13:51:33Z</time>
      </trkpt>
      <trkpt lat="42.8588" lon="0.26341">
        <ele>1651.6</ele>
        <time>2022-02-12T13:51:41Z</time>
      </trkpt>
      <trkpt lat="42.8588" lon="0.26341">
        <ele>1651.4</ele>
        <time>2022-02-12T13:51:44Z</time>
      </trkpt>
      <trkpt lat="42.8588" lon="0.26341">
        <ele>1651.4</ele>
        <time>2022-02-12T13:51:45Z</time>
      </trkpt>
      <trkpt lat="42.85879" lon="0.26341">
        <ele>1651.4</ele>
        <time>2022-02-12T13:51:47Z</time>
      </trkpt>
      <trkpt lat="42.85879" lon="0.26341">
        <ele>1651.8</ele>
        <time>2022-02-12T13:51:50Z</time>
      </trkpt>
      <trkpt lat="42.85879" lon="0.26341">
        <ele>1651.8</ele>
        <time>2022-02-12T13:51:56Z</time>
      </trkpt>
      <trkpt lat="42.85881" lon="0.26342">
        <ele>1652</ele>
        <time>2022-02-12T13:52:05Z</time>
      </trkpt>
      <trkpt lat="42.85876" lon="0.26343">
        <ele>1652</ele>
        <time>2022-02-12T13:52:11Z</time>
      </trkpt>
      <trkpt lat="42.85875" lon="0.26346">
        <ele>1651</ele>
        <time>2022-02-12T13:52:16Z</time>
      </trkpt>
      <trkpt lat="42.85874" lon="0.26347">
        <ele>1650.4</ele>
        <time>2022-02-12T13:52:17Z</time>
      </trkpt>
      <trkpt lat="42.85873" lon="0.26349">
        <ele>1649.4</ele>
        <time>2022-02-12T13:52:20Z</time>
      </trkpt>
      <trkpt lat="42.85872" lon="0.2635">
        <ele>1648.6</ele>
        <time>2022-02-12T13:52:22Z</time>
      </trkpt>
      <trkpt lat="42.85872" lon="0.26351">
        <ele>1648.4</ele>
        <time>2022-02-12T13:52:23Z</time>
      </trkpt>
      <trkpt lat="42.85871" lon="0.26351">
        <ele>1648</ele>
        <time>2022-02-12T13:52:24Z</time>
      </trkpt>
      <trkpt lat="42.8587" lon="0.26353">
        <ele>1646.8</ele>
        <time>2022-02-12T13:52:28Z</time>
      </trkpt>
      <trkpt lat="42.8587" lon="0.26354">
        <ele>1646.6</ele>
        <time>2022-02-12T13:52:29Z</time>
      </trkpt>
      <trkpt lat="42.85869" lon="0.26354">
        <ele>1646.4</ele>
        <time>2022-02-12T13:52:30Z</time>
      </trkpt>
      <trkpt lat="42.85868" lon="0.26354">
        <ele>1645.8</ele>
        <time>2022-02-12T13:52:34Z</time>
      </trkpt>
      <trkpt lat="42.85868" lon="0.26354">
        <ele>1645.4</ele>
        <time>2022-02-12T13:52:35Z</time>
      </trkpt>
      <trkpt lat="42.85866" lon="0.26354">
        <ele>1644.6</ele>
        <time>2022-02-12T13:52:38Z</time>
      </trkpt>
      <trkpt lat="42.85862" lon="0.26353">
        <ele>1643.6</ele>
        <time>2022-02-12T13:52:42Z</time>
      </trkpt>
      <trkpt lat="42.85862" lon="0.26353">
        <ele>1643.4</ele>
        <time>2022-02-12T13:52:43Z</time>
      </trkpt>
      <trkpt lat="42.85861" lon="0.26355">
        <ele>1642.4</ele>
        <time>2022-02-12T13:52:46Z</time>
      </trkpt>
      <trkpt lat="42.85861" lon="0.26356">
        <ele>1642.2</ele>
        <time>2022-02-12T13:52:47Z</time>
      </trkpt>
      <trkpt lat="42.85859" lon="0.26357">
        <ele>1641.6</ele>
        <time>2022-02-12T13:52:49Z</time>
      </trkpt>
      <trkpt lat="42.85858" lon="0.26358">
        <ele>1641.2</ele>
        <time>2022-02-12T13:52:51Z</time>
      </trkpt>
      <trkpt lat="42.85857" lon="0.26358">
        <ele>1641</ele>
        <time>2022-02-12T13:52:52Z</time>
      </trkpt>
      <trkpt lat="42.85857" lon="0.26359">
        <ele>1640.6</ele>
        <time>2022-02-12T13:52:53Z</time>
      </trkpt>
      <trkpt lat="42.85856" lon="0.2636">
        <ele>1640</ele>
        <time>2022-02-12T13:52:56Z</time>
      </trkpt>
      <trkpt lat="42.85855" lon="0.26362">
        <ele>1638.8</ele>
        <time>2022-02-12T13:52:59Z</time>
      </trkpt>
      <trkpt lat="42.85854" lon="0.26362">
        <ele>1638.2</ele>
        <time>2022-02-12T13:53:00Z</time>
      </trkpt>
      <trkpt lat="42.85852" lon="0.26362">
        <ele>1637.6</ele>
        <time>2022-02-12T13:53:02Z</time>
      </trkpt>
      <trkpt lat="42.8585" lon="0.26363">
        <ele>1636.6</ele>
        <time>2022-02-12T13:53:05Z</time>
      </trkpt>
      <trkpt lat="42.85849" lon="0.26363">
        <ele>1636.4</ele>
        <time>2022-02-12T13:53:06Z</time>
      </trkpt>
      <trkpt lat="42.85849" lon="0.26364">
        <ele>1636</ele>
        <time>2022-02-12T13:53:07Z</time>
      </trkpt>
      <trkpt lat="42.85848" lon="0.26366">
        <ele>1635.6</ele>
        <time>2022-02-12T13:53:09Z</time>
      </trkpt>
      <trkpt lat="42.85847" lon="0.26367">
        <ele>1635.2</ele>
        <time>2022-02-12T13:53:10Z</time>
      </trkpt>
      <trkpt lat="42.85846" lon="0.26367">
        <ele>1634.8</ele>
        <time>2022-02-12T13:53:12Z</time>
      </trkpt>
      <trkpt lat="42.85846" lon="0.26368">
        <ele>1634.4</ele>
        <time>2022-02-12T13:53:13Z</time>
      </trkpt>
      <trkpt lat="42.85845" lon="0.26369">
        <ele>1634</ele>
        <time>2022-02-12T13:53:14Z</time>
      </trkpt>
      <trkpt lat="42.85845" lon="0.26373">
        <ele>1633.2</ele>
        <time>2022-02-12T13:53:16Z</time>
      </trkpt>
      <trkpt lat="42.85844" lon="0.26374">
        <ele>1633</ele>
        <time>2022-02-12T13:53:17Z</time>
      </trkpt>
      <trkpt lat="42.85844" lon="0.26375">
        <ele>1632.6</ele>
        <time>2022-02-12T13:53:18Z</time>
      </trkpt>
      <trkpt lat="42.85842" lon="0.26378">
        <ele>1631.6</ele>
        <time>2022-02-12T13:53:21Z</time>
      </trkpt>
      <trkpt lat="42.85842" lon="0.26379">
        <ele>1630.8</ele>
        <time>2022-02-12T13:53:23Z</time>
      </trkpt>
      <trkpt lat="42.85841" lon="0.26381">
        <ele>1630.6</ele>
        <time>2022-02-12T13:53:25Z</time>
      </trkpt>
      <trkpt lat="42.85841" lon="0.26384">
        <ele>1630.2</ele>
        <time>2022-02-12T13:53:28Z</time>
      </trkpt>
      <trkpt lat="42.85838" lon="0.26386">
        <ele>1629.6</ele>
        <time>2022-02-12T13:53:31Z</time>
      </trkpt>
      <trkpt lat="42.85837" lon="0.26387">
        <ele>1629.2</ele>
        <time>2022-02-12T13:53:32Z</time>
      </trkpt>
      <trkpt lat="42.85837" lon="0.26389">
        <ele>1628.2</ele>
        <time>2022-02-12T13:53:35Z</time>
      </trkpt>
      <trkpt lat="42.85836" lon="0.2639">
        <ele>1627.8</ele>
        <time>2022-02-12T13:53:37Z</time>
      </trkpt>
      <trkpt lat="42.85835" lon="0.26391">
        <ele>1627.2</ele>
        <time>2022-02-12T13:53:39Z</time>
      </trkpt>
      <trkpt lat="42.85834" lon="0.26393">
        <ele>1626.4</ele>
        <time>2022-02-12T13:53:44Z</time>
      </trkpt>
      <trkpt lat="42.85834" lon="0.26394">
        <ele>1626.2</ele>
        <time>2022-02-12T13:53:45Z</time>
      </trkpt>
      <trkpt lat="42.85831" lon="0.26398">
        <ele>1625</ele>
        <time>2022-02-12T13:53:49Z</time>
      </trkpt>
      <trkpt lat="42.8583" lon="0.26398">
        <ele>1624.6</ele>
        <time>2022-02-12T13:53:50Z</time>
      </trkpt>
      <trkpt lat="42.85828" lon="0.26402">
        <ele>1623.8</ele>
        <time>2022-02-12T13:53:53Z</time>
      </trkpt>
      <trkpt lat="42.85826" lon="0.26405">
        <ele>1622.8</ele>
        <time>2022-02-12T13:53:57Z</time>
      </trkpt>
      <trkpt lat="42.85826" lon="0.26406">
        <ele>1622.4</ele>
        <time>2022-02-12T13:53:58Z</time>
      </trkpt>
      <trkpt lat="42.85825" lon="0.26409">
        <ele>1621.4</ele>
        <time>2022-02-12T13:54:01Z</time>
      </trkpt>
      <trkpt lat="42.85823" lon="0.26411">
        <ele>1620.4</ele>
        <time>2022-02-12T13:54:05Z</time>
      </trkpt>
      <trkpt lat="42.85823" lon="0.26412">
        <ele>1620.2</ele>
        <time>2022-02-12T13:54:06Z</time>
      </trkpt>
      <trkpt lat="42.85822" lon="0.26414">
        <ele>1619.2</ele>
        <time>2022-02-12T13:54:09Z</time>
      </trkpt>
      <trkpt lat="42.85821" lon="0.26415">
        <ele>1618.8</ele>
        <time>2022-02-12T13:54:10Z</time>
      </trkpt>
      <trkpt lat="42.8582" lon="0.26416">
        <ele>1617.8</ele>
        <time>2022-02-12T13:54:12Z</time>
      </trkpt>
      <trkpt lat="42.85819" lon="0.26417">
        <ele>1617.4</ele>
        <time>2022-02-12T13:54:13Z</time>
      </trkpt>
      <trkpt lat="42.85818" lon="0.26418">
        <ele>1617.2</ele>
        <time>2022-02-12T13:54:14Z</time>
      </trkpt>
      <trkpt lat="42.85817" lon="0.26421">
        <ele>1616.8</ele>
        <time>2022-02-12T13:54:17Z</time>
      </trkpt>
      <trkpt lat="42.85816" lon="0.26423">
        <ele>1616.6</ele>
        <time>2022-02-12T13:54:18Z</time>
      </trkpt>
      <trkpt lat="42.85816" lon="0.26426">
        <ele>1616</ele>
        <time>2022-02-12T13:54:21Z</time>
      </trkpt>
      <trkpt lat="42.85816" lon="0.26428">
        <ele>1615.8</ele>
        <time>2022-02-12T13:54:22Z</time>
      </trkpt>
      <trkpt lat="42.85815" lon="0.2643">
        <ele>1615.2</ele>
        <time>2022-02-12T13:54:24Z</time>
      </trkpt>
      <trkpt lat="42.85815" lon="0.26432">
        <ele>1614.6</ele>
        <time>2022-02-12T13:54:25Z</time>
      </trkpt>
      <trkpt lat="42.85814" lon="0.26438">
        <ele>1613</ele>
        <time>2022-02-12T13:54:29Z</time>
      </trkpt>
      <trkpt lat="42.85813" lon="0.26441">
        <ele>1612.6</ele>
        <time>2022-02-12T13:54:31Z</time>
      </trkpt>
      <trkpt lat="42.85812" lon="0.26446">
        <ele>1612</ele>
        <time>2022-02-12T13:54:35Z</time>
      </trkpt>
      <trkpt lat="42.85812" lon="0.26449">
        <ele>1610.8</ele>
        <time>2022-02-12T13:54:38Z</time>
      </trkpt>
      <trkpt lat="42.85811" lon="0.26453">
        <ele>1609.6</ele>
        <time>2022-02-12T13:54:42Z</time>
      </trkpt>
      <trkpt lat="42.8581" lon="0.26453">
        <ele>1609.2</ele>
        <time>2022-02-12T13:54:43Z</time>
      </trkpt>
      <trkpt lat="42.85808" lon="0.26455">
        <ele>1608.8</ele>
        <time>2022-02-12T13:54:45Z</time>
      </trkpt>
      <trkpt lat="42.85808" lon="0.26457">
        <ele>1608.6</ele>
        <time>2022-02-12T13:54:47Z</time>
      </trkpt>
      <trkpt lat="42.85806" lon="0.26461">
        <ele>1607.8</ele>
        <time>2022-02-12T13:54:51Z</time>
      </trkpt>
      <trkpt lat="42.85805" lon="0.26463">
        <ele>1607.4</ele>
        <time>2022-02-12T13:54:53Z</time>
      </trkpt>
      <trkpt lat="42.85805" lon="0.26466">
        <ele>1606.4</ele>
        <time>2022-02-12T13:54:57Z</time>
      </trkpt>
      <trkpt lat="42.85804" lon="0.26467">
        <ele>1606.2</ele>
        <time>2022-02-12T13:54:58Z</time>
      </trkpt>
      <trkpt lat="42.85803" lon="0.2647">
        <ele>1605.4</ele>
        <time>2022-02-12T13:55:01Z</time>
      </trkpt>
      <trkpt lat="42.85802" lon="0.26473">
        <ele>1604.6</ele>
        <time>2022-02-12T13:55:03Z</time>
      </trkpt>
      <trkpt lat="42.85801" lon="0.26475">
        <ele>1604</ele>
        <time>2022-02-12T13:55:05Z</time>
      </trkpt>
      <trkpt lat="42.858" lon="0.26479">
        <ele>1603.4</ele>
        <time>2022-02-12T13:55:08Z</time>
      </trkpt>
      <trkpt lat="42.858" lon="0.2648">
        <ele>1603.4</ele>
        <time>2022-02-12T13:55:09Z</time>
      </trkpt>
      <trkpt lat="42.85799" lon="0.26483">
        <ele>1603</ele>
        <time>2022-02-12T13:55:11Z</time>
      </trkpt>
      <trkpt lat="42.85799" lon="0.26487">
        <ele>1602.2</ele>
        <time>2022-02-12T13:55:14Z</time>
      </trkpt>
      <trkpt lat="42.85798" lon="0.26489">
        <ele>1601.6</ele>
        <time>2022-02-12T13:55:16Z</time>
      </trkpt>
      <trkpt lat="42.85797" lon="0.26492">
        <ele>1600.6</ele>
        <time>2022-02-12T13:55:19Z</time>
      </trkpt>
      <trkpt lat="42.85796" lon="0.26493">
        <ele>1600</ele>
        <time>2022-02-12T13:55:20Z</time>
      </trkpt>
      <trkpt lat="42.85796" lon="0.26494">
        <ele>1599.8</ele>
        <time>2022-02-12T13:55:21Z</time>
      </trkpt>
      <trkpt lat="42.85797" lon="0.26497">
        <ele>1599</ele>
        <time>2022-02-12T13:55:23Z</time>
      </trkpt>
      <trkpt lat="42.85797" lon="0.26501">
        <ele>1598.2</ele>
        <time>2022-02-12T13:55:26Z</time>
      </trkpt>
      <trkpt lat="42.85796" lon="0.26503">
        <ele>1598</ele>
        <time>2022-02-12T13:55:27Z</time>
      </trkpt>
      <trkpt lat="42.85794" lon="0.26507">
        <ele>1596.8</ele>
        <time>2022-02-12T13:55:31Z</time>
      </trkpt>
      <trkpt lat="42.85792" lon="0.2651">
        <ele>1596</ele>
        <time>2022-02-12T13:55:33Z</time>
      </trkpt>
      <trkpt lat="42.85792" lon="0.26511">
        <ele>1595.4</ele>
        <time>2022-02-12T13:55:34Z</time>
      </trkpt>
      <trkpt lat="42.8579" lon="0.26513">
        <ele>1595</ele>
        <time>2022-02-12T13:55:36Z</time>
      </trkpt>
      <trkpt lat="42.85789" lon="0.26515">
        <ele>1594.4</ele>
        <time>2022-02-12T13:55:38Z</time>
      </trkpt>
      <trkpt lat="42.85789" lon="0.26516">
        <ele>1594</ele>
        <time>2022-02-12T13:55:39Z</time>
      </trkpt>
      <trkpt lat="42.85788" lon="0.26518">
        <ele>1593.6</ele>
        <time>2022-02-12T13:55:41Z</time>
      </trkpt>
      <trkpt lat="42.85787" lon="0.26519">
        <ele>1593.2</ele>
        <time>2022-02-12T13:55:42Z</time>
      </trkpt>
      <trkpt lat="42.85786" lon="0.26522">
        <ele>1592.2</ele>
        <time>2022-02-12T13:55:45Z</time>
      </trkpt>
      <trkpt lat="42.85784" lon="0.26524">
        <ele>1591.6</ele>
        <time>2022-02-12T13:55:47Z</time>
      </trkpt>
      <trkpt lat="42.85784" lon="0.26525">
        <ele>1591.2</ele>
        <time>2022-02-12T13:55:48Z</time>
      </trkpt>
      <trkpt lat="42.85784" lon="0.26526">
        <ele>1591</ele>
        <time>2022-02-12T13:55:49Z</time>
      </trkpt>
      <trkpt lat="42.85783" lon="0.26528">
        <ele>1590.6</ele>
        <time>2022-02-12T13:55:51Z</time>
      </trkpt>
      <trkpt lat="42.85783" lon="0.26529">
        <ele>1590.6</ele>
        <time>2022-02-12T13:55:52Z</time>
      </trkpt>
      <trkpt lat="42.85782" lon="0.26532">
        <ele>1589.8</ele>
        <time>2022-02-12T13:55:55Z</time>
      </trkpt>
      <trkpt lat="42.8578" lon="0.26533">
        <ele>1589.6</ele>
        <time>2022-02-12T13:55:56Z</time>
      </trkpt>
      <trkpt lat="42.8578" lon="0.26535">
        <ele>1589</ele>
        <time>2022-02-12T13:55:58Z</time>
      </trkpt>
      <trkpt lat="42.85779" lon="0.26537">
        <ele>1588.8</ele>
        <time>2022-02-12T13:55:59Z</time>
      </trkpt>
      <trkpt lat="42.8578" lon="0.26538">
        <ele>1588.6</ele>
        <time>2022-02-12T13:56:00Z</time>
      </trkpt>
      <trkpt lat="42.85779" lon="0.26541">
        <ele>1588</ele>
        <time>2022-02-12T13:56:02Z</time>
      </trkpt>
      <trkpt lat="42.85779" lon="0.26543">
        <ele>1587.2</ele>
        <time>2022-02-12T13:56:04Z</time>
      </trkpt>
      <trkpt lat="42.85778" lon="0.26544">
        <ele>1586.8</ele>
        <time>2022-02-12T13:56:05Z</time>
      </trkpt>
      <trkpt lat="42.85777" lon="0.26546">
        <ele>1586.2</ele>
        <time>2022-02-12T13:56:07Z</time>
      </trkpt>
      <trkpt lat="42.85776" lon="0.26548">
        <ele>1585.6</ele>
        <time>2022-02-12T13:56:09Z</time>
      </trkpt>
      <trkpt lat="42.85776" lon="0.26548">
        <ele>1585.6</ele>
        <time>2022-02-12T13:56:10Z</time>
      </trkpt>
      <trkpt lat="42.85775" lon="0.2655">
        <ele>1585</ele>
        <time>2022-02-12T13:56:13Z</time>
      </trkpt>
      <trkpt lat="42.85774" lon="0.26551">
        <ele>1584.6</ele>
        <time>2022-02-12T13:56:14Z</time>
      </trkpt>
      <trkpt lat="42.85773" lon="0.26552">
        <ele>1584.2</ele>
        <time>2022-02-12T13:56:15Z</time>
      </trkpt>
      <trkpt lat="42.85772" lon="0.26553">
        <ele>1583.8</ele>
        <time>2022-02-12T13:56:16Z</time>
      </trkpt>
      <trkpt lat="42.8577" lon="0.26557">
        <ele>1582.4</ele>
        <time>2022-02-12T13:56:19Z</time>
      </trkpt>
      <trkpt lat="42.85769" lon="0.26561">
        <ele>1581.4</ele>
        <time>2022-02-12T13:56:22Z</time>
      </trkpt>
      <trkpt lat="42.85768" lon="0.26563">
        <ele>1581.2</ele>
        <time>2022-02-12T13:56:23Z</time>
      </trkpt>
      <trkpt lat="42.85768" lon="0.26564">
        <ele>1580.8</ele>
        <time>2022-02-12T13:56:24Z</time>
      </trkpt>
      <trkpt lat="42.85768" lon="0.26566">
        <ele>1579.8</ele>
        <time>2022-02-12T13:56:27Z</time>
      </trkpt>
      <trkpt lat="42.85768" lon="0.26566">
        <ele>1579.6</ele>
        <time>2022-02-12T13:56:28Z</time>
      </trkpt>
      <trkpt lat="42.85767" lon="0.26568">
        <ele>1579</ele>
        <time>2022-02-12T13:56:33Z</time>
      </trkpt>
      <trkpt lat="42.85767" lon="0.2657">
        <ele>1578.6</ele>
        <time>2022-02-12T13:56:35Z</time>
      </trkpt>
      <trkpt lat="42.85766" lon="0.26573">
        <ele>1577.8</ele>
        <time>2022-02-12T13:56:38Z</time>
      </trkpt>
      <trkpt lat="42.85766" lon="0.26574">
        <ele>1577.6</ele>
        <time>2022-02-12T13:56:39Z</time>
      </trkpt>
      <trkpt lat="42.85764" lon="0.26579">
        <ele>1576.4</ele>
        <time>2022-02-12T13:56:43Z</time>
      </trkpt>
      <trkpt lat="42.85763" lon="0.26581">
        <ele>1575.8</ele>
        <time>2022-02-12T13:56:44Z</time>
      </trkpt>
      <trkpt lat="42.85763" lon="0.26582">
        <ele>1575.4</ele>
        <time>2022-02-12T13:56:45Z</time>
      </trkpt>
      <trkpt lat="42.85761" lon="0.26588">
        <ele>1574</ele>
        <time>2022-02-12T13:56:50Z</time>
      </trkpt>
      <trkpt lat="42.85761" lon="0.26589">
        <ele>1573.8</ele>
        <time>2022-02-12T13:56:51Z</time>
      </trkpt>
      <trkpt lat="42.85759" lon="0.26592">
        <ele>1573</ele>
        <time>2022-02-12T13:56:54Z</time>
      </trkpt>
      <trkpt lat="42.85758" lon="0.26594">
        <ele>1572.4</ele>
        <time>2022-02-12T13:56:56Z</time>
      </trkpt>
      <trkpt lat="42.85758" lon="0.26596">
        <ele>1572</ele>
        <time>2022-02-12T13:56:57Z</time>
      </trkpt>
      <trkpt lat="42.85758" lon="0.266">
        <ele>1571</ele>
        <time>2022-02-12T13:57:00Z</time>
      </trkpt>
      <trkpt lat="42.85757" lon="0.26602">
        <ele>1570.6</ele>
        <time>2022-02-12T13:57:02Z</time>
      </trkpt>
      <trkpt lat="42.85756" lon="0.26604">
        <ele>1570.2</ele>
        <time>2022-02-12T13:57:03Z</time>
      </trkpt>
      <trkpt lat="42.85756" lon="0.26605">
        <ele>1569.8</ele>
        <time>2022-02-12T13:57:04Z</time>
      </trkpt>
      <trkpt lat="42.85755" lon="0.26608">
        <ele>1569</ele>
        <time>2022-02-12T13:57:06Z</time>
      </trkpt>
      <trkpt lat="42.85755" lon="0.26609">
        <ele>1568.4</ele>
        <time>2022-02-12T13:57:07Z</time>
      </trkpt>
      <trkpt lat="42.85754" lon="0.26613">
        <ele>1567.4</ele>
        <time>2022-02-12T13:57:10Z</time>
      </trkpt>
      <trkpt lat="42.85753" lon="0.26616">
        <ele>1567</ele>
        <time>2022-02-12T13:57:12Z</time>
      </trkpt>
      <trkpt lat="42.85753" lon="0.26621">
        <ele>1566.2</ele>
        <time>2022-02-12T13:57:15Z</time>
      </trkpt>
      <trkpt lat="42.85752" lon="0.26625">
        <ele>1565.8</ele>
        <time>2022-02-12T13:57:17Z</time>
      </trkpt>
      <trkpt lat="42.85752" lon="0.26627">
        <ele>1565.4</ele>
        <time>2022-02-12T13:57:18Z</time>
      </trkpt>
      <trkpt lat="42.85752" lon="0.26629">
        <ele>1565.2</ele>
        <time>2022-02-12T13:57:19Z</time>
      </trkpt>
      <trkpt lat="42.85751" lon="0.26637">
        <ele>1563.8</ele>
        <time>2022-02-12T13:57:23Z</time>
      </trkpt>
      <trkpt lat="42.85751" lon="0.26639">
        <ele>1563.4</ele>
        <time>2022-02-12T13:57:24Z</time>
      </trkpt>
      <trkpt lat="42.85749" lon="0.26644">
        <ele>1562.6</ele>
        <time>2022-02-12T13:57:26Z</time>
      </trkpt>
      <trkpt lat="42.85748" lon="0.2665">
        <ele>1561.8</ele>
        <time>2022-02-12T13:57:30Z</time>
      </trkpt>
      <trkpt lat="42.85747" lon="0.26651">
        <ele>1561.6</ele>
        <time>2022-02-12T13:57:31Z</time>
      </trkpt>
      <trkpt lat="42.85739" lon="0.26656">
        <ele>1560.8</ele>
        <time>2022-02-12T13:57:37Z</time>
      </trkpt>
      <trkpt lat="42.85737" lon="0.26657">
        <ele>1560.6</ele>
        <time>2022-02-12T13:57:38Z</time>
      </trkpt>
      <trkpt lat="42.85734" lon="0.26659">
        <ele>1559.6</ele>
        <time>2022-02-12T13:57:41Z</time>
      </trkpt>
      <trkpt lat="42.8573" lon="0.26663">
        <ele>1558.8</ele>
        <time>2022-02-12T13:57:45Z</time>
      </trkpt>
      <trkpt lat="42.85728" lon="0.26663">
        <ele>1558.4</ele>
        <time>2022-02-12T13:57:46Z</time>
      </trkpt>
      <trkpt lat="42.85724" lon="0.26665">
        <ele>1557.2</ele>
        <time>2022-02-12T13:57:49Z</time>
      </trkpt>
      <trkpt lat="42.8572" lon="0.26668">
        <ele>1556.4</ele>
        <time>2022-02-12T13:57:53Z</time>
      </trkpt>
      <trkpt lat="42.85719" lon="0.26669">
        <ele>1556</ele>
        <time>2022-02-12T13:57:54Z</time>
      </trkpt>
      <trkpt lat="42.85717" lon="0.26672">
        <ele>1554.8</ele>
        <time>2022-02-12T13:57:58Z</time>
      </trkpt>
      <trkpt lat="42.85711" lon="0.26675">
        <ele>1554</ele>
        <time>2022-02-12T13:58:03Z</time>
      </trkpt>
      <trkpt lat="42.85711" lon="0.26676">
        <ele>1553.6</ele>
        <time>2022-02-12T13:58:04Z</time>
      </trkpt>
      <trkpt lat="42.85707" lon="0.2668">
        <ele>1552.2</ele>
        <time>2022-02-12T13:58:08Z</time>
      </trkpt>
      <trkpt lat="42.85706" lon="0.26684">
        <ele>1551.4</ele>
        <time>2022-02-12T13:58:11Z</time>
      </trkpt>
      <trkpt lat="42.85705" lon="0.26686">
        <ele>1551.2</ele>
        <time>2022-02-12T13:58:12Z</time>
      </trkpt>
      <trkpt lat="42.85704" lon="0.26694">
        <ele>1550.6</ele>
        <time>2022-02-12T13:58:18Z</time>
      </trkpt>
      <trkpt lat="42.85704" lon="0.26695">
        <ele>1550.4</ele>
        <time>2022-02-12T13:58:19Z</time>
      </trkpt>
      <trkpt lat="42.85704" lon="0.26697">
        <ele>1550</ele>
        <time>2022-02-12T13:58:20Z</time>
      </trkpt>
      <trkpt lat="42.85704" lon="0.26699">
        <ele>1549.6</ele>
        <time>2022-02-12T13:58:21Z</time>
      </trkpt>
      <trkpt lat="42.85704" lon="0.267">
        <ele>1549.4</ele>
        <time>2022-02-12T13:58:22Z</time>
      </trkpt>
      <trkpt lat="42.85702" lon="0.26703">
        <ele>1548.8</ele>
        <time>2022-02-12T13:58:24Z</time>
      </trkpt>
      <trkpt lat="42.85701" lon="0.26706">
        <ele>1547.8</ele>
        <time>2022-02-12T13:58:27Z</time>
      </trkpt>
      <trkpt lat="42.857" lon="0.26708">
        <ele>1547.4</ele>
        <time>2022-02-12T13:58:29Z</time>
      </trkpt>
      <trkpt lat="42.85696" lon="0.2671">
        <ele>1546.6</ele>
        <time>2022-02-12T13:58:32Z</time>
      </trkpt>
      <trkpt lat="42.85695" lon="0.2671">
        <ele>1546.2</ele>
        <time>2022-02-12T13:58:33Z</time>
      </trkpt>
      <trkpt lat="42.85695" lon="0.2671">
        <ele>1545.8</ele>
        <time>2022-02-12T13:58:34Z</time>
      </trkpt>
      <trkpt lat="42.85694" lon="0.26711">
        <ele>1545.6</ele>
        <time>2022-02-12T13:58:35Z</time>
      </trkpt>
      <trkpt lat="42.85693" lon="0.26711">
        <ele>1545.6</ele>
        <time>2022-02-12T13:58:36Z</time>
      </trkpt>
      <trkpt lat="42.85691" lon="0.26714">
        <ele>1544.4</ele>
        <time>2022-02-12T13:58:39Z</time>
      </trkpt>
      <trkpt lat="42.85688" lon="0.26716">
        <ele>1543.6</ele>
        <time>2022-02-12T13:58:43Z</time>
      </trkpt>
      <trkpt lat="42.85687" lon="0.26718">
        <ele>1543.4</ele>
        <time>2022-02-12T13:58:45Z</time>
      </trkpt>
      <trkpt lat="42.85685" lon="0.26721">
        <ele>1542.2</ele>
        <time>2022-02-12T13:58:50Z</time>
      </trkpt>
      <trkpt lat="42.85684" lon="0.26723">
        <ele>1541.6</ele>
        <time>2022-02-12T13:58:52Z</time>
      </trkpt>
      <trkpt lat="42.85683" lon="0.26724">
        <ele>1541.2</ele>
        <time>2022-02-12T13:58:54Z</time>
      </trkpt>
      <trkpt lat="42.85678" lon="0.26726">
        <ele>1540</ele>
        <time>2022-02-12T13:58:58Z</time>
      </trkpt>
      <trkpt lat="42.85677" lon="0.26726">
        <ele>1539.8</ele>
        <time>2022-02-12T13:58:59Z</time>
      </trkpt>
      <trkpt lat="42.85676" lon="0.26726">
        <ele>1539.6</ele>
        <time>2022-02-12T13:59:00Z</time>
      </trkpt>
      <trkpt lat="42.85673" lon="0.26728">
        <ele>1539.4</ele>
        <time>2022-02-12T13:59:06Z</time>
      </trkpt>
      <trkpt lat="42.85673" lon="0.26729">
        <ele>1539.2</ele>
        <time>2022-02-12T13:59:07Z</time>
      </trkpt>
      <trkpt lat="42.85672" lon="0.26729">
        <ele>1539</ele>
        <time>2022-02-12T13:59:08Z</time>
      </trkpt>
      <trkpt lat="42.85668" lon="0.26731">
        <ele>1538.6</ele>
        <time>2022-02-12T13:59:11Z</time>
      </trkpt>
      <trkpt lat="42.85665" lon="0.26733">
        <ele>1538</ele>
        <time>2022-02-12T13:59:14Z</time>
      </trkpt>
      <trkpt lat="42.85662" lon="0.26735">
        <ele>1536.8</ele>
        <time>2022-02-12T13:59:17Z</time>
      </trkpt>
      <trkpt lat="42.8566" lon="0.26737">
        <ele>1535.8</ele>
        <time>2022-02-12T13:59:20Z</time>
      </trkpt>
      <trkpt lat="42.85657" lon="0.2674">
        <ele>1534.6</ele>
        <time>2022-02-12T13:59:24Z</time>
      </trkpt>
      <trkpt lat="42.85653" lon="0.26743">
        <ele>1533.4</ele>
        <time>2022-02-12T13:59:30Z</time>
      </trkpt>
      <trkpt lat="42.85651" lon="0.26745">
        <ele>1532</ele>
        <time>2022-02-12T13:59:34Z</time>
      </trkpt>
      <trkpt lat="42.85649" lon="0.26747">
        <ele>1531.2</ele>
        <time>2022-02-12T13:59:37Z</time>
      </trkpt>
      <trkpt lat="42.85648" lon="0.26748">
        <ele>1530.8</ele>
        <time>2022-02-12T13:59:38Z</time>
      </trkpt>
      <trkpt lat="42.85646" lon="0.26751">
        <ele>1529.6</ele>
        <time>2022-02-12T13:59:42Z</time>
      </trkpt>
      <trkpt lat="42.85643" lon="0.26753">
        <ele>1529.4</ele>
        <time>2022-02-12T13:59:45Z</time>
      </trkpt>
      <trkpt lat="42.85642" lon="0.26755">
        <ele>1528.6</ele>
        <time>2022-02-12T13:59:47Z</time>
      </trkpt>
      <trkpt lat="42.85639" lon="0.26759">
        <ele>1527.2</ele>
        <time>2022-02-12T13:59:50Z</time>
      </trkpt>
      <trkpt lat="42.85637" lon="0.26761">
        <ele>1527</ele>
        <time>2022-02-12T13:59:51Z</time>
      </trkpt>
      <trkpt lat="42.85635" lon="0.26764">
        <ele>1526.2</ele>
        <time>2022-02-12T13:59:54Z</time>
      </trkpt>
      <trkpt lat="42.85633" lon="0.26767">
        <ele>1525</ele>
        <time>2022-02-12T13:59:57Z</time>
      </trkpt>
      <trkpt lat="42.85633" lon="0.26768">
        <ele>1524.8</ele>
        <time>2022-02-12T13:59:58Z</time>
      </trkpt>
      <trkpt lat="42.8563" lon="0.26771">
        <ele>1524</ele>
        <time>2022-02-12T14:00:01Z</time>
      </trkpt>
      <trkpt lat="42.85629" lon="0.26772">
        <ele>1523.8</ele>
        <time>2022-02-12T14:00:02Z</time>
      </trkpt>
      <trkpt lat="42.85627" lon="0.26772">
        <ele>1523.2</ele>
        <time>2022-02-12T14:00:04Z</time>
      </trkpt>
      <trkpt lat="42.85625" lon="0.26773">
        <ele>1522.4</ele>
        <time>2022-02-12T14:00:06Z</time>
      </trkpt>
      <trkpt lat="42.85623" lon="0.26775">
        <ele>1521.4</ele>
        <time>2022-02-12T14:00:09Z</time>
      </trkpt>
      <trkpt lat="42.85621" lon="0.26777">
        <ele>1520.8</ele>
        <time>2022-02-12T14:00:11Z</time>
      </trkpt>
      <trkpt lat="42.85621" lon="0.26778">
        <ele>1520.2</ele>
        <time>2022-02-12T14:00:12Z</time>
      </trkpt>
      <trkpt lat="42.85618" lon="0.26782">
        <ele>1519.2</ele>
        <time>2022-02-12T14:00:16Z</time>
      </trkpt>
      <trkpt lat="42.85615" lon="0.26785">
        <ele>1518</ele>
        <time>2022-02-12T14:00:19Z</time>
      </trkpt>
      <trkpt lat="42.85613" lon="0.26789">
        <ele>1517</ele>
        <time>2022-02-12T14:00:22Z</time>
      </trkpt>
      <trkpt lat="42.85609" lon="0.26795">
        <ele>1515.6</ele>
        <time>2022-02-12T14:00:27Z</time>
      </trkpt>
      <trkpt lat="42.85606" lon="0.26798">
        <ele>1514.4</ele>
        <time>2022-02-12T14:00:31Z</time>
      </trkpt>
      <trkpt lat="42.85602" lon="0.268">
        <ele>1513.4</ele>
        <time>2022-02-12T14:00:34Z</time>
      </trkpt>
      <trkpt lat="42.85599" lon="0.26801">
        <ele>1512.2</ele>
        <time>2022-02-12T14:00:37Z</time>
      </trkpt>
      <trkpt lat="42.85598" lon="0.26801">
        <ele>1511.8</ele>
        <time>2022-02-12T14:00:38Z</time>
      </trkpt>
      <trkpt lat="42.85596" lon="0.26804">
        <ele>1511.2</ele>
        <time>2022-02-12T14:00:41Z</time>
      </trkpt>
      <trkpt lat="42.85596" lon="0.26805">
        <ele>1510.6</ele>
        <time>2022-02-12T14:00:42Z</time>
      </trkpt>
      <trkpt lat="42.85595" lon="0.26809">
        <ele>1509.6</ele>
        <time>2022-02-12T14:00:45Z</time>
      </trkpt>
      <trkpt lat="42.85595" lon="0.26811">
        <ele>1509.2</ele>
        <time>2022-02-12T14:00:46Z</time>
      </trkpt>
      <trkpt lat="42.85595" lon="0.26814">
        <ele>1508.6</ele>
        <time>2022-02-12T14:00:48Z</time>
      </trkpt>
      <trkpt lat="42.85594" lon="0.26815">
        <ele>1508.2</ele>
        <time>2022-02-12T14:00:49Z</time>
      </trkpt>
      <trkpt lat="42.8559" lon="0.26816">
        <ele>1507.8</ele>
        <time>2022-02-12T14:00:52Z</time>
      </trkpt>
      <trkpt lat="42.85589" lon="0.26817">
        <ele>1507.4</ele>
        <time>2022-02-12T14:00:54Z</time>
      </trkpt>
      <trkpt lat="42.85587" lon="0.26821">
        <ele>1506.4</ele>
        <time>2022-02-12T14:00:58Z</time>
      </trkpt>
      <trkpt lat="42.85587" lon="0.26825">
        <ele>1505.4</ele>
        <time>2022-02-12T14:01:01Z</time>
      </trkpt>
      <trkpt lat="42.85587" lon="0.26826">
        <ele>1505</ele>
        <time>2022-02-12T14:01:02Z</time>
      </trkpt>
      <trkpt lat="42.85586" lon="0.26828">
        <ele>1504.4</ele>
        <time>2022-02-12T14:01:05Z</time>
      </trkpt>
      <trkpt lat="42.85583" lon="0.26829">
        <ele>1504</ele>
        <time>2022-02-12T14:01:07Z</time>
      </trkpt>
      <trkpt lat="42.85583" lon="0.26829">
        <ele>1503.4</ele>
        <time>2022-02-12T14:01:08Z</time>
      </trkpt>
      <trkpt lat="42.85581" lon="0.26828">
        <ele>1502.8</ele>
        <time>2022-02-12T14:01:11Z</time>
      </trkpt>
      <trkpt lat="42.8558" lon="0.26828">
        <ele>1502.8</ele>
        <time>2022-02-12T14:01:12Z</time>
      </trkpt>
      <trkpt lat="42.85575" lon="0.2683">
        <ele>1502</ele>
        <time>2022-02-12T14:01:19Z</time>
      </trkpt>
      <trkpt lat="42.85574" lon="0.26831">
        <ele>1501.8</ele>
        <time>2022-02-12T14:01:20Z</time>
      </trkpt>
      <trkpt lat="42.85573" lon="0.26832">
        <ele>1501.4</ele>
        <time>2022-02-12T14:01:21Z</time>
      </trkpt>
      <trkpt lat="42.85572" lon="0.26834">
        <ele>1500.6</ele>
        <time>2022-02-12T14:01:23Z</time>
      </trkpt>
      <trkpt lat="42.8557" lon="0.26836">
        <ele>1500</ele>
        <time>2022-02-12T14:01:26Z</time>
      </trkpt>
      <trkpt lat="42.85568" lon="0.26837">
        <ele>1499.6</ele>
        <time>2022-02-12T14:01:28Z</time>
      </trkpt>
      <trkpt lat="42.85565" lon="0.26842">
        <ele>1498.4</ele>
        <time>2022-02-12T14:01:33Z</time>
      </trkpt>
      <trkpt lat="42.85564" lon="0.26843">
        <ele>1498</ele>
        <time>2022-02-12T14:01:34Z</time>
      </trkpt>
      <trkpt lat="42.85561" lon="0.26845">
        <ele>1497.4</ele>
        <time>2022-02-12T14:01:38Z</time>
      </trkpt>
      <trkpt lat="42.8556" lon="0.26849">
        <ele>1496.6</ele>
        <time>2022-02-12T14:01:41Z</time>
      </trkpt>
      <trkpt lat="42.85559" lon="0.26853">
        <ele>1496.2</ele>
        <time>2022-02-12T14:01:44Z</time>
      </trkpt>
      <trkpt lat="42.85559" lon="0.26854">
        <ele>1495.6</ele>
        <time>2022-02-12T14:01:45Z</time>
      </trkpt>
      <trkpt lat="42.85559" lon="0.26855">
        <ele>1495.2</ele>
        <time>2022-02-12T14:01:46Z</time>
      </trkpt>
      <trkpt lat="42.85559" lon="0.26857">
        <ele>1494.6</ele>
        <time>2022-02-12T14:01:48Z</time>
      </trkpt>
      <trkpt lat="42.85558" lon="0.26861">
        <ele>1494</ele>
        <time>2022-02-12T14:01:53Z</time>
      </trkpt>
      <trkpt lat="42.85556" lon="0.26862">
        <ele>1493.6</ele>
        <time>2022-02-12T14:01:56Z</time>
      </trkpt>
      <trkpt lat="42.85554" lon="0.26863">
        <ele>1493</ele>
        <time>2022-02-12T14:02:00Z</time>
      </trkpt>
      <trkpt lat="42.85554" lon="0.26864">
        <ele>1493</ele>
        <time>2022-02-12T14:02:01Z</time>
      </trkpt>
      <trkpt lat="42.85551" lon="0.26865">
        <ele>1492.6</ele>
        <time>2022-02-12T14:02:04Z</time>
      </trkpt>
      <trkpt lat="42.85549" lon="0.26866">
        <ele>1491.8</ele>
        <time>2022-02-12T14:02:09Z</time>
      </trkpt>
      <trkpt lat="42.85549" lon="0.26866">
        <ele>1491.4</ele>
        <time>2022-02-12T14:02:10Z</time>
      </trkpt>
      <trkpt lat="42.85547" lon="0.26868">
        <ele>1490.8</ele>
        <time>2022-02-12T14:02:12Z</time>
      </trkpt>
      <trkpt lat="42.85543" lon="0.26872">
        <ele>1489.8</ele>
        <time>2022-02-12T14:02:18Z</time>
      </trkpt>
      <trkpt lat="42.85541" lon="0.26873">
        <ele>1489.4</ele>
        <time>2022-02-12T14:02:20Z</time>
      </trkpt>
      <trkpt lat="42.8554" lon="0.26874">
        <ele>1489</ele>
        <time>2022-02-12T14:02:22Z</time>
      </trkpt>
      <trkpt lat="42.85538" lon="0.26875">
        <ele>1488.6</ele>
        <time>2022-02-12T14:02:24Z</time>
      </trkpt>
      <trkpt lat="42.85536" lon="0.26878">
        <ele>1487.8</ele>
        <time>2022-02-12T14:02:28Z</time>
      </trkpt>
      <trkpt lat="42.85535" lon="0.26879">
        <ele>1487.6</ele>
        <time>2022-02-12T14:02:30Z</time>
      </trkpt>
      <trkpt lat="42.85534" lon="0.26883">
        <ele>1486.6</ele>
        <time>2022-02-12T14:02:35Z</time>
      </trkpt>
      <trkpt lat="42.85533" lon="0.26883">
        <ele>1486.4</ele>
        <time>2022-02-12T14:02:36Z</time>
      </trkpt>
      <trkpt lat="42.85532" lon="0.26884">
        <ele>1485.8</ele>
        <time>2022-02-12T14:02:40Z</time>
      </trkpt>
      <trkpt lat="42.8553" lon="0.26884">
        <ele>1485.6</ele>
        <time>2022-02-12T14:02:43Z</time>
      </trkpt>
      <trkpt lat="42.85528" lon="0.26884">
        <ele>1485.2</ele>
        <time>2022-02-12T14:02:45Z</time>
      </trkpt>
      <trkpt lat="42.85525" lon="0.26883">
        <ele>1484.2</ele>
        <time>2022-02-12T14:02:50Z</time>
      </trkpt>
      <trkpt lat="42.85521" lon="0.26883">
        <ele>1484</ele>
        <time>2022-02-12T14:02:53Z</time>
      </trkpt>
      <trkpt lat="42.85519" lon="0.26882">
        <ele>1483.2</ele>
        <time>2022-02-12T14:02:56Z</time>
      </trkpt>
      <trkpt lat="42.85515" lon="0.26881">
        <ele>1482.6</ele>
        <time>2022-02-12T14:03:01Z</time>
      </trkpt>
      <trkpt lat="42.85511" lon="0.26883">
        <ele>1482</ele>
        <time>2022-02-12T14:03:08Z</time>
      </trkpt>
      <trkpt lat="42.85511" lon="0.26884">
        <ele>1482</ele>
        <time>2022-02-12T14:03:09Z</time>
      </trkpt>
      <trkpt lat="42.85511" lon="0.26886">
        <ele>1481</ele>
        <time>2022-02-12T14:03:15Z</time>
      </trkpt>
      <trkpt lat="42.85511" lon="0.26886">
        <ele>1481</ele>
        <time>2022-02-12T14:03:16Z</time>
      </trkpt>
      <trkpt lat="42.85507" lon="0.26885">
        <ele>1481.2</ele>
        <time>2022-02-12T14:03:21Z</time>
      </trkpt>
      <trkpt lat="42.85504" lon="0.26885">
        <ele>1479.6</ele>
        <time>2022-02-12T14:03:28Z</time>
      </trkpt>
      <trkpt lat="42.85503" lon="0.26887">
        <ele>1478.4</ele>
        <time>2022-02-12T14:03:33Z</time>
      </trkpt>
      <trkpt lat="42.85502" lon="0.26887">
        <ele>1478.2</ele>
        <time>2022-02-12T14:03:35Z</time>
      </trkpt>
      <trkpt lat="42.85498" lon="0.26888">
        <ele>1477.2</ele>
        <time>2022-02-12T14:03:41Z</time>
      </trkpt>
      <trkpt lat="42.85498" lon="0.26889">
        <ele>1476.8</ele>
        <time>2022-02-12T14:03:42Z</time>
      </trkpt>
      <trkpt lat="42.85498" lon="0.26889">
        <ele>1476.2</ele>
        <time>2022-02-12T14:03:44Z</time>
      </trkpt>
      <trkpt lat="42.85499" lon="0.26889">
        <ele>1475.8</ele>
        <time>2022-02-12T14:03:49Z</time>
      </trkpt>
      <trkpt lat="42.85499" lon="0.2689">
        <ele>1475.6</ele>
        <time>2022-02-12T14:03:50Z</time>
      </trkpt>
      <trkpt lat="42.85498" lon="0.26892">
        <ele>1475.2</ele>
        <time>2022-02-12T14:03:53Z</time>
      </trkpt>
      <trkpt lat="42.85496" lon="0.26893">
        <ele>1475</ele>
        <time>2022-02-12T14:03:55Z</time>
      </trkpt>
      <trkpt lat="42.85494" lon="0.26896">
        <ele>1474</ele>
        <time>2022-02-12T14:04:00Z</time>
      </trkpt>
      <trkpt lat="42.85494" lon="0.26897">
        <ele>1473.8</ele>
        <time>2022-02-12T14:04:01Z</time>
      </trkpt>
      <trkpt lat="42.85494" lon="0.269">
        <ele>1472.8</ele>
        <time>2022-02-12T14:04:03Z</time>
      </trkpt>
      <trkpt lat="42.85492" lon="0.26905">
        <ele>1471.8</ele>
        <time>2022-02-12T14:04:08Z</time>
      </trkpt>
      <trkpt lat="42.85491" lon="0.26909">
        <ele>1471.6</ele>
        <time>2022-02-12T14:04:12Z</time>
      </trkpt>
      <trkpt lat="42.8549" lon="0.2691">
        <ele>1471.6</ele>
        <time>2022-02-12T14:04:13Z</time>
      </trkpt>
      <trkpt lat="42.8549" lon="0.2691">
        <ele>1471.6</ele>
        <time>2022-02-12T14:04:14Z</time>
      </trkpt>
      <trkpt lat="42.85491" lon="0.26914">
        <ele>1471.6</ele>
        <time>2022-02-12T14:04:17Z</time>
      </trkpt>
      <trkpt lat="42.85491" lon="0.26915">
        <ele>1471.6</ele>
        <time>2022-02-12T14:04:18Z</time>
      </trkpt>
      <trkpt lat="42.85492" lon="0.26917">
        <ele>1471.2</ele>
        <time>2022-02-12T14:04:20Z</time>
      </trkpt>
      <trkpt lat="42.85493" lon="0.26918">
        <ele>1471.2</ele>
        <time>2022-02-12T14:04:21Z</time>
      </trkpt>
      <trkpt lat="42.85493" lon="0.2692">
        <ele>1470.4</ele>
        <time>2022-02-12T14:04:26Z</time>
      </trkpt>
      <trkpt lat="42.85493" lon="0.26921">
        <ele>1470</ele>
        <time>2022-02-12T14:04:27Z</time>
      </trkpt>
      <trkpt lat="42.85492" lon="0.26923">
        <ele>1469.2</ele>
        <time>2022-02-12T14:04:31Z</time>
      </trkpt>
      <trkpt lat="42.85491" lon="0.26923">
        <ele>1468.6</ele>
        <time>2022-02-12T14:04:32Z</time>
      </trkpt>
      <trkpt lat="42.85491" lon="0.26924">
        <ele>1468</ele>
        <time>2022-02-12T14:04:33Z</time>
      </trkpt>
      <trkpt lat="42.85489" lon="0.26929">
        <ele>1467.4</ele>
        <time>2022-02-12T14:04:39Z</time>
      </trkpt>
      <trkpt lat="42.85489" lon="0.2693">
        <ele>1467</ele>
        <time>2022-02-12T14:04:40Z</time>
      </trkpt>
      <trkpt lat="42.85485" lon="0.26937">
        <ele>1466.6</ele>
        <time>2022-02-12T14:04:46Z</time>
      </trkpt>
      <trkpt lat="42.85483" lon="0.26942">
        <ele>1466.8</ele>
        <time>2022-02-12T14:04:51Z</time>
      </trkpt>
      <trkpt lat="42.85481" lon="0.26944">
        <ele>1466.4</ele>
        <time>2022-02-12T14:04:54Z</time>
      </trkpt>
      <trkpt lat="42.85479" lon="0.26946">
        <ele>1465.8</ele>
        <time>2022-02-12T14:04:56Z</time>
      </trkpt>
      <trkpt lat="42.85476" lon="0.2695">
        <ele>1465.2</ele>
        <time>2022-02-12T14:05:01Z</time>
      </trkpt>
      <trkpt lat="42.85475" lon="0.2695">
        <ele>1464.8</ele>
        <time>2022-02-12T14:05:02Z</time>
      </trkpt>
      <trkpt lat="42.85471" lon="0.26951">
        <ele>1463.8</ele>
        <time>2022-02-12T14:05:06Z</time>
      </trkpt>
      <trkpt lat="42.85468" lon="0.26951">
        <ele>1463</ele>
        <time>2022-02-12T14:05:09Z</time>
      </trkpt>
      <trkpt lat="42.85466" lon="0.26951">
        <ele>1462.6</ele>
        <time>2022-02-12T14:05:11Z</time>
      </trkpt>
      <trkpt lat="42.85464" lon="0.26952">
        <ele>1461.6</ele>
        <time>2022-02-12T14:05:14Z</time>
      </trkpt>
      <trkpt lat="42.85463" lon="0.26954">
        <ele>1460.8</ele>
        <time>2022-02-12T14:05:17Z</time>
      </trkpt>
      <trkpt lat="42.85462" lon="0.26955">
        <ele>1460.4</ele>
        <time>2022-02-12T14:05:19Z</time>
      </trkpt>
      <trkpt lat="42.85458" lon="0.26959">
        <ele>1459.2</ele>
        <time>2022-02-12T14:05:24Z</time>
      </trkpt>
      <trkpt lat="42.85456" lon="0.26964">
        <ele>1458</ele>
        <time>2022-02-12T14:05:28Z</time>
      </trkpt>
      <trkpt lat="42.85454" lon="0.26966">
        <ele>1457.4</ele>
        <time>2022-02-12T14:05:30Z</time>
      </trkpt>
      <trkpt lat="42.85454" lon="0.26967">
        <ele>1457</ele>
        <time>2022-02-12T14:05:31Z</time>
      </trkpt>
      <trkpt lat="42.85452" lon="0.26974">
        <ele>1455.8</ele>
        <time>2022-02-12T14:05:38Z</time>
      </trkpt>
      <trkpt lat="42.85451" lon="0.26975">
        <ele>1455.6</ele>
        <time>2022-02-12T14:05:39Z</time>
      </trkpt>
      <trkpt lat="42.8545" lon="0.26977">
        <ele>1454.8</ele>
        <time>2022-02-12T14:05:41Z</time>
      </trkpt>
      <trkpt lat="42.85447" lon="0.2698">
        <ele>1453.8</ele>
        <time>2022-02-12T14:05:46Z</time>
      </trkpt>
      <trkpt lat="42.85446" lon="0.26981">
        <ele>1453.8</ele>
        <time>2022-02-12T14:05:47Z</time>
      </trkpt>
      <trkpt lat="42.85445" lon="0.26982">
        <ele>1453.6</ele>
        <time>2022-02-12T14:05:48Z</time>
      </trkpt>
      <trkpt lat="42.85444" lon="0.26984">
        <ele>1453</ele>
        <time>2022-02-12T14:05:50Z</time>
      </trkpt>
      <trkpt lat="42.85444" lon="0.26984">
        <ele>1452.8</ele>
        <time>2022-02-12T14:05:51Z</time>
      </trkpt>
      <trkpt lat="42.85443" lon="0.26986">
        <ele>1452.2</ele>
        <time>2022-02-12T14:05:52Z</time>
      </trkpt>
      <trkpt lat="42.85442" lon="0.26991">
        <ele>1451.2</ele>
        <time>2022-02-12T14:05:56Z</time>
      </trkpt>
      <trkpt lat="42.85441" lon="0.26993">
        <ele>1450.8</ele>
        <time>2022-02-12T14:05:58Z</time>
      </trkpt>
      <trkpt lat="42.8544" lon="0.26994">
        <ele>1450.8</ele>
        <time>2022-02-12T14:05:59Z</time>
      </trkpt>
      <trkpt lat="42.8544" lon="0.26995">
        <ele>1450.4</ele>
        <time>2022-02-12T14:06:00Z</time>
      </trkpt>
      <trkpt lat="42.85438" lon="0.26996">
        <ele>1450</ele>
        <time>2022-02-12T14:06:02Z</time>
      </trkpt>
      <trkpt lat="42.85434" lon="0.26999">
        <ele>1449.2</ele>
        <time>2022-02-12T14:06:07Z</time>
      </trkpt>
      <trkpt lat="42.85433" lon="0.27">
        <ele>1448.8</ele>
        <time>2022-02-12T14:06:09Z</time>
      </trkpt>
      <trkpt lat="42.85432" lon="0.27001">
        <ele>1448.4</ele>
        <time>2022-02-12T14:06:11Z</time>
      </trkpt>
      <trkpt lat="42.85431" lon="0.27002">
        <ele>1448</ele>
        <time>2022-02-12T14:06:13Z</time>
      </trkpt>
      <trkpt lat="42.8543" lon="0.27003">
        <ele>1447.8</ele>
        <time>2022-02-12T14:06:14Z</time>
      </trkpt>
      <trkpt lat="42.85427" lon="0.27006">
        <ele>1446.8</ele>
        <time>2022-02-12T14:06:19Z</time>
      </trkpt>
      <trkpt lat="42.85426" lon="0.27007">
        <ele>1446.6</ele>
        <time>2022-02-12T14:06:20Z</time>
      </trkpt>
      <trkpt lat="42.85424" lon="0.27009">
        <ele>1446</ele>
        <time>2022-02-12T14:06:22Z</time>
      </trkpt>
      <trkpt lat="42.85423" lon="0.27011">
        <ele>1445.6</ele>
        <time>2022-02-12T14:06:24Z</time>
      </trkpt>
      <trkpt lat="42.85421" lon="0.27013">
        <ele>1445.2</ele>
        <time>2022-02-12T14:06:26Z</time>
      </trkpt>
      <trkpt lat="42.85418" lon="0.27017">
        <ele>1444.8</ele>
        <time>2022-02-12T14:06:31Z</time>
      </trkpt>
      <trkpt lat="42.85417" lon="0.27018">
        <ele>1444.6</ele>
        <time>2022-02-12T14:06:32Z</time>
      </trkpt>
      <trkpt lat="42.85416" lon="0.2702">
        <ele>1444</ele>
        <time>2022-02-12T14:06:35Z</time>
      </trkpt>
      <trkpt lat="42.85415" lon="0.27022">
        <ele>1443.4</ele>
        <time>2022-02-12T14:06:37Z</time>
      </trkpt>
      <trkpt lat="42.85413" lon="0.27024">
        <ele>1442.8</ele>
        <time>2022-02-12T14:06:39Z</time>
      </trkpt>
      <trkpt lat="42.85412" lon="0.27025">
        <ele>1442.4</ele>
        <time>2022-02-12T14:06:41Z</time>
      </trkpt>
      <trkpt lat="42.85411" lon="0.27026">
        <ele>1442</ele>
        <time>2022-02-12T14:06:43Z</time>
      </trkpt>
      <trkpt lat="42.8541" lon="0.2703">
        <ele>1441.2</ele>
        <time>2022-02-12T14:06:47Z</time>
      </trkpt>
      <trkpt lat="42.85408" lon="0.27034">
        <ele>1440.2</ele>
        <time>2022-02-12T14:06:50Z</time>
      </trkpt>
      <trkpt lat="42.85408" lon="0.27035">
        <ele>1439.8</ele>
        <time>2022-02-12T14:06:51Z</time>
      </trkpt>
      <trkpt lat="42.85402" lon="0.27039">
        <ele>1438.8</ele>
        <time>2022-02-12T14:06:58Z</time>
      </trkpt>
      <trkpt lat="42.85399" lon="0.27042">
        <ele>1437.8</ele>
        <time>2022-02-12T14:07:03Z</time>
      </trkpt>
      <trkpt lat="42.85397" lon="0.27044">
        <ele>1437</ele>
        <time>2022-02-12T14:07:06Z</time>
      </trkpt>
      <trkpt lat="42.85395" lon="0.27047">
        <ele>1436.6</ele>
        <time>2022-02-12T14:07:09Z</time>
      </trkpt>
      <trkpt lat="42.85392" lon="0.27051">
        <ele>1436.2</ele>
        <time>2022-02-12T14:07:14Z</time>
      </trkpt>
      <trkpt lat="42.8539" lon="0.27055">
        <ele>1435.4</ele>
        <time>2022-02-12T14:07:19Z</time>
      </trkpt>
      <trkpt lat="42.85387" lon="0.27059">
        <ele>1435</ele>
        <time>2022-02-12T14:07:23Z</time>
      </trkpt>
      <trkpt lat="42.85384" lon="0.27061">
        <ele>1434.4</ele>
        <time>2022-02-12T14:07:25Z</time>
      </trkpt>
      <trkpt lat="42.85379" lon="0.27063">
        <ele>1433.8</ele>
        <time>2022-02-12T14:07:30Z</time>
      </trkpt>
      <trkpt lat="42.85376" lon="0.27065">
        <ele>1433.2</ele>
        <time>2022-02-12T14:07:34Z</time>
      </trkpt>
      <trkpt lat="42.85373" lon="0.27068">
        <ele>1432.2</ele>
        <time>2022-02-12T14:07:37Z</time>
      </trkpt>
      <trkpt lat="42.85371" lon="0.2707">
        <ele>1431.8</ele>
        <time>2022-02-12T14:07:39Z</time>
      </trkpt>
      <trkpt lat="42.85368" lon="0.27075">
        <ele>1431</ele>
        <time>2022-02-12T14:07:43Z</time>
      </trkpt>
      <trkpt lat="42.85367" lon="0.27077">
        <ele>1430.6</ele>
        <time>2022-02-12T14:07:45Z</time>
      </trkpt>
      <trkpt lat="42.85365" lon="0.2708">
        <ele>1429.8</ele>
        <time>2022-02-12T14:07:49Z</time>
      </trkpt>
      <trkpt lat="42.85361" lon="0.27085">
        <ele>1429.4</ele>
        <time>2022-02-12T14:07:52Z</time>
      </trkpt>
      <trkpt lat="42.8536" lon="0.27087">
        <ele>1428.8</ele>
        <time>2022-02-12T14:07:54Z</time>
      </trkpt>
      <trkpt lat="42.85355" lon="0.27093">
        <ele>1428</ele>
        <time>2022-02-12T14:08:00Z</time>
      </trkpt>
      <trkpt lat="42.85355" lon="0.27094">
        <ele>1427.6</ele>
        <time>2022-02-12T14:08:01Z</time>
      </trkpt>
      <trkpt lat="42.85351" lon="0.271">
        <ele>1426.6</ele>
        <time>2022-02-12T14:08:08Z</time>
      </trkpt>
      <trkpt lat="42.8535" lon="0.27101">
        <ele>1426.4</ele>
        <time>2022-02-12T14:08:09Z</time>
      </trkpt>
      <trkpt lat="42.85347" lon="0.27108">
        <ele>1425.8</ele>
        <time>2022-02-12T14:08:17Z</time>
      </trkpt>
      <trkpt lat="42.85346" lon="0.27111">
        <ele>1425.6</ele>
        <time>2022-02-12T14:08:20Z</time>
      </trkpt>
      <trkpt lat="42.85343" lon="0.27114">
        <ele>1425</ele>
        <time>2022-02-12T14:08:24Z</time>
      </trkpt>
      <trkpt lat="42.85343" lon="0.27115">
        <ele>1425</ele>
        <time>2022-02-12T14:08:25Z</time>
      </trkpt>
      <trkpt lat="42.85342" lon="0.27119">
        <ele>1424.4</ele>
        <time>2022-02-12T14:08:29Z</time>
      </trkpt>
      <trkpt lat="42.8534" lon="0.2712">
        <ele>1424.2</ele>
        <time>2022-02-12T14:08:31Z</time>
      </trkpt>
      <trkpt lat="42.85338" lon="0.27124">
        <ele>1423.4</ele>
        <time>2022-02-12T14:08:35Z</time>
      </trkpt>
      <trkpt lat="42.85337" lon="0.27126">
        <ele>1423</ele>
        <time>2022-02-12T14:08:37Z</time>
      </trkpt>
      <trkpt lat="42.85334" lon="0.27128">
        <ele>1422.8</ele>
        <time>2022-02-12T14:08:40Z</time>
      </trkpt>
      <trkpt lat="42.85332" lon="0.27127">
        <ele>1422.8</ele>
        <time>2022-02-12T14:08:42Z</time>
      </trkpt>
      <trkpt lat="42.85328" lon="0.27128">
        <ele>1422</ele>
        <time>2022-02-12T14:08:45Z</time>
      </trkpt>
      <trkpt lat="42.85328" lon="0.27129">
        <ele>1421.6</ele>
        <time>2022-02-12T14:08:46Z</time>
      </trkpt>
      <trkpt lat="42.85327" lon="0.2713">
        <ele>1421.4</ele>
        <time>2022-02-12T14:08:47Z</time>
      </trkpt>
      <trkpt lat="42.85326" lon="0.2713">
        <ele>1421.2</ele>
        <time>2022-02-12T14:08:49Z</time>
      </trkpt>
      <trkpt lat="42.85323" lon="0.27131">
        <ele>1421</ele>
        <time>2022-02-12T14:08:51Z</time>
      </trkpt>
      <trkpt lat="42.85322" lon="0.27133">
        <ele>1420.2</ele>
        <time>2022-02-12T14:08:54Z</time>
      </trkpt>
      <trkpt lat="42.85321" lon="0.27134">
        <ele>1420</ele>
        <time>2022-02-12T14:08:55Z</time>
      </trkpt>
      <trkpt lat="42.85316" lon="0.2714">
        <ele>1418.8</ele>
        <time>2022-02-12T14:09:03Z</time>
      </trkpt>
      <trkpt lat="42.85312" lon="0.27146">
        <ele>1418</ele>
        <time>2022-02-12T14:09:09Z</time>
      </trkpt>
      <trkpt lat="42.85312" lon="0.27147">
        <ele>1417.8</ele>
        <time>2022-02-12T14:09:10Z</time>
      </trkpt>
      <trkpt lat="42.85309" lon="0.27151">
        <ele>1416.8</ele>
        <time>2022-02-12T14:09:14Z</time>
      </trkpt>
      <trkpt lat="42.85308" lon="0.27152">
        <ele>1416.6</ele>
        <time>2022-02-12T14:09:15Z</time>
      </trkpt>
      <trkpt lat="42.85306" lon="0.27154">
        <ele>1416.4</ele>
        <time>2022-02-12T14:09:17Z</time>
      </trkpt>
      <trkpt lat="42.85303" lon="0.27157">
        <ele>1416.2</ele>
        <time>2022-02-12T14:09:21Z</time>
      </trkpt>
      <trkpt lat="42.85298" lon="0.27161">
        <ele>1415.6</ele>
        <time>2022-02-12T14:09:26Z</time>
      </trkpt>
      <trkpt lat="42.85296" lon="0.27163">
        <ele>1415.2</ele>
        <time>2022-02-12T14:09:28Z</time>
      </trkpt>
      <trkpt lat="42.85294" lon="0.27166">
        <ele>1414.6</ele>
        <time>2022-02-12T14:09:31Z</time>
      </trkpt>
      <trkpt lat="42.85292" lon="0.27168">
        <ele>1414.2</ele>
        <time>2022-02-12T14:09:34Z</time>
      </trkpt>
      <trkpt lat="42.85289" lon="0.27172">
        <ele>1413</ele>
        <time>2022-02-12T14:09:39Z</time>
      </trkpt>
      <trkpt lat="42.85287" lon="0.27174">
        <ele>1412.6</ele>
        <time>2022-02-12T14:09:41Z</time>
      </trkpt>
      <trkpt lat="42.85284" lon="0.27178">
        <ele>1412</ele>
        <time>2022-02-12T14:09:44Z</time>
      </trkpt>
      <trkpt lat="42.8528" lon="0.27182">
        <ele>1411</ele>
        <time>2022-02-12T14:09:49Z</time>
      </trkpt>
      <trkpt lat="42.85279" lon="0.27184">
        <ele>1410.6</ele>
        <time>2022-02-12T14:09:50Z</time>
      </trkpt>
      <trkpt lat="42.85274" lon="0.27189">
        <ele>1409.4</ele>
        <time>2022-02-12T14:09:55Z</time>
      </trkpt>
      <trkpt lat="42.85273" lon="0.27191">
        <ele>1409</ele>
        <time>2022-02-12T14:09:57Z</time>
      </trkpt>
      <trkpt lat="42.8527" lon="0.27196">
        <ele>1408.4</ele>
        <time>2022-02-12T14:10:02Z</time>
      </trkpt>
      <trkpt lat="42.85269" lon="0.27198">
        <ele>1407.6</ele>
        <time>2022-02-12T14:10:04Z</time>
      </trkpt>
      <trkpt lat="42.85267" lon="0.272">
        <ele>1407.4</ele>
        <time>2022-02-12T14:10:07Z</time>
      </trkpt>
      <trkpt lat="42.85267" lon="0.272">
        <ele>1407.4</ele>
        <time>2022-02-12T14:10:10Z</time>
      </trkpt>
      <trkpt lat="42.85266" lon="0.27202">
        <ele>1406.8</ele>
        <time>2022-02-12T14:10:16Z</time>
      </trkpt>
      <trkpt lat="42.85265" lon="0.27207">
        <ele>1406.2</ele>
        <time>2022-02-12T14:10:21Z</time>
      </trkpt>
      <trkpt lat="42.85261" lon="0.27214">
        <ele>1405.4</ele>
        <time>2022-02-12T14:10:27Z</time>
      </trkpt>
      <trkpt lat="42.85261" lon="0.27214">
        <ele>1405.2</ele>
        <time>2022-02-12T14:10:28Z</time>
      </trkpt>
      <trkpt lat="42.85261" lon="0.27216">
        <ele>1405.2</ele>
        <time>2022-02-12T14:10:29Z</time>
      </trkpt>
      <trkpt lat="42.85256" lon="0.27224">
        <ele>1404.6</ele>
        <time>2022-02-12T14:10:36Z</time>
      </trkpt>
      <trkpt lat="42.85255" lon="0.27226">
        <ele>1404</ele>
        <time>2022-02-12T14:10:38Z</time>
      </trkpt>
      <trkpt lat="42.85253" lon="0.27228">
        <ele>1402.8</ele>
        <time>2022-02-12T14:10:41Z</time>
      </trkpt>
      <trkpt lat="42.85251" lon="0.2723">
        <ele>1402.6</ele>
        <time>2022-02-12T14:10:43Z</time>
      </trkpt>
      <trkpt lat="42.85248" lon="0.27234">
        <ele>1401.8</ele>
        <time>2022-02-12T14:10:48Z</time>
      </trkpt>
      <trkpt lat="42.85248" lon="0.27235">
        <ele>1401.4</ele>
        <time>2022-02-12T14:10:50Z</time>
      </trkpt>
      <trkpt lat="42.85247" lon="0.27237">
        <ele>1400.6</ele>
        <time>2022-02-12T14:10:55Z</time>
      </trkpt>
      <trkpt lat="42.85246" lon="0.2724">
        <ele>1400.2</ele>
        <time>2022-02-12T14:10:59Z</time>
      </trkpt>
      <trkpt lat="42.85246" lon="0.27242">
        <ele>1400</ele>
        <time>2022-02-12T14:11:03Z</time>
      </trkpt>
      <trkpt lat="42.85242" lon="0.27245">
        <ele>1399.4</ele>
        <time>2022-02-12T14:11:09Z</time>
      </trkpt>
      <trkpt lat="42.85241" lon="0.27246">
        <ele>1399.4</ele>
        <time>2022-02-12T14:11:10Z</time>
      </trkpt>
      <trkpt lat="42.85238" lon="0.27247">
        <ele>1398.4</ele>
        <time>2022-02-12T14:11:15Z</time>
      </trkpt>
      <trkpt lat="42.85237" lon="0.27247">
        <ele>1398.2</ele>
        <time>2022-02-12T14:11:16Z</time>
      </trkpt>
      <trkpt lat="42.85235" lon="0.27247">
        <ele>1398</ele>
        <time>2022-02-12T14:11:18Z</time>
      </trkpt>
      <trkpt lat="42.85234" lon="0.27248">
        <ele>1397</ele>
        <time>2022-02-12T14:11:20Z</time>
      </trkpt>
      <trkpt lat="42.85232" lon="0.2725">
        <ele>1396</ele>
        <time>2022-02-12T14:11:22Z</time>
      </trkpt>
      <trkpt lat="42.85232" lon="0.27251">
        <ele>1395.8</ele>
        <time>2022-02-12T14:11:23Z</time>
      </trkpt>
      <trkpt lat="42.85231" lon="0.27251">
        <ele>1395.4</ele>
        <time>2022-02-12T14:11:24Z</time>
      </trkpt>
      <trkpt lat="42.8523" lon="0.27254">
        <ele>1394.6</ele>
        <time>2022-02-12T14:11:26Z</time>
      </trkpt>
      <trkpt lat="42.85229" lon="0.27258">
        <ele>1394.4</ele>
        <time>2022-02-12T14:11:28Z</time>
      </trkpt>
      <trkpt lat="42.85226" lon="0.27264">
        <ele>1393.6</ele>
        <time>2022-02-12T14:11:33Z</time>
      </trkpt>
      <trkpt lat="42.85224" lon="0.27267">
        <ele>1393.4</ele>
        <time>2022-02-12T14:11:36Z</time>
      </trkpt>
      <trkpt lat="42.85218" lon="0.27274">
        <ele>1392.8</ele>
        <time>2022-02-12T14:11:44Z</time>
      </trkpt>
      <trkpt lat="42.85212" lon="0.2728">
        <ele>1392.6</ele>
        <time>2022-02-12T14:11:48Z</time>
      </trkpt>
      <trkpt lat="42.85208" lon="0.27282">
        <ele>1392.2</ele>
        <time>2022-02-12T14:11:51Z</time>
      </trkpt>
      <trkpt lat="42.85206" lon="0.27281">
        <ele>1391.6</ele>
        <time>2022-02-12T14:11:55Z</time>
      </trkpt>
      <trkpt lat="42.85205" lon="0.27281">
        <ele>1391.6</ele>
        <time>2022-02-12T14:11:56Z</time>
      </trkpt>
      <trkpt lat="42.85205" lon="0.27282">
        <ele>1391.6</ele>
        <time>2022-02-12T14:11:57Z</time>
      </trkpt>
      <trkpt lat="42.85203" lon="0.27286">
        <ele>1391.6</ele>
        <time>2022-02-12T14:12:01Z</time>
      </trkpt>
      <trkpt lat="42.85203" lon="0.27286">
        <ele>1391.6</ele>
        <time>2022-02-12T14:12:02Z</time>
      </trkpt>
      <trkpt lat="42.85199" lon="0.27286">
        <ele>1390.6</ele>
        <time>2022-02-12T14:12:06Z</time>
      </trkpt>
      <trkpt lat="42.85197" lon="0.27288">
        <ele>1390.4</ele>
        <time>2022-02-12T14:12:08Z</time>
      </trkpt>
      <trkpt lat="42.85191" lon="0.27295">
        <ele>1389.6</ele>
        <time>2022-02-12T14:12:14Z</time>
      </trkpt>
      <trkpt lat="42.8519" lon="0.27296">
        <ele>1389.4</ele>
        <time>2022-02-12T14:12:15Z</time>
      </trkpt>
      <trkpt lat="42.8519" lon="0.27297">
        <ele>1389.4</ele>
        <time>2022-02-12T14:12:16Z</time>
      </trkpt>
      <trkpt lat="42.85188" lon="0.27302">
        <ele>1389</ele>
        <time>2022-02-12T14:12:19Z</time>
      </trkpt>
      <trkpt lat="42.85187" lon="0.27303">
        <ele>1388.8</ele>
        <time>2022-02-12T14:12:20Z</time>
      </trkpt>
      <trkpt lat="42.85187" lon="0.27304">
        <ele>1388.4</ele>
        <time>2022-02-12T14:12:22Z</time>
      </trkpt>
      <trkpt lat="42.85186" lon="0.27304">
        <ele>1388</ele>
        <time>2022-02-12T14:12:23Z</time>
      </trkpt>
      <trkpt lat="42.85185" lon="0.27304">
        <ele>1387.6</ele>
        <time>2022-02-12T14:12:25Z</time>
      </trkpt>
      <trkpt lat="42.85183" lon="0.27305">
        <ele>1387.4</ele>
        <time>2022-02-12T14:12:27Z</time>
      </trkpt>
      <trkpt lat="42.8518" lon="0.27306">
        <ele>1387</ele>
        <time>2022-02-12T14:12:30Z</time>
      </trkpt>
      <trkpt lat="42.85178" lon="0.27306">
        <ele>1386.4</ele>
        <time>2022-02-12T14:12:33Z</time>
      </trkpt>
      <trkpt lat="42.85173" lon="0.27306">
        <ele>1385.8</ele>
        <time>2022-02-12T14:12:37Z</time>
      </trkpt>
      <trkpt lat="42.8517" lon="0.27307">
        <ele>1385.2</ele>
        <time>2022-02-12T14:12:40Z</time>
      </trkpt>
      <trkpt lat="42.85169" lon="0.27307">
        <ele>1385</ele>
        <time>2022-02-12T14:12:41Z</time>
      </trkpt>
      <trkpt lat="42.85164" lon="0.27308">
        <ele>1384.8</ele>
        <time>2022-02-12T14:12:46Z</time>
      </trkpt>
      <trkpt lat="42.8516" lon="0.27311">
        <ele>1384.2</ele>
        <time>2022-02-12T14:12:50Z</time>
      </trkpt>
      <trkpt lat="42.85158" lon="0.27313">
        <ele>1382.8</ele>
        <time>2022-02-12T14:12:53Z</time>
      </trkpt>
      <trkpt lat="42.85156" lon="0.27314">
        <ele>1382.4</ele>
        <time>2022-02-12T14:12:55Z</time>
      </trkpt>
      <trkpt lat="42.85155" lon="0.27316">
        <ele>1381.8</ele>
        <time>2022-02-12T14:12:57Z</time>
      </trkpt>
      <trkpt lat="42.85154" lon="0.27319">
        <ele>1381.2</ele>
        <time>2022-02-12T14:13:00Z</time>
      </trkpt>
      <trkpt lat="42.8515" lon="0.27326">
        <ele>1387</ele>
        <time>2022-02-12T14:13:06Z</time>
      </trkpt>
      <trkpt lat="42.85148" lon="0.27328">
        <ele>1387</ele>
        <time>2022-02-12T14:13:08Z</time>
      </trkpt>
      <trkpt lat="42.85147" lon="0.27329">
        <ele>1384.4</ele>
        <time>2022-02-12T14:13:09Z</time>
      </trkpt>
      <trkpt lat="42.85147" lon="0.2733">
        <ele>1383</ele>
        <time>2022-02-12T14:13:10Z</time>
      </trkpt>
      <trkpt lat="42.85146" lon="0.27332">
        <ele>1381.4</ele>
        <time>2022-02-12T14:13:12Z</time>
      </trkpt>
      <trkpt lat="42.85145" lon="0.27334">
        <ele>1380.4</ele>
        <time>2022-02-12T14:13:14Z</time>
      </trkpt>
      <trkpt lat="42.8514" lon="0.2734">
        <ele>1379.8</ele>
        <time>2022-02-12T14:13:21Z</time>
      </trkpt>
      <trkpt lat="42.8514" lon="0.2734">
        <ele>1379.8</ele>
        <time>2022-02-12T14:13:22Z</time>
      </trkpt>
      <trkpt lat="42.85139" lon="0.27341">
        <ele>1379.4</ele>
        <time>2022-02-12T14:13:25Z</time>
      </trkpt>
      <trkpt lat="42.85139" lon="0.2734">
        <ele>1379.2</ele>
        <time>2022-02-12T14:13:26Z</time>
      </trkpt>
      <trkpt lat="42.85139" lon="0.2734">
        <ele>1379.2</ele>
        <time>2022-02-12T14:13:27Z</time>
      </trkpt>
      <trkpt lat="42.85139" lon="0.2734">
        <ele>1379</ele>
        <time>2022-02-12T14:13:31Z</time>
      </trkpt>
      <trkpt lat="42.8514" lon="0.2734">
        <ele>1378.2</ele>
        <time>2022-02-12T14:13:35Z</time>
      </trkpt>
      <trkpt lat="42.8514" lon="0.2734">
        <ele>1378</ele>
        <time>2022-02-12T14:13:37Z</time>
      </trkpt>
      <trkpt lat="42.8514" lon="0.2734">
        <ele>1378.6</ele>
        <time>2022-02-12T14:13:55Z</time>
      </trkpt>
      <trkpt lat="42.8514" lon="0.2734">
        <ele>1378.8</ele>
        <time>2022-02-12T14:14:03Z</time>
      </trkpt>
      <trkpt lat="42.8514" lon="0.2734">
        <ele>1378.6</ele>
        <time>2022-02-12T14:14:08Z</time>
      </trkpt>
      <trkpt lat="42.8514" lon="0.2734">
        <ele>1378.6</ele>
        <time>2022-02-12T14:14:11Z</time>
      </trkpt>
      <trkpt lat="42.8514" lon="0.27338">
        <ele>1378.4</ele>
        <time>2022-02-12T14:14:17Z</time>
      </trkpt>
      <trkpt lat="42.8514" lon="0.27337">
        <ele>1378.8</ele>
        <time>2022-02-12T14:14:28Z</time>
      </trkpt>
      <trkpt lat="42.8514" lon="0.27337">
        <ele>1378.8</ele>
        <time>2022-02-12T14:14:31Z</time>
      </trkpt>
      <trkpt lat="42.8514" lon="0.27337">
        <ele>1378.8</ele>
        <time>2022-02-12T14:14:33Z</time>
      </trkpt>
      <trkpt lat="42.8514" lon="0.27337">
        <ele>1378.6</ele>
        <time>2022-02-12T14:14:36Z</time>
      </trkpt>
      <trkpt lat="42.85139" lon="0.27338">
        <ele>1378.4</ele>
        <time>2022-02-12T14:14:43Z</time>
      </trkpt>
      <trkpt lat="42.85139" lon="0.27338">
        <ele>1378.6</ele>
        <time>2022-02-12T14:14:49Z</time>
      </trkpt>
      <trkpt lat="42.85139" lon="0.27339">
        <ele>1378.4</ele>
        <time>2022-02-12T14:15:04Z</time>
      </trkpt>
      <trkpt lat="42.85139" lon="0.27339">
        <ele>1377.4</ele>
        <time>2022-02-12T14:15:14Z</time>
      </trkpt>
      <trkpt lat="42.85139" lon="0.27339">
        <ele>1377.4</ele>
        <time>2022-02-12T14:15:17Z</time>
      </trkpt>
      <trkpt lat="42.85139" lon="0.27339">
        <ele>1377.2</ele>
        <time>2022-02-12T14:15:23Z</time>
      </trkpt>
      <trkpt lat="42.85139" lon="0.2734">
        <ele>1377.4</ele>
        <time>2022-02-12T14:15:26Z</time>
      </trkpt>
      <trkpt lat="42.85139" lon="0.2734">
        <ele>1377.2</ele>
        <time>2022-02-12T14:15:30Z</time>
      </trkpt>
      <trkpt lat="42.85139" lon="0.2734">
        <ele>1377.6</ele>
        <time>2022-02-12T14:15:44Z</time>
      </trkpt>
      <trkpt lat="42.85135" lon="0.27344">
        <ele>1377.8</ele>
        <time>2022-02-12T14:15:50Z</time>
      </trkpt>
      <trkpt lat="42.85135" lon="0.27344">
        <ele>1377.8</ele>
        <time>2022-02-12T14:15:56Z</time>
      </trkpt>
      <trkpt lat="42.85135" lon="0.27342">
        <ele>1377.4</ele>
        <time>2022-02-12T14:16:01Z</time>
      </trkpt>
      <trkpt lat="42.85135" lon="0.27342">
        <ele>1377.4</ele>
        <time>2022-02-12T14:16:06Z</time>
      </trkpt>
      <trkpt lat="42.85135" lon="0.27342">
        <ele>1377.2</ele>
        <time>2022-02-12T14:16:08Z</time>
      </trkpt>
      <trkpt lat="42.85135" lon="0.27342">
        <ele>1377.6</ele>
        <time>2022-02-12T14:16:15Z</time>
      </trkpt>
      <trkpt lat="42.85135" lon="0.27342">
        <ele>1377.8</ele>
        <time>2022-02-12T14:16:25Z</time>
      </trkpt>
      <trkpt lat="42.85135" lon="0.27342">
        <ele>1377.6</ele>
        <time>2022-02-12T14:16:31Z</time>
      </trkpt>
      <trkpt lat="42.85135" lon="0.27342">
        <ele>1377.2</ele>
        <time>2022-02-12T14:16:41Z</time>
      </trkpt>
      <trkpt lat="42.85133" lon="0.27345">
        <ele>1377.2</ele>
        <time>2022-02-12T14:16:48Z</time>
      </trkpt>
      <trkpt lat="42.85128" lon="0.27352">
        <ele>1377.2</ele>
        <time>2022-02-12T14:16:56Z</time>
      </trkpt>
      <trkpt lat="42.8512" lon="0.27363">
        <ele>1376.2</ele>
        <time>2022-02-12T14:17:05Z</time>
      </trkpt>
      <trkpt lat="42.8512" lon="0.27364">
        <ele>1376</ele>
        <time>2022-02-12T14:17:06Z</time>
      </trkpt>
      <trkpt lat="42.85113" lon="0.2737">
        <ele>1375.6</ele>
        <time>2022-02-12T14:17:12Z</time>
      </trkpt>
      <trkpt lat="42.85109" lon="0.27374">
        <ele>1375</ele>
        <time>2022-02-12T14:17:16Z</time>
      </trkpt>
      <trkpt lat="42.85107" lon="0.27378">
        <ele>1374.4</ele>
        <time>2022-02-12T14:17:20Z</time>
      </trkpt>
      <trkpt lat="42.85106" lon="0.2738">
        <ele>1374.2</ele>
        <time>2022-02-12T14:17:22Z</time>
      </trkpt>
      <trkpt lat="42.85105" lon="0.27381">
        <ele>1374</ele>
        <time>2022-02-12T14:17:23Z</time>
      </trkpt>
      <trkpt lat="42.85102" lon="0.27386">
        <ele>1373.8</ele>
        <time>2022-02-12T14:17:27Z</time>
      </trkpt>
      <trkpt lat="42.85097" lon="0.27393">
        <ele>1372.6</ele>
        <time>2022-02-12T14:17:34Z</time>
      </trkpt>
      <trkpt lat="42.85096" lon="0.27394">
        <ele>1372.4</ele>
        <time>2022-02-12T14:17:35Z</time>
      </trkpt>
      <trkpt lat="42.8509" lon="0.27402">
        <ele>1371.6</ele>
        <time>2022-02-12T14:17:42Z</time>
      </trkpt>
      <trkpt lat="42.85089" lon="0.27403">
        <ele>1371.6</ele>
        <time>2022-02-12T14:17:43Z</time>
      </trkpt>
      <trkpt lat="42.85083" lon="0.27411">
        <ele>1370.8</ele>
        <time>2022-02-12T14:17:50Z</time>
      </trkpt>
      <trkpt lat="42.85081" lon="0.27414">
        <ele>1370.4</ele>
        <time>2022-02-12T14:17:52Z</time>
      </trkpt>
      <trkpt lat="42.85074" lon="0.2742">
        <ele>1369.6</ele>
        <time>2022-02-12T14:17:58Z</time>
      </trkpt>
      <trkpt lat="42.85073" lon="0.27422">
        <ele>1369.4</ele>
        <time>2022-02-12T14:18:00Z</time>
      </trkpt>
      <trkpt lat="42.8507" lon="0.27425">
        <ele>1368.8</ele>
        <time>2022-02-12T14:18:04Z</time>
      </trkpt>
      <trkpt lat="42.85068" lon="0.27426">
        <ele>1368.8</ele>
        <time>2022-02-12T14:18:05Z</time>
      </trkpt>
      <trkpt lat="42.85064" lon="0.27431">
        <ele>1368.4</ele>
        <time>2022-02-12T14:18:09Z</time>
      </trkpt>
      <trkpt lat="42.8506" lon="0.27434">
        <ele>1367.4</ele>
        <time>2022-02-12T14:18:13Z</time>
      </trkpt>
      <trkpt lat="42.8506" lon="0.27435">
        <ele>1367.2</ele>
        <time>2022-02-12T14:18:14Z</time>
      </trkpt>
      <trkpt lat="42.85054" lon="0.2744">
        <ele>1366.8</ele>
        <time>2022-02-12T14:18:19Z</time>
      </trkpt>
      <trkpt lat="42.85052" lon="0.27441">
        <ele>1366.6</ele>
        <time>2022-02-12T14:18:20Z</time>
      </trkpt>
      <trkpt lat="42.8505" lon="0.27443">
        <ele>1366</ele>
        <time>2022-02-12T14:18:23Z</time>
      </trkpt>
      <trkpt lat="42.85048" lon="0.27444">
        <ele>1365.6</ele>
        <time>2022-02-12T14:18:25Z</time>
      </trkpt>
      <trkpt lat="42.85047" lon="0.27446">
        <ele>1365.4</ele>
        <time>2022-02-12T14:18:27Z</time>
      </trkpt>
      <trkpt lat="42.85045" lon="0.27449">
        <ele>1364.8</ele>
        <time>2022-02-12T14:18:30Z</time>
      </trkpt>
      <trkpt lat="42.85043" lon="0.27451">
        <ele>1364.6</ele>
        <time>2022-02-12T14:18:32Z</time>
      </trkpt>
      <trkpt lat="42.8504" lon="0.27454">
        <ele>1364</ele>
        <time>2022-02-12T14:18:36Z</time>
      </trkpt>
      <trkpt lat="42.85039" lon="0.27455">
        <ele>1363.8</ele>
        <time>2022-02-12T14:18:38Z</time>
      </trkpt>
      <trkpt lat="42.85038" lon="0.27456">
        <ele>1363.6</ele>
        <time>2022-02-12T14:18:39Z</time>
      </trkpt>
      <trkpt lat="42.85037" lon="0.27457">
        <ele>1363.2</ele>
        <time>2022-02-12T14:18:40Z</time>
      </trkpt>
      <trkpt lat="42.85035" lon="0.27459">
        <ele>1362.8</ele>
        <time>2022-02-12T14:18:42Z</time>
      </trkpt>
      <trkpt lat="42.85032" lon="0.27461">
        <ele>1362.6</ele>
        <time>2022-02-12T14:18:44Z</time>
      </trkpt>
      <trkpt lat="42.85025" lon="0.27468">
        <ele>1362</ele>
        <time>2022-02-12T14:18:49Z</time>
      </trkpt>
      <trkpt lat="42.85024" lon="0.27469">
        <ele>1361.8</ele>
        <time>2022-02-12T14:18:50Z</time>
      </trkpt>
      <trkpt lat="42.85019" lon="0.27475">
        <ele>1361</ele>
        <time>2022-02-12T14:18:55Z</time>
      </trkpt>
      <trkpt lat="42.85015" lon="0.2748">
        <ele>1360.6</ele>
        <time>2022-02-12T14:18:59Z</time>
      </trkpt>
      <trkpt lat="42.85011" lon="0.27489">
        <ele>1360.4</ele>
        <time>2022-02-12T14:19:04Z</time>
      </trkpt>
      <trkpt lat="42.85006" lon="0.275">
        <ele>1360</ele>
        <time>2022-02-12T14:19:12Z</time>
      </trkpt>
      <trkpt lat="42.85003" lon="0.27511">
        <ele>1359.8</ele>
        <time>2022-02-12T14:19:19Z</time>
      </trkpt>
      <trkpt lat="42.85003" lon="0.27514">
        <ele>1359.6</ele>
        <time>2022-02-12T14:19:21Z</time>
      </trkpt>
      <trkpt lat="42.85001" lon="0.27524">
        <ele>1359.2</ele>
        <time>2022-02-12T14:19:27Z</time>
      </trkpt>
      <trkpt lat="42.84999" lon="0.27533">
        <ele>1358.6</ele>
        <time>2022-02-12T14:19:32Z</time>
      </trkpt>
      <trkpt lat="42.84998" lon="0.27534">
        <ele>1358.4</ele>
        <time>2022-02-12T14:19:33Z</time>
      </trkpt>
      <trkpt lat="42.84996" lon="0.27544">
        <ele>1357.6</ele>
        <time>2022-02-12T14:19:40Z</time>
      </trkpt>
      <trkpt lat="42.84996" lon="0.27545">
        <ele>1357.4</ele>
        <time>2022-02-12T14:19:41Z</time>
      </trkpt>
      <trkpt lat="42.84994" lon="0.27557">
        <ele>1357.4</ele>
        <time>2022-02-12T14:19:49Z</time>
      </trkpt>
      <trkpt lat="42.84991" lon="0.27569">
        <ele>1357</ele>
        <time>2022-02-12T14:19:56Z</time>
      </trkpt>
      <trkpt lat="42.8499" lon="0.27576">
        <ele>1356.8</ele>
        <time>2022-02-12T14:20:00Z</time>
      </trkpt>
      <trkpt lat="42.84989" lon="0.2758">
        <ele>1356.8</ele>
        <time>2022-02-12T14:20:02Z</time>
      </trkpt>
      <trkpt lat="42.84988" lon="0.27588">
        <ele>1357</ele>
        <time>2022-02-12T14:20:07Z</time>
      </trkpt>
      <trkpt lat="42.84988" lon="0.27591">
        <ele>1356.8</ele>
        <time>2022-02-12T14:20:09Z</time>
      </trkpt>
      <trkpt lat="42.84988" lon="0.27599">
        <ele>1356.4</ele>
        <time>2022-02-12T14:20:14Z</time>
      </trkpt>
      <trkpt lat="42.84986" lon="0.27602">
        <ele>1356.6</ele>
        <time>2022-02-12T14:20:16Z</time>
      </trkpt>
      <trkpt lat="42.84984" lon="0.27611">
        <ele>1356.4</ele>
        <time>2022-02-12T14:20:22Z</time>
      </trkpt>
      <trkpt lat="42.84981" lon="0.27621">
        <ele>1356.4</ele>
        <time>2022-02-12T14:20:29Z</time>
      </trkpt>
      <trkpt lat="42.84978" lon="0.27632">
        <ele>1356</ele>
        <time>2022-02-12T14:20:36Z</time>
      </trkpt>
      <trkpt lat="42.84974" lon="0.27641">
        <ele>1355.4</ele>
        <time>2022-02-12T14:20:43Z</time>
      </trkpt>
      <trkpt lat="42.84969" lon="0.27651">
        <ele>1354.8</ele>
        <time>2022-02-12T14:20:51Z</time>
      </trkpt>
      <trkpt lat="42.84969" lon="0.27653">
        <ele>1354.8</ele>
        <time>2022-02-12T14:20:52Z</time>
      </trkpt>
      <trkpt lat="42.84966" lon="0.27659">
        <ele>1354.4</ele>
        <time>2022-02-12T14:20:56Z</time>
      </trkpt>
      <trkpt lat="42.84961" lon="0.27676">
        <ele>1353.4</ele>
        <time>2022-02-12T14:21:06Z</time>
      </trkpt>
      <trkpt lat="42.84959" lon="0.27686">
        <ele>1352.4</ele>
        <time>2022-02-12T14:21:12Z</time>
      </trkpt>
      <trkpt lat="42.84953" lon="0.27698">
        <ele>1351.8</ele>
        <time>2022-02-12T14:21:20Z</time>
      </trkpt>
      <trkpt lat="42.84951" lon="0.27707">
        <ele>1351.4</ele>
        <time>2022-02-12T14:21:27Z</time>
      </trkpt>
      <trkpt lat="42.84951" lon="0.27708">
        <ele>1351.2</ele>
        <time>2022-02-12T14:21:28Z</time>
      </trkpt>
      <trkpt lat="42.8495" lon="0.27717">
        <ele>1350.6</ele>
        <time>2022-02-12T14:21:34Z</time>
      </trkpt>
      <trkpt lat="42.84948" lon="0.27722">
        <ele>1350.4</ele>
        <time>2022-02-12T14:21:38Z</time>
      </trkpt>
      <trkpt lat="42.84946" lon="0.27723">
        <ele>1350</ele>
        <time>2022-02-12T14:21:40Z</time>
      </trkpt>
      <trkpt lat="42.84945" lon="0.27724">
        <ele>1350</ele>
        <time>2022-02-12T14:21:41Z</time>
      </trkpt>
      <trkpt lat="42.84939" lon="0.27733">
        <ele>1348.8</ele>
        <time>2022-02-12T14:21:49Z</time>
      </trkpt>
      <trkpt lat="42.84938" lon="0.27735">
        <ele>1348.6</ele>
        <time>2022-02-12T14:21:51Z</time>
      </trkpt>
      <trkpt lat="42.84935" lon="0.27742">
        <ele>1348.2</ele>
        <time>2022-02-12T14:21:56Z</time>
      </trkpt>
      <trkpt lat="42.84934" lon="0.27747">
        <ele>1347.8</ele>
        <time>2022-02-12T14:21:59Z</time>
      </trkpt>
      <trkpt lat="42.84932" lon="0.27752">
        <ele>1347.6</ele>
        <time>2022-02-12T14:22:02Z</time>
      </trkpt>
      <trkpt lat="42.84931" lon="0.27753">
        <ele>1347.6</ele>
        <time>2022-02-12T14:22:03Z</time>
      </trkpt>
      <trkpt lat="42.84929" lon="0.27761">
        <ele>1346.6</ele>
        <time>2022-02-12T14:22:08Z</time>
      </trkpt>
      <trkpt lat="42.84929" lon="0.27765">
        <ele>1346</ele>
        <time>2022-02-12T14:22:11Z</time>
      </trkpt>
      <trkpt lat="42.84927" lon="0.2777">
        <ele>1345.6</ele>
        <time>2022-02-12T14:22:15Z</time>
      </trkpt>
      <trkpt lat="42.84925" lon="0.27775">
        <ele>1345</ele>
        <time>2022-02-12T14:22:19Z</time>
      </trkpt>
      <trkpt lat="42.84922" lon="0.27781">
        <ele>1344.6</ele>
        <time>2022-02-12T14:22:24Z</time>
      </trkpt>
      <trkpt lat="42.8492" lon="0.27783">
        <ele>1344.4</ele>
        <time>2022-02-12T14:22:26Z</time>
      </trkpt>
      <trkpt lat="42.84917" lon="0.27788">
        <ele>1343.6</ele>
        <time>2022-02-12T14:22:30Z</time>
      </trkpt>
      <trkpt lat="42.84915" lon="0.27792">
        <ele>1343</ele>
        <time>2022-02-12T14:22:34Z</time>
      </trkpt>
      <trkpt lat="42.84914" lon="0.27796">
        <ele>1342.4</ele>
        <time>2022-02-12T14:22:37Z</time>
      </trkpt>
      <trkpt lat="42.84912" lon="0.27802">
        <ele>1341.8</ele>
        <time>2022-02-12T14:22:40Z</time>
      </trkpt>
      <trkpt lat="42.84911" lon="0.27805">
        <ele>1341.6</ele>
        <time>2022-02-12T14:22:42Z</time>
      </trkpt>
      <trkpt lat="42.84909" lon="0.2781">
        <ele>1341.2</ele>
        <time>2022-02-12T14:22:46Z</time>
      </trkpt>
      <trkpt lat="42.84906" lon="0.27819">
        <ele>1340.6</ele>
        <time>2022-02-12T14:22:51Z</time>
      </trkpt>
      <trkpt lat="42.84904" lon="0.27824">
        <ele>1340</ele>
        <time>2022-02-12T14:22:54Z</time>
      </trkpt>
      <trkpt lat="42.84904" lon="0.27825">
        <ele>1339.8</ele>
        <time>2022-02-12T14:22:55Z</time>
      </trkpt>
      <trkpt lat="42.84903" lon="0.27829">
        <ele>1339.6</ele>
        <time>2022-02-12T14:22:58Z</time>
      </trkpt>
      <trkpt lat="42.84902" lon="0.27837">
        <ele>1338.8</ele>
        <time>2022-02-12T14:23:04Z</time>
      </trkpt>
      <trkpt lat="42.84901" lon="0.27839">
        <ele>1338.4</ele>
        <time>2022-02-12T14:23:05Z</time>
      </trkpt>
      <trkpt lat="42.84899" lon="0.27843">
        <ele>1337.8</ele>
        <time>2022-02-12T14:23:08Z</time>
      </trkpt>
      <trkpt lat="42.84897" lon="0.27848">
        <ele>1337.2</ele>
        <time>2022-02-12T14:23:12Z</time>
      </trkpt>
      <trkpt lat="42.84896" lon="0.27849">
        <ele>1337</ele>
        <time>2022-02-12T14:23:13Z</time>
      </trkpt>
      <trkpt lat="42.84896" lon="0.27852">
        <ele>1336.8</ele>
        <time>2022-02-12T14:23:15Z</time>
      </trkpt>
      <trkpt lat="42.84895" lon="0.2786">
        <ele>1335.6</ele>
        <time>2022-02-12T14:23:21Z</time>
      </trkpt>
      <trkpt lat="42.84894" lon="0.27863">
        <ele>1335.4</ele>
        <time>2022-02-12T14:23:23Z</time>
      </trkpt>
      <trkpt lat="42.84893" lon="0.27866">
        <ele>1334.8</ele>
        <time>2022-02-12T14:23:26Z</time>
      </trkpt>
      <trkpt lat="42.84891" lon="0.27869">
        <ele>1334.6</ele>
        <time>2022-02-12T14:23:28Z</time>
      </trkpt>
      <trkpt lat="42.8489" lon="0.27876">
        <ele>1334.2</ele>
        <time>2022-02-12T14:23:32Z</time>
      </trkpt>
      <trkpt lat="42.84887" lon="0.27884">
        <ele>1333.4</ele>
        <time>2022-02-12T14:23:37Z</time>
      </trkpt>
      <trkpt lat="42.84887" lon="0.27886">
        <ele>1333.2</ele>
        <time>2022-02-12T14:23:38Z</time>
      </trkpt>
      <trkpt lat="42.84886" lon="0.27892">
        <ele>1332.8</ele>
        <time>2022-02-12T14:23:42Z</time>
      </trkpt>
      <trkpt lat="42.84886" lon="0.27893">
        <ele>1332.8</ele>
        <time>2022-02-12T14:23:43Z</time>
      </trkpt>
      <trkpt lat="42.84885" lon="0.27898">
        <ele>1332.4</ele>
        <time>2022-02-12T14:23:46Z</time>
      </trkpt>
      <trkpt lat="42.84884" lon="0.279">
        <ele>1332.2</ele>
        <time>2022-02-12T14:23:47Z</time>
      </trkpt>
      <trkpt lat="42.84882" lon="0.27905">
        <ele>1332</ele>
        <time>2022-02-12T14:23:51Z</time>
      </trkpt>
      <trkpt lat="42.84881" lon="0.27908">
        <ele>1331.8</ele>
        <time>2022-02-12T14:23:53Z</time>
      </trkpt>
      <trkpt lat="42.84881" lon="0.27909">
        <ele>1331.8</ele>
        <time>2022-02-12T14:23:54Z</time>
      </trkpt>
      <trkpt lat="42.84881" lon="0.27911">
        <ele>1331.8</ele>
        <time>2022-02-12T14:23:55Z</time>
      </trkpt>
      <trkpt lat="42.84879" lon="0.27916">
        <ele>1331.4</ele>
        <time>2022-02-12T14:23:59Z</time>
      </trkpt>
      <trkpt lat="42.84879" lon="0.27921">
        <ele>1331.2</ele>
        <time>2022-02-12T14:24:01Z</time>
      </trkpt>
      <trkpt lat="42.84879" lon="0.27923">
        <ele>1330.8</ele>
        <time>2022-02-12T14:24:03Z</time>
      </trkpt>
      <trkpt lat="42.84879" lon="0.27929">
        <ele>1330.6</ele>
        <time>2022-02-12T14:24:07Z</time>
      </trkpt>
      <trkpt lat="42.84878" lon="0.27935">
        <ele>1330.2</ele>
        <time>2022-02-12T14:24:11Z</time>
      </trkpt>
      <trkpt lat="42.84878" lon="0.27938">
        <ele>1329.8</ele>
        <time>2022-02-12T14:24:14Z</time>
      </trkpt>
      <trkpt lat="42.84877" lon="0.2794">
        <ele>1329.6</ele>
        <time>2022-02-12T14:24:16Z</time>
      </trkpt>
      <trkpt lat="42.84876" lon="0.27942">
        <ele>1329.6</ele>
        <time>2022-02-12T14:24:18Z</time>
      </trkpt>
      <trkpt lat="42.84876" lon="0.27943">
        <ele>1329.6</ele>
        <time>2022-02-12T14:24:19Z</time>
      </trkpt>
      <trkpt lat="42.84875" lon="0.27946">
        <ele>1329.6</ele>
        <time>2022-02-12T14:24:21Z</time>
      </trkpt>
      <trkpt lat="42.84875" lon="0.27952">
        <ele>1329.2</ele>
        <time>2022-02-12T14:24:25Z</time>
      </trkpt>
      <trkpt lat="42.84874" lon="0.27955">
        <ele>1328.8</ele>
        <time>2022-02-12T14:24:27Z</time>
      </trkpt>
      <trkpt lat="42.84873" lon="0.27964">
        <ele>1328</ele>
        <time>2022-02-12T14:24:35Z</time>
      </trkpt>
      <trkpt lat="42.84873" lon="0.27967">
        <ele>1328</ele>
        <time>2022-02-12T14:24:37Z</time>
      </trkpt>
      <trkpt lat="42.84872" lon="0.27981">
        <ele>1327.2</ele>
        <time>2022-02-12T14:24:46Z</time>
      </trkpt>
      <trkpt lat="42.8487" lon="0.27988">
        <ele>1327</ele>
        <time>2022-02-12T14:24:51Z</time>
      </trkpt>
      <trkpt lat="42.84868" lon="0.2799">
        <ele>1326.6</ele>
        <time>2022-02-12T14:24:54Z</time>
      </trkpt>
      <trkpt lat="42.84861" lon="0.27998">
        <ele>1326.4</ele>
        <time>2022-02-12T14:25:02Z</time>
      </trkpt>
      <trkpt lat="42.8486" lon="0.28001">
        <ele>1326</ele>
        <time>2022-02-12T14:25:05Z</time>
      </trkpt>
      <trkpt lat="42.84856" lon="0.28005">
        <ele>1325.8</ele>
        <time>2022-02-12T14:25:10Z</time>
      </trkpt>
      <trkpt lat="42.84853" lon="0.28007">
        <ele>1325.8</ele>
        <time>2022-02-12T14:25:14Z</time>
      </trkpt>
      <trkpt lat="42.84852" lon="0.28008">
        <ele>1325.8</ele>
        <time>2022-02-12T14:25:15Z</time>
      </trkpt>
      <trkpt lat="42.84848" lon="0.28013">
        <ele>1325.8</ele>
        <time>2022-02-12T14:25:19Z</time>
      </trkpt>
      <trkpt lat="42.84842" lon="0.28026">
        <ele>1325.2</ele>
        <time>2022-02-12T14:25:28Z</time>
      </trkpt>
      <trkpt lat="42.8484" lon="0.2803">
        <ele>1324.8</ele>
        <time>2022-02-12T14:25:31Z</time>
      </trkpt>
      <trkpt lat="42.84837" lon="0.28036">
        <ele>1324</ele>
        <time>2022-02-12T14:25:37Z</time>
      </trkpt>
      <trkpt lat="42.84835" lon="0.2804">
        <ele>1323.8</ele>
        <time>2022-02-12T14:25:40Z</time>
      </trkpt>
      <trkpt lat="42.84834" lon="0.28042">
        <ele>1324.2</ele>
        <time>2022-02-12T14:25:41Z</time>
      </trkpt>
      <trkpt lat="42.84832" lon="0.28047">
        <ele>1323.6</ele>
        <time>2022-02-12T14:25:45Z</time>
      </trkpt>
      <trkpt lat="42.84831" lon="0.28049">
        <ele>1323.2</ele>
        <time>2022-02-12T14:25:47Z</time>
      </trkpt>
      <trkpt lat="42.84828" lon="0.28057">
        <ele>1322.4</ele>
        <time>2022-02-12T14:25:54Z</time>
      </trkpt>
      <trkpt lat="42.84828" lon="0.2806">
        <ele>1322.2</ele>
        <time>2022-02-12T14:25:56Z</time>
      </trkpt>
      <trkpt lat="42.84828" lon="0.28064">
        <ele>1322.2</ele>
        <time>2022-02-12T14:26:00Z</time>
      </trkpt>
      <trkpt lat="42.84828" lon="0.28066">
        <ele>1321.2</ele>
        <time>2022-02-12T14:26:02Z</time>
      </trkpt>
      <trkpt lat="42.84826" lon="0.28076">
        <ele>1320.4</ele>
        <time>2022-02-12T14:26:09Z</time>
      </trkpt>
      <trkpt lat="42.84825" lon="0.28078">
        <ele>1320.2</ele>
        <time>2022-02-12T14:26:11Z</time>
      </trkpt>
      <trkpt lat="42.84824" lon="0.28082">
        <ele>1319.6</ele>
        <time>2022-02-12T14:26:15Z</time>
      </trkpt>
      <trkpt lat="42.84821" lon="0.28088">
        <ele>1319.4</ele>
        <time>2022-02-12T14:26:19Z</time>
      </trkpt>
      <trkpt lat="42.8482" lon="0.28093">
        <ele>1319</ele>
        <time>2022-02-12T14:26:22Z</time>
      </trkpt>
      <trkpt lat="42.8482" lon="0.28095">
        <ele>1319</ele>
        <time>2022-02-12T14:26:23Z</time>
      </trkpt>
      <trkpt lat="42.84818" lon="0.28102">
        <ele>1317.8</ele>
        <time>2022-02-12T14:26:29Z</time>
      </trkpt>
      <trkpt lat="42.84818" lon="0.28103">
        <ele>1317.8</ele>
        <time>2022-02-12T14:26:30Z</time>
      </trkpt>
      <trkpt lat="42.84819" lon="0.28109">
        <ele>1317</ele>
        <time>2022-02-12T14:26:36Z</time>
      </trkpt>
      <trkpt lat="42.84819" lon="0.2811">
        <ele>1317</ele>
        <time>2022-02-12T14:26:37Z</time>
      </trkpt>
      <trkpt lat="42.8482" lon="0.28112">
        <ele>1316.8</ele>
        <time>2022-02-12T14:26:38Z</time>
      </trkpt>
      <trkpt lat="42.84819" lon="0.28118">
        <ele>1316.2</ele>
        <time>2022-02-12T14:26:42Z</time>
      </trkpt>
      <trkpt lat="42.84819" lon="0.28118">
        <ele>1316.2</ele>
        <time>2022-02-12T14:26:43Z</time>
      </trkpt>
      <trkpt lat="42.84819" lon="0.28121">
        <ele>1316</ele>
        <time>2022-02-12T14:26:46Z</time>
      </trkpt>
      <trkpt lat="42.84819" lon="0.28122">
        <ele>1315.8</ele>
        <time>2022-02-12T14:26:47Z</time>
      </trkpt>
      <trkpt lat="42.84818" lon="0.28126">
        <ele>1314.8</ele>
        <time>2022-02-12T14:26:50Z</time>
      </trkpt>
      <trkpt lat="42.84817" lon="0.28128">
        <ele>1314.4</ele>
        <time>2022-02-12T14:26:52Z</time>
      </trkpt>
      <trkpt lat="42.84817" lon="0.28133">
        <ele>1314.4</ele>
        <time>2022-02-12T14:26:55Z</time>
      </trkpt>
      <trkpt lat="42.84816" lon="0.28137">
        <ele>1314</ele>
        <time>2022-02-12T14:26:58Z</time>
      </trkpt>
      <trkpt lat="42.84816" lon="0.2814">
        <ele>1313.8</ele>
        <time>2022-02-12T14:27:00Z</time>
      </trkpt>
      <trkpt lat="42.84816" lon="0.28141">
        <ele>1313.6</ele>
        <time>2022-02-12T14:27:01Z</time>
      </trkpt>
      <trkpt lat="42.84814" lon="0.28146">
        <ele>1313.6</ele>
        <time>2022-02-12T14:27:04Z</time>
      </trkpt>
      <trkpt lat="42.84813" lon="0.28156">
        <ele>1313.2</ele>
        <time>2022-02-12T14:27:10Z</time>
      </trkpt>
      <trkpt lat="42.84811" lon="0.28166">
        <ele>1312.6</ele>
        <time>2022-02-12T14:27:15Z</time>
      </trkpt>
      <trkpt lat="42.8481" lon="0.28167">
        <ele>1312.6</ele>
        <time>2022-02-12T14:27:16Z</time>
      </trkpt>
      <trkpt lat="42.84807" lon="0.28174">
        <ele>1311.8</ele>
        <time>2022-02-12T14:27:22Z</time>
      </trkpt>
      <trkpt lat="42.84807" lon="0.28177">
        <ele>1311.6</ele>
        <time>2022-02-12T14:27:24Z</time>
      </trkpt>
      <trkpt lat="42.84805" lon="0.28183">
        <ele>1311.2</ele>
        <time>2022-02-12T14:27:27Z</time>
      </trkpt>
      <trkpt lat="42.84803" lon="0.28189">
        <ele>1310.4</ele>
        <time>2022-02-12T14:27:31Z</time>
      </trkpt>
      <trkpt lat="42.84802" lon="0.28192">
        <ele>1310.2</ele>
        <time>2022-02-12T14:27:33Z</time>
      </trkpt>
      <trkpt lat="42.848" lon="0.28202">
        <ele>1309.4</ele>
        <time>2022-02-12T14:27:40Z</time>
      </trkpt>
      <trkpt lat="42.84799" lon="0.28206">
        <ele>1309.2</ele>
        <time>2022-02-12T14:27:43Z</time>
      </trkpt>
      <trkpt lat="42.84798" lon="0.28211">
        <ele>1308.6</ele>
        <time>2022-02-12T14:27:47Z</time>
      </trkpt>
      <trkpt lat="42.84798" lon="0.28213">
        <ele>1308.4</ele>
        <time>2022-02-12T14:27:49Z</time>
      </trkpt>
      <trkpt lat="42.84798" lon="0.28215">
        <ele>1308.4</ele>
        <time>2022-02-12T14:27:50Z</time>
      </trkpt>
      <trkpt lat="42.84798" lon="0.28217">
        <ele>1308</ele>
        <time>2022-02-12T14:27:52Z</time>
      </trkpt>
      <trkpt lat="42.84797" lon="0.2822">
        <ele>1307.8</ele>
        <time>2022-02-12T14:27:54Z</time>
      </trkpt>
      <trkpt lat="42.84797" lon="0.28222">
        <ele>1307</ele>
        <time>2022-02-12T14:27:56Z</time>
      </trkpt>
      <trkpt lat="42.84796" lon="0.2823">
        <ele>1305.8</ele>
        <time>2022-02-12T14:28:02Z</time>
      </trkpt>
      <trkpt lat="42.84795" lon="0.28232">
        <ele>1305.6</ele>
        <time>2022-02-12T14:28:04Z</time>
      </trkpt>
      <trkpt lat="42.84793" lon="0.28245">
        <ele>1305</ele>
        <time>2022-02-12T14:28:13Z</time>
      </trkpt>
      <trkpt lat="42.84792" lon="0.28247">
        <ele>1304.8</ele>
        <time>2022-02-12T14:28:16Z</time>
      </trkpt>
      <trkpt lat="42.8479" lon="0.2825">
        <ele>1304.4</ele>
        <time>2022-02-12T14:28:19Z</time>
      </trkpt>
      <trkpt lat="42.84789" lon="0.28256">
        <ele>1304</ele>
        <time>2022-02-12T14:28:23Z</time>
      </trkpt>
      <trkpt lat="42.84787" lon="0.28262">
        <ele>1303.8</ele>
        <time>2022-02-12T14:28:27Z</time>
      </trkpt>
      <trkpt lat="42.84786" lon="0.28263">
        <ele>1303.8</ele>
        <time>2022-02-12T14:28:28Z</time>
      </trkpt>
      <trkpt lat="42.84786" lon="0.28266">
        <ele>1303.4</ele>
        <time>2022-02-12T14:28:30Z</time>
      </trkpt>
      <trkpt lat="42.84785" lon="0.28271">
        <ele>1302.8</ele>
        <time>2022-02-12T14:28:33Z</time>
      </trkpt>
      <trkpt lat="42.84785" lon="0.28273">
        <ele>1302.6</ele>
        <time>2022-02-12T14:28:34Z</time>
      </trkpt>
      <trkpt lat="42.84785" lon="0.28277">
        <ele>1302</ele>
        <time>2022-02-12T14:28:37Z</time>
      </trkpt>
      <trkpt lat="42.84785" lon="0.28279">
        <ele>1301.6</ele>
        <time>2022-02-12T14:28:40Z</time>
      </trkpt>
      <trkpt lat="42.84786" lon="0.28281">
        <ele>1301.6</ele>
        <time>2022-02-12T14:28:41Z</time>
      </trkpt>
      <trkpt lat="42.84788" lon="0.28286">
        <ele>1301</ele>
        <time>2022-02-12T14:28:45Z</time>
      </trkpt>
      <trkpt lat="42.84788" lon="0.28289">
        <ele>1300.6</ele>
        <time>2022-02-12T14:28:47Z</time>
      </trkpt>
      <trkpt lat="42.84788" lon="0.2829">
        <ele>1300.6</ele>
        <time>2022-02-12T14:28:48Z</time>
      </trkpt>
      <trkpt lat="42.84788" lon="0.28298">
        <ele>1300</ele>
        <time>2022-02-12T14:28:55Z</time>
      </trkpt>
      <trkpt lat="42.84788" lon="0.28301">
        <ele>1299.4</ele>
        <time>2022-02-12T14:28:57Z</time>
      </trkpt>
      <trkpt lat="42.84788" lon="0.28305">
        <ele>1298.6</ele>
        <time>2022-02-12T14:29:01Z</time>
      </trkpt>
      <trkpt lat="42.84789" lon="0.28309">
        <ele>1298.2</ele>
        <time>2022-02-12T14:29:05Z</time>
      </trkpt>
      <trkpt lat="42.84789" lon="0.28312">
        <ele>1298.4</ele>
        <time>2022-02-12T14:29:07Z</time>
      </trkpt>
      <trkpt lat="42.84789" lon="0.28314">
        <ele>1298</ele>
        <time>2022-02-12T14:29:09Z</time>
      </trkpt>
      <trkpt lat="42.84789" lon="0.28319">
        <ele>1297.6</ele>
        <time>2022-02-12T14:29:12Z</time>
      </trkpt>
      <trkpt lat="42.84789" lon="0.28322">
        <ele>1297.2</ele>
        <time>2022-02-12T14:29:14Z</time>
      </trkpt>
      <trkpt lat="42.84789" lon="0.28323">
        <ele>1297</ele>
        <time>2022-02-12T14:29:15Z</time>
      </trkpt>
      <trkpt lat="42.8479" lon="0.28331">
        <ele>1296.4</ele>
        <time>2022-02-12T14:29:21Z</time>
      </trkpt>
      <trkpt lat="42.8479" lon="0.28333">
        <ele>1296.2</ele>
        <time>2022-02-12T14:29:23Z</time>
      </trkpt>
      <trkpt lat="42.8479" lon="0.28342">
        <ele>1295.2</ele>
        <time>2022-02-12T14:29:30Z</time>
      </trkpt>
      <trkpt lat="42.8479" lon="0.28343">
        <ele>1295</ele>
        <time>2022-02-12T14:29:31Z</time>
      </trkpt>
      <trkpt lat="42.84789" lon="0.28346">
        <ele>1294.6</ele>
        <time>2022-02-12T14:29:33Z</time>
      </trkpt>
      <trkpt lat="42.84789" lon="0.28351">
        <ele>1294.4</ele>
        <time>2022-02-12T14:29:36Z</time>
      </trkpt>
      <trkpt lat="42.8479" lon="0.28355">
        <ele>1294.2</ele>
        <time>2022-02-12T14:29:38Z</time>
      </trkpt>
      <trkpt lat="42.8479" lon="0.28356">
        <ele>1294</ele>
        <time>2022-02-12T14:29:39Z</time>
      </trkpt>
      <trkpt lat="42.8479" lon="0.28361">
        <ele>1293.2</ele>
        <time>2022-02-12T14:29:43Z</time>
      </trkpt>
      <trkpt lat="42.84791" lon="0.28365">
        <ele>1292.8</ele>
        <time>2022-02-12T14:29:45Z</time>
      </trkpt>
      <trkpt lat="42.84791" lon="0.28371">
        <ele>1292</ele>
        <time>2022-02-12T14:29:50Z</time>
      </trkpt>
      <trkpt lat="42.84791" lon="0.28373">
        <ele>1291.8</ele>
        <time>2022-02-12T14:29:52Z</time>
      </trkpt>
      <trkpt lat="42.84792" lon="0.28384">
        <ele>1291</ele>
        <time>2022-02-12T14:29:59Z</time>
      </trkpt>
      <trkpt lat="42.84793" lon="0.2839">
        <ele>1290.8</ele>
        <time>2022-02-12T14:30:02Z</time>
      </trkpt>
      <trkpt lat="42.84795" lon="0.28395">
        <ele>1289.8</ele>
        <time>2022-02-12T14:30:06Z</time>
      </trkpt>
      <trkpt lat="42.84795" lon="0.28396">
        <ele>1289.6</ele>
        <time>2022-02-12T14:30:07Z</time>
      </trkpt>
      <trkpt lat="42.84799" lon="0.28403">
        <ele>1288.8</ele>
        <time>2022-02-12T14:30:14Z</time>
      </trkpt>
      <trkpt lat="42.84799" lon="0.28403">
        <ele>1288.8</ele>
        <time>2022-02-12T14:30:15Z</time>
      </trkpt>
      <trkpt lat="42.84803" lon="0.28407">
        <ele>1287.6</ele>
        <time>2022-02-12T14:30:20Z</time>
      </trkpt>
      <trkpt lat="42.84805" lon="0.28408">
        <ele>1287.4</ele>
        <time>2022-02-12T14:30:22Z</time>
      </trkpt>
      <trkpt lat="42.84811" lon="0.28415">
        <ele>1286.6</ele>
        <time>2022-02-12T14:30:30Z</time>
      </trkpt>
      <trkpt lat="42.84811" lon="0.28415">
        <ele>1286.6</ele>
        <time>2022-02-12T14:30:31Z</time>
      </trkpt>
      <trkpt lat="42.84815" lon="0.28419">
        <ele>1285.6</ele>
        <time>2022-02-12T14:30:38Z</time>
      </trkpt>
      <trkpt lat="42.84816" lon="0.2842">
        <ele>1285.4</ele>
        <time>2022-02-12T14:30:39Z</time>
      </trkpt>
      <trkpt lat="42.84821" lon="0.28429">
        <ele>1285</ele>
        <time>2022-02-12T14:30:45Z</time>
      </trkpt>
      <trkpt lat="42.8482" lon="0.28438">
        <ele>1284.4</ele>
        <time>2022-02-12T14:30:52Z</time>
      </trkpt>
      <trkpt lat="42.84818" lon="0.28439">
        <ele>1284.4</ele>
        <time>2022-02-12T14:30:54Z</time>
      </trkpt>
      <trkpt lat="42.8481" lon="0.28443">
        <ele>1284.6</ele>
        <time>2022-02-12T14:30:58Z</time>
      </trkpt>
      <trkpt lat="42.84798" lon="0.28441">
        <ele>1284</ele>
        <time>2022-02-12T14:31:05Z</time>
      </trkpt>
      <trkpt lat="42.84793" lon="0.28435">
        <ele>1283.4</ele>
        <time>2022-02-12T14:31:12Z</time>
      </trkpt>
      <trkpt lat="42.84792" lon="0.28434">
        <ele>1283.2</ele>
        <time>2022-02-12T14:31:14Z</time>
      </trkpt>
      <trkpt lat="42.84791" lon="0.28433">
        <ele>1283</ele>
        <time>2022-02-12T14:31:15Z</time>
      </trkpt>
      <trkpt lat="42.84787" lon="0.28432">
        <ele>1282.6</ele>
        <time>2022-02-12T14:31:19Z</time>
      </trkpt>
      <trkpt lat="42.84784" lon="0.28432">
        <ele>1282</ele>
        <time>2022-02-12T14:31:22Z</time>
      </trkpt>
      <trkpt lat="42.8478" lon="0.28429">
        <ele>1281.2</ele>
        <time>2022-02-12T14:31:26Z</time>
      </trkpt>
      <trkpt lat="42.84778" lon="0.28428">
        <ele>1281</ele>
        <time>2022-02-12T14:31:28Z</time>
      </trkpt>
      <trkpt lat="42.84773" lon="0.28423">
        <ele>1280</ele>
        <time>2022-02-12T14:31:35Z</time>
      </trkpt>
      <trkpt lat="42.84772" lon="0.28422">
        <ele>1280</ele>
        <time>2022-02-12T14:31:36Z</time>
      </trkpt>
      <trkpt lat="42.84767" lon="0.28419">
        <ele>1280.2</ele>
        <time>2022-02-12T14:31:40Z</time>
      </trkpt>
      <trkpt lat="42.84766" lon="0.28419">
        <ele>1280.2</ele>
        <time>2022-02-12T14:31:41Z</time>
      </trkpt>
      <trkpt lat="42.84762" lon="0.28419">
        <ele>1280.6</ele>
        <time>2022-02-12T14:31:46Z</time>
      </trkpt>
      <trkpt lat="42.8476" lon="0.28419">
        <ele>1280.6</ele>
        <time>2022-02-12T14:31:49Z</time>
      </trkpt>
      <trkpt lat="42.84759" lon="0.2842">
        <ele>1280.4</ele>
        <time>2022-02-12T14:31:56Z</time>
      </trkpt>
      <trkpt lat="42.8476" lon="0.28421">
        <ele>1280.4</ele>
        <time>2022-02-12T14:31:59Z</time>
      </trkpt>
      <trkpt lat="42.8476" lon="0.28424">
        <ele>1280.4</ele>
        <time>2022-02-12T14:32:01Z</time>
      </trkpt>
      <trkpt lat="42.84761" lon="0.28426">
        <ele>1280.4</ele>
        <time>2022-02-12T14:32:03Z</time>
      </trkpt>
      <trkpt lat="42.84763" lon="0.28435">
        <ele>1280.2</ele>
        <time>2022-02-12T14:32:10Z</time>
      </trkpt>
      <trkpt lat="42.84767" lon="0.28447">
        <ele>1280.6</ele>
        <time>2022-02-12T14:32:18Z</time>
      </trkpt>
      <trkpt lat="42.84769" lon="0.28458">
        <ele>1280.8</ele>
        <time>2022-02-12T14:32:27Z</time>
      </trkpt>
      <trkpt lat="42.84769" lon="0.28463">
        <ele>1281</ele>
        <time>2022-02-12T14:32:30Z</time>
      </trkpt>
      <trkpt lat="42.84772" lon="0.28471">
        <ele>1281.6</ele>
        <time>2022-02-12T14:32:36Z</time>
      </trkpt>
      <trkpt lat="42.84776" lon="0.28482">
        <ele>1282</ele>
        <time>2022-02-12T14:32:45Z</time>
      </trkpt>
      <trkpt lat="42.84777" lon="0.28486">
        <ele>1282</ele>
        <time>2022-02-12T14:32:48Z</time>
      </trkpt>
      <trkpt lat="42.84778" lon="0.28497">
        <ele>1282.4</ele>
        <time>2022-02-12T14:32:55Z</time>
      </trkpt>
      <trkpt lat="42.84778" lon="0.28507">
        <ele>1282.8</ele>
        <time>2022-02-12T14:33:02Z</time>
      </trkpt>
      <trkpt lat="42.84779" lon="0.28518">
        <ele>1282.6</ele>
        <time>2022-02-12T14:33:09Z</time>
      </trkpt>
      <trkpt lat="42.8478" lon="0.28519">
        <ele>1282.6</ele>
        <time>2022-02-12T14:33:10Z</time>
      </trkpt>
      <trkpt lat="42.8478" lon="0.28523">
        <ele>1282.8</ele>
        <time>2022-02-12T14:33:12Z</time>
      </trkpt>
      <trkpt lat="42.84782" lon="0.28528">
        <ele>1283</ele>
        <time>2022-02-12T14:33:15Z</time>
      </trkpt>
      <trkpt lat="42.84782" lon="0.28529">
        <ele>1283.2</ele>
        <time>2022-02-12T14:33:16Z</time>
      </trkpt>
      <trkpt lat="42.84786" lon="0.28534">
        <ele>1283.4</ele>
        <time>2022-02-12T14:33:21Z</time>
      </trkpt>
      <trkpt lat="42.84786" lon="0.28535">
        <ele>1283.4</ele>
        <time>2022-02-12T14:33:22Z</time>
      </trkpt>
      <trkpt lat="42.84789" lon="0.2854">
        <ele>1283.4</ele>
        <time>2022-02-12T14:33:26Z</time>
      </trkpt>
      <trkpt lat="42.8479" lon="0.28541">
        <ele>1283.4</ele>
        <time>2022-02-12T14:33:27Z</time>
      </trkpt>
      <trkpt lat="42.84794" lon="0.28548">
        <ele>1283.8</ele>
        <time>2022-02-12T14:33:33Z</time>
      </trkpt>
      <trkpt lat="42.848" lon="0.2856">
        <ele>1284</ele>
        <time>2022-02-12T14:33:41Z</time>
      </trkpt>
      <trkpt lat="42.848" lon="0.28561">
        <ele>1284.2</ele>
        <time>2022-02-12T14:33:42Z</time>
      </trkpt>
      <trkpt lat="42.84805" lon="0.28567">
        <ele>1284.6</ele>
        <time>2022-02-12T14:33:48Z</time>
      </trkpt>
      <trkpt lat="42.84807" lon="0.28578">
        <ele>1284.8</ele>
        <time>2022-02-12T14:33:56Z</time>
      </trkpt>
      <trkpt lat="42.8481" lon="0.28587">
        <ele>1285</ele>
        <time>2022-02-12T14:34:04Z</time>
      </trkpt>
      <trkpt lat="42.84812" lon="0.28591">
        <ele>1285.2</ele>
        <time>2022-02-12T14:34:08Z</time>
      </trkpt>
      <trkpt lat="42.84815" lon="0.28596">
        <ele>1285.4</ele>
        <time>2022-02-12T14:34:12Z</time>
      </trkpt>
      <trkpt lat="42.84818" lon="0.28599">
        <ele>1285.4</ele>
        <time>2022-02-12T14:34:16Z</time>
      </trkpt>
      <trkpt lat="42.84818" lon="0.286">
        <ele>1285.4</ele>
        <time>2022-02-12T14:34:17Z</time>
      </trkpt>
      <trkpt lat="42.8482" lon="0.28605">
        <ele>1285.6</ele>
        <time>2022-02-12T14:34:20Z</time>
      </trkpt>
      <trkpt lat="42.84824" lon="0.28611">
        <ele>1286.2</ele>
        <time>2022-02-12T14:34:25Z</time>
      </trkpt>
      <trkpt lat="42.84826" lon="0.28612">
        <ele>1286.2</ele>
        <time>2022-02-12T14:34:27Z</time>
      </trkpt>
      <trkpt lat="42.8483" lon="0.28617">
        <ele>1286.8</ele>
        <time>2022-02-12T14:34:32Z</time>
      </trkpt>
      <trkpt lat="42.84832" lon="0.28621">
        <ele>1287</ele>
        <time>2022-02-12T14:34:35Z</time>
      </trkpt>
      <trkpt lat="42.84835" lon="0.28625">
        <ele>1287.2</ele>
        <time>2022-02-12T14:34:39Z</time>
      </trkpt>
      <trkpt lat="42.84838" lon="0.28631">
        <ele>1287.4</ele>
        <time>2022-02-12T14:34:43Z</time>
      </trkpt>
      <trkpt lat="42.84839" lon="0.28638">
        <ele>1288</ele>
        <time>2022-02-12T14:34:47Z</time>
      </trkpt>
      <trkpt lat="42.84839" lon="0.28649">
        <ele>1287.8</ele>
        <time>2022-02-12T14:34:55Z</time>
      </trkpt>
      <trkpt lat="42.84839" lon="0.28651">
        <ele>1287.8</ele>
        <time>2022-02-12T14:34:56Z</time>
      </trkpt>
      <trkpt lat="42.84837" lon="0.28663">
        <ele>1287.8</ele>
        <time>2022-02-12T14:35:04Z</time>
      </trkpt>
      <trkpt lat="42.84837" lon="0.28665">
        <ele>1288</ele>
        <time>2022-02-12T14:35:06Z</time>
      </trkpt>
      <trkpt lat="42.84836" lon="0.28667">
        <ele>1288</ele>
        <time>2022-02-12T14:35:08Z</time>
      </trkpt>
      <trkpt lat="42.84836" lon="0.2867">
        <ele>1288</ele>
        <time>2022-02-12T14:35:10Z</time>
      </trkpt>
      <trkpt lat="42.84836" lon="0.28677">
        <ele>1288</ele>
        <time>2022-02-12T14:35:15Z</time>
      </trkpt>
      <trkpt lat="42.84836" lon="0.28678">
        <ele>1288</ele>
        <time>2022-02-12T14:35:16Z</time>
      </trkpt>
      <trkpt lat="42.84836" lon="0.28679">
        <ele>1288</ele>
        <time>2022-02-12T14:35:17Z</time>
      </trkpt>
      <trkpt lat="42.84838" lon="0.28684">
        <ele>1288</ele>
        <time>2022-02-12T14:35:21Z</time>
      </trkpt>
      <trkpt lat="42.84839" lon="0.28686">
        <ele>1288</ele>
        <time>2022-02-12T14:35:23Z</time>
      </trkpt>
      <trkpt lat="42.84841" lon="0.28697">
        <ele>1288.2</ele>
        <time>2022-02-12T14:35:30Z</time>
      </trkpt>
      <trkpt lat="42.84842" lon="0.28708">
        <ele>1288.2</ele>
        <time>2022-02-12T14:35:38Z</time>
      </trkpt>
      <trkpt lat="42.84842" lon="0.2871">
        <ele>1288</ele>
        <time>2022-02-12T14:35:39Z</time>
      </trkpt>
      <trkpt lat="42.8484" lon="0.28717">
        <ele>1288</ele>
        <time>2022-02-12T14:35:43Z</time>
      </trkpt>
      <trkpt lat="42.84836" lon="0.28728">
        <ele>1288.2</ele>
        <time>2022-02-12T14:35:50Z</time>
      </trkpt>
      <trkpt lat="42.84836" lon="0.2873">
        <ele>1288.2</ele>
        <time>2022-02-12T14:35:51Z</time>
      </trkpt>
      <trkpt lat="42.84837" lon="0.28734">
        <ele>1288.2</ele>
        <time>2022-02-12T14:35:53Z</time>
      </trkpt>
      <trkpt lat="42.84837" lon="0.28737">
        <ele>1288</ele>
        <time>2022-02-12T14:35:55Z</time>
      </trkpt>
      <trkpt lat="42.84839" lon="0.28748">
        <ele>1288</ele>
        <time>2022-02-12T14:36:03Z</time>
      </trkpt>
      <trkpt lat="42.8484" lon="0.28761">
        <ele>1288</ele>
        <time>2022-02-12T14:36:11Z</time>
      </trkpt>
      <trkpt lat="42.8484" lon="0.28773">
        <ele>1287.8</ele>
        <time>2022-02-12T14:36:18Z</time>
      </trkpt>
      <trkpt lat="42.8484" lon="0.28778">
        <ele>1287.6</ele>
        <time>2022-02-12T14:36:21Z</time>
      </trkpt>
      <trkpt lat="42.84839" lon="0.28784">
        <ele>1287.6</ele>
        <time>2022-02-12T14:36:25Z</time>
      </trkpt>
      <trkpt lat="42.84836" lon="0.28795">
        <ele>1287.6</ele>
        <time>2022-02-12T14:36:31Z</time>
      </trkpt>
      <trkpt lat="42.84836" lon="0.28796">
        <ele>1287.6</ele>
        <time>2022-02-12T14:36:32Z</time>
      </trkpt>
      <trkpt lat="42.84836" lon="0.28798">
        <ele>1287.6</ele>
        <time>2022-02-12T14:36:33Z</time>
      </trkpt>
      <trkpt lat="42.84838" lon="0.28807">
        <ele>1287</ele>
        <time>2022-02-12T14:36:38Z</time>
      </trkpt>
      <trkpt lat="42.84838" lon="0.2882">
        <ele>1286.6</ele>
        <time>2022-02-12T14:36:46Z</time>
      </trkpt>
      <trkpt lat="42.84838" lon="0.28825">
        <ele>1286.4</ele>
        <time>2022-02-12T14:36:49Z</time>
      </trkpt>
      <trkpt lat="42.84839" lon="0.2883">
        <ele>1286.2</ele>
        <time>2022-02-12T14:36:53Z</time>
      </trkpt>
      <trkpt lat="42.84839" lon="0.28832">
        <ele>1286</ele>
        <time>2022-02-12T14:36:54Z</time>
      </trkpt>
      <trkpt lat="42.8484" lon="0.28837">
        <ele>1285.8</ele>
        <time>2022-02-12T14:36:57Z</time>
      </trkpt>
      <trkpt lat="42.84839" lon="0.2884">
        <ele>1285.6</ele>
        <time>2022-02-12T14:36:59Z</time>
      </trkpt>
      <trkpt lat="42.84838" lon="0.28844">
        <ele>1285.2</ele>
        <time>2022-02-12T14:37:02Z</time>
      </trkpt>
      <trkpt lat="42.84837" lon="0.28853">
        <ele>1285</ele>
        <time>2022-02-12T14:37:08Z</time>
      </trkpt>
      <trkpt lat="42.84834" lon="0.28863">
        <ele>1284</ele>
        <time>2022-02-12T14:37:15Z</time>
      </trkpt>
      <trkpt lat="42.84833" lon="0.28875">
        <ele>1283.6</ele>
        <time>2022-02-12T14:37:21Z</time>
      </trkpt>
      <trkpt lat="42.84833" lon="0.28879">
        <ele>1283.2</ele>
        <time>2022-02-12T14:37:24Z</time>
      </trkpt>
      <trkpt lat="42.84833" lon="0.28881">
        <ele>1283</ele>
        <time>2022-02-12T14:37:25Z</time>
      </trkpt>
      <trkpt lat="42.84834" lon="0.28882">
        <ele>1282.6</ele>
        <time>2022-02-12T14:37:26Z</time>
      </trkpt>
      <trkpt lat="42.84839" lon="0.2889">
        <ele>1282.2</ele>
        <time>2022-02-12T14:37:32Z</time>
      </trkpt>
      <trkpt lat="42.84842" lon="0.28893">
        <ele>1281.6</ele>
        <time>2022-02-12T14:37:34Z</time>
      </trkpt>
      <trkpt lat="42.84847" lon="0.28899">
        <ele>1280.6</ele>
        <time>2022-02-12T14:37:40Z</time>
      </trkpt>
      <trkpt lat="42.84847" lon="0.289">
        <ele>1280.4</ele>
        <time>2022-02-12T14:37:41Z</time>
      </trkpt>
      <trkpt lat="42.84851" lon="0.28905">
        <ele>1279.4</ele>
        <time>2022-02-12T14:37:47Z</time>
      </trkpt>
      <trkpt lat="42.84852" lon="0.28907">
        <ele>1279</ele>
        <time>2022-02-12T14:37:52Z</time>
      </trkpt>
    </trkseg>
  </trk>
</gpx>